<?xml version="1.0" encoding="UTF-8" standalone="no" ?>
<gpx xmlns="http://www.topografix.com/GPX/1/1" xmlns:xsi="http://www.w3.org/2001/XMLSchema-instance" xsi:schemaLocation="http://www.topografix.com/GPX/1/1 http://www.topografix.com/GPX/1/1/gpx.xsd" version="1.1" creator="VisuGPX - https://www.visugpx.com">
  <metadata>
    <name>Premier de l\'an</name>
    <desc><![CDATA[Première sortie de l\'année autour de Montenois]]></desc>
  </metadata>
  <wpt lat="47.50687" lon="6.65102">
    <ele>375</ele>
    <name><![CDATA[Point de cheminement 1]]></name>
    <desc><![CDATA[]]></desc>
  </wpt>
  <wpt lat="47.52111" lon="6.64372">
    <ele>383</ele>
    <name><![CDATA[Point de cheminement 2]]></name>
    <desc><![CDATA[]]></desc>
  </wpt>
  <wpt lat="47.53131" lon="6.62478">
    <ele>465</ele>
    <name><![CDATA[Point de cheminement 3]]></name>
    <desc><![CDATA[]]></desc>
  </wpt>
  <wpt lat="47.53884" lon="6.63251">
    <ele>396</ele>
    <name><![CDATA[Point de cheminement 4]]></name>
    <desc><![CDATA[]]></desc>
  </wpt>
  <wpt lat="47.55526" lon="6.65437">
    <ele>393</ele>
    <name><![CDATA[Point de cheminement 5]]></name>
    <desc><![CDATA[]]></desc>
  </wpt>
  <wpt lat="47.55043" lon="6.66162">
    <ele>511</ele>
    <name><![CDATA[Point de cheminement 6]]></name>
    <desc><![CDATA[]]></desc>
  </wpt>
  <wpt lat="47.5162" lon="6.65349">
    <ele>364</ele>
    <name><![CDATA[Point de cheminement 7]]></name>
    <desc><![CDATA[]]></desc>
  </wpt>
  <wpt lat="47.49869" lon="6.66495">
    <ele>387</ele>
    <name><![CDATA[Point de cheminement 8]]></name>
    <desc><![CDATA[]]></desc>
  </wpt>
  <wpt lat="47.49875" lon="6.66477">
    <ele>387</ele>
    <name><![CDATA[Point de cheminement 9]]></name>
    <desc><![CDATA[]]></desc>
  </wpt>
  <trk>
    <name><![CDATA[D298]]></name>
    <desc><![CDATA[]]></desc>
    <trkseg>
      <trkpt lat="47.49868" lon="6.66479">
        <ele>388</ele>
        <time>2016-01-01T08:45:45.661Z</time>
      </trkpt>
      <trkpt lat="47.49872" lon="6.66477">
        <ele>387</ele>
        <time>2016-01-01T08:45:48.000Z</time>
      </trkpt>
      <trkpt lat="47.49873" lon="6.66476">
        <ele>387</ele>
        <time>2016-01-01T08:45:49.000Z</time>
      </trkpt>
      <trkpt lat="47.49871" lon="6.66473">
        <ele>388</ele>
        <time>2016-01-01T08:49:31.999Z</time>
      </trkpt>
      <trkpt lat="47.49868" lon="6.66474">
        <ele>388</ele>
        <time>2016-01-01T08:49:33.000Z</time>
      </trkpt>
      <trkpt lat="47.49866" lon="6.66475">
        <ele>388</ele>
        <time>2016-01-01T08:49:34.001Z</time>
      </trkpt>
      <trkpt lat="47.49862" lon="6.66475">
        <ele>388</ele>
        <time>2016-01-01T08:49:35.000Z</time>
      </trkpt>
      <trkpt lat="47.4986" lon="6.66476">
        <ele>388</ele>
        <time>2016-01-01T08:49:36.000Z</time>
      </trkpt>
      <trkpt lat="47.49857" lon="6.66477">
        <ele>388</ele>
        <time>2016-01-01T08:49:37.000Z</time>
      </trkpt>
      <trkpt lat="47.49855" lon="6.66478">
        <ele>389</ele>
        <time>2016-01-01T08:49:38.000Z</time>
      </trkpt>
      <trkpt lat="47.49851" lon="6.6648">
        <ele>389</ele>
        <time>2016-01-01T08:49:39.000Z</time>
      </trkpt>
      <trkpt lat="47.49849" lon="6.66481">
        <ele>389</ele>
        <time>2016-01-01T08:49:40.000Z</time>
      </trkpt>
      <trkpt lat="47.49846" lon="6.66483">
        <ele>389</ele>
        <time>2016-01-01T08:49:40.999Z</time>
      </trkpt>
      <trkpt lat="47.49843" lon="6.66485">
        <ele>389</ele>
        <time>2016-01-01T08:49:42.000Z</time>
      </trkpt>
      <trkpt lat="47.4984" lon="6.66486">
        <ele>390</ele>
        <time>2016-01-01T08:49:43.001Z</time>
      </trkpt>
      <trkpt lat="47.49838" lon="6.66487">
        <ele>390</ele>
        <time>2016-01-01T08:49:44.000Z</time>
      </trkpt>
      <trkpt lat="47.49835" lon="6.66488">
        <ele>390</ele>
        <time>2016-01-01T08:49:45.000Z</time>
      </trkpt>
      <trkpt lat="47.49832" lon="6.6649">
        <ele>392</ele>
        <time>2016-01-01T08:49:46.000Z</time>
      </trkpt>
      <trkpt lat="47.4983" lon="6.66491">
        <ele>392</ele>
        <time>2016-01-01T08:49:47.000Z</time>
      </trkpt>
      <trkpt lat="47.49827" lon="6.66492">
        <ele>392</ele>
        <time>2016-01-01T08:49:48.000Z</time>
      </trkpt>
      <trkpt lat="47.49824" lon="6.66493">
        <ele>393</ele>
        <time>2016-01-01T08:49:49.000Z</time>
      </trkpt>
      <trkpt lat="47.49822" lon="6.66494">
        <ele>393</ele>
        <time>2016-01-01T08:49:50.000Z</time>
      </trkpt>
      <trkpt lat="47.49819" lon="6.66495">
        <ele>393</ele>
        <time>2016-01-01T08:49:51.000Z</time>
      </trkpt>
      <trkpt lat="47.49816" lon="6.66496">
        <ele>393</ele>
        <time>2016-01-01T08:49:52.050Z</time>
      </trkpt>
      <trkpt lat="47.49814" lon="6.66497">
        <ele>393</ele>
        <time>2016-01-01T08:49:53.000Z</time>
      </trkpt>
      <trkpt lat="47.49811" lon="6.66498">
        <ele>394</ele>
        <time>2016-01-01T08:49:54.000Z</time>
      </trkpt>
      <trkpt lat="47.49808" lon="6.66499">
        <ele>394</ele>
        <time>2016-01-01T08:49:55.000Z</time>
      </trkpt>
      <trkpt lat="47.49805" lon="6.665">
        <ele>391</ele>
        <time>2016-01-01T08:49:56.000Z</time>
      </trkpt>
      <trkpt lat="47.49802" lon="6.66501">
        <ele>391</ele>
        <time>2016-01-01T08:49:57.000Z</time>
      </trkpt>
      <trkpt lat="47.49799" lon="6.66501">
        <ele>391</ele>
        <time>2016-01-01T08:49:58.000Z</time>
      </trkpt>
      <trkpt lat="47.49796" lon="6.66501">
        <ele>391</ele>
        <time>2016-01-01T08:49:59.000Z</time>
      </trkpt>
      <trkpt lat="47.49793" lon="6.66502">
        <ele>391</ele>
        <time>2016-01-01T08:50:00.000Z</time>
      </trkpt>
      <trkpt lat="47.49791" lon="6.66503">
        <ele>391</ele>
        <time>2016-01-01T08:50:01.000Z</time>
      </trkpt>
      <trkpt lat="47.49788" lon="6.66504">
        <ele>391</ele>
        <time>2016-01-01T08:50:02.000Z</time>
      </trkpt>
      <trkpt lat="47.49785" lon="6.66506">
        <ele>391</ele>
        <time>2016-01-01T08:50:03.000Z</time>
      </trkpt>
      <trkpt lat="47.49783" lon="6.66507">
        <ele>391</ele>
        <time>2016-01-01T08:50:04.000Z</time>
      </trkpt>
      <trkpt lat="47.4978" lon="6.66508">
        <ele>391</ele>
        <time>2016-01-01T08:50:05.000Z</time>
      </trkpt>
      <trkpt lat="47.49778" lon="6.66508">
        <ele>392</ele>
        <time>2016-01-01T08:50:06.000Z</time>
      </trkpt>
      <trkpt lat="47.49775" lon="6.66509">
        <ele>392</ele>
        <time>2016-01-01T08:50:07.000Z</time>
      </trkpt>
      <trkpt lat="47.49773" lon="6.66509">
        <ele>392</ele>
        <time>2016-01-01T08:50:08.000Z</time>
      </trkpt>
      <trkpt lat="47.49771" lon="6.6651">
        <ele>392</ele>
        <time>2016-01-01T08:50:09.000Z</time>
      </trkpt>
      <trkpt lat="47.49768" lon="6.66512">
        <ele>392</ele>
        <time>2016-01-01T08:50:10.000Z</time>
      </trkpt>
      <trkpt lat="47.49765" lon="6.66513">
        <ele>392</ele>
        <time>2016-01-01T08:50:11.000Z</time>
      </trkpt>
      <trkpt lat="47.49763" lon="6.66514">
        <ele>392</ele>
        <time>2016-01-01T08:50:12.000Z</time>
      </trkpt>
      <trkpt lat="47.49761" lon="6.66515">
        <ele>392</ele>
        <time>2016-01-01T08:50:13.000Z</time>
      </trkpt>
      <trkpt lat="47.49758" lon="6.66516">
        <ele>392</ele>
        <time>2016-01-01T08:50:14.000Z</time>
      </trkpt>
      <trkpt lat="47.49755" lon="6.66517">
        <ele>392</ele>
        <time>2016-01-01T08:50:15.000Z</time>
      </trkpt>
      <trkpt lat="47.49752" lon="6.66518">
        <ele>392</ele>
        <time>2016-01-01T08:50:16.000Z</time>
      </trkpt>
      <trkpt lat="47.49749" lon="6.66519">
        <ele>394</ele>
        <time>2016-01-01T08:50:17.000Z</time>
      </trkpt>
      <trkpt lat="47.49746" lon="6.6652">
        <ele>394</ele>
        <time>2016-01-01T08:50:18.000Z</time>
      </trkpt>
      <trkpt lat="47.49743" lon="6.66521">
        <ele>394</ele>
        <time>2016-01-01T08:50:19.000Z</time>
      </trkpt>
      <trkpt lat="47.49739" lon="6.66522">
        <ele>394</ele>
        <time>2016-01-01T08:50:20.000Z</time>
      </trkpt>
      <trkpt lat="47.49736" lon="6.66523">
        <ele>394</ele>
        <time>2016-01-01T08:50:21.000Z</time>
      </trkpt>
      <trkpt lat="47.49733" lon="6.66524">
        <ele>394</ele>
        <time>2016-01-01T08:50:22.000Z</time>
      </trkpt>
      <trkpt lat="47.4973" lon="6.66524">
        <ele>394</ele>
        <time>2016-01-01T08:50:23.000Z</time>
      </trkpt>
      <trkpt lat="47.49727" lon="6.66525">
        <ele>394</ele>
        <time>2016-01-01T08:50:24.000Z</time>
      </trkpt>
      <trkpt lat="47.49724" lon="6.66526">
        <ele>394</ele>
        <time>2016-01-01T08:50:25.000Z</time>
      </trkpt>
      <trkpt lat="47.49721" lon="6.66526">
        <ele>394</ele>
        <time>2016-01-01T08:50:26.000Z</time>
      </trkpt>
      <trkpt lat="47.49718" lon="6.66527">
        <ele>394</ele>
        <time>2016-01-01T08:50:27.000Z</time>
      </trkpt>
      <trkpt lat="47.49715" lon="6.66528">
        <ele>395</ele>
        <time>2016-01-01T08:50:28.000Z</time>
      </trkpt>
      <trkpt lat="47.49712" lon="6.66529">
        <ele>395</ele>
        <time>2016-01-01T08:50:29.000Z</time>
      </trkpt>
      <trkpt lat="47.49709" lon="6.66531">
        <ele>395</ele>
        <time>2016-01-01T08:50:30.000Z</time>
      </trkpt>
      <trkpt lat="47.49706" lon="6.66532">
        <ele>395</ele>
        <time>2016-01-01T08:50:31.000Z</time>
      </trkpt>
      <trkpt lat="47.49703" lon="6.66533">
        <ele>395</ele>
        <time>2016-01-01T08:50:32.000Z</time>
      </trkpt>
      <trkpt lat="47.497" lon="6.66534">
        <ele>395</ele>
        <time>2016-01-01T08:50:33.000Z</time>
      </trkpt>
      <trkpt lat="47.49697" lon="6.66535">
        <ele>395</ele>
        <time>2016-01-01T08:50:34.000Z</time>
      </trkpt>
      <trkpt lat="47.49694" lon="6.66536">
        <ele>395</ele>
        <time>2016-01-01T08:50:35.000Z</time>
      </trkpt>
      <trkpt lat="47.49691" lon="6.66537">
        <ele>395</ele>
        <time>2016-01-01T08:50:36.000Z</time>
      </trkpt>
      <trkpt lat="47.49689" lon="6.66538">
        <ele>395</ele>
        <time>2016-01-01T08:50:37.000Z</time>
      </trkpt>
      <trkpt lat="47.49686" lon="6.66539">
        <ele>395</ele>
        <time>2016-01-01T08:50:38.000Z</time>
      </trkpt>
      <trkpt lat="47.49683" lon="6.6654">
        <ele>395</ele>
        <time>2016-01-01T08:50:39.000Z</time>
      </trkpt>
      <trkpt lat="47.4968" lon="6.66542">
        <ele>395</ele>
        <time>2016-01-01T08:50:40.000Z</time>
      </trkpt>
      <trkpt lat="47.49677" lon="6.66543">
        <ele>395</ele>
        <time>2016-01-01T08:50:41.000Z</time>
      </trkpt>
      <trkpt lat="47.49674" lon="6.66544">
        <ele>395</ele>
        <time>2016-01-01T08:50:42.000Z</time>
      </trkpt>
      <trkpt lat="47.49671" lon="6.66545">
        <ele>395</ele>
        <time>2016-01-01T08:50:43.000Z</time>
      </trkpt>
      <trkpt lat="47.49668" lon="6.66546">
        <ele>395</ele>
        <time>2016-01-01T08:50:44.000Z</time>
      </trkpt>
      <trkpt lat="47.49665" lon="6.66547">
        <ele>398</ele>
        <time>2016-01-01T08:50:45.000Z</time>
      </trkpt>
      <trkpt lat="47.49662" lon="6.66548">
        <ele>398</ele>
        <time>2016-01-01T08:50:46.000Z</time>
      </trkpt>
      <trkpt lat="47.49659" lon="6.66549">
        <ele>398</ele>
        <time>2016-01-01T08:50:47.000Z</time>
      </trkpt>
      <trkpt lat="47.49656" lon="6.66549">
        <ele>398</ele>
        <time>2016-01-01T08:50:48.000Z</time>
      </trkpt>
      <trkpt lat="47.49654" lon="6.66549">
        <ele>398</ele>
        <time>2016-01-01T08:50:49.000Z</time>
      </trkpt>
      <trkpt lat="47.49651" lon="6.66549">
        <ele>398</ele>
        <time>2016-01-01T08:50:50.000Z</time>
      </trkpt>
      <trkpt lat="47.49648" lon="6.6655">
        <ele>398</ele>
        <time>2016-01-01T08:50:51.000Z</time>
      </trkpt>
      <trkpt lat="47.49645" lon="6.6655">
        <ele>398</ele>
        <time>2016-01-01T08:50:52.000Z</time>
      </trkpt>
      <trkpt lat="47.49642" lon="6.66551">
        <ele>398</ele>
        <time>2016-01-01T08:50:53.000Z</time>
      </trkpt>
      <trkpt lat="47.49639" lon="6.66552">
        <ele>399</ele>
        <time>2016-01-01T08:50:54.000Z</time>
      </trkpt>
      <trkpt lat="47.49636" lon="6.66554">
        <ele>399</ele>
        <time>2016-01-01T08:50:55.000Z</time>
      </trkpt>
      <trkpt lat="47.49633" lon="6.66555">
        <ele>399</ele>
        <time>2016-01-01T08:50:56.000Z</time>
      </trkpt>
      <trkpt lat="47.4963" lon="6.66556">
        <ele>399</ele>
        <time>2016-01-01T08:50:57.000Z</time>
      </trkpt>
      <trkpt lat="47.49627" lon="6.66557">
        <ele>399</ele>
        <time>2016-01-01T08:50:58.000Z</time>
      </trkpt>
      <trkpt lat="47.49624" lon="6.66558">
        <ele>399</ele>
        <time>2016-01-01T08:50:59.000Z</time>
      </trkpt>
      <trkpt lat="47.49621" lon="6.6656">
        <ele>399</ele>
        <time>2016-01-01T08:51:00.000Z</time>
      </trkpt>
      <trkpt lat="47.49618" lon="6.66561">
        <ele>399</ele>
        <time>2016-01-01T08:51:01.000Z</time>
      </trkpt>
      <trkpt lat="47.49614" lon="6.66562">
        <ele>399</ele>
        <time>2016-01-01T08:51:02.000Z</time>
      </trkpt>
      <trkpt lat="47.49611" lon="6.66563">
        <ele>399</ele>
        <time>2016-01-01T08:51:03.000Z</time>
      </trkpt>
      <trkpt lat="47.49607" lon="6.66563">
        <ele>399</ele>
        <time>2016-01-01T08:51:04.000Z</time>
      </trkpt>
      <trkpt lat="47.49604" lon="6.66564">
        <ele>399</ele>
        <time>2016-01-01T08:51:05.000Z</time>
      </trkpt>
      <trkpt lat="47.49601" lon="6.66564">
        <ele>399</ele>
        <time>2016-01-01T08:51:06.000Z</time>
      </trkpt>
      <trkpt lat="47.49598" lon="6.66565">
        <ele>399</ele>
        <time>2016-01-01T08:51:07.000Z</time>
      </trkpt>
      <trkpt lat="47.49595" lon="6.66566">
        <ele>399</ele>
        <time>2016-01-01T08:51:08.000Z</time>
      </trkpt>
      <trkpt lat="47.49592" lon="6.66566">
        <ele>399</ele>
        <time>2016-01-01T08:51:09.000Z</time>
      </trkpt>
      <trkpt lat="47.49589" lon="6.66567">
        <ele>399</ele>
        <time>2016-01-01T08:51:10.000Z</time>
      </trkpt>
      <trkpt lat="47.49586" lon="6.66567">
        <ele>399</ele>
        <time>2016-01-01T08:51:11.000Z</time>
      </trkpt>
      <trkpt lat="47.49583" lon="6.66567">
        <ele>401</ele>
        <time>2016-01-01T08:51:12.000Z</time>
      </trkpt>
      <trkpt lat="47.4958" lon="6.66567">
        <ele>401</ele>
        <time>2016-01-01T08:51:13.000Z</time>
      </trkpt>
      <trkpt lat="47.49577" lon="6.66567">
        <ele>401</ele>
        <time>2016-01-01T08:51:14.000Z</time>
      </trkpt>
      <trkpt lat="47.49574" lon="6.66566">
        <ele>401</ele>
        <time>2016-01-01T08:51:15.000Z</time>
      </trkpt>
      <trkpt lat="47.49571" lon="6.66566">
        <ele>401</ele>
        <time>2016-01-01T08:51:16.000Z</time>
      </trkpt>
      <trkpt lat="47.49568" lon="6.66566">
        <ele>402</ele>
        <time>2016-01-01T08:51:17.000Z</time>
      </trkpt>
      <trkpt lat="47.49565" lon="6.66567">
        <ele>402</ele>
        <time>2016-01-01T08:51:18.000Z</time>
      </trkpt>
      <trkpt lat="47.49562" lon="6.66567">
        <ele>402</ele>
        <time>2016-01-01T08:51:19.000Z</time>
      </trkpt>
      <trkpt lat="47.49559" lon="6.66568">
        <ele>402</ele>
        <time>2016-01-01T08:51:20.000Z</time>
      </trkpt>
      <trkpt lat="47.49556" lon="6.66568">
        <ele>402</ele>
        <time>2016-01-01T08:51:21.000Z</time>
      </trkpt>
      <trkpt lat="47.49553" lon="6.66568">
        <ele>402</ele>
        <time>2016-01-01T08:51:22.000Z</time>
      </trkpt>
      <trkpt lat="47.4955" lon="6.66568">
        <ele>402</ele>
        <time>2016-01-01T08:51:23.000Z</time>
      </trkpt>
      <trkpt lat="47.49547" lon="6.66568">
        <ele>403</ele>
        <time>2016-01-01T08:51:24.000Z</time>
      </trkpt>
      <trkpt lat="47.49543" lon="6.66568">
        <ele>403</ele>
        <time>2016-01-01T08:51:25.000Z</time>
      </trkpt>
      <trkpt lat="47.4954" lon="6.66569">
        <ele>403</ele>
        <time>2016-01-01T08:51:26.000Z</time>
      </trkpt>
      <trkpt lat="47.49537" lon="6.66568">
        <ele>403</ele>
        <time>2016-01-01T08:51:27.000Z</time>
      </trkpt>
      <trkpt lat="47.49534" lon="6.66569">
        <ele>403</ele>
        <time>2016-01-01T08:51:28.000Z</time>
      </trkpt>
      <trkpt lat="47.49531" lon="6.66569">
        <ele>403</ele>
        <time>2016-01-01T08:51:29.000Z</time>
      </trkpt>
      <trkpt lat="47.49528" lon="6.66569">
        <ele>403</ele>
        <time>2016-01-01T08:51:30.000Z</time>
      </trkpt>
      <trkpt lat="47.49524" lon="6.66569">
        <ele>403</ele>
        <time>2016-01-01T08:51:31.000Z</time>
      </trkpt>
      <trkpt lat="47.49521" lon="6.66569">
        <ele>403</ele>
        <time>2016-01-01T08:51:32.000Z</time>
      </trkpt>
      <trkpt lat="47.49518" lon="6.66568">
        <ele>403</ele>
        <time>2016-01-01T08:51:33.000Z</time>
      </trkpt>
      <trkpt lat="47.49515" lon="6.66568">
        <ele>403</ele>
        <time>2016-01-01T08:51:34.000Z</time>
      </trkpt>
      <trkpt lat="47.49512" lon="6.66568">
        <ele>403</ele>
        <time>2016-01-01T08:51:35.000Z</time>
      </trkpt>
      <trkpt lat="47.49509" lon="6.66568">
        <ele>403</ele>
        <time>2016-01-01T08:51:36.000Z</time>
      </trkpt>
      <trkpt lat="47.49506" lon="6.66568">
        <ele>403</ele>
        <time>2016-01-01T08:51:37.000Z</time>
      </trkpt>
      <trkpt lat="47.49503" lon="6.66568">
        <ele>402</ele>
        <time>2016-01-01T08:51:38.000Z</time>
      </trkpt>
      <trkpt lat="47.495" lon="6.66569">
        <ele>402</ele>
        <time>2016-01-01T08:51:39.000Z</time>
      </trkpt>
      <trkpt lat="47.49497" lon="6.66571">
        <ele>404</ele>
        <time>2016-01-01T08:51:40.000Z</time>
      </trkpt>
      <trkpt lat="47.49494" lon="6.66572">
        <ele>404</ele>
        <time>2016-01-01T08:51:41.000Z</time>
      </trkpt>
      <trkpt lat="47.49491" lon="6.66573">
        <ele>404</ele>
        <time>2016-01-01T08:51:42.000Z</time>
      </trkpt>
      <trkpt lat="47.49489" lon="6.66574">
        <ele>404</ele>
        <time>2016-01-01T08:51:43.000Z</time>
      </trkpt>
      <trkpt lat="47.49486" lon="6.66575">
        <ele>404</ele>
        <time>2016-01-01T08:51:44.000Z</time>
      </trkpt>
      <trkpt lat="47.49483" lon="6.66576">
        <ele>404</ele>
        <time>2016-01-01T08:51:45.000Z</time>
      </trkpt>
      <trkpt lat="47.49481" lon="6.66577">
        <ele>405</ele>
        <time>2016-01-01T08:51:46.000Z</time>
      </trkpt>
      <trkpt lat="47.49477" lon="6.66578">
        <ele>405</ele>
        <time>2016-01-01T08:51:47.000Z</time>
      </trkpt>
      <trkpt lat="47.49474" lon="6.66579">
        <ele>405</ele>
        <time>2016-01-01T08:51:48.000Z</time>
      </trkpt>
      <trkpt lat="47.49471" lon="6.6658">
        <ele>405</ele>
        <time>2016-01-01T08:51:49.000Z</time>
      </trkpt>
      <trkpt lat="47.49468" lon="6.66582">
        <ele>405</ele>
        <time>2016-01-01T08:51:50.000Z</time>
      </trkpt>
      <trkpt lat="47.49464" lon="6.66583">
        <ele>406</ele>
        <time>2016-01-01T08:51:51.000Z</time>
      </trkpt>
      <trkpt lat="47.4946" lon="6.66585">
        <ele>401</ele>
        <time>2016-01-01T08:51:52.000Z</time>
      </trkpt>
      <trkpt lat="47.49455" lon="6.66589">
        <ele>401</ele>
        <time>2016-01-01T08:51:53.000Z</time>
      </trkpt>
      <trkpt lat="47.49451" lon="6.6659">
        <ele>401</ele>
        <time>2016-01-01T08:51:54.000Z</time>
      </trkpt>
      <trkpt lat="47.49448" lon="6.66591">
        <ele>401</ele>
        <time>2016-01-01T08:51:55.000Z</time>
      </trkpt>
      <trkpt lat="47.49444" lon="6.66592">
        <ele>401</ele>
        <time>2016-01-01T08:51:56.000Z</time>
      </trkpt>
      <trkpt lat="47.49441" lon="6.66596">
        <ele>401</ele>
        <time>2016-01-01T08:51:57.000Z</time>
      </trkpt>
      <trkpt lat="47.49437" lon="6.66599">
        <ele>401</ele>
        <time>2016-01-01T08:51:58.000Z</time>
      </trkpt>
      <trkpt lat="47.49433" lon="6.66602">
        <ele>401</ele>
        <time>2016-01-01T08:51:59.000Z</time>
      </trkpt>
      <trkpt lat="47.49429" lon="6.66606">
        <ele>401</ele>
        <time>2016-01-01T08:52:00.000Z</time>
      </trkpt>
      <trkpt lat="47.49426" lon="6.66609">
        <ele>401</ele>
        <time>2016-01-01T08:52:01.000Z</time>
      </trkpt>
      <trkpt lat="47.49422" lon="6.66615">
        <ele>401</ele>
        <time>2016-01-01T08:52:02.000Z</time>
      </trkpt>
      <trkpt lat="47.49418" lon="6.66619">
        <ele>401</ele>
        <time>2016-01-01T08:52:03.000Z</time>
      </trkpt>
      <trkpt lat="47.49413" lon="6.66621">
        <ele>404</ele>
        <time>2016-01-01T08:52:04.000Z</time>
      </trkpt>
      <trkpt lat="47.4941" lon="6.66623">
        <ele>404</ele>
        <time>2016-01-01T08:52:05.000Z</time>
      </trkpt>
      <trkpt lat="47.49406" lon="6.66624">
        <ele>404</ele>
        <time>2016-01-01T08:52:06.000Z</time>
      </trkpt>
      <trkpt lat="47.49402" lon="6.66624">
        <ele>404</ele>
        <time>2016-01-01T08:52:07.000Z</time>
      </trkpt>
      <trkpt lat="47.49399" lon="6.66623">
        <ele>404</ele>
        <time>2016-01-01T08:52:08.000Z</time>
      </trkpt>
      <trkpt lat="47.49395" lon="6.66623">
        <ele>404</ele>
        <time>2016-01-01T08:52:10.000Z</time>
      </trkpt>
      <trkpt lat="47.49393" lon="6.66622">
        <ele>404</ele>
        <time>2016-01-01T08:52:11.000Z</time>
      </trkpt>
      <trkpt lat="47.49391" lon="6.6662">
        <ele>404</ele>
        <time>2016-01-01T08:52:12.000Z</time>
      </trkpt>
      <trkpt lat="47.49389" lon="6.66619">
        <ele>404</ele>
        <time>2016-01-01T08:52:13.000Z</time>
      </trkpt>
      <trkpt lat="47.49385" lon="6.66616">
        <ele>405</ele>
        <time>2016-01-01T08:52:15.000Z</time>
      </trkpt>
      <trkpt lat="47.49383" lon="6.66615">
        <ele>405</ele>
        <time>2016-01-01T08:52:16.000Z</time>
      </trkpt>
      <trkpt lat="47.4938" lon="6.66611">
        <ele>405</ele>
        <time>2016-01-01T08:52:19.000Z</time>
      </trkpt>
      <trkpt lat="47.49379" lon="6.6661">
        <ele>405</ele>
        <time>2016-01-01T08:52:20.000Z</time>
      </trkpt>
      <trkpt lat="47.49375" lon="6.66608">
        <ele>405</ele>
        <time>2016-01-01T08:52:22.000Z</time>
      </trkpt>
      <trkpt lat="47.49372" lon="6.66607">
        <ele>406</ele>
        <time>2016-01-01T08:52:23.000Z</time>
      </trkpt>
      <trkpt lat="47.49368" lon="6.66606">
        <ele>406</ele>
        <time>2016-01-01T08:52:25.000Z</time>
      </trkpt>
      <trkpt lat="47.49366" lon="6.66605">
        <ele>406</ele>
        <time>2016-01-01T08:52:26.000Z</time>
      </trkpt>
      <trkpt lat="47.49363" lon="6.66604">
        <ele>406</ele>
        <time>2016-01-01T08:52:27.000Z</time>
      </trkpt>
      <trkpt lat="47.49361" lon="6.66602">
        <ele>406</ele>
        <time>2016-01-01T08:52:28.000Z</time>
      </trkpt>
      <trkpt lat="47.49358" lon="6.66598">
        <ele>407</ele>
        <time>2016-01-01T08:52:30.000Z</time>
      </trkpt>
      <trkpt lat="47.49357" lon="6.66596">
        <ele>407</ele>
        <time>2016-01-01T08:52:31.000Z</time>
      </trkpt>
      <trkpt lat="47.49354" lon="6.66591">
        <ele>407</ele>
        <time>2016-01-01T08:52:33.000Z</time>
      </trkpt>
      <trkpt lat="47.49353" lon="6.66589">
        <ele>408</ele>
        <time>2016-01-01T08:52:34.000Z</time>
      </trkpt>
      <trkpt lat="47.49351" lon="6.66584">
        <ele>408</ele>
        <time>2016-01-01T08:52:36.000Z</time>
      </trkpt>
      <trkpt lat="47.4935" lon="6.66582">
        <ele>411</ele>
        <time>2016-01-01T08:52:37.000Z</time>
      </trkpt>
      <trkpt lat="47.49348" lon="6.66576">
        <ele>411</ele>
        <time>2016-01-01T08:52:39.000Z</time>
      </trkpt>
      <trkpt lat="47.49347" lon="6.66573">
        <ele>411</ele>
        <time>2016-01-01T08:52:40.000Z</time>
      </trkpt>
      <trkpt lat="47.49345" lon="6.66568">
        <ele>411</ele>
        <time>2016-01-01T08:52:42.000Z</time>
      </trkpt>
      <trkpt lat="47.49344" lon="6.66565">
        <ele>411</ele>
        <time>2016-01-01T08:52:43.000Z</time>
      </trkpt>
      <trkpt lat="47.49343" lon="6.66562">
        <ele>411</ele>
        <time>2016-01-01T08:52:44.000Z</time>
      </trkpt>
      <trkpt lat="47.49342" lon="6.66559">
        <ele>411</ele>
        <time>2016-01-01T08:52:45.000Z</time>
      </trkpt>
      <trkpt lat="47.4934" lon="6.66553">
        <ele>411</ele>
        <time>2016-01-01T08:52:47.000Z</time>
      </trkpt>
      <trkpt lat="47.4934" lon="6.66551">
        <ele>412</ele>
        <time>2016-01-01T08:52:48.000Z</time>
      </trkpt>
      <trkpt lat="47.49339" lon="6.66545">
        <ele>412</ele>
        <time>2016-01-01T08:52:50.000Z</time>
      </trkpt>
      <trkpt lat="47.49339" lon="6.66543">
        <ele>412</ele>
        <time>2016-01-01T08:52:51.000Z</time>
      </trkpt>
      <trkpt lat="47.49342" lon="6.66538">
        <ele>412</ele>
        <time>2016-01-01T08:52:53.000Z</time>
      </trkpt>
      <trkpt lat="47.49343" lon="6.66536">
        <ele>412</ele>
        <time>2016-01-01T08:52:54.000Z</time>
      </trkpt>
      <trkpt lat="47.49346" lon="6.66534">
        <ele>412</ele>
        <time>2016-01-01T08:52:55.000Z</time>
      </trkpt>
      <trkpt lat="47.49348" lon="6.66532">
        <ele>412</ele>
        <time>2016-01-01T08:52:56.000Z</time>
      </trkpt>
      <trkpt lat="47.4935" lon="6.6653">
        <ele>412</ele>
        <time>2016-01-01T08:52:57.000Z</time>
      </trkpt>
      <trkpt lat="47.49353" lon="6.66528">
        <ele>412</ele>
        <time>2016-01-01T08:52:58.000Z</time>
      </trkpt>
      <trkpt lat="47.49355" lon="6.66526">
        <ele>412</ele>
        <time>2016-01-01T08:52:59.000Z</time>
      </trkpt>
      <trkpt lat="47.49357" lon="6.66524">
        <ele>412</ele>
        <time>2016-01-01T08:53:00.001Z</time>
      </trkpt>
      <trkpt lat="47.4936" lon="6.66522">
        <ele>412</ele>
        <time>2016-01-01T08:53:01.000Z</time>
      </trkpt>
      <trkpt lat="47.49362" lon="6.66521">
        <ele>412</ele>
        <time>2016-01-01T08:53:02.001Z</time>
      </trkpt>
      <trkpt lat="47.49365" lon="6.66519">
        <ele>412</ele>
        <time>2016-01-01T08:53:03.000Z</time>
      </trkpt>
      <trkpt lat="47.49367" lon="6.66517">
        <ele>412</ele>
        <time>2016-01-01T08:53:04.000Z</time>
      </trkpt>
      <trkpt lat="47.49369" lon="6.66516">
        <ele>412</ele>
        <time>2016-01-01T08:53:05.000Z</time>
      </trkpt>
      <trkpt lat="47.49371" lon="6.66514">
        <ele>412</ele>
        <time>2016-01-01T08:53:06.000Z</time>
      </trkpt>
      <trkpt lat="47.49375" lon="6.66512">
        <ele>412</ele>
        <time>2016-01-01T08:53:08.000Z</time>
      </trkpt>
      <trkpt lat="47.49376" lon="6.66511">
        <ele>412</ele>
        <time>2016-01-01T08:53:09.000Z</time>
      </trkpt>
      <trkpt lat="47.49378" lon="6.6651">
        <ele>412</ele>
        <time>2016-01-01T08:53:10.000Z</time>
      </trkpt>
      <trkpt lat="47.49381" lon="6.6651">
        <ele>412</ele>
        <time>2016-01-01T08:53:11.000Z</time>
      </trkpt>
      <trkpt lat="47.49384" lon="6.66509">
        <ele>412</ele>
        <time>2016-01-01T08:53:12.000Z</time>
      </trkpt>
      <trkpt lat="47.49388" lon="6.66508">
        <ele>412</ele>
        <time>2016-01-01T08:53:13.000Z</time>
      </trkpt>
      <trkpt lat="47.49391" lon="6.66506">
        <ele>412</ele>
        <time>2016-01-01T08:53:14.000Z</time>
      </trkpt>
      <trkpt lat="47.49394" lon="6.66502">
        <ele>413</ele>
        <time>2016-01-01T08:53:15.000Z</time>
      </trkpt>
      <trkpt lat="47.49396" lon="6.66498">
        <ele>415</ele>
        <time>2016-01-01T08:53:16.000Z</time>
      </trkpt>
      <trkpt lat="47.49399" lon="6.66495">
        <ele>415</ele>
        <time>2016-01-01T08:53:17.000Z</time>
      </trkpt>
      <trkpt lat="47.49401" lon="6.66493">
        <ele>415</ele>
        <time>2016-01-01T08:53:18.001Z</time>
      </trkpt>
      <trkpt lat="47.49404" lon="6.6649">
        <ele>415</ele>
        <time>2016-01-01T08:53:19.000Z</time>
      </trkpt>
      <trkpt lat="47.49407" lon="6.66487">
        <ele>415</ele>
        <time>2016-01-01T08:53:20.000Z</time>
      </trkpt>
      <trkpt lat="47.4941" lon="6.66485">
        <ele>415</ele>
        <time>2016-01-01T08:53:21.000Z</time>
      </trkpt>
      <trkpt lat="47.49413" lon="6.66483">
        <ele>415</ele>
        <time>2016-01-01T08:53:22.000Z</time>
      </trkpt>
      <trkpt lat="47.49415" lon="6.66481">
        <ele>415</ele>
        <time>2016-01-01T08:53:23.000Z</time>
      </trkpt>
      <trkpt lat="47.49419" lon="6.66478">
        <ele>415</ele>
        <time>2016-01-01T08:53:24.000Z</time>
      </trkpt>
      <trkpt lat="47.49422" lon="6.66476">
        <ele>415</ele>
        <time>2016-01-01T08:53:25.000Z</time>
      </trkpt>
      <trkpt lat="47.49426" lon="6.66475">
        <ele>415</ele>
        <time>2016-01-01T08:53:26.000Z</time>
      </trkpt>
      <trkpt lat="47.49429" lon="6.66473">
        <ele>415</ele>
        <time>2016-01-01T08:53:27.000Z</time>
      </trkpt>
      <trkpt lat="47.49432" lon="6.66472">
        <ele>415</ele>
        <time>2016-01-01T08:53:28.000Z</time>
      </trkpt>
      <trkpt lat="47.49435" lon="6.66472">
        <ele>415</ele>
        <time>2016-01-01T08:53:29.000Z</time>
      </trkpt>
      <trkpt lat="47.49438" lon="6.66471">
        <ele>415</ele>
        <time>2016-01-01T08:53:30.001Z</time>
      </trkpt>
      <trkpt lat="47.4944" lon="6.6647">
        <ele>415</ele>
        <time>2016-01-01T08:53:31.000Z</time>
      </trkpt>
      <trkpt lat="47.49443" lon="6.66468">
        <ele>415</ele>
        <time>2016-01-01T08:53:32.000Z</time>
      </trkpt>
      <trkpt lat="47.49445" lon="6.66466">
        <ele>415</ele>
        <time>2016-01-01T08:53:33.000Z</time>
      </trkpt>
      <trkpt lat="47.49448" lon="6.66463">
        <ele>415</ele>
        <time>2016-01-01T08:53:34.000Z</time>
      </trkpt>
      <trkpt lat="47.49451" lon="6.66461">
        <ele>415</ele>
        <time>2016-01-01T08:53:35.000Z</time>
      </trkpt>
      <trkpt lat="47.49454" lon="6.66458">
        <ele>415</ele>
        <time>2016-01-01T08:53:36.000Z</time>
      </trkpt>
      <trkpt lat="47.49456" lon="6.66456">
        <ele>415</ele>
        <time>2016-01-01T08:53:37.000Z</time>
      </trkpt>
      <trkpt lat="47.49459" lon="6.66454">
        <ele>415</ele>
        <time>2016-01-01T08:53:38.000Z</time>
      </trkpt>
      <trkpt lat="47.49463" lon="6.66452">
        <ele>415</ele>
        <time>2016-01-01T08:53:39.000Z</time>
      </trkpt>
      <trkpt lat="47.49465" lon="6.66449">
        <ele>415</ele>
        <time>2016-01-01T08:53:40.000Z</time>
      </trkpt>
      <trkpt lat="47.49468" lon="6.66447">
        <ele>415</ele>
        <time>2016-01-01T08:53:41.000Z</time>
      </trkpt>
      <trkpt lat="47.49471" lon="6.66444">
        <ele>415</ele>
        <time>2016-01-01T08:53:42.000Z</time>
      </trkpt>
      <trkpt lat="47.49474" lon="6.66442">
        <ele>415</ele>
        <time>2016-01-01T08:53:43.000Z</time>
      </trkpt>
      <trkpt lat="47.49477" lon="6.66439">
        <ele>415</ele>
        <time>2016-01-01T08:53:44.000Z</time>
      </trkpt>
      <trkpt lat="47.4948" lon="6.66437">
        <ele>416</ele>
        <time>2016-01-01T08:53:45.000Z</time>
      </trkpt>
      <trkpt lat="47.49483" lon="6.66435">
        <ele>416</ele>
        <time>2016-01-01T08:53:46.000Z</time>
      </trkpt>
      <trkpt lat="47.49486" lon="6.66432">
        <ele>416</ele>
        <time>2016-01-01T08:53:47.000Z</time>
      </trkpt>
      <trkpt lat="47.49488" lon="6.6643">
        <ele>416</ele>
        <time>2016-01-01T08:53:48.000Z</time>
      </trkpt>
      <trkpt lat="47.49491" lon="6.66427">
        <ele>416</ele>
        <time>2016-01-01T08:53:49.000Z</time>
      </trkpt>
      <trkpt lat="47.49494" lon="6.66424">
        <ele>416</ele>
        <time>2016-01-01T08:53:50.000Z</time>
      </trkpt>
      <trkpt lat="47.49497" lon="6.66422">
        <ele>417</ele>
        <time>2016-01-01T08:53:51.000Z</time>
      </trkpt>
      <trkpt lat="47.49499" lon="6.66418">
        <ele>417</ele>
        <time>2016-01-01T08:53:52.000Z</time>
      </trkpt>
      <trkpt lat="47.49502" lon="6.66416">
        <ele>417</ele>
        <time>2016-01-01T08:53:52.999Z</time>
      </trkpt>
      <trkpt lat="47.49505" lon="6.66414">
        <ele>417</ele>
        <time>2016-01-01T08:53:54.000Z</time>
      </trkpt>
      <trkpt lat="47.49508" lon="6.66412">
        <ele>418</ele>
        <time>2016-01-01T08:53:55.000Z</time>
      </trkpt>
      <trkpt lat="47.49511" lon="6.6641">
        <ele>418</ele>
        <time>2016-01-01T08:53:56.000Z</time>
      </trkpt>
      <trkpt lat="47.49514" lon="6.66408">
        <ele>418</ele>
        <time>2016-01-01T08:53:57.001Z</time>
      </trkpt>
      <trkpt lat="47.49518" lon="6.66406">
        <ele>418</ele>
        <time>2016-01-01T08:53:58.000Z</time>
      </trkpt>
      <trkpt lat="47.49521" lon="6.66403">
        <ele>418</ele>
        <time>2016-01-01T08:53:59.000Z</time>
      </trkpt>
      <trkpt lat="47.49525" lon="6.66401">
        <ele>419</ele>
        <time>2016-01-01T08:54:00.000Z</time>
      </trkpt>
      <trkpt lat="47.49528" lon="6.66397">
        <ele>419</ele>
        <time>2016-01-01T08:54:01.000Z</time>
      </trkpt>
      <trkpt lat="47.49531" lon="6.66395">
        <ele>419</ele>
        <time>2016-01-01T08:54:02.000Z</time>
      </trkpt>
      <trkpt lat="47.49534" lon="6.66392">
        <ele>419</ele>
        <time>2016-01-01T08:54:03.000Z</time>
      </trkpt>
      <trkpt lat="47.49537" lon="6.6639">
        <ele>419</ele>
        <time>2016-01-01T08:54:04.000Z</time>
      </trkpt>
      <trkpt lat="47.49541" lon="6.66388">
        <ele>419</ele>
        <time>2016-01-01T08:54:05.000Z</time>
      </trkpt>
      <trkpt lat="47.49544" lon="6.66386">
        <ele>419</ele>
        <time>2016-01-01T08:54:06.000Z</time>
      </trkpt>
      <trkpt lat="47.49547" lon="6.66384">
        <ele>419</ele>
        <time>2016-01-01T08:54:07.000Z</time>
      </trkpt>
      <trkpt lat="47.4955" lon="6.66382">
        <ele>419</ele>
        <time>2016-01-01T08:54:08.000Z</time>
      </trkpt>
      <trkpt lat="47.49553" lon="6.6638">
        <ele>419</ele>
        <time>2016-01-01T08:54:09.000Z</time>
      </trkpt>
      <trkpt lat="47.49556" lon="6.66377">
        <ele>419</ele>
        <time>2016-01-01T08:54:10.000Z</time>
      </trkpt>
      <trkpt lat="47.49559" lon="6.66374">
        <ele>420</ele>
        <time>2016-01-01T08:54:11.000Z</time>
      </trkpt>
      <trkpt lat="47.49561" lon="6.66371">
        <ele>420</ele>
        <time>2016-01-01T08:54:12.000Z</time>
      </trkpt>
      <trkpt lat="47.49564" lon="6.66368">
        <ele>420</ele>
        <time>2016-01-01T08:54:12.999Z</time>
      </trkpt>
      <trkpt lat="47.49565" lon="6.66365">
        <ele>420</ele>
        <time>2016-01-01T08:54:14.000Z</time>
      </trkpt>
      <trkpt lat="47.49567" lon="6.66363">
        <ele>420</ele>
        <time>2016-01-01T08:54:15.000Z</time>
      </trkpt>
      <trkpt lat="47.49569" lon="6.6636">
        <ele>420</ele>
        <time>2016-01-01T08:54:16.000Z</time>
      </trkpt>
      <trkpt lat="47.49572" lon="6.66358">
        <ele>420</ele>
        <time>2016-01-01T08:54:17.000Z</time>
      </trkpt>
      <trkpt lat="47.49574" lon="6.66356">
        <ele>421</ele>
        <time>2016-01-01T08:54:18.000Z</time>
      </trkpt>
      <trkpt lat="47.49577" lon="6.66353">
        <ele>421</ele>
        <time>2016-01-01T08:54:19.000Z</time>
      </trkpt>
      <trkpt lat="47.4958" lon="6.6635">
        <ele>421</ele>
        <time>2016-01-01T08:54:20.000Z</time>
      </trkpt>
      <trkpt lat="47.49583" lon="6.66348">
        <ele>421</ele>
        <time>2016-01-01T08:54:21.000Z</time>
      </trkpt>
      <trkpt lat="47.49585" lon="6.66345">
        <ele>420</ele>
        <time>2016-01-01T08:54:22.000Z</time>
      </trkpt>
      <trkpt lat="47.49587" lon="6.66341">
        <ele>421</ele>
        <time>2016-01-01T08:54:23.000Z</time>
      </trkpt>
      <trkpt lat="47.49589" lon="6.66338">
        <ele>421</ele>
        <time>2016-01-01T08:54:24.000Z</time>
      </trkpt>
      <trkpt lat="47.49591" lon="6.66334">
        <ele>421</ele>
        <time>2016-01-01T08:54:25.000Z</time>
      </trkpt>
      <trkpt lat="47.49593" lon="6.66331">
        <ele>422</ele>
        <time>2016-01-01T08:54:26.000Z</time>
      </trkpt>
      <trkpt lat="47.49595" lon="6.66327">
        <ele>422</ele>
        <time>2016-01-01T08:54:27.000Z</time>
      </trkpt>
      <trkpt lat="47.49598" lon="6.66324">
        <ele>422</ele>
        <time>2016-01-01T08:54:28.000Z</time>
      </trkpt>
      <trkpt lat="47.496" lon="6.6632">
        <ele>422</ele>
        <time>2016-01-01T08:54:29.000Z</time>
      </trkpt>
      <trkpt lat="47.49602" lon="6.66316">
        <ele>421</ele>
        <time>2016-01-01T08:54:30.000Z</time>
      </trkpt>
      <trkpt lat="47.49605" lon="6.66312">
        <ele>421</ele>
        <time>2016-01-01T08:54:30.998Z</time>
      </trkpt>
      <trkpt lat="47.49607" lon="6.66309">
        <ele>421</ele>
        <time>2016-01-01T08:54:32.000Z</time>
      </trkpt>
      <trkpt lat="47.4961" lon="6.66305">
        <ele>421</ele>
        <time>2016-01-01T08:54:33.000Z</time>
      </trkpt>
      <trkpt lat="47.49612" lon="6.66302">
        <ele>421</ele>
        <time>2016-01-01T08:54:34.000Z</time>
      </trkpt>
      <trkpt lat="47.49614" lon="6.66299">
        <ele>421</ele>
        <time>2016-01-01T08:54:35.000Z</time>
      </trkpt>
      <trkpt lat="47.49616" lon="6.66296">
        <ele>421</ele>
        <time>2016-01-01T08:54:36.000Z</time>
      </trkpt>
      <trkpt lat="47.49618" lon="6.66292">
        <ele>421</ele>
        <time>2016-01-01T08:54:37.000Z</time>
      </trkpt>
      <trkpt lat="47.49621" lon="6.66288">
        <ele>421</ele>
        <time>2016-01-01T08:54:38.000Z</time>
      </trkpt>
      <trkpt lat="47.49623" lon="6.66284">
        <ele>421</ele>
        <time>2016-01-01T08:54:39.000Z</time>
      </trkpt>
      <trkpt lat="47.49625" lon="6.6628">
        <ele>421</ele>
        <time>2016-01-01T08:54:40.000Z</time>
      </trkpt>
      <trkpt lat="47.49628" lon="6.66277">
        <ele>421</ele>
        <time>2016-01-01T08:54:41.000Z</time>
      </trkpt>
      <trkpt lat="47.4963" lon="6.66273">
        <ele>421</ele>
        <time>2016-01-01T08:54:42.000Z</time>
      </trkpt>
      <trkpt lat="47.49633" lon="6.66269">
        <ele>421</ele>
        <time>2016-01-01T08:54:43.000Z</time>
      </trkpt>
      <trkpt lat="47.49635" lon="6.66265">
        <ele>421</ele>
        <time>2016-01-01T08:54:44.000Z</time>
      </trkpt>
      <trkpt lat="47.49638" lon="6.66261">
        <ele>421</ele>
        <time>2016-01-01T08:54:45.000Z</time>
      </trkpt>
      <trkpt lat="47.4964" lon="6.66257">
        <ele>421</ele>
        <time>2016-01-01T08:54:46.000Z</time>
      </trkpt>
      <trkpt lat="47.49643" lon="6.66252">
        <ele>421</ele>
        <time>2016-01-01T08:54:47.000Z</time>
      </trkpt>
      <trkpt lat="47.49646" lon="6.66248">
        <ele>422</ele>
        <time>2016-01-01T08:54:48.000Z</time>
      </trkpt>
      <trkpt lat="47.49649" lon="6.66243">
        <ele>422</ele>
        <time>2016-01-01T08:54:49.000Z</time>
      </trkpt>
      <trkpt lat="47.49652" lon="6.66239">
        <ele>422</ele>
        <time>2016-01-01T08:54:50.000Z</time>
      </trkpt>
      <trkpt lat="47.49654" lon="6.66235">
        <ele>422</ele>
        <time>2016-01-01T08:54:51.000Z</time>
      </trkpt>
      <trkpt lat="47.49657" lon="6.6623">
        <ele>422</ele>
        <time>2016-01-01T08:54:52.000Z</time>
      </trkpt>
      <trkpt lat="47.4966" lon="6.66226">
        <ele>422</ele>
        <time>2016-01-01T08:54:53.000Z</time>
      </trkpt>
      <trkpt lat="47.49663" lon="6.66222">
        <ele>423</ele>
        <time>2016-01-01T08:54:54.000Z</time>
      </trkpt>
      <trkpt lat="47.49666" lon="6.66217">
        <ele>423</ele>
        <time>2016-01-01T08:54:55.000Z</time>
      </trkpt>
      <trkpt lat="47.49669" lon="6.66212">
        <ele>418</ele>
        <time>2016-01-01T08:54:56.000Z</time>
      </trkpt>
      <trkpt lat="47.49671" lon="6.66207">
        <ele>418</ele>
        <time>2016-01-01T08:54:57.000Z</time>
      </trkpt>
      <trkpt lat="47.49674" lon="6.66202">
        <ele>418</ele>
        <time>2016-01-01T08:54:58.000Z</time>
      </trkpt>
      <trkpt lat="47.49676" lon="6.66197">
        <ele>418</ele>
        <time>2016-01-01T08:54:59.000Z</time>
      </trkpt>
      <trkpt lat="47.49678" lon="6.66192">
        <ele>418</ele>
        <time>2016-01-01T08:54:59.999Z</time>
      </trkpt>
      <trkpt lat="47.4968" lon="6.66187">
        <ele>419</ele>
        <time>2016-01-01T08:55:00.999Z</time>
      </trkpt>
      <trkpt lat="47.49679" lon="6.66181">
        <ele>419</ele>
        <time>2016-01-01T08:55:02.000Z</time>
      </trkpt>
      <trkpt lat="47.4968" lon="6.66176">
        <ele>420</ele>
        <time>2016-01-01T08:55:03.000Z</time>
      </trkpt>
      <trkpt lat="47.49681" lon="6.66171">
        <ele>420</ele>
        <time>2016-01-01T08:55:04.000Z</time>
      </trkpt>
      <trkpt lat="47.49682" lon="6.66166">
        <ele>421</ele>
        <time>2016-01-01T08:55:05.000Z</time>
      </trkpt>
      <trkpt lat="47.49684" lon="6.66161">
        <ele>421</ele>
        <time>2016-01-01T08:55:06.000Z</time>
      </trkpt>
      <trkpt lat="47.49685" lon="6.66155">
        <ele>421</ele>
        <time>2016-01-01T08:55:07.000Z</time>
      </trkpt>
      <trkpt lat="47.49687" lon="6.66149">
        <ele>420</ele>
        <time>2016-01-01T08:55:08.000Z</time>
      </trkpt>
      <trkpt lat="47.49689" lon="6.66144">
        <ele>420</ele>
        <time>2016-01-01T08:55:09.000Z</time>
      </trkpt>
      <trkpt lat="47.49692" lon="6.66137">
        <ele>420</ele>
        <time>2016-01-01T08:55:10.000Z</time>
      </trkpt>
      <trkpt lat="47.49695" lon="6.66132">
        <ele>420</ele>
        <time>2016-01-01T08:55:11.000Z</time>
      </trkpt>
      <trkpt lat="47.49697" lon="6.66126">
        <ele>420</ele>
        <time>2016-01-01T08:55:12.000Z</time>
      </trkpt>
      <trkpt lat="47.497" lon="6.66122">
        <ele>420</ele>
        <time>2016-01-01T08:55:13.000Z</time>
      </trkpt>
      <trkpt lat="47.49703" lon="6.66117">
        <ele>420</ele>
        <time>2016-01-01T08:55:14.000Z</time>
      </trkpt>
      <trkpt lat="47.49706" lon="6.66112">
        <ele>420</ele>
        <time>2016-01-01T08:55:15.000Z</time>
      </trkpt>
      <trkpt lat="47.49709" lon="6.66106">
        <ele>420</ele>
        <time>2016-01-01T08:55:16.000Z</time>
      </trkpt>
      <trkpt lat="47.49711" lon="6.66101">
        <ele>420</ele>
        <time>2016-01-01T08:55:17.000Z</time>
      </trkpt>
      <trkpt lat="47.49714" lon="6.66096">
        <ele>420</ele>
        <time>2016-01-01T08:55:18.000Z</time>
      </trkpt>
      <trkpt lat="47.49717" lon="6.66091">
        <ele>420</ele>
        <time>2016-01-01T08:55:19.000Z</time>
      </trkpt>
      <trkpt lat="47.4972" lon="6.66086">
        <ele>419</ele>
        <time>2016-01-01T08:55:20.000Z</time>
      </trkpt>
      <trkpt lat="47.49723" lon="6.66081">
        <ele>422</ele>
        <time>2016-01-01T08:55:21.000Z</time>
      </trkpt>
      <trkpt lat="47.49726" lon="6.66076">
        <ele>421</ele>
        <time>2016-01-01T08:55:22.000Z</time>
      </trkpt>
      <trkpt lat="47.49728" lon="6.6607">
        <ele>421</ele>
        <time>2016-01-01T08:55:23.000Z</time>
      </trkpt>
      <trkpt lat="47.4973" lon="6.66065">
        <ele>421</ele>
        <time>2016-01-01T08:55:24.000Z</time>
      </trkpt>
      <trkpt lat="47.49733" lon="6.6606">
        <ele>422</ele>
        <time>2016-01-01T08:55:25.000Z</time>
      </trkpt>
      <trkpt lat="47.49736" lon="6.66056">
        <ele>422</ele>
        <time>2016-01-01T08:55:26.000Z</time>
      </trkpt>
      <trkpt lat="47.49739" lon="6.6605">
        <ele>422</ele>
        <time>2016-01-01T08:55:27.000Z</time>
      </trkpt>
      <trkpt lat="47.49742" lon="6.66045">
        <ele>422</ele>
        <time>2016-01-01T08:55:28.000Z</time>
      </trkpt>
      <trkpt lat="47.49744" lon="6.66039">
        <ele>422</ele>
        <time>2016-01-01T08:55:29.000Z</time>
      </trkpt>
      <trkpt lat="47.49746" lon="6.66033">
        <ele>423</ele>
        <time>2016-01-01T08:55:30.000Z</time>
      </trkpt>
      <trkpt lat="47.49749" lon="6.66028">
        <ele>423</ele>
        <time>2016-01-01T08:55:31.000Z</time>
      </trkpt>
      <trkpt lat="47.49752" lon="6.66021">
        <ele>419</ele>
        <time>2016-01-01T08:55:32.000Z</time>
      </trkpt>
      <trkpt lat="47.49754" lon="6.66016">
        <ele>420</ele>
        <time>2016-01-01T08:55:33.000Z</time>
      </trkpt>
      <trkpt lat="47.49756" lon="6.6601">
        <ele>421</ele>
        <time>2016-01-01T08:55:34.000Z</time>
      </trkpt>
      <trkpt lat="47.49759" lon="6.66005">
        <ele>421</ele>
        <time>2016-01-01T08:55:35.000Z</time>
      </trkpt>
      <trkpt lat="47.49762" lon="6.65998">
        <ele>422</ele>
        <time>2016-01-01T08:55:36.000Z</time>
      </trkpt>
      <trkpt lat="47.49764" lon="6.65993">
        <ele>422</ele>
        <time>2016-01-01T08:55:37.000Z</time>
      </trkpt>
      <trkpt lat="47.49766" lon="6.65986">
        <ele>422</ele>
        <time>2016-01-01T08:55:38.000Z</time>
      </trkpt>
      <trkpt lat="47.4977" lon="6.65981">
        <ele>421</ele>
        <time>2016-01-01T08:55:39.000Z</time>
      </trkpt>
      <trkpt lat="47.49773" lon="6.65975">
        <ele>421</ele>
        <time>2016-01-01T08:55:40.000Z</time>
      </trkpt>
      <trkpt lat="47.49777" lon="6.65969">
        <ele>421</ele>
        <time>2016-01-01T08:55:41.000Z</time>
      </trkpt>
      <trkpt lat="47.49782" lon="6.65965">
        <ele>420</ele>
        <time>2016-01-01T08:55:42.000Z</time>
      </trkpt>
      <trkpt lat="47.49786" lon="6.65961">
        <ele>420</ele>
        <time>2016-01-01T08:55:43.000Z</time>
      </trkpt>
      <trkpt lat="47.4979" lon="6.65956">
        <ele>420</ele>
        <time>2016-01-01T08:55:44.000Z</time>
      </trkpt>
      <trkpt lat="47.49793" lon="6.65951">
        <ele>420</ele>
        <time>2016-01-01T08:55:45.000Z</time>
      </trkpt>
      <trkpt lat="47.49797" lon="6.65944">
        <ele>420</ele>
        <time>2016-01-01T08:55:46.000Z</time>
      </trkpt>
      <trkpt lat="47.49801" lon="6.65938">
        <ele>420</ele>
        <time>2016-01-01T08:55:47.000Z</time>
      </trkpt>
      <trkpt lat="47.49804" lon="6.65929">
        <ele>420</ele>
        <time>2016-01-01T08:55:48.000Z</time>
      </trkpt>
      <trkpt lat="47.49806" lon="6.65924">
        <ele>420</ele>
        <time>2016-01-01T08:55:49.000Z</time>
      </trkpt>
      <trkpt lat="47.49809" lon="6.65916">
        <ele>420</ele>
        <time>2016-01-01T08:55:50.000Z</time>
      </trkpt>
      <trkpt lat="47.49812" lon="6.65908">
        <ele>420</ele>
        <time>2016-01-01T08:55:51.000Z</time>
      </trkpt>
      <trkpt lat="47.49813" lon="6.65899">
        <ele>420</ele>
        <time>2016-01-01T08:55:52.000Z</time>
      </trkpt>
      <trkpt lat="47.49814" lon="6.6589">
        <ele>420</ele>
        <time>2016-01-01T08:55:53.000Z</time>
      </trkpt>
      <trkpt lat="47.49815" lon="6.65881">
        <ele>421</ele>
        <time>2016-01-01T08:55:54.000Z</time>
      </trkpt>
      <trkpt lat="47.49817" lon="6.65872">
        <ele>421</ele>
        <time>2016-01-01T08:55:55.000Z</time>
      </trkpt>
      <trkpt lat="47.49819" lon="6.65863">
        <ele>421</ele>
        <time>2016-01-01T08:55:56.000Z</time>
      </trkpt>
      <trkpt lat="47.4982" lon="6.65855">
        <ele>421</ele>
        <time>2016-01-01T08:55:57.000Z</time>
      </trkpt>
      <trkpt lat="47.4982" lon="6.65848">
        <ele>421</ele>
        <time>2016-01-01T08:55:58.000Z</time>
      </trkpt>
      <trkpt lat="47.49821" lon="6.65839">
        <ele>420</ele>
        <time>2016-01-01T08:55:59.000Z</time>
      </trkpt>
      <trkpt lat="47.49823" lon="6.6583">
        <ele>421</ele>
        <time>2016-01-01T08:56:00.000Z</time>
      </trkpt>
      <trkpt lat="47.49825" lon="6.65821">
        <ele>421</ele>
        <time>2016-01-01T08:56:01.000Z</time>
      </trkpt>
      <trkpt lat="47.49827" lon="6.65813">
        <ele>421</ele>
        <time>2016-01-01T08:56:02.000Z</time>
      </trkpt>
      <trkpt lat="47.49829" lon="6.65806">
        <ele>421</ele>
        <time>2016-01-01T08:56:03.000Z</time>
      </trkpt>
      <trkpt lat="47.49831" lon="6.65795">
        <ele>421</ele>
        <time>2016-01-01T08:56:04.000Z</time>
      </trkpt>
      <trkpt lat="47.49833" lon="6.65787">
        <ele>421</ele>
        <time>2016-01-01T08:56:05.000Z</time>
      </trkpt>
      <trkpt lat="47.49836" lon="6.6578">
        <ele>418</ele>
        <time>2016-01-01T08:56:06.000Z</time>
      </trkpt>
      <trkpt lat="47.49838" lon="6.6577">
        <ele>419</ele>
        <time>2016-01-01T08:56:07.000Z</time>
      </trkpt>
      <trkpt lat="47.49841" lon="6.65762">
        <ele>419</ele>
        <time>2016-01-01T08:56:08.000Z</time>
      </trkpt>
      <trkpt lat="47.49844" lon="6.65754">
        <ele>419</ele>
        <time>2016-01-01T08:56:09.000Z</time>
      </trkpt>
      <trkpt lat="47.49847" lon="6.65745">
        <ele>420</ele>
        <time>2016-01-01T08:56:10.000Z</time>
      </trkpt>
      <trkpt lat="47.4985" lon="6.65737">
        <ele>420</ele>
        <time>2016-01-01T08:56:11.000Z</time>
      </trkpt>
      <trkpt lat="47.49853" lon="6.65728">
        <ele>419</ele>
        <time>2016-01-01T08:56:12.000Z</time>
      </trkpt>
      <trkpt lat="47.49855" lon="6.6572">
        <ele>419</ele>
        <time>2016-01-01T08:56:13.000Z</time>
      </trkpt>
      <trkpt lat="47.49858" lon="6.65713">
        <ele>419</ele>
        <time>2016-01-01T08:56:14.000Z</time>
      </trkpt>
      <trkpt lat="47.4986" lon="6.65704">
        <ele>419</ele>
        <time>2016-01-01T08:56:15.000Z</time>
      </trkpt>
      <trkpt lat="47.49862" lon="6.65695">
        <ele>419</ele>
        <time>2016-01-01T08:56:16.000Z</time>
      </trkpt>
      <trkpt lat="47.49864" lon="6.65686">
        <ele>419</ele>
        <time>2016-01-01T08:56:17.000Z</time>
      </trkpt>
      <trkpt lat="47.49866" lon="6.65678">
        <ele>419</ele>
        <time>2016-01-01T08:56:18.000Z</time>
      </trkpt>
      <trkpt lat="47.49867" lon="6.65668">
        <ele>419</ele>
        <time>2016-01-01T08:56:19.000Z</time>
      </trkpt>
      <trkpt lat="47.49869" lon="6.6566">
        <ele>419</ele>
        <time>2016-01-01T08:56:20.000Z</time>
      </trkpt>
      <trkpt lat="47.49872" lon="6.65651">
        <ele>419</ele>
        <time>2016-01-01T08:56:21.000Z</time>
      </trkpt>
      <trkpt lat="47.49874" lon="6.65642">
        <ele>419</ele>
        <time>2016-01-01T08:56:22.000Z</time>
      </trkpt>
      <trkpt lat="47.49876" lon="6.65633">
        <ele>419</ele>
        <time>2016-01-01T08:56:23.000Z</time>
      </trkpt>
      <trkpt lat="47.49878" lon="6.65625">
        <ele>419</ele>
        <time>2016-01-01T08:56:24.000Z</time>
      </trkpt>
      <trkpt lat="47.4988" lon="6.65616">
        <ele>419</ele>
        <time>2016-01-01T08:56:25.000Z</time>
      </trkpt>
      <trkpt lat="47.49882" lon="6.65607">
        <ele>419</ele>
        <time>2016-01-01T08:56:26.000Z</time>
      </trkpt>
      <trkpt lat="47.49885" lon="6.65598">
        <ele>419</ele>
        <time>2016-01-01T08:56:27.000Z</time>
      </trkpt>
      <trkpt lat="47.49888" lon="6.65589">
        <ele>419</ele>
        <time>2016-01-01T08:56:28.000Z</time>
      </trkpt>
      <trkpt lat="47.49891" lon="6.65581">
        <ele>418</ele>
        <time>2016-01-01T08:56:29.000Z</time>
      </trkpt>
      <trkpt lat="47.49894" lon="6.65573">
        <ele>418</ele>
        <time>2016-01-01T08:56:30.000Z</time>
      </trkpt>
      <trkpt lat="47.49897" lon="6.65565">
        <ele>418</ele>
        <time>2016-01-01T08:56:31.000Z</time>
      </trkpt>
      <trkpt lat="47.49901" lon="6.65556">
        <ele>417</ele>
        <time>2016-01-01T08:56:32.000Z</time>
      </trkpt>
      <trkpt lat="47.49905" lon="6.65549">
        <ele>417</ele>
        <time>2016-01-01T08:56:33.000Z</time>
      </trkpt>
      <trkpt lat="47.49908" lon="6.65541">
        <ele>417</ele>
        <time>2016-01-01T08:56:34.000Z</time>
      </trkpt>
      <trkpt lat="47.49911" lon="6.65533">
        <ele>417</ele>
        <time>2016-01-01T08:56:35.000Z</time>
      </trkpt>
      <trkpt lat="47.49915" lon="6.65525">
        <ele>417</ele>
        <time>2016-01-01T08:56:36.000Z</time>
      </trkpt>
      <trkpt lat="47.49919" lon="6.65517">
        <ele>415</ele>
        <time>2016-01-01T08:56:37.000Z</time>
      </trkpt>
      <trkpt lat="47.49922" lon="6.6551">
        <ele>415</ele>
        <time>2016-01-01T08:56:38.000Z</time>
      </trkpt>
      <trkpt lat="47.49926" lon="6.65502">
        <ele>415</ele>
        <time>2016-01-01T08:56:39.000Z</time>
      </trkpt>
      <trkpt lat="47.4993" lon="6.65495">
        <ele>415</ele>
        <time>2016-01-01T08:56:40.000Z</time>
      </trkpt>
      <trkpt lat="47.49933" lon="6.65488">
        <ele>415</ele>
        <time>2016-01-01T08:56:41.000Z</time>
      </trkpt>
      <trkpt lat="47.49936" lon="6.6548">
        <ele>415</ele>
        <time>2016-01-01T08:56:42.000Z</time>
      </trkpt>
      <trkpt lat="47.4994" lon="6.65472">
        <ele>415</ele>
        <time>2016-01-01T08:56:43.000Z</time>
      </trkpt>
      <trkpt lat="47.49944" lon="6.65464">
        <ele>414</ele>
        <time>2016-01-01T08:56:44.000Z</time>
      </trkpt>
      <trkpt lat="47.49948" lon="6.65458">
        <ele>414</ele>
        <time>2016-01-01T08:56:45.000Z</time>
      </trkpt>
      <trkpt lat="47.49951" lon="6.65451">
        <ele>414</ele>
        <time>2016-01-01T08:56:46.000Z</time>
      </trkpt>
      <trkpt lat="47.49956" lon="6.65444">
        <ele>414</ele>
        <time>2016-01-01T08:56:47.000Z</time>
      </trkpt>
      <trkpt lat="47.49959" lon="6.65437">
        <ele>414</ele>
        <time>2016-01-01T08:56:48.000Z</time>
      </trkpt>
      <trkpt lat="47.49963" lon="6.65431">
        <ele>414</ele>
        <time>2016-01-01T08:56:49.000Z</time>
      </trkpt>
      <trkpt lat="47.49967" lon="6.65425">
        <ele>414</ele>
        <time>2016-01-01T08:56:50.000Z</time>
      </trkpt>
      <trkpt lat="47.49972" lon="6.65418">
        <ele>414</ele>
        <time>2016-01-01T08:56:51.000Z</time>
      </trkpt>
      <trkpt lat="47.49976" lon="6.65411">
        <ele>414</ele>
        <time>2016-01-01T08:56:52.000Z</time>
      </trkpt>
      <trkpt lat="47.4998" lon="6.65404">
        <ele>414</ele>
        <time>2016-01-01T08:56:53.000Z</time>
      </trkpt>
      <trkpt lat="47.49984" lon="6.65397">
        <ele>413</ele>
        <time>2016-01-01T08:56:54.000Z</time>
      </trkpt>
      <trkpt lat="47.49989" lon="6.6539">
        <ele>413</ele>
        <time>2016-01-01T08:56:55.000Z</time>
      </trkpt>
      <trkpt lat="47.49993" lon="6.65384">
        <ele>413</ele>
        <time>2016-01-01T08:56:56.000Z</time>
      </trkpt>
      <trkpt lat="47.49998" lon="6.65377">
        <ele>413</ele>
        <time>2016-01-01T08:56:57.000Z</time>
      </trkpt>
      <trkpt lat="47.50003" lon="6.65372">
        <ele>412</ele>
        <time>2016-01-01T08:56:58.000Z</time>
      </trkpt>
      <trkpt lat="47.50008" lon="6.65365">
        <ele>412</ele>
        <time>2016-01-01T08:56:59.000Z</time>
      </trkpt>
      <trkpt lat="47.50013" lon="6.65358">
        <ele>412</ele>
        <time>2016-01-01T08:57:00.000Z</time>
      </trkpt>
      <trkpt lat="47.50018" lon="6.65351">
        <ele>412</ele>
        <time>2016-01-01T08:57:01.000Z</time>
      </trkpt>
      <trkpt lat="47.50024" lon="6.65345">
        <ele>412</ele>
        <time>2016-01-01T08:57:02.000Z</time>
      </trkpt>
      <trkpt lat="47.50029" lon="6.65339">
        <ele>412</ele>
        <time>2016-01-01T08:57:03.000Z</time>
      </trkpt>
      <trkpt lat="47.50034" lon="6.65333">
        <ele>412</ele>
        <time>2016-01-01T08:57:04.000Z</time>
      </trkpt>
      <trkpt lat="47.5004" lon="6.65327">
        <ele>412</ele>
        <time>2016-01-01T08:57:05.000Z</time>
      </trkpt>
      <trkpt lat="47.50045" lon="6.65321">
        <ele>412</ele>
        <time>2016-01-01T08:57:06.000Z</time>
      </trkpt>
      <trkpt lat="47.5005" lon="6.65314">
        <ele>412</ele>
        <time>2016-01-01T08:57:07.000Z</time>
      </trkpt>
      <trkpt lat="47.50055" lon="6.65308">
        <ele>412</ele>
        <time>2016-01-01T08:57:08.000Z</time>
      </trkpt>
      <trkpt lat="47.5006" lon="6.65302">
        <ele>412</ele>
        <time>2016-01-01T08:57:09.000Z</time>
      </trkpt>
      <trkpt lat="47.50065" lon="6.65295">
        <ele>412</ele>
        <time>2016-01-01T08:57:10.000Z</time>
      </trkpt>
      <trkpt lat="47.50071" lon="6.65289">
        <ele>412</ele>
        <time>2016-01-01T08:57:11.000Z</time>
      </trkpt>
      <trkpt lat="47.50076" lon="6.65282">
        <ele>412</ele>
        <time>2016-01-01T08:57:12.000Z</time>
      </trkpt>
      <trkpt lat="47.50081" lon="6.65277">
        <ele>412</ele>
        <time>2016-01-01T08:57:13.000Z</time>
      </trkpt>
      <trkpt lat="47.50086" lon="6.65271">
        <ele>410</ele>
        <time>2016-01-01T08:57:14.000Z</time>
      </trkpt>
      <trkpt lat="47.50092" lon="6.65264">
        <ele>410</ele>
        <time>2016-01-01T08:57:15.000Z</time>
      </trkpt>
      <trkpt lat="47.50097" lon="6.65257">
        <ele>410</ele>
        <time>2016-01-01T08:57:16.000Z</time>
      </trkpt>
      <trkpt lat="47.50102" lon="6.65251">
        <ele>410</ele>
        <time>2016-01-01T08:57:16.998Z</time>
      </trkpt>
      <trkpt lat="47.50107" lon="6.65243">
        <ele>410</ele>
        <time>2016-01-01T08:57:18.000Z</time>
      </trkpt>
      <trkpt lat="47.50113" lon="6.65236">
        <ele>410</ele>
        <time>2016-01-01T08:57:19.000Z</time>
      </trkpt>
      <trkpt lat="47.50118" lon="6.65229">
        <ele>410</ele>
        <time>2016-01-01T08:57:20.000Z</time>
      </trkpt>
      <trkpt lat="47.50123" lon="6.65222">
        <ele>410</ele>
        <time>2016-01-01T08:57:21.000Z</time>
      </trkpt>
      <trkpt lat="47.50129" lon="6.65215">
        <ele>410</ele>
        <time>2016-01-01T08:57:22.000Z</time>
      </trkpt>
      <trkpt lat="47.50134" lon="6.65208">
        <ele>410</ele>
        <time>2016-01-01T08:57:23.000Z</time>
      </trkpt>
      <trkpt lat="47.5014" lon="6.65203">
        <ele>410</ele>
        <time>2016-01-01T08:57:24.000Z</time>
      </trkpt>
      <trkpt lat="47.50146" lon="6.65196">
        <ele>410</ele>
        <time>2016-01-01T08:57:25.000Z</time>
      </trkpt>
      <trkpt lat="47.50151" lon="6.65189">
        <ele>410</ele>
        <time>2016-01-01T08:57:26.000Z</time>
      </trkpt>
      <trkpt lat="47.50157" lon="6.65183">
        <ele>411</ele>
        <time>2016-01-01T08:57:27.000Z</time>
      </trkpt>
      <trkpt lat="47.50162" lon="6.65176">
        <ele>411</ele>
        <time>2016-01-01T08:57:28.000Z</time>
      </trkpt>
      <trkpt lat="47.50167" lon="6.65171">
        <ele>410</ele>
        <time>2016-01-01T08:57:29.000Z</time>
      </trkpt>
      <trkpt lat="47.50172" lon="6.65165">
        <ele>411</ele>
        <time>2016-01-01T08:57:30.000Z</time>
      </trkpt>
      <trkpt lat="47.50177" lon="6.65159">
        <ele>410</ele>
        <time>2016-01-01T08:57:31.000Z</time>
      </trkpt>
      <trkpt lat="47.50182" lon="6.65154">
        <ele>410</ele>
        <time>2016-01-01T08:57:32.000Z</time>
      </trkpt>
      <trkpt lat="47.50187" lon="6.65149">
        <ele>410</ele>
        <time>2016-01-01T08:57:33.000Z</time>
      </trkpt>
      <trkpt lat="47.5019" lon="6.65144">
        <ele>410</ele>
        <time>2016-01-01T08:57:34.000Z</time>
      </trkpt>
      <trkpt lat="47.50195" lon="6.65138">
        <ele>410</ele>
        <time>2016-01-01T08:57:35.000Z</time>
      </trkpt>
      <trkpt lat="47.50199" lon="6.65134">
        <ele>410</ele>
        <time>2016-01-01T08:57:36.000Z</time>
      </trkpt>
      <trkpt lat="47.50203" lon="6.65129">
        <ele>410</ele>
        <time>2016-01-01T08:57:37.000Z</time>
      </trkpt>
      <trkpt lat="47.50207" lon="6.65125">
        <ele>410</ele>
        <time>2016-01-01T08:57:38.000Z</time>
      </trkpt>
      <trkpt lat="47.50211" lon="6.6512">
        <ele>410</ele>
        <time>2016-01-01T08:57:39.000Z</time>
      </trkpt>
      <trkpt lat="47.50215" lon="6.65116">
        <ele>410</ele>
        <time>2016-01-01T08:57:40.000Z</time>
      </trkpt>
      <trkpt lat="47.50218" lon="6.65112">
        <ele>410</ele>
        <time>2016-01-01T08:57:41.000Z</time>
      </trkpt>
      <trkpt lat="47.50224" lon="6.6511">
        <ele>410</ele>
        <time>2016-01-01T08:57:42.000Z</time>
      </trkpt>
      <trkpt lat="47.50229" lon="6.65107">
        <ele>410</ele>
        <time>2016-01-01T08:57:42.999Z</time>
      </trkpt>
      <trkpt lat="47.50231" lon="6.65105">
        <ele>410</ele>
        <time>2016-01-01T08:57:44.000Z</time>
      </trkpt>
      <trkpt lat="47.50235" lon="6.65102">
        <ele>411</ele>
        <time>2016-01-01T08:57:45.000Z</time>
      </trkpt>
      <trkpt lat="47.50239" lon="6.65098">
        <ele>411</ele>
        <time>2016-01-01T08:57:46.000Z</time>
      </trkpt>
      <trkpt lat="47.50242" lon="6.65093">
        <ele>411</ele>
        <time>2016-01-01T08:57:47.000Z</time>
      </trkpt>
      <trkpt lat="47.50244" lon="6.65089">
        <ele>411</ele>
        <time>2016-01-01T08:57:48.001Z</time>
      </trkpt>
      <trkpt lat="47.50247" lon="6.65086">
        <ele>412</ele>
        <time>2016-01-01T08:57:49.000Z</time>
      </trkpt>
      <trkpt lat="47.5025" lon="6.65082">
        <ele>412</ele>
        <time>2016-01-01T08:57:50.000Z</time>
      </trkpt>
      <trkpt lat="47.50253" lon="6.65079">
        <ele>411</ele>
        <time>2016-01-01T08:57:51.000Z</time>
      </trkpt>
      <trkpt lat="47.50255" lon="6.65073">
        <ele>410</ele>
        <time>2016-01-01T08:57:52.000Z</time>
      </trkpt>
      <trkpt lat="47.50258" lon="6.65069">
        <ele>410</ele>
        <time>2016-01-01T08:57:53.000Z</time>
      </trkpt>
      <trkpt lat="47.5026" lon="6.65063">
        <ele>409</ele>
        <time>2016-01-01T08:57:54.000Z</time>
      </trkpt>
      <trkpt lat="47.50262" lon="6.65057">
        <ele>409</ele>
        <time>2016-01-01T08:57:55.000Z</time>
      </trkpt>
      <trkpt lat="47.50264" lon="6.65051">
        <ele>409</ele>
        <time>2016-01-01T08:57:56.000Z</time>
      </trkpt>
      <trkpt lat="47.50266" lon="6.65045">
        <ele>409</ele>
        <time>2016-01-01T08:57:57.000Z</time>
      </trkpt>
      <trkpt lat="47.50267" lon="6.65038">
        <ele>408</ele>
        <time>2016-01-01T08:57:58.000Z</time>
      </trkpt>
      <trkpt lat="47.50268" lon="6.65029">
        <ele>408</ele>
        <time>2016-01-01T08:57:59.000Z</time>
      </trkpt>
      <trkpt lat="47.50269" lon="6.65024">
        <ele>408</ele>
        <time>2016-01-01T08:58:00.000Z</time>
      </trkpt>
      <trkpt lat="47.50269" lon="6.65018">
        <ele>408</ele>
        <time>2016-01-01T08:58:01.000Z</time>
      </trkpt>
      <trkpt lat="47.5027" lon="6.65012">
        <ele>409</ele>
        <time>2016-01-01T08:58:02.000Z</time>
      </trkpt>
      <trkpt lat="47.5027" lon="6.65008">
        <ele>409</ele>
        <time>2016-01-01T08:58:03.001Z</time>
      </trkpt>
      <trkpt lat="47.50273" lon="6.65002">
        <ele>408</ele>
        <time>2016-01-01T08:58:04.000Z</time>
      </trkpt>
      <trkpt lat="47.50275" lon="6.64998">
        <ele>408</ele>
        <time>2016-01-01T08:58:05.000Z</time>
      </trkpt>
      <trkpt lat="47.50278" lon="6.64992">
        <ele>408</ele>
        <time>2016-01-01T08:58:06.000Z</time>
      </trkpt>
      <trkpt lat="47.5028" lon="6.64987">
        <ele>408</ele>
        <time>2016-01-01T08:58:07.000Z</time>
      </trkpt>
      <trkpt lat="47.50283" lon="6.64982">
        <ele>408</ele>
        <time>2016-01-01T08:58:08.000Z</time>
      </trkpt>
      <trkpt lat="47.50285" lon="6.64976">
        <ele>408</ele>
        <time>2016-01-01T08:58:09.000Z</time>
      </trkpt>
      <trkpt lat="47.50287" lon="6.6497">
        <ele>408</ele>
        <time>2016-01-01T08:58:10.000Z</time>
      </trkpt>
      <trkpt lat="47.50289" lon="6.64964">
        <ele>408</ele>
        <time>2016-01-01T08:58:11.000Z</time>
      </trkpt>
      <trkpt lat="47.50292" lon="6.64961">
        <ele>407</ele>
        <time>2016-01-01T08:58:12.000Z</time>
      </trkpt>
      <trkpt lat="47.50294" lon="6.64956">
        <ele>407</ele>
        <time>2016-01-01T08:58:13.000Z</time>
      </trkpt>
      <trkpt lat="47.50297" lon="6.64953">
        <ele>407</ele>
        <time>2016-01-01T08:58:14.000Z</time>
      </trkpt>
      <trkpt lat="47.503" lon="6.64949">
        <ele>407</ele>
        <time>2016-01-01T08:58:15.000Z</time>
      </trkpt>
      <trkpt lat="47.50303" lon="6.64945">
        <ele>407</ele>
        <time>2016-01-01T08:58:16.000Z</time>
      </trkpt>
      <trkpt lat="47.50306" lon="6.64939">
        <ele>407</ele>
        <time>2016-01-01T08:58:17.000Z</time>
      </trkpt>
      <trkpt lat="47.50309" lon="6.64934">
        <ele>407</ele>
        <time>2016-01-01T08:58:18.000Z</time>
      </trkpt>
      <trkpt lat="47.50314" lon="6.64929">
        <ele>407</ele>
        <time>2016-01-01T08:58:19.000Z</time>
      </trkpt>
      <trkpt lat="47.50318" lon="6.64925">
        <ele>407</ele>
        <time>2016-01-01T08:58:20.000Z</time>
      </trkpt>
      <trkpt lat="47.50322" lon="6.64921">
        <ele>407</ele>
        <time>2016-01-01T08:58:21.000Z</time>
      </trkpt>
      <trkpt lat="47.50325" lon="6.64916">
        <ele>406</ele>
        <time>2016-01-01T08:58:22.000Z</time>
      </trkpt>
      <trkpt lat="47.50329" lon="6.64911">
        <ele>406</ele>
        <time>2016-01-01T08:58:23.000Z</time>
      </trkpt>
      <trkpt lat="47.50333" lon="6.64907">
        <ele>406</ele>
        <time>2016-01-01T08:58:24.000Z</time>
      </trkpt>
      <trkpt lat="47.50337" lon="6.64902">
        <ele>406</ele>
        <time>2016-01-01T08:58:25.000Z</time>
      </trkpt>
      <trkpt lat="47.50341" lon="6.64897">
        <ele>406</ele>
        <time>2016-01-01T08:58:26.000Z</time>
      </trkpt>
      <trkpt lat="47.50345" lon="6.64892">
        <ele>406</ele>
        <time>2016-01-01T08:58:27.000Z</time>
      </trkpt>
      <trkpt lat="47.50349" lon="6.64888">
        <ele>406</ele>
        <time>2016-01-01T08:58:27.998Z</time>
      </trkpt>
      <trkpt lat="47.50353" lon="6.64882">
        <ele>406</ele>
        <time>2016-01-01T08:58:29.000Z</time>
      </trkpt>
      <trkpt lat="47.50357" lon="6.64877">
        <ele>406</ele>
        <time>2016-01-01T08:58:30.000Z</time>
      </trkpt>
      <trkpt lat="47.50361" lon="6.64874">
        <ele>406</ele>
        <time>2016-01-01T08:58:31.000Z</time>
      </trkpt>
      <trkpt lat="47.50364" lon="6.64869">
        <ele>406</ele>
        <time>2016-01-01T08:58:32.000Z</time>
      </trkpt>
      <trkpt lat="47.50368" lon="6.64866">
        <ele>406</ele>
        <time>2016-01-01T08:58:33.000Z</time>
      </trkpt>
      <trkpt lat="47.50372" lon="6.64862">
        <ele>406</ele>
        <time>2016-01-01T08:58:34.000Z</time>
      </trkpt>
      <trkpt lat="47.50376" lon="6.64859">
        <ele>406</ele>
        <time>2016-01-01T08:58:35.000Z</time>
      </trkpt>
      <trkpt lat="47.50381" lon="6.64856">
        <ele>406</ele>
        <time>2016-01-01T08:58:36.000Z</time>
      </trkpt>
      <trkpt lat="47.50385" lon="6.64852">
        <ele>406</ele>
        <time>2016-01-01T08:58:37.000Z</time>
      </trkpt>
      <trkpt lat="47.50388" lon="6.64848">
        <ele>406</ele>
        <time>2016-01-01T08:58:38.000Z</time>
      </trkpt>
      <trkpt lat="47.50392" lon="6.64845">
        <ele>406</ele>
        <time>2016-01-01T08:58:39.000Z</time>
      </trkpt>
      <trkpt lat="47.50396" lon="6.64843">
        <ele>406</ele>
        <time>2016-01-01T08:58:40.000Z</time>
      </trkpt>
      <trkpt lat="47.50399" lon="6.64839">
        <ele>406</ele>
        <time>2016-01-01T08:58:41.000Z</time>
      </trkpt>
      <trkpt lat="47.50403" lon="6.64836">
        <ele>406</ele>
        <time>2016-01-01T08:58:42.000Z</time>
      </trkpt>
      <trkpt lat="47.50407" lon="6.64832">
        <ele>406</ele>
        <time>2016-01-01T08:58:43.000Z</time>
      </trkpt>
      <trkpt lat="47.50411" lon="6.64828">
        <ele>406</ele>
        <time>2016-01-01T08:58:44.000Z</time>
      </trkpt>
      <trkpt lat="47.50415" lon="6.64825">
        <ele>406</ele>
        <time>2016-01-01T08:58:45.000Z</time>
      </trkpt>
      <trkpt lat="47.50419" lon="6.64823">
        <ele>405</ele>
        <time>2016-01-01T08:58:46.000Z</time>
      </trkpt>
      <trkpt lat="47.50423" lon="6.64819">
        <ele>405</ele>
        <time>2016-01-01T08:58:47.000Z</time>
      </trkpt>
      <trkpt lat="47.50427" lon="6.64816">
        <ele>405</ele>
        <time>2016-01-01T08:58:48.000Z</time>
      </trkpt>
      <trkpt lat="47.50431" lon="6.64814">
        <ele>405</ele>
        <time>2016-01-01T08:58:49.000Z</time>
      </trkpt>
      <trkpt lat="47.50435" lon="6.64809">
        <ele>405</ele>
        <time>2016-01-01T08:58:50.000Z</time>
      </trkpt>
      <trkpt lat="47.5044" lon="6.64806">
        <ele>405</ele>
        <time>2016-01-01T08:58:51.000Z</time>
      </trkpt>
      <trkpt lat="47.50445" lon="6.64803">
        <ele>405</ele>
        <time>2016-01-01T08:58:52.000Z</time>
      </trkpt>
      <trkpt lat="47.50448" lon="6.64798">
        <ele>404</ele>
        <time>2016-01-01T08:58:53.000Z</time>
      </trkpt>
      <trkpt lat="47.50452" lon="6.64794">
        <ele>404</ele>
        <time>2016-01-01T08:58:54.000Z</time>
      </trkpt>
      <trkpt lat="47.50456" lon="6.6479">
        <ele>404</ele>
        <time>2016-01-01T08:58:55.000Z</time>
      </trkpt>
      <trkpt lat="47.5046" lon="6.64786">
        <ele>404</ele>
        <time>2016-01-01T08:58:55.998Z</time>
      </trkpt>
      <trkpt lat="47.50464" lon="6.64783">
        <ele>404</ele>
        <time>2016-01-01T08:58:59.000Z</time>
      </trkpt>
      <trkpt lat="47.50466" lon="6.64784">
        <ele>404</ele>
        <time>2016-01-01T08:59:00.000Z</time>
      </trkpt>
      <trkpt lat="47.5047" lon="6.64785">
        <ele>404</ele>
        <time>2016-01-01T08:59:03.000Z</time>
      </trkpt>
      <trkpt lat="47.50471" lon="6.64791">
        <ele>404</ele>
        <time>2016-01-01T08:59:04.000Z</time>
      </trkpt>
      <trkpt lat="47.50474" lon="6.64796">
        <ele>404</ele>
        <time>2016-01-01T08:59:06.000Z</time>
      </trkpt>
      <trkpt lat="47.50475" lon="6.648">
        <ele>404</ele>
        <time>2016-01-01T08:59:07.000Z</time>
      </trkpt>
      <trkpt lat="47.50475" lon="6.64804">
        <ele>404</ele>
        <time>2016-01-01T08:59:08.000Z</time>
      </trkpt>
      <trkpt lat="47.50476" lon="6.64808">
        <ele>404</ele>
        <time>2016-01-01T08:59:09.000Z</time>
      </trkpt>
      <trkpt lat="47.50476" lon="6.64813">
        <ele>404</ele>
        <time>2016-01-01T08:59:10.000Z</time>
      </trkpt>
      <trkpt lat="47.50475" lon="6.64818">
        <ele>404</ele>
        <time>2016-01-01T08:59:11.000Z</time>
      </trkpt>
      <trkpt lat="47.50475" lon="6.64823">
        <ele>404</ele>
        <time>2016-01-01T08:59:12.000Z</time>
      </trkpt>
      <trkpt lat="47.50475" lon="6.64829">
        <ele>404</ele>
        <time>2016-01-01T08:59:13.000Z</time>
      </trkpt>
      <trkpt lat="47.50475" lon="6.64834">
        <ele>404</ele>
        <time>2016-01-01T08:59:14.000Z</time>
      </trkpt>
      <trkpt lat="47.50475" lon="6.64839">
        <ele>404</ele>
        <time>2016-01-01T08:59:15.000Z</time>
      </trkpt>
      <trkpt lat="47.50475" lon="6.64845">
        <ele>404</ele>
        <time>2016-01-01T08:59:16.000Z</time>
      </trkpt>
      <trkpt lat="47.50475" lon="6.64849">
        <ele>404</ele>
        <time>2016-01-01T08:59:17.000Z</time>
      </trkpt>
      <trkpt lat="47.50475" lon="6.64853">
        <ele>404</ele>
        <time>2016-01-01T08:59:18.000Z</time>
      </trkpt>
      <trkpt lat="47.50476" lon="6.64858">
        <ele>404</ele>
        <time>2016-01-01T08:59:19.000Z</time>
      </trkpt>
      <trkpt lat="47.50477" lon="6.64863">
        <ele>404</ele>
        <time>2016-01-01T08:59:20.000Z</time>
      </trkpt>
      <trkpt lat="47.50478" lon="6.64867">
        <ele>404</ele>
        <time>2016-01-01T08:59:21.000Z</time>
      </trkpt>
      <trkpt lat="47.5048" lon="6.64872">
        <ele>405</ele>
        <time>2016-01-01T08:59:22.000Z</time>
      </trkpt>
      <trkpt lat="47.50482" lon="6.64876">
        <ele>405</ele>
        <time>2016-01-01T08:59:23.000Z</time>
      </trkpt>
      <trkpt lat="47.50484" lon="6.6488">
        <ele>405</ele>
        <time>2016-01-01T08:59:24.000Z</time>
      </trkpt>
      <trkpt lat="47.50486" lon="6.64883">
        <ele>405</ele>
        <time>2016-01-01T08:59:25.000Z</time>
      </trkpt>
      <trkpt lat="47.50488" lon="6.64887">
        <ele>405</ele>
        <time>2016-01-01T08:59:26.000Z</time>
      </trkpt>
      <trkpt lat="47.50491" lon="6.64889">
        <ele>405</ele>
        <time>2016-01-01T08:59:27.000Z</time>
      </trkpt>
      <trkpt lat="47.50494" lon="6.64891">
        <ele>405</ele>
        <time>2016-01-01T08:59:28.000Z</time>
      </trkpt>
      <trkpt lat="47.50497" lon="6.64893">
        <ele>405</ele>
        <time>2016-01-01T08:59:29.000Z</time>
      </trkpt>
      <trkpt lat="47.505" lon="6.64895">
        <ele>402</ele>
        <time>2016-01-01T08:59:30.000Z</time>
      </trkpt>
      <trkpt lat="47.50508" lon="6.64903">
        <ele>403</ele>
        <time>2016-01-01T08:59:31.000Z</time>
      </trkpt>
      <trkpt lat="47.50512" lon="6.64906">
        <ele>403</ele>
        <time>2016-01-01T08:59:32.000Z</time>
      </trkpt>
      <trkpt lat="47.50517" lon="6.64911">
        <ele>403</ele>
        <time>2016-01-01T08:59:33.000Z</time>
      </trkpt>
      <trkpt lat="47.50521" lon="6.64914">
        <ele>402</ele>
        <time>2016-01-01T08:59:34.000Z</time>
      </trkpt>
      <trkpt lat="47.50523" lon="6.64916">
        <ele>402</ele>
        <time>2016-01-01T08:59:35.000Z</time>
      </trkpt>
      <trkpt lat="47.50526" lon="6.64918">
        <ele>402</ele>
        <time>2016-01-01T08:59:36.000Z</time>
      </trkpt>
      <trkpt lat="47.50527" lon="6.64919">
        <ele>402</ele>
        <time>2016-01-01T08:59:37.000Z</time>
      </trkpt>
      <trkpt lat="47.50531" lon="6.6492">
        <ele>402</ele>
        <time>2016-01-01T08:59:38.000Z</time>
      </trkpt>
      <trkpt lat="47.50533" lon="6.64922">
        <ele>402</ele>
        <time>2016-01-01T08:59:39.000Z</time>
      </trkpt>
      <trkpt lat="47.50536" lon="6.64924">
        <ele>402</ele>
        <time>2016-01-01T08:59:40.000Z</time>
      </trkpt>
      <trkpt lat="47.50538" lon="6.64926">
        <ele>402</ele>
        <time>2016-01-01T08:59:41.000Z</time>
      </trkpt>
      <trkpt lat="47.5054" lon="6.64929">
        <ele>401</ele>
        <time>2016-01-01T08:59:42.000Z</time>
      </trkpt>
      <trkpt lat="47.50543" lon="6.64932">
        <ele>401</ele>
        <time>2016-01-01T08:59:43.000Z</time>
      </trkpt>
      <trkpt lat="47.50548" lon="6.64939">
        <ele>401</ele>
        <time>2016-01-01T08:59:44.000Z</time>
      </trkpt>
      <trkpt lat="47.50552" lon="6.64944">
        <ele>401</ele>
        <time>2016-01-01T08:59:45.000Z</time>
      </trkpt>
      <trkpt lat="47.50555" lon="6.64949">
        <ele>401</ele>
        <time>2016-01-01T08:59:46.000Z</time>
      </trkpt>
      <trkpt lat="47.50559" lon="6.64958">
        <ele>401</ele>
        <time>2016-01-01T08:59:47.000Z</time>
      </trkpt>
      <trkpt lat="47.50561" lon="6.64964">
        <ele>401</ele>
        <time>2016-01-01T08:59:48.000Z</time>
      </trkpt>
      <trkpt lat="47.50565" lon="6.64971">
        <ele>401</ele>
        <time>2016-01-01T08:59:49.000Z</time>
      </trkpt>
      <trkpt lat="47.50567" lon="6.64978">
        <ele>400</ele>
        <time>2016-01-01T08:59:50.000Z</time>
      </trkpt>
      <trkpt lat="47.50569" lon="6.64984">
        <ele>400</ele>
        <time>2016-01-01T08:59:51.000Z</time>
      </trkpt>
      <trkpt lat="47.50571" lon="6.64989">
        <ele>400</ele>
        <time>2016-01-01T08:59:52.000Z</time>
      </trkpt>
      <trkpt lat="47.50575" lon="6.64992">
        <ele>400</ele>
        <time>2016-01-01T08:59:53.000Z</time>
      </trkpt>
      <trkpt lat="47.50576" lon="6.64996">
        <ele>400</ele>
        <time>2016-01-01T08:59:54.000Z</time>
      </trkpt>
      <trkpt lat="47.50581" lon="6.64998">
        <ele>399</ele>
        <time>2016-01-01T08:59:55.000Z</time>
      </trkpt>
      <trkpt lat="47.50584" lon="6.64998">
        <ele>399</ele>
        <time>2016-01-01T08:59:56.000Z</time>
      </trkpt>
      <trkpt lat="47.50588" lon="6.64998">
        <ele>398</ele>
        <time>2016-01-01T08:59:57.000Z</time>
      </trkpt>
      <trkpt lat="47.50593" lon="6.64998">
        <ele>397</ele>
        <time>2016-01-01T08:59:58.000Z</time>
      </trkpt>
      <trkpt lat="47.50603" lon="6.65001">
        <ele>394</ele>
        <time>2016-01-01T08:59:59.000Z</time>
      </trkpt>
      <trkpt lat="47.50608" lon="6.65004">
        <ele>394</ele>
        <time>2016-01-01T09:00:00.000Z</time>
      </trkpt>
      <trkpt lat="47.50612" lon="6.65004">
        <ele>393</ele>
        <time>2016-01-01T09:00:01.000Z</time>
      </trkpt>
      <trkpt lat="47.50615" lon="6.65006">
        <ele>393</ele>
        <time>2016-01-01T09:00:02.000Z</time>
      </trkpt>
      <trkpt lat="47.50619" lon="6.65009">
        <ele>392</ele>
        <time>2016-01-01T09:00:03.000Z</time>
      </trkpt>
      <trkpt lat="47.50623" lon="6.65011">
        <ele>391</ele>
        <time>2016-01-01T09:00:04.000Z</time>
      </trkpt>
      <trkpt lat="47.50627" lon="6.65012">
        <ele>391</ele>
        <time>2016-01-01T09:00:05.000Z</time>
      </trkpt>
      <trkpt lat="47.5063" lon="6.65016">
        <ele>391</ele>
        <time>2016-01-01T09:00:06.000Z</time>
      </trkpt>
      <trkpt lat="47.50634" lon="6.6502">
        <ele>390</ele>
        <time>2016-01-01T09:00:07.000Z</time>
      </trkpt>
      <trkpt lat="47.5064" lon="6.65029">
        <ele>390</ele>
        <time>2016-01-01T09:00:08.000Z</time>
      </trkpt>
      <trkpt lat="47.50645" lon="6.65037">
        <ele>389</ele>
        <time>2016-01-01T09:00:09.000Z</time>
      </trkpt>
      <trkpt lat="47.50649" lon="6.65043">
        <ele>388</ele>
        <time>2016-01-01T09:00:10.000Z</time>
      </trkpt>
      <trkpt lat="47.50653" lon="6.65045">
        <ele>388</ele>
        <time>2016-01-01T09:00:11.000Z</time>
      </trkpt>
      <trkpt lat="47.50656" lon="6.65049">
        <ele>387</ele>
        <time>2016-01-01T09:00:12.000Z</time>
      </trkpt>
      <trkpt lat="47.50659" lon="6.65053">
        <ele>387</ele>
        <time>2016-01-01T09:00:13.000Z</time>
      </trkpt>
      <trkpt lat="47.50661" lon="6.65056">
        <ele>386</ele>
        <time>2016-01-01T09:00:14.000Z</time>
      </trkpt>
      <trkpt lat="47.50664" lon="6.65059">
        <ele>386</ele>
        <time>2016-01-01T09:00:15.000Z</time>
      </trkpt>
      <trkpt lat="47.50666" lon="6.65062">
        <ele>385</ele>
        <time>2016-01-01T09:00:16.000Z</time>
      </trkpt>
      <trkpt lat="47.50667" lon="6.65065">
        <ele>380</ele>
        <time>2016-01-01T09:00:17.000Z</time>
      </trkpt>
      <trkpt lat="47.50668" lon="6.65069">
        <ele>380</ele>
        <time>2016-01-01T09:00:18.000Z</time>
      </trkpt>
      <trkpt lat="47.50671" lon="6.65072">
        <ele>380</ele>
        <time>2016-01-01T09:00:19.000Z</time>
      </trkpt>
      <trkpt lat="47.50673" lon="6.65075">
        <ele>380</ele>
        <time>2016-01-01T09:00:20.000Z</time>
      </trkpt>
      <trkpt lat="47.50675" lon="6.65079">
        <ele>380</ele>
        <time>2016-01-01T09:00:21.000Z</time>
      </trkpt>
      <trkpt lat="47.50677" lon="6.65083">
        <ele>379</ele>
        <time>2016-01-01T09:00:22.000Z</time>
      </trkpt>
      <trkpt lat="47.50679" lon="6.65089">
        <ele>377</ele>
        <time>2016-01-01T09:00:23.000Z</time>
      </trkpt>
      <trkpt lat="47.50682" lon="6.65094">
        <ele>376</ele>
        <time>2016-01-01T09:00:24.000Z</time>
      </trkpt>
      <trkpt lat="47.50684" lon="6.65099">
        <ele>375</ele>
        <time>2016-01-01T09:00:25.000Z</time>
      </trkpt>
      <trkpt lat="47.50687" lon="6.65102">
        <ele>375</ele>
        <time>2016-01-01T09:00:26.000Z</time>
      </trkpt>
      <trkpt lat="47.5069" lon="6.65104">
        <ele>375</ele>
        <time>2016-01-01T09:00:27.000Z</time>
      </trkpt>
      <trkpt lat="47.50694" lon="6.65105">
        <ele>374</ele>
        <time>2016-01-01T09:00:28.000Z</time>
      </trkpt>
      <trkpt lat="47.50699" lon="6.65105">
        <ele>374</ele>
        <time>2016-01-01T09:00:29.000Z</time>
      </trkpt>
      <trkpt lat="47.50703" lon="6.65106">
        <ele>374</ele>
        <time>2016-01-01T09:00:30.000Z</time>
      </trkpt>
      <trkpt lat="47.50711" lon="6.6511">
        <ele>373</ele>
        <time>2016-01-01T09:00:31.000Z</time>
      </trkpt>
      <trkpt lat="47.50715" lon="6.65115">
        <ele>373</ele>
        <time>2016-01-01T09:00:32.000Z</time>
      </trkpt>
      <trkpt lat="47.50717" lon="6.65117">
        <ele>373</ele>
        <time>2016-01-01T09:00:33.000Z</time>
      </trkpt>
      <trkpt lat="47.50722" lon="6.65121">
        <ele>373</ele>
        <time>2016-01-01T09:00:34.000Z</time>
      </trkpt>
      <trkpt lat="47.50726" lon="6.65124">
        <ele>372</ele>
        <time>2016-01-01T09:00:35.000Z</time>
      </trkpt>
      <trkpt lat="47.50731" lon="6.6513">
        <ele>372</ele>
        <time>2016-01-01T09:00:36.000Z</time>
      </trkpt>
      <trkpt lat="47.50735" lon="6.65136">
        <ele>371</ele>
        <time>2016-01-01T09:00:37.000Z</time>
      </trkpt>
      <trkpt lat="47.50738" lon="6.65141">
        <ele>371</ele>
        <time>2016-01-01T09:00:38.000Z</time>
      </trkpt>
      <trkpt lat="47.50742" lon="6.65146">
        <ele>370</ele>
        <time>2016-01-01T09:00:39.000Z</time>
      </trkpt>
      <trkpt lat="47.50746" lon="6.6515">
        <ele>370</ele>
        <time>2016-01-01T09:00:40.000Z</time>
      </trkpt>
      <trkpt lat="47.50749" lon="6.65155">
        <ele>369</ele>
        <time>2016-01-01T09:00:41.000Z</time>
      </trkpt>
      <trkpt lat="47.50754" lon="6.65162">
        <ele>367</ele>
        <time>2016-01-01T09:00:42.000Z</time>
      </trkpt>
      <trkpt lat="47.50759" lon="6.65168">
        <ele>367</ele>
        <time>2016-01-01T09:00:43.000Z</time>
      </trkpt>
      <trkpt lat="47.50763" lon="6.65174">
        <ele>367</ele>
        <time>2016-01-01T09:00:44.000Z</time>
      </trkpt>
      <trkpt lat="47.50767" lon="6.65181">
        <ele>367</ele>
        <time>2016-01-01T09:00:45.000Z</time>
      </trkpt>
      <trkpt lat="47.50771" lon="6.65186">
        <ele>367</ele>
        <time>2016-01-01T09:00:46.000Z</time>
      </trkpt>
      <trkpt lat="47.50774" lon="6.65192">
        <ele>367</ele>
        <time>2016-01-01T09:00:47.000Z</time>
      </trkpt>
      <trkpt lat="47.50777" lon="6.65195">
        <ele>367</ele>
        <time>2016-01-01T09:00:48.000Z</time>
      </trkpt>
      <trkpt lat="47.50779" lon="6.65198">
        <ele>367</ele>
        <time>2016-01-01T09:00:49.000Z</time>
      </trkpt>
      <trkpt lat="47.50784" lon="6.652">
        <ele>367</ele>
        <time>2016-01-01T09:00:50.000Z</time>
      </trkpt>
      <trkpt lat="47.50788" lon="6.65199">
        <ele>367</ele>
        <time>2016-01-01T09:00:51.000Z</time>
      </trkpt>
      <trkpt lat="47.50792" lon="6.65198">
        <ele>367</ele>
        <time>2016-01-01T09:00:52.000Z</time>
      </trkpt>
      <trkpt lat="47.50795" lon="6.65197">
        <ele>367</ele>
        <time>2016-01-01T09:00:53.000Z</time>
      </trkpt>
      <trkpt lat="47.50799" lon="6.65197">
        <ele>367</ele>
        <time>2016-01-01T09:00:54.000Z</time>
      </trkpt>
      <trkpt lat="47.50801" lon="6.65196">
        <ele>367</ele>
        <time>2016-01-01T09:00:55.000Z</time>
      </trkpt>
      <trkpt lat="47.50805" lon="6.65193">
        <ele>367</ele>
        <time>2016-01-01T09:01:12.000Z</time>
      </trkpt>
      <trkpt lat="47.50805" lon="6.65193">
        <ele>367</ele>
        <time>2016-01-01T09:01:13.000Z</time>
      </trkpt>
      <trkpt lat="47.50805" lon="6.65199">
        <ele>367</ele>
        <time>2016-01-01T09:01:31.000Z</time>
      </trkpt>
      <trkpt lat="47.50803" lon="6.65202">
        <ele>367</ele>
        <time>2016-01-01T09:01:32.000Z</time>
      </trkpt>
      <trkpt lat="47.508" lon="6.65206">
        <ele>367</ele>
        <time>2016-01-01T09:01:34.000Z</time>
      </trkpt>
      <trkpt lat="47.50799" lon="6.65207">
        <ele>367</ele>
        <time>2016-01-01T09:01:35.000Z</time>
      </trkpt>
      <trkpt lat="47.50795" lon="6.65207">
        <ele>367</ele>
        <time>2016-01-01T09:01:37.000Z</time>
      </trkpt>
      <trkpt lat="47.50794" lon="6.65207">
        <ele>367</ele>
        <time>2016-01-01T09:01:38.000Z</time>
      </trkpt>
      <trkpt lat="47.50798" lon="6.6521">
        <ele>367</ele>
        <time>2016-01-01T09:02:22.000Z</time>
      </trkpt>
      <trkpt lat="47.50801" lon="6.65209">
        <ele>367</ele>
        <time>2016-01-01T09:02:23.000Z</time>
      </trkpt>
      <trkpt lat="47.50803" lon="6.65207">
        <ele>367</ele>
        <time>2016-01-01T09:02:24.000Z</time>
      </trkpt>
      <trkpt lat="47.50806" lon="6.65205">
        <ele>367</ele>
        <time>2016-01-01T09:02:25.000Z</time>
      </trkpt>
      <trkpt lat="47.5081" lon="6.65203">
        <ele>367</ele>
        <time>2016-01-01T09:02:26.000Z</time>
      </trkpt>
      <trkpt lat="47.50814" lon="6.652">
        <ele>367</ele>
        <time>2016-01-01T09:02:27.000Z</time>
      </trkpt>
      <trkpt lat="47.50817" lon="6.65198">
        <ele>367</ele>
        <time>2016-01-01T09:02:28.000Z</time>
      </trkpt>
      <trkpt lat="47.5082" lon="6.65195">
        <ele>367</ele>
        <time>2016-01-01T09:02:29.000Z</time>
      </trkpt>
      <trkpt lat="47.50824" lon="6.65192">
        <ele>367</ele>
        <time>2016-01-01T09:02:30.000Z</time>
      </trkpt>
      <trkpt lat="47.50828" lon="6.65189">
        <ele>367</ele>
        <time>2016-01-01T09:02:31.000Z</time>
      </trkpt>
      <trkpt lat="47.50832" lon="6.65186">
        <ele>367</ele>
        <time>2016-01-01T09:02:32.000Z</time>
      </trkpt>
      <trkpt lat="47.50835" lon="6.65183">
        <ele>368</ele>
        <time>2016-01-01T09:02:33.000Z</time>
      </trkpt>
      <trkpt lat="47.50839" lon="6.65181">
        <ele>368</ele>
        <time>2016-01-01T09:02:34.000Z</time>
      </trkpt>
      <trkpt lat="47.50843" lon="6.65179">
        <ele>368</ele>
        <time>2016-01-01T09:02:35.000Z</time>
      </trkpt>
      <trkpt lat="47.50848" lon="6.65177">
        <ele>369</ele>
        <time>2016-01-01T09:02:36.000Z</time>
      </trkpt>
      <trkpt lat="47.50851" lon="6.65176">
        <ele>369</ele>
        <time>2016-01-01T09:02:37.000Z</time>
      </trkpt>
      <trkpt lat="47.50855" lon="6.65173">
        <ele>369</ele>
        <time>2016-01-01T09:02:38.000Z</time>
      </trkpt>
      <trkpt lat="47.50858" lon="6.6517">
        <ele>369</ele>
        <time>2016-01-01T09:02:39.000Z</time>
      </trkpt>
      <trkpt lat="47.50861" lon="6.65168">
        <ele>369</ele>
        <time>2016-01-01T09:02:40.000Z</time>
      </trkpt>
      <trkpt lat="47.50864" lon="6.65164">
        <ele>368</ele>
        <time>2016-01-01T09:02:41.000Z</time>
      </trkpt>
      <trkpt lat="47.50866" lon="6.65159">
        <ele>368</ele>
        <time>2016-01-01T09:02:42.000Z</time>
      </trkpt>
      <trkpt lat="47.50868" lon="6.65153">
        <ele>368</ele>
        <time>2016-01-01T09:02:43.000Z</time>
      </trkpt>
      <trkpt lat="47.5087" lon="6.65148">
        <ele>368</ele>
        <time>2016-01-01T09:02:44.000Z</time>
      </trkpt>
      <trkpt lat="47.50872" lon="6.65143">
        <ele>368</ele>
        <time>2016-01-01T09:02:45.000Z</time>
      </trkpt>
      <trkpt lat="47.50875" lon="6.65138">
        <ele>368</ele>
        <time>2016-01-01T09:02:46.000Z</time>
      </trkpt>
      <trkpt lat="47.50877" lon="6.65133">
        <ele>368</ele>
        <time>2016-01-01T09:02:47.000Z</time>
      </trkpt>
      <trkpt lat="47.5088" lon="6.65128">
        <ele>368</ele>
        <time>2016-01-01T09:02:48.000Z</time>
      </trkpt>
      <trkpt lat="47.50883" lon="6.65124">
        <ele>368</ele>
        <time>2016-01-01T09:02:49.000Z</time>
      </trkpt>
      <trkpt lat="47.50888" lon="6.6512">
        <ele>368</ele>
        <time>2016-01-01T09:02:50.000Z</time>
      </trkpt>
      <trkpt lat="47.50891" lon="6.65117">
        <ele>368</ele>
        <time>2016-01-01T09:02:51.000Z</time>
      </trkpt>
      <trkpt lat="47.50894" lon="6.65113">
        <ele>368</ele>
        <time>2016-01-01T09:02:52.000Z</time>
      </trkpt>
      <trkpt lat="47.50897" lon="6.65111">
        <ele>368</ele>
        <time>2016-01-01T09:02:53.000Z</time>
      </trkpt>
      <trkpt lat="47.50899" lon="6.65108">
        <ele>368</ele>
        <time>2016-01-01T09:02:54.000Z</time>
      </trkpt>
      <trkpt lat="47.50905" lon="6.65105">
        <ele>368</ele>
        <time>2016-01-01T09:02:55.000Z</time>
      </trkpt>
      <trkpt lat="47.50909" lon="6.65104">
        <ele>368</ele>
        <time>2016-01-01T09:02:56.000Z</time>
      </trkpt>
      <trkpt lat="47.50913" lon="6.65101">
        <ele>368</ele>
        <time>2016-01-01T09:02:57.000Z</time>
      </trkpt>
      <trkpt lat="47.50917" lon="6.65098">
        <ele>368</ele>
        <time>2016-01-01T09:02:58.000Z</time>
      </trkpt>
      <trkpt lat="47.5092" lon="6.65096">
        <ele>368</ele>
        <time>2016-01-01T09:02:59.000Z</time>
      </trkpt>
      <trkpt lat="47.50925" lon="6.65094">
        <ele>368</ele>
        <time>2016-01-01T09:03:00.000Z</time>
      </trkpt>
      <trkpt lat="47.50928" lon="6.65092">
        <ele>369</ele>
        <time>2016-01-01T09:03:01.000Z</time>
      </trkpt>
      <trkpt lat="47.50932" lon="6.65089">
        <ele>369</ele>
        <time>2016-01-01T09:03:02.000Z</time>
      </trkpt>
      <trkpt lat="47.50937" lon="6.65082">
        <ele>369</ele>
        <time>2016-01-01T09:03:03.000Z</time>
      </trkpt>
      <trkpt lat="47.50941" lon="6.65079">
        <ele>369</ele>
        <time>2016-01-01T09:03:04.000Z</time>
      </trkpt>
      <trkpt lat="47.50944" lon="6.65077">
        <ele>369</ele>
        <time>2016-01-01T09:03:05.000Z</time>
      </trkpt>
      <trkpt lat="47.50947" lon="6.65074">
        <ele>369</ele>
        <time>2016-01-01T09:03:06.000Z</time>
      </trkpt>
      <trkpt lat="47.5095" lon="6.65072">
        <ele>369</ele>
        <time>2016-01-01T09:03:07.000Z</time>
      </trkpt>
      <trkpt lat="47.50958" lon="6.65071">
        <ele>369</ele>
        <time>2016-01-01T09:03:08.000Z</time>
      </trkpt>
      <trkpt lat="47.50963" lon="6.65069">
        <ele>369</ele>
        <time>2016-01-01T09:03:09.000Z</time>
      </trkpt>
      <trkpt lat="47.50967" lon="6.65066">
        <ele>369</ele>
        <time>2016-01-01T09:03:10.000Z</time>
      </trkpt>
      <trkpt lat="47.50971" lon="6.65063">
        <ele>369</ele>
        <time>2016-01-01T09:03:11.000Z</time>
      </trkpt>
      <trkpt lat="47.50975" lon="6.65061">
        <ele>369</ele>
        <time>2016-01-01T09:03:12.000Z</time>
      </trkpt>
      <trkpt lat="47.50978" lon="6.65058">
        <ele>369</ele>
        <time>2016-01-01T09:03:13.000Z</time>
      </trkpt>
      <trkpt lat="47.50981" lon="6.65056">
        <ele>369</ele>
        <time>2016-01-01T09:03:14.000Z</time>
      </trkpt>
      <trkpt lat="47.50984" lon="6.65054">
        <ele>369</ele>
        <time>2016-01-01T09:03:15.000Z</time>
      </trkpt>
      <trkpt lat="47.50988" lon="6.6505">
        <ele>369</ele>
        <time>2016-01-01T09:03:16.000Z</time>
      </trkpt>
      <trkpt lat="47.50991" lon="6.65047">
        <ele>369</ele>
        <time>2016-01-01T09:03:17.000Z</time>
      </trkpt>
      <trkpt lat="47.50995" lon="6.65046">
        <ele>369</ele>
        <time>2016-01-01T09:03:18.000Z</time>
      </trkpt>
      <trkpt lat="47.51" lon="6.65044">
        <ele>369</ele>
        <time>2016-01-01T09:03:19.000Z</time>
      </trkpt>
      <trkpt lat="47.51004" lon="6.65043">
        <ele>368</ele>
        <time>2016-01-01T09:03:20.000Z</time>
      </trkpt>
      <trkpt lat="47.51012" lon="6.6504">
        <ele>368</ele>
        <time>2016-01-01T09:03:21.000Z</time>
      </trkpt>
      <trkpt lat="47.51015" lon="6.65036">
        <ele>368</ele>
        <time>2016-01-01T09:03:22.000Z</time>
      </trkpt>
      <trkpt lat="47.51018" lon="6.65032">
        <ele>368</ele>
        <time>2016-01-01T09:03:23.000Z</time>
      </trkpt>
      <trkpt lat="47.51021" lon="6.65029">
        <ele>368</ele>
        <time>2016-01-01T09:03:24.000Z</time>
      </trkpt>
      <trkpt lat="47.51025" lon="6.65028">
        <ele>368</ele>
        <time>2016-01-01T09:03:25.000Z</time>
      </trkpt>
      <trkpt lat="47.51028" lon="6.65025">
        <ele>368</ele>
        <time>2016-01-01T09:03:26.000Z</time>
      </trkpt>
      <trkpt lat="47.51031" lon="6.65023">
        <ele>368</ele>
        <time>2016-01-01T09:03:27.000Z</time>
      </trkpt>
      <trkpt lat="47.51034" lon="6.6502">
        <ele>368</ele>
        <time>2016-01-01T09:03:28.000Z</time>
      </trkpt>
      <trkpt lat="47.51037" lon="6.65018">
        <ele>368</ele>
        <time>2016-01-01T09:03:29.000Z</time>
      </trkpt>
      <trkpt lat="47.51041" lon="6.65016">
        <ele>367</ele>
        <time>2016-01-01T09:03:30.000Z</time>
      </trkpt>
      <trkpt lat="47.51045" lon="6.65011">
        <ele>367</ele>
        <time>2016-01-01T09:03:31.000Z</time>
      </trkpt>
      <trkpt lat="47.51049" lon="6.65008">
        <ele>367</ele>
        <time>2016-01-01T09:03:32.000Z</time>
      </trkpt>
      <trkpt lat="47.51053" lon="6.65006">
        <ele>367</ele>
        <time>2016-01-01T09:03:33.000Z</time>
      </trkpt>
      <trkpt lat="47.5106" lon="6.65001">
        <ele>367</ele>
        <time>2016-01-01T09:03:34.000Z</time>
      </trkpt>
      <trkpt lat="47.51065" lon="6.64998">
        <ele>366</ele>
        <time>2016-01-01T09:03:35.000Z</time>
      </trkpt>
      <trkpt lat="47.51068" lon="6.64995">
        <ele>366</ele>
        <time>2016-01-01T09:03:36.000Z</time>
      </trkpt>
      <trkpt lat="47.51072" lon="6.64991">
        <ele>366</ele>
        <time>2016-01-01T09:03:37.000Z</time>
      </trkpt>
      <trkpt lat="47.51075" lon="6.64988">
        <ele>366</ele>
        <time>2016-01-01T09:03:38.000Z</time>
      </trkpt>
      <trkpt lat="47.5108" lon="6.64984">
        <ele>366</ele>
        <time>2016-01-01T09:03:39.000Z</time>
      </trkpt>
      <trkpt lat="47.51083" lon="6.64981">
        <ele>365</ele>
        <time>2016-01-01T09:03:40.000Z</time>
      </trkpt>
      <trkpt lat="47.51087" lon="6.64976">
        <ele>366</ele>
        <time>2016-01-01T09:03:41.000Z</time>
      </trkpt>
      <trkpt lat="47.51092" lon="6.6497">
        <ele>366</ele>
        <time>2016-01-01T09:03:42.000Z</time>
      </trkpt>
      <trkpt lat="47.51096" lon="6.6496">
        <ele>366</ele>
        <time>2016-01-01T09:03:43.000Z</time>
      </trkpt>
      <trkpt lat="47.511" lon="6.64954">
        <ele>366</ele>
        <time>2016-01-01T09:03:44.000Z</time>
      </trkpt>
      <trkpt lat="47.51104" lon="6.64946">
        <ele>366</ele>
        <time>2016-01-01T09:03:45.000Z</time>
      </trkpt>
      <trkpt lat="47.51107" lon="6.6494">
        <ele>366</ele>
        <time>2016-01-01T09:03:46.000Z</time>
      </trkpt>
      <trkpt lat="47.51112" lon="6.64935">
        <ele>366</ele>
        <time>2016-01-01T09:03:47.000Z</time>
      </trkpt>
      <trkpt lat="47.51116" lon="6.64931">
        <ele>366</ele>
        <time>2016-01-01T09:03:48.000Z</time>
      </trkpt>
      <trkpt lat="47.51118" lon="6.64924">
        <ele>366</ele>
        <time>2016-01-01T09:03:49.000Z</time>
      </trkpt>
      <trkpt lat="47.51122" lon="6.6492">
        <ele>366</ele>
        <time>2016-01-01T09:03:50.000Z</time>
      </trkpt>
      <trkpt lat="47.51125" lon="6.64918">
        <ele>366</ele>
        <time>2016-01-01T09:03:51.000Z</time>
      </trkpt>
      <trkpt lat="47.5113" lon="6.64915">
        <ele>365</ele>
        <time>2016-01-01T09:03:52.000Z</time>
      </trkpt>
      <trkpt lat="47.51133" lon="6.6491">
        <ele>365</ele>
        <time>2016-01-01T09:03:53.000Z</time>
      </trkpt>
      <trkpt lat="47.51137" lon="6.64906">
        <ele>365</ele>
        <time>2016-01-01T09:03:54.000Z</time>
      </trkpt>
      <trkpt lat="47.51137" lon="6.64896">
        <ele>365</ele>
        <time>2016-01-01T09:03:55.000Z</time>
      </trkpt>
      <trkpt lat="47.51139" lon="6.6489">
        <ele>365</ele>
        <time>2016-01-01T09:03:56.000Z</time>
      </trkpt>
      <trkpt lat="47.51144" lon="6.64888">
        <ele>365</ele>
        <time>2016-01-01T09:03:57.000Z</time>
      </trkpt>
      <trkpt lat="47.51148" lon="6.64884">
        <ele>365</ele>
        <time>2016-01-01T09:03:58.000Z</time>
      </trkpt>
      <trkpt lat="47.51151" lon="6.6488">
        <ele>365</ele>
        <time>2016-01-01T09:03:59.000Z</time>
      </trkpt>
      <trkpt lat="47.51155" lon="6.64876">
        <ele>365</ele>
        <time>2016-01-01T09:04:00.000Z</time>
      </trkpt>
      <trkpt lat="47.51158" lon="6.64873">
        <ele>365</ele>
        <time>2016-01-01T09:04:01.000Z</time>
      </trkpt>
      <trkpt lat="47.51162" lon="6.64869">
        <ele>365</ele>
        <time>2016-01-01T09:04:02.000Z</time>
      </trkpt>
      <trkpt lat="47.51165" lon="6.64866">
        <ele>364</ele>
        <time>2016-01-01T09:04:03.000Z</time>
      </trkpt>
      <trkpt lat="47.51168" lon="6.64864">
        <ele>364</ele>
        <time>2016-01-01T09:04:04.000Z</time>
      </trkpt>
      <trkpt lat="47.51169" lon="6.64861">
        <ele>364</ele>
        <time>2016-01-01T09:04:05.000Z</time>
      </trkpt>
      <trkpt lat="47.51164" lon="6.64853">
        <ele>364</ele>
        <time>2016-01-01T09:04:06.000Z</time>
      </trkpt>
      <trkpt lat="47.51163" lon="6.64849">
        <ele>364</ele>
        <time>2016-01-01T09:04:07.000Z</time>
      </trkpt>
      <trkpt lat="47.51161" lon="6.64844">
        <ele>364</ele>
        <time>2016-01-01T09:04:08.000Z</time>
      </trkpt>
      <trkpt lat="47.51158" lon="6.64839">
        <ele>364</ele>
        <time>2016-01-01T09:04:09.000Z</time>
      </trkpt>
      <trkpt lat="47.51154" lon="6.64835">
        <ele>364</ele>
        <time>2016-01-01T09:04:10.000Z</time>
      </trkpt>
      <trkpt lat="47.51151" lon="6.6483">
        <ele>364</ele>
        <time>2016-01-01T09:04:11.000Z</time>
      </trkpt>
      <trkpt lat="47.51148" lon="6.64824">
        <ele>365</ele>
        <time>2016-01-01T09:04:12.000Z</time>
      </trkpt>
      <trkpt lat="47.51146" lon="6.64819">
        <ele>365</ele>
        <time>2016-01-01T09:04:13.000Z</time>
      </trkpt>
      <trkpt lat="47.51144" lon="6.64813">
        <ele>365</ele>
        <time>2016-01-01T09:04:14.000Z</time>
      </trkpt>
      <trkpt lat="47.51143" lon="6.64807">
        <ele>365</ele>
        <time>2016-01-01T09:04:15.000Z</time>
      </trkpt>
      <trkpt lat="47.51142" lon="6.64801">
        <ele>365</ele>
        <time>2016-01-01T09:04:16.000Z</time>
      </trkpt>
      <trkpt lat="47.51141" lon="6.64795">
        <ele>366</ele>
        <time>2016-01-01T09:04:17.000Z</time>
      </trkpt>
      <trkpt lat="47.5114" lon="6.64789">
        <ele>366</ele>
        <time>2016-01-01T09:04:18.000Z</time>
      </trkpt>
      <trkpt lat="47.51139" lon="6.64784">
        <ele>366</ele>
        <time>2016-01-01T09:04:19.000Z</time>
      </trkpt>
      <trkpt lat="47.51138" lon="6.64778">
        <ele>366</ele>
        <time>2016-01-01T09:04:20.000Z</time>
      </trkpt>
      <trkpt lat="47.51137" lon="6.64774">
        <ele>366</ele>
        <time>2016-01-01T09:04:21.000Z</time>
      </trkpt>
      <trkpt lat="47.51135" lon="6.64769">
        <ele>366</ele>
        <time>2016-01-01T09:04:22.000Z</time>
      </trkpt>
      <trkpt lat="47.51134" lon="6.64765">
        <ele>366</ele>
        <time>2016-01-01T09:04:23.000Z</time>
      </trkpt>
      <trkpt lat="47.51132" lon="6.64761">
        <ele>366</ele>
        <time>2016-01-01T09:04:24.000Z</time>
      </trkpt>
      <trkpt lat="47.5113" lon="6.64757">
        <ele>366</ele>
        <time>2016-01-01T09:04:25.000Z</time>
      </trkpt>
      <trkpt lat="47.51128" lon="6.64754">
        <ele>366</ele>
        <time>2016-01-01T09:04:26.000Z</time>
      </trkpt>
      <trkpt lat="47.51125" lon="6.6475">
        <ele>368</ele>
        <time>2016-01-01T09:04:27.000Z</time>
      </trkpt>
      <trkpt lat="47.51123" lon="6.64746">
        <ele>368</ele>
        <time>2016-01-01T09:04:28.000Z</time>
      </trkpt>
      <trkpt lat="47.5112" lon="6.64742">
        <ele>368</ele>
        <time>2016-01-01T09:04:29.000Z</time>
      </trkpt>
      <trkpt lat="47.51117" lon="6.64739">
        <ele>368</ele>
        <time>2016-01-01T09:04:30.000Z</time>
      </trkpt>
      <trkpt lat="47.51114" lon="6.64735">
        <ele>368</ele>
        <time>2016-01-01T09:04:31.000Z</time>
      </trkpt>
      <trkpt lat="47.51111" lon="6.64731">
        <ele>368</ele>
        <time>2016-01-01T09:04:32.000Z</time>
      </trkpt>
      <trkpt lat="47.51108" lon="6.64728">
        <ele>368</ele>
        <time>2016-01-01T09:04:33.000Z</time>
      </trkpt>
      <trkpt lat="47.51106" lon="6.64724">
        <ele>368</ele>
        <time>2016-01-01T09:04:34.000Z</time>
      </trkpt>
      <trkpt lat="47.51103" lon="6.6472">
        <ele>368</ele>
        <time>2016-01-01T09:04:35.000Z</time>
      </trkpt>
      <trkpt lat="47.511" lon="6.64716">
        <ele>369</ele>
        <time>2016-01-01T09:04:36.000Z</time>
      </trkpt>
      <trkpt lat="47.51098" lon="6.64713">
        <ele>369</ele>
        <time>2016-01-01T09:04:37.000Z</time>
      </trkpt>
      <trkpt lat="47.51096" lon="6.64709">
        <ele>369</ele>
        <time>2016-01-01T09:04:38.000Z</time>
      </trkpt>
      <trkpt lat="47.51094" lon="6.64705">
        <ele>369</ele>
        <time>2016-01-01T09:04:39.000Z</time>
      </trkpt>
      <trkpt lat="47.51092" lon="6.64701">
        <ele>369</ele>
        <time>2016-01-01T09:04:40.000Z</time>
      </trkpt>
      <trkpt lat="47.5109" lon="6.64697">
        <ele>369</ele>
        <time>2016-01-01T09:04:41.000Z</time>
      </trkpt>
      <trkpt lat="47.51088" lon="6.64694">
        <ele>369</ele>
        <time>2016-01-01T09:04:42.000Z</time>
      </trkpt>
      <trkpt lat="47.51087" lon="6.64691">
        <ele>369</ele>
        <time>2016-01-01T09:04:43.000Z</time>
      </trkpt>
      <trkpt lat="47.51084" lon="6.64686">
        <ele>370</ele>
        <time>2016-01-01T09:04:45.000Z</time>
      </trkpt>
      <trkpt lat="47.51082" lon="6.64684">
        <ele>370</ele>
        <time>2016-01-01T09:04:46.000Z</time>
      </trkpt>
      <trkpt lat="47.51081" lon="6.64681">
        <ele>370</ele>
        <time>2016-01-01T09:04:47.000Z</time>
      </trkpt>
      <trkpt lat="47.51079" lon="6.64678">
        <ele>370</ele>
        <time>2016-01-01T09:04:48.000Z</time>
      </trkpt>
      <trkpt lat="47.51077" lon="6.64676">
        <ele>370</ele>
        <time>2016-01-01T09:04:49.000Z</time>
      </trkpt>
      <trkpt lat="47.51075" lon="6.64673">
        <ele>370</ele>
        <time>2016-01-01T09:04:50.000Z</time>
      </trkpt>
      <trkpt lat="47.51073" lon="6.6467">
        <ele>370</ele>
        <time>2016-01-01T09:04:51.000Z</time>
      </trkpt>
      <trkpt lat="47.51072" lon="6.64667">
        <ele>371</ele>
        <time>2016-01-01T09:04:52.000Z</time>
      </trkpt>
      <trkpt lat="47.51071" lon="6.64664">
        <ele>371</ele>
        <time>2016-01-01T09:04:53.000Z</time>
      </trkpt>
      <trkpt lat="47.51069" lon="6.64661">
        <ele>371</ele>
        <time>2016-01-01T09:04:54.000Z</time>
      </trkpt>
      <trkpt lat="47.51068" lon="6.64658">
        <ele>371</ele>
        <time>2016-01-01T09:04:55.000Z</time>
      </trkpt>
      <trkpt lat="47.51066" lon="6.64655">
        <ele>372</ele>
        <time>2016-01-01T09:04:56.000Z</time>
      </trkpt>
      <trkpt lat="47.51065" lon="6.64652">
        <ele>372</ele>
        <time>2016-01-01T09:04:57.000Z</time>
      </trkpt>
      <trkpt lat="47.51063" lon="6.64649">
        <ele>372</ele>
        <time>2016-01-01T09:04:58.000Z</time>
      </trkpt>
      <trkpt lat="47.51061" lon="6.64646">
        <ele>372</ele>
        <time>2016-01-01T09:04:59.000Z</time>
      </trkpt>
      <trkpt lat="47.5106" lon="6.64642">
        <ele>372</ele>
        <time>2016-01-01T09:05:00.000Z</time>
      </trkpt>
      <trkpt lat="47.51058" lon="6.64639">
        <ele>372</ele>
        <time>2016-01-01T09:05:01.000Z</time>
      </trkpt>
      <trkpt lat="47.51055" lon="6.64636">
        <ele>372</ele>
        <time>2016-01-01T09:05:02.000Z</time>
      </trkpt>
      <trkpt lat="47.51053" lon="6.64633">
        <ele>372</ele>
        <time>2016-01-01T09:05:03.000Z</time>
      </trkpt>
      <trkpt lat="47.51051" lon="6.64629">
        <ele>372</ele>
        <time>2016-01-01T09:05:04.000Z</time>
      </trkpt>
      <trkpt lat="47.51049" lon="6.64626">
        <ele>372</ele>
        <time>2016-01-01T09:05:05.000Z</time>
      </trkpt>
      <trkpt lat="47.51046" lon="6.64622">
        <ele>372</ele>
        <time>2016-01-01T09:05:06.000Z</time>
      </trkpt>
      <trkpt lat="47.51044" lon="6.64618">
        <ele>373</ele>
        <time>2016-01-01T09:05:07.000Z</time>
      </trkpt>
      <trkpt lat="47.51041" lon="6.64614">
        <ele>373</ele>
        <time>2016-01-01T09:05:08.000Z</time>
      </trkpt>
      <trkpt lat="47.51039" lon="6.6461">
        <ele>373</ele>
        <time>2016-01-01T09:05:09.000Z</time>
      </trkpt>
      <trkpt lat="47.51037" lon="6.64607">
        <ele>373</ele>
        <time>2016-01-01T09:05:10.000Z</time>
      </trkpt>
      <trkpt lat="47.51034" lon="6.64603">
        <ele>373</ele>
        <time>2016-01-01T09:05:11.000Z</time>
      </trkpt>
      <trkpt lat="47.51033" lon="6.64599">
        <ele>373</ele>
        <time>2016-01-01T09:05:12.000Z</time>
      </trkpt>
      <trkpt lat="47.51031" lon="6.64595">
        <ele>373</ele>
        <time>2016-01-01T09:05:13.000Z</time>
      </trkpt>
      <trkpt lat="47.51029" lon="6.64591">
        <ele>373</ele>
        <time>2016-01-01T09:05:14.000Z</time>
      </trkpt>
      <trkpt lat="47.51028" lon="6.64587">
        <ele>373</ele>
        <time>2016-01-01T09:05:15.000Z</time>
      </trkpt>
      <trkpt lat="47.51026" lon="6.64583">
        <ele>373</ele>
        <time>2016-01-01T09:05:16.000Z</time>
      </trkpt>
      <trkpt lat="47.51024" lon="6.64578">
        <ele>373</ele>
        <time>2016-01-01T09:05:17.000Z</time>
      </trkpt>
      <trkpt lat="47.51022" lon="6.64572">
        <ele>373</ele>
        <time>2016-01-01T09:05:18.000Z</time>
      </trkpt>
      <trkpt lat="47.51021" lon="6.64566">
        <ele>373</ele>
        <time>2016-01-01T09:05:19.000Z</time>
      </trkpt>
      <trkpt lat="47.51019" lon="6.64561">
        <ele>373</ele>
        <time>2016-01-01T09:05:20.000Z</time>
      </trkpt>
      <trkpt lat="47.51017" lon="6.64555">
        <ele>373</ele>
        <time>2016-01-01T09:05:21.000Z</time>
      </trkpt>
      <trkpt lat="47.51016" lon="6.6455">
        <ele>373</ele>
        <time>2016-01-01T09:05:22.000Z</time>
      </trkpt>
      <trkpt lat="47.51014" lon="6.64545">
        <ele>373</ele>
        <time>2016-01-01T09:05:23.000Z</time>
      </trkpt>
      <trkpt lat="47.51012" lon="6.6454">
        <ele>373</ele>
        <time>2016-01-01T09:05:24.000Z</time>
      </trkpt>
      <trkpt lat="47.51008" lon="6.64532">
        <ele>373</ele>
        <time>2016-01-01T09:05:25.000Z</time>
      </trkpt>
      <trkpt lat="47.51006" lon="6.64527">
        <ele>373</ele>
        <time>2016-01-01T09:05:26.000Z</time>
      </trkpt>
      <trkpt lat="47.51004" lon="6.64523">
        <ele>372</ele>
        <time>2016-01-01T09:05:27.000Z</time>
      </trkpt>
      <trkpt lat="47.51001" lon="6.64521">
        <ele>372</ele>
        <time>2016-01-01T09:05:28.000Z</time>
      </trkpt>
      <trkpt lat="47.50999" lon="6.64516">
        <ele>373</ele>
        <time>2016-01-01T09:05:29.000Z</time>
      </trkpt>
      <trkpt lat="47.50996" lon="6.64511">
        <ele>373</ele>
        <time>2016-01-01T09:05:30.000Z</time>
      </trkpt>
      <trkpt lat="47.50994" lon="6.64507">
        <ele>373</ele>
        <time>2016-01-01T09:05:31.000Z</time>
      </trkpt>
      <trkpt lat="47.50992" lon="6.64501">
        <ele>373</ele>
        <time>2016-01-01T09:05:32.000Z</time>
      </trkpt>
      <trkpt lat="47.5099" lon="6.64496">
        <ele>373</ele>
        <time>2016-01-01T09:05:33.000Z</time>
      </trkpt>
      <trkpt lat="47.50988" lon="6.64491">
        <ele>373</ele>
        <time>2016-01-01T09:05:34.000Z</time>
      </trkpt>
      <trkpt lat="47.50985" lon="6.64486">
        <ele>373</ele>
        <time>2016-01-01T09:05:35.000Z</time>
      </trkpt>
      <trkpt lat="47.50983" lon="6.64481">
        <ele>373</ele>
        <time>2016-01-01T09:05:36.000Z</time>
      </trkpt>
      <trkpt lat="47.5098" lon="6.64475">
        <ele>373</ele>
        <time>2016-01-01T09:05:37.000Z</time>
      </trkpt>
      <trkpt lat="47.50978" lon="6.6447">
        <ele>373</ele>
        <time>2016-01-01T09:05:38.000Z</time>
      </trkpt>
      <trkpt lat="47.50975" lon="6.64465">
        <ele>373</ele>
        <time>2016-01-01T09:05:39.000Z</time>
      </trkpt>
      <trkpt lat="47.50972" lon="6.64459">
        <ele>373</ele>
        <time>2016-01-01T09:05:40.000Z</time>
      </trkpt>
      <trkpt lat="47.5097" lon="6.64452">
        <ele>373</ele>
        <time>2016-01-01T09:05:41.000Z</time>
      </trkpt>
      <trkpt lat="47.50967" lon="6.64445">
        <ele>373</ele>
        <time>2016-01-01T09:05:42.000Z</time>
      </trkpt>
      <trkpt lat="47.50965" lon="6.64437">
        <ele>373</ele>
        <time>2016-01-01T09:05:43.000Z</time>
      </trkpt>
      <trkpt lat="47.50962" lon="6.64431">
        <ele>373</ele>
        <time>2016-01-01T09:05:44.000Z</time>
      </trkpt>
      <trkpt lat="47.5096" lon="6.64426">
        <ele>373</ele>
        <time>2016-01-01T09:05:45.000Z</time>
      </trkpt>
      <trkpt lat="47.50957" lon="6.64419">
        <ele>374</ele>
        <time>2016-01-01T09:05:46.000Z</time>
      </trkpt>
      <trkpt lat="47.50955" lon="6.64412">
        <ele>374</ele>
        <time>2016-01-01T09:05:47.000Z</time>
      </trkpt>
      <trkpt lat="47.50952" lon="6.64406">
        <ele>374</ele>
        <time>2016-01-01T09:05:48.000Z</time>
      </trkpt>
      <trkpt lat="47.5095" lon="6.644">
        <ele>374</ele>
        <time>2016-01-01T09:05:49.000Z</time>
      </trkpt>
      <trkpt lat="47.50948" lon="6.64394">
        <ele>374</ele>
        <time>2016-01-01T09:05:50.000Z</time>
      </trkpt>
      <trkpt lat="47.50946" lon="6.64387">
        <ele>374</ele>
        <time>2016-01-01T09:05:51.000Z</time>
      </trkpt>
      <trkpt lat="47.50945" lon="6.6438">
        <ele>374</ele>
        <time>2016-01-01T09:05:52.000Z</time>
      </trkpt>
      <trkpt lat="47.50944" lon="6.64373">
        <ele>374</ele>
        <time>2016-01-01T09:05:53.000Z</time>
      </trkpt>
      <trkpt lat="47.50942" lon="6.64367">
        <ele>374</ele>
        <time>2016-01-01T09:05:54.000Z</time>
      </trkpt>
      <trkpt lat="47.5094" lon="6.6436">
        <ele>374</ele>
        <time>2016-01-01T09:05:55.000Z</time>
      </trkpt>
      <trkpt lat="47.50938" lon="6.64354">
        <ele>374</ele>
        <time>2016-01-01T09:05:56.000Z</time>
      </trkpt>
      <trkpt lat="47.50937" lon="6.64347">
        <ele>374</ele>
        <time>2016-01-01T09:05:57.000Z</time>
      </trkpt>
      <trkpt lat="47.50936" lon="6.64342">
        <ele>374</ele>
        <time>2016-01-01T09:05:58.000Z</time>
      </trkpt>
      <trkpt lat="47.50935" lon="6.64335">
        <ele>374</ele>
        <time>2016-01-01T09:05:59.000Z</time>
      </trkpt>
      <trkpt lat="47.50933" lon="6.64329">
        <ele>375</ele>
        <time>2016-01-01T09:06:00.000Z</time>
      </trkpt>
      <trkpt lat="47.50931" lon="6.64324">
        <ele>375</ele>
        <time>2016-01-01T09:06:01.000Z</time>
      </trkpt>
      <trkpt lat="47.50929" lon="6.64319">
        <ele>375</ele>
        <time>2016-01-01T09:06:02.000Z</time>
      </trkpt>
      <trkpt lat="47.50928" lon="6.64312">
        <ele>375</ele>
        <time>2016-01-01T09:06:03.000Z</time>
      </trkpt>
      <trkpt lat="47.50927" lon="6.64306">
        <ele>375</ele>
        <time>2016-01-01T09:06:04.000Z</time>
      </trkpt>
      <trkpt lat="47.50926" lon="6.64301">
        <ele>375</ele>
        <time>2016-01-01T09:06:05.000Z</time>
      </trkpt>
      <trkpt lat="47.50925" lon="6.64295">
        <ele>375</ele>
        <time>2016-01-01T09:06:06.000Z</time>
      </trkpt>
      <trkpt lat="47.50925" lon="6.64288">
        <ele>376</ele>
        <time>2016-01-01T09:06:07.000Z</time>
      </trkpt>
      <trkpt lat="47.50925" lon="6.64283">
        <ele>376</ele>
        <time>2016-01-01T09:06:08.000Z</time>
      </trkpt>
      <trkpt lat="47.50923" lon="6.64278">
        <ele>375</ele>
        <time>2016-01-01T09:06:09.000Z</time>
      </trkpt>
      <trkpt lat="47.50924" lon="6.64272">
        <ele>375</ele>
        <time>2016-01-01T09:06:10.000Z</time>
      </trkpt>
      <trkpt lat="47.50923" lon="6.64266">
        <ele>375</ele>
        <time>2016-01-01T09:06:11.000Z</time>
      </trkpt>
      <trkpt lat="47.50923" lon="6.6426">
        <ele>375</ele>
        <time>2016-01-01T09:06:12.000Z</time>
      </trkpt>
      <trkpt lat="47.50922" lon="6.64255">
        <ele>375</ele>
        <time>2016-01-01T09:06:13.000Z</time>
      </trkpt>
      <trkpt lat="47.50921" lon="6.64249">
        <ele>375</ele>
        <time>2016-01-01T09:06:14.000Z</time>
      </trkpt>
      <trkpt lat="47.50921" lon="6.64243">
        <ele>375</ele>
        <time>2016-01-01T09:06:15.000Z</time>
      </trkpt>
      <trkpt lat="47.5092" lon="6.64237">
        <ele>375</ele>
        <time>2016-01-01T09:06:16.000Z</time>
      </trkpt>
      <trkpt lat="47.50919" lon="6.64232">
        <ele>375</ele>
        <time>2016-01-01T09:06:17.000Z</time>
      </trkpt>
      <trkpt lat="47.50918" lon="6.64226">
        <ele>376</ele>
        <time>2016-01-01T09:06:18.000Z</time>
      </trkpt>
      <trkpt lat="47.50917" lon="6.6422">
        <ele>376</ele>
        <time>2016-01-01T09:06:19.000Z</time>
      </trkpt>
      <trkpt lat="47.50916" lon="6.64214">
        <ele>374</ele>
        <time>2016-01-01T09:06:20.000Z</time>
      </trkpt>
      <trkpt lat="47.50915" lon="6.64208">
        <ele>374</ele>
        <time>2016-01-01T09:06:21.000Z</time>
      </trkpt>
      <trkpt lat="47.50915" lon="6.64202">
        <ele>374</ele>
        <time>2016-01-01T09:06:22.000Z</time>
      </trkpt>
      <trkpt lat="47.50914" lon="6.64197">
        <ele>374</ele>
        <time>2016-01-01T09:06:23.000Z</time>
      </trkpt>
      <trkpt lat="47.50913" lon="6.64191">
        <ele>374</ele>
        <time>2016-01-01T09:06:24.000Z</time>
      </trkpt>
      <trkpt lat="47.50912" lon="6.64186">
        <ele>374</ele>
        <time>2016-01-01T09:06:25.000Z</time>
      </trkpt>
      <trkpt lat="47.5091" lon="6.64182">
        <ele>374</ele>
        <time>2016-01-01T09:06:26.000Z</time>
      </trkpt>
      <trkpt lat="47.50909" lon="6.64177">
        <ele>374</ele>
        <time>2016-01-01T09:06:27.000Z</time>
      </trkpt>
      <trkpt lat="47.50908" lon="6.6417">
        <ele>374</ele>
        <time>2016-01-01T09:06:29.000Z</time>
      </trkpt>
      <trkpt lat="47.50908" lon="6.64164">
        <ele>374</ele>
        <time>2016-01-01T09:06:33.000Z</time>
      </trkpt>
      <trkpt lat="47.50909" lon="6.64164">
        <ele>374</ele>
        <time>2016-01-01T09:06:34.000Z</time>
      </trkpt>
      <trkpt lat="47.50911" lon="6.64161">
        <ele>374</ele>
        <time>2016-01-01T09:06:36.000Z</time>
      </trkpt>
      <trkpt lat="47.50913" lon="6.6416">
        <ele>374</ele>
        <time>2016-01-01T09:06:37.000Z</time>
      </trkpt>
      <trkpt lat="47.50915" lon="6.64158">
        <ele>374</ele>
        <time>2016-01-01T09:06:38.000Z</time>
      </trkpt>
      <trkpt lat="47.50918" lon="6.64157">
        <ele>374</ele>
        <time>2016-01-01T09:06:39.000Z</time>
      </trkpt>
      <trkpt lat="47.50921" lon="6.64155">
        <ele>374</ele>
        <time>2016-01-01T09:06:40.000Z</time>
      </trkpt>
      <trkpt lat="47.50923" lon="6.64153">
        <ele>374</ele>
        <time>2016-01-01T09:06:41.000Z</time>
      </trkpt>
      <trkpt lat="47.50926" lon="6.64152">
        <ele>374</ele>
        <time>2016-01-01T09:06:42.000Z</time>
      </trkpt>
      <trkpt lat="47.50928" lon="6.6415">
        <ele>374</ele>
        <time>2016-01-01T09:06:43.000Z</time>
      </trkpt>
      <trkpt lat="47.50932" lon="6.6415">
        <ele>374</ele>
        <time>2016-01-01T09:06:44.000Z</time>
      </trkpt>
      <trkpt lat="47.50935" lon="6.64149">
        <ele>374</ele>
        <time>2016-01-01T09:06:45.000Z</time>
      </trkpt>
      <trkpt lat="47.50939" lon="6.64149">
        <ele>374</ele>
        <time>2016-01-01T09:06:46.000Z</time>
      </trkpt>
      <trkpt lat="47.50944" lon="6.64149">
        <ele>374</ele>
        <time>2016-01-01T09:06:47.000Z</time>
      </trkpt>
      <trkpt lat="47.50953" lon="6.64151">
        <ele>375</ele>
        <time>2016-01-01T09:06:48.000Z</time>
      </trkpt>
      <trkpt lat="47.50957" lon="6.6415">
        <ele>375</ele>
        <time>2016-01-01T09:06:49.000Z</time>
      </trkpt>
      <trkpt lat="47.50961" lon="6.64147">
        <ele>375</ele>
        <time>2016-01-01T09:06:50.000Z</time>
      </trkpt>
      <trkpt lat="47.50967" lon="6.64142">
        <ele>375</ele>
        <time>2016-01-01T09:06:51.000Z</time>
      </trkpt>
      <trkpt lat="47.50971" lon="6.6414">
        <ele>375</ele>
        <time>2016-01-01T09:06:52.000Z</time>
      </trkpt>
      <trkpt lat="47.50975" lon="6.64138">
        <ele>375</ele>
        <time>2016-01-01T09:06:53.000Z</time>
      </trkpt>
      <trkpt lat="47.50978" lon="6.64136">
        <ele>375</ele>
        <time>2016-01-01T09:06:54.000Z</time>
      </trkpt>
      <trkpt lat="47.50981" lon="6.64137">
        <ele>375</ele>
        <time>2016-01-01T09:06:55.000Z</time>
      </trkpt>
      <trkpt lat="47.50985" lon="6.64138">
        <ele>375</ele>
        <time>2016-01-01T09:06:56.000Z</time>
      </trkpt>
      <trkpt lat="47.50988" lon="6.64138">
        <ele>376</ele>
        <time>2016-01-01T09:06:57.000Z</time>
      </trkpt>
      <trkpt lat="47.50991" lon="6.64137">
        <ele>376</ele>
        <time>2016-01-01T09:06:58.000Z</time>
      </trkpt>
      <trkpt lat="47.50995" lon="6.64137">
        <ele>376</ele>
        <time>2016-01-01T09:06:59.000Z</time>
      </trkpt>
      <trkpt lat="47.50997" lon="6.64136">
        <ele>376</ele>
        <time>2016-01-01T09:07:00.000Z</time>
      </trkpt>
      <trkpt lat="47.51" lon="6.64136">
        <ele>376</ele>
        <time>2016-01-01T09:07:01.000Z</time>
      </trkpt>
      <trkpt lat="47.51002" lon="6.64136">
        <ele>378</ele>
        <time>2016-01-01T09:07:02.000Z</time>
      </trkpt>
      <trkpt lat="47.51005" lon="6.64135">
        <ele>378</ele>
        <time>2016-01-01T09:07:03.000Z</time>
      </trkpt>
      <trkpt lat="47.51007" lon="6.64135">
        <ele>378</ele>
        <time>2016-01-01T09:07:04.000Z</time>
      </trkpt>
      <trkpt lat="47.5101" lon="6.64135">
        <ele>378</ele>
        <time>2016-01-01T09:07:05.000Z</time>
      </trkpt>
      <trkpt lat="47.51012" lon="6.64136">
        <ele>378</ele>
        <time>2016-01-01T09:07:06.000Z</time>
      </trkpt>
      <trkpt lat="47.51015" lon="6.64138">
        <ele>378</ele>
        <time>2016-01-01T09:07:07.000Z</time>
      </trkpt>
      <trkpt lat="47.51018" lon="6.6414">
        <ele>378</ele>
        <time>2016-01-01T09:07:08.000Z</time>
      </trkpt>
      <trkpt lat="47.51021" lon="6.64143">
        <ele>378</ele>
        <time>2016-01-01T09:07:09.000Z</time>
      </trkpt>
      <trkpt lat="47.51023" lon="6.64146">
        <ele>378</ele>
        <time>2016-01-01T09:07:10.000Z</time>
      </trkpt>
      <trkpt lat="47.51026" lon="6.64149">
        <ele>378</ele>
        <time>2016-01-01T09:07:11.000Z</time>
      </trkpt>
      <trkpt lat="47.51028" lon="6.64152">
        <ele>379</ele>
        <time>2016-01-01T09:07:12.000Z</time>
      </trkpt>
      <trkpt lat="47.5103" lon="6.64154">
        <ele>379</ele>
        <time>2016-01-01T09:07:13.000Z</time>
      </trkpt>
      <trkpt lat="47.51032" lon="6.64156">
        <ele>379</ele>
        <time>2016-01-01T09:07:14.000Z</time>
      </trkpt>
      <trkpt lat="47.51034" lon="6.64157">
        <ele>379</ele>
        <time>2016-01-01T09:07:15.000Z</time>
      </trkpt>
      <trkpt lat="47.51036" lon="6.64158">
        <ele>379</ele>
        <time>2016-01-01T09:07:16.000Z</time>
      </trkpt>
      <trkpt lat="47.51041" lon="6.64159">
        <ele>379</ele>
        <time>2016-01-01T09:07:18.000Z</time>
      </trkpt>
      <trkpt lat="47.51042" lon="6.64159">
        <ele>379</ele>
        <time>2016-01-01T09:07:19.000Z</time>
      </trkpt>
      <trkpt lat="47.51046" lon="6.64157">
        <ele>379</ele>
        <time>2016-01-01T09:07:21.000Z</time>
      </trkpt>
      <trkpt lat="47.51049" lon="6.64157">
        <ele>380</ele>
        <time>2016-01-01T09:07:22.000Z</time>
      </trkpt>
      <trkpt lat="47.51052" lon="6.64157">
        <ele>380</ele>
        <time>2016-01-01T09:07:23.000Z</time>
      </trkpt>
      <trkpt lat="47.51054" lon="6.64156">
        <ele>380</ele>
        <time>2016-01-01T09:07:24.000Z</time>
      </trkpt>
      <trkpt lat="47.51057" lon="6.64156">
        <ele>380</ele>
        <time>2016-01-01T09:07:25.000Z</time>
      </trkpt>
      <trkpt lat="47.51059" lon="6.64156">
        <ele>380</ele>
        <time>2016-01-01T09:07:26.000Z</time>
      </trkpt>
      <trkpt lat="47.51062" lon="6.64155">
        <ele>380</ele>
        <time>2016-01-01T09:07:27.000Z</time>
      </trkpt>
      <trkpt lat="47.51064" lon="6.64155">
        <ele>381</ele>
        <time>2016-01-01T09:07:28.000Z</time>
      </trkpt>
      <trkpt lat="47.51068" lon="6.64152">
        <ele>381</ele>
        <time>2016-01-01T09:07:30.000Z</time>
      </trkpt>
      <trkpt lat="47.5107" lon="6.6415">
        <ele>381</ele>
        <time>2016-01-01T09:07:31.000Z</time>
      </trkpt>
      <trkpt lat="47.51073" lon="6.64147">
        <ele>380</ele>
        <time>2016-01-01T09:07:33.000Z</time>
      </trkpt>
      <trkpt lat="47.51075" lon="6.64146">
        <ele>380</ele>
        <time>2016-01-01T09:07:34.000Z</time>
      </trkpt>
      <trkpt lat="47.51078" lon="6.64146">
        <ele>381</ele>
        <time>2016-01-01T09:07:35.000Z</time>
      </trkpt>
      <trkpt lat="47.5108" lon="6.64147">
        <ele>381</ele>
        <time>2016-01-01T09:07:36.000Z</time>
      </trkpt>
      <trkpt lat="47.51082" lon="6.64147">
        <ele>381</ele>
        <time>2016-01-01T09:07:37.000Z</time>
      </trkpt>
      <trkpt lat="47.51085" lon="6.64147">
        <ele>383</ele>
        <time>2016-01-01T09:07:38.000Z</time>
      </trkpt>
      <trkpt lat="47.51087" lon="6.64148">
        <ele>383</ele>
        <time>2016-01-01T09:07:39.000Z</time>
      </trkpt>
      <trkpt lat="47.51089" lon="6.64148">
        <ele>383</ele>
        <time>2016-01-01T09:07:40.000Z</time>
      </trkpt>
      <trkpt lat="47.51092" lon="6.64149">
        <ele>383</ele>
        <time>2016-01-01T09:07:41.000Z</time>
      </trkpt>
      <trkpt lat="47.51094" lon="6.64151">
        <ele>383</ele>
        <time>2016-01-01T09:07:42.000Z</time>
      </trkpt>
      <trkpt lat="47.51098" lon="6.64153">
        <ele>383</ele>
        <time>2016-01-01T09:07:44.000Z</time>
      </trkpt>
      <trkpt lat="47.511" lon="6.64154">
        <ele>383</ele>
        <time>2016-01-01T09:07:45.000Z</time>
      </trkpt>
      <trkpt lat="47.51102" lon="6.64155">
        <ele>383</ele>
        <time>2016-01-01T09:07:46.000Z</time>
      </trkpt>
      <trkpt lat="47.51104" lon="6.64156">
        <ele>383</ele>
        <time>2016-01-01T09:07:47.000Z</time>
      </trkpt>
      <trkpt lat="47.51108" lon="6.64157">
        <ele>383</ele>
        <time>2016-01-01T09:07:49.000Z</time>
      </trkpt>
      <trkpt lat="47.51111" lon="6.64157">
        <ele>384</ele>
        <time>2016-01-01T09:07:50.000Z</time>
      </trkpt>
      <trkpt lat="47.51115" lon="6.64158">
        <ele>384</ele>
        <time>2016-01-01T09:07:52.000Z</time>
      </trkpt>
      <trkpt lat="47.51117" lon="6.64159">
        <ele>384</ele>
        <time>2016-01-01T09:07:53.000Z</time>
      </trkpt>
      <trkpt lat="47.51121" lon="6.6416">
        <ele>384</ele>
        <time>2016-01-01T09:07:55.000Z</time>
      </trkpt>
      <trkpt lat="47.51123" lon="6.64161">
        <ele>384</ele>
        <time>2016-01-01T09:07:56.000Z</time>
      </trkpt>
      <trkpt lat="47.51127" lon="6.64163">
        <ele>384</ele>
        <time>2016-01-01T09:07:58.000Z</time>
      </trkpt>
      <trkpt lat="47.51129" lon="6.64164">
        <ele>384</ele>
        <time>2016-01-01T09:07:59.000Z</time>
      </trkpt>
      <trkpt lat="47.51132" lon="6.64165">
        <ele>385</ele>
        <time>2016-01-01T09:08:01.000Z</time>
      </trkpt>
      <trkpt lat="47.51134" lon="6.64165">
        <ele>385</ele>
        <time>2016-01-01T09:08:02.000Z</time>
      </trkpt>
      <trkpt lat="47.51138" lon="6.64165">
        <ele>385</ele>
        <time>2016-01-01T09:08:04.000Z</time>
      </trkpt>
      <trkpt lat="47.5114" lon="6.64165">
        <ele>385</ele>
        <time>2016-01-01T09:08:05.000Z</time>
      </trkpt>
      <trkpt lat="47.51144" lon="6.64165">
        <ele>386</ele>
        <time>2016-01-01T09:08:07.000Z</time>
      </trkpt>
      <trkpt lat="47.51146" lon="6.64164">
        <ele>386</ele>
        <time>2016-01-01T09:08:08.000Z</time>
      </trkpt>
      <trkpt lat="47.5115" lon="6.64165">
        <ele>387</ele>
        <time>2016-01-01T09:08:10.000Z</time>
      </trkpt>
      <trkpt lat="47.51152" lon="6.64166">
        <ele>387</ele>
        <time>2016-01-01T09:08:11.000Z</time>
      </trkpt>
      <trkpt lat="47.51156" lon="6.64168">
        <ele>390</ele>
        <time>2016-01-01T09:08:13.000Z</time>
      </trkpt>
      <trkpt lat="47.51158" lon="6.64169">
        <ele>390</ele>
        <time>2016-01-01T09:08:14.000Z</time>
      </trkpt>
      <trkpt lat="47.51161" lon="6.64172">
        <ele>390</ele>
        <time>2016-01-01T09:08:16.000Z</time>
      </trkpt>
      <trkpt lat="47.51162" lon="6.64174">
        <ele>390</ele>
        <time>2016-01-01T09:08:17.000Z</time>
      </trkpt>
      <trkpt lat="47.51166" lon="6.64176">
        <ele>390</ele>
        <time>2016-01-01T09:08:19.000Z</time>
      </trkpt>
      <trkpt lat="47.51168" lon="6.64177">
        <ele>391</ele>
        <time>2016-01-01T09:08:20.000Z</time>
      </trkpt>
      <trkpt lat="47.51172" lon="6.64178">
        <ele>391</ele>
        <time>2016-01-01T09:08:22.000Z</time>
      </trkpt>
      <trkpt lat="47.51174" lon="6.64178">
        <ele>391</ele>
        <time>2016-01-01T09:08:23.000Z</time>
      </trkpt>
      <trkpt lat="47.51177" lon="6.64179">
        <ele>391</ele>
        <time>2016-01-01T09:08:25.000Z</time>
      </trkpt>
      <trkpt lat="47.5118" lon="6.6418">
        <ele>391</ele>
        <time>2016-01-01T09:08:26.000Z</time>
      </trkpt>
      <trkpt lat="47.51182" lon="6.6418">
        <ele>392</ele>
        <time>2016-01-01T09:08:27.000Z</time>
      </trkpt>
      <trkpt lat="47.51185" lon="6.6418">
        <ele>392</ele>
        <time>2016-01-01T09:08:28.000Z</time>
      </trkpt>
      <trkpt lat="47.51187" lon="6.6418">
        <ele>392</ele>
        <time>2016-01-01T09:08:29.000Z</time>
      </trkpt>
      <trkpt lat="47.5119" lon="6.6418">
        <ele>392</ele>
        <time>2016-01-01T09:08:30.000Z</time>
      </trkpt>
      <trkpt lat="47.51194" lon="6.64179">
        <ele>392</ele>
        <time>2016-01-01T09:08:32.000Z</time>
      </trkpt>
      <trkpt lat="47.51196" lon="6.6418">
        <ele>392</ele>
        <time>2016-01-01T09:08:33.000Z</time>
      </trkpt>
      <trkpt lat="47.51198" lon="6.6418">
        <ele>392</ele>
        <time>2016-01-01T09:08:34.000Z</time>
      </trkpt>
      <trkpt lat="47.512" lon="6.64181">
        <ele>392</ele>
        <time>2016-01-01T09:08:35.000Z</time>
      </trkpt>
      <trkpt lat="47.51202" lon="6.64183">
        <ele>392</ele>
        <time>2016-01-01T09:08:36.000Z</time>
      </trkpt>
      <trkpt lat="47.51205" lon="6.64184">
        <ele>392</ele>
        <time>2016-01-01T09:08:37.000Z</time>
      </trkpt>
      <trkpt lat="47.51209" lon="6.64186">
        <ele>392</ele>
        <time>2016-01-01T09:08:39.000Z</time>
      </trkpt>
      <trkpt lat="47.5121" lon="6.64188">
        <ele>392</ele>
        <time>2016-01-01T09:08:40.000Z</time>
      </trkpt>
      <trkpt lat="47.51214" lon="6.6419">
        <ele>392</ele>
        <time>2016-01-01T09:08:42.000Z</time>
      </trkpt>
      <trkpt lat="47.51216" lon="6.64191">
        <ele>392</ele>
        <time>2016-01-01T09:08:43.000Z</time>
      </trkpt>
      <trkpt lat="47.5122" lon="6.64195">
        <ele>392</ele>
        <time>2016-01-01T09:08:45.000Z</time>
      </trkpt>
      <trkpt lat="47.51221" lon="6.64196">
        <ele>392</ele>
        <time>2016-01-01T09:08:46.000Z</time>
      </trkpt>
      <trkpt lat="47.51224" lon="6.64198">
        <ele>392</ele>
        <time>2016-01-01T09:08:47.000Z</time>
      </trkpt>
      <trkpt lat="47.51226" lon="6.64199">
        <ele>392</ele>
        <time>2016-01-01T09:08:48.000Z</time>
      </trkpt>
      <trkpt lat="47.51228" lon="6.64202">
        <ele>392</ele>
        <time>2016-01-01T09:08:49.000Z</time>
      </trkpt>
      <trkpt lat="47.5123" lon="6.64204">
        <ele>392</ele>
        <time>2016-01-01T09:08:50.000Z</time>
      </trkpt>
      <trkpt lat="47.51232" lon="6.64206">
        <ele>392</ele>
        <time>2016-01-01T09:08:51.000Z</time>
      </trkpt>
      <trkpt lat="47.51233" lon="6.64209">
        <ele>392</ele>
        <time>2016-01-01T09:08:52.000Z</time>
      </trkpt>
      <trkpt lat="47.51235" lon="6.64212">
        <ele>392</ele>
        <time>2016-01-01T09:08:53.000Z</time>
      </trkpt>
      <trkpt lat="47.51236" lon="6.64216">
        <ele>392</ele>
        <time>2016-01-01T09:08:54.000Z</time>
      </trkpt>
      <trkpt lat="47.51238" lon="6.64219">
        <ele>392</ele>
        <time>2016-01-01T09:08:55.000Z</time>
      </trkpt>
      <trkpt lat="47.51239" lon="6.64223">
        <ele>393</ele>
        <time>2016-01-01T09:08:56.000Z</time>
      </trkpt>
      <trkpt lat="47.51241" lon="6.64226">
        <ele>393</ele>
        <time>2016-01-01T09:08:57.000Z</time>
      </trkpt>
      <trkpt lat="47.51243" lon="6.6423">
        <ele>393</ele>
        <time>2016-01-01T09:08:58.000Z</time>
      </trkpt>
      <trkpt lat="47.51245" lon="6.64233">
        <ele>393</ele>
        <time>2016-01-01T09:08:59.000Z</time>
      </trkpt>
      <trkpt lat="47.51247" lon="6.64237">
        <ele>393</ele>
        <time>2016-01-01T09:09:00.000Z</time>
      </trkpt>
      <trkpt lat="47.51249" lon="6.64239">
        <ele>393</ele>
        <time>2016-01-01T09:09:01.000Z</time>
      </trkpt>
      <trkpt lat="47.51252" lon="6.64241">
        <ele>394</ele>
        <time>2016-01-01T09:09:02.000Z</time>
      </trkpt>
      <trkpt lat="47.51255" lon="6.64242">
        <ele>394</ele>
        <time>2016-01-01T09:09:03.000Z</time>
      </trkpt>
      <trkpt lat="47.51258" lon="6.64243">
        <ele>394</ele>
        <time>2016-01-01T09:09:04.000Z</time>
      </trkpt>
      <trkpt lat="47.5126" lon="6.64242">
        <ele>394</ele>
        <time>2016-01-01T09:09:05.000Z</time>
      </trkpt>
      <trkpt lat="47.51263" lon="6.64241">
        <ele>394</ele>
        <time>2016-01-01T09:09:06.000Z</time>
      </trkpt>
      <trkpt lat="47.51265" lon="6.6424">
        <ele>394</ele>
        <time>2016-01-01T09:09:07.000Z</time>
      </trkpt>
      <trkpt lat="47.51268" lon="6.64239">
        <ele>394</ele>
        <time>2016-01-01T09:09:08.000Z</time>
      </trkpt>
      <trkpt lat="47.51271" lon="6.64238">
        <ele>394</ele>
        <time>2016-01-01T09:09:09.000Z</time>
      </trkpt>
      <trkpt lat="47.51274" lon="6.64236">
        <ele>394</ele>
        <time>2016-01-01T09:09:10.000Z</time>
      </trkpt>
      <trkpt lat="47.51277" lon="6.64234">
        <ele>394</ele>
        <time>2016-01-01T09:09:11.000Z</time>
      </trkpt>
      <trkpt lat="47.5128" lon="6.64232">
        <ele>394</ele>
        <time>2016-01-01T09:09:12.000Z</time>
      </trkpt>
      <trkpt lat="47.51283" lon="6.64231">
        <ele>394</ele>
        <time>2016-01-01T09:09:13.000Z</time>
      </trkpt>
      <trkpt lat="47.51285" lon="6.64231">
        <ele>394</ele>
        <time>2016-01-01T09:09:14.000Z</time>
      </trkpt>
      <trkpt lat="47.51289" lon="6.6423">
        <ele>394</ele>
        <time>2016-01-01T09:09:15.000Z</time>
      </trkpt>
      <trkpt lat="47.51292" lon="6.6423">
        <ele>394</ele>
        <time>2016-01-01T09:09:16.000Z</time>
      </trkpt>
      <trkpt lat="47.51296" lon="6.64229">
        <ele>394</ele>
        <time>2016-01-01T09:09:17.000Z</time>
      </trkpt>
      <trkpt lat="47.51299" lon="6.64228">
        <ele>394</ele>
        <time>2016-01-01T09:09:18.000Z</time>
      </trkpt>
      <trkpt lat="47.51304" lon="6.64227">
        <ele>394</ele>
        <time>2016-01-01T09:09:19.000Z</time>
      </trkpt>
      <trkpt lat="47.51308" lon="6.64226">
        <ele>394</ele>
        <time>2016-01-01T09:09:20.000Z</time>
      </trkpt>
      <trkpt lat="47.51312" lon="6.64224">
        <ele>394</ele>
        <time>2016-01-01T09:09:21.000Z</time>
      </trkpt>
      <trkpt lat="47.51315" lon="6.64222">
        <ele>394</ele>
        <time>2016-01-01T09:09:22.000Z</time>
      </trkpt>
      <trkpt lat="47.51319" lon="6.6422">
        <ele>394</ele>
        <time>2016-01-01T09:09:23.000Z</time>
      </trkpt>
      <trkpt lat="47.51322" lon="6.64219">
        <ele>394</ele>
        <time>2016-01-01T09:09:24.000Z</time>
      </trkpt>
      <trkpt lat="47.51326" lon="6.64217">
        <ele>394</ele>
        <time>2016-01-01T09:09:25.000Z</time>
      </trkpt>
      <trkpt lat="47.5133" lon="6.64215">
        <ele>394</ele>
        <time>2016-01-01T09:09:26.000Z</time>
      </trkpt>
      <trkpt lat="47.51334" lon="6.64213">
        <ele>395</ele>
        <time>2016-01-01T09:09:27.000Z</time>
      </trkpt>
      <trkpt lat="47.51338" lon="6.64212">
        <ele>395</ele>
        <time>2016-01-01T09:09:28.000Z</time>
      </trkpt>
      <trkpt lat="47.51342" lon="6.64211">
        <ele>395</ele>
        <time>2016-01-01T09:09:29.000Z</time>
      </trkpt>
      <trkpt lat="47.51346" lon="6.64211">
        <ele>395</ele>
        <time>2016-01-01T09:09:30.000Z</time>
      </trkpt>
      <trkpt lat="47.51354" lon="6.64211">
        <ele>395</ele>
        <time>2016-01-01T09:09:31.000Z</time>
      </trkpt>
      <trkpt lat="47.51359" lon="6.6421">
        <ele>395</ele>
        <time>2016-01-01T09:09:32.000Z</time>
      </trkpt>
      <trkpt lat="47.51364" lon="6.6421">
        <ele>395</ele>
        <time>2016-01-01T09:09:33.000Z</time>
      </trkpt>
      <trkpt lat="47.51369" lon="6.6421">
        <ele>395</ele>
        <time>2016-01-01T09:09:34.000Z</time>
      </trkpt>
      <trkpt lat="47.51374" lon="6.64209">
        <ele>395</ele>
        <time>2016-01-01T09:09:35.000Z</time>
      </trkpt>
      <trkpt lat="47.51379" lon="6.64209">
        <ele>395</ele>
        <time>2016-01-01T09:09:36.000Z</time>
      </trkpt>
      <trkpt lat="47.51384" lon="6.64208">
        <ele>395</ele>
        <time>2016-01-01T09:09:37.000Z</time>
      </trkpt>
      <trkpt lat="47.51391" lon="6.6421">
        <ele>395</ele>
        <time>2016-01-01T09:09:38.000Z</time>
      </trkpt>
      <trkpt lat="47.51397" lon="6.64211">
        <ele>395</ele>
        <time>2016-01-01T09:09:39.000Z</time>
      </trkpt>
      <trkpt lat="47.51402" lon="6.64214">
        <ele>395</ele>
        <time>2016-01-01T09:09:40.000Z</time>
      </trkpt>
      <trkpt lat="47.51405" lon="6.64215">
        <ele>395</ele>
        <time>2016-01-01T09:09:41.000Z</time>
      </trkpt>
      <trkpt lat="47.51408" lon="6.64218">
        <ele>395</ele>
        <time>2016-01-01T09:09:42.000Z</time>
      </trkpt>
      <trkpt lat="47.51412" lon="6.64219">
        <ele>395</ele>
        <time>2016-01-01T09:09:43.000Z</time>
      </trkpt>
      <trkpt lat="47.51415" lon="6.6422">
        <ele>395</ele>
        <time>2016-01-01T09:09:44.000Z</time>
      </trkpt>
      <trkpt lat="47.51419" lon="6.6422">
        <ele>394</ele>
        <time>2016-01-01T09:09:45.000Z</time>
      </trkpt>
      <trkpt lat="47.51422" lon="6.64219">
        <ele>394</ele>
        <time>2016-01-01T09:09:46.000Z</time>
      </trkpt>
      <trkpt lat="47.51426" lon="6.64217">
        <ele>393</ele>
        <time>2016-01-01T09:09:47.000Z</time>
      </trkpt>
      <trkpt lat="47.5143" lon="6.64214">
        <ele>393</ele>
        <time>2016-01-01T09:09:48.000Z</time>
      </trkpt>
      <trkpt lat="47.51434" lon="6.6421">
        <ele>393</ele>
        <time>2016-01-01T09:09:49.000Z</time>
      </trkpt>
      <trkpt lat="47.51437" lon="6.64208">
        <ele>393</ele>
        <time>2016-01-01T09:09:50.000Z</time>
      </trkpt>
      <trkpt lat="47.5144" lon="6.64205">
        <ele>393</ele>
        <time>2016-01-01T09:09:51.000Z</time>
      </trkpt>
      <trkpt lat="47.51444" lon="6.64202">
        <ele>393</ele>
        <time>2016-01-01T09:09:52.000Z</time>
      </trkpt>
      <trkpt lat="47.51447" lon="6.64199">
        <ele>393</ele>
        <time>2016-01-01T09:09:53.000Z</time>
      </trkpt>
      <trkpt lat="47.5145" lon="6.64197">
        <ele>393</ele>
        <time>2016-01-01T09:09:54.000Z</time>
      </trkpt>
      <trkpt lat="47.51453" lon="6.64195">
        <ele>393</ele>
        <time>2016-01-01T09:09:55.000Z</time>
      </trkpt>
      <trkpt lat="47.51456" lon="6.64193">
        <ele>393</ele>
        <time>2016-01-01T09:09:56.000Z</time>
      </trkpt>
      <trkpt lat="47.51459" lon="6.64191">
        <ele>392</ele>
        <time>2016-01-01T09:09:57.000Z</time>
      </trkpt>
      <trkpt lat="47.51462" lon="6.64189">
        <ele>392</ele>
        <time>2016-01-01T09:09:58.000Z</time>
      </trkpt>
      <trkpt lat="47.51465" lon="6.64186">
        <ele>392</ele>
        <time>2016-01-01T09:09:59.000Z</time>
      </trkpt>
      <trkpt lat="47.51468" lon="6.64183">
        <ele>392</ele>
        <time>2016-01-01T09:10:00.000Z</time>
      </trkpt>
      <trkpt lat="47.51471" lon="6.6418">
        <ele>392</ele>
        <time>2016-01-01T09:10:01.000Z</time>
      </trkpt>
      <trkpt lat="47.51473" lon="6.64175">
        <ele>392</ele>
        <time>2016-01-01T09:10:02.000Z</time>
      </trkpt>
      <trkpt lat="47.51475" lon="6.64171">
        <ele>391</ele>
        <time>2016-01-01T09:10:03.000Z</time>
      </trkpt>
      <trkpt lat="47.51477" lon="6.64166">
        <ele>390</ele>
        <time>2016-01-01T09:10:04.000Z</time>
      </trkpt>
      <trkpt lat="47.51478" lon="6.6416">
        <ele>390</ele>
        <time>2016-01-01T09:10:05.000Z</time>
      </trkpt>
      <trkpt lat="47.51479" lon="6.64154">
        <ele>390</ele>
        <time>2016-01-01T09:10:06.000Z</time>
      </trkpt>
      <trkpt lat="47.5148" lon="6.64148">
        <ele>390</ele>
        <time>2016-01-01T09:10:07.000Z</time>
      </trkpt>
      <trkpt lat="47.51482" lon="6.64142">
        <ele>390</ele>
        <time>2016-01-01T09:10:08.000Z</time>
      </trkpt>
      <trkpt lat="47.51484" lon="6.64137">
        <ele>390</ele>
        <time>2016-01-01T09:10:09.000Z</time>
      </trkpt>
      <trkpt lat="47.51486" lon="6.64134">
        <ele>389</ele>
        <time>2016-01-01T09:10:10.000Z</time>
      </trkpt>
      <trkpt lat="47.51488" lon="6.64132">
        <ele>389</ele>
        <time>2016-01-01T09:10:11.000Z</time>
      </trkpt>
      <trkpt lat="47.51491" lon="6.64129">
        <ele>389</ele>
        <time>2016-01-01T09:10:15.000Z</time>
      </trkpt>
      <trkpt lat="47.51492" lon="6.64129">
        <ele>389</ele>
        <time>2016-01-01T09:10:16.000Z</time>
      </trkpt>
      <trkpt lat="47.51496" lon="6.64127">
        <ele>389</ele>
        <time>2016-01-01T09:10:19.000Z</time>
      </trkpt>
      <trkpt lat="47.51498" lon="6.64124">
        <ele>389</ele>
        <time>2016-01-01T09:10:20.000Z</time>
      </trkpt>
      <trkpt lat="47.515" lon="6.6412">
        <ele>386</ele>
        <time>2016-01-01T09:10:21.000Z</time>
      </trkpt>
      <trkpt lat="47.51503" lon="6.64115">
        <ele>386</ele>
        <time>2016-01-01T09:10:22.000Z</time>
      </trkpt>
      <trkpt lat="47.51506" lon="6.6411">
        <ele>386</ele>
        <time>2016-01-01T09:10:23.000Z</time>
      </trkpt>
      <trkpt lat="47.51509" lon="6.64105">
        <ele>386</ele>
        <time>2016-01-01T09:10:24.000Z</time>
      </trkpt>
      <trkpt lat="47.51512" lon="6.641">
        <ele>386</ele>
        <time>2016-01-01T09:10:25.000Z</time>
      </trkpt>
      <trkpt lat="47.51515" lon="6.64095">
        <ele>386</ele>
        <time>2016-01-01T09:10:26.000Z</time>
      </trkpt>
      <trkpt lat="47.51519" lon="6.64091">
        <ele>386</ele>
        <time>2016-01-01T09:10:27.000Z</time>
      </trkpt>
      <trkpt lat="47.51522" lon="6.64088">
        <ele>386</ele>
        <time>2016-01-01T09:10:28.000Z</time>
      </trkpt>
      <trkpt lat="47.51526" lon="6.64086">
        <ele>386</ele>
        <time>2016-01-01T09:10:29.000Z</time>
      </trkpt>
      <trkpt lat="47.5153" lon="6.64084">
        <ele>385</ele>
        <time>2016-01-01T09:10:30.000Z</time>
      </trkpt>
      <trkpt lat="47.51533" lon="6.64082">
        <ele>384</ele>
        <time>2016-01-01T09:10:31.000Z</time>
      </trkpt>
      <trkpt lat="47.51536" lon="6.6408">
        <ele>384</ele>
        <time>2016-01-01T09:10:32.000Z</time>
      </trkpt>
      <trkpt lat="47.5154" lon="6.64078">
        <ele>384</ele>
        <time>2016-01-01T09:10:33.000Z</time>
      </trkpt>
      <trkpt lat="47.51542" lon="6.64076">
        <ele>384</ele>
        <time>2016-01-01T09:10:34.000Z</time>
      </trkpt>
      <trkpt lat="47.51545" lon="6.64074">
        <ele>384</ele>
        <time>2016-01-01T09:10:35.000Z</time>
      </trkpt>
      <trkpt lat="47.51548" lon="6.64073">
        <ele>384</ele>
        <time>2016-01-01T09:10:36.000Z</time>
      </trkpt>
      <trkpt lat="47.51551" lon="6.64071">
        <ele>384</ele>
        <time>2016-01-01T09:10:37.000Z</time>
      </trkpt>
      <trkpt lat="47.51553" lon="6.6407">
        <ele>384</ele>
        <time>2016-01-01T09:10:38.000Z</time>
      </trkpt>
      <trkpt lat="47.51556" lon="6.64068">
        <ele>384</ele>
        <time>2016-01-01T09:10:39.000Z</time>
      </trkpt>
      <trkpt lat="47.51558" lon="6.64067">
        <ele>384</ele>
        <time>2016-01-01T09:10:40.000Z</time>
      </trkpt>
      <trkpt lat="47.5156" lon="6.64066">
        <ele>384</ele>
        <time>2016-01-01T09:10:41.000Z</time>
      </trkpt>
      <trkpt lat="47.51562" lon="6.64065">
        <ele>384</ele>
        <time>2016-01-01T09:10:42.000Z</time>
      </trkpt>
      <trkpt lat="47.51566" lon="6.64063">
        <ele>384</ele>
        <time>2016-01-01T09:10:44.000Z</time>
      </trkpt>
      <trkpt lat="47.51567" lon="6.64063">
        <ele>384</ele>
        <time>2016-01-01T09:10:45.000Z</time>
      </trkpt>
      <trkpt lat="47.5157" lon="6.64058">
        <ele>384</ele>
        <time>2016-01-01T09:11:04.000Z</time>
      </trkpt>
      <trkpt lat="47.51571" lon="6.64058">
        <ele>384</ele>
        <time>2016-01-01T09:11:05.000Z</time>
      </trkpt>
      <trkpt lat="47.51574" lon="6.64062">
        <ele>384</ele>
        <time>2016-01-01T09:11:14.000Z</time>
      </trkpt>
      <trkpt lat="47.51574" lon="6.64063">
        <ele>384</ele>
        <time>2016-01-01T09:11:15.000Z</time>
      </trkpt>
      <trkpt lat="47.51578" lon="6.64061">
        <ele>384</ele>
        <time>2016-01-01T09:12:24.000Z</time>
      </trkpt>
      <trkpt lat="47.51579" lon="6.64061">
        <ele>384</ele>
        <time>2016-01-01T09:12:25.000Z</time>
      </trkpt>
      <trkpt lat="47.51582" lon="6.6406">
        <ele>384</ele>
        <time>2016-01-01T09:12:27.000Z</time>
      </trkpt>
      <trkpt lat="47.51584" lon="6.6406">
        <ele>384</ele>
        <time>2016-01-01T09:12:28.000Z</time>
      </trkpt>
      <trkpt lat="47.51588" lon="6.6406">
        <ele>384</ele>
        <time>2016-01-01T09:12:30.000Z</time>
      </trkpt>
      <trkpt lat="47.51589" lon="6.6406">
        <ele>384</ele>
        <time>2016-01-01T09:12:31.000Z</time>
      </trkpt>
      <trkpt lat="47.51591" lon="6.64065">
        <ele>384</ele>
        <time>2016-01-01T09:12:33.000Z</time>
      </trkpt>
      <trkpt lat="47.51593" lon="6.64069">
        <ele>384</ele>
        <time>2016-01-01T09:12:34.000Z</time>
      </trkpt>
      <trkpt lat="47.51595" lon="6.64073">
        <ele>384</ele>
        <time>2016-01-01T09:12:35.000Z</time>
      </trkpt>
      <trkpt lat="47.51597" lon="6.64078">
        <ele>384</ele>
        <time>2016-01-01T09:12:36.000Z</time>
      </trkpt>
      <trkpt lat="47.51599" lon="6.64083">
        <ele>384</ele>
        <time>2016-01-01T09:12:37.000Z</time>
      </trkpt>
      <trkpt lat="47.51602" lon="6.64087">
        <ele>383</ele>
        <time>2016-01-01T09:12:38.000Z</time>
      </trkpt>
      <trkpt lat="47.51604" lon="6.64092">
        <ele>383</ele>
        <time>2016-01-01T09:12:39.000Z</time>
      </trkpt>
      <trkpt lat="47.51606" lon="6.64097">
        <ele>383</ele>
        <time>2016-01-01T09:12:40.000Z</time>
      </trkpt>
      <trkpt lat="47.51608" lon="6.64102">
        <ele>383</ele>
        <time>2016-01-01T09:12:41.000Z</time>
      </trkpt>
      <trkpt lat="47.51611" lon="6.64107">
        <ele>383</ele>
        <time>2016-01-01T09:12:42.000Z</time>
      </trkpt>
      <trkpt lat="47.51613" lon="6.64112">
        <ele>383</ele>
        <time>2016-01-01T09:12:43.000Z</time>
      </trkpt>
      <trkpt lat="47.51615" lon="6.64117">
        <ele>383</ele>
        <time>2016-01-01T09:12:44.000Z</time>
      </trkpt>
      <trkpt lat="47.5162" lon="6.64124">
        <ele>383</ele>
        <time>2016-01-01T09:12:45.000Z</time>
      </trkpt>
      <trkpt lat="47.51623" lon="6.64128">
        <ele>383</ele>
        <time>2016-01-01T09:12:46.000Z</time>
      </trkpt>
      <trkpt lat="47.51625" lon="6.64134">
        <ele>383</ele>
        <time>2016-01-01T09:12:47.000Z</time>
      </trkpt>
      <trkpt lat="47.51627" lon="6.64141">
        <ele>383</ele>
        <time>2016-01-01T09:12:48.000Z</time>
      </trkpt>
      <trkpt lat="47.5163" lon="6.64146">
        <ele>383</ele>
        <time>2016-01-01T09:12:49.000Z</time>
      </trkpt>
      <trkpt lat="47.51633" lon="6.64152">
        <ele>383</ele>
        <time>2016-01-01T09:12:50.000Z</time>
      </trkpt>
      <trkpt lat="47.51637" lon="6.64157">
        <ele>382</ele>
        <time>2016-01-01T09:12:51.000Z</time>
      </trkpt>
      <trkpt lat="47.51642" lon="6.64163">
        <ele>382</ele>
        <time>2016-01-01T09:12:52.000Z</time>
      </trkpt>
      <trkpt lat="47.51645" lon="6.64168">
        <ele>382</ele>
        <time>2016-01-01T09:12:53.000Z</time>
      </trkpt>
      <trkpt lat="47.51648" lon="6.64175">
        <ele>382</ele>
        <time>2016-01-01T09:12:54.000Z</time>
      </trkpt>
      <trkpt lat="47.51651" lon="6.64181">
        <ele>382</ele>
        <time>2016-01-01T09:12:55.000Z</time>
      </trkpt>
      <trkpt lat="47.51655" lon="6.64187">
        <ele>382</ele>
        <time>2016-01-01T09:12:56.000Z</time>
      </trkpt>
      <trkpt lat="47.51658" lon="6.64193">
        <ele>382</ele>
        <time>2016-01-01T09:12:57.000Z</time>
      </trkpt>
      <trkpt lat="47.51661" lon="6.64199">
        <ele>382</ele>
        <time>2016-01-01T09:12:58.000Z</time>
      </trkpt>
      <trkpt lat="47.51666" lon="6.64207">
        <ele>382</ele>
        <time>2016-01-01T09:12:59.000Z</time>
      </trkpt>
      <trkpt lat="47.5167" lon="6.64212">
        <ele>380</ele>
        <time>2016-01-01T09:13:00.000Z</time>
      </trkpt>
      <trkpt lat="47.51673" lon="6.64219">
        <ele>380</ele>
        <time>2016-01-01T09:13:01.000Z</time>
      </trkpt>
      <trkpt lat="47.51677" lon="6.64226">
        <ele>380</ele>
        <time>2016-01-01T09:13:02.000Z</time>
      </trkpt>
      <trkpt lat="47.51681" lon="6.64233">
        <ele>380</ele>
        <time>2016-01-01T09:13:03.000Z</time>
      </trkpt>
      <trkpt lat="47.51684" lon="6.64241">
        <ele>380</ele>
        <time>2016-01-01T09:13:04.000Z</time>
      </trkpt>
      <trkpt lat="47.51687" lon="6.6425">
        <ele>380</ele>
        <time>2016-01-01T09:13:05.000Z</time>
      </trkpt>
      <trkpt lat="47.5169" lon="6.64258">
        <ele>379</ele>
        <time>2016-01-01T09:13:06.000Z</time>
      </trkpt>
      <trkpt lat="47.51694" lon="6.64267">
        <ele>379</ele>
        <time>2016-01-01T09:13:07.000Z</time>
      </trkpt>
      <trkpt lat="47.51699" lon="6.64275">
        <ele>379</ele>
        <time>2016-01-01T09:13:08.000Z</time>
      </trkpt>
      <trkpt lat="47.51703" lon="6.64285">
        <ele>378</ele>
        <time>2016-01-01T09:13:09.000Z</time>
      </trkpt>
      <trkpt lat="47.51706" lon="6.64294">
        <ele>378</ele>
        <time>2016-01-01T09:13:10.000Z</time>
      </trkpt>
      <trkpt lat="47.5171" lon="6.64304">
        <ele>378</ele>
        <time>2016-01-01T09:13:11.000Z</time>
      </trkpt>
      <trkpt lat="47.51713" lon="6.64315">
        <ele>378</ele>
        <time>2016-01-01T09:13:12.000Z</time>
      </trkpt>
      <trkpt lat="47.51717" lon="6.64326">
        <ele>378</ele>
        <time>2016-01-01T09:13:13.000Z</time>
      </trkpt>
      <trkpt lat="47.51721" lon="6.64337">
        <ele>375</ele>
        <time>2016-01-01T09:13:14.000Z</time>
      </trkpt>
      <trkpt lat="47.51724" lon="6.64348">
        <ele>375</ele>
        <time>2016-01-01T09:13:15.000Z</time>
      </trkpt>
      <trkpt lat="47.51728" lon="6.6436">
        <ele>375</ele>
        <time>2016-01-01T09:13:16.000Z</time>
      </trkpt>
      <trkpt lat="47.51732" lon="6.64372">
        <ele>375</ele>
        <time>2016-01-01T09:13:17.000Z</time>
      </trkpt>
      <trkpt lat="47.51734" lon="6.64384">
        <ele>374</ele>
        <time>2016-01-01T09:13:18.000Z</time>
      </trkpt>
      <trkpt lat="47.51736" lon="6.64397">
        <ele>373</ele>
        <time>2016-01-01T09:13:19.000Z</time>
      </trkpt>
      <trkpt lat="47.51738" lon="6.64409">
        <ele>373</ele>
        <time>2016-01-01T09:13:20.000Z</time>
      </trkpt>
      <trkpt lat="47.5174" lon="6.64422">
        <ele>370</ele>
        <time>2016-01-01T09:13:21.000Z</time>
      </trkpt>
      <trkpt lat="47.51742" lon="6.64436">
        <ele>369</ele>
        <time>2016-01-01T09:13:22.000Z</time>
      </trkpt>
      <trkpt lat="47.51742" lon="6.64448">
        <ele>368</ele>
        <time>2016-01-01T09:13:23.000Z</time>
      </trkpt>
      <trkpt lat="47.51743" lon="6.64461">
        <ele>367</ele>
        <time>2016-01-01T09:13:24.000Z</time>
      </trkpt>
      <trkpt lat="47.51744" lon="6.64472">
        <ele>367</ele>
        <time>2016-01-01T09:13:25.000Z</time>
      </trkpt>
      <trkpt lat="47.51745" lon="6.64485">
        <ele>366</ele>
        <time>2016-01-01T09:13:26.000Z</time>
      </trkpt>
      <trkpt lat="47.51745" lon="6.64498">
        <ele>365</ele>
        <time>2016-01-01T09:13:27.000Z</time>
      </trkpt>
      <trkpt lat="47.51747" lon="6.64511">
        <ele>363</ele>
        <time>2016-01-01T09:13:28.000Z</time>
      </trkpt>
      <trkpt lat="47.51748" lon="6.64522">
        <ele>362</ele>
        <time>2016-01-01T09:13:29.000Z</time>
      </trkpt>
      <trkpt lat="47.51749" lon="6.64535">
        <ele>362</ele>
        <time>2016-01-01T09:13:30.000Z</time>
      </trkpt>
      <trkpt lat="47.51749" lon="6.64547">
        <ele>362</ele>
        <time>2016-01-01T09:13:31.000Z</time>
      </trkpt>
      <trkpt lat="47.51748" lon="6.64557">
        <ele>362</ele>
        <time>2016-01-01T09:13:32.000Z</time>
      </trkpt>
      <trkpt lat="47.51749" lon="6.64566">
        <ele>362</ele>
        <time>2016-01-01T09:13:33.000Z</time>
      </trkpt>
      <trkpt lat="47.5175" lon="6.64574">
        <ele>362</ele>
        <time>2016-01-01T09:13:34.000Z</time>
      </trkpt>
      <trkpt lat="47.51755" lon="6.64581">
        <ele>363</ele>
        <time>2016-01-01T09:13:35.000Z</time>
      </trkpt>
      <trkpt lat="47.51759" lon="6.64586">
        <ele>364</ele>
        <time>2016-01-01T09:13:36.000Z</time>
      </trkpt>
      <trkpt lat="47.51765" lon="6.64587">
        <ele>365</ele>
        <time>2016-01-01T09:13:37.000Z</time>
      </trkpt>
      <trkpt lat="47.5177" lon="6.64587">
        <ele>366</ele>
        <time>2016-01-01T09:13:38.000Z</time>
      </trkpt>
      <trkpt lat="47.51775" lon="6.64586">
        <ele>366</ele>
        <time>2016-01-01T09:13:39.000Z</time>
      </trkpt>
      <trkpt lat="47.5178" lon="6.64583">
        <ele>368</ele>
        <time>2016-01-01T09:13:40.000Z</time>
      </trkpt>
      <trkpt lat="47.51786" lon="6.64581">
        <ele>368</ele>
        <time>2016-01-01T09:13:41.000Z</time>
      </trkpt>
      <trkpt lat="47.51791" lon="6.64581">
        <ele>369</ele>
        <time>2016-01-01T09:13:42.000Z</time>
      </trkpt>
      <trkpt lat="47.51798" lon="6.64579">
        <ele>370</ele>
        <time>2016-01-01T09:13:43.000Z</time>
      </trkpt>
      <trkpt lat="47.51802" lon="6.64577">
        <ele>370</ele>
        <time>2016-01-01T09:13:44.000Z</time>
      </trkpt>
      <trkpt lat="47.51807" lon="6.64578">
        <ele>371</ele>
        <time>2016-01-01T09:13:45.000Z</time>
      </trkpt>
      <trkpt lat="47.51812" lon="6.64576">
        <ele>371</ele>
        <time>2016-01-01T09:13:46.000Z</time>
      </trkpt>
      <trkpt lat="47.51815" lon="6.64574">
        <ele>372</ele>
        <time>2016-01-01T09:13:47.000Z</time>
      </trkpt>
      <trkpt lat="47.51819" lon="6.64572">
        <ele>372</ele>
        <time>2016-01-01T09:13:48.000Z</time>
      </trkpt>
      <trkpt lat="47.51824" lon="6.64571">
        <ele>372</ele>
        <time>2016-01-01T09:13:49.000Z</time>
      </trkpt>
      <trkpt lat="47.51829" lon="6.64568">
        <ele>372</ele>
        <time>2016-01-01T09:13:50.000Z</time>
      </trkpt>
      <trkpt lat="47.51834" lon="6.64565">
        <ele>377</ele>
        <time>2016-01-01T09:13:51.000Z</time>
      </trkpt>
      <trkpt lat="47.51839" lon="6.64562">
        <ele>377</ele>
        <time>2016-01-01T09:13:52.000Z</time>
      </trkpt>
      <trkpt lat="47.51843" lon="6.64561">
        <ele>378</ele>
        <time>2016-01-01T09:13:53.000Z</time>
      </trkpt>
      <trkpt lat="47.51847" lon="6.64559">
        <ele>378</ele>
        <time>2016-01-01T09:13:54.000Z</time>
      </trkpt>
      <trkpt lat="47.51851" lon="6.64556">
        <ele>378</ele>
        <time>2016-01-01T09:13:55.000Z</time>
      </trkpt>
      <trkpt lat="47.51855" lon="6.64555">
        <ele>378</ele>
        <time>2016-01-01T09:13:56.000Z</time>
      </trkpt>
      <trkpt lat="47.51858" lon="6.64553">
        <ele>379</ele>
        <time>2016-01-01T09:13:57.000Z</time>
      </trkpt>
      <trkpt lat="47.51861" lon="6.64551">
        <ele>379</ele>
        <time>2016-01-01T09:13:58.000Z</time>
      </trkpt>
      <trkpt lat="47.51865" lon="6.64548">
        <ele>379</ele>
        <time>2016-01-01T09:13:59.000Z</time>
      </trkpt>
      <trkpt lat="47.51868" lon="6.64545">
        <ele>379</ele>
        <time>2016-01-01T09:14:00.000Z</time>
      </trkpt>
      <trkpt lat="47.51871" lon="6.64543">
        <ele>379</ele>
        <time>2016-01-01T09:14:01.000Z</time>
      </trkpt>
      <trkpt lat="47.51874" lon="6.6454">
        <ele>379</ele>
        <time>2016-01-01T09:14:02.000Z</time>
      </trkpt>
      <trkpt lat="47.51877" lon="6.64538">
        <ele>380</ele>
        <time>2016-01-01T09:14:03.000Z</time>
      </trkpt>
      <trkpt lat="47.51881" lon="6.64536">
        <ele>380</ele>
        <time>2016-01-01T09:14:04.000Z</time>
      </trkpt>
      <trkpt lat="47.51883" lon="6.64534">
        <ele>380</ele>
        <time>2016-01-01T09:14:05.000Z</time>
      </trkpt>
      <trkpt lat="47.51886" lon="6.64532">
        <ele>380</ele>
        <time>2016-01-01T09:14:06.000Z</time>
      </trkpt>
      <trkpt lat="47.51889" lon="6.6453">
        <ele>380</ele>
        <time>2016-01-01T09:14:07.000Z</time>
      </trkpt>
      <trkpt lat="47.51892" lon="6.64529">
        <ele>380</ele>
        <time>2016-01-01T09:14:08.000Z</time>
      </trkpt>
      <trkpt lat="47.51895" lon="6.64527">
        <ele>380</ele>
        <time>2016-01-01T09:14:09.000Z</time>
      </trkpt>
      <trkpt lat="47.51898" lon="6.64525">
        <ele>380</ele>
        <time>2016-01-01T09:14:10.000Z</time>
      </trkpt>
      <trkpt lat="47.51901" lon="6.64523">
        <ele>381</ele>
        <time>2016-01-01T09:14:11.000Z</time>
      </trkpt>
      <trkpt lat="47.51904" lon="6.64521">
        <ele>381</ele>
        <time>2016-01-01T09:14:12.000Z</time>
      </trkpt>
      <trkpt lat="47.51906" lon="6.64519">
        <ele>381</ele>
        <time>2016-01-01T09:14:13.000Z</time>
      </trkpt>
      <trkpt lat="47.51909" lon="6.64517">
        <ele>381</ele>
        <time>2016-01-01T09:14:14.000Z</time>
      </trkpt>
      <trkpt lat="47.51912" lon="6.64515">
        <ele>381</ele>
        <time>2016-01-01T09:14:15.000Z</time>
      </trkpt>
      <trkpt lat="47.51915" lon="6.64513">
        <ele>381</ele>
        <time>2016-01-01T09:14:16.000Z</time>
      </trkpt>
      <trkpt lat="47.51918" lon="6.64511">
        <ele>384</ele>
        <time>2016-01-01T09:14:17.000Z</time>
      </trkpt>
      <trkpt lat="47.51921" lon="6.64509">
        <ele>384</ele>
        <time>2016-01-01T09:14:18.000Z</time>
      </trkpt>
      <trkpt lat="47.51924" lon="6.64507">
        <ele>384</ele>
        <time>2016-01-01T09:14:19.000Z</time>
      </trkpt>
      <trkpt lat="47.51926" lon="6.64504">
        <ele>384</ele>
        <time>2016-01-01T09:14:20.000Z</time>
      </trkpt>
      <trkpt lat="47.51929" lon="6.64502">
        <ele>384</ele>
        <time>2016-01-01T09:14:21.000Z</time>
      </trkpt>
      <trkpt lat="47.51932" lon="6.645">
        <ele>382</ele>
        <time>2016-01-01T09:14:22.000Z</time>
      </trkpt>
      <trkpt lat="47.51935" lon="6.64498">
        <ele>382</ele>
        <time>2016-01-01T09:14:23.000Z</time>
      </trkpt>
      <trkpt lat="47.51938" lon="6.64496">
        <ele>382</ele>
        <time>2016-01-01T09:14:24.000Z</time>
      </trkpt>
      <trkpt lat="47.51941" lon="6.64494">
        <ele>382</ele>
        <time>2016-01-01T09:14:25.000Z</time>
      </trkpt>
      <trkpt lat="47.51944" lon="6.64492">
        <ele>383</ele>
        <time>2016-01-01T09:14:26.000Z</time>
      </trkpt>
      <trkpt lat="47.51947" lon="6.6449">
        <ele>383</ele>
        <time>2016-01-01T09:14:27.000Z</time>
      </trkpt>
      <trkpt lat="47.5195" lon="6.64489">
        <ele>383</ele>
        <time>2016-01-01T09:14:28.000Z</time>
      </trkpt>
      <trkpt lat="47.51954" lon="6.64489">
        <ele>383</ele>
        <time>2016-01-01T09:14:29.000Z</time>
      </trkpt>
      <trkpt lat="47.51957" lon="6.64488">
        <ele>383</ele>
        <time>2016-01-01T09:14:30.000Z</time>
      </trkpt>
      <trkpt lat="47.5196" lon="6.64487">
        <ele>383</ele>
        <time>2016-01-01T09:14:31.000Z</time>
      </trkpt>
      <trkpt lat="47.51963" lon="6.64485">
        <ele>383</ele>
        <time>2016-01-01T09:14:32.000Z</time>
      </trkpt>
      <trkpt lat="47.51966" lon="6.64483">
        <ele>383</ele>
        <time>2016-01-01T09:14:33.000Z</time>
      </trkpt>
      <trkpt lat="47.51968" lon="6.64482">
        <ele>383</ele>
        <time>2016-01-01T09:14:34.000Z</time>
      </trkpt>
      <trkpt lat="47.51972" lon="6.6448">
        <ele>383</ele>
        <time>2016-01-01T09:14:35.000Z</time>
      </trkpt>
      <trkpt lat="47.51975" lon="6.64479">
        <ele>383</ele>
        <time>2016-01-01T09:14:36.000Z</time>
      </trkpt>
      <trkpt lat="47.51978" lon="6.64478">
        <ele>383</ele>
        <time>2016-01-01T09:14:37.000Z</time>
      </trkpt>
      <trkpt lat="47.51981" lon="6.64476">
        <ele>383</ele>
        <time>2016-01-01T09:14:38.000Z</time>
      </trkpt>
      <trkpt lat="47.51985" lon="6.64475">
        <ele>383</ele>
        <time>2016-01-01T09:14:39.000Z</time>
      </trkpt>
      <trkpt lat="47.51987" lon="6.64473">
        <ele>383</ele>
        <time>2016-01-01T09:14:40.000Z</time>
      </trkpt>
      <trkpt lat="47.5199" lon="6.64471">
        <ele>383</ele>
        <time>2016-01-01T09:14:41.000Z</time>
      </trkpt>
      <trkpt lat="47.51993" lon="6.6447">
        <ele>383</ele>
        <time>2016-01-01T09:14:42.000Z</time>
      </trkpt>
      <trkpt lat="47.51996" lon="6.64468">
        <ele>383</ele>
        <time>2016-01-01T09:14:43.000Z</time>
      </trkpt>
      <trkpt lat="47.51999" lon="6.64467">
        <ele>383</ele>
        <time>2016-01-01T09:14:44.000Z</time>
      </trkpt>
      <trkpt lat="47.52001" lon="6.64466">
        <ele>386</ele>
        <time>2016-01-01T09:14:45.000Z</time>
      </trkpt>
      <trkpt lat="47.52004" lon="6.64464">
        <ele>386</ele>
        <time>2016-01-01T09:14:46.000Z</time>
      </trkpt>
      <trkpt lat="47.52007" lon="6.64463">
        <ele>386</ele>
        <time>2016-01-01T09:14:47.000Z</time>
      </trkpt>
      <trkpt lat="47.5201" lon="6.64462">
        <ele>386</ele>
        <time>2016-01-01T09:14:48.000Z</time>
      </trkpt>
      <trkpt lat="47.52013" lon="6.64461">
        <ele>386</ele>
        <time>2016-01-01T09:14:49.000Z</time>
      </trkpt>
      <trkpt lat="47.52017" lon="6.64461">
        <ele>386</ele>
        <time>2016-01-01T09:14:50.000Z</time>
      </trkpt>
      <trkpt lat="47.5202" lon="6.6446">
        <ele>386</ele>
        <time>2016-01-01T09:14:51.000Z</time>
      </trkpt>
      <trkpt lat="47.52024" lon="6.64459">
        <ele>386</ele>
        <time>2016-01-01T09:14:52.000Z</time>
      </trkpt>
      <trkpt lat="47.52027" lon="6.64458">
        <ele>386</ele>
        <time>2016-01-01T09:14:53.000Z</time>
      </trkpt>
      <trkpt lat="47.5203" lon="6.64457">
        <ele>386</ele>
        <time>2016-01-01T09:14:54.000Z</time>
      </trkpt>
      <trkpt lat="47.52033" lon="6.64456">
        <ele>386</ele>
        <time>2016-01-01T09:14:55.000Z</time>
      </trkpt>
      <trkpt lat="47.52036" lon="6.64454">
        <ele>386</ele>
        <time>2016-01-01T09:14:56.000Z</time>
      </trkpt>
      <trkpt lat="47.52039" lon="6.64452">
        <ele>386</ele>
        <time>2016-01-01T09:14:57.000Z</time>
      </trkpt>
      <trkpt lat="47.52042" lon="6.6445">
        <ele>386</ele>
        <time>2016-01-01T09:14:58.000Z</time>
      </trkpt>
      <trkpt lat="47.52045" lon="6.64448">
        <ele>386</ele>
        <time>2016-01-01T09:14:59.000Z</time>
      </trkpt>
      <trkpt lat="47.52048" lon="6.64445">
        <ele>386</ele>
        <time>2016-01-01T09:15:00.000Z</time>
      </trkpt>
      <trkpt lat="47.5205" lon="6.64443">
        <ele>386</ele>
        <time>2016-01-01T09:15:01.000Z</time>
      </trkpt>
      <trkpt lat="47.52053" lon="6.64441">
        <ele>386</ele>
        <time>2016-01-01T09:15:02.000Z</time>
      </trkpt>
      <trkpt lat="47.52056" lon="6.64438">
        <ele>386</ele>
        <time>2016-01-01T09:15:03.000Z</time>
      </trkpt>
      <trkpt lat="47.52058" lon="6.64435">
        <ele>386</ele>
        <time>2016-01-01T09:15:04.000Z</time>
      </trkpt>
      <trkpt lat="47.52061" lon="6.64433">
        <ele>386</ele>
        <time>2016-01-01T09:15:05.000Z</time>
      </trkpt>
      <trkpt lat="47.52064" lon="6.64429">
        <ele>386</ele>
        <time>2016-01-01T09:15:06.000Z</time>
      </trkpt>
      <trkpt lat="47.52067" lon="6.64427">
        <ele>386</ele>
        <time>2016-01-01T09:15:07.000Z</time>
      </trkpt>
      <trkpt lat="47.52069" lon="6.64424">
        <ele>386</ele>
        <time>2016-01-01T09:15:08.000Z</time>
      </trkpt>
      <trkpt lat="47.52072" lon="6.64421">
        <ele>386</ele>
        <time>2016-01-01T09:15:09.000Z</time>
      </trkpt>
      <trkpt lat="47.52075" lon="6.64418">
        <ele>385</ele>
        <time>2016-01-01T09:15:10.000Z</time>
      </trkpt>
      <trkpt lat="47.52078" lon="6.64415">
        <ele>383</ele>
        <time>2016-01-01T09:15:11.000Z</time>
      </trkpt>
      <trkpt lat="47.52081" lon="6.64411">
        <ele>383</ele>
        <time>2016-01-01T09:15:12.000Z</time>
      </trkpt>
      <trkpt lat="47.52084" lon="6.64408">
        <ele>385</ele>
        <time>2016-01-01T09:15:13.000Z</time>
      </trkpt>
      <trkpt lat="47.52087" lon="6.64404">
        <ele>384</ele>
        <time>2016-01-01T09:15:14.000Z</time>
      </trkpt>
      <trkpt lat="47.5209" lon="6.644">
        <ele>384</ele>
        <time>2016-01-01T09:15:15.000Z</time>
      </trkpt>
      <trkpt lat="47.52093" lon="6.64396">
        <ele>384</ele>
        <time>2016-01-01T09:15:16.000Z</time>
      </trkpt>
      <trkpt lat="47.52096" lon="6.64392">
        <ele>384</ele>
        <time>2016-01-01T09:15:17.000Z</time>
      </trkpt>
      <trkpt lat="47.52099" lon="6.64388">
        <ele>384</ele>
        <time>2016-01-01T09:15:18.000Z</time>
      </trkpt>
      <trkpt lat="47.52102" lon="6.64384">
        <ele>384</ele>
        <time>2016-01-01T09:15:19.000Z</time>
      </trkpt>
      <trkpt lat="47.52105" lon="6.6438">
        <ele>383</ele>
        <time>2016-01-01T09:15:20.000Z</time>
      </trkpt>
      <trkpt lat="47.52108" lon="6.64376">
        <ele>383</ele>
        <time>2016-01-01T09:15:21.000Z</time>
      </trkpt>
      <trkpt lat="47.52111" lon="6.64372">
        <ele>383</ele>
        <time>2016-01-01T09:15:22.000Z</time>
      </trkpt>
      <trkpt lat="47.52114" lon="6.64367">
        <ele>383</ele>
        <time>2016-01-01T09:15:23.000Z</time>
      </trkpt>
      <trkpt lat="47.52117" lon="6.64364">
        <ele>383</ele>
        <time>2016-01-01T09:15:24.000Z</time>
      </trkpt>
      <trkpt lat="47.5212" lon="6.64359">
        <ele>383</ele>
        <time>2016-01-01T09:15:25.000Z</time>
      </trkpt>
      <trkpt lat="47.52123" lon="6.64355">
        <ele>383</ele>
        <time>2016-01-01T09:15:26.000Z</time>
      </trkpt>
      <trkpt lat="47.52126" lon="6.64351">
        <ele>382</ele>
        <time>2016-01-01T09:15:27.000Z</time>
      </trkpt>
      <trkpt lat="47.52129" lon="6.64347">
        <ele>382</ele>
        <time>2016-01-01T09:15:28.000Z</time>
      </trkpt>
      <trkpt lat="47.52132" lon="6.64343">
        <ele>382</ele>
        <time>2016-01-01T09:15:29.000Z</time>
      </trkpt>
      <trkpt lat="47.52135" lon="6.64339">
        <ele>382</ele>
        <time>2016-01-01T09:15:30.000Z</time>
      </trkpt>
      <trkpt lat="47.52139" lon="6.64335">
        <ele>382</ele>
        <time>2016-01-01T09:15:31.000Z</time>
      </trkpt>
      <trkpt lat="47.52146" lon="6.6433">
        <ele>378</ele>
        <time>2016-01-01T09:15:33.000Z</time>
      </trkpt>
      <trkpt lat="47.5215" lon="6.64327">
        <ele>378</ele>
        <time>2016-01-01T09:15:34.000Z</time>
      </trkpt>
      <trkpt lat="47.52154" lon="6.64325">
        <ele>379</ele>
        <time>2016-01-01T09:15:35.000Z</time>
      </trkpt>
      <trkpt lat="47.52158" lon="6.64324">
        <ele>379</ele>
        <time>2016-01-01T09:15:36.000Z</time>
      </trkpt>
      <trkpt lat="47.52163" lon="6.64326">
        <ele>380</ele>
        <time>2016-01-01T09:15:37.000Z</time>
      </trkpt>
      <trkpt lat="47.52167" lon="6.64326">
        <ele>381</ele>
        <time>2016-01-01T09:15:38.000Z</time>
      </trkpt>
      <trkpt lat="47.52171" lon="6.64329">
        <ele>381</ele>
        <time>2016-01-01T09:15:39.000Z</time>
      </trkpt>
      <trkpt lat="47.52174" lon="6.64327">
        <ele>381</ele>
        <time>2016-01-01T09:15:40.000Z</time>
      </trkpt>
      <trkpt lat="47.52178" lon="6.64329">
        <ele>380</ele>
        <time>2016-01-01T09:15:41.000Z</time>
      </trkpt>
      <trkpt lat="47.52181" lon="6.64329">
        <ele>380</ele>
        <time>2016-01-01T09:15:42.000Z</time>
      </trkpt>
      <trkpt lat="47.52185" lon="6.6433">
        <ele>380</ele>
        <time>2016-01-01T09:15:43.001Z</time>
      </trkpt>
      <trkpt lat="47.52188" lon="6.64332">
        <ele>380</ele>
        <time>2016-01-01T09:15:44.000Z</time>
      </trkpt>
      <trkpt lat="47.52192" lon="6.64336">
        <ele>385</ele>
        <time>2016-01-01T09:15:45.000Z</time>
      </trkpt>
      <trkpt lat="47.52195" lon="6.64339">
        <ele>385</ele>
        <time>2016-01-01T09:15:46.000Z</time>
      </trkpt>
      <trkpt lat="47.52198" lon="6.64341">
        <ele>385</ele>
        <time>2016-01-01T09:15:47.000Z</time>
      </trkpt>
      <trkpt lat="47.52202" lon="6.64343">
        <ele>385</ele>
        <time>2016-01-01T09:15:48.000Z</time>
      </trkpt>
      <trkpt lat="47.52205" lon="6.64345">
        <ele>385</ele>
        <time>2016-01-01T09:15:49.000Z</time>
      </trkpt>
      <trkpt lat="47.52208" lon="6.6435">
        <ele>385</ele>
        <time>2016-01-01T09:15:50.000Z</time>
      </trkpt>
      <trkpt lat="47.52211" lon="6.64353">
        <ele>385</ele>
        <time>2016-01-01T09:15:51.000Z</time>
      </trkpt>
      <trkpt lat="47.52215" lon="6.64356">
        <ele>385</ele>
        <time>2016-01-01T09:15:52.000Z</time>
      </trkpt>
      <trkpt lat="47.52218" lon="6.64359">
        <ele>385</ele>
        <time>2016-01-01T09:15:53.000Z</time>
      </trkpt>
      <trkpt lat="47.52221" lon="6.64362">
        <ele>386</ele>
        <time>2016-01-01T09:15:54.000Z</time>
      </trkpt>
      <trkpt lat="47.52225" lon="6.64359">
        <ele>385</ele>
        <time>2016-01-01T09:15:55.000Z</time>
      </trkpt>
      <trkpt lat="47.52229" lon="6.64358">
        <ele>385</ele>
        <time>2016-01-01T09:15:56.000Z</time>
      </trkpt>
      <trkpt lat="47.52232" lon="6.64357">
        <ele>385</ele>
        <time>2016-01-01T09:15:57.000Z</time>
      </trkpt>
      <trkpt lat="47.52237" lon="6.64356">
        <ele>384</ele>
        <time>2016-01-01T09:15:58.000Z</time>
      </trkpt>
      <trkpt lat="47.5224" lon="6.64352">
        <ele>384</ele>
        <time>2016-01-01T09:15:59.000Z</time>
      </trkpt>
      <trkpt lat="47.52244" lon="6.6435">
        <ele>383</ele>
        <time>2016-01-01T09:16:00.000Z</time>
      </trkpt>
      <trkpt lat="47.52248" lon="6.64348">
        <ele>383</ele>
        <time>2016-01-01T09:16:01.000Z</time>
      </trkpt>
      <trkpt lat="47.52251" lon="6.64345">
        <ele>381</ele>
        <time>2016-01-01T09:16:02.000Z</time>
      </trkpt>
      <trkpt lat="47.52255" lon="6.64342">
        <ele>381</ele>
        <time>2016-01-01T09:16:03.000Z</time>
      </trkpt>
      <trkpt lat="47.52259" lon="6.6434">
        <ele>381</ele>
        <time>2016-01-01T09:16:04.000Z</time>
      </trkpt>
      <trkpt lat="47.52262" lon="6.64338">
        <ele>381</ele>
        <time>2016-01-01T09:16:05.000Z</time>
      </trkpt>
      <trkpt lat="47.52266" lon="6.64337">
        <ele>381</ele>
        <time>2016-01-01T09:16:06.000Z</time>
      </trkpt>
      <trkpt lat="47.5227" lon="6.64336">
        <ele>382</ele>
        <time>2016-01-01T09:16:07.000Z</time>
      </trkpt>
      <trkpt lat="47.52273" lon="6.64334">
        <ele>382</ele>
        <time>2016-01-01T09:16:08.000Z</time>
      </trkpt>
      <trkpt lat="47.52276" lon="6.64333">
        <ele>379</ele>
        <time>2016-01-01T09:16:09.000Z</time>
      </trkpt>
      <trkpt lat="47.52279" lon="6.64331">
        <ele>378</ele>
        <time>2016-01-01T09:16:10.000Z</time>
      </trkpt>
      <trkpt lat="47.52282" lon="6.64329">
        <ele>378</ele>
        <time>2016-01-01T09:16:11.000Z</time>
      </trkpt>
      <trkpt lat="47.52285" lon="6.64327">
        <ele>378</ele>
        <time>2016-01-01T09:16:12.000Z</time>
      </trkpt>
      <trkpt lat="47.52288" lon="6.64324">
        <ele>378</ele>
        <time>2016-01-01T09:16:13.000Z</time>
      </trkpt>
      <trkpt lat="47.52291" lon="6.64322">
        <ele>378</ele>
        <time>2016-01-01T09:16:14.000Z</time>
      </trkpt>
      <trkpt lat="47.52293" lon="6.64319">
        <ele>378</ele>
        <time>2016-01-01T09:16:15.000Z</time>
      </trkpt>
      <trkpt lat="47.52296" lon="6.64316">
        <ele>378</ele>
        <time>2016-01-01T09:16:16.000Z</time>
      </trkpt>
      <trkpt lat="47.52299" lon="6.64312">
        <ele>378</ele>
        <time>2016-01-01T09:16:17.000Z</time>
      </trkpt>
      <trkpt lat="47.52301" lon="6.64307">
        <ele>378</ele>
        <time>2016-01-01T09:16:18.000Z</time>
      </trkpt>
      <trkpt lat="47.52303" lon="6.64301">
        <ele>378</ele>
        <time>2016-01-01T09:16:19.000Z</time>
      </trkpt>
      <trkpt lat="47.52304" lon="6.64295">
        <ele>378</ele>
        <time>2016-01-01T09:16:20.000Z</time>
      </trkpt>
      <trkpt lat="47.52305" lon="6.64289">
        <ele>377</ele>
        <time>2016-01-01T09:16:21.000Z</time>
      </trkpt>
      <trkpt lat="47.52307" lon="6.64282">
        <ele>377</ele>
        <time>2016-01-01T09:16:22.000Z</time>
      </trkpt>
      <trkpt lat="47.52307" lon="6.64272">
        <ele>377</ele>
        <time>2016-01-01T09:16:23.000Z</time>
      </trkpt>
      <trkpt lat="47.52308" lon="6.64264">
        <ele>377</ele>
        <time>2016-01-01T09:16:24.000Z</time>
      </trkpt>
      <trkpt lat="47.5231" lon="6.64257">
        <ele>377</ele>
        <time>2016-01-01T09:16:25.000Z</time>
      </trkpt>
      <trkpt lat="47.52311" lon="6.64249">
        <ele>378</ele>
        <time>2016-01-01T09:16:26.000Z</time>
      </trkpt>
      <trkpt lat="47.52313" lon="6.6424">
        <ele>378</ele>
        <time>2016-01-01T09:16:27.000Z</time>
      </trkpt>
      <trkpt lat="47.52315" lon="6.64235">
        <ele>378</ele>
        <time>2016-01-01T09:16:28.000Z</time>
      </trkpt>
      <trkpt lat="47.52319" lon="6.64231">
        <ele>378</ele>
        <time>2016-01-01T09:16:29.000Z</time>
      </trkpt>
      <trkpt lat="47.5232" lon="6.64223">
        <ele>379</ele>
        <time>2016-01-01T09:16:30.000Z</time>
      </trkpt>
      <trkpt lat="47.52322" lon="6.64216">
        <ele>380</ele>
        <time>2016-01-01T09:16:31.000Z</time>
      </trkpt>
      <trkpt lat="47.52323" lon="6.64208">
        <ele>380</ele>
        <time>2016-01-01T09:16:32.000Z</time>
      </trkpt>
      <trkpt lat="47.52324" lon="6.64201">
        <ele>381</ele>
        <time>2016-01-01T09:16:33.000Z</time>
      </trkpt>
      <trkpt lat="47.52326" lon="6.64195">
        <ele>382</ele>
        <time>2016-01-01T09:16:34.000Z</time>
      </trkpt>
      <trkpt lat="47.52328" lon="6.64188">
        <ele>382</ele>
        <time>2016-01-01T09:16:35.000Z</time>
      </trkpt>
      <trkpt lat="47.52329" lon="6.64183">
        <ele>383</ele>
        <time>2016-01-01T09:16:36.000Z</time>
      </trkpt>
      <trkpt lat="47.52331" lon="6.64176">
        <ele>384</ele>
        <time>2016-01-01T09:16:37.000Z</time>
      </trkpt>
      <trkpt lat="47.52332" lon="6.64171">
        <ele>386</ele>
        <time>2016-01-01T09:16:38.000Z</time>
      </trkpt>
      <trkpt lat="47.52334" lon="6.64166">
        <ele>387</ele>
        <time>2016-01-01T09:16:39.000Z</time>
      </trkpt>
      <trkpt lat="47.52334" lon="6.64162">
        <ele>388</ele>
        <time>2016-01-01T09:16:40.000Z</time>
      </trkpt>
      <trkpt lat="47.52336" lon="6.64158">
        <ele>389</ele>
        <time>2016-01-01T09:16:41.000Z</time>
      </trkpt>
      <trkpt lat="47.52338" lon="6.64152">
        <ele>390</ele>
        <time>2016-01-01T09:16:43.000Z</time>
      </trkpt>
      <trkpt lat="47.52338" lon="6.6415">
        <ele>390</ele>
        <time>2016-01-01T09:16:44.000Z</time>
      </trkpt>
      <trkpt lat="47.5234" lon="6.64144">
        <ele>391</ele>
        <time>2016-01-01T09:16:46.000Z</time>
      </trkpt>
      <trkpt lat="47.5234" lon="6.64142">
        <ele>391</ele>
        <time>2016-01-01T09:16:47.000Z</time>
      </trkpt>
      <trkpt lat="47.52342" lon="6.64136">
        <ele>392</ele>
        <time>2016-01-01T09:16:49.000Z</time>
      </trkpt>
      <trkpt lat="47.52341" lon="6.64134">
        <ele>392</ele>
        <time>2016-01-01T09:16:50.000Z</time>
      </trkpt>
      <trkpt lat="47.52341" lon="6.6413">
        <ele>392</ele>
        <time>2016-01-01T09:16:51.000Z</time>
      </trkpt>
      <trkpt lat="47.5234" lon="6.64127">
        <ele>393</ele>
        <time>2016-01-01T09:16:52.000Z</time>
      </trkpt>
      <trkpt lat="47.52339" lon="6.64123">
        <ele>393</ele>
        <time>2016-01-01T09:16:53.000Z</time>
      </trkpt>
      <trkpt lat="47.52338" lon="6.64119">
        <ele>394</ele>
        <time>2016-01-01T09:16:54.000Z</time>
      </trkpt>
      <trkpt lat="47.52337" lon="6.64116">
        <ele>394</ele>
        <time>2016-01-01T09:16:55.000Z</time>
      </trkpt>
      <trkpt lat="47.52336" lon="6.64112">
        <ele>394</ele>
        <time>2016-01-01T09:16:56.000Z</time>
      </trkpt>
      <trkpt lat="47.52336" lon="6.64107">
        <ele>395</ele>
        <time>2016-01-01T09:16:58.000Z</time>
      </trkpt>
      <trkpt lat="47.52337" lon="6.64104">
        <ele>396</ele>
        <time>2016-01-01T09:16:59.000Z</time>
      </trkpt>
      <trkpt lat="47.5234" lon="6.64098">
        <ele>396</ele>
        <time>2016-01-01T09:17:01.000Z</time>
      </trkpt>
      <trkpt lat="47.52341" lon="6.64096">
        <ele>396</ele>
        <time>2016-01-01T09:17:02.000Z</time>
      </trkpt>
      <trkpt lat="47.52342" lon="6.6409">
        <ele>397</ele>
        <time>2016-01-01T09:17:05.000Z</time>
      </trkpt>
      <trkpt lat="47.52343" lon="6.64089">
        <ele>397</ele>
        <time>2016-01-01T09:17:06.000Z</time>
      </trkpt>
      <trkpt lat="47.52345" lon="6.64085">
        <ele>397</ele>
        <time>2016-01-01T09:17:08.000Z</time>
      </trkpt>
      <trkpt lat="47.52346" lon="6.64082">
        <ele>400</ele>
        <time>2016-01-01T09:17:09.000Z</time>
      </trkpt>
      <trkpt lat="47.52349" lon="6.64077">
        <ele>401</ele>
        <time>2016-01-01T09:17:11.000Z</time>
      </trkpt>
      <trkpt lat="47.5235" lon="6.64075">
        <ele>401</ele>
        <time>2016-01-01T09:17:12.000Z</time>
      </trkpt>
      <trkpt lat="47.52352" lon="6.64071">
        <ele>401</ele>
        <time>2016-01-01T09:17:14.000Z</time>
      </trkpt>
      <trkpt lat="47.52353" lon="6.64069">
        <ele>401</ele>
        <time>2016-01-01T09:17:15.000Z</time>
      </trkpt>
      <trkpt lat="47.52354" lon="6.64063">
        <ele>402</ele>
        <time>2016-01-01T09:17:17.000Z</time>
      </trkpt>
      <trkpt lat="47.52354" lon="6.6406">
        <ele>402</ele>
        <time>2016-01-01T09:17:18.000Z</time>
      </trkpt>
      <trkpt lat="47.52355" lon="6.64055">
        <ele>402</ele>
        <time>2016-01-01T09:17:20.000Z</time>
      </trkpt>
      <trkpt lat="47.52356" lon="6.64052">
        <ele>402</ele>
        <time>2016-01-01T09:17:21.000Z</time>
      </trkpt>
      <trkpt lat="47.52357" lon="6.64047">
        <ele>402</ele>
        <time>2016-01-01T09:17:23.000Z</time>
      </trkpt>
      <trkpt lat="47.52357" lon="6.64045">
        <ele>402</ele>
        <time>2016-01-01T09:17:24.000Z</time>
      </trkpt>
      <trkpt lat="47.52358" lon="6.64039">
        <ele>402</ele>
        <time>2016-01-01T09:17:26.000Z</time>
      </trkpt>
      <trkpt lat="47.52359" lon="6.64035">
        <ele>403</ele>
        <time>2016-01-01T09:17:27.000Z</time>
      </trkpt>
      <trkpt lat="47.5236" lon="6.64032">
        <ele>403</ele>
        <time>2016-01-01T09:17:28.000Z</time>
      </trkpt>
      <trkpt lat="47.52361" lon="6.64029">
        <ele>403</ele>
        <time>2016-01-01T09:17:29.000Z</time>
      </trkpt>
      <trkpt lat="47.52361" lon="6.64025">
        <ele>403</ele>
        <time>2016-01-01T09:17:30.000Z</time>
      </trkpt>
      <trkpt lat="47.52361" lon="6.64022">
        <ele>403</ele>
        <time>2016-01-01T09:17:31.000Z</time>
      </trkpt>
      <trkpt lat="47.52362" lon="6.64018">
        <ele>403</ele>
        <time>2016-01-01T09:17:32.000Z</time>
      </trkpt>
      <trkpt lat="47.52362" lon="6.64015">
        <ele>403</ele>
        <time>2016-01-01T09:17:33.000Z</time>
      </trkpt>
      <trkpt lat="47.52363" lon="6.64011">
        <ele>403</ele>
        <time>2016-01-01T09:17:34.000Z</time>
      </trkpt>
      <trkpt lat="47.52364" lon="6.64008">
        <ele>403</ele>
        <time>2016-01-01T09:17:35.000Z</time>
      </trkpt>
      <trkpt lat="47.52364" lon="6.64004">
        <ele>403</ele>
        <time>2016-01-01T09:17:36.000Z</time>
      </trkpt>
      <trkpt lat="47.52365" lon="6.64001">
        <ele>403</ele>
        <time>2016-01-01T09:17:37.000Z</time>
      </trkpt>
      <trkpt lat="47.52365" lon="6.63998">
        <ele>404</ele>
        <time>2016-01-01T09:17:38.000Z</time>
      </trkpt>
      <trkpt lat="47.52366" lon="6.63994">
        <ele>404</ele>
        <time>2016-01-01T09:17:39.000Z</time>
      </trkpt>
      <trkpt lat="47.52366" lon="6.6399">
        <ele>404</ele>
        <time>2016-01-01T09:17:40.000Z</time>
      </trkpt>
      <trkpt lat="47.52366" lon="6.63986">
        <ele>404</ele>
        <time>2016-01-01T09:17:41.000Z</time>
      </trkpt>
      <trkpt lat="47.52366" lon="6.63982">
        <ele>404</ele>
        <time>2016-01-01T09:17:42.000Z</time>
      </trkpt>
      <trkpt lat="47.52366" lon="6.63979">
        <ele>405</ele>
        <time>2016-01-01T09:17:43.000Z</time>
      </trkpt>
      <trkpt lat="47.52367" lon="6.63973">
        <ele>405</ele>
        <time>2016-01-01T09:17:45.000Z</time>
      </trkpt>
      <trkpt lat="47.52367" lon="6.6397">
        <ele>405</ele>
        <time>2016-01-01T09:17:46.000Z</time>
      </trkpt>
      <trkpt lat="47.52368" lon="6.63967">
        <ele>405</ele>
        <time>2016-01-01T09:17:47.000Z</time>
      </trkpt>
      <trkpt lat="47.52369" lon="6.63963">
        <ele>405</ele>
        <time>2016-01-01T09:17:48.000Z</time>
      </trkpt>
      <trkpt lat="47.5237" lon="6.6396">
        <ele>405</ele>
        <time>2016-01-01T09:17:49.000Z</time>
      </trkpt>
      <trkpt lat="47.52371" lon="6.63956">
        <ele>405</ele>
        <time>2016-01-01T09:17:50.000Z</time>
      </trkpt>
      <trkpt lat="47.52371" lon="6.63953">
        <ele>405</ele>
        <time>2016-01-01T09:17:51.000Z</time>
      </trkpt>
      <trkpt lat="47.52372" lon="6.63949">
        <ele>405</ele>
        <time>2016-01-01T09:17:52.000Z</time>
      </trkpt>
      <trkpt lat="47.52372" lon="6.63946">
        <ele>405</ele>
        <time>2016-01-01T09:17:53.000Z</time>
      </trkpt>
      <trkpt lat="47.52372" lon="6.63942">
        <ele>405</ele>
        <time>2016-01-01T09:17:54.000Z</time>
      </trkpt>
      <trkpt lat="47.52372" lon="6.63937">
        <ele>405</ele>
        <time>2016-01-01T09:17:55.000Z</time>
      </trkpt>
      <trkpt lat="47.52372" lon="6.63932">
        <ele>405</ele>
        <time>2016-01-01T09:17:56.000Z</time>
      </trkpt>
      <trkpt lat="47.52372" lon="6.63927">
        <ele>405</ele>
        <time>2016-01-01T09:17:57.000Z</time>
      </trkpt>
      <trkpt lat="47.52372" lon="6.63923">
        <ele>405</ele>
        <time>2016-01-01T09:17:58.000Z</time>
      </trkpt>
      <trkpt lat="47.52372" lon="6.63918">
        <ele>405</ele>
        <time>2016-01-01T09:17:59.000Z</time>
      </trkpt>
      <trkpt lat="47.52372" lon="6.63914">
        <ele>403</ele>
        <time>2016-01-01T09:18:00.000Z</time>
      </trkpt>
      <trkpt lat="47.52371" lon="6.63911">
        <ele>403</ele>
        <time>2016-01-01T09:18:01.000Z</time>
      </trkpt>
      <trkpt lat="47.52371" lon="6.63908">
        <ele>403</ele>
        <time>2016-01-01T09:18:02.000Z</time>
      </trkpt>
      <trkpt lat="47.52371" lon="6.63903">
        <ele>403</ele>
        <time>2016-01-01T09:18:03.000Z</time>
      </trkpt>
      <trkpt lat="47.52372" lon="6.63899">
        <ele>403</ele>
        <time>2016-01-01T09:18:04.000Z</time>
      </trkpt>
      <trkpt lat="47.52372" lon="6.63894">
        <ele>403</ele>
        <time>2016-01-01T09:18:05.000Z</time>
      </trkpt>
      <trkpt lat="47.52373" lon="6.6389">
        <ele>403</ele>
        <time>2016-01-01T09:18:06.000Z</time>
      </trkpt>
      <trkpt lat="47.52373" lon="6.63886">
        <ele>403</ele>
        <time>2016-01-01T09:18:07.000Z</time>
      </trkpt>
      <trkpt lat="47.52374" lon="6.63882">
        <ele>403</ele>
        <time>2016-01-01T09:18:08.000Z</time>
      </trkpt>
      <trkpt lat="47.52374" lon="6.63879">
        <ele>403</ele>
        <time>2016-01-01T09:18:09.000Z</time>
      </trkpt>
      <trkpt lat="47.52375" lon="6.63875">
        <ele>403</ele>
        <time>2016-01-01T09:18:10.000Z</time>
      </trkpt>
      <trkpt lat="47.52375" lon="6.63871">
        <ele>403</ele>
        <time>2016-01-01T09:18:11.000Z</time>
      </trkpt>
      <trkpt lat="47.52376" lon="6.63867">
        <ele>403</ele>
        <time>2016-01-01T09:18:12.000Z</time>
      </trkpt>
      <trkpt lat="47.52376" lon="6.63862">
        <ele>403</ele>
        <time>2016-01-01T09:18:13.000Z</time>
      </trkpt>
      <trkpt lat="47.52377" lon="6.63857">
        <ele>403</ele>
        <time>2016-01-01T09:18:14.000Z</time>
      </trkpt>
      <trkpt lat="47.52377" lon="6.6385">
        <ele>403</ele>
        <time>2016-01-01T09:18:15.000Z</time>
      </trkpt>
      <trkpt lat="47.52377" lon="6.63844">
        <ele>403</ele>
        <time>2016-01-01T09:18:16.000Z</time>
      </trkpt>
      <trkpt lat="47.52378" lon="6.63837">
        <ele>403</ele>
        <time>2016-01-01T09:18:17.000Z</time>
      </trkpt>
      <trkpt lat="47.52379" lon="6.6383">
        <ele>401</ele>
        <time>2016-01-01T09:18:18.000Z</time>
      </trkpt>
      <trkpt lat="47.52381" lon="6.63823">
        <ele>401</ele>
        <time>2016-01-01T09:18:19.000Z</time>
      </trkpt>
      <trkpt lat="47.52382" lon="6.63816">
        <ele>401</ele>
        <time>2016-01-01T09:18:20.000Z</time>
      </trkpt>
      <trkpt lat="47.52384" lon="6.6381">
        <ele>401</ele>
        <time>2016-01-01T09:18:21.000Z</time>
      </trkpt>
      <trkpt lat="47.52385" lon="6.63804">
        <ele>401</ele>
        <time>2016-01-01T09:18:22.000Z</time>
      </trkpt>
      <trkpt lat="47.52386" lon="6.63799">
        <ele>401</ele>
        <time>2016-01-01T09:18:23.000Z</time>
      </trkpt>
      <trkpt lat="47.52386" lon="6.63793">
        <ele>401</ele>
        <time>2016-01-01T09:18:24.000Z</time>
      </trkpt>
      <trkpt lat="47.52386" lon="6.63788">
        <ele>401</ele>
        <time>2016-01-01T09:18:25.000Z</time>
      </trkpt>
      <trkpt lat="47.52386" lon="6.63783">
        <ele>401</ele>
        <time>2016-01-01T09:18:26.000Z</time>
      </trkpt>
      <trkpt lat="47.52386" lon="6.63778">
        <ele>401</ele>
        <time>2016-01-01T09:18:27.000Z</time>
      </trkpt>
      <trkpt lat="47.52387" lon="6.63773">
        <ele>401</ele>
        <time>2016-01-01T09:18:28.000Z</time>
      </trkpt>
      <trkpt lat="47.52387" lon="6.63769">
        <ele>401</ele>
        <time>2016-01-01T09:18:29.000Z</time>
      </trkpt>
      <trkpt lat="47.52388" lon="6.63765">
        <ele>401</ele>
        <time>2016-01-01T09:18:30.000Z</time>
      </trkpt>
      <trkpt lat="47.52388" lon="6.63761">
        <ele>401</ele>
        <time>2016-01-01T09:18:31.000Z</time>
      </trkpt>
      <trkpt lat="47.52389" lon="6.63757">
        <ele>401</ele>
        <time>2016-01-01T09:18:32.000Z</time>
      </trkpt>
      <trkpt lat="47.5239" lon="6.63753">
        <ele>401</ele>
        <time>2016-01-01T09:18:33.000Z</time>
      </trkpt>
      <trkpt lat="47.52391" lon="6.63749">
        <ele>400</ele>
        <time>2016-01-01T09:18:34.000Z</time>
      </trkpt>
      <trkpt lat="47.52392" lon="6.63744">
        <ele>400</ele>
        <time>2016-01-01T09:18:35.000Z</time>
      </trkpt>
      <trkpt lat="47.52393" lon="6.6374">
        <ele>401</ele>
        <time>2016-01-01T09:18:36.000Z</time>
      </trkpt>
      <trkpt lat="47.52394" lon="6.63735">
        <ele>401</ele>
        <time>2016-01-01T09:18:37.000Z</time>
      </trkpt>
      <trkpt lat="47.52395" lon="6.6373">
        <ele>401</ele>
        <time>2016-01-01T09:18:38.000Z</time>
      </trkpt>
      <trkpt lat="47.52396" lon="6.63726">
        <ele>401</ele>
        <time>2016-01-01T09:18:39.000Z</time>
      </trkpt>
      <trkpt lat="47.52398" lon="6.63721">
        <ele>401</ele>
        <time>2016-01-01T09:18:40.000Z</time>
      </trkpt>
      <trkpt lat="47.52399" lon="6.63717">
        <ele>401</ele>
        <time>2016-01-01T09:18:41.000Z</time>
      </trkpt>
      <trkpt lat="47.52402" lon="6.63713">
        <ele>401</ele>
        <time>2016-01-01T09:18:42.000Z</time>
      </trkpt>
      <trkpt lat="47.52404" lon="6.63709">
        <ele>401</ele>
        <time>2016-01-01T09:18:43.000Z</time>
      </trkpt>
      <trkpt lat="47.52407" lon="6.63706">
        <ele>401</ele>
        <time>2016-01-01T09:18:44.000Z</time>
      </trkpt>
      <trkpt lat="47.52409" lon="6.63703">
        <ele>401</ele>
        <time>2016-01-01T09:18:45.000Z</time>
      </trkpt>
      <trkpt lat="47.52411" lon="6.63699">
        <ele>401</ele>
        <time>2016-01-01T09:18:46.000Z</time>
      </trkpt>
      <trkpt lat="47.52413" lon="6.63696">
        <ele>402</ele>
        <time>2016-01-01T09:18:47.000Z</time>
      </trkpt>
      <trkpt lat="47.52416" lon="6.63693">
        <ele>402</ele>
        <time>2016-01-01T09:18:48.000Z</time>
      </trkpt>
      <trkpt lat="47.52418" lon="6.6369">
        <ele>404</ele>
        <time>2016-01-01T09:18:49.000Z</time>
      </trkpt>
      <trkpt lat="47.5242" lon="6.63688">
        <ele>404</ele>
        <time>2016-01-01T09:18:50.000Z</time>
      </trkpt>
      <trkpt lat="47.52422" lon="6.63686">
        <ele>404</ele>
        <time>2016-01-01T09:18:51.000Z</time>
      </trkpt>
      <trkpt lat="47.52424" lon="6.63682">
        <ele>404</ele>
        <time>2016-01-01T09:18:52.000Z</time>
      </trkpt>
      <trkpt lat="47.52425" lon="6.63679">
        <ele>404</ele>
        <time>2016-01-01T09:18:53.000Z</time>
      </trkpt>
      <trkpt lat="47.52427" lon="6.63676">
        <ele>404</ele>
        <time>2016-01-01T09:18:54.000Z</time>
      </trkpt>
      <trkpt lat="47.52428" lon="6.63672">
        <ele>404</ele>
        <time>2016-01-01T09:18:55.000Z</time>
      </trkpt>
      <trkpt lat="47.52428" lon="6.63669">
        <ele>404</ele>
        <time>2016-01-01T09:18:56.000Z</time>
      </trkpt>
      <trkpt lat="47.5243" lon="6.63664">
        <ele>405</ele>
        <time>2016-01-01T09:18:58.000Z</time>
      </trkpt>
      <trkpt lat="47.52431" lon="6.63661">
        <ele>405</ele>
        <time>2016-01-01T09:18:59.000Z</time>
      </trkpt>
      <trkpt lat="47.52433" lon="6.63658">
        <ele>405</ele>
        <time>2016-01-01T09:19:00.000Z</time>
      </trkpt>
      <trkpt lat="47.52434" lon="6.63655">
        <ele>405</ele>
        <time>2016-01-01T09:19:01.000Z</time>
      </trkpt>
      <trkpt lat="47.52435" lon="6.63652">
        <ele>405</ele>
        <time>2016-01-01T09:19:02.000Z</time>
      </trkpt>
      <trkpt lat="47.52436" lon="6.63648">
        <ele>405</ele>
        <time>2016-01-01T09:19:03.000Z</time>
      </trkpt>
      <trkpt lat="47.52437" lon="6.63644">
        <ele>405</ele>
        <time>2016-01-01T09:19:04.000Z</time>
      </trkpt>
      <trkpt lat="47.52438" lon="6.6364">
        <ele>405</ele>
        <time>2016-01-01T09:19:05.000Z</time>
      </trkpt>
      <trkpt lat="47.52439" lon="6.63636">
        <ele>405</ele>
        <time>2016-01-01T09:19:06.000Z</time>
      </trkpt>
      <trkpt lat="47.5244" lon="6.63632">
        <ele>405</ele>
        <time>2016-01-01T09:19:07.000Z</time>
      </trkpt>
      <trkpt lat="47.52442" lon="6.63628">
        <ele>405</ele>
        <time>2016-01-01T09:19:08.000Z</time>
      </trkpt>
      <trkpt lat="47.52443" lon="6.63624">
        <ele>405</ele>
        <time>2016-01-01T09:19:09.000Z</time>
      </trkpt>
      <trkpt lat="47.52444" lon="6.63621">
        <ele>405</ele>
        <time>2016-01-01T09:19:10.000Z</time>
      </trkpt>
      <trkpt lat="47.52445" lon="6.63617">
        <ele>405</ele>
        <time>2016-01-01T09:19:11.000Z</time>
      </trkpt>
      <trkpt lat="47.52446" lon="6.63613">
        <ele>405</ele>
        <time>2016-01-01T09:19:12.000Z</time>
      </trkpt>
      <trkpt lat="47.52447" lon="6.6361">
        <ele>405</ele>
        <time>2016-01-01T09:19:13.000Z</time>
      </trkpt>
      <trkpt lat="47.52448" lon="6.63606">
        <ele>405</ele>
        <time>2016-01-01T09:19:14.000Z</time>
      </trkpt>
      <trkpt lat="47.52449" lon="6.63602">
        <ele>406</ele>
        <time>2016-01-01T09:19:15.000Z</time>
      </trkpt>
      <trkpt lat="47.52449" lon="6.63598">
        <ele>406</ele>
        <time>2016-01-01T09:19:16.000Z</time>
      </trkpt>
      <trkpt lat="47.5245" lon="6.63594">
        <ele>406</ele>
        <time>2016-01-01T09:19:17.000Z</time>
      </trkpt>
      <trkpt lat="47.5245" lon="6.6359">
        <ele>406</ele>
        <time>2016-01-01T09:19:18.000Z</time>
      </trkpt>
      <trkpt lat="47.52451" lon="6.63585">
        <ele>406</ele>
        <time>2016-01-01T09:19:19.000Z</time>
      </trkpt>
      <trkpt lat="47.52451" lon="6.63581">
        <ele>408</ele>
        <time>2016-01-01T09:19:20.000Z</time>
      </trkpt>
      <trkpt lat="47.52451" lon="6.63577">
        <ele>409</ele>
        <time>2016-01-01T09:19:21.000Z</time>
      </trkpt>
      <trkpt lat="47.52451" lon="6.63572">
        <ele>409</ele>
        <time>2016-01-01T09:19:22.000Z</time>
      </trkpt>
      <trkpt lat="47.52452" lon="6.63568">
        <ele>409</ele>
        <time>2016-01-01T09:19:23.000Z</time>
      </trkpt>
      <trkpt lat="47.52452" lon="6.63564">
        <ele>409</ele>
        <time>2016-01-01T09:19:24.000Z</time>
      </trkpt>
      <trkpt lat="47.52452" lon="6.6356">
        <ele>409</ele>
        <time>2016-01-01T09:19:25.000Z</time>
      </trkpt>
      <trkpt lat="47.52452" lon="6.63556">
        <ele>409</ele>
        <time>2016-01-01T09:19:26.000Z</time>
      </trkpt>
      <trkpt lat="47.52453" lon="6.63552">
        <ele>409</ele>
        <time>2016-01-01T09:19:27.000Z</time>
      </trkpt>
      <trkpt lat="47.52453" lon="6.63548">
        <ele>409</ele>
        <time>2016-01-01T09:19:28.000Z</time>
      </trkpt>
      <trkpt lat="47.52454" lon="6.63545">
        <ele>409</ele>
        <time>2016-01-01T09:19:29.001Z</time>
      </trkpt>
      <trkpt lat="47.52454" lon="6.63542">
        <ele>409</ele>
        <time>2016-01-01T09:19:30.000Z</time>
      </trkpt>
      <trkpt lat="47.52455" lon="6.63538">
        <ele>409</ele>
        <time>2016-01-01T09:19:31.000Z</time>
      </trkpt>
      <trkpt lat="47.52456" lon="6.63535">
        <ele>409</ele>
        <time>2016-01-01T09:19:32.000Z</time>
      </trkpt>
      <trkpt lat="47.52456" lon="6.63532">
        <ele>410</ele>
        <time>2016-01-01T09:19:33.000Z</time>
      </trkpt>
      <trkpt lat="47.52457" lon="6.63528">
        <ele>410</ele>
        <time>2016-01-01T09:19:34.000Z</time>
      </trkpt>
      <trkpt lat="47.52458" lon="6.63525">
        <ele>410</ele>
        <time>2016-01-01T09:19:35.000Z</time>
      </trkpt>
      <trkpt lat="47.52459" lon="6.63522">
        <ele>410</ele>
        <time>2016-01-01T09:19:36.000Z</time>
      </trkpt>
      <trkpt lat="47.5246" lon="6.63519">
        <ele>410</ele>
        <time>2016-01-01T09:19:37.000Z</time>
      </trkpt>
      <trkpt lat="47.52461" lon="6.63515">
        <ele>410</ele>
        <time>2016-01-01T09:19:38.000Z</time>
      </trkpt>
      <trkpt lat="47.52462" lon="6.63512">
        <ele>410</ele>
        <time>2016-01-01T09:19:39.000Z</time>
      </trkpt>
      <trkpt lat="47.52463" lon="6.63506">
        <ele>410</ele>
        <time>2016-01-01T09:19:41.000Z</time>
      </trkpt>
      <trkpt lat="47.52463" lon="6.63503">
        <ele>410</ele>
        <time>2016-01-01T09:19:42.000Z</time>
      </trkpt>
      <trkpt lat="47.52464" lon="6.63499">
        <ele>412</ele>
        <time>2016-01-01T09:19:43.000Z</time>
      </trkpt>
      <trkpt lat="47.52464" lon="6.63496">
        <ele>413</ele>
        <time>2016-01-01T09:19:44.000Z</time>
      </trkpt>
      <trkpt lat="47.52465" lon="6.63492">
        <ele>413</ele>
        <time>2016-01-01T09:19:45.000Z</time>
      </trkpt>
      <trkpt lat="47.52465" lon="6.63489">
        <ele>413</ele>
        <time>2016-01-01T09:19:46.000Z</time>
      </trkpt>
      <trkpt lat="47.52466" lon="6.63485">
        <ele>413</ele>
        <time>2016-01-01T09:19:47.000Z</time>
      </trkpt>
      <trkpt lat="47.52466" lon="6.63482">
        <ele>413</ele>
        <time>2016-01-01T09:19:48.000Z</time>
      </trkpt>
      <trkpt lat="47.52467" lon="6.63475">
        <ele>413</ele>
        <time>2016-01-01T09:19:50.000Z</time>
      </trkpt>
      <trkpt lat="47.52467" lon="6.63473">
        <ele>413</ele>
        <time>2016-01-01T09:19:51.000Z</time>
      </trkpt>
      <trkpt lat="47.52468" lon="6.63466">
        <ele>413</ele>
        <time>2016-01-01T09:19:53.000Z</time>
      </trkpt>
      <trkpt lat="47.52467" lon="6.63463">
        <ele>413</ele>
        <time>2016-01-01T09:19:54.000Z</time>
      </trkpt>
      <trkpt lat="47.52467" lon="6.63459">
        <ele>413</ele>
        <time>2016-01-01T09:19:55.000Z</time>
      </trkpt>
      <trkpt lat="47.52467" lon="6.63455">
        <ele>413</ele>
        <time>2016-01-01T09:19:56.001Z</time>
      </trkpt>
      <trkpt lat="47.52467" lon="6.63452">
        <ele>413</ele>
        <time>2016-01-01T09:19:57.000Z</time>
      </trkpt>
      <trkpt lat="47.52467" lon="6.63448">
        <ele>413</ele>
        <time>2016-01-01T09:19:58.000Z</time>
      </trkpt>
      <trkpt lat="47.52466" lon="6.63444">
        <ele>413</ele>
        <time>2016-01-01T09:19:59.000Z</time>
      </trkpt>
      <trkpt lat="47.52466" lon="6.63441">
        <ele>413</ele>
        <time>2016-01-01T09:20:00.001Z</time>
      </trkpt>
      <trkpt lat="47.52465" lon="6.63434">
        <ele>414</ele>
        <time>2016-01-01T09:20:02.000Z</time>
      </trkpt>
      <trkpt lat="47.52465" lon="6.63431">
        <ele>414</ele>
        <time>2016-01-01T09:20:03.001Z</time>
      </trkpt>
      <trkpt lat="47.52465" lon="6.63425">
        <ele>414</ele>
        <time>2016-01-01T09:20:05.000Z</time>
      </trkpt>
      <trkpt lat="47.52465" lon="6.63421">
        <ele>414</ele>
        <time>2016-01-01T09:20:06.000Z</time>
      </trkpt>
      <trkpt lat="47.52465" lon="6.63418">
        <ele>414</ele>
        <time>2016-01-01T09:20:06.999Z</time>
      </trkpt>
      <trkpt lat="47.52465" lon="6.63414">
        <ele>415</ele>
        <time>2016-01-01T09:20:08.001Z</time>
      </trkpt>
      <trkpt lat="47.52465" lon="6.63409">
        <ele>415</ele>
        <time>2016-01-01T09:20:09.000Z</time>
      </trkpt>
      <trkpt lat="47.52465" lon="6.63406">
        <ele>416</ele>
        <time>2016-01-01T09:20:10.000Z</time>
      </trkpt>
      <trkpt lat="47.52465" lon="6.634">
        <ele>416</ele>
        <time>2016-01-01T09:20:12.000Z</time>
      </trkpt>
      <trkpt lat="47.52465" lon="6.63397">
        <ele>416</ele>
        <time>2016-01-01T09:20:13.000Z</time>
      </trkpt>
      <trkpt lat="47.52465" lon="6.63393">
        <ele>416</ele>
        <time>2016-01-01T09:20:14.000Z</time>
      </trkpt>
      <trkpt lat="47.52466" lon="6.63389">
        <ele>416</ele>
        <time>2016-01-01T09:20:15.000Z</time>
      </trkpt>
      <trkpt lat="47.52467" lon="6.63385">
        <ele>416</ele>
        <time>2016-01-01T09:20:16.000Z</time>
      </trkpt>
      <trkpt lat="47.52468" lon="6.63382">
        <ele>416</ele>
        <time>2016-01-01T09:20:17.000Z</time>
      </trkpt>
      <trkpt lat="47.52469" lon="6.63379">
        <ele>416</ele>
        <time>2016-01-01T09:20:18.000Z</time>
      </trkpt>
      <trkpt lat="47.52471" lon="6.63375">
        <ele>416</ele>
        <time>2016-01-01T09:20:19.000Z</time>
      </trkpt>
      <trkpt lat="47.52472" lon="6.63372">
        <ele>416</ele>
        <time>2016-01-01T09:20:20.000Z</time>
      </trkpt>
      <trkpt lat="47.52473" lon="6.63368">
        <ele>416</ele>
        <time>2016-01-01T09:20:21.000Z</time>
      </trkpt>
      <trkpt lat="47.52474" lon="6.63364">
        <ele>416</ele>
        <time>2016-01-01T09:20:22.000Z</time>
      </trkpt>
      <trkpt lat="47.52475" lon="6.6336">
        <ele>416</ele>
        <time>2016-01-01T09:20:23.000Z</time>
      </trkpt>
      <trkpt lat="47.52476" lon="6.63356">
        <ele>417</ele>
        <time>2016-01-01T09:20:24.000Z</time>
      </trkpt>
      <trkpt lat="47.52477" lon="6.63352">
        <ele>417</ele>
        <time>2016-01-01T09:20:25.000Z</time>
      </trkpt>
      <trkpt lat="47.52477" lon="6.63349">
        <ele>417</ele>
        <time>2016-01-01T09:20:26.000Z</time>
      </trkpt>
      <trkpt lat="47.52478" lon="6.63344">
        <ele>417</ele>
        <time>2016-01-01T09:20:27.000Z</time>
      </trkpt>
      <trkpt lat="47.52479" lon="6.63341">
        <ele>417</ele>
        <time>2016-01-01T09:20:28.000Z</time>
      </trkpt>
      <trkpt lat="47.5248" lon="6.63337">
        <ele>417</ele>
        <time>2016-01-01T09:20:29.000Z</time>
      </trkpt>
      <trkpt lat="47.52481" lon="6.63333">
        <ele>419</ele>
        <time>2016-01-01T09:20:30.000Z</time>
      </trkpt>
      <trkpt lat="47.52482" lon="6.6333">
        <ele>419</ele>
        <time>2016-01-01T09:20:31.000Z</time>
      </trkpt>
      <trkpt lat="47.52483" lon="6.63326">
        <ele>419</ele>
        <time>2016-01-01T09:20:32.000Z</time>
      </trkpt>
      <trkpt lat="47.52484" lon="6.63323">
        <ele>419</ele>
        <time>2016-01-01T09:20:33.000Z</time>
      </trkpt>
      <trkpt lat="47.52485" lon="6.63319">
        <ele>419</ele>
        <time>2016-01-01T09:20:34.000Z</time>
      </trkpt>
      <trkpt lat="47.52486" lon="6.63316">
        <ele>419</ele>
        <time>2016-01-01T09:20:35.000Z</time>
      </trkpt>
      <trkpt lat="47.52488" lon="6.63311">
        <ele>419</ele>
        <time>2016-01-01T09:20:37.000Z</time>
      </trkpt>
      <trkpt lat="47.52489" lon="6.63308">
        <ele>419</ele>
        <time>2016-01-01T09:20:38.000Z</time>
      </trkpt>
      <trkpt lat="47.5249" lon="6.63305">
        <ele>419</ele>
        <time>2016-01-01T09:20:39.000Z</time>
      </trkpt>
      <trkpt lat="47.52491" lon="6.63301">
        <ele>419</ele>
        <time>2016-01-01T09:20:40.000Z</time>
      </trkpt>
      <trkpt lat="47.52492" lon="6.63298">
        <ele>419</ele>
        <time>2016-01-01T09:20:41.000Z</time>
      </trkpt>
      <trkpt lat="47.52492" lon="6.63295">
        <ele>419</ele>
        <time>2016-01-01T09:20:42.000Z</time>
      </trkpt>
      <trkpt lat="47.52493" lon="6.63291">
        <ele>419</ele>
        <time>2016-01-01T09:20:43.000Z</time>
      </trkpt>
      <trkpt lat="47.52494" lon="6.63287">
        <ele>420</ele>
        <time>2016-01-01T09:20:44.000Z</time>
      </trkpt>
      <trkpt lat="47.52496" lon="6.63283">
        <ele>420</ele>
        <time>2016-01-01T09:20:45.000Z</time>
      </trkpt>
      <trkpt lat="47.52497" lon="6.63279">
        <ele>420</ele>
        <time>2016-01-01T09:20:46.000Z</time>
      </trkpt>
      <trkpt lat="47.52498" lon="6.63275">
        <ele>420</ele>
        <time>2016-01-01T09:20:47.000Z</time>
      </trkpt>
      <trkpt lat="47.52498" lon="6.63272">
        <ele>420</ele>
        <time>2016-01-01T09:20:48.000Z</time>
      </trkpt>
      <trkpt lat="47.525" lon="6.63266">
        <ele>421</ele>
        <time>2016-01-01T09:20:50.000Z</time>
      </trkpt>
      <trkpt lat="47.52501" lon="6.63263">
        <ele>421</ele>
        <time>2016-01-01T09:20:51.000Z</time>
      </trkpt>
      <trkpt lat="47.52502" lon="6.6326">
        <ele>421</ele>
        <time>2016-01-01T09:20:52.000Z</time>
      </trkpt>
      <trkpt lat="47.52503" lon="6.63256">
        <ele>421</ele>
        <time>2016-01-01T09:20:53.000Z</time>
      </trkpt>
      <trkpt lat="47.52505" lon="6.63251">
        <ele>421</ele>
        <time>2016-01-01T09:20:54.000Z</time>
      </trkpt>
      <trkpt lat="47.52507" lon="6.63246">
        <ele>421</ele>
        <time>2016-01-01T09:20:55.000Z</time>
      </trkpt>
      <trkpt lat="47.52508" lon="6.63241">
        <ele>421</ele>
        <time>2016-01-01T09:20:56.000Z</time>
      </trkpt>
      <trkpt lat="47.5251" lon="6.63236">
        <ele>421</ele>
        <time>2016-01-01T09:20:57.000Z</time>
      </trkpt>
      <trkpt lat="47.52511" lon="6.63231">
        <ele>421</ele>
        <time>2016-01-01T09:20:58.000Z</time>
      </trkpt>
      <trkpt lat="47.52513" lon="6.63226">
        <ele>421</ele>
        <time>2016-01-01T09:20:59.000Z</time>
      </trkpt>
      <trkpt lat="47.52514" lon="6.63221">
        <ele>421</ele>
        <time>2016-01-01T09:21:00.000Z</time>
      </trkpt>
      <trkpt lat="47.52516" lon="6.63216">
        <ele>421</ele>
        <time>2016-01-01T09:21:01.000Z</time>
      </trkpt>
      <trkpt lat="47.52517" lon="6.63212">
        <ele>421</ele>
        <time>2016-01-01T09:21:02.000Z</time>
      </trkpt>
      <trkpt lat="47.52518" lon="6.63206">
        <ele>421</ele>
        <time>2016-01-01T09:21:03.000Z</time>
      </trkpt>
      <trkpt lat="47.52519" lon="6.632">
        <ele>421</ele>
        <time>2016-01-01T09:21:04.000Z</time>
      </trkpt>
      <trkpt lat="47.52521" lon="6.63194">
        <ele>421</ele>
        <time>2016-01-01T09:21:05.000Z</time>
      </trkpt>
      <trkpt lat="47.52524" lon="6.63185">
        <ele>421</ele>
        <time>2016-01-01T09:21:06.000Z</time>
      </trkpt>
      <trkpt lat="47.52526" lon="6.63178">
        <ele>421</ele>
        <time>2016-01-01T09:21:07.000Z</time>
      </trkpt>
      <trkpt lat="47.52528" lon="6.63172">
        <ele>421</ele>
        <time>2016-01-01T09:21:08.000Z</time>
      </trkpt>
      <trkpt lat="47.52529" lon="6.63166">
        <ele>422</ele>
        <time>2016-01-01T09:21:09.000Z</time>
      </trkpt>
      <trkpt lat="47.52531" lon="6.63161">
        <ele>422</ele>
        <time>2016-01-01T09:21:10.000Z</time>
      </trkpt>
      <trkpt lat="47.52532" lon="6.63155">
        <ele>422</ele>
        <time>2016-01-01T09:21:11.000Z</time>
      </trkpt>
      <trkpt lat="47.52535" lon="6.63148">
        <ele>422</ele>
        <time>2016-01-01T09:21:12.000Z</time>
      </trkpt>
      <trkpt lat="47.52537" lon="6.63141">
        <ele>422</ele>
        <time>2016-01-01T09:21:13.000Z</time>
      </trkpt>
      <trkpt lat="47.52538" lon="6.63134">
        <ele>422</ele>
        <time>2016-01-01T09:21:14.000Z</time>
      </trkpt>
      <trkpt lat="47.52541" lon="6.63128">
        <ele>422</ele>
        <time>2016-01-01T09:21:15.000Z</time>
      </trkpt>
      <trkpt lat="47.52543" lon="6.63121">
        <ele>422</ele>
        <time>2016-01-01T09:21:16.000Z</time>
      </trkpt>
      <trkpt lat="47.52544" lon="6.63115">
        <ele>422</ele>
        <time>2016-01-01T09:21:17.000Z</time>
      </trkpt>
      <trkpt lat="47.52546" lon="6.63109">
        <ele>422</ele>
        <time>2016-01-01T09:21:18.000Z</time>
      </trkpt>
      <trkpt lat="47.52547" lon="6.63103">
        <ele>422</ele>
        <time>2016-01-01T09:21:19.000Z</time>
      </trkpt>
      <trkpt lat="47.52548" lon="6.63097">
        <ele>422</ele>
        <time>2016-01-01T09:21:20.000Z</time>
      </trkpt>
      <trkpt lat="47.52549" lon="6.63091">
        <ele>422</ele>
        <time>2016-01-01T09:21:21.000Z</time>
      </trkpt>
      <trkpt lat="47.5255" lon="6.63084">
        <ele>422</ele>
        <time>2016-01-01T09:21:22.000Z</time>
      </trkpt>
      <trkpt lat="47.5255" lon="6.63077">
        <ele>425</ele>
        <time>2016-01-01T09:21:23.000Z</time>
      </trkpt>
      <trkpt lat="47.52551" lon="6.63072">
        <ele>425</ele>
        <time>2016-01-01T09:21:24.000Z</time>
      </trkpt>
      <trkpt lat="47.52552" lon="6.63068">
        <ele>425</ele>
        <time>2016-01-01T09:21:25.000Z</time>
      </trkpt>
      <trkpt lat="47.52552" lon="6.63063">
        <ele>425</ele>
        <time>2016-01-01T09:21:26.000Z</time>
      </trkpt>
      <trkpt lat="47.52553" lon="6.63059">
        <ele>425</ele>
        <time>2016-01-01T09:21:27.000Z</time>
      </trkpt>
      <trkpt lat="47.52554" lon="6.63054">
        <ele>425</ele>
        <time>2016-01-01T09:21:28.000Z</time>
      </trkpt>
      <trkpt lat="47.52555" lon="6.63049">
        <ele>425</ele>
        <time>2016-01-01T09:21:29.000Z</time>
      </trkpt>
      <trkpt lat="47.52556" lon="6.63045">
        <ele>426</ele>
        <time>2016-01-01T09:21:30.000Z</time>
      </trkpt>
      <trkpt lat="47.52557" lon="6.6304">
        <ele>426</ele>
        <time>2016-01-01T09:21:31.000Z</time>
      </trkpt>
      <trkpt lat="47.52557" lon="6.63036">
        <ele>426</ele>
        <time>2016-01-01T09:21:32.000Z</time>
      </trkpt>
      <trkpt lat="47.52557" lon="6.63032">
        <ele>426</ele>
        <time>2016-01-01T09:21:33.000Z</time>
      </trkpt>
      <trkpt lat="47.52557" lon="6.63028">
        <ele>426</ele>
        <time>2016-01-01T09:21:34.000Z</time>
      </trkpt>
      <trkpt lat="47.52557" lon="6.63024">
        <ele>426</ele>
        <time>2016-01-01T09:21:35.000Z</time>
      </trkpt>
      <trkpt lat="47.52557" lon="6.63021">
        <ele>426</ele>
        <time>2016-01-01T09:21:36.000Z</time>
      </trkpt>
      <trkpt lat="47.52558" lon="6.63017">
        <ele>426</ele>
        <time>2016-01-01T09:21:37.000Z</time>
      </trkpt>
      <trkpt lat="47.52558" lon="6.63014">
        <ele>426</ele>
        <time>2016-01-01T09:21:38.000Z</time>
      </trkpt>
      <trkpt lat="47.52558" lon="6.6301">
        <ele>427</ele>
        <time>2016-01-01T09:21:39.000Z</time>
      </trkpt>
      <trkpt lat="47.52558" lon="6.63006">
        <ele>427</ele>
        <time>2016-01-01T09:21:40.000Z</time>
      </trkpt>
      <trkpt lat="47.52559" lon="6.63003">
        <ele>427</ele>
        <time>2016-01-01T09:21:41.000Z</time>
      </trkpt>
      <trkpt lat="47.52559" lon="6.62999">
        <ele>429</ele>
        <time>2016-01-01T09:21:42.000Z</time>
      </trkpt>
      <trkpt lat="47.5256" lon="6.62995">
        <ele>430</ele>
        <time>2016-01-01T09:21:43.000Z</time>
      </trkpt>
      <trkpt lat="47.5256" lon="6.62991">
        <ele>430</ele>
        <time>2016-01-01T09:21:44.000Z</time>
      </trkpt>
      <trkpt lat="47.5256" lon="6.62988">
        <ele>430</ele>
        <time>2016-01-01T09:21:45.000Z</time>
      </trkpt>
      <trkpt lat="47.52561" lon="6.62984">
        <ele>430</ele>
        <time>2016-01-01T09:21:46.000Z</time>
      </trkpt>
      <trkpt lat="47.52562" lon="6.6298">
        <ele>430</ele>
        <time>2016-01-01T09:21:47.000Z</time>
      </trkpt>
      <trkpt lat="47.52563" lon="6.62977">
        <ele>430</ele>
        <time>2016-01-01T09:21:48.000Z</time>
      </trkpt>
      <trkpt lat="47.52564" lon="6.62973">
        <ele>430</ele>
        <time>2016-01-01T09:21:49.000Z</time>
      </trkpt>
      <trkpt lat="47.52564" lon="6.62969">
        <ele>430</ele>
        <time>2016-01-01T09:21:50.000Z</time>
      </trkpt>
      <trkpt lat="47.52565" lon="6.62965">
        <ele>431</ele>
        <time>2016-01-01T09:21:51.000Z</time>
      </trkpt>
      <trkpt lat="47.52566" lon="6.62961">
        <ele>431</ele>
        <time>2016-01-01T09:21:52.000Z</time>
      </trkpt>
      <trkpt lat="47.52567" lon="6.62957">
        <ele>431</ele>
        <time>2016-01-01T09:21:53.000Z</time>
      </trkpt>
      <trkpt lat="47.52568" lon="6.62954">
        <ele>431</ele>
        <time>2016-01-01T09:21:54.000Z</time>
      </trkpt>
      <trkpt lat="47.5257" lon="6.6295">
        <ele>431</ele>
        <time>2016-01-01T09:21:55.000Z</time>
      </trkpt>
      <trkpt lat="47.5257" lon="6.62947">
        <ele>431</ele>
        <time>2016-01-01T09:21:56.000Z</time>
      </trkpt>
      <trkpt lat="47.52571" lon="6.62943">
        <ele>432</ele>
        <time>2016-01-01T09:21:57.000Z</time>
      </trkpt>
      <trkpt lat="47.52572" lon="6.6294">
        <ele>432</ele>
        <time>2016-01-01T09:21:58.000Z</time>
      </trkpt>
      <trkpt lat="47.52573" lon="6.62937">
        <ele>432</ele>
        <time>2016-01-01T09:21:59.000Z</time>
      </trkpt>
      <trkpt lat="47.52575" lon="6.62931">
        <ele>432</ele>
        <time>2016-01-01T09:22:01.000Z</time>
      </trkpt>
      <trkpt lat="47.52576" lon="6.62929">
        <ele>433</ele>
        <time>2016-01-01T09:22:02.000Z</time>
      </trkpt>
      <trkpt lat="47.52577" lon="6.62927">
        <ele>433</ele>
        <time>2016-01-01T09:22:03.000Z</time>
      </trkpt>
      <trkpt lat="47.52579" lon="6.62924">
        <ele>433</ele>
        <time>2016-01-01T09:22:04.000Z</time>
      </trkpt>
      <trkpt lat="47.52581" lon="6.62922">
        <ele>433</ele>
        <time>2016-01-01T09:22:05.000Z</time>
      </trkpt>
      <trkpt lat="47.52583" lon="6.62919">
        <ele>434</ele>
        <time>2016-01-01T09:22:06.000Z</time>
      </trkpt>
      <trkpt lat="47.52585" lon="6.62916">
        <ele>434</ele>
        <time>2016-01-01T09:22:07.000Z</time>
      </trkpt>
      <trkpt lat="47.52587" lon="6.62913">
        <ele>434</ele>
        <time>2016-01-01T09:22:08.000Z</time>
      </trkpt>
      <trkpt lat="47.52589" lon="6.62911">
        <ele>435</ele>
        <time>2016-01-01T09:22:09.000Z</time>
      </trkpt>
      <trkpt lat="47.52591" lon="6.62909">
        <ele>435</ele>
        <time>2016-01-01T09:22:10.000Z</time>
      </trkpt>
      <trkpt lat="47.52593" lon="6.62907">
        <ele>435</ele>
        <time>2016-01-01T09:22:11.000Z</time>
      </trkpt>
      <trkpt lat="47.52595" lon="6.62904">
        <ele>435</ele>
        <time>2016-01-01T09:22:12.000Z</time>
      </trkpt>
      <trkpt lat="47.52597" lon="6.62902">
        <ele>435</ele>
        <time>2016-01-01T09:22:13.000Z</time>
      </trkpt>
      <trkpt lat="47.52599" lon="6.62899">
        <ele>435</ele>
        <time>2016-01-01T09:22:14.000Z</time>
      </trkpt>
      <trkpt lat="47.52601" lon="6.62896">
        <ele>435</ele>
        <time>2016-01-01T09:22:15.000Z</time>
      </trkpt>
      <trkpt lat="47.52602" lon="6.62893">
        <ele>435</ele>
        <time>2016-01-01T09:22:16.000Z</time>
      </trkpt>
      <trkpt lat="47.52604" lon="6.6289">
        <ele>436</ele>
        <time>2016-01-01T09:22:17.000Z</time>
      </trkpt>
      <trkpt lat="47.52605" lon="6.62887">
        <ele>436</ele>
        <time>2016-01-01T09:22:18.000Z</time>
      </trkpt>
      <trkpt lat="47.52607" lon="6.62884">
        <ele>436</ele>
        <time>2016-01-01T09:22:19.000Z</time>
      </trkpt>
      <trkpt lat="47.52609" lon="6.62882">
        <ele>436</ele>
        <time>2016-01-01T09:22:20.000Z</time>
      </trkpt>
      <trkpt lat="47.52611" lon="6.62879">
        <ele>436</ele>
        <time>2016-01-01T09:22:21.000Z</time>
      </trkpt>
      <trkpt lat="47.52613" lon="6.62877">
        <ele>436</ele>
        <time>2016-01-01T09:22:22.000Z</time>
      </trkpt>
      <trkpt lat="47.52615" lon="6.62874">
        <ele>436</ele>
        <time>2016-01-01T09:22:23.000Z</time>
      </trkpt>
      <trkpt lat="47.52617" lon="6.62871">
        <ele>436</ele>
        <time>2016-01-01T09:22:24.000Z</time>
      </trkpt>
      <trkpt lat="47.52619" lon="6.62868">
        <ele>436</ele>
        <time>2016-01-01T09:22:25.000Z</time>
      </trkpt>
      <trkpt lat="47.52621" lon="6.62865">
        <ele>436</ele>
        <time>2016-01-01T09:22:26.000Z</time>
      </trkpt>
      <trkpt lat="47.52623" lon="6.62862">
        <ele>436</ele>
        <time>2016-01-01T09:22:27.000Z</time>
      </trkpt>
      <trkpt lat="47.52625" lon="6.62858">
        <ele>436</ele>
        <time>2016-01-01T09:22:28.000Z</time>
      </trkpt>
      <trkpt lat="47.52627" lon="6.62856">
        <ele>436</ele>
        <time>2016-01-01T09:22:29.000Z</time>
      </trkpt>
      <trkpt lat="47.52629" lon="6.62853">
        <ele>436</ele>
        <time>2016-01-01T09:22:30.000Z</time>
      </trkpt>
      <trkpt lat="47.52632" lon="6.62851">
        <ele>436</ele>
        <time>2016-01-01T09:22:31.000Z</time>
      </trkpt>
      <trkpt lat="47.52634" lon="6.62849">
        <ele>437</ele>
        <time>2016-01-01T09:22:32.000Z</time>
      </trkpt>
      <trkpt lat="47.52637" lon="6.62847">
        <ele>437</ele>
        <time>2016-01-01T09:22:33.000Z</time>
      </trkpt>
      <trkpt lat="47.52639" lon="6.62845">
        <ele>437</ele>
        <time>2016-01-01T09:22:34.000Z</time>
      </trkpt>
      <trkpt lat="47.52642" lon="6.62843">
        <ele>437</ele>
        <time>2016-01-01T09:22:35.000Z</time>
      </trkpt>
      <trkpt lat="47.52644" lon="6.62841">
        <ele>437</ele>
        <time>2016-01-01T09:22:36.000Z</time>
      </trkpt>
      <trkpt lat="47.52647" lon="6.62839">
        <ele>437</ele>
        <time>2016-01-01T09:22:37.000Z</time>
      </trkpt>
      <trkpt lat="47.5265" lon="6.62836">
        <ele>437</ele>
        <time>2016-01-01T09:22:38.000Z</time>
      </trkpt>
      <trkpt lat="47.52653" lon="6.62834">
        <ele>437</ele>
        <time>2016-01-01T09:22:39.000Z</time>
      </trkpt>
      <trkpt lat="47.52655" lon="6.62831">
        <ele>438</ele>
        <time>2016-01-01T09:22:40.000Z</time>
      </trkpt>
      <trkpt lat="47.52658" lon="6.62828">
        <ele>438</ele>
        <time>2016-01-01T09:22:41.000Z</time>
      </trkpt>
      <trkpt lat="47.5266" lon="6.62824">
        <ele>438</ele>
        <time>2016-01-01T09:22:42.000Z</time>
      </trkpt>
      <trkpt lat="47.52662" lon="6.62821">
        <ele>438</ele>
        <time>2016-01-01T09:22:43.000Z</time>
      </trkpt>
      <trkpt lat="47.52664" lon="6.62818">
        <ele>438</ele>
        <time>2016-01-01T09:22:44.000Z</time>
      </trkpt>
      <trkpt lat="47.52667" lon="6.62816">
        <ele>438</ele>
        <time>2016-01-01T09:22:45.000Z</time>
      </trkpt>
      <trkpt lat="47.5267" lon="6.62813">
        <ele>438</ele>
        <time>2016-01-01T09:22:46.000Z</time>
      </trkpt>
      <trkpt lat="47.52673" lon="6.62811">
        <ele>438</ele>
        <time>2016-01-01T09:22:47.000Z</time>
      </trkpt>
      <trkpt lat="47.52677" lon="6.62809">
        <ele>438</ele>
        <time>2016-01-01T09:22:48.000Z</time>
      </trkpt>
      <trkpt lat="47.5268" lon="6.62807">
        <ele>438</ele>
        <time>2016-01-01T09:22:49.000Z</time>
      </trkpt>
      <trkpt lat="47.52683" lon="6.62804">
        <ele>438</ele>
        <time>2016-01-01T09:22:50.000Z</time>
      </trkpt>
      <trkpt lat="47.52686" lon="6.62802">
        <ele>438</ele>
        <time>2016-01-01T09:22:51.000Z</time>
      </trkpt>
      <trkpt lat="47.52689" lon="6.62799">
        <ele>438</ele>
        <time>2016-01-01T09:22:52.000Z</time>
      </trkpt>
      <trkpt lat="47.52692" lon="6.62797">
        <ele>438</ele>
        <time>2016-01-01T09:22:53.000Z</time>
      </trkpt>
      <trkpt lat="47.52695" lon="6.62794">
        <ele>438</ele>
        <time>2016-01-01T09:22:54.000Z</time>
      </trkpt>
      <trkpt lat="47.52698" lon="6.62791">
        <ele>438</ele>
        <time>2016-01-01T09:22:55.000Z</time>
      </trkpt>
      <trkpt lat="47.527" lon="6.62788">
        <ele>438</ele>
        <time>2016-01-01T09:22:56.000Z</time>
      </trkpt>
      <trkpt lat="47.52703" lon="6.62785">
        <ele>438</ele>
        <time>2016-01-01T09:22:57.000Z</time>
      </trkpt>
      <trkpt lat="47.52706" lon="6.62782">
        <ele>438</ele>
        <time>2016-01-01T09:22:58.000Z</time>
      </trkpt>
      <trkpt lat="47.52709" lon="6.6278">
        <ele>438</ele>
        <time>2016-01-01T09:22:59.000Z</time>
      </trkpt>
      <trkpt lat="47.52712" lon="6.62777">
        <ele>438</ele>
        <time>2016-01-01T09:23:00.000Z</time>
      </trkpt>
      <trkpt lat="47.52715" lon="6.62775">
        <ele>438</ele>
        <time>2016-01-01T09:23:01.000Z</time>
      </trkpt>
      <trkpt lat="47.52718" lon="6.62773">
        <ele>438</ele>
        <time>2016-01-01T09:23:02.000Z</time>
      </trkpt>
      <trkpt lat="47.52721" lon="6.62771">
        <ele>438</ele>
        <time>2016-01-01T09:23:03.000Z</time>
      </trkpt>
      <trkpt lat="47.52724" lon="6.62769">
        <ele>438</ele>
        <time>2016-01-01T09:23:04.000Z</time>
      </trkpt>
      <trkpt lat="47.52726" lon="6.62767">
        <ele>438</ele>
        <time>2016-01-01T09:23:05.000Z</time>
      </trkpt>
      <trkpt lat="47.52729" lon="6.62765">
        <ele>438</ele>
        <time>2016-01-01T09:23:06.001Z</time>
      </trkpt>
      <trkpt lat="47.52731" lon="6.62763">
        <ele>438</ele>
        <time>2016-01-01T09:23:07.000Z</time>
      </trkpt>
      <trkpt lat="47.52733" lon="6.62761">
        <ele>438</ele>
        <time>2016-01-01T09:23:08.000Z</time>
      </trkpt>
      <trkpt lat="47.52736" lon="6.62758">
        <ele>439</ele>
        <time>2016-01-01T09:23:09.000Z</time>
      </trkpt>
      <trkpt lat="47.52738" lon="6.62756">
        <ele>439</ele>
        <time>2016-01-01T09:23:10.000Z</time>
      </trkpt>
      <trkpt lat="47.52741" lon="6.62754">
        <ele>439</ele>
        <time>2016-01-01T09:23:11.000Z</time>
      </trkpt>
      <trkpt lat="47.52743" lon="6.62754">
        <ele>439</ele>
        <time>2016-01-01T09:23:12.000Z</time>
      </trkpt>
      <trkpt lat="47.52746" lon="6.62755">
        <ele>439</ele>
        <time>2016-01-01T09:23:13.000Z</time>
      </trkpt>
      <trkpt lat="47.52749" lon="6.62756">
        <ele>439</ele>
        <time>2016-01-01T09:23:14.000Z</time>
      </trkpt>
      <trkpt lat="47.52752" lon="6.62758">
        <ele>439</ele>
        <time>2016-01-01T09:23:15.000Z</time>
      </trkpt>
      <trkpt lat="47.52754" lon="6.62761">
        <ele>439</ele>
        <time>2016-01-01T09:23:16.000Z</time>
      </trkpt>
      <trkpt lat="47.52757" lon="6.62763">
        <ele>439</ele>
        <time>2016-01-01T09:23:17.000Z</time>
      </trkpt>
      <trkpt lat="47.52759" lon="6.62766">
        <ele>439</ele>
        <time>2016-01-01T09:23:18.000Z</time>
      </trkpt>
      <trkpt lat="47.52762" lon="6.62769">
        <ele>439</ele>
        <time>2016-01-01T09:23:19.000Z</time>
      </trkpt>
      <trkpt lat="47.52765" lon="6.62772">
        <ele>439</ele>
        <time>2016-01-01T09:23:20.000Z</time>
      </trkpt>
      <trkpt lat="47.52768" lon="6.62775">
        <ele>439</ele>
        <time>2016-01-01T09:23:21.000Z</time>
      </trkpt>
      <trkpt lat="47.52771" lon="6.62777">
        <ele>439</ele>
        <time>2016-01-01T09:23:22.000Z</time>
      </trkpt>
      <trkpt lat="47.52774" lon="6.6278">
        <ele>440</ele>
        <time>2016-01-01T09:23:23.000Z</time>
      </trkpt>
      <trkpt lat="47.52777" lon="6.62783">
        <ele>440</ele>
        <time>2016-01-01T09:23:24.000Z</time>
      </trkpt>
      <trkpt lat="47.52779" lon="6.62786">
        <ele>440</ele>
        <time>2016-01-01T09:23:25.001Z</time>
      </trkpt>
      <trkpt lat="47.52782" lon="6.6279">
        <ele>440</ele>
        <time>2016-01-01T09:23:26.000Z</time>
      </trkpt>
      <trkpt lat="47.52785" lon="6.62794">
        <ele>440</ele>
        <time>2016-01-01T09:23:27.000Z</time>
      </trkpt>
      <trkpt lat="47.52788" lon="6.62798">
        <ele>440</ele>
        <time>2016-01-01T09:23:28.000Z</time>
      </trkpt>
      <trkpt lat="47.52791" lon="6.62803">
        <ele>440</ele>
        <time>2016-01-01T09:23:29.000Z</time>
      </trkpt>
      <trkpt lat="47.52794" lon="6.62807">
        <ele>440</ele>
        <time>2016-01-01T09:23:30.001Z</time>
      </trkpt>
      <trkpt lat="47.528" lon="6.62811">
        <ele>440</ele>
        <time>2016-01-01T09:23:31.000Z</time>
      </trkpt>
      <trkpt lat="47.52804" lon="6.62815">
        <ele>440</ele>
        <time>2016-01-01T09:23:32.000Z</time>
      </trkpt>
      <trkpt lat="47.52808" lon="6.62817">
        <ele>440</ele>
        <time>2016-01-01T09:23:33.000Z</time>
      </trkpt>
      <trkpt lat="47.52812" lon="6.6282">
        <ele>440</ele>
        <time>2016-01-01T09:23:34.000Z</time>
      </trkpt>
      <trkpt lat="47.52817" lon="6.62823">
        <ele>440</ele>
        <time>2016-01-01T09:23:35.000Z</time>
      </trkpt>
      <trkpt lat="47.52821" lon="6.62828">
        <ele>440</ele>
        <time>2016-01-01T09:23:36.000Z</time>
      </trkpt>
      <trkpt lat="47.52825" lon="6.62832">
        <ele>440</ele>
        <time>2016-01-01T09:23:37.000Z</time>
      </trkpt>
      <trkpt lat="47.5283" lon="6.62837">
        <ele>439</ele>
        <time>2016-01-01T09:23:38.000Z</time>
      </trkpt>
      <trkpt lat="47.52834" lon="6.62842">
        <ele>439</ele>
        <time>2016-01-01T09:23:38.999Z</time>
      </trkpt>
      <trkpt lat="47.52837" lon="6.62849">
        <ele>438</ele>
        <time>2016-01-01T09:23:40.000Z</time>
      </trkpt>
      <trkpt lat="47.52842" lon="6.62855">
        <ele>437</ele>
        <time>2016-01-01T09:23:41.000Z</time>
      </trkpt>
      <trkpt lat="47.52846" lon="6.6286">
        <ele>437</ele>
        <time>2016-01-01T09:23:42.000Z</time>
      </trkpt>
      <trkpt lat="47.52851" lon="6.62865">
        <ele>436</ele>
        <time>2016-01-01T09:23:43.000Z</time>
      </trkpt>
      <trkpt lat="47.52855" lon="6.62869">
        <ele>436</ele>
        <time>2016-01-01T09:23:44.000Z</time>
      </trkpt>
      <trkpt lat="47.52859" lon="6.62872">
        <ele>436</ele>
        <time>2016-01-01T09:23:45.000Z</time>
      </trkpt>
      <trkpt lat="47.52864" lon="6.62877">
        <ele>436</ele>
        <time>2016-01-01T09:23:46.000Z</time>
      </trkpt>
      <trkpt lat="47.52869" lon="6.6288">
        <ele>435</ele>
        <time>2016-01-01T09:23:47.000Z</time>
      </trkpt>
      <trkpt lat="47.52873" lon="6.62884">
        <ele>435</ele>
        <time>2016-01-01T09:23:48.000Z</time>
      </trkpt>
      <trkpt lat="47.52878" lon="6.62888">
        <ele>435</ele>
        <time>2016-01-01T09:23:49.000Z</time>
      </trkpt>
      <trkpt lat="47.52884" lon="6.62891">
        <ele>435</ele>
        <time>2016-01-01T09:23:50.000Z</time>
      </trkpt>
      <trkpt lat="47.52889" lon="6.62894">
        <ele>435</ele>
        <time>2016-01-01T09:23:51.000Z</time>
      </trkpt>
      <trkpt lat="47.52895" lon="6.62899">
        <ele>434</ele>
        <time>2016-01-01T09:23:52.000Z</time>
      </trkpt>
      <trkpt lat="47.52901" lon="6.62902">
        <ele>434</ele>
        <time>2016-01-01T09:23:53.000Z</time>
      </trkpt>
      <trkpt lat="47.52907" lon="6.62905">
        <ele>434</ele>
        <time>2016-01-01T09:23:54.000Z</time>
      </trkpt>
      <trkpt lat="47.52914" lon="6.62909">
        <ele>433</ele>
        <time>2016-01-01T09:23:55.000Z</time>
      </trkpt>
      <trkpt lat="47.52919" lon="6.62913">
        <ele>433</ele>
        <time>2016-01-01T09:23:56.000Z</time>
      </trkpt>
      <trkpt lat="47.52923" lon="6.62918">
        <ele>432</ele>
        <time>2016-01-01T09:23:57.000Z</time>
      </trkpt>
      <trkpt lat="47.52927" lon="6.62923">
        <ele>432</ele>
        <time>2016-01-01T09:23:57.998Z</time>
      </trkpt>
      <trkpt lat="47.52933" lon="6.62929">
        <ele>432</ele>
        <time>2016-01-01T09:23:59.000Z</time>
      </trkpt>
      <trkpt lat="47.52937" lon="6.62935">
        <ele>432</ele>
        <time>2016-01-01T09:23:59.999Z</time>
      </trkpt>
      <trkpt lat="47.5294" lon="6.62939">
        <ele>432</ele>
        <time>2016-01-01T09:24:01.000Z</time>
      </trkpt>
      <trkpt lat="47.52943" lon="6.62942">
        <ele>432</ele>
        <time>2016-01-01T09:24:02.000Z</time>
      </trkpt>
      <trkpt lat="47.52944" lon="6.62948">
        <ele>432</ele>
        <time>2016-01-01T09:24:03.000Z</time>
      </trkpt>
      <trkpt lat="47.52946" lon="6.62953">
        <ele>431</ele>
        <time>2016-01-01T09:24:04.000Z</time>
      </trkpt>
      <trkpt lat="47.52949" lon="6.62957">
        <ele>431</ele>
        <time>2016-01-01T09:24:05.000Z</time>
      </trkpt>
      <trkpt lat="47.52951" lon="6.62961">
        <ele>431</ele>
        <time>2016-01-01T09:24:06.001Z</time>
      </trkpt>
      <trkpt lat="47.52955" lon="6.62965">
        <ele>431</ele>
        <time>2016-01-01T09:24:07.000Z</time>
      </trkpt>
      <trkpt lat="47.52959" lon="6.62971">
        <ele>431</ele>
        <time>2016-01-01T09:24:08.000Z</time>
      </trkpt>
      <trkpt lat="47.52962" lon="6.62976">
        <ele>431</ele>
        <time>2016-01-01T09:24:09.000Z</time>
      </trkpt>
      <trkpt lat="47.52964" lon="6.62979">
        <ele>431</ele>
        <time>2016-01-01T09:24:10.000Z</time>
      </trkpt>
      <trkpt lat="47.52968" lon="6.62984">
        <ele>432</ele>
        <time>2016-01-01T09:24:11.000Z</time>
      </trkpt>
      <trkpt lat="47.52971" lon="6.62988">
        <ele>432</ele>
        <time>2016-01-01T09:24:11.999Z</time>
      </trkpt>
      <trkpt lat="47.52975" lon="6.62992">
        <ele>432</ele>
        <time>2016-01-01T09:24:13.000Z</time>
      </trkpt>
      <trkpt lat="47.52978" lon="6.62998">
        <ele>432</ele>
        <time>2016-01-01T09:24:14.000Z</time>
      </trkpt>
      <trkpt lat="47.52982" lon="6.63003">
        <ele>430</ele>
        <time>2016-01-01T09:24:14.999Z</time>
      </trkpt>
      <trkpt lat="47.52986" lon="6.63005">
        <ele>430</ele>
        <time>2016-01-01T09:24:16.000Z</time>
      </trkpt>
      <trkpt lat="47.52991" lon="6.63009">
        <ele>431</ele>
        <time>2016-01-01T09:24:17.000Z</time>
      </trkpt>
      <trkpt lat="47.52995" lon="6.63012">
        <ele>431</ele>
        <time>2016-01-01T09:24:18.000Z</time>
      </trkpt>
      <trkpt lat="47.53" lon="6.63018">
        <ele>430</ele>
        <time>2016-01-01T09:24:19.000Z</time>
      </trkpt>
      <trkpt lat="47.53004" lon="6.63022">
        <ele>434</ele>
        <time>2016-01-01T09:24:20.000Z</time>
      </trkpt>
      <trkpt lat="47.53008" lon="6.63027">
        <ele>434</ele>
        <time>2016-01-01T09:24:21.000Z</time>
      </trkpt>
      <trkpt lat="47.5301" lon="6.63033">
        <ele>434</ele>
        <time>2016-01-01T09:24:22.000Z</time>
      </trkpt>
      <trkpt lat="47.53012" lon="6.63038">
        <ele>433</ele>
        <time>2016-01-01T09:24:23.000Z</time>
      </trkpt>
      <trkpt lat="47.53014" lon="6.63042">
        <ele>433</ele>
        <time>2016-01-01T09:24:24.001Z</time>
      </trkpt>
      <trkpt lat="47.53019" lon="6.63048">
        <ele>433</ele>
        <time>2016-01-01T09:24:25.000Z</time>
      </trkpt>
      <trkpt lat="47.53022" lon="6.63053">
        <ele>433</ele>
        <time>2016-01-01T09:24:26.000Z</time>
      </trkpt>
      <trkpt lat="47.53025" lon="6.63058">
        <ele>433</ele>
        <time>2016-01-01T09:24:27.000Z</time>
      </trkpt>
      <trkpt lat="47.53027" lon="6.63061">
        <ele>433</ele>
        <time>2016-01-01T09:24:28.000Z</time>
      </trkpt>
      <trkpt lat="47.53029" lon="6.63065">
        <ele>433</ele>
        <time>2016-01-01T09:24:29.000Z</time>
      </trkpt>
      <trkpt lat="47.53035" lon="6.63072">
        <ele>433</ele>
        <time>2016-01-01T09:24:30.000Z</time>
      </trkpt>
      <trkpt lat="47.53038" lon="6.63077">
        <ele>433</ele>
        <time>2016-01-01T09:24:31.000Z</time>
      </trkpt>
      <trkpt lat="47.53043" lon="6.63082">
        <ele>433</ele>
        <time>2016-01-01T09:24:32.000Z</time>
      </trkpt>
      <trkpt lat="47.53046" lon="6.63087">
        <ele>429</ele>
        <time>2016-01-01T09:24:33.000Z</time>
      </trkpt>
      <trkpt lat="47.5305" lon="6.63092">
        <ele>429</ele>
        <time>2016-01-01T09:24:34.000Z</time>
      </trkpt>
      <trkpt lat="47.53053" lon="6.63098">
        <ele>429</ele>
        <time>2016-01-01T09:24:35.000Z</time>
      </trkpt>
      <trkpt lat="47.53055" lon="6.63103">
        <ele>429</ele>
        <time>2016-01-01T09:24:36.000Z</time>
      </trkpt>
      <trkpt lat="47.53056" lon="6.63106">
        <ele>429</ele>
        <time>2016-01-01T09:24:37.000Z</time>
      </trkpt>
      <trkpt lat="47.53057" lon="6.63112">
        <ele>429</ele>
        <time>2016-01-01T09:24:38.000Z</time>
      </trkpt>
      <trkpt lat="47.53059" lon="6.63116">
        <ele>428</ele>
        <time>2016-01-01T09:24:39.000Z</time>
      </trkpt>
      <trkpt lat="47.53061" lon="6.63121">
        <ele>428</ele>
        <time>2016-01-01T09:24:40.000Z</time>
      </trkpt>
      <trkpt lat="47.53063" lon="6.63125">
        <ele>428</ele>
        <time>2016-01-01T09:24:41.000Z</time>
      </trkpt>
      <trkpt lat="47.53064" lon="6.63129">
        <ele>428</ele>
        <time>2016-01-01T09:24:42.000Z</time>
      </trkpt>
      <trkpt lat="47.53066" lon="6.63133">
        <ele>428</ele>
        <time>2016-01-01T09:24:43.000Z</time>
      </trkpt>
      <trkpt lat="47.53068" lon="6.63139">
        <ele>428</ele>
        <time>2016-01-01T09:24:44.000Z</time>
      </trkpt>
      <trkpt lat="47.5307" lon="6.63145">
        <ele>428</ele>
        <time>2016-01-01T09:24:45.000Z</time>
      </trkpt>
      <trkpt lat="47.53073" lon="6.6315">
        <ele>428</ele>
        <time>2016-01-01T09:24:46.000Z</time>
      </trkpt>
      <trkpt lat="47.53075" lon="6.63155">
        <ele>428</ele>
        <time>2016-01-01T09:24:47.000Z</time>
      </trkpt>
      <trkpt lat="47.53078" lon="6.63159">
        <ele>428</ele>
        <time>2016-01-01T09:24:48.000Z</time>
      </trkpt>
      <trkpt lat="47.53082" lon="6.63163">
        <ele>428</ele>
        <time>2016-01-01T09:24:49.000Z</time>
      </trkpt>
      <trkpt lat="47.53085" lon="6.63167">
        <ele>428</ele>
        <time>2016-01-01T09:24:50.000Z</time>
      </trkpt>
      <trkpt lat="47.53088" lon="6.63171">
        <ele>428</ele>
        <time>2016-01-01T09:24:51.000Z</time>
      </trkpt>
      <trkpt lat="47.53094" lon="6.6318">
        <ele>427</ele>
        <time>2016-01-01T09:24:52.000Z</time>
      </trkpt>
      <trkpt lat="47.53096" lon="6.63187">
        <ele>427</ele>
        <time>2016-01-01T09:24:53.000Z</time>
      </trkpt>
      <trkpt lat="47.53099" lon="6.63193">
        <ele>426</ele>
        <time>2016-01-01T09:24:54.000Z</time>
      </trkpt>
      <trkpt lat="47.53101" lon="6.632">
        <ele>426</ele>
        <time>2016-01-01T09:24:55.000Z</time>
      </trkpt>
      <trkpt lat="47.53104" lon="6.63208">
        <ele>425</ele>
        <time>2016-01-01T09:24:56.000Z</time>
      </trkpt>
      <trkpt lat="47.53106" lon="6.63217">
        <ele>425</ele>
        <time>2016-01-01T09:24:57.000Z</time>
      </trkpt>
      <trkpt lat="47.53108" lon="6.63226">
        <ele>424</ele>
        <time>2016-01-01T09:24:58.000Z</time>
      </trkpt>
      <trkpt lat="47.53111" lon="6.63234">
        <ele>424</ele>
        <time>2016-01-01T09:24:59.000Z</time>
      </trkpt>
      <trkpt lat="47.53113" lon="6.63242">
        <ele>424</ele>
        <time>2016-01-01T09:25:00.000Z</time>
      </trkpt>
      <trkpt lat="47.53117" lon="6.63249">
        <ele>424</ele>
        <time>2016-01-01T09:25:01.000Z</time>
      </trkpt>
      <trkpt lat="47.53121" lon="6.63257">
        <ele>420</ele>
        <time>2016-01-01T09:25:02.000Z</time>
      </trkpt>
      <trkpt lat="47.53125" lon="6.63265">
        <ele>420</ele>
        <time>2016-01-01T09:25:03.000Z</time>
      </trkpt>
      <trkpt lat="47.53127" lon="6.63272">
        <ele>420</ele>
        <time>2016-01-01T09:25:04.000Z</time>
      </trkpt>
      <trkpt lat="47.53129" lon="6.6328">
        <ele>420</ele>
        <time>2016-01-01T09:25:05.000Z</time>
      </trkpt>
      <trkpt lat="47.53131" lon="6.63287">
        <ele>420</ele>
        <time>2016-01-01T09:25:06.000Z</time>
      </trkpt>
      <trkpt lat="47.53134" lon="6.63293">
        <ele>420</ele>
        <time>2016-01-01T09:25:07.000Z</time>
      </trkpt>
      <trkpt lat="47.53138" lon="6.633">
        <ele>420</ele>
        <time>2016-01-01T09:25:08.000Z</time>
      </trkpt>
      <trkpt lat="47.53142" lon="6.63304">
        <ele>420</ele>
        <time>2016-01-01T09:25:09.000Z</time>
      </trkpt>
      <trkpt lat="47.53145" lon="6.63308">
        <ele>420</ele>
        <time>2016-01-01T09:25:10.000Z</time>
      </trkpt>
      <trkpt lat="47.53149" lon="6.63312">
        <ele>420</ele>
        <time>2016-01-01T09:25:11.000Z</time>
      </trkpt>
      <trkpt lat="47.53153" lon="6.63317">
        <ele>421</ele>
        <time>2016-01-01T09:25:12.000Z</time>
      </trkpt>
      <trkpt lat="47.53158" lon="6.63321">
        <ele>421</ele>
        <time>2016-01-01T09:25:13.000Z</time>
      </trkpt>
      <trkpt lat="47.53161" lon="6.63324">
        <ele>421</ele>
        <time>2016-01-01T09:25:14.000Z</time>
      </trkpt>
      <trkpt lat="47.53164" lon="6.63329">
        <ele>421</ele>
        <time>2016-01-01T09:25:15.000Z</time>
      </trkpt>
      <trkpt lat="47.53168" lon="6.63334">
        <ele>422</ele>
        <time>2016-01-01T09:25:16.000Z</time>
      </trkpt>
      <trkpt lat="47.53171" lon="6.63338">
        <ele>421</ele>
        <time>2016-01-01T09:25:17.000Z</time>
      </trkpt>
      <trkpt lat="47.53174" lon="6.63342">
        <ele>421</ele>
        <time>2016-01-01T09:25:18.000Z</time>
      </trkpt>
      <trkpt lat="47.53179" lon="6.63345">
        <ele>420</ele>
        <time>2016-01-01T09:25:19.000Z</time>
      </trkpt>
      <trkpt lat="47.53183" lon="6.63348">
        <ele>420</ele>
        <time>2016-01-01T09:25:20.000Z</time>
      </trkpt>
      <trkpt lat="47.53187" lon="6.6335">
        <ele>419</ele>
        <time>2016-01-01T09:25:21.000Z</time>
      </trkpt>
      <trkpt lat="47.53191" lon="6.63351">
        <ele>419</ele>
        <time>2016-01-01T09:25:22.000Z</time>
      </trkpt>
      <trkpt lat="47.53195" lon="6.63351">
        <ele>419</ele>
        <time>2016-01-01T09:25:23.000Z</time>
      </trkpt>
      <trkpt lat="47.53199" lon="6.63352">
        <ele>419</ele>
        <time>2016-01-01T09:25:24.000Z</time>
      </trkpt>
      <trkpt lat="47.53202" lon="6.63351">
        <ele>419</ele>
        <time>2016-01-01T09:25:25.000Z</time>
      </trkpt>
      <trkpt lat="47.53206" lon="6.6335">
        <ele>419</ele>
        <time>2016-01-01T09:25:26.000Z</time>
      </trkpt>
      <trkpt lat="47.53209" lon="6.63347">
        <ele>419</ele>
        <time>2016-01-01T09:25:27.000Z</time>
      </trkpt>
      <trkpt lat="47.53212" lon="6.63343">
        <ele>419</ele>
        <time>2016-01-01T09:25:28.000Z</time>
      </trkpt>
      <trkpt lat="47.53216" lon="6.63339">
        <ele>419</ele>
        <time>2016-01-01T09:25:29.000Z</time>
      </trkpt>
      <trkpt lat="47.53219" lon="6.63334">
        <ele>419</ele>
        <time>2016-01-01T09:25:30.000Z</time>
      </trkpt>
      <trkpt lat="47.53221" lon="6.6333">
        <ele>421</ele>
        <time>2016-01-01T09:25:31.000Z</time>
      </trkpt>
      <trkpt lat="47.53224" lon="6.63326">
        <ele>421</ele>
        <time>2016-01-01T09:25:32.000Z</time>
      </trkpt>
      <trkpt lat="47.53226" lon="6.63322">
        <ele>421</ele>
        <time>2016-01-01T09:25:33.000Z</time>
      </trkpt>
      <trkpt lat="47.53228" lon="6.63319">
        <ele>421</ele>
        <time>2016-01-01T09:25:34.000Z</time>
      </trkpt>
      <trkpt lat="47.53231" lon="6.63316">
        <ele>421</ele>
        <time>2016-01-01T09:25:35.000Z</time>
      </trkpt>
      <trkpt lat="47.53234" lon="6.63313">
        <ele>421</ele>
        <time>2016-01-01T09:25:36.000Z</time>
      </trkpt>
      <trkpt lat="47.53236" lon="6.6331">
        <ele>421</ele>
        <time>2016-01-01T09:25:37.000Z</time>
      </trkpt>
      <trkpt lat="47.53237" lon="6.63307">
        <ele>421</ele>
        <time>2016-01-01T09:25:38.000Z</time>
      </trkpt>
      <trkpt lat="47.53239" lon="6.63304">
        <ele>421</ele>
        <time>2016-01-01T09:25:39.000Z</time>
      </trkpt>
      <trkpt lat="47.5324" lon="6.63301">
        <ele>421</ele>
        <time>2016-01-01T09:25:40.000Z</time>
      </trkpt>
      <trkpt lat="47.5324" lon="6.63297">
        <ele>421</ele>
        <time>2016-01-01T09:25:41.000Z</time>
      </trkpt>
      <trkpt lat="47.53241" lon="6.63294">
        <ele>421</ele>
        <time>2016-01-01T09:25:42.000Z</time>
      </trkpt>
      <trkpt lat="47.5324" lon="6.63289">
        <ele>421</ele>
        <time>2016-01-01T09:25:43.000Z</time>
      </trkpt>
      <trkpt lat="47.53239" lon="6.63284">
        <ele>421</ele>
        <time>2016-01-01T09:25:44.000Z</time>
      </trkpt>
      <trkpt lat="47.53238" lon="6.63278">
        <ele>421</ele>
        <time>2016-01-01T09:25:45.000Z</time>
      </trkpt>
      <trkpt lat="47.53236" lon="6.63273">
        <ele>421</ele>
        <time>2016-01-01T09:25:46.000Z</time>
      </trkpt>
      <trkpt lat="47.53235" lon="6.63267">
        <ele>421</ele>
        <time>2016-01-01T09:25:47.000Z</time>
      </trkpt>
      <trkpt lat="47.53234" lon="6.63262">
        <ele>421</ele>
        <time>2016-01-01T09:25:48.000Z</time>
      </trkpt>
      <trkpt lat="47.53233" lon="6.63257">
        <ele>421</ele>
        <time>2016-01-01T09:25:49.000Z</time>
      </trkpt>
      <trkpt lat="47.53233" lon="6.63253">
        <ele>421</ele>
        <time>2016-01-01T09:25:50.000Z</time>
      </trkpt>
      <trkpt lat="47.53233" lon="6.63249">
        <ele>424</ele>
        <time>2016-01-01T09:25:51.000Z</time>
      </trkpt>
      <trkpt lat="47.53235" lon="6.63246">
        <ele>424</ele>
        <time>2016-01-01T09:25:52.000Z</time>
      </trkpt>
      <trkpt lat="47.53236" lon="6.63242">
        <ele>424</ele>
        <time>2016-01-01T09:25:53.000Z</time>
      </trkpt>
      <trkpt lat="47.53238" lon="6.63239">
        <ele>424</ele>
        <time>2016-01-01T09:25:54.000Z</time>
      </trkpt>
      <trkpt lat="47.53239" lon="6.63236">
        <ele>425</ele>
        <time>2016-01-01T09:25:55.000Z</time>
      </trkpt>
      <trkpt lat="47.53241" lon="6.63232">
        <ele>425</ele>
        <time>2016-01-01T09:25:56.000Z</time>
      </trkpt>
      <trkpt lat="47.53243" lon="6.63229">
        <ele>425</ele>
        <time>2016-01-01T09:25:57.000Z</time>
      </trkpt>
      <trkpt lat="47.53246" lon="6.63226">
        <ele>426</ele>
        <time>2016-01-01T09:25:58.000Z</time>
      </trkpt>
      <trkpt lat="47.53248" lon="6.63223">
        <ele>426</ele>
        <time>2016-01-01T09:25:59.000Z</time>
      </trkpt>
      <trkpt lat="47.53251" lon="6.63219">
        <ele>426</ele>
        <time>2016-01-01T09:26:00.000Z</time>
      </trkpt>
      <trkpt lat="47.53254" lon="6.63216">
        <ele>426</ele>
        <time>2016-01-01T09:26:01.000Z</time>
      </trkpt>
      <trkpt lat="47.53256" lon="6.63213">
        <ele>426</ele>
        <time>2016-01-01T09:26:02.000Z</time>
      </trkpt>
      <trkpt lat="47.53259" lon="6.6321">
        <ele>427</ele>
        <time>2016-01-01T09:26:03.000Z</time>
      </trkpt>
      <trkpt lat="47.53261" lon="6.63208">
        <ele>427</ele>
        <time>2016-01-01T09:26:04.000Z</time>
      </trkpt>
      <trkpt lat="47.53263" lon="6.63205">
        <ele>427</ele>
        <time>2016-01-01T09:26:05.000Z</time>
      </trkpt>
      <trkpt lat="47.53265" lon="6.63202">
        <ele>428</ele>
        <time>2016-01-01T09:26:06.000Z</time>
      </trkpt>
      <trkpt lat="47.53268" lon="6.632">
        <ele>428</ele>
        <time>2016-01-01T09:26:07.000Z</time>
      </trkpt>
      <trkpt lat="47.5327" lon="6.63197">
        <ele>428</ele>
        <time>2016-01-01T09:26:08.000Z</time>
      </trkpt>
      <trkpt lat="47.53271" lon="6.63195">
        <ele>428</ele>
        <time>2016-01-01T09:26:09.000Z</time>
      </trkpt>
      <trkpt lat="47.53274" lon="6.63192">
        <ele>428</ele>
        <time>2016-01-01T09:26:10.000Z</time>
      </trkpt>
      <trkpt lat="47.53276" lon="6.6319">
        <ele>428</ele>
        <time>2016-01-01T09:26:11.000Z</time>
      </trkpt>
      <trkpt lat="47.53278" lon="6.63188">
        <ele>429</ele>
        <time>2016-01-01T09:26:12.000Z</time>
      </trkpt>
      <trkpt lat="47.53281" lon="6.63186">
        <ele>429</ele>
        <time>2016-01-01T09:26:13.000Z</time>
      </trkpt>
      <trkpt lat="47.53282" lon="6.63184">
        <ele>429</ele>
        <time>2016-01-01T09:26:14.000Z</time>
      </trkpt>
      <trkpt lat="47.53284" lon="6.63181">
        <ele>429</ele>
        <time>2016-01-01T09:26:15.000Z</time>
      </trkpt>
      <trkpt lat="47.53287" lon="6.63177">
        <ele>429</ele>
        <time>2016-01-01T09:26:17.000Z</time>
      </trkpt>
      <trkpt lat="47.53289" lon="6.63174">
        <ele>429</ele>
        <time>2016-01-01T09:26:18.000Z</time>
      </trkpt>
      <trkpt lat="47.5329" lon="6.63171">
        <ele>429</ele>
        <time>2016-01-01T09:26:19.000Z</time>
      </trkpt>
      <trkpt lat="47.53292" lon="6.63168">
        <ele>429</ele>
        <time>2016-01-01T09:26:20.000Z</time>
      </trkpt>
      <trkpt lat="47.53296" lon="6.63165">
        <ele>438</ele>
        <time>2016-01-01T09:26:22.000Z</time>
      </trkpt>
      <trkpt lat="47.53298" lon="6.63163">
        <ele>438</ele>
        <time>2016-01-01T09:26:23.000Z</time>
      </trkpt>
      <trkpt lat="47.533" lon="6.63162">
        <ele>438</ele>
        <time>2016-01-01T09:26:24.000Z</time>
      </trkpt>
      <trkpt lat="47.53303" lon="6.63161">
        <ele>438</ele>
        <time>2016-01-01T09:26:25.000Z</time>
      </trkpt>
      <trkpt lat="47.53306" lon="6.63161">
        <ele>438</ele>
        <time>2016-01-01T09:26:26.000Z</time>
      </trkpt>
      <trkpt lat="47.53309" lon="6.6316">
        <ele>437</ele>
        <time>2016-01-01T09:26:27.000Z</time>
      </trkpt>
      <trkpt lat="47.53312" lon="6.6316">
        <ele>437</ele>
        <time>2016-01-01T09:26:28.000Z</time>
      </trkpt>
      <trkpt lat="47.53314" lon="6.6316">
        <ele>437</ele>
        <time>2016-01-01T09:26:29.000Z</time>
      </trkpt>
      <trkpt lat="47.53316" lon="6.6316">
        <ele>437</ele>
        <time>2016-01-01T09:26:30.000Z</time>
      </trkpt>
      <trkpt lat="47.53319" lon="6.63161">
        <ele>437</ele>
        <time>2016-01-01T09:26:31.000Z</time>
      </trkpt>
      <trkpt lat="47.53321" lon="6.63162">
        <ele>436</ele>
        <time>2016-01-01T09:26:32.000Z</time>
      </trkpt>
      <trkpt lat="47.53324" lon="6.63164">
        <ele>436</ele>
        <time>2016-01-01T09:26:33.000Z</time>
      </trkpt>
      <trkpt lat="47.53327" lon="6.63166">
        <ele>435</ele>
        <time>2016-01-01T09:26:34.000Z</time>
      </trkpt>
      <trkpt lat="47.53329" lon="6.63168">
        <ele>433</ele>
        <time>2016-01-01T09:26:35.000Z</time>
      </trkpt>
      <trkpt lat="47.53332" lon="6.6317">
        <ele>433</ele>
        <time>2016-01-01T09:26:36.000Z</time>
      </trkpt>
      <trkpt lat="47.53334" lon="6.63171">
        <ele>432</ele>
        <time>2016-01-01T09:26:37.000Z</time>
      </trkpt>
      <trkpt lat="47.53336" lon="6.63172">
        <ele>432</ele>
        <time>2016-01-01T09:26:38.000Z</time>
      </trkpt>
      <trkpt lat="47.53338" lon="6.63173">
        <ele>431</ele>
        <time>2016-01-01T09:26:39.000Z</time>
      </trkpt>
      <trkpt lat="47.5334" lon="6.63175">
        <ele>430</ele>
        <time>2016-01-01T09:26:40.000Z</time>
      </trkpt>
      <trkpt lat="47.53343" lon="6.63176">
        <ele>430</ele>
        <time>2016-01-01T09:26:41.000Z</time>
      </trkpt>
      <trkpt lat="47.53346" lon="6.63177">
        <ele>429</ele>
        <time>2016-01-01T09:26:42.000Z</time>
      </trkpt>
      <trkpt lat="47.53348" lon="6.63178">
        <ele>429</ele>
        <time>2016-01-01T09:26:43.000Z</time>
      </trkpt>
      <trkpt lat="47.5335" lon="6.63178">
        <ele>428</ele>
        <time>2016-01-01T09:26:44.000Z</time>
      </trkpt>
      <trkpt lat="47.53353" lon="6.63179">
        <ele>428</ele>
        <time>2016-01-01T09:26:45.000Z</time>
      </trkpt>
      <trkpt lat="47.53355" lon="6.63179">
        <ele>428</ele>
        <time>2016-01-01T09:26:46.000Z</time>
      </trkpt>
      <trkpt lat="47.53358" lon="6.6318">
        <ele>427</ele>
        <time>2016-01-01T09:26:47.000Z</time>
      </trkpt>
      <trkpt lat="47.53361" lon="6.6318">
        <ele>427</ele>
        <time>2016-01-01T09:26:48.000Z</time>
      </trkpt>
      <trkpt lat="47.53363" lon="6.63181">
        <ele>427</ele>
        <time>2016-01-01T09:26:48.999Z</time>
      </trkpt>
      <trkpt lat="47.53366" lon="6.63178">
        <ele>427</ele>
        <time>2016-01-01T09:26:50.000Z</time>
      </trkpt>
      <trkpt lat="47.53368" lon="6.63176">
        <ele>427</ele>
        <time>2016-01-01T09:26:51.000Z</time>
      </trkpt>
      <trkpt lat="47.5337" lon="6.63173">
        <ele>427</ele>
        <time>2016-01-01T09:26:52.000Z</time>
      </trkpt>
      <trkpt lat="47.53371" lon="6.6317">
        <ele>427</ele>
        <time>2016-01-01T09:26:53.000Z</time>
      </trkpt>
      <trkpt lat="47.53372" lon="6.63166">
        <ele>437</ele>
        <time>2016-01-01T09:26:54.000Z</time>
      </trkpt>
      <trkpt lat="47.53372" lon="6.63163">
        <ele>437</ele>
        <time>2016-01-01T09:26:55.000Z</time>
      </trkpt>
      <trkpt lat="47.5337" lon="6.63157">
        <ele>437</ele>
        <time>2016-01-01T09:26:57.000Z</time>
      </trkpt>
      <trkpt lat="47.53369" lon="6.63155">
        <ele>437</ele>
        <time>2016-01-01T09:26:58.000Z</time>
      </trkpt>
      <trkpt lat="47.53367" lon="6.63152">
        <ele>437</ele>
        <time>2016-01-01T09:26:59.000Z</time>
      </trkpt>
      <trkpt lat="47.53365" lon="6.6315">
        <ele>438</ele>
        <time>2016-01-01T09:27:00.000Z</time>
      </trkpt>
      <trkpt lat="47.53363" lon="6.63148">
        <ele>438</ele>
        <time>2016-01-01T09:27:01.000Z</time>
      </trkpt>
      <trkpt lat="47.53361" lon="6.63146">
        <ele>438</ele>
        <time>2016-01-01T09:27:02.000Z</time>
      </trkpt>
      <trkpt lat="47.53359" lon="6.63144">
        <ele>438</ele>
        <time>2016-01-01T09:27:03.000Z</time>
      </trkpt>
      <trkpt lat="47.53356" lon="6.63142">
        <ele>438</ele>
        <time>2016-01-01T09:27:04.000Z</time>
      </trkpt>
      <trkpt lat="47.53354" lon="6.63139">
        <ele>439</ele>
        <time>2016-01-01T09:27:05.000Z</time>
      </trkpt>
      <trkpt lat="47.53352" lon="6.63136">
        <ele>439</ele>
        <time>2016-01-01T09:27:06.000Z</time>
      </trkpt>
      <trkpt lat="47.5335" lon="6.63133">
        <ele>439</ele>
        <time>2016-01-01T09:27:07.000Z</time>
      </trkpt>
      <trkpt lat="47.53348" lon="6.6313">
        <ele>440</ele>
        <time>2016-01-01T09:27:08.000Z</time>
      </trkpt>
      <trkpt lat="47.53345" lon="6.63128">
        <ele>440</ele>
        <time>2016-01-01T09:27:09.000Z</time>
      </trkpt>
      <trkpt lat="47.53343" lon="6.63126">
        <ele>440</ele>
        <time>2016-01-01T09:27:10.000Z</time>
      </trkpt>
      <trkpt lat="47.5334" lon="6.63125">
        <ele>440</ele>
        <time>2016-01-01T09:27:11.000Z</time>
      </trkpt>
      <trkpt lat="47.53337" lon="6.63123">
        <ele>441</ele>
        <time>2016-01-01T09:27:12.000Z</time>
      </trkpt>
      <trkpt lat="47.53334" lon="6.63122">
        <ele>441</ele>
        <time>2016-01-01T09:27:13.000Z</time>
      </trkpt>
      <trkpt lat="47.53332" lon="6.63122">
        <ele>441</ele>
        <time>2016-01-01T09:27:14.000Z</time>
      </trkpt>
      <trkpt lat="47.53329" lon="6.63121">
        <ele>441</ele>
        <time>2016-01-01T09:27:15.000Z</time>
      </trkpt>
      <trkpt lat="47.53326" lon="6.6312">
        <ele>441</ele>
        <time>2016-01-01T09:27:16.000Z</time>
      </trkpt>
      <trkpt lat="47.53323" lon="6.63119">
        <ele>441</ele>
        <time>2016-01-01T09:27:17.000Z</time>
      </trkpt>
      <trkpt lat="47.5332" lon="6.63118">
        <ele>441</ele>
        <time>2016-01-01T09:27:18.000Z</time>
      </trkpt>
      <trkpt lat="47.53317" lon="6.63117">
        <ele>441</ele>
        <time>2016-01-01T09:27:19.000Z</time>
      </trkpt>
      <trkpt lat="47.53314" lon="6.63117">
        <ele>441</ele>
        <time>2016-01-01T09:27:20.000Z</time>
      </trkpt>
      <trkpt lat="47.53311" lon="6.63116">
        <ele>441</ele>
        <time>2016-01-01T09:27:21.000Z</time>
      </trkpt>
      <trkpt lat="47.53308" lon="6.63116">
        <ele>441</ele>
        <time>2016-01-01T09:27:22.000Z</time>
      </trkpt>
      <trkpt lat="47.53306" lon="6.63114">
        <ele>441</ele>
        <time>2016-01-01T09:27:23.000Z</time>
      </trkpt>
      <trkpt lat="47.53304" lon="6.63113">
        <ele>441</ele>
        <time>2016-01-01T09:27:24.000Z</time>
      </trkpt>
      <trkpt lat="47.53302" lon="6.63111">
        <ele>441</ele>
        <time>2016-01-01T09:27:25.000Z</time>
      </trkpt>
      <trkpt lat="47.533" lon="6.63109">
        <ele>442</ele>
        <time>2016-01-01T09:27:26.000Z</time>
      </trkpt>
      <trkpt lat="47.53298" lon="6.63105">
        <ele>442</ele>
        <time>2016-01-01T09:27:27.000Z</time>
      </trkpt>
      <trkpt lat="47.53296" lon="6.63102">
        <ele>442</ele>
        <time>2016-01-01T09:27:28.000Z</time>
      </trkpt>
      <trkpt lat="47.53295" lon="6.63097">
        <ele>442</ele>
        <time>2016-01-01T09:27:29.000Z</time>
      </trkpt>
      <trkpt lat="47.53293" lon="6.63095">
        <ele>442</ele>
        <time>2016-01-01T09:27:30.000Z</time>
      </trkpt>
      <trkpt lat="47.5329" lon="6.63093">
        <ele>442</ele>
        <time>2016-01-01T09:27:31.000Z</time>
      </trkpt>
      <trkpt lat="47.53287" lon="6.63092">
        <ele>442</ele>
        <time>2016-01-01T09:27:32.000Z</time>
      </trkpt>
      <trkpt lat="47.53284" lon="6.63092">
        <ele>442</ele>
        <time>2016-01-01T09:27:33.000Z</time>
      </trkpt>
      <trkpt lat="47.53281" lon="6.63091">
        <ele>442</ele>
        <time>2016-01-01T09:27:34.000Z</time>
      </trkpt>
      <trkpt lat="47.53278" lon="6.6309">
        <ele>442</ele>
        <time>2016-01-01T09:27:35.000Z</time>
      </trkpt>
      <trkpt lat="47.53275" lon="6.63088">
        <ele>442</ele>
        <time>2016-01-01T09:27:36.000Z</time>
      </trkpt>
      <trkpt lat="47.53273" lon="6.63087">
        <ele>442</ele>
        <time>2016-01-01T09:27:37.000Z</time>
      </trkpt>
      <trkpt lat="47.53271" lon="6.63085">
        <ele>442</ele>
        <time>2016-01-01T09:27:38.000Z</time>
      </trkpt>
      <trkpt lat="47.53268" lon="6.63084">
        <ele>442</ele>
        <time>2016-01-01T09:27:39.000Z</time>
      </trkpt>
      <trkpt lat="47.53266" lon="6.63082">
        <ele>447</ele>
        <time>2016-01-01T09:27:40.000Z</time>
      </trkpt>
      <trkpt lat="47.53264" lon="6.6308">
        <ele>447</ele>
        <time>2016-01-01T09:27:41.000Z</time>
      </trkpt>
      <trkpt lat="47.53262" lon="6.63077">
        <ele>447</ele>
        <time>2016-01-01T09:27:42.000Z</time>
      </trkpt>
      <trkpt lat="47.53259" lon="6.63074">
        <ele>447</ele>
        <time>2016-01-01T09:27:43.000Z</time>
      </trkpt>
      <trkpt lat="47.53257" lon="6.63071">
        <ele>447</ele>
        <time>2016-01-01T09:27:44.000Z</time>
      </trkpt>
      <trkpt lat="47.53255" lon="6.63068">
        <ele>447</ele>
        <time>2016-01-01T09:27:45.000Z</time>
      </trkpt>
      <trkpt lat="47.53253" lon="6.63065">
        <ele>447</ele>
        <time>2016-01-01T09:27:46.000Z</time>
      </trkpt>
      <trkpt lat="47.5325" lon="6.63062">
        <ele>445</ele>
        <time>2016-01-01T09:27:47.000Z</time>
      </trkpt>
      <trkpt lat="47.53248" lon="6.63059">
        <ele>445</ele>
        <time>2016-01-01T09:27:48.000Z</time>
      </trkpt>
      <trkpt lat="47.53245" lon="6.63056">
        <ele>446</ele>
        <time>2016-01-01T09:27:49.000Z</time>
      </trkpt>
      <trkpt lat="47.53243" lon="6.63053">
        <ele>446</ele>
        <time>2016-01-01T09:27:50.000Z</time>
      </trkpt>
      <trkpt lat="47.5324" lon="6.6305">
        <ele>446</ele>
        <time>2016-01-01T09:27:51.000Z</time>
      </trkpt>
      <trkpt lat="47.53238" lon="6.63047">
        <ele>446</ele>
        <time>2016-01-01T09:27:52.000Z</time>
      </trkpt>
      <trkpt lat="47.53236" lon="6.63044">
        <ele>446</ele>
        <time>2016-01-01T09:27:53.000Z</time>
      </trkpt>
      <trkpt lat="47.53234" lon="6.6304">
        <ele>446</ele>
        <time>2016-01-01T09:27:54.000Z</time>
      </trkpt>
      <trkpt lat="47.53232" lon="6.63036">
        <ele>447</ele>
        <time>2016-01-01T09:27:55.000Z</time>
      </trkpt>
      <trkpt lat="47.53229" lon="6.63032">
        <ele>447</ele>
        <time>2016-01-01T09:27:56.000Z</time>
      </trkpt>
      <trkpt lat="47.53227" lon="6.63028">
        <ele>447</ele>
        <time>2016-01-01T09:27:57.000Z</time>
      </trkpt>
      <trkpt lat="47.53226" lon="6.63025">
        <ele>447</ele>
        <time>2016-01-01T09:27:58.000Z</time>
      </trkpt>
      <trkpt lat="47.53224" lon="6.63021">
        <ele>447</ele>
        <time>2016-01-01T09:27:59.000Z</time>
      </trkpt>
      <trkpt lat="47.53222" lon="6.63017">
        <ele>447</ele>
        <time>2016-01-01T09:28:00.000Z</time>
      </trkpt>
      <trkpt lat="47.5322" lon="6.63014">
        <ele>447</ele>
        <time>2016-01-01T09:28:01.000Z</time>
      </trkpt>
      <trkpt lat="47.53218" lon="6.6301">
        <ele>447</ele>
        <time>2016-01-01T09:28:02.000Z</time>
      </trkpt>
      <trkpt lat="47.53216" lon="6.63007">
        <ele>447</ele>
        <time>2016-01-01T09:28:03.000Z</time>
      </trkpt>
      <trkpt lat="47.53214" lon="6.63004">
        <ele>447</ele>
        <time>2016-01-01T09:28:04.000Z</time>
      </trkpt>
      <trkpt lat="47.53212" lon="6.63001">
        <ele>447</ele>
        <time>2016-01-01T09:28:05.000Z</time>
      </trkpt>
      <trkpt lat="47.53211" lon="6.62997">
        <ele>452</ele>
        <time>2016-01-01T09:28:06.000Z</time>
      </trkpt>
      <trkpt lat="47.53209" lon="6.62993">
        <ele>452</ele>
        <time>2016-01-01T09:28:07.000Z</time>
      </trkpt>
      <trkpt lat="47.53208" lon="6.62989">
        <ele>452</ele>
        <time>2016-01-01T09:28:08.000Z</time>
      </trkpt>
      <trkpt lat="47.53206" lon="6.62985">
        <ele>452</ele>
        <time>2016-01-01T09:28:09.000Z</time>
      </trkpt>
      <trkpt lat="47.53205" lon="6.62982">
        <ele>452</ele>
        <time>2016-01-01T09:28:10.000Z</time>
      </trkpt>
      <trkpt lat="47.53203" lon="6.62978">
        <ele>452</ele>
        <time>2016-01-01T09:28:11.000Z</time>
      </trkpt>
      <trkpt lat="47.53202" lon="6.62975">
        <ele>452</ele>
        <time>2016-01-01T09:28:12.000Z</time>
      </trkpt>
      <trkpt lat="47.53201" lon="6.62971">
        <ele>452</ele>
        <time>2016-01-01T09:28:13.000Z</time>
      </trkpt>
      <trkpt lat="47.53199" lon="6.62967">
        <ele>452</ele>
        <time>2016-01-01T09:28:14.000Z</time>
      </trkpt>
      <trkpt lat="47.53198" lon="6.62963">
        <ele>452</ele>
        <time>2016-01-01T09:28:15.000Z</time>
      </trkpt>
      <trkpt lat="47.53197" lon="6.6296">
        <ele>452</ele>
        <time>2016-01-01T09:28:16.000Z</time>
      </trkpt>
      <trkpt lat="47.53196" lon="6.62956">
        <ele>452</ele>
        <time>2016-01-01T09:28:17.000Z</time>
      </trkpt>
      <trkpt lat="47.53195" lon="6.62954">
        <ele>452</ele>
        <time>2016-01-01T09:28:18.000Z</time>
      </trkpt>
      <trkpt lat="47.53194" lon="6.6295">
        <ele>452</ele>
        <time>2016-01-01T09:28:19.000Z</time>
      </trkpt>
      <trkpt lat="47.53192" lon="6.62947">
        <ele>452</ele>
        <time>2016-01-01T09:28:19.998Z</time>
      </trkpt>
      <trkpt lat="47.53191" lon="6.62944">
        <ele>452</ele>
        <time>2016-01-01T09:28:21.000Z</time>
      </trkpt>
      <trkpt lat="47.5319" lon="6.62941">
        <ele>452</ele>
        <time>2016-01-01T09:28:22.000Z</time>
      </trkpt>
      <trkpt lat="47.5319" lon="6.62937">
        <ele>452</ele>
        <time>2016-01-01T09:28:23.000Z</time>
      </trkpt>
      <trkpt lat="47.5319" lon="6.62933">
        <ele>453</ele>
        <time>2016-01-01T09:28:24.000Z</time>
      </trkpt>
      <trkpt lat="47.5319" lon="6.6293">
        <ele>453</ele>
        <time>2016-01-01T09:28:25.000Z</time>
      </trkpt>
      <trkpt lat="47.53189" lon="6.62927">
        <ele>453</ele>
        <time>2016-01-01T09:28:26.000Z</time>
      </trkpt>
      <trkpt lat="47.53188" lon="6.62923">
        <ele>453</ele>
        <time>2016-01-01T09:28:27.000Z</time>
      </trkpt>
      <trkpt lat="47.53187" lon="6.6292">
        <ele>453</ele>
        <time>2016-01-01T09:28:28.000Z</time>
      </trkpt>
      <trkpt lat="47.53185" lon="6.62917">
        <ele>453</ele>
        <time>2016-01-01T09:28:29.000Z</time>
      </trkpt>
      <trkpt lat="47.53184" lon="6.62913">
        <ele>455</ele>
        <time>2016-01-01T09:28:30.000Z</time>
      </trkpt>
      <trkpt lat="47.53184" lon="6.62909">
        <ele>455</ele>
        <time>2016-01-01T09:28:31.000Z</time>
      </trkpt>
      <trkpt lat="47.53183" lon="6.62906">
        <ele>455</ele>
        <time>2016-01-01T09:28:32.000Z</time>
      </trkpt>
      <trkpt lat="47.53183" lon="6.62902">
        <ele>455</ele>
        <time>2016-01-01T09:28:33.000Z</time>
      </trkpt>
      <trkpt lat="47.53182" lon="6.62898">
        <ele>455</ele>
        <time>2016-01-01T09:28:34.000Z</time>
      </trkpt>
      <trkpt lat="47.53181" lon="6.62894">
        <ele>456</ele>
        <time>2016-01-01T09:28:35.000Z</time>
      </trkpt>
      <trkpt lat="47.5318" lon="6.6289">
        <ele>456</ele>
        <time>2016-01-01T09:28:36.000Z</time>
      </trkpt>
      <trkpt lat="47.53179" lon="6.62887">
        <ele>456</ele>
        <time>2016-01-01T09:28:37.000Z</time>
      </trkpt>
      <trkpt lat="47.53178" lon="6.62884">
        <ele>456</ele>
        <time>2016-01-01T09:28:38.000Z</time>
      </trkpt>
      <trkpt lat="47.53177" lon="6.6288">
        <ele>456</ele>
        <time>2016-01-01T09:28:39.000Z</time>
      </trkpt>
      <trkpt lat="47.53175" lon="6.62877">
        <ele>456</ele>
        <time>2016-01-01T09:28:40.000Z</time>
      </trkpt>
      <trkpt lat="47.53172" lon="6.62872">
        <ele>456</ele>
        <time>2016-01-01T09:28:42.000Z</time>
      </trkpt>
      <trkpt lat="47.5317" lon="6.6287">
        <ele>456</ele>
        <time>2016-01-01T09:28:43.000Z</time>
      </trkpt>
      <trkpt lat="47.53167" lon="6.62867">
        <ele>456</ele>
        <time>2016-01-01T09:28:45.000Z</time>
      </trkpt>
      <trkpt lat="47.53165" lon="6.62865">
        <ele>451</ele>
        <time>2016-01-01T09:28:46.000Z</time>
      </trkpt>
      <trkpt lat="47.53163" lon="6.62864">
        <ele>451</ele>
        <time>2016-01-01T09:28:47.000Z</time>
      </trkpt>
      <trkpt lat="47.5316" lon="6.62862">
        <ele>451</ele>
        <time>2016-01-01T09:28:48.000Z</time>
      </trkpt>
      <trkpt lat="47.53158" lon="6.6286">
        <ele>451</ele>
        <time>2016-01-01T09:28:49.000Z</time>
      </trkpt>
      <trkpt lat="47.53155" lon="6.62858">
        <ele>451</ele>
        <time>2016-01-01T09:28:50.000Z</time>
      </trkpt>
      <trkpt lat="47.53152" lon="6.62855">
        <ele>451</ele>
        <time>2016-01-01T09:28:51.000Z</time>
      </trkpt>
      <trkpt lat="47.53149" lon="6.62851">
        <ele>451</ele>
        <time>2016-01-01T09:28:52.000Z</time>
      </trkpt>
      <trkpt lat="47.53147" lon="6.62847">
        <ele>451</ele>
        <time>2016-01-01T09:28:53.000Z</time>
      </trkpt>
      <trkpt lat="47.53144" lon="6.62843">
        <ele>451</ele>
        <time>2016-01-01T09:28:54.000Z</time>
      </trkpt>
      <trkpt lat="47.53141" lon="6.62839">
        <ele>451</ele>
        <time>2016-01-01T09:28:55.000Z</time>
      </trkpt>
      <trkpt lat="47.53139" lon="6.62835">
        <ele>451</ele>
        <time>2016-01-01T09:28:56.000Z</time>
      </trkpt>
      <trkpt lat="47.53136" lon="6.62832">
        <ele>454</ele>
        <time>2016-01-01T09:28:57.000Z</time>
      </trkpt>
      <trkpt lat="47.53133" lon="6.62829">
        <ele>453</ele>
        <time>2016-01-01T09:28:58.000Z</time>
      </trkpt>
      <trkpt lat="47.5313" lon="6.62825">
        <ele>453</ele>
        <time>2016-01-01T09:28:59.000Z</time>
      </trkpt>
      <trkpt lat="47.53128" lon="6.62821">
        <ele>453</ele>
        <time>2016-01-01T09:29:00.000Z</time>
      </trkpt>
      <trkpt lat="47.53126" lon="6.62818">
        <ele>453</ele>
        <time>2016-01-01T09:29:01.000Z</time>
      </trkpt>
      <trkpt lat="47.53124" lon="6.62814">
        <ele>453</ele>
        <time>2016-01-01T09:29:02.000Z</time>
      </trkpt>
      <trkpt lat="47.53122" lon="6.6281">
        <ele>453</ele>
        <time>2016-01-01T09:29:03.000Z</time>
      </trkpt>
      <trkpt lat="47.53121" lon="6.62805">
        <ele>453</ele>
        <time>2016-01-01T09:29:04.000Z</time>
      </trkpt>
      <trkpt lat="47.53119" lon="6.62801">
        <ele>453</ele>
        <time>2016-01-01T09:29:05.000Z</time>
      </trkpt>
      <trkpt lat="47.53118" lon="6.62797">
        <ele>453</ele>
        <time>2016-01-01T09:29:06.000Z</time>
      </trkpt>
      <trkpt lat="47.53116" lon="6.62793">
        <ele>453</ele>
        <time>2016-01-01T09:29:07.000Z</time>
      </trkpt>
      <trkpt lat="47.53114" lon="6.62789">
        <ele>454</ele>
        <time>2016-01-01T09:29:08.000Z</time>
      </trkpt>
      <trkpt lat="47.53112" lon="6.62785">
        <ele>454</ele>
        <time>2016-01-01T09:29:09.000Z</time>
      </trkpt>
      <trkpt lat="47.5311" lon="6.62781">
        <ele>454</ele>
        <time>2016-01-01T09:29:10.000Z</time>
      </trkpt>
      <trkpt lat="47.53108" lon="6.62776">
        <ele>454</ele>
        <time>2016-01-01T09:29:11.000Z</time>
      </trkpt>
      <trkpt lat="47.53106" lon="6.62772">
        <ele>454</ele>
        <time>2016-01-01T09:29:12.000Z</time>
      </trkpt>
      <trkpt lat="47.53105" lon="6.62768">
        <ele>453</ele>
        <time>2016-01-01T09:29:13.000Z</time>
      </trkpt>
      <trkpt lat="47.53103" lon="6.62763">
        <ele>453</ele>
        <time>2016-01-01T09:29:14.000Z</time>
      </trkpt>
      <trkpt lat="47.53102" lon="6.62759">
        <ele>453</ele>
        <time>2016-01-01T09:29:15.000Z</time>
      </trkpt>
      <trkpt lat="47.531" lon="6.62755">
        <ele>453</ele>
        <time>2016-01-01T09:29:16.000Z</time>
      </trkpt>
      <trkpt lat="47.53099" lon="6.6275">
        <ele>453</ele>
        <time>2016-01-01T09:29:17.000Z</time>
      </trkpt>
      <trkpt lat="47.53098" lon="6.62746">
        <ele>455</ele>
        <time>2016-01-01T09:29:18.000Z</time>
      </trkpt>
      <trkpt lat="47.53096" lon="6.62742">
        <ele>455</ele>
        <time>2016-01-01T09:29:19.000Z</time>
      </trkpt>
      <trkpt lat="47.53095" lon="6.62738">
        <ele>456</ele>
        <time>2016-01-01T09:29:20.000Z</time>
      </trkpt>
      <trkpt lat="47.53094" lon="6.62734">
        <ele>456</ele>
        <time>2016-01-01T09:29:21.000Z</time>
      </trkpt>
      <trkpt lat="47.53093" lon="6.6273">
        <ele>456</ele>
        <time>2016-01-01T09:29:22.000Z</time>
      </trkpt>
      <trkpt lat="47.53092" lon="6.62725">
        <ele>457</ele>
        <time>2016-01-01T09:29:23.000Z</time>
      </trkpt>
      <trkpt lat="47.53092" lon="6.6272">
        <ele>457</ele>
        <time>2016-01-01T09:29:24.000Z</time>
      </trkpt>
      <trkpt lat="47.53091" lon="6.62716">
        <ele>457</ele>
        <time>2016-01-01T09:29:25.000Z</time>
      </trkpt>
      <trkpt lat="47.53091" lon="6.62711">
        <ele>458</ele>
        <time>2016-01-01T09:29:26.000Z</time>
      </trkpt>
      <trkpt lat="47.5309" lon="6.62707">
        <ele>458</ele>
        <time>2016-01-01T09:29:27.000Z</time>
      </trkpt>
      <trkpt lat="47.5309" lon="6.62703">
        <ele>458</ele>
        <time>2016-01-01T09:29:28.000Z</time>
      </trkpt>
      <trkpt lat="47.53089" lon="6.62699">
        <ele>458</ele>
        <time>2016-01-01T09:29:29.000Z</time>
      </trkpt>
      <trkpt lat="47.53089" lon="6.62695">
        <ele>458</ele>
        <time>2016-01-01T09:29:30.000Z</time>
      </trkpt>
      <trkpt lat="47.53089" lon="6.62691">
        <ele>458</ele>
        <time>2016-01-01T09:29:31.000Z</time>
      </trkpt>
      <trkpt lat="47.53089" lon="6.62687">
        <ele>458</ele>
        <time>2016-01-01T09:29:32.000Z</time>
      </trkpt>
      <trkpt lat="47.53089" lon="6.62683">
        <ele>458</ele>
        <time>2016-01-01T09:29:33.000Z</time>
      </trkpt>
      <trkpt lat="47.53089" lon="6.62679">
        <ele>458</ele>
        <time>2016-01-01T09:29:34.000Z</time>
      </trkpt>
      <trkpt lat="47.53089" lon="6.62675">
        <ele>458</ele>
        <time>2016-01-01T09:29:34.999Z</time>
      </trkpt>
      <trkpt lat="47.53089" lon="6.62671">
        <ele>458</ele>
        <time>2016-01-01T09:29:36.001Z</time>
      </trkpt>
      <trkpt lat="47.53089" lon="6.62667">
        <ele>458</ele>
        <time>2016-01-01T09:29:37.000Z</time>
      </trkpt>
      <trkpt lat="47.53089" lon="6.62663">
        <ele>459</ele>
        <time>2016-01-01T09:29:38.000Z</time>
      </trkpt>
      <trkpt lat="47.53089" lon="6.62659">
        <ele>459</ele>
        <time>2016-01-01T09:29:39.000Z</time>
      </trkpt>
      <trkpt lat="47.53089" lon="6.62655">
        <ele>460</ele>
        <time>2016-01-01T09:29:40.000Z</time>
      </trkpt>
      <trkpt lat="47.53089" lon="6.62651">
        <ele>460</ele>
        <time>2016-01-01T09:29:41.000Z</time>
      </trkpt>
      <trkpt lat="47.5309" lon="6.62648">
        <ele>460</ele>
        <time>2016-01-01T09:29:42.000Z</time>
      </trkpt>
      <trkpt lat="47.53091" lon="6.62642">
        <ele>461</ele>
        <time>2016-01-01T09:29:44.000Z</time>
      </trkpt>
      <trkpt lat="47.53092" lon="6.62639">
        <ele>461</ele>
        <time>2016-01-01T09:29:45.000Z</time>
      </trkpt>
      <trkpt lat="47.53093" lon="6.62635">
        <ele>461</ele>
        <time>2016-01-01T09:29:46.000Z</time>
      </trkpt>
      <trkpt lat="47.53094" lon="6.62631">
        <ele>461</ele>
        <time>2016-01-01T09:29:47.000Z</time>
      </trkpt>
      <trkpt lat="47.53094" lon="6.62627">
        <ele>461</ele>
        <time>2016-01-01T09:29:48.000Z</time>
      </trkpt>
      <trkpt lat="47.53095" lon="6.62623">
        <ele>461</ele>
        <time>2016-01-01T09:29:49.000Z</time>
      </trkpt>
      <trkpt lat="47.53095" lon="6.62619">
        <ele>461</ele>
        <time>2016-01-01T09:29:50.000Z</time>
      </trkpt>
      <trkpt lat="47.53096" lon="6.62615">
        <ele>462</ele>
        <time>2016-01-01T09:29:51.000Z</time>
      </trkpt>
      <trkpt lat="47.53096" lon="6.62611">
        <ele>462</ele>
        <time>2016-01-01T09:29:52.000Z</time>
      </trkpt>
      <trkpt lat="47.53097" lon="6.62607">
        <ele>462</ele>
        <time>2016-01-01T09:29:53.000Z</time>
      </trkpt>
      <trkpt lat="47.53098" lon="6.62603">
        <ele>461</ele>
        <time>2016-01-01T09:29:54.000Z</time>
      </trkpt>
      <trkpt lat="47.53099" lon="6.626">
        <ele>461</ele>
        <time>2016-01-01T09:29:55.000Z</time>
      </trkpt>
      <trkpt lat="47.531" lon="6.62596">
        <ele>461</ele>
        <time>2016-01-01T09:29:56.000Z</time>
      </trkpt>
      <trkpt lat="47.53101" lon="6.62592">
        <ele>461</ele>
        <time>2016-01-01T09:29:57.000Z</time>
      </trkpt>
      <trkpt lat="47.53102" lon="6.62588">
        <ele>461</ele>
        <time>2016-01-01T09:29:58.000Z</time>
      </trkpt>
      <trkpt lat="47.53102" lon="6.62584">
        <ele>461</ele>
        <time>2016-01-01T09:29:59.000Z</time>
      </trkpt>
      <trkpt lat="47.53103" lon="6.62581">
        <ele>462</ele>
        <time>2016-01-01T09:30:00.000Z</time>
      </trkpt>
      <trkpt lat="47.53104" lon="6.62577">
        <ele>463</ele>
        <time>2016-01-01T09:30:01.000Z</time>
      </trkpt>
      <trkpt lat="47.53106" lon="6.62574">
        <ele>463</ele>
        <time>2016-01-01T09:30:02.000Z</time>
      </trkpt>
      <trkpt lat="47.53107" lon="6.6257">
        <ele>463</ele>
        <time>2016-01-01T09:30:03.000Z</time>
      </trkpt>
      <trkpt lat="47.53108" lon="6.62566">
        <ele>463</ele>
        <time>2016-01-01T09:30:04.000Z</time>
      </trkpt>
      <trkpt lat="47.53109" lon="6.62562">
        <ele>463</ele>
        <time>2016-01-01T09:30:05.000Z</time>
      </trkpt>
      <trkpt lat="47.5311" lon="6.62557">
        <ele>463</ele>
        <time>2016-01-01T09:30:06.000Z</time>
      </trkpt>
      <trkpt lat="47.53111" lon="6.62553">
        <ele>463</ele>
        <time>2016-01-01T09:30:07.000Z</time>
      </trkpt>
      <trkpt lat="47.53113" lon="6.62549">
        <ele>464</ele>
        <time>2016-01-01T09:30:08.000Z</time>
      </trkpt>
      <trkpt lat="47.53114" lon="6.62546">
        <ele>464</ele>
        <time>2016-01-01T09:30:09.000Z</time>
      </trkpt>
      <trkpt lat="47.53116" lon="6.62542">
        <ele>464</ele>
        <time>2016-01-01T09:30:10.000Z</time>
      </trkpt>
      <trkpt lat="47.53117" lon="6.62537">
        <ele>464</ele>
        <time>2016-01-01T09:30:11.000Z</time>
      </trkpt>
      <trkpt lat="47.53118" lon="6.62533">
        <ele>464</ele>
        <time>2016-01-01T09:30:12.000Z</time>
      </trkpt>
      <trkpt lat="47.53119" lon="6.62529">
        <ele>464</ele>
        <time>2016-01-01T09:30:13.000Z</time>
      </trkpt>
      <trkpt lat="47.5312" lon="6.62524">
        <ele>464</ele>
        <time>2016-01-01T09:30:14.000Z</time>
      </trkpt>
      <trkpt lat="47.5312" lon="6.62519">
        <ele>464</ele>
        <time>2016-01-01T09:30:15.000Z</time>
      </trkpt>
      <trkpt lat="47.53121" lon="6.62515">
        <ele>464</ele>
        <time>2016-01-01T09:30:16.000Z</time>
      </trkpt>
      <trkpt lat="47.53121" lon="6.62511">
        <ele>464</ele>
        <time>2016-01-01T09:30:17.000Z</time>
      </trkpt>
      <trkpt lat="47.53121" lon="6.62506">
        <ele>464</ele>
        <time>2016-01-01T09:30:18.000Z</time>
      </trkpt>
      <trkpt lat="47.53122" lon="6.62501">
        <ele>464</ele>
        <time>2016-01-01T09:30:19.000Z</time>
      </trkpt>
      <trkpt lat="47.53123" lon="6.62497">
        <ele>465</ele>
        <time>2016-01-01T09:30:20.000Z</time>
      </trkpt>
      <trkpt lat="47.53124" lon="6.62493">
        <ele>465</ele>
        <time>2016-01-01T09:30:21.000Z</time>
      </trkpt>
      <trkpt lat="47.53126" lon="6.62489">
        <ele>465</ele>
        <time>2016-01-01T09:30:22.000Z</time>
      </trkpt>
      <trkpt lat="47.53128" lon="6.62485">
        <ele>465</ele>
        <time>2016-01-01T09:30:23.000Z</time>
      </trkpt>
      <trkpt lat="47.53129" lon="6.62481">
        <ele>465</ele>
        <time>2016-01-01T09:30:24.000Z</time>
      </trkpt>
      <trkpt lat="47.53131" lon="6.62478">
        <ele>465</ele>
        <time>2016-01-01T09:30:25.000Z</time>
      </trkpt>
      <trkpt lat="47.53133" lon="6.62474">
        <ele>465</ele>
        <time>2016-01-01T09:30:26.000Z</time>
      </trkpt>
      <trkpt lat="47.53135" lon="6.62471">
        <ele>465</ele>
        <time>2016-01-01T09:30:27.000Z</time>
      </trkpt>
      <trkpt lat="47.53138" lon="6.62467">
        <ele>465</ele>
        <time>2016-01-01T09:30:28.000Z</time>
      </trkpt>
      <trkpt lat="47.5314" lon="6.62465">
        <ele>465</ele>
        <time>2016-01-01T09:30:29.000Z</time>
      </trkpt>
      <trkpt lat="47.53143" lon="6.62463">
        <ele>466</ele>
        <time>2016-01-01T09:30:30.000Z</time>
      </trkpt>
      <trkpt lat="47.53146" lon="6.62462">
        <ele>466</ele>
        <time>2016-01-01T09:30:31.000Z</time>
      </trkpt>
      <trkpt lat="47.53149" lon="6.62462">
        <ele>466</ele>
        <time>2016-01-01T09:30:32.000Z</time>
      </trkpt>
      <trkpt lat="47.53151" lon="6.62462">
        <ele>466</ele>
        <time>2016-01-01T09:30:33.000Z</time>
      </trkpt>
      <trkpt lat="47.53154" lon="6.62463">
        <ele>466</ele>
        <time>2016-01-01T09:30:34.000Z</time>
      </trkpt>
      <trkpt lat="47.53157" lon="6.62464">
        <ele>466</ele>
        <time>2016-01-01T09:30:35.000Z</time>
      </trkpt>
      <trkpt lat="47.53159" lon="6.62464">
        <ele>466</ele>
        <time>2016-01-01T09:30:36.000Z</time>
      </trkpt>
      <trkpt lat="47.53161" lon="6.62465">
        <ele>466</ele>
        <time>2016-01-01T09:30:37.000Z</time>
      </trkpt>
      <trkpt lat="47.53164" lon="6.62465">
        <ele>466</ele>
        <time>2016-01-01T09:30:38.000Z</time>
      </trkpt>
      <trkpt lat="47.53166" lon="6.62466">
        <ele>466</ele>
        <time>2016-01-01T09:30:39.000Z</time>
      </trkpt>
      <trkpt lat="47.53169" lon="6.62466">
        <ele>471</ele>
        <time>2016-01-01T09:30:40.000Z</time>
      </trkpt>
      <trkpt lat="47.53172" lon="6.62466">
        <ele>471</ele>
        <time>2016-01-01T09:30:41.000Z</time>
      </trkpt>
      <trkpt lat="47.53175" lon="6.62467">
        <ele>471</ele>
        <time>2016-01-01T09:30:42.000Z</time>
      </trkpt>
      <trkpt lat="47.53178" lon="6.62467">
        <ele>471</ele>
        <time>2016-01-01T09:30:43.000Z</time>
      </trkpt>
      <trkpt lat="47.5318" lon="6.62467">
        <ele>471</ele>
        <time>2016-01-01T09:30:44.000Z</time>
      </trkpt>
      <trkpt lat="47.53183" lon="6.62467">
        <ele>471</ele>
        <time>2016-01-01T09:30:45.000Z</time>
      </trkpt>
      <trkpt lat="47.53185" lon="6.62466">
        <ele>471</ele>
        <time>2016-01-01T09:30:46.000Z</time>
      </trkpt>
      <trkpt lat="47.53188" lon="6.62466">
        <ele>471</ele>
        <time>2016-01-01T09:30:47.000Z</time>
      </trkpt>
      <trkpt lat="47.5319" lon="6.62466">
        <ele>471</ele>
        <time>2016-01-01T09:30:48.000Z</time>
      </trkpt>
      <trkpt lat="47.53192" lon="6.62465">
        <ele>471</ele>
        <time>2016-01-01T09:30:49.000Z</time>
      </trkpt>
      <trkpt lat="47.53195" lon="6.62465">
        <ele>471</ele>
        <time>2016-01-01T09:30:50.000Z</time>
      </trkpt>
      <trkpt lat="47.53197" lon="6.62465">
        <ele>471</ele>
        <time>2016-01-01T09:30:51.000Z</time>
      </trkpt>
      <trkpt lat="47.53201" lon="6.62464">
        <ele>472</ele>
        <time>2016-01-01T09:30:53.000Z</time>
      </trkpt>
      <trkpt lat="47.53204" lon="6.62464">
        <ele>472</ele>
        <time>2016-01-01T09:30:54.000Z</time>
      </trkpt>
      <trkpt lat="47.53208" lon="6.62463">
        <ele>472</ele>
        <time>2016-01-01T09:30:56.000Z</time>
      </trkpt>
      <trkpt lat="47.5321" lon="6.62462">
        <ele>472</ele>
        <time>2016-01-01T09:30:57.000Z</time>
      </trkpt>
      <trkpt lat="47.53214" lon="6.62461">
        <ele>472</ele>
        <time>2016-01-01T09:30:59.000Z</time>
      </trkpt>
      <trkpt lat="47.53216" lon="6.6246">
        <ele>472</ele>
        <time>2016-01-01T09:31:00.000Z</time>
      </trkpt>
      <trkpt lat="47.5322" lon="6.62459">
        <ele>472</ele>
        <time>2016-01-01T09:31:02.000Z</time>
      </trkpt>
      <trkpt lat="47.53222" lon="6.62459">
        <ele>472</ele>
        <time>2016-01-01T09:31:03.000Z</time>
      </trkpt>
      <trkpt lat="47.53226" lon="6.62457">
        <ele>472</ele>
        <time>2016-01-01T09:31:05.000Z</time>
      </trkpt>
      <trkpt lat="47.53228" lon="6.62456">
        <ele>472</ele>
        <time>2016-01-01T09:31:06.000Z</time>
      </trkpt>
      <trkpt lat="47.53232" lon="6.62455">
        <ele>473</ele>
        <time>2016-01-01T09:31:08.000Z</time>
      </trkpt>
      <trkpt lat="47.53234" lon="6.62455">
        <ele>473</ele>
        <time>2016-01-01T09:31:09.000Z</time>
      </trkpt>
      <trkpt lat="47.53236" lon="6.62455">
        <ele>473</ele>
        <time>2016-01-01T09:31:10.000Z</time>
      </trkpt>
      <trkpt lat="47.53239" lon="6.62455">
        <ele>473</ele>
        <time>2016-01-01T09:31:11.000Z</time>
      </trkpt>
      <trkpt lat="47.53241" lon="6.62456">
        <ele>473</ele>
        <time>2016-01-01T09:31:12.000Z</time>
      </trkpt>
      <trkpt lat="47.53243" lon="6.62456">
        <ele>473</ele>
        <time>2016-01-01T09:31:13.000Z</time>
      </trkpt>
      <trkpt lat="47.53246" lon="6.62456">
        <ele>473</ele>
        <time>2016-01-01T09:31:14.000Z</time>
      </trkpt>
      <trkpt lat="47.53248" lon="6.62456">
        <ele>473</ele>
        <time>2016-01-01T09:31:15.000Z</time>
      </trkpt>
      <trkpt lat="47.53252" lon="6.62456">
        <ele>477</ele>
        <time>2016-01-01T09:31:17.000Z</time>
      </trkpt>
      <trkpt lat="47.53254" lon="6.62456">
        <ele>478</ele>
        <time>2016-01-01T09:31:18.000Z</time>
      </trkpt>
      <trkpt lat="47.53257" lon="6.62456">
        <ele>478</ele>
        <time>2016-01-01T09:31:19.000Z</time>
      </trkpt>
      <trkpt lat="47.53259" lon="6.62457">
        <ele>478</ele>
        <time>2016-01-01T09:31:20.000Z</time>
      </trkpt>
      <trkpt lat="47.53262" lon="6.62458">
        <ele>478</ele>
        <time>2016-01-01T09:31:21.000Z</time>
      </trkpt>
      <trkpt lat="47.53264" lon="6.62458">
        <ele>478</ele>
        <time>2016-01-01T09:31:22.000Z</time>
      </trkpt>
      <trkpt lat="47.53267" lon="6.62459">
        <ele>478</ele>
        <time>2016-01-01T09:31:23.000Z</time>
      </trkpt>
      <trkpt lat="47.53269" lon="6.6246">
        <ele>478</ele>
        <time>2016-01-01T09:31:24.000Z</time>
      </trkpt>
      <trkpt lat="47.53273" lon="6.62461">
        <ele>478</ele>
        <time>2016-01-01T09:31:26.000Z</time>
      </trkpt>
      <trkpt lat="47.53275" lon="6.62462">
        <ele>478</ele>
        <time>2016-01-01T09:31:27.000Z</time>
      </trkpt>
      <trkpt lat="47.53277" lon="6.62464">
        <ele>478</ele>
        <time>2016-01-01T09:31:28.000Z</time>
      </trkpt>
      <trkpt lat="47.53279" lon="6.62465">
        <ele>478</ele>
        <time>2016-01-01T09:31:29.000Z</time>
      </trkpt>
      <trkpt lat="47.53283" lon="6.62466">
        <ele>479</ele>
        <time>2016-01-01T09:31:31.000Z</time>
      </trkpt>
      <trkpt lat="47.53285" lon="6.62466">
        <ele>479</ele>
        <time>2016-01-01T09:31:32.000Z</time>
      </trkpt>
      <trkpt lat="47.5329" lon="6.62465">
        <ele>479</ele>
        <time>2016-01-01T09:31:34.000Z</time>
      </trkpt>
      <trkpt lat="47.53292" lon="6.62464">
        <ele>479</ele>
        <time>2016-01-01T09:31:35.000Z</time>
      </trkpt>
      <trkpt lat="47.53296" lon="6.62464">
        <ele>479</ele>
        <time>2016-01-01T09:31:37.000Z</time>
      </trkpt>
      <trkpt lat="47.53299" lon="6.62464">
        <ele>479</ele>
        <time>2016-01-01T09:31:38.000Z</time>
      </trkpt>
      <trkpt lat="47.53303" lon="6.62464">
        <ele>480</ele>
        <time>2016-01-01T09:31:40.000Z</time>
      </trkpt>
      <trkpt lat="47.53305" lon="6.62463">
        <ele>480</ele>
        <time>2016-01-01T09:31:41.000Z</time>
      </trkpt>
      <trkpt lat="47.53308" lon="6.6246">
        <ele>480</ele>
        <time>2016-01-01T09:31:43.000Z</time>
      </trkpt>
      <trkpt lat="47.5331" lon="6.62459">
        <ele>480</ele>
        <time>2016-01-01T09:31:44.000Z</time>
      </trkpt>
      <trkpt lat="47.53314" lon="6.62457">
        <ele>480</ele>
        <time>2016-01-01T09:31:46.000Z</time>
      </trkpt>
      <trkpt lat="47.53317" lon="6.62456">
        <ele>480</ele>
        <time>2016-01-01T09:31:47.000Z</time>
      </trkpt>
      <trkpt lat="47.53319" lon="6.62456">
        <ele>480</ele>
        <time>2016-01-01T09:31:48.000Z</time>
      </trkpt>
      <trkpt lat="47.53321" lon="6.62455">
        <ele>480</ele>
        <time>2016-01-01T09:31:49.000Z</time>
      </trkpt>
      <trkpt lat="47.53323" lon="6.62455">
        <ele>480</ele>
        <time>2016-01-01T09:31:50.000Z</time>
      </trkpt>
      <trkpt lat="47.53325" lon="6.62454">
        <ele>480</ele>
        <time>2016-01-01T09:31:51.000Z</time>
      </trkpt>
      <trkpt lat="47.5333" lon="6.62453">
        <ele>480</ele>
        <time>2016-01-01T09:31:53.000Z</time>
      </trkpt>
      <trkpt lat="47.53332" lon="6.62452">
        <ele>481</ele>
        <time>2016-01-01T09:31:54.000Z</time>
      </trkpt>
      <trkpt lat="47.53336" lon="6.6245">
        <ele>487</ele>
        <time>2016-01-01T09:31:56.000Z</time>
      </trkpt>
      <trkpt lat="47.53338" lon="6.62449">
        <ele>487</ele>
        <time>2016-01-01T09:31:57.000Z</time>
      </trkpt>
      <trkpt lat="47.53342" lon="6.62447">
        <ele>487</ele>
        <time>2016-01-01T09:31:59.000Z</time>
      </trkpt>
      <trkpt lat="47.53344" lon="6.62447">
        <ele>488</ele>
        <time>2016-01-01T09:32:00.000Z</time>
      </trkpt>
      <trkpt lat="47.53348" lon="6.62445">
        <ele>488</ele>
        <time>2016-01-01T09:32:02.000Z</time>
      </trkpt>
      <trkpt lat="47.5335" lon="6.62444">
        <ele>488</ele>
        <time>2016-01-01T09:32:03.000Z</time>
      </trkpt>
      <trkpt lat="47.53354" lon="6.62441">
        <ele>488</ele>
        <time>2016-01-01T09:32:05.000Z</time>
      </trkpt>
      <trkpt lat="47.53356" lon="6.6244">
        <ele>488</ele>
        <time>2016-01-01T09:32:06.000Z</time>
      </trkpt>
      <trkpt lat="47.53359" lon="6.62436">
        <ele>488</ele>
        <time>2016-01-01T09:32:08.000Z</time>
      </trkpt>
      <trkpt lat="47.53361" lon="6.62434">
        <ele>488</ele>
        <time>2016-01-01T09:32:09.000Z</time>
      </trkpt>
      <trkpt lat="47.53364" lon="6.6243">
        <ele>489</ele>
        <time>2016-01-01T09:32:10.999Z</time>
      </trkpt>
      <trkpt lat="47.53366" lon="6.62428">
        <ele>489</ele>
        <time>2016-01-01T09:32:12.000Z</time>
      </trkpt>
      <trkpt lat="47.53368" lon="6.62427">
        <ele>489</ele>
        <time>2016-01-01T09:32:13.000Z</time>
      </trkpt>
      <trkpt lat="47.5337" lon="6.62425">
        <ele>489</ele>
        <time>2016-01-01T09:32:14.000Z</time>
      </trkpt>
      <trkpt lat="47.53372" lon="6.62423">
        <ele>489</ele>
        <time>2016-01-01T09:32:15.000Z</time>
      </trkpt>
      <trkpt lat="47.53374" lon="6.6242">
        <ele>490</ele>
        <time>2016-01-01T09:32:16.000Z</time>
      </trkpt>
      <trkpt lat="47.53376" lon="6.62418">
        <ele>490</ele>
        <time>2016-01-01T09:32:17.000Z</time>
      </trkpt>
      <trkpt lat="47.53378" lon="6.62416">
        <ele>489</ele>
        <time>2016-01-01T09:32:18.000Z</time>
      </trkpt>
      <trkpt lat="47.5338" lon="6.62414">
        <ele>489</ele>
        <time>2016-01-01T09:32:19.000Z</time>
      </trkpt>
      <trkpt lat="47.53382" lon="6.62413">
        <ele>489</ele>
        <time>2016-01-01T09:32:20.000Z</time>
      </trkpt>
      <trkpt lat="47.53386" lon="6.6241">
        <ele>490</ele>
        <time>2016-01-01T09:32:22.000Z</time>
      </trkpt>
      <trkpt lat="47.53388" lon="6.62409">
        <ele>490</ele>
        <time>2016-01-01T09:32:23.000Z</time>
      </trkpt>
      <trkpt lat="47.5339" lon="6.62408">
        <ele>490</ele>
        <time>2016-01-01T09:32:24.000Z</time>
      </trkpt>
      <trkpt lat="47.53393" lon="6.62408">
        <ele>491</ele>
        <time>2016-01-01T09:32:25.000Z</time>
      </trkpt>
      <trkpt lat="47.53395" lon="6.62408">
        <ele>491</ele>
        <time>2016-01-01T09:32:26.000Z</time>
      </trkpt>
      <trkpt lat="47.53398" lon="6.62408">
        <ele>491</ele>
        <time>2016-01-01T09:32:27.000Z</time>
      </trkpt>
      <trkpt lat="47.534" lon="6.62409">
        <ele>492</ele>
        <time>2016-01-01T09:32:28.000Z</time>
      </trkpt>
      <trkpt lat="47.53403" lon="6.62409">
        <ele>492</ele>
        <time>2016-01-01T09:32:29.000Z</time>
      </trkpt>
      <trkpt lat="47.53405" lon="6.62409">
        <ele>493</ele>
        <time>2016-01-01T09:32:30.000Z</time>
      </trkpt>
      <trkpt lat="47.53407" lon="6.62409">
        <ele>493</ele>
        <time>2016-01-01T09:32:31.000Z</time>
      </trkpt>
      <trkpt lat="47.53411" lon="6.62408">
        <ele>493</ele>
        <time>2016-01-01T09:32:33.000Z</time>
      </trkpt>
      <trkpt lat="47.53413" lon="6.62408">
        <ele>494</ele>
        <time>2016-01-01T09:32:34.000Z</time>
      </trkpt>
      <trkpt lat="47.53417" lon="6.62406">
        <ele>496</ele>
        <time>2016-01-01T09:32:36.000Z</time>
      </trkpt>
      <trkpt lat="47.53419" lon="6.62405">
        <ele>497</ele>
        <time>2016-01-01T09:32:37.000Z</time>
      </trkpt>
      <trkpt lat="47.53422" lon="6.62404">
        <ele>497</ele>
        <time>2016-01-01T09:32:39.000Z</time>
      </trkpt>
      <trkpt lat="47.53424" lon="6.62403">
        <ele>497</ele>
        <time>2016-01-01T09:32:40.000Z</time>
      </trkpt>
      <trkpt lat="47.53428" lon="6.62403">
        <ele>497</ele>
        <time>2016-01-01T09:32:42.000Z</time>
      </trkpt>
      <trkpt lat="47.5343" lon="6.62402">
        <ele>497</ele>
        <time>2016-01-01T09:32:43.000Z</time>
      </trkpt>
      <trkpt lat="47.53432" lon="6.62402">
        <ele>497</ele>
        <time>2016-01-01T09:32:44.000Z</time>
      </trkpt>
      <trkpt lat="47.53434" lon="6.62401">
        <ele>497</ele>
        <time>2016-01-01T09:32:45.000Z</time>
      </trkpt>
      <trkpt lat="47.53436" lon="6.624">
        <ele>497</ele>
        <time>2016-01-01T09:32:46.000Z</time>
      </trkpt>
      <trkpt lat="47.53439" lon="6.62399">
        <ele>497</ele>
        <time>2016-01-01T09:32:47.000Z</time>
      </trkpt>
      <trkpt lat="47.53442" lon="6.62399">
        <ele>497</ele>
        <time>2016-01-01T09:32:48.000Z</time>
      </trkpt>
      <trkpt lat="47.53444" lon="6.62398">
        <ele>497</ele>
        <time>2016-01-01T09:32:49.000Z</time>
      </trkpt>
      <trkpt lat="47.53446" lon="6.62396">
        <ele>497</ele>
        <time>2016-01-01T09:32:50.000Z</time>
      </trkpt>
      <trkpt lat="47.53448" lon="6.62395">
        <ele>498</ele>
        <time>2016-01-01T09:32:51.000Z</time>
      </trkpt>
      <trkpt lat="47.53452" lon="6.62393">
        <ele>498</ele>
        <time>2016-01-01T09:32:53.000Z</time>
      </trkpt>
      <trkpt lat="47.53453" lon="6.62391">
        <ele>498</ele>
        <time>2016-01-01T09:32:53.997Z</time>
      </trkpt>
      <trkpt lat="47.53456" lon="6.62386">
        <ele>498</ele>
        <time>2016-01-01T09:32:59.000Z</time>
      </trkpt>
      <trkpt lat="47.53456" lon="6.62386">
        <ele>498</ele>
        <time>2016-01-01T09:33:00.000Z</time>
      </trkpt>
      <trkpt lat="47.53452" lon="6.62387">
        <ele>498</ele>
        <time>2016-01-01T09:34:45.000Z</time>
      </trkpt>
      <trkpt lat="47.53452" lon="6.62387">
        <ele>498</ele>
        <time>2016-01-01T09:34:46.000Z</time>
      </trkpt>
      <trkpt lat="47.53455" lon="6.62391">
        <ele>498</ele>
        <time>2016-01-01T09:36:12.000Z</time>
      </trkpt>
      <trkpt lat="47.53455" lon="6.62391">
        <ele>498</ele>
        <time>2016-01-01T09:36:13.000Z</time>
      </trkpt>
      <trkpt lat="47.53459" lon="6.62389">
        <ele>498</ele>
        <time>2016-01-01T09:36:58.000Z</time>
      </trkpt>
      <trkpt lat="47.53459" lon="6.62386">
        <ele>498</ele>
        <time>2016-01-01T09:36:59.000Z</time>
      </trkpt>
      <trkpt lat="47.53458" lon="6.62383">
        <ele>498</ele>
        <time>2016-01-01T09:37:00.000Z</time>
      </trkpt>
      <trkpt lat="47.53457" lon="6.6238">
        <ele>498</ele>
        <time>2016-01-01T09:37:01.000Z</time>
      </trkpt>
      <trkpt lat="47.53457" lon="6.62376">
        <ele>498</ele>
        <time>2016-01-01T09:37:02.000Z</time>
      </trkpt>
      <trkpt lat="47.53456" lon="6.62371">
        <ele>498</ele>
        <time>2016-01-01T09:37:03.000Z</time>
      </trkpt>
      <trkpt lat="47.53456" lon="6.62367">
        <ele>498</ele>
        <time>2016-01-01T09:37:04.000Z</time>
      </trkpt>
      <trkpt lat="47.53456" lon="6.62362">
        <ele>497</ele>
        <time>2016-01-01T09:37:05.000Z</time>
      </trkpt>
      <trkpt lat="47.53457" lon="6.62357">
        <ele>497</ele>
        <time>2016-01-01T09:37:06.000Z</time>
      </trkpt>
      <trkpt lat="47.53457" lon="6.62352">
        <ele>497</ele>
        <time>2016-01-01T09:37:07.000Z</time>
      </trkpt>
      <trkpt lat="47.53457" lon="6.62347">
        <ele>497</ele>
        <time>2016-01-01T09:37:08.000Z</time>
      </trkpt>
      <trkpt lat="47.53457" lon="6.62342">
        <ele>497</ele>
        <time>2016-01-01T09:37:09.000Z</time>
      </trkpt>
      <trkpt lat="47.53456" lon="6.62338">
        <ele>497</ele>
        <time>2016-01-01T09:37:10.000Z</time>
      </trkpt>
      <trkpt lat="47.53456" lon="6.62333">
        <ele>496</ele>
        <time>2016-01-01T09:37:11.000Z</time>
      </trkpt>
      <trkpt lat="47.53457" lon="6.62327">
        <ele>496</ele>
        <time>2016-01-01T09:37:12.000Z</time>
      </trkpt>
      <trkpt lat="47.53457" lon="6.62322">
        <ele>496</ele>
        <time>2016-01-01T09:37:13.000Z</time>
      </trkpt>
      <trkpt lat="47.53457" lon="6.62316">
        <ele>496</ele>
        <time>2016-01-01T09:37:14.000Z</time>
      </trkpt>
      <trkpt lat="47.53457" lon="6.6231">
        <ele>496</ele>
        <time>2016-01-01T09:37:15.000Z</time>
      </trkpt>
      <trkpt lat="47.53457" lon="6.62305">
        <ele>496</ele>
        <time>2016-01-01T09:37:16.000Z</time>
      </trkpt>
      <trkpt lat="47.53456" lon="6.62299">
        <ele>496</ele>
        <time>2016-01-01T09:37:17.000Z</time>
      </trkpt>
      <trkpt lat="47.53456" lon="6.62294">
        <ele>496</ele>
        <time>2016-01-01T09:37:18.000Z</time>
      </trkpt>
      <trkpt lat="47.53456" lon="6.62289">
        <ele>496</ele>
        <time>2016-01-01T09:37:19.000Z</time>
      </trkpt>
      <trkpt lat="47.53455" lon="6.62284">
        <ele>496</ele>
        <time>2016-01-01T09:37:20.000Z</time>
      </trkpt>
      <trkpt lat="47.53455" lon="6.62279">
        <ele>496</ele>
        <time>2016-01-01T09:37:21.000Z</time>
      </trkpt>
      <trkpt lat="47.53455" lon="6.62274">
        <ele>496</ele>
        <time>2016-01-01T09:37:22.000Z</time>
      </trkpt>
      <trkpt lat="47.53455" lon="6.62268">
        <ele>496</ele>
        <time>2016-01-01T09:37:23.000Z</time>
      </trkpt>
      <trkpt lat="47.53455" lon="6.62263">
        <ele>496</ele>
        <time>2016-01-01T09:37:24.000Z</time>
      </trkpt>
      <trkpt lat="47.53455" lon="6.62257">
        <ele>496</ele>
        <time>2016-01-01T09:37:25.000Z</time>
      </trkpt>
      <trkpt lat="47.53456" lon="6.6225">
        <ele>496</ele>
        <time>2016-01-01T09:37:26.000Z</time>
      </trkpt>
      <trkpt lat="47.53457" lon="6.62242">
        <ele>496</ele>
        <time>2016-01-01T09:37:27.000Z</time>
      </trkpt>
      <trkpt lat="47.53458" lon="6.62234">
        <ele>496</ele>
        <time>2016-01-01T09:37:28.000Z</time>
      </trkpt>
      <trkpt lat="47.53458" lon="6.62227">
        <ele>496</ele>
        <time>2016-01-01T09:37:29.000Z</time>
      </trkpt>
      <trkpt lat="47.5346" lon="6.6222">
        <ele>496</ele>
        <time>2016-01-01T09:37:30.000Z</time>
      </trkpt>
      <trkpt lat="47.53461" lon="6.62213">
        <ele>496</ele>
        <time>2016-01-01T09:37:31.000Z</time>
      </trkpt>
      <trkpt lat="47.53461" lon="6.62206">
        <ele>496</ele>
        <time>2016-01-01T09:37:32.000Z</time>
      </trkpt>
      <trkpt lat="47.53463" lon="6.622">
        <ele>497</ele>
        <time>2016-01-01T09:37:33.000Z</time>
      </trkpt>
      <trkpt lat="47.53465" lon="6.62193">
        <ele>497</ele>
        <time>2016-01-01T09:37:34.000Z</time>
      </trkpt>
      <trkpt lat="47.53467" lon="6.62186">
        <ele>497</ele>
        <time>2016-01-01T09:37:35.000Z</time>
      </trkpt>
      <trkpt lat="47.53469" lon="6.62182">
        <ele>497</ele>
        <time>2016-01-01T09:37:36.000Z</time>
      </trkpt>
      <trkpt lat="47.53471" lon="6.62177">
        <ele>497</ele>
        <time>2016-01-01T09:37:37.000Z</time>
      </trkpt>
      <trkpt lat="47.53472" lon="6.62172">
        <ele>497</ele>
        <time>2016-01-01T09:37:38.000Z</time>
      </trkpt>
      <trkpt lat="47.53473" lon="6.62166">
        <ele>497</ele>
        <time>2016-01-01T09:37:39.000Z</time>
      </trkpt>
      <trkpt lat="47.53474" lon="6.62161">
        <ele>497</ele>
        <time>2016-01-01T09:37:40.000Z</time>
      </trkpt>
      <trkpt lat="47.53476" lon="6.62156">
        <ele>497</ele>
        <time>2016-01-01T09:37:41.000Z</time>
      </trkpt>
      <trkpt lat="47.53478" lon="6.62152">
        <ele>497</ele>
        <time>2016-01-01T09:37:42.000Z</time>
      </trkpt>
      <trkpt lat="47.5348" lon="6.62146">
        <ele>497</ele>
        <time>2016-01-01T09:37:43.000Z</time>
      </trkpt>
      <trkpt lat="47.53482" lon="6.62141">
        <ele>496</ele>
        <time>2016-01-01T09:37:44.000Z</time>
      </trkpt>
      <trkpt lat="47.53484" lon="6.62135">
        <ele>496</ele>
        <time>2016-01-01T09:37:45.000Z</time>
      </trkpt>
      <trkpt lat="47.53486" lon="6.6213">
        <ele>496</ele>
        <time>2016-01-01T09:37:46.000Z</time>
      </trkpt>
      <trkpt lat="47.53489" lon="6.62125">
        <ele>496</ele>
        <time>2016-01-01T09:37:47.000Z</time>
      </trkpt>
      <trkpt lat="47.53492" lon="6.6212">
        <ele>496</ele>
        <time>2016-01-01T09:37:48.000Z</time>
      </trkpt>
      <trkpt lat="47.53494" lon="6.62115">
        <ele>496</ele>
        <time>2016-01-01T09:37:49.000Z</time>
      </trkpt>
      <trkpt lat="47.53497" lon="6.62111">
        <ele>496</ele>
        <time>2016-01-01T09:37:50.000Z</time>
      </trkpt>
      <trkpt lat="47.535" lon="6.62107">
        <ele>499</ele>
        <time>2016-01-01T09:37:51.000Z</time>
      </trkpt>
      <trkpt lat="47.53503" lon="6.62103">
        <ele>499</ele>
        <time>2016-01-01T09:37:52.000Z</time>
      </trkpt>
      <trkpt lat="47.53506" lon="6.62099">
        <ele>499</ele>
        <time>2016-01-01T09:37:53.000Z</time>
      </trkpt>
      <trkpt lat="47.53509" lon="6.62096">
        <ele>499</ele>
        <time>2016-01-01T09:37:54.000Z</time>
      </trkpt>
      <trkpt lat="47.53512" lon="6.62094">
        <ele>499</ele>
        <time>2016-01-01T09:37:55.000Z</time>
      </trkpt>
      <trkpt lat="47.53515" lon="6.62092">
        <ele>499</ele>
        <time>2016-01-01T09:37:56.000Z</time>
      </trkpt>
      <trkpt lat="47.53518" lon="6.62091">
        <ele>499</ele>
        <time>2016-01-01T09:37:57.000Z</time>
      </trkpt>
      <trkpt lat="47.53521" lon="6.6209">
        <ele>499</ele>
        <time>2016-01-01T09:37:58.000Z</time>
      </trkpt>
      <trkpt lat="47.53524" lon="6.62092">
        <ele>499</ele>
        <time>2016-01-01T09:37:59.000Z</time>
      </trkpt>
      <trkpt lat="47.53527" lon="6.62093">
        <ele>500</ele>
        <time>2016-01-01T09:38:00.000Z</time>
      </trkpt>
      <trkpt lat="47.5353" lon="6.62094">
        <ele>500</ele>
        <time>2016-01-01T09:38:01.000Z</time>
      </trkpt>
      <trkpt lat="47.53533" lon="6.62095">
        <ele>500</ele>
        <time>2016-01-01T09:38:02.000Z</time>
      </trkpt>
      <trkpt lat="47.53536" lon="6.62096">
        <ele>500</ele>
        <time>2016-01-01T09:38:03.000Z</time>
      </trkpt>
      <trkpt lat="47.53538" lon="6.62096">
        <ele>500</ele>
        <time>2016-01-01T09:38:04.000Z</time>
      </trkpt>
      <trkpt lat="47.53541" lon="6.62095">
        <ele>500</ele>
        <time>2016-01-01T09:38:05.001Z</time>
      </trkpt>
      <trkpt lat="47.53543" lon="6.62094">
        <ele>500</ele>
        <time>2016-01-01T09:38:06.002Z</time>
      </trkpt>
      <trkpt lat="47.53545" lon="6.62093">
        <ele>500</ele>
        <time>2016-01-01T09:38:07.000Z</time>
      </trkpt>
      <trkpt lat="47.53548" lon="6.62093">
        <ele>500</ele>
        <time>2016-01-01T09:38:08.000Z</time>
      </trkpt>
      <trkpt lat="47.53551" lon="6.62092">
        <ele>500</ele>
        <time>2016-01-01T09:38:09.000Z</time>
      </trkpt>
      <trkpt lat="47.53554" lon="6.62092">
        <ele>500</ele>
        <time>2016-01-01T09:38:10.000Z</time>
      </trkpt>
      <trkpt lat="47.53557" lon="6.62092">
        <ele>500</ele>
        <time>2016-01-01T09:38:11.000Z</time>
      </trkpt>
      <trkpt lat="47.53561" lon="6.62092">
        <ele>500</ele>
        <time>2016-01-01T09:38:12.000Z</time>
      </trkpt>
      <trkpt lat="47.53563" lon="6.62091">
        <ele>500</ele>
        <time>2016-01-01T09:38:13.000Z</time>
      </trkpt>
      <trkpt lat="47.53566" lon="6.62091">
        <ele>500</ele>
        <time>2016-01-01T09:38:14.000Z</time>
      </trkpt>
      <trkpt lat="47.53569" lon="6.6209">
        <ele>500</ele>
        <time>2016-01-01T09:38:15.000Z</time>
      </trkpt>
      <trkpt lat="47.53572" lon="6.62089">
        <ele>500</ele>
        <time>2016-01-01T09:38:16.000Z</time>
      </trkpt>
      <trkpt lat="47.53575" lon="6.62088">
        <ele>500</ele>
        <time>2016-01-01T09:38:17.001Z</time>
      </trkpt>
      <trkpt lat="47.53578" lon="6.62087">
        <ele>500</ele>
        <time>2016-01-01T09:38:18.000Z</time>
      </trkpt>
      <trkpt lat="47.53581" lon="6.62086">
        <ele>500</ele>
        <time>2016-01-01T09:38:19.001Z</time>
      </trkpt>
      <trkpt lat="47.53584" lon="6.62085">
        <ele>501</ele>
        <time>2016-01-01T09:38:20.000Z</time>
      </trkpt>
      <trkpt lat="47.53587" lon="6.62085">
        <ele>501</ele>
        <time>2016-01-01T09:38:21.000Z</time>
      </trkpt>
      <trkpt lat="47.5359" lon="6.62084">
        <ele>502</ele>
        <time>2016-01-01T09:38:22.000Z</time>
      </trkpt>
      <trkpt lat="47.53593" lon="6.62083">
        <ele>502</ele>
        <time>2016-01-01T09:38:23.000Z</time>
      </trkpt>
      <trkpt lat="47.53596" lon="6.62082">
        <ele>502</ele>
        <time>2016-01-01T09:38:24.000Z</time>
      </trkpt>
      <trkpt lat="47.53599" lon="6.62082">
        <ele>503</ele>
        <time>2016-01-01T09:38:25.000Z</time>
      </trkpt>
      <trkpt lat="47.53602" lon="6.62081">
        <ele>503</ele>
        <time>2016-01-01T09:38:26.000Z</time>
      </trkpt>
      <trkpt lat="47.53605" lon="6.6208">
        <ele>504</ele>
        <time>2016-01-01T09:38:27.000Z</time>
      </trkpt>
      <trkpt lat="47.53608" lon="6.62079">
        <ele>504</ele>
        <time>2016-01-01T09:38:28.000Z</time>
      </trkpt>
      <trkpt lat="47.53611" lon="6.62079">
        <ele>504</ele>
        <time>2016-01-01T09:38:29.000Z</time>
      </trkpt>
      <trkpt lat="47.53614" lon="6.62078">
        <ele>505</ele>
        <time>2016-01-01T09:38:29.999Z</time>
      </trkpt>
      <trkpt lat="47.53617" lon="6.62078">
        <ele>505</ele>
        <time>2016-01-01T09:38:31.000Z</time>
      </trkpt>
      <trkpt lat="47.5362" lon="6.62078">
        <ele>505</ele>
        <time>2016-01-01T09:38:32.000Z</time>
      </trkpt>
      <trkpt lat="47.53623" lon="6.62077">
        <ele>505</ele>
        <time>2016-01-01T09:38:33.000Z</time>
      </trkpt>
      <trkpt lat="47.53626" lon="6.62075">
        <ele>506</ele>
        <time>2016-01-01T09:38:34.000Z</time>
      </trkpt>
      <trkpt lat="47.53628" lon="6.62074">
        <ele>506</ele>
        <time>2016-01-01T09:38:35.000Z</time>
      </trkpt>
      <trkpt lat="47.53631" lon="6.62072">
        <ele>506</ele>
        <time>2016-01-01T09:38:36.000Z</time>
      </trkpt>
      <trkpt lat="47.53633" lon="6.62069">
        <ele>506</ele>
        <time>2016-01-01T09:38:37.000Z</time>
      </trkpt>
      <trkpt lat="47.53635" lon="6.62067">
        <ele>507</ele>
        <time>2016-01-01T09:38:38.000Z</time>
      </trkpt>
      <trkpt lat="47.53638" lon="6.62065">
        <ele>507</ele>
        <time>2016-01-01T09:38:39.000Z</time>
      </trkpt>
      <trkpt lat="47.5364" lon="6.62063">
        <ele>507</ele>
        <time>2016-01-01T09:38:40.001Z</time>
      </trkpt>
      <trkpt lat="47.53643" lon="6.6206">
        <ele>507</ele>
        <time>2016-01-01T09:38:41.000Z</time>
      </trkpt>
      <trkpt lat="47.53645" lon="6.62057">
        <ele>507</ele>
        <time>2016-01-01T09:38:42.000Z</time>
      </trkpt>
      <trkpt lat="47.53647" lon="6.62053">
        <ele>507</ele>
        <time>2016-01-01T09:38:43.000Z</time>
      </trkpt>
      <trkpt lat="47.53649" lon="6.6205">
        <ele>507</ele>
        <time>2016-01-01T09:38:44.000Z</time>
      </trkpt>
      <trkpt lat="47.53651" lon="6.62046">
        <ele>507</ele>
        <time>2016-01-01T09:38:45.000Z</time>
      </trkpt>
      <trkpt lat="47.53653" lon="6.62043">
        <ele>507</ele>
        <time>2016-01-01T09:38:45.999Z</time>
      </trkpt>
      <trkpt lat="47.53654" lon="6.62039">
        <ele>507</ele>
        <time>2016-01-01T09:38:47.000Z</time>
      </trkpt>
      <trkpt lat="47.53656" lon="6.62036">
        <ele>507</ele>
        <time>2016-01-01T09:38:48.000Z</time>
      </trkpt>
      <trkpt lat="47.53658" lon="6.62033">
        <ele>507</ele>
        <time>2016-01-01T09:38:49.000Z</time>
      </trkpt>
      <trkpt lat="47.5366" lon="6.62031">
        <ele>507</ele>
        <time>2016-01-01T09:38:50.000Z</time>
      </trkpt>
      <trkpt lat="47.53663" lon="6.62028">
        <ele>507</ele>
        <time>2016-01-01T09:38:51.000Z</time>
      </trkpt>
      <trkpt lat="47.53665" lon="6.62026">
        <ele>507</ele>
        <time>2016-01-01T09:38:52.000Z</time>
      </trkpt>
      <trkpt lat="47.53667" lon="6.62023">
        <ele>512</ele>
        <time>2016-01-01T09:38:52.998Z</time>
      </trkpt>
      <trkpt lat="47.53669" lon="6.62021">
        <ele>512</ele>
        <time>2016-01-01T09:38:54.000Z</time>
      </trkpt>
      <trkpt lat="47.53672" lon="6.62018">
        <ele>512</ele>
        <time>2016-01-01T09:38:55.000Z</time>
      </trkpt>
      <trkpt lat="47.53674" lon="6.62016">
        <ele>512</ele>
        <time>2016-01-01T09:38:56.000Z</time>
      </trkpt>
      <trkpt lat="47.53677" lon="6.62014">
        <ele>512</ele>
        <time>2016-01-01T09:38:56.999Z</time>
      </trkpt>
      <trkpt lat="47.53679" lon="6.6201">
        <ele>512</ele>
        <time>2016-01-01T09:38:58.000Z</time>
      </trkpt>
      <trkpt lat="47.53682" lon="6.62006">
        <ele>512</ele>
        <time>2016-01-01T09:38:59.000Z</time>
      </trkpt>
      <trkpt lat="47.53684" lon="6.62003">
        <ele>512</ele>
        <time>2016-01-01T09:39:00.000Z</time>
      </trkpt>
      <trkpt lat="47.53686" lon="6.61999">
        <ele>512</ele>
        <time>2016-01-01T09:39:01.000Z</time>
      </trkpt>
      <trkpt lat="47.53688" lon="6.61995">
        <ele>512</ele>
        <time>2016-01-01T09:39:02.000Z</time>
      </trkpt>
      <trkpt lat="47.5369" lon="6.61992">
        <ele>513</ele>
        <time>2016-01-01T09:39:03.000Z</time>
      </trkpt>
      <trkpt lat="47.53693" lon="6.61988">
        <ele>513</ele>
        <time>2016-01-01T09:39:04.000Z</time>
      </trkpt>
      <trkpt lat="47.53695" lon="6.61985">
        <ele>513</ele>
        <time>2016-01-01T09:39:04.999Z</time>
      </trkpt>
      <trkpt lat="47.53698" lon="6.61983">
        <ele>514</ele>
        <time>2016-01-01T09:39:06.000Z</time>
      </trkpt>
      <trkpt lat="47.53701" lon="6.6198">
        <ele>514</ele>
        <time>2016-01-01T09:39:07.000Z</time>
      </trkpt>
      <trkpt lat="47.53704" lon="6.61978">
        <ele>514</ele>
        <time>2016-01-01T09:39:08.000Z</time>
      </trkpt>
      <trkpt lat="47.53707" lon="6.61976">
        <ele>514</ele>
        <time>2016-01-01T09:39:09.000Z</time>
      </trkpt>
      <trkpt lat="47.53709" lon="6.61973">
        <ele>514</ele>
        <time>2016-01-01T09:39:10.000Z</time>
      </trkpt>
      <trkpt lat="47.53711" lon="6.6197">
        <ele>515</ele>
        <time>2016-01-01T09:39:11.000Z</time>
      </trkpt>
      <trkpt lat="47.53713" lon="6.61967">
        <ele>515</ele>
        <time>2016-01-01T09:39:12.000Z</time>
      </trkpt>
      <trkpt lat="47.53715" lon="6.61964">
        <ele>515</ele>
        <time>2016-01-01T09:39:12.999Z</time>
      </trkpt>
      <trkpt lat="47.53718" lon="6.61961">
        <ele>515</ele>
        <time>2016-01-01T09:39:14.000Z</time>
      </trkpt>
      <trkpt lat="47.5372" lon="6.61959">
        <ele>515</ele>
        <time>2016-01-01T09:39:15.000Z</time>
      </trkpt>
      <trkpt lat="47.53722" lon="6.61956">
        <ele>515</ele>
        <time>2016-01-01T09:39:16.001Z</time>
      </trkpt>
      <trkpt lat="47.53725" lon="6.61954">
        <ele>515</ele>
        <time>2016-01-01T09:39:17.000Z</time>
      </trkpt>
      <trkpt lat="47.53727" lon="6.6195">
        <ele>516</ele>
        <time>2016-01-01T09:39:18.000Z</time>
      </trkpt>
      <trkpt lat="47.53729" lon="6.61948">
        <ele>516</ele>
        <time>2016-01-01T09:39:19.000Z</time>
      </trkpt>
      <trkpt lat="47.53732" lon="6.61945">
        <ele>516</ele>
        <time>2016-01-01T09:39:20.000Z</time>
      </trkpt>
      <trkpt lat="47.53734" lon="6.61943">
        <ele>516</ele>
        <time>2016-01-01T09:39:21.000Z</time>
      </trkpt>
      <trkpt lat="47.53737" lon="6.61941">
        <ele>516</ele>
        <time>2016-01-01T09:39:22.000Z</time>
      </trkpt>
      <trkpt lat="47.5374" lon="6.61939">
        <ele>516</ele>
        <time>2016-01-01T09:39:23.000Z</time>
      </trkpt>
      <trkpt lat="47.53743" lon="6.61937">
        <ele>517</ele>
        <time>2016-01-01T09:39:24.000Z</time>
      </trkpt>
      <trkpt lat="47.53745" lon="6.61934">
        <ele>517</ele>
        <time>2016-01-01T09:39:25.000Z</time>
      </trkpt>
      <trkpt lat="47.53748" lon="6.61932">
        <ele>517</ele>
        <time>2016-01-01T09:39:26.000Z</time>
      </trkpt>
      <trkpt lat="47.5375" lon="6.6193">
        <ele>519</ele>
        <time>2016-01-01T09:39:27.000Z</time>
      </trkpt>
      <trkpt lat="47.53753" lon="6.61928">
        <ele>519</ele>
        <time>2016-01-01T09:39:27.999Z</time>
      </trkpt>
      <trkpt lat="47.53755" lon="6.61925">
        <ele>519</ele>
        <time>2016-01-01T09:39:29.000Z</time>
      </trkpt>
      <trkpt lat="47.53758" lon="6.61923">
        <ele>519</ele>
        <time>2016-01-01T09:39:30.001Z</time>
      </trkpt>
      <trkpt lat="47.5376" lon="6.6192">
        <ele>519</ele>
        <time>2016-01-01T09:39:31.000Z</time>
      </trkpt>
      <trkpt lat="47.53763" lon="6.61917">
        <ele>519</ele>
        <time>2016-01-01T09:39:32.000Z</time>
      </trkpt>
      <trkpt lat="47.53765" lon="6.61913">
        <ele>519</ele>
        <time>2016-01-01T09:39:33.000Z</time>
      </trkpt>
      <trkpt lat="47.53768" lon="6.61909">
        <ele>519</ele>
        <time>2016-01-01T09:39:34.000Z</time>
      </trkpt>
      <trkpt lat="47.5377" lon="6.61905">
        <ele>519</ele>
        <time>2016-01-01T09:39:35.000Z</time>
      </trkpt>
      <trkpt lat="47.53773" lon="6.619">
        <ele>518</ele>
        <time>2016-01-01T09:39:36.000Z</time>
      </trkpt>
      <trkpt lat="47.53776" lon="6.61896">
        <ele>518</ele>
        <time>2016-01-01T09:39:37.000Z</time>
      </trkpt>
      <trkpt lat="47.53778" lon="6.61891">
        <ele>518</ele>
        <time>2016-01-01T09:39:38.000Z</time>
      </trkpt>
      <trkpt lat="47.53781" lon="6.61887">
        <ele>518</ele>
        <time>2016-01-01T09:39:39.000Z</time>
      </trkpt>
      <trkpt lat="47.53785" lon="6.61883">
        <ele>518</ele>
        <time>2016-01-01T09:39:40.000Z</time>
      </trkpt>
      <trkpt lat="47.53788" lon="6.61879">
        <ele>518</ele>
        <time>2016-01-01T09:39:41.000Z</time>
      </trkpt>
      <trkpt lat="47.53791" lon="6.61875">
        <ele>518</ele>
        <time>2016-01-01T09:39:42.000Z</time>
      </trkpt>
      <trkpt lat="47.53794" lon="6.61872">
        <ele>518</ele>
        <time>2016-01-01T09:39:43.000Z</time>
      </trkpt>
      <trkpt lat="47.53796" lon="6.61869">
        <ele>518</ele>
        <time>2016-01-01T09:39:44.000Z</time>
      </trkpt>
      <trkpt lat="47.53798" lon="6.61868">
        <ele>518</ele>
        <time>2016-01-01T09:39:45.000Z</time>
      </trkpt>
      <trkpt lat="47.53801" lon="6.61869">
        <ele>518</ele>
        <time>2016-01-01T09:39:48.000Z</time>
      </trkpt>
      <trkpt lat="47.53802" lon="6.61872">
        <ele>518</ele>
        <time>2016-01-01T09:39:49.000Z</time>
      </trkpt>
      <trkpt lat="47.53803" lon="6.61875">
        <ele>518</ele>
        <time>2016-01-01T09:39:50.000Z</time>
      </trkpt>
      <trkpt lat="47.53804" lon="6.61878">
        <ele>518</ele>
        <time>2016-01-01T09:39:51.000Z</time>
      </trkpt>
      <trkpt lat="47.53806" lon="6.61884">
        <ele>518</ele>
        <time>2016-01-01T09:39:53.000Z</time>
      </trkpt>
      <trkpt lat="47.53807" lon="6.61886">
        <ele>518</ele>
        <time>2016-01-01T09:39:54.000Z</time>
      </trkpt>
      <trkpt lat="47.53809" lon="6.61891">
        <ele>519</ele>
        <time>2016-01-01T09:39:56.000Z</time>
      </trkpt>
      <trkpt lat="47.53811" lon="6.61894">
        <ele>519</ele>
        <time>2016-01-01T09:39:57.000Z</time>
      </trkpt>
      <trkpt lat="47.53812" lon="6.61897">
        <ele>519</ele>
        <time>2016-01-01T09:39:58.000Z</time>
      </trkpt>
      <trkpt lat="47.53814" lon="6.619">
        <ele>519</ele>
        <time>2016-01-01T09:39:59.000Z</time>
      </trkpt>
      <trkpt lat="47.53816" lon="6.61903">
        <ele>519</ele>
        <time>2016-01-01T09:40:00.000Z</time>
      </trkpt>
      <trkpt lat="47.53818" lon="6.61907">
        <ele>519</ele>
        <time>2016-01-01T09:40:01.000Z</time>
      </trkpt>
      <trkpt lat="47.5382" lon="6.61911">
        <ele>520</ele>
        <time>2016-01-01T09:40:02.000Z</time>
      </trkpt>
      <trkpt lat="47.53821" lon="6.61916">
        <ele>520</ele>
        <time>2016-01-01T09:40:03.000Z</time>
      </trkpt>
      <trkpt lat="47.53823" lon="6.61919">
        <ele>521</ele>
        <time>2016-01-01T09:40:04.000Z</time>
      </trkpt>
      <trkpt lat="47.53825" lon="6.61923">
        <ele>521</ele>
        <time>2016-01-01T09:40:05.000Z</time>
      </trkpt>
      <trkpt lat="47.53826" lon="6.61926">
        <ele>521</ele>
        <time>2016-01-01T09:40:06.000Z</time>
      </trkpt>
      <trkpt lat="47.53828" lon="6.6193">
        <ele>521</ele>
        <time>2016-01-01T09:40:07.000Z</time>
      </trkpt>
      <trkpt lat="47.5383" lon="6.61933">
        <ele>521</ele>
        <time>2016-01-01T09:40:08.000Z</time>
      </trkpt>
      <trkpt lat="47.53832" lon="6.61936">
        <ele>521</ele>
        <time>2016-01-01T09:40:09.000Z</time>
      </trkpt>
      <trkpt lat="47.53833" lon="6.61938">
        <ele>521</ele>
        <time>2016-01-01T09:40:10.000Z</time>
      </trkpt>
      <trkpt lat="47.53835" lon="6.61941">
        <ele>521</ele>
        <time>2016-01-01T09:40:11.000Z</time>
      </trkpt>
      <trkpt lat="47.53838" lon="6.61946">
        <ele>521</ele>
        <time>2016-01-01T09:40:13.000Z</time>
      </trkpt>
      <trkpt lat="47.53839" lon="6.61948">
        <ele>521</ele>
        <time>2016-01-01T09:40:14.000Z</time>
      </trkpt>
      <trkpt lat="47.5384" lon="6.61953">
        <ele>521</ele>
        <time>2016-01-01T09:40:16.000Z</time>
      </trkpt>
      <trkpt lat="47.53842" lon="6.61956">
        <ele>521</ele>
        <time>2016-01-01T09:40:17.000Z</time>
      </trkpt>
      <trkpt lat="47.53843" lon="6.61958">
        <ele>521</ele>
        <time>2016-01-01T09:40:18.000Z</time>
      </trkpt>
      <trkpt lat="47.53844" lon="6.61962">
        <ele>521</ele>
        <time>2016-01-01T09:40:19.000Z</time>
      </trkpt>
      <trkpt lat="47.53845" lon="6.61965">
        <ele>521</ele>
        <time>2016-01-01T09:40:20.000Z</time>
      </trkpt>
      <trkpt lat="47.53846" lon="6.61969">
        <ele>521</ele>
        <time>2016-01-01T09:40:21.000Z</time>
      </trkpt>
      <trkpt lat="47.53847" lon="6.61972">
        <ele>521</ele>
        <time>2016-01-01T09:40:22.000Z</time>
      </trkpt>
      <trkpt lat="47.53847" lon="6.61976">
        <ele>521</ele>
        <time>2016-01-01T09:40:23.000Z</time>
      </trkpt>
      <trkpt lat="47.53849" lon="6.61978">
        <ele>521</ele>
        <time>2016-01-01T09:40:24.000Z</time>
      </trkpt>
      <trkpt lat="47.5385" lon="6.61981">
        <ele>521</ele>
        <time>2016-01-01T09:40:25.000Z</time>
      </trkpt>
      <trkpt lat="47.53851" lon="6.61984">
        <ele>521</ele>
        <time>2016-01-01T09:40:26.000Z</time>
      </trkpt>
      <trkpt lat="47.53853" lon="6.61987">
        <ele>521</ele>
        <time>2016-01-01T09:40:27.000Z</time>
      </trkpt>
      <trkpt lat="47.53855" lon="6.61991">
        <ele>521</ele>
        <time>2016-01-01T09:40:28.000Z</time>
      </trkpt>
      <trkpt lat="47.53857" lon="6.61995">
        <ele>521</ele>
        <time>2016-01-01T09:40:29.000Z</time>
      </trkpt>
      <trkpt lat="47.53859" lon="6.61999">
        <ele>521</ele>
        <time>2016-01-01T09:40:30.000Z</time>
      </trkpt>
      <trkpt lat="47.53861" lon="6.62003">
        <ele>522</ele>
        <time>2016-01-01T09:40:31.000Z</time>
      </trkpt>
      <trkpt lat="47.53863" lon="6.62007">
        <ele>522</ele>
        <time>2016-01-01T09:40:32.000Z</time>
      </trkpt>
      <trkpt lat="47.53865" lon="6.6201">
        <ele>522</ele>
        <time>2016-01-01T09:40:33.000Z</time>
      </trkpt>
      <trkpt lat="47.53867" lon="6.62014">
        <ele>522</ele>
        <time>2016-01-01T09:40:34.000Z</time>
      </trkpt>
      <trkpt lat="47.53868" lon="6.62017">
        <ele>522</ele>
        <time>2016-01-01T09:40:35.000Z</time>
      </trkpt>
      <trkpt lat="47.5387" lon="6.62021">
        <ele>522</ele>
        <time>2016-01-01T09:40:36.000Z</time>
      </trkpt>
      <trkpt lat="47.53871" lon="6.62024">
        <ele>522</ele>
        <time>2016-01-01T09:40:37.000Z</time>
      </trkpt>
      <trkpt lat="47.53872" lon="6.62028">
        <ele>522</ele>
        <time>2016-01-01T09:40:38.000Z</time>
      </trkpt>
      <trkpt lat="47.53873" lon="6.62032">
        <ele>522</ele>
        <time>2016-01-01T09:40:39.000Z</time>
      </trkpt>
      <trkpt lat="47.53875" lon="6.62035">
        <ele>522</ele>
        <time>2016-01-01T09:40:40.000Z</time>
      </trkpt>
      <trkpt lat="47.53877" lon="6.62038">
        <ele>522</ele>
        <time>2016-01-01T09:40:41.000Z</time>
      </trkpt>
      <trkpt lat="47.53879" lon="6.6204">
        <ele>522</ele>
        <time>2016-01-01T09:40:42.000Z</time>
      </trkpt>
      <trkpt lat="47.53881" lon="6.62043">
        <ele>523</ele>
        <time>2016-01-01T09:40:43.000Z</time>
      </trkpt>
      <trkpt lat="47.53884" lon="6.62045">
        <ele>523</ele>
        <time>2016-01-01T09:40:45.000Z</time>
      </trkpt>
      <trkpt lat="47.53886" lon="6.62046">
        <ele>523</ele>
        <time>2016-01-01T09:40:46.000Z</time>
      </trkpt>
      <trkpt lat="47.53889" lon="6.62045">
        <ele>523</ele>
        <time>2016-01-01T09:40:48.000Z</time>
      </trkpt>
      <trkpt lat="47.53891" lon="6.62044">
        <ele>523</ele>
        <time>2016-01-01T09:40:49.000Z</time>
      </trkpt>
      <trkpt lat="47.53893" lon="6.62042">
        <ele>523</ele>
        <time>2016-01-01T09:40:50.000Z</time>
      </trkpt>
      <trkpt lat="47.53895" lon="6.62041">
        <ele>522</ele>
        <time>2016-01-01T09:40:51.000Z</time>
      </trkpt>
      <trkpt lat="47.53898" lon="6.62039">
        <ele>522</ele>
        <time>2016-01-01T09:40:52.000Z</time>
      </trkpt>
      <trkpt lat="47.539" lon="6.62038">
        <ele>522</ele>
        <time>2016-01-01T09:40:53.000Z</time>
      </trkpt>
      <trkpt lat="47.53903" lon="6.62036">
        <ele>522</ele>
        <time>2016-01-01T09:40:54.000Z</time>
      </trkpt>
      <trkpt lat="47.53906" lon="6.62036">
        <ele>522</ele>
        <time>2016-01-01T09:40:55.000Z</time>
      </trkpt>
      <trkpt lat="47.53909" lon="6.62037">
        <ele>522</ele>
        <time>2016-01-01T09:40:56.000Z</time>
      </trkpt>
      <trkpt lat="47.53911" lon="6.62039">
        <ele>522</ele>
        <time>2016-01-01T09:40:57.000Z</time>
      </trkpt>
      <trkpt lat="47.53914" lon="6.62041">
        <ele>522</ele>
        <time>2016-01-01T09:40:58.000Z</time>
      </trkpt>
      <trkpt lat="47.53916" lon="6.62044">
        <ele>523</ele>
        <time>2016-01-01T09:40:59.000Z</time>
      </trkpt>
      <trkpt lat="47.53918" lon="6.62048">
        <ele>523</ele>
        <time>2016-01-01T09:41:00.000Z</time>
      </trkpt>
      <trkpt lat="47.5392" lon="6.62051">
        <ele>523</ele>
        <time>2016-01-01T09:41:01.000Z</time>
      </trkpt>
      <trkpt lat="47.53921" lon="6.62055">
        <ele>523</ele>
        <time>2016-01-01T09:41:02.000Z</time>
      </trkpt>
      <trkpt lat="47.53923" lon="6.6206">
        <ele>523</ele>
        <time>2016-01-01T09:41:03.000Z</time>
      </trkpt>
      <trkpt lat="47.53924" lon="6.62064">
        <ele>523</ele>
        <time>2016-01-01T09:41:04.000Z</time>
      </trkpt>
      <trkpt lat="47.53926" lon="6.62067">
        <ele>523</ele>
        <time>2016-01-01T09:41:05.000Z</time>
      </trkpt>
      <trkpt lat="47.53928" lon="6.6207">
        <ele>523</ele>
        <time>2016-01-01T09:41:06.000Z</time>
      </trkpt>
      <trkpt lat="47.53929" lon="6.62074">
        <ele>523</ele>
        <time>2016-01-01T09:41:07.000Z</time>
      </trkpt>
      <trkpt lat="47.53931" lon="6.62077">
        <ele>523</ele>
        <time>2016-01-01T09:41:08.000Z</time>
      </trkpt>
      <trkpt lat="47.53933" lon="6.6208">
        <ele>523</ele>
        <time>2016-01-01T09:41:09.000Z</time>
      </trkpt>
      <trkpt lat="47.53934" lon="6.62085">
        <ele>524</ele>
        <time>2016-01-01T09:41:10.000Z</time>
      </trkpt>
      <trkpt lat="47.53936" lon="6.6209">
        <ele>524</ele>
        <time>2016-01-01T09:41:11.000Z</time>
      </trkpt>
      <trkpt lat="47.53937" lon="6.62095">
        <ele>524</ele>
        <time>2016-01-01T09:41:12.000Z</time>
      </trkpt>
      <trkpt lat="47.53938" lon="6.621">
        <ele>524</ele>
        <time>2016-01-01T09:41:13.000Z</time>
      </trkpt>
      <trkpt lat="47.53938" lon="6.62104">
        <ele>523</ele>
        <time>2016-01-01T09:41:14.000Z</time>
      </trkpt>
      <trkpt lat="47.53939" lon="6.62109">
        <ele>523</ele>
        <time>2016-01-01T09:41:15.000Z</time>
      </trkpt>
      <trkpt lat="47.53939" lon="6.62113">
        <ele>523</ele>
        <time>2016-01-01T09:41:16.000Z</time>
      </trkpt>
      <trkpt lat="47.5394" lon="6.62118">
        <ele>523</ele>
        <time>2016-01-01T09:41:17.000Z</time>
      </trkpt>
      <trkpt lat="47.5394" lon="6.62123">
        <ele>523</ele>
        <time>2016-01-01T09:41:18.000Z</time>
      </trkpt>
      <trkpt lat="47.53942" lon="6.62126">
        <ele>523</ele>
        <time>2016-01-01T09:41:19.000Z</time>
      </trkpt>
      <trkpt lat="47.53944" lon="6.6213">
        <ele>523</ele>
        <time>2016-01-01T09:41:20.000Z</time>
      </trkpt>
      <trkpt lat="47.53946" lon="6.62132">
        <ele>523</ele>
        <time>2016-01-01T09:41:21.000Z</time>
      </trkpt>
      <trkpt lat="47.53949" lon="6.62134">
        <ele>523</ele>
        <time>2016-01-01T09:41:22.000Z</time>
      </trkpt>
      <trkpt lat="47.53951" lon="6.62136">
        <ele>523</ele>
        <time>2016-01-01T09:41:23.000Z</time>
      </trkpt>
      <trkpt lat="47.53954" lon="6.62138">
        <ele>523</ele>
        <time>2016-01-01T09:41:24.000Z</time>
      </trkpt>
      <trkpt lat="47.53957" lon="6.6214">
        <ele>523</ele>
        <time>2016-01-01T09:41:25.000Z</time>
      </trkpt>
      <trkpt lat="47.53959" lon="6.62142">
        <ele>523</ele>
        <time>2016-01-01T09:41:26.000Z</time>
      </trkpt>
      <trkpt lat="47.53962" lon="6.62144">
        <ele>523</ele>
        <time>2016-01-01T09:41:27.000Z</time>
      </trkpt>
      <trkpt lat="47.53964" lon="6.62147">
        <ele>523</ele>
        <time>2016-01-01T09:41:28.000Z</time>
      </trkpt>
      <trkpt lat="47.53965" lon="6.62151">
        <ele>523</ele>
        <time>2016-01-01T09:41:29.000Z</time>
      </trkpt>
      <trkpt lat="47.53967" lon="6.62154">
        <ele>523</ele>
        <time>2016-01-01T09:41:30.000Z</time>
      </trkpt>
      <trkpt lat="47.53969" lon="6.62157">
        <ele>523</ele>
        <time>2016-01-01T09:41:31.000Z</time>
      </trkpt>
      <trkpt lat="47.53973" lon="6.62159">
        <ele>523</ele>
        <time>2016-01-01T09:41:33.000Z</time>
      </trkpt>
      <trkpt lat="47.53975" lon="6.62159">
        <ele>523</ele>
        <time>2016-01-01T09:41:34.000Z</time>
      </trkpt>
      <trkpt lat="47.53979" lon="6.6216">
        <ele>523</ele>
        <time>2016-01-01T09:41:36.000Z</time>
      </trkpt>
      <trkpt lat="47.53981" lon="6.62161">
        <ele>523</ele>
        <time>2016-01-01T09:41:37.000Z</time>
      </trkpt>
      <trkpt lat="47.53983" lon="6.62162">
        <ele>523</ele>
        <time>2016-01-01T09:41:38.000Z</time>
      </trkpt>
      <trkpt lat="47.53986" lon="6.62163">
        <ele>523</ele>
        <time>2016-01-01T09:41:39.000Z</time>
      </trkpt>
      <trkpt lat="47.53988" lon="6.62162">
        <ele>523</ele>
        <time>2016-01-01T09:41:40.000Z</time>
      </trkpt>
      <trkpt lat="47.53991" lon="6.62161">
        <ele>522</ele>
        <time>2016-01-01T09:41:41.000Z</time>
      </trkpt>
      <trkpt lat="47.53994" lon="6.62161">
        <ele>522</ele>
        <time>2016-01-01T09:41:42.000Z</time>
      </trkpt>
      <trkpt lat="47.53995" lon="6.6216">
        <ele>522</ele>
        <time>2016-01-01T09:41:43.000Z</time>
      </trkpt>
      <trkpt lat="47.53999" lon="6.62158">
        <ele>522</ele>
        <time>2016-01-01T09:41:45.000Z</time>
      </trkpt>
      <trkpt lat="47.54001" lon="6.62156">
        <ele>519</ele>
        <time>2016-01-01T09:41:46.000Z</time>
      </trkpt>
      <trkpt lat="47.54004" lon="6.62155">
        <ele>518</ele>
        <time>2016-01-01T09:41:47.000Z</time>
      </trkpt>
      <trkpt lat="47.54008" lon="6.62154">
        <ele>518</ele>
        <time>2016-01-01T09:41:48.000Z</time>
      </trkpt>
      <trkpt lat="47.54011" lon="6.62154">
        <ele>517</ele>
        <time>2016-01-01T09:41:49.000Z</time>
      </trkpt>
      <trkpt lat="47.54014" lon="6.62154">
        <ele>517</ele>
        <time>2016-01-01T09:41:50.000Z</time>
      </trkpt>
      <trkpt lat="47.54017" lon="6.62156">
        <ele>517</ele>
        <time>2016-01-01T09:41:51.000Z</time>
      </trkpt>
      <trkpt lat="47.54019" lon="6.62159">
        <ele>516</ele>
        <time>2016-01-01T09:41:52.000Z</time>
      </trkpt>
      <trkpt lat="47.5402" lon="6.62163">
        <ele>516</ele>
        <time>2016-01-01T09:41:53.000Z</time>
      </trkpt>
      <trkpt lat="47.54021" lon="6.62167">
        <ele>515</ele>
        <time>2016-01-01T09:41:54.000Z</time>
      </trkpt>
      <trkpt lat="47.54022" lon="6.62172">
        <ele>515</ele>
        <time>2016-01-01T09:41:55.000Z</time>
      </trkpt>
      <trkpt lat="47.54023" lon="6.62176">
        <ele>515</ele>
        <time>2016-01-01T09:41:56.000Z</time>
      </trkpt>
      <trkpt lat="47.54024" lon="6.6218">
        <ele>514</ele>
        <time>2016-01-01T09:41:57.000Z</time>
      </trkpt>
      <trkpt lat="47.54025" lon="6.62184">
        <ele>514</ele>
        <time>2016-01-01T09:41:58.000Z</time>
      </trkpt>
      <trkpt lat="47.54026" lon="6.62188">
        <ele>514</ele>
        <time>2016-01-01T09:41:59.000Z</time>
      </trkpt>
      <trkpt lat="47.54026" lon="6.62192">
        <ele>513</ele>
        <time>2016-01-01T09:42:00.000Z</time>
      </trkpt>
      <trkpt lat="47.54027" lon="6.62197">
        <ele>513</ele>
        <time>2016-01-01T09:42:01.000Z</time>
      </trkpt>
      <trkpt lat="47.54028" lon="6.62202">
        <ele>513</ele>
        <time>2016-01-01T09:42:02.000Z</time>
      </trkpt>
      <trkpt lat="47.54029" lon="6.62206">
        <ele>513</ele>
        <time>2016-01-01T09:42:03.000Z</time>
      </trkpt>
      <trkpt lat="47.5403" lon="6.62209">
        <ele>513</ele>
        <time>2016-01-01T09:42:04.000Z</time>
      </trkpt>
      <trkpt lat="47.54034" lon="6.62212">
        <ele>512</ele>
        <time>2016-01-01T09:42:07.000Z</time>
      </trkpt>
      <trkpt lat="47.54034" lon="6.62213">
        <ele>512</ele>
        <time>2016-01-01T09:42:08.000Z</time>
      </trkpt>
      <trkpt lat="47.54034" lon="6.62217">
        <ele>512</ele>
        <time>2016-01-01T09:42:34.000Z</time>
      </trkpt>
      <trkpt lat="47.54035" lon="6.62219">
        <ele>512</ele>
        <time>2016-01-01T09:42:35.000Z</time>
      </trkpt>
      <trkpt lat="47.54036" lon="6.62222">
        <ele>512</ele>
        <time>2016-01-01T09:42:36.000Z</time>
      </trkpt>
      <trkpt lat="47.54036" lon="6.62225">
        <ele>512</ele>
        <time>2016-01-01T09:42:37.000Z</time>
      </trkpt>
      <trkpt lat="47.54037" lon="6.6223">
        <ele>512</ele>
        <time>2016-01-01T09:42:38.000Z</time>
      </trkpt>
      <trkpt lat="47.54038" lon="6.62234">
        <ele>512</ele>
        <time>2016-01-01T09:42:39.000Z</time>
      </trkpt>
      <trkpt lat="47.54039" lon="6.62239">
        <ele>512</ele>
        <time>2016-01-01T09:42:40.000Z</time>
      </trkpt>
      <trkpt lat="47.5404" lon="6.62243">
        <ele>511</ele>
        <time>2016-01-01T09:42:41.000Z</time>
      </trkpt>
      <trkpt lat="47.54041" lon="6.62247">
        <ele>511</ele>
        <time>2016-01-01T09:42:42.000Z</time>
      </trkpt>
      <trkpt lat="47.54041" lon="6.62253">
        <ele>511</ele>
        <time>2016-01-01T09:42:43.000Z</time>
      </trkpt>
      <trkpt lat="47.54042" lon="6.62259">
        <ele>511</ele>
        <time>2016-01-01T09:42:44.000Z</time>
      </trkpt>
      <trkpt lat="47.54043" lon="6.62265">
        <ele>511</ele>
        <time>2016-01-01T09:42:45.000Z</time>
      </trkpt>
      <trkpt lat="47.54044" lon="6.62272">
        <ele>511</ele>
        <time>2016-01-01T09:42:46.000Z</time>
      </trkpt>
      <trkpt lat="47.54045" lon="6.62279">
        <ele>511</ele>
        <time>2016-01-01T09:42:47.000Z</time>
      </trkpt>
      <trkpt lat="47.54047" lon="6.62285">
        <ele>511</ele>
        <time>2016-01-01T09:42:48.000Z</time>
      </trkpt>
      <trkpt lat="47.54048" lon="6.6229">
        <ele>511</ele>
        <time>2016-01-01T09:42:49.000Z</time>
      </trkpt>
      <trkpt lat="47.54049" lon="6.62303">
        <ele>510</ele>
        <time>2016-01-01T09:42:50.000Z</time>
      </trkpt>
      <trkpt lat="47.5405" lon="6.62311">
        <ele>510</ele>
        <time>2016-01-01T09:42:51.000Z</time>
      </trkpt>
      <trkpt lat="47.54051" lon="6.62318">
        <ele>510</ele>
        <time>2016-01-01T09:42:52.000Z</time>
      </trkpt>
      <trkpt lat="47.54052" lon="6.62325">
        <ele>510</ele>
        <time>2016-01-01T09:42:53.000Z</time>
      </trkpt>
      <trkpt lat="47.54053" lon="6.62333">
        <ele>510</ele>
        <time>2016-01-01T09:42:54.000Z</time>
      </trkpt>
      <trkpt lat="47.54054" lon="6.6234">
        <ele>509</ele>
        <time>2016-01-01T09:42:55.000Z</time>
      </trkpt>
      <trkpt lat="47.54055" lon="6.62347">
        <ele>509</ele>
        <time>2016-01-01T09:42:56.000Z</time>
      </trkpt>
      <trkpt lat="47.54056" lon="6.62356">
        <ele>509</ele>
        <time>2016-01-01T09:42:57.000Z</time>
      </trkpt>
      <trkpt lat="47.54056" lon="6.62365">
        <ele>509</ele>
        <time>2016-01-01T09:42:58.000Z</time>
      </trkpt>
      <trkpt lat="47.54054" lon="6.62373">
        <ele>509</ele>
        <time>2016-01-01T09:42:59.000Z</time>
      </trkpt>
      <trkpt lat="47.54052" lon="6.62381">
        <ele>509</ele>
        <time>2016-01-01T09:43:00.000Z</time>
      </trkpt>
      <trkpt lat="47.54051" lon="6.62386">
        <ele>509</ele>
        <time>2016-01-01T09:43:01.000Z</time>
      </trkpt>
      <trkpt lat="47.54051" lon="6.62393">
        <ele>509</ele>
        <time>2016-01-01T09:43:02.000Z</time>
      </trkpt>
      <trkpt lat="47.54052" lon="6.62401">
        <ele>509</ele>
        <time>2016-01-01T09:43:03.000Z</time>
      </trkpt>
      <trkpt lat="47.54053" lon="6.62408">
        <ele>509</ele>
        <time>2016-01-01T09:43:04.000Z</time>
      </trkpt>
      <trkpt lat="47.54054" lon="6.62417">
        <ele>508</ele>
        <time>2016-01-01T09:43:05.000Z</time>
      </trkpt>
      <trkpt lat="47.54056" lon="6.62423">
        <ele>506</ele>
        <time>2016-01-01T09:43:06.000Z</time>
      </trkpt>
      <trkpt lat="47.54058" lon="6.6243">
        <ele>506</ele>
        <time>2016-01-01T09:43:07.000Z</time>
      </trkpt>
      <trkpt lat="47.5406" lon="6.62438">
        <ele>505</ele>
        <time>2016-01-01T09:43:08.000Z</time>
      </trkpt>
      <trkpt lat="47.54061" lon="6.62448">
        <ele>505</ele>
        <time>2016-01-01T09:43:09.000Z</time>
      </trkpt>
      <trkpt lat="47.54063" lon="6.62457">
        <ele>505</ele>
        <time>2016-01-01T09:43:10.000Z</time>
      </trkpt>
      <trkpt lat="47.54064" lon="6.62468">
        <ele>505</ele>
        <time>2016-01-01T09:43:11.000Z</time>
      </trkpt>
      <trkpt lat="47.54065" lon="6.6248">
        <ele>504</ele>
        <time>2016-01-01T09:43:12.000Z</time>
      </trkpt>
      <trkpt lat="47.54065" lon="6.62491">
        <ele>503</ele>
        <time>2016-01-01T09:43:13.000Z</time>
      </trkpt>
      <trkpt lat="47.54065" lon="6.625">
        <ele>499</ele>
        <time>2016-01-01T09:43:14.000Z</time>
      </trkpt>
      <trkpt lat="47.54065" lon="6.62509">
        <ele>499</ele>
        <time>2016-01-01T09:43:15.000Z</time>
      </trkpt>
      <trkpt lat="47.54067" lon="6.6252">
        <ele>499</ele>
        <time>2016-01-01T09:43:16.000Z</time>
      </trkpt>
      <trkpt lat="47.54068" lon="6.6253">
        <ele>498</ele>
        <time>2016-01-01T09:43:17.000Z</time>
      </trkpt>
      <trkpt lat="47.54071" lon="6.6254">
        <ele>498</ele>
        <time>2016-01-01T09:43:18.000Z</time>
      </trkpt>
      <trkpt lat="47.54076" lon="6.62551">
        <ele>497</ele>
        <time>2016-01-01T09:43:19.000Z</time>
      </trkpt>
      <trkpt lat="47.54078" lon="6.6256">
        <ele>496</ele>
        <time>2016-01-01T09:43:20.000Z</time>
      </trkpt>
      <trkpt lat="47.5408" lon="6.62569">
        <ele>495</ele>
        <time>2016-01-01T09:43:21.000Z</time>
      </trkpt>
      <trkpt lat="47.54082" lon="6.62581">
        <ele>494</ele>
        <time>2016-01-01T09:43:22.000Z</time>
      </trkpt>
      <trkpt lat="47.54084" lon="6.62591">
        <ele>491</ele>
        <time>2016-01-01T09:43:23.000Z</time>
      </trkpt>
      <trkpt lat="47.54085" lon="6.62599">
        <ele>490</ele>
        <time>2016-01-01T09:43:24.000Z</time>
      </trkpt>
      <trkpt lat="47.54088" lon="6.62605">
        <ele>489</ele>
        <time>2016-01-01T09:43:25.000Z</time>
      </trkpt>
      <trkpt lat="47.54091" lon="6.62612">
        <ele>488</ele>
        <time>2016-01-01T09:43:26.000Z</time>
      </trkpt>
      <trkpt lat="47.54093" lon="6.62619">
        <ele>488</ele>
        <time>2016-01-01T09:43:27.000Z</time>
      </trkpt>
      <trkpt lat="47.54097" lon="6.62626">
        <ele>487</ele>
        <time>2016-01-01T09:43:28.000Z</time>
      </trkpt>
      <trkpt lat="47.54101" lon="6.62635">
        <ele>487</ele>
        <time>2016-01-01T09:43:29.000Z</time>
      </trkpt>
      <trkpt lat="47.54105" lon="6.62641">
        <ele>487</ele>
        <time>2016-01-01T09:43:30.000Z</time>
      </trkpt>
      <trkpt lat="47.54113" lon="6.62646">
        <ele>486</ele>
        <time>2016-01-01T09:43:31.000Z</time>
      </trkpt>
      <trkpt lat="47.54118" lon="6.62654">
        <ele>486</ele>
        <time>2016-01-01T09:43:32.000Z</time>
      </trkpt>
      <trkpt lat="47.54122" lon="6.62661">
        <ele>486</ele>
        <time>2016-01-01T09:43:33.000Z</time>
      </trkpt>
      <trkpt lat="47.54125" lon="6.62668">
        <ele>484</ele>
        <time>2016-01-01T09:43:34.000Z</time>
      </trkpt>
      <trkpt lat="47.5413" lon="6.62676">
        <ele>484</ele>
        <time>2016-01-01T09:43:35.000Z</time>
      </trkpt>
      <trkpt lat="47.54133" lon="6.62683">
        <ele>483</ele>
        <time>2016-01-01T09:43:36.000Z</time>
      </trkpt>
      <trkpt lat="47.54134" lon="6.62687">
        <ele>483</ele>
        <time>2016-01-01T09:43:37.000Z</time>
      </trkpt>
      <trkpt lat="47.54136" lon="6.62694">
        <ele>483</ele>
        <time>2016-01-01T09:43:38.000Z</time>
      </trkpt>
      <trkpt lat="47.54138" lon="6.627">
        <ele>483</ele>
        <time>2016-01-01T09:43:39.000Z</time>
      </trkpt>
      <trkpt lat="47.54141" lon="6.62704">
        <ele>483</ele>
        <time>2016-01-01T09:43:40.000Z</time>
      </trkpt>
      <trkpt lat="47.54143" lon="6.62708">
        <ele>483</ele>
        <time>2016-01-01T09:43:41.000Z</time>
      </trkpt>
      <trkpt lat="47.54147" lon="6.62711">
        <ele>483</ele>
        <time>2016-01-01T09:43:42.000Z</time>
      </trkpt>
      <trkpt lat="47.54151" lon="6.62714">
        <ele>483</ele>
        <time>2016-01-01T09:43:43.000Z</time>
      </trkpt>
      <trkpt lat="47.54154" lon="6.62716">
        <ele>483</ele>
        <time>2016-01-01T09:43:44.000Z</time>
      </trkpt>
      <trkpt lat="47.54159" lon="6.6272">
        <ele>483</ele>
        <time>2016-01-01T09:43:45.000Z</time>
      </trkpt>
      <trkpt lat="47.54162" lon="6.62723">
        <ele>483</ele>
        <time>2016-01-01T09:43:46.000Z</time>
      </trkpt>
      <trkpt lat="47.54166" lon="6.62727">
        <ele>483</ele>
        <time>2016-01-01T09:43:47.000Z</time>
      </trkpt>
      <trkpt lat="47.54172" lon="6.62746">
        <ele>482</ele>
        <time>2016-01-01T09:43:48.000Z</time>
      </trkpt>
      <trkpt lat="47.54176" lon="6.62755">
        <ele>482</ele>
        <time>2016-01-01T09:43:49.000Z</time>
      </trkpt>
      <trkpt lat="47.54174" lon="6.62763">
        <ele>481</ele>
        <time>2016-01-01T09:43:50.000Z</time>
      </trkpt>
      <trkpt lat="47.54175" lon="6.6277">
        <ele>480</ele>
        <time>2016-01-01T09:43:51.000Z</time>
      </trkpt>
      <trkpt lat="47.54176" lon="6.62777">
        <ele>480</ele>
        <time>2016-01-01T09:43:52.000Z</time>
      </trkpt>
      <trkpt lat="47.54177" lon="6.62785">
        <ele>479</ele>
        <time>2016-01-01T09:43:53.000Z</time>
      </trkpt>
      <trkpt lat="47.54178" lon="6.62794">
        <ele>479</ele>
        <time>2016-01-01T09:43:54.000Z</time>
      </trkpt>
      <trkpt lat="47.54175" lon="6.62804">
        <ele>478</ele>
        <time>2016-01-01T09:43:55.000Z</time>
      </trkpt>
      <trkpt lat="47.54174" lon="6.62814">
        <ele>478</ele>
        <time>2016-01-01T09:43:56.000Z</time>
      </trkpt>
      <trkpt lat="47.5417" lon="6.6282">
        <ele>477</ele>
        <time>2016-01-01T09:43:57.000Z</time>
      </trkpt>
      <trkpt lat="47.54163" lon="6.62823">
        <ele>476</ele>
        <time>2016-01-01T09:43:58.000Z</time>
      </trkpt>
      <trkpt lat="47.54159" lon="6.62826">
        <ele>476</ele>
        <time>2016-01-01T09:43:59.000Z</time>
      </trkpt>
      <trkpt lat="47.54155" lon="6.6283">
        <ele>476</ele>
        <time>2016-01-01T09:44:00.000Z</time>
      </trkpt>
      <trkpt lat="47.5415" lon="6.62838">
        <ele>472</ele>
        <time>2016-01-01T09:44:01.000Z</time>
      </trkpt>
      <trkpt lat="47.54146" lon="6.62846">
        <ele>471</ele>
        <time>2016-01-01T09:44:02.000Z</time>
      </trkpt>
      <trkpt lat="47.5414" lon="6.62853">
        <ele>470</ele>
        <time>2016-01-01T09:44:03.000Z</time>
      </trkpt>
      <trkpt lat="47.54137" lon="6.62862">
        <ele>469</ele>
        <time>2016-01-01T09:44:04.000Z</time>
      </trkpt>
      <trkpt lat="47.54135" lon="6.62872">
        <ele>468</ele>
        <time>2016-01-01T09:44:05.000Z</time>
      </trkpt>
      <trkpt lat="47.54131" lon="6.6288">
        <ele>468</ele>
        <time>2016-01-01T09:44:06.000Z</time>
      </trkpt>
      <trkpt lat="47.54129" lon="6.62894">
        <ele>467</ele>
        <time>2016-01-01T09:44:07.000Z</time>
      </trkpt>
      <trkpt lat="47.54128" lon="6.62904">
        <ele>466</ele>
        <time>2016-01-01T09:44:08.000Z</time>
      </trkpt>
      <trkpt lat="47.54126" lon="6.62915">
        <ele>466</ele>
        <time>2016-01-01T09:44:09.000Z</time>
      </trkpt>
      <trkpt lat="47.54128" lon="6.62926">
        <ele>461</ele>
        <time>2016-01-01T09:44:10.000Z</time>
      </trkpt>
      <trkpt lat="47.54133" lon="6.62938">
        <ele>461</ele>
        <time>2016-01-01T09:44:11.000Z</time>
      </trkpt>
      <trkpt lat="47.54134" lon="6.62947">
        <ele>461</ele>
        <time>2016-01-01T09:44:12.000Z</time>
      </trkpt>
      <trkpt lat="47.54132" lon="6.62957">
        <ele>460</ele>
        <time>2016-01-01T09:44:13.000Z</time>
      </trkpt>
      <trkpt lat="47.54129" lon="6.62966">
        <ele>460</ele>
        <time>2016-01-01T09:44:14.000Z</time>
      </trkpt>
      <trkpt lat="47.54121" lon="6.62975">
        <ele>460</ele>
        <time>2016-01-01T09:44:15.000Z</time>
      </trkpt>
      <trkpt lat="47.54113" lon="6.62984">
        <ele>459</ele>
        <time>2016-01-01T09:44:16.000Z</time>
      </trkpt>
      <trkpt lat="47.54106" lon="6.62987">
        <ele>459</ele>
        <time>2016-01-01T09:44:17.000Z</time>
      </trkpt>
      <trkpt lat="47.541" lon="6.62991">
        <ele>458</ele>
        <time>2016-01-01T09:44:18.000Z</time>
      </trkpt>
      <trkpt lat="47.54096" lon="6.62992">
        <ele>458</ele>
        <time>2016-01-01T09:44:19.000Z</time>
      </trkpt>
      <trkpt lat="47.54093" lon="6.62996">
        <ele>458</ele>
        <time>2016-01-01T09:44:20.000Z</time>
      </trkpt>
      <trkpt lat="47.54093" lon="6.63001">
        <ele>455</ele>
        <time>2016-01-01T09:44:21.000Z</time>
      </trkpt>
      <trkpt lat="47.54096" lon="6.63007">
        <ele>455</ele>
        <time>2016-01-01T09:44:22.000Z</time>
      </trkpt>
      <trkpt lat="47.54098" lon="6.63013">
        <ele>454</ele>
        <time>2016-01-01T09:44:23.000Z</time>
      </trkpt>
      <trkpt lat="47.54099" lon="6.63017">
        <ele>454</ele>
        <time>2016-01-01T09:44:24.000Z</time>
      </trkpt>
      <trkpt lat="47.54101" lon="6.6302">
        <ele>454</ele>
        <time>2016-01-01T09:44:26.000Z</time>
      </trkpt>
      <trkpt lat="47.54102" lon="6.63023">
        <ele>454</ele>
        <time>2016-01-01T09:44:27.000Z</time>
      </trkpt>
      <trkpt lat="47.54103" lon="6.63026">
        <ele>453</ele>
        <time>2016-01-01T09:44:28.000Z</time>
      </trkpt>
      <trkpt lat="47.54105" lon="6.6303">
        <ele>453</ele>
        <time>2016-01-01T09:44:29.000Z</time>
      </trkpt>
      <trkpt lat="47.54107" lon="6.63034">
        <ele>453</ele>
        <time>2016-01-01T09:44:30.000Z</time>
      </trkpt>
      <trkpt lat="47.5411" lon="6.63039">
        <ele>453</ele>
        <time>2016-01-01T09:44:31.000Z</time>
      </trkpt>
      <trkpt lat="47.54113" lon="6.63044">
        <ele>453</ele>
        <time>2016-01-01T09:44:32.000Z</time>
      </trkpt>
      <trkpt lat="47.54115" lon="6.63049">
        <ele>452</ele>
        <time>2016-01-01T09:44:33.000Z</time>
      </trkpt>
      <trkpt lat="47.54117" lon="6.63055">
        <ele>452</ele>
        <time>2016-01-01T09:44:34.000Z</time>
      </trkpt>
      <trkpt lat="47.54118" lon="6.63061">
        <ele>452</ele>
        <time>2016-01-01T09:44:35.000Z</time>
      </trkpt>
      <trkpt lat="47.54115" lon="6.63072">
        <ele>451</ele>
        <time>2016-01-01T09:44:36.000Z</time>
      </trkpt>
      <trkpt lat="47.54107" lon="6.63077">
        <ele>450</ele>
        <time>2016-01-01T09:44:37.000Z</time>
      </trkpt>
      <trkpt lat="47.54104" lon="6.63081">
        <ele>449</ele>
        <time>2016-01-01T09:44:38.000Z</time>
      </trkpt>
      <trkpt lat="47.54099" lon="6.63079">
        <ele>448</ele>
        <time>2016-01-01T09:44:39.000Z</time>
      </trkpt>
      <trkpt lat="47.54094" lon="6.63077">
        <ele>447</ele>
        <time>2016-01-01T09:44:40.000Z</time>
      </trkpt>
      <trkpt lat="47.5409" lon="6.63076">
        <ele>447</ele>
        <time>2016-01-01T09:44:41.000Z</time>
      </trkpt>
      <trkpt lat="47.54086" lon="6.63075">
        <ele>446</ele>
        <time>2016-01-01T09:44:42.000Z</time>
      </trkpt>
      <trkpt lat="47.54082" lon="6.63074">
        <ele>444</ele>
        <time>2016-01-01T09:44:43.000Z</time>
      </trkpt>
      <trkpt lat="47.54079" lon="6.63073">
        <ele>444</ele>
        <time>2016-01-01T09:44:44.000Z</time>
      </trkpt>
      <trkpt lat="47.54075" lon="6.63072">
        <ele>444</ele>
        <time>2016-01-01T09:44:45.000Z</time>
      </trkpt>
      <trkpt lat="47.54071" lon="6.63071">
        <ele>444</ele>
        <time>2016-01-01T09:44:46.000Z</time>
      </trkpt>
      <trkpt lat="47.54064" lon="6.6307">
        <ele>444</ele>
        <time>2016-01-01T09:44:47.000Z</time>
      </trkpt>
      <trkpt lat="47.54059" lon="6.63068">
        <ele>444</ele>
        <time>2016-01-01T09:44:48.000Z</time>
      </trkpt>
      <trkpt lat="47.54052" lon="6.63067">
        <ele>444</ele>
        <time>2016-01-01T09:44:49.000Z</time>
      </trkpt>
      <trkpt lat="47.54045" lon="6.63068">
        <ele>443</ele>
        <time>2016-01-01T09:44:50.000Z</time>
      </trkpt>
      <trkpt lat="47.5404" lon="6.63068">
        <ele>443</ele>
        <time>2016-01-01T09:44:51.000Z</time>
      </trkpt>
      <trkpt lat="47.54033" lon="6.63068">
        <ele>442</ele>
        <time>2016-01-01T09:44:52.000Z</time>
      </trkpt>
      <trkpt lat="47.54025" lon="6.63069">
        <ele>441</ele>
        <time>2016-01-01T09:44:53.000Z</time>
      </trkpt>
      <trkpt lat="47.54019" lon="6.63071">
        <ele>439</ele>
        <time>2016-01-01T09:44:54.000Z</time>
      </trkpt>
      <trkpt lat="47.54012" lon="6.63071">
        <ele>437</ele>
        <time>2016-01-01T09:44:55.000Z</time>
      </trkpt>
      <trkpt lat="47.54002" lon="6.6307">
        <ele>436</ele>
        <time>2016-01-01T09:44:56.000Z</time>
      </trkpt>
      <trkpt lat="47.53993" lon="6.63071">
        <ele>434</ele>
        <time>2016-01-01T09:44:57.000Z</time>
      </trkpt>
      <trkpt lat="47.53985" lon="6.6307">
        <ele>436</ele>
        <time>2016-01-01T09:44:58.000Z</time>
      </trkpt>
      <trkpt lat="47.53978" lon="6.63072">
        <ele>436</ele>
        <time>2016-01-01T09:44:59.000Z</time>
      </trkpt>
      <trkpt lat="47.53972" lon="6.63076">
        <ele>436</ele>
        <time>2016-01-01T09:45:00.000Z</time>
      </trkpt>
      <trkpt lat="47.53968" lon="6.63084">
        <ele>422</ele>
        <time>2016-01-01T09:45:01.000Z</time>
      </trkpt>
      <trkpt lat="47.53958" lon="6.63086">
        <ele>421</ele>
        <time>2016-01-01T09:45:02.000Z</time>
      </trkpt>
      <trkpt lat="47.53952" lon="6.6309">
        <ele>421</ele>
        <time>2016-01-01T09:45:03.000Z</time>
      </trkpt>
      <trkpt lat="47.53945" lon="6.63093">
        <ele>421</ele>
        <time>2016-01-01T09:45:04.000Z</time>
      </trkpt>
      <trkpt lat="47.5394" lon="6.63093">
        <ele>422</ele>
        <time>2016-01-01T09:45:05.000Z</time>
      </trkpt>
      <trkpt lat="47.53935" lon="6.63095">
        <ele>422</ele>
        <time>2016-01-01T09:45:06.000Z</time>
      </trkpt>
      <trkpt lat="47.5393" lon="6.631">
        <ele>422</ele>
        <time>2016-01-01T09:45:07.000Z</time>
      </trkpt>
      <trkpt lat="47.53924" lon="6.63106">
        <ele>421</ele>
        <time>2016-01-01T09:45:08.000Z</time>
      </trkpt>
      <trkpt lat="47.5392" lon="6.63115">
        <ele>420</ele>
        <time>2016-01-01T09:45:09.000Z</time>
      </trkpt>
      <trkpt lat="47.53913" lon="6.63119">
        <ele>418</ele>
        <time>2016-01-01T09:45:10.000Z</time>
      </trkpt>
      <trkpt lat="47.53908" lon="6.63125">
        <ele>417</ele>
        <time>2016-01-01T09:45:11.000Z</time>
      </trkpt>
      <trkpt lat="47.53905" lon="6.63135">
        <ele>415</ele>
        <time>2016-01-01T09:45:12.000Z</time>
      </trkpt>
      <trkpt lat="47.53901" lon="6.63144">
        <ele>414</ele>
        <time>2016-01-01T09:45:13.000Z</time>
      </trkpt>
      <trkpt lat="47.53898" lon="6.63152">
        <ele>413</ele>
        <time>2016-01-01T09:45:14.000Z</time>
      </trkpt>
      <trkpt lat="47.53894" lon="6.6316">
        <ele>413</ele>
        <time>2016-01-01T09:45:15.000Z</time>
      </trkpt>
      <trkpt lat="47.53892" lon="6.63169">
        <ele>405</ele>
        <time>2016-01-01T09:45:16.000Z</time>
      </trkpt>
      <trkpt lat="47.5389" lon="6.63178">
        <ele>404</ele>
        <time>2016-01-01T09:45:17.000Z</time>
      </trkpt>
      <trkpt lat="47.53888" lon="6.63188">
        <ele>404</ele>
        <time>2016-01-01T09:45:18.000Z</time>
      </trkpt>
      <trkpt lat="47.53888" lon="6.63199">
        <ele>403</ele>
        <time>2016-01-01T09:45:19.000Z</time>
      </trkpt>
      <trkpt lat="47.53888" lon="6.63214">
        <ele>402</ele>
        <time>2016-01-01T09:45:20.000Z</time>
      </trkpt>
      <trkpt lat="47.53889" lon="6.63225">
        <ele>401</ele>
        <time>2016-01-01T09:45:21.000Z</time>
      </trkpt>
      <trkpt lat="47.53888" lon="6.63234">
        <ele>401</ele>
        <time>2016-01-01T09:45:22.000Z</time>
      </trkpt>
      <trkpt lat="47.53887" lon="6.6324">
        <ele>401</ele>
        <time>2016-01-01T09:45:23.000Z</time>
      </trkpt>
      <trkpt lat="47.53886" lon="6.63243">
        <ele>400</ele>
        <time>2016-01-01T09:45:24.000Z</time>
      </trkpt>
      <trkpt lat="47.53885" lon="6.63247">
        <ele>400</ele>
        <time>2016-01-01T09:45:25.000Z</time>
      </trkpt>
      <trkpt lat="47.53884" lon="6.63251">
        <ele>396</ele>
        <time>2016-01-01T09:45:26.000Z</time>
      </trkpt>
      <trkpt lat="47.53883" lon="6.63255">
        <ele>396</ele>
        <time>2016-01-01T09:45:27.000Z</time>
      </trkpt>
      <trkpt lat="47.53879" lon="6.63256">
        <ele>396</ele>
        <time>2016-01-01T09:45:28.000Z</time>
      </trkpt>
      <trkpt lat="47.53876" lon="6.63258">
        <ele>396</ele>
        <time>2016-01-01T09:45:29.000Z</time>
      </trkpt>
      <trkpt lat="47.53873" lon="6.63258">
        <ele>396</ele>
        <time>2016-01-01T09:45:30.000Z</time>
      </trkpt>
      <trkpt lat="47.5387" lon="6.63259">
        <ele>396</ele>
        <time>2016-01-01T09:45:31.000Z</time>
      </trkpt>
      <trkpt lat="47.53867" lon="6.6326">
        <ele>396</ele>
        <time>2016-01-01T09:45:32.000Z</time>
      </trkpt>
      <trkpt lat="47.53862" lon="6.63262">
        <ele>396</ele>
        <time>2016-01-01T09:45:34.000Z</time>
      </trkpt>
      <trkpt lat="47.53859" lon="6.63263">
        <ele>396</ele>
        <time>2016-01-01T09:45:35.000Z</time>
      </trkpt>
      <trkpt lat="47.53855" lon="6.63265">
        <ele>396</ele>
        <time>2016-01-01T09:45:36.000Z</time>
      </trkpt>
      <trkpt lat="47.53852" lon="6.63267">
        <ele>396</ele>
        <time>2016-01-01T09:45:37.000Z</time>
      </trkpt>
      <trkpt lat="47.53848" lon="6.63269">
        <ele>397</ele>
        <time>2016-01-01T09:45:38.000Z</time>
      </trkpt>
      <trkpt lat="47.53844" lon="6.63271">
        <ele>397</ele>
        <time>2016-01-01T09:45:39.000Z</time>
      </trkpt>
      <trkpt lat="47.53837" lon="6.63272">
        <ele>397</ele>
        <time>2016-01-01T09:45:40.000Z</time>
      </trkpt>
      <trkpt lat="47.53832" lon="6.63274">
        <ele>395</ele>
        <time>2016-01-01T09:45:41.000Z</time>
      </trkpt>
      <trkpt lat="47.53827" lon="6.63276">
        <ele>395</ele>
        <time>2016-01-01T09:45:42.000Z</time>
      </trkpt>
      <trkpt lat="47.53821" lon="6.63278">
        <ele>395</ele>
        <time>2016-01-01T09:45:43.000Z</time>
      </trkpt>
      <trkpt lat="47.53816" lon="6.63281">
        <ele>394</ele>
        <time>2016-01-01T09:45:44.000Z</time>
      </trkpt>
      <trkpt lat="47.5381" lon="6.63285">
        <ele>394</ele>
        <time>2016-01-01T09:45:45.000Z</time>
      </trkpt>
      <trkpt lat="47.53804" lon="6.63289">
        <ele>393</ele>
        <time>2016-01-01T09:45:46.000Z</time>
      </trkpt>
      <trkpt lat="47.53798" lon="6.63294">
        <ele>393</ele>
        <time>2016-01-01T09:45:47.000Z</time>
      </trkpt>
      <trkpt lat="47.53793" lon="6.63299">
        <ele>393</ele>
        <time>2016-01-01T09:45:48.000Z</time>
      </trkpt>
      <trkpt lat="47.53788" lon="6.63304">
        <ele>392</ele>
        <time>2016-01-01T09:45:49.000Z</time>
      </trkpt>
      <trkpt lat="47.53783" lon="6.63308">
        <ele>392</ele>
        <time>2016-01-01T09:45:50.000Z</time>
      </trkpt>
      <trkpt lat="47.53777" lon="6.6331">
        <ele>392</ele>
        <time>2016-01-01T09:45:51.000Z</time>
      </trkpt>
      <trkpt lat="47.53771" lon="6.63312">
        <ele>391</ele>
        <time>2016-01-01T09:45:52.000Z</time>
      </trkpt>
      <trkpt lat="47.53765" lon="6.63305">
        <ele>391</ele>
        <time>2016-01-01T09:45:53.000Z</time>
      </trkpt>
      <trkpt lat="47.53759" lon="6.63301">
        <ele>391</ele>
        <time>2016-01-01T09:45:54.000Z</time>
      </trkpt>
      <trkpt lat="47.53753" lon="6.63297">
        <ele>391</ele>
        <time>2016-01-01T09:45:55.000Z</time>
      </trkpt>
      <trkpt lat="47.53747" lon="6.63294">
        <ele>388</ele>
        <time>2016-01-01T09:45:56.000Z</time>
      </trkpt>
      <trkpt lat="47.53739" lon="6.63298">
        <ele>388</ele>
        <time>2016-01-01T09:45:57.000Z</time>
      </trkpt>
      <trkpt lat="47.53733" lon="6.633">
        <ele>388</ele>
        <time>2016-01-01T09:45:58.000Z</time>
      </trkpt>
      <trkpt lat="47.53725" lon="6.63302">
        <ele>388</ele>
        <time>2016-01-01T09:45:59.000Z</time>
      </trkpt>
      <trkpt lat="47.53717" lon="6.63305">
        <ele>388</ele>
        <time>2016-01-01T09:46:00.000Z</time>
      </trkpt>
      <trkpt lat="47.53708" lon="6.63306">
        <ele>388</ele>
        <time>2016-01-01T09:46:01.000Z</time>
      </trkpt>
      <trkpt lat="47.537" lon="6.63308">
        <ele>388</ele>
        <time>2016-01-01T09:46:02.000Z</time>
      </trkpt>
      <trkpt lat="47.53692" lon="6.63309">
        <ele>387</ele>
        <time>2016-01-01T09:46:03.000Z</time>
      </trkpt>
      <trkpt lat="47.53684" lon="6.6331">
        <ele>387</ele>
        <time>2016-01-01T09:46:04.000Z</time>
      </trkpt>
      <trkpt lat="47.53677" lon="6.63311">
        <ele>387</ele>
        <time>2016-01-01T09:46:05.000Z</time>
      </trkpt>
      <trkpt lat="47.5367" lon="6.63311">
        <ele>387</ele>
        <time>2016-01-01T09:46:06.000Z</time>
      </trkpt>
      <trkpt lat="47.53663" lon="6.63312">
        <ele>387</ele>
        <time>2016-01-01T09:46:07.001Z</time>
      </trkpt>
      <trkpt lat="47.53657" lon="6.63312">
        <ele>388</ele>
        <time>2016-01-01T09:46:08.000Z</time>
      </trkpt>
      <trkpt lat="47.5365" lon="6.63312">
        <ele>388</ele>
        <time>2016-01-01T09:46:08.999Z</time>
      </trkpt>
      <trkpt lat="47.53645" lon="6.63312">
        <ele>388</ele>
        <time>2016-01-01T09:46:10.000Z</time>
      </trkpt>
      <trkpt lat="47.53639" lon="6.63312">
        <ele>388</ele>
        <time>2016-01-01T09:46:11.000Z</time>
      </trkpt>
      <trkpt lat="47.53634" lon="6.63313">
        <ele>389</ele>
        <time>2016-01-01T09:46:12.000Z</time>
      </trkpt>
      <trkpt lat="47.53629" lon="6.63314">
        <ele>389</ele>
        <time>2016-01-01T09:46:13.000Z</time>
      </trkpt>
      <trkpt lat="47.53624" lon="6.63314">
        <ele>389</ele>
        <time>2016-01-01T09:46:13.999Z</time>
      </trkpt>
      <trkpt lat="47.53619" lon="6.63317">
        <ele>390</ele>
        <time>2016-01-01T09:46:15.000Z</time>
      </trkpt>
      <trkpt lat="47.53615" lon="6.63316">
        <ele>390</ele>
        <time>2016-01-01T09:46:16.000Z</time>
      </trkpt>
      <trkpt lat="47.53611" lon="6.63317">
        <ele>390</ele>
        <time>2016-01-01T09:46:17.000Z</time>
      </trkpt>
      <trkpt lat="47.53608" lon="6.63318">
        <ele>390</ele>
        <time>2016-01-01T09:46:18.000Z</time>
      </trkpt>
      <trkpt lat="47.53605" lon="6.6332">
        <ele>390</ele>
        <time>2016-01-01T09:46:19.000Z</time>
      </trkpt>
      <trkpt lat="47.53602" lon="6.63321">
        <ele>391</ele>
        <time>2016-01-01T09:46:20.000Z</time>
      </trkpt>
      <trkpt lat="47.53599" lon="6.63321">
        <ele>391</ele>
        <time>2016-01-01T09:46:21.000Z</time>
      </trkpt>
      <trkpt lat="47.53595" lon="6.63321">
        <ele>391</ele>
        <time>2016-01-01T09:46:22.000Z</time>
      </trkpt>
      <trkpt lat="47.53592" lon="6.63322">
        <ele>391</ele>
        <time>2016-01-01T09:46:23.000Z</time>
      </trkpt>
      <trkpt lat="47.53588" lon="6.63321">
        <ele>391</ele>
        <time>2016-01-01T09:46:24.000Z</time>
      </trkpt>
      <trkpt lat="47.53584" lon="6.63323">
        <ele>392</ele>
        <time>2016-01-01T09:46:25.000Z</time>
      </trkpt>
      <trkpt lat="47.53581" lon="6.63322">
        <ele>394</ele>
        <time>2016-01-01T09:46:26.000Z</time>
      </trkpt>
      <trkpt lat="47.53578" lon="6.63322">
        <ele>394</ele>
        <time>2016-01-01T09:46:27.000Z</time>
      </trkpt>
      <trkpt lat="47.53575" lon="6.63323">
        <ele>394</ele>
        <time>2016-01-01T09:46:28.000Z</time>
      </trkpt>
      <trkpt lat="47.53572" lon="6.63323">
        <ele>394</ele>
        <time>2016-01-01T09:46:29.000Z</time>
      </trkpt>
      <trkpt lat="47.53569" lon="6.63323">
        <ele>394</ele>
        <time>2016-01-01T09:46:30.000Z</time>
      </trkpt>
      <trkpt lat="47.53567" lon="6.63323">
        <ele>394</ele>
        <time>2016-01-01T09:46:31.000Z</time>
      </trkpt>
      <trkpt lat="47.53564" lon="6.63322">
        <ele>395</ele>
        <time>2016-01-01T09:46:32.000Z</time>
      </trkpt>
      <trkpt lat="47.53561" lon="6.63322">
        <ele>395</ele>
        <time>2016-01-01T09:46:33.000Z</time>
      </trkpt>
      <trkpt lat="47.53559" lon="6.63321">
        <ele>395</ele>
        <time>2016-01-01T09:46:34.000Z</time>
      </trkpt>
      <trkpt lat="47.53556" lon="6.63321">
        <ele>395</ele>
        <time>2016-01-01T09:46:35.000Z</time>
      </trkpt>
      <trkpt lat="47.53554" lon="6.63321">
        <ele>395</ele>
        <time>2016-01-01T09:46:36.000Z</time>
      </trkpt>
      <trkpt lat="47.5355" lon="6.63321">
        <ele>395</ele>
        <time>2016-01-01T09:46:38.000Z</time>
      </trkpt>
      <trkpt lat="47.53548" lon="6.63321">
        <ele>395</ele>
        <time>2016-01-01T09:46:39.000Z</time>
      </trkpt>
      <trkpt lat="47.53543" lon="6.63321">
        <ele>396</ele>
        <time>2016-01-01T09:46:41.000Z</time>
      </trkpt>
      <trkpt lat="47.53541" lon="6.63321">
        <ele>396</ele>
        <time>2016-01-01T09:46:42.000Z</time>
      </trkpt>
      <trkpt lat="47.53537" lon="6.63322">
        <ele>396</ele>
        <time>2016-01-01T09:46:44.000Z</time>
      </trkpt>
      <trkpt lat="47.53535" lon="6.63322">
        <ele>396</ele>
        <time>2016-01-01T09:46:45.000Z</time>
      </trkpt>
      <trkpt lat="47.53531" lon="6.63323">
        <ele>397</ele>
        <time>2016-01-01T09:46:47.000Z</time>
      </trkpt>
      <trkpt lat="47.53529" lon="6.63324">
        <ele>397</ele>
        <time>2016-01-01T09:46:48.000Z</time>
      </trkpt>
      <trkpt lat="47.53524" lon="6.63326">
        <ele>397</ele>
        <time>2016-01-01T09:46:50.000Z</time>
      </trkpt>
      <trkpt lat="47.53522" lon="6.63327">
        <ele>397</ele>
        <time>2016-01-01T09:46:51.000Z</time>
      </trkpt>
      <trkpt lat="47.53518" lon="6.6333">
        <ele>398</ele>
        <time>2016-01-01T09:46:53.000Z</time>
      </trkpt>
      <trkpt lat="47.53516" lon="6.63332">
        <ele>398</ele>
        <time>2016-01-01T09:46:54.000Z</time>
      </trkpt>
      <trkpt lat="47.53514" lon="6.63334">
        <ele>399</ele>
        <time>2016-01-01T09:46:55.000Z</time>
      </trkpt>
      <trkpt lat="47.53512" lon="6.63336">
        <ele>399</ele>
        <time>2016-01-01T09:46:56.000Z</time>
      </trkpt>
      <trkpt lat="47.5351" lon="6.63338">
        <ele>399</ele>
        <time>2016-01-01T09:46:57.000Z</time>
      </trkpt>
      <trkpt lat="47.53509" lon="6.63341">
        <ele>399</ele>
        <time>2016-01-01T09:46:58.000Z</time>
      </trkpt>
      <trkpt lat="47.53505" lon="6.63345">
        <ele>399</ele>
        <time>2016-01-01T09:47:00.000Z</time>
      </trkpt>
      <trkpt lat="47.53504" lon="6.63347">
        <ele>399</ele>
        <time>2016-01-01T09:47:01.000Z</time>
      </trkpt>
      <trkpt lat="47.53501" lon="6.63351">
        <ele>399</ele>
        <time>2016-01-01T09:47:02.998Z</time>
      </trkpt>
      <trkpt lat="47.535" lon="6.63353">
        <ele>402</ele>
        <time>2016-01-01T09:47:04.000Z</time>
      </trkpt>
      <trkpt lat="47.53498" lon="6.63355">
        <ele>402</ele>
        <time>2016-01-01T09:47:04.999Z</time>
      </trkpt>
      <trkpt lat="47.53496" lon="6.63358">
        <ele>402</ele>
        <time>2016-01-01T09:47:06.000Z</time>
      </trkpt>
      <trkpt lat="47.53494" lon="6.63361">
        <ele>402</ele>
        <time>2016-01-01T09:47:07.000Z</time>
      </trkpt>
      <trkpt lat="47.53492" lon="6.63363">
        <ele>403</ele>
        <time>2016-01-01T09:47:08.000Z</time>
      </trkpt>
      <trkpt lat="47.53491" lon="6.63366">
        <ele>403</ele>
        <time>2016-01-01T09:47:09.000Z</time>
      </trkpt>
      <trkpt lat="47.5349" lon="6.63369">
        <ele>403</ele>
        <time>2016-01-01T09:47:10.000Z</time>
      </trkpt>
      <trkpt lat="47.53488" lon="6.63374">
        <ele>403</ele>
        <time>2016-01-01T09:47:12.000Z</time>
      </trkpt>
      <trkpt lat="47.53487" lon="6.63377">
        <ele>403</ele>
        <time>2016-01-01T09:47:13.000Z</time>
      </trkpt>
      <trkpt lat="47.53487" lon="6.63381">
        <ele>403</ele>
        <time>2016-01-01T09:47:14.000Z</time>
      </trkpt>
      <trkpt lat="47.53486" lon="6.63384">
        <ele>403</ele>
        <time>2016-01-01T09:47:15.000Z</time>
      </trkpt>
      <trkpt lat="47.53486" lon="6.63387">
        <ele>403</ele>
        <time>2016-01-01T09:47:16.000Z</time>
      </trkpt>
      <trkpt lat="47.53485" lon="6.6339">
        <ele>403</ele>
        <time>2016-01-01T09:47:17.000Z</time>
      </trkpt>
      <trkpt lat="47.53482" lon="6.63396">
        <ele>404</ele>
        <time>2016-01-01T09:47:19.000Z</time>
      </trkpt>
      <trkpt lat="47.53481" lon="6.63399">
        <ele>404</ele>
        <time>2016-01-01T09:47:20.000Z</time>
      </trkpt>
      <trkpt lat="47.5348" lon="6.63402">
        <ele>404</ele>
        <time>2016-01-01T09:47:21.000Z</time>
      </trkpt>
      <trkpt lat="47.5348" lon="6.63405">
        <ele>404</ele>
        <time>2016-01-01T09:47:22.000Z</time>
      </trkpt>
      <trkpt lat="47.53479" lon="6.63408">
        <ele>404</ele>
        <time>2016-01-01T09:47:23.000Z</time>
      </trkpt>
      <trkpt lat="47.53478" lon="6.63412">
        <ele>404</ele>
        <time>2016-01-01T09:47:24.000Z</time>
      </trkpt>
      <trkpt lat="47.53478" lon="6.63415">
        <ele>404</ele>
        <time>2016-01-01T09:47:25.000Z</time>
      </trkpt>
      <trkpt lat="47.53477" lon="6.63418">
        <ele>405</ele>
        <time>2016-01-01T09:47:26.000Z</time>
      </trkpt>
      <trkpt lat="47.53476" lon="6.63422">
        <ele>405</ele>
        <time>2016-01-01T09:47:27.000Z</time>
      </trkpt>
      <trkpt lat="47.53477" lon="6.63426">
        <ele>405</ele>
        <time>2016-01-01T09:47:28.000Z</time>
      </trkpt>
      <trkpt lat="47.53477" lon="6.63429">
        <ele>405</ele>
        <time>2016-01-01T09:47:29.000Z</time>
      </trkpt>
      <trkpt lat="47.53477" lon="6.63433">
        <ele>405</ele>
        <time>2016-01-01T09:47:30.000Z</time>
      </trkpt>
      <trkpt lat="47.53477" lon="6.63437">
        <ele>405</ele>
        <time>2016-01-01T09:47:31.000Z</time>
      </trkpt>
      <trkpt lat="47.53476" lon="6.6344">
        <ele>405</ele>
        <time>2016-01-01T09:47:32.000Z</time>
      </trkpt>
      <trkpt lat="47.53476" lon="6.63443">
        <ele>405</ele>
        <time>2016-01-01T09:47:33.000Z</time>
      </trkpt>
      <trkpt lat="47.53476" lon="6.63447">
        <ele>406</ele>
        <time>2016-01-01T09:47:34.000Z</time>
      </trkpt>
      <trkpt lat="47.53475" lon="6.6345">
        <ele>406</ele>
        <time>2016-01-01T09:47:34.999Z</time>
      </trkpt>
      <trkpt lat="47.53474" lon="6.63454">
        <ele>406</ele>
        <time>2016-01-01T09:47:36.000Z</time>
      </trkpt>
      <trkpt lat="47.53474" lon="6.63458">
        <ele>406</ele>
        <time>2016-01-01T09:47:37.000Z</time>
      </trkpt>
      <trkpt lat="47.53474" lon="6.63461">
        <ele>406</ele>
        <time>2016-01-01T09:47:38.000Z</time>
      </trkpt>
      <trkpt lat="47.53473" lon="6.63465">
        <ele>406</ele>
        <time>2016-01-01T09:47:39.000Z</time>
      </trkpt>
      <trkpt lat="47.53472" lon="6.63469">
        <ele>406</ele>
        <time>2016-01-01T09:47:39.999Z</time>
      </trkpt>
      <trkpt lat="47.53472" lon="6.63472">
        <ele>406</ele>
        <time>2016-01-01T09:47:41.000Z</time>
      </trkpt>
      <trkpt lat="47.53471" lon="6.63476">
        <ele>406</ele>
        <time>2016-01-01T09:47:41.999Z</time>
      </trkpt>
      <trkpt lat="47.5347" lon="6.6348">
        <ele>406</ele>
        <time>2016-01-01T09:47:43.000Z</time>
      </trkpt>
      <trkpt lat="47.5347" lon="6.63484">
        <ele>406</ele>
        <time>2016-01-01T09:47:44.000Z</time>
      </trkpt>
      <trkpt lat="47.53469" lon="6.63488">
        <ele>406</ele>
        <time>2016-01-01T09:47:45.000Z</time>
      </trkpt>
      <trkpt lat="47.53468" lon="6.63491">
        <ele>406</ele>
        <time>2016-01-01T09:47:46.000Z</time>
      </trkpt>
      <trkpt lat="47.53467" lon="6.63495">
        <ele>406</ele>
        <time>2016-01-01T09:47:47.000Z</time>
      </trkpt>
      <trkpt lat="47.53467" lon="6.63499">
        <ele>406</ele>
        <time>2016-01-01T09:47:48.000Z</time>
      </trkpt>
      <trkpt lat="47.53466" lon="6.63503">
        <ele>408</ele>
        <time>2016-01-01T09:47:49.000Z</time>
      </trkpt>
      <trkpt lat="47.53466" lon="6.63507">
        <ele>408</ele>
        <time>2016-01-01T09:47:50.000Z</time>
      </trkpt>
      <trkpt lat="47.53466" lon="6.6351">
        <ele>408</ele>
        <time>2016-01-01T09:47:51.000Z</time>
      </trkpt>
      <trkpt lat="47.53466" lon="6.63514">
        <ele>409</ele>
        <time>2016-01-01T09:47:52.000Z</time>
      </trkpt>
      <trkpt lat="47.53465" lon="6.63517">
        <ele>409</ele>
        <time>2016-01-01T09:47:53.000Z</time>
      </trkpt>
      <trkpt lat="47.53465" lon="6.63521">
        <ele>409</ele>
        <time>2016-01-01T09:47:54.000Z</time>
      </trkpt>
      <trkpt lat="47.53464" lon="6.63524">
        <ele>409</ele>
        <time>2016-01-01T09:47:55.000Z</time>
      </trkpt>
      <trkpt lat="47.53464" lon="6.63528">
        <ele>409</ele>
        <time>2016-01-01T09:47:56.000Z</time>
      </trkpt>
      <trkpt lat="47.53463" lon="6.63532">
        <ele>409</ele>
        <time>2016-01-01T09:47:57.000Z</time>
      </trkpt>
      <trkpt lat="47.53463" lon="6.63535">
        <ele>409</ele>
        <time>2016-01-01T09:47:58.000Z</time>
      </trkpt>
      <trkpt lat="47.53462" lon="6.63539">
        <ele>409</ele>
        <time>2016-01-01T09:47:59.000Z</time>
      </trkpt>
      <trkpt lat="47.53461" lon="6.63543">
        <ele>409</ele>
        <time>2016-01-01T09:48:00.000Z</time>
      </trkpt>
      <trkpt lat="47.53461" lon="6.63547">
        <ele>409</ele>
        <time>2016-01-01T09:48:01.000Z</time>
      </trkpt>
      <trkpt lat="47.5346" lon="6.6355">
        <ele>409</ele>
        <time>2016-01-01T09:48:02.000Z</time>
      </trkpt>
      <trkpt lat="47.5346" lon="6.63554">
        <ele>409</ele>
        <time>2016-01-01T09:48:03.000Z</time>
      </trkpt>
      <trkpt lat="47.53459" lon="6.63558">
        <ele>409</ele>
        <time>2016-01-01T09:48:04.000Z</time>
      </trkpt>
      <trkpt lat="47.53458" lon="6.63561">
        <ele>409</ele>
        <time>2016-01-01T09:48:05.000Z</time>
      </trkpt>
      <trkpt lat="47.53457" lon="6.63565">
        <ele>409</ele>
        <time>2016-01-01T09:48:06.000Z</time>
      </trkpt>
      <trkpt lat="47.53457" lon="6.63569">
        <ele>410</ele>
        <time>2016-01-01T09:48:07.000Z</time>
      </trkpt>
      <trkpt lat="47.53456" lon="6.63572">
        <ele>410</ele>
        <time>2016-01-01T09:48:08.000Z</time>
      </trkpt>
      <trkpt lat="47.53456" lon="6.63576">
        <ele>410</ele>
        <time>2016-01-01T09:48:09.000Z</time>
      </trkpt>
      <trkpt lat="47.53455" lon="6.6358">
        <ele>410</ele>
        <time>2016-01-01T09:48:10.000Z</time>
      </trkpt>
      <trkpt lat="47.53455" lon="6.63584">
        <ele>412</ele>
        <time>2016-01-01T09:48:11.001Z</time>
      </trkpt>
      <trkpt lat="47.53454" lon="6.63588">
        <ele>412</ele>
        <time>2016-01-01T09:48:12.000Z</time>
      </trkpt>
      <trkpt lat="47.53453" lon="6.63592">
        <ele>412</ele>
        <time>2016-01-01T09:48:13.000Z</time>
      </trkpt>
      <trkpt lat="47.53453" lon="6.63596">
        <ele>412</ele>
        <time>2016-01-01T09:48:14.000Z</time>
      </trkpt>
      <trkpt lat="47.53452" lon="6.636">
        <ele>412</ele>
        <time>2016-01-01T09:48:15.000Z</time>
      </trkpt>
      <trkpt lat="47.53451" lon="6.63605">
        <ele>412</ele>
        <time>2016-01-01T09:48:16.000Z</time>
      </trkpt>
      <trkpt lat="47.53451" lon="6.63609">
        <ele>412</ele>
        <time>2016-01-01T09:48:17.000Z</time>
      </trkpt>
      <trkpt lat="47.5345" lon="6.63613">
        <ele>412</ele>
        <time>2016-01-01T09:48:18.000Z</time>
      </trkpt>
      <trkpt lat="47.5345" lon="6.63617">
        <ele>412</ele>
        <time>2016-01-01T09:48:19.000Z</time>
      </trkpt>
      <trkpt lat="47.53449" lon="6.63621">
        <ele>413</ele>
        <time>2016-01-01T09:48:20.000Z</time>
      </trkpt>
      <trkpt lat="47.53448" lon="6.63624">
        <ele>413</ele>
        <time>2016-01-01T09:48:21.000Z</time>
      </trkpt>
      <trkpt lat="47.53447" lon="6.63627">
        <ele>413</ele>
        <time>2016-01-01T09:48:22.000Z</time>
      </trkpt>
      <trkpt lat="47.53447" lon="6.6363">
        <ele>413</ele>
        <time>2016-01-01T09:48:23.000Z</time>
      </trkpt>
      <trkpt lat="47.53446" lon="6.63634">
        <ele>413</ele>
        <time>2016-01-01T09:48:24.000Z</time>
      </trkpt>
      <trkpt lat="47.53446" lon="6.63637">
        <ele>413</ele>
        <time>2016-01-01T09:48:25.000Z</time>
      </trkpt>
      <trkpt lat="47.53445" lon="6.6364">
        <ele>413</ele>
        <time>2016-01-01T09:48:26.000Z</time>
      </trkpt>
      <trkpt lat="47.53444" lon="6.63644">
        <ele>413</ele>
        <time>2016-01-01T09:48:27.001Z</time>
      </trkpt>
      <trkpt lat="47.53443" lon="6.63648">
        <ele>413</ele>
        <time>2016-01-01T09:48:28.000Z</time>
      </trkpt>
      <trkpt lat="47.53442" lon="6.63651">
        <ele>413</ele>
        <time>2016-01-01T09:48:28.999Z</time>
      </trkpt>
      <trkpt lat="47.53442" lon="6.63655">
        <ele>413</ele>
        <time>2016-01-01T09:48:30.000Z</time>
      </trkpt>
      <trkpt lat="47.53441" lon="6.63659">
        <ele>413</ele>
        <time>2016-01-01T09:48:31.000Z</time>
      </trkpt>
      <trkpt lat="47.5344" lon="6.63663">
        <ele>413</ele>
        <time>2016-01-01T09:48:32.000Z</time>
      </trkpt>
      <trkpt lat="47.53439" lon="6.63666">
        <ele>413</ele>
        <time>2016-01-01T09:48:33.000Z</time>
      </trkpt>
      <trkpt lat="47.53438" lon="6.63669">
        <ele>415</ele>
        <time>2016-01-01T09:48:34.000Z</time>
      </trkpt>
      <trkpt lat="47.53436" lon="6.63672">
        <ele>415</ele>
        <time>2016-01-01T09:48:35.000Z</time>
      </trkpt>
      <trkpt lat="47.53435" lon="6.63676">
        <ele>415</ele>
        <time>2016-01-01T09:48:36.002Z</time>
      </trkpt>
      <trkpt lat="47.53434" lon="6.63679">
        <ele>415</ele>
        <time>2016-01-01T09:48:37.000Z</time>
      </trkpt>
      <trkpt lat="47.53433" lon="6.63683">
        <ele>415</ele>
        <time>2016-01-01T09:48:38.000Z</time>
      </trkpt>
      <trkpt lat="47.53431" lon="6.63688">
        <ele>415</ele>
        <time>2016-01-01T09:48:39.000Z</time>
      </trkpt>
      <trkpt lat="47.5343" lon="6.63692">
        <ele>415</ele>
        <time>2016-01-01T09:48:40.000Z</time>
      </trkpt>
      <trkpt lat="47.53428" lon="6.63696">
        <ele>415</ele>
        <time>2016-01-01T09:48:41.000Z</time>
      </trkpt>
      <trkpt lat="47.53426" lon="6.637">
        <ele>415</ele>
        <time>2016-01-01T09:48:42.000Z</time>
      </trkpt>
      <trkpt lat="47.53424" lon="6.63704">
        <ele>415</ele>
        <time>2016-01-01T09:48:43.000Z</time>
      </trkpt>
      <trkpt lat="47.53423" lon="6.63708">
        <ele>415</ele>
        <time>2016-01-01T09:48:44.000Z</time>
      </trkpt>
      <trkpt lat="47.53421" lon="6.63713">
        <ele>415</ele>
        <time>2016-01-01T09:48:45.000Z</time>
      </trkpt>
      <trkpt lat="47.53419" lon="6.63717">
        <ele>415</ele>
        <time>2016-01-01T09:48:46.000Z</time>
      </trkpt>
      <trkpt lat="47.53416" lon="6.63721">
        <ele>412</ele>
        <time>2016-01-01T09:48:47.000Z</time>
      </trkpt>
      <trkpt lat="47.53414" lon="6.63726">
        <ele>412</ele>
        <time>2016-01-01T09:48:48.000Z</time>
      </trkpt>
      <trkpt lat="47.53412" lon="6.6373">
        <ele>412</ele>
        <time>2016-01-01T09:48:49.000Z</time>
      </trkpt>
      <trkpt lat="47.5341" lon="6.63735">
        <ele>413</ele>
        <time>2016-01-01T09:48:50.000Z</time>
      </trkpt>
      <trkpt lat="47.53407" lon="6.6374">
        <ele>413</ele>
        <time>2016-01-01T09:48:51.000Z</time>
      </trkpt>
      <trkpt lat="47.53405" lon="6.63744">
        <ele>413</ele>
        <time>2016-01-01T09:48:52.000Z</time>
      </trkpt>
      <trkpt lat="47.53404" lon="6.6375">
        <ele>413</ele>
        <time>2016-01-01T09:48:53.000Z</time>
      </trkpt>
      <trkpt lat="47.53404" lon="6.63755">
        <ele>414</ele>
        <time>2016-01-01T09:48:54.000Z</time>
      </trkpt>
      <trkpt lat="47.53405" lon="6.6376">
        <ele>414</ele>
        <time>2016-01-01T09:48:55.000Z</time>
      </trkpt>
      <trkpt lat="47.53406" lon="6.63765">
        <ele>414</ele>
        <time>2016-01-01T09:48:56.000Z</time>
      </trkpt>
      <trkpt lat="47.53407" lon="6.6377">
        <ele>414</ele>
        <time>2016-01-01T09:48:57.001Z</time>
      </trkpt>
      <trkpt lat="47.53409" lon="6.63773">
        <ele>414</ele>
        <time>2016-01-01T09:48:58.000Z</time>
      </trkpt>
      <trkpt lat="47.53411" lon="6.63777">
        <ele>414</ele>
        <time>2016-01-01T09:48:59.000Z</time>
      </trkpt>
      <trkpt lat="47.53413" lon="6.63781">
        <ele>414</ele>
        <time>2016-01-01T09:49:00.000Z</time>
      </trkpt>
      <trkpt lat="47.53415" lon="6.63785">
        <ele>414</ele>
        <time>2016-01-01T09:49:01.000Z</time>
      </trkpt>
      <trkpt lat="47.53417" lon="6.63789">
        <ele>418</ele>
        <time>2016-01-01T09:49:02.000Z</time>
      </trkpt>
      <trkpt lat="47.53419" lon="6.63793">
        <ele>418</ele>
        <time>2016-01-01T09:49:03.001Z</time>
      </trkpt>
      <trkpt lat="47.53421" lon="6.63796">
        <ele>418</ele>
        <time>2016-01-01T09:49:04.000Z</time>
      </trkpt>
      <trkpt lat="47.53423" lon="6.638">
        <ele>418</ele>
        <time>2016-01-01T09:49:05.000Z</time>
      </trkpt>
      <trkpt lat="47.53425" lon="6.63803">
        <ele>418</ele>
        <time>2016-01-01T09:49:06.000Z</time>
      </trkpt>
      <trkpt lat="47.53427" lon="6.63806">
        <ele>418</ele>
        <time>2016-01-01T09:49:07.000Z</time>
      </trkpt>
      <trkpt lat="47.53428" lon="6.6381">
        <ele>418</ele>
        <time>2016-01-01T09:49:08.001Z</time>
      </trkpt>
      <trkpt lat="47.5343" lon="6.63813">
        <ele>418</ele>
        <time>2016-01-01T09:49:09.000Z</time>
      </trkpt>
      <trkpt lat="47.53432" lon="6.63816">
        <ele>418</ele>
        <time>2016-01-01T09:49:10.000Z</time>
      </trkpt>
      <trkpt lat="47.53433" lon="6.63819">
        <ele>418</ele>
        <time>2016-01-01T09:49:11.000Z</time>
      </trkpt>
      <trkpt lat="47.53435" lon="6.63823">
        <ele>418</ele>
        <time>2016-01-01T09:49:12.000Z</time>
      </trkpt>
      <trkpt lat="47.53437" lon="6.63826">
        <ele>418</ele>
        <time>2016-01-01T09:49:13.000Z</time>
      </trkpt>
      <trkpt lat="47.53438" lon="6.63829">
        <ele>418</ele>
        <time>2016-01-01T09:49:14.000Z</time>
      </trkpt>
      <trkpt lat="47.5344" lon="6.63832">
        <ele>419</ele>
        <time>2016-01-01T09:49:15.000Z</time>
      </trkpt>
      <trkpt lat="47.53442" lon="6.63835">
        <ele>419</ele>
        <time>2016-01-01T09:49:16.000Z</time>
      </trkpt>
      <trkpt lat="47.53444" lon="6.63837">
        <ele>419</ele>
        <time>2016-01-01T09:49:17.000Z</time>
      </trkpt>
      <trkpt lat="47.53446" lon="6.6384">
        <ele>419</ele>
        <time>2016-01-01T09:49:18.000Z</time>
      </trkpt>
      <trkpt lat="47.53449" lon="6.63843">
        <ele>419</ele>
        <time>2016-01-01T09:49:19.000Z</time>
      </trkpt>
      <trkpt lat="47.53451" lon="6.63846">
        <ele>419</ele>
        <time>2016-01-01T09:49:20.000Z</time>
      </trkpt>
      <trkpt lat="47.53453" lon="6.63849">
        <ele>419</ele>
        <time>2016-01-01T09:49:21.000Z</time>
      </trkpt>
      <trkpt lat="47.53456" lon="6.63853">
        <ele>420</ele>
        <time>2016-01-01T09:49:22.000Z</time>
      </trkpt>
      <trkpt lat="47.53459" lon="6.63856">
        <ele>420</ele>
        <time>2016-01-01T09:49:23.000Z</time>
      </trkpt>
      <trkpt lat="47.53462" lon="6.63859">
        <ele>420</ele>
        <time>2016-01-01T09:49:24.000Z</time>
      </trkpt>
      <trkpt lat="47.53464" lon="6.63863">
        <ele>420</ele>
        <time>2016-01-01T09:49:25.000Z</time>
      </trkpt>
      <trkpt lat="47.53467" lon="6.63866">
        <ele>420</ele>
        <time>2016-01-01T09:49:26.000Z</time>
      </trkpt>
      <trkpt lat="47.5347" lon="6.6387">
        <ele>420</ele>
        <time>2016-01-01T09:49:27.000Z</time>
      </trkpt>
      <trkpt lat="47.53472" lon="6.63873">
        <ele>420</ele>
        <time>2016-01-01T09:49:28.000Z</time>
      </trkpt>
      <trkpt lat="47.53475" lon="6.63877">
        <ele>420</ele>
        <time>2016-01-01T09:49:29.000Z</time>
      </trkpt>
      <trkpt lat="47.53478" lon="6.6388">
        <ele>420</ele>
        <time>2016-01-01T09:49:30.000Z</time>
      </trkpt>
      <trkpt lat="47.5348" lon="6.63884">
        <ele>420</ele>
        <time>2016-01-01T09:49:31.000Z</time>
      </trkpt>
      <trkpt lat="47.53483" lon="6.63888">
        <ele>420</ele>
        <time>2016-01-01T09:49:32.000Z</time>
      </trkpt>
      <trkpt lat="47.53486" lon="6.63892">
        <ele>420</ele>
        <time>2016-01-01T09:49:33.000Z</time>
      </trkpt>
      <trkpt lat="47.53489" lon="6.63896">
        <ele>420</ele>
        <time>2016-01-01T09:49:34.000Z</time>
      </trkpt>
      <trkpt lat="47.53492" lon="6.639">
        <ele>420</ele>
        <time>2016-01-01T09:49:35.000Z</time>
      </trkpt>
      <trkpt lat="47.53495" lon="6.63904">
        <ele>420</ele>
        <time>2016-01-01T09:49:36.000Z</time>
      </trkpt>
      <trkpt lat="47.53498" lon="6.63908">
        <ele>421</ele>
        <time>2016-01-01T09:49:37.000Z</time>
      </trkpt>
      <trkpt lat="47.53501" lon="6.63913">
        <ele>421</ele>
        <time>2016-01-01T09:49:38.000Z</time>
      </trkpt>
      <trkpt lat="47.53505" lon="6.63919">
        <ele>421</ele>
        <time>2016-01-01T09:49:39.000Z</time>
      </trkpt>
      <trkpt lat="47.53509" lon="6.63924">
        <ele>421</ele>
        <time>2016-01-01T09:49:40.000Z</time>
      </trkpt>
      <trkpt lat="47.53512" lon="6.63929">
        <ele>421</ele>
        <time>2016-01-01T09:49:41.000Z</time>
      </trkpt>
      <trkpt lat="47.53515" lon="6.63933">
        <ele>421</ele>
        <time>2016-01-01T09:49:42.000Z</time>
      </trkpt>
      <trkpt lat="47.53519" lon="6.63939">
        <ele>421</ele>
        <time>2016-01-01T09:49:43.000Z</time>
      </trkpt>
      <trkpt lat="47.53523" lon="6.63944">
        <ele>421</ele>
        <time>2016-01-01T09:49:44.000Z</time>
      </trkpt>
      <trkpt lat="47.53527" lon="6.63949">
        <ele>421</ele>
        <time>2016-01-01T09:49:45.000Z</time>
      </trkpt>
      <trkpt lat="47.5353" lon="6.63954">
        <ele>421</ele>
        <time>2016-01-01T09:49:46.000Z</time>
      </trkpt>
      <trkpt lat="47.53534" lon="6.63959">
        <ele>421</ele>
        <time>2016-01-01T09:49:47.000Z</time>
      </trkpt>
      <trkpt lat="47.53537" lon="6.63964">
        <ele>421</ele>
        <time>2016-01-01T09:49:48.000Z</time>
      </trkpt>
      <trkpt lat="47.53541" lon="6.63969">
        <ele>422</ele>
        <time>2016-01-01T09:49:49.000Z</time>
      </trkpt>
      <trkpt lat="47.53544" lon="6.63973">
        <ele>422</ele>
        <time>2016-01-01T09:49:50.000Z</time>
      </trkpt>
      <trkpt lat="47.53548" lon="6.63979">
        <ele>422</ele>
        <time>2016-01-01T09:49:51.000Z</time>
      </trkpt>
      <trkpt lat="47.53551" lon="6.6398">
        <ele>422</ele>
        <time>2016-01-01T09:49:52.000Z</time>
      </trkpt>
      <trkpt lat="47.53556" lon="6.63985">
        <ele>422</ele>
        <time>2016-01-01T09:49:53.000Z</time>
      </trkpt>
      <trkpt lat="47.53558" lon="6.63986">
        <ele>422</ele>
        <time>2016-01-01T09:49:54.000Z</time>
      </trkpt>
      <trkpt lat="47.53561" lon="6.63989">
        <ele>422</ele>
        <time>2016-01-01T09:49:55.000Z</time>
      </trkpt>
      <trkpt lat="47.53563" lon="6.63991">
        <ele>422</ele>
        <time>2016-01-01T09:49:56.000Z</time>
      </trkpt>
      <trkpt lat="47.53565" lon="6.63994">
        <ele>423</ele>
        <time>2016-01-01T09:49:57.000Z</time>
      </trkpt>
      <trkpt lat="47.53567" lon="6.63996">
        <ele>423</ele>
        <time>2016-01-01T09:49:58.000Z</time>
      </trkpt>
      <trkpt lat="47.5357" lon="6.63999">
        <ele>423</ele>
        <time>2016-01-01T09:49:59.000Z</time>
      </trkpt>
      <trkpt lat="47.53574" lon="6.64002">
        <ele>423</ele>
        <time>2016-01-01T09:50:02.000Z</time>
      </trkpt>
      <trkpt lat="47.53576" lon="6.64003">
        <ele>423</ele>
        <time>2016-01-01T09:50:03.000Z</time>
      </trkpt>
      <trkpt lat="47.5358" lon="6.64005">
        <ele>423</ele>
        <time>2016-01-01T09:50:05.000Z</time>
      </trkpt>
      <trkpt lat="47.53582" lon="6.64006">
        <ele>423</ele>
        <time>2016-01-01T09:50:06.000Z</time>
      </trkpt>
      <trkpt lat="47.53584" lon="6.64007">
        <ele>424</ele>
        <time>2016-01-01T09:50:06.998Z</time>
      </trkpt>
      <trkpt lat="47.53587" lon="6.64008">
        <ele>424</ele>
        <time>2016-01-01T09:50:08.000Z</time>
      </trkpt>
      <trkpt lat="47.53589" lon="6.64009">
        <ele>424</ele>
        <time>2016-01-01T09:50:09.000Z</time>
      </trkpt>
      <trkpt lat="47.53592" lon="6.64009">
        <ele>424</ele>
        <time>2016-01-01T09:50:10.000Z</time>
      </trkpt>
      <trkpt lat="47.53595" lon="6.64009">
        <ele>423</ele>
        <time>2016-01-01T09:50:11.000Z</time>
      </trkpt>
      <trkpt lat="47.53598" lon="6.64009">
        <ele>423</ele>
        <time>2016-01-01T09:50:12.000Z</time>
      </trkpt>
      <trkpt lat="47.53601" lon="6.64009">
        <ele>423</ele>
        <time>2016-01-01T09:50:13.000Z</time>
      </trkpt>
      <trkpt lat="47.53603" lon="6.6401">
        <ele>423</ele>
        <time>2016-01-01T09:50:14.000Z</time>
      </trkpt>
      <trkpt lat="47.53606" lon="6.64011">
        <ele>423</ele>
        <time>2016-01-01T09:50:15.000Z</time>
      </trkpt>
      <trkpt lat="47.53609" lon="6.64012">
        <ele>423</ele>
        <time>2016-01-01T09:50:16.000Z</time>
      </trkpt>
      <trkpt lat="47.53611" lon="6.64013">
        <ele>423</ele>
        <time>2016-01-01T09:50:17.000Z</time>
      </trkpt>
      <trkpt lat="47.53613" lon="6.64014">
        <ele>423</ele>
        <time>2016-01-01T09:50:18.000Z</time>
      </trkpt>
      <trkpt lat="47.53616" lon="6.64014">
        <ele>423</ele>
        <time>2016-01-01T09:50:19.000Z</time>
      </trkpt>
      <trkpt lat="47.53619" lon="6.64014">
        <ele>423</ele>
        <time>2016-01-01T09:50:20.000Z</time>
      </trkpt>
      <trkpt lat="47.53622" lon="6.64014">
        <ele>423</ele>
        <time>2016-01-01T09:50:21.000Z</time>
      </trkpt>
      <trkpt lat="47.53626" lon="6.64014">
        <ele>423</ele>
        <time>2016-01-01T09:50:22.000Z</time>
      </trkpt>
      <trkpt lat="47.5363" lon="6.64015">
        <ele>423</ele>
        <time>2016-01-01T09:50:23.000Z</time>
      </trkpt>
      <trkpt lat="47.53634" lon="6.64017">
        <ele>423</ele>
        <time>2016-01-01T09:50:24.000Z</time>
      </trkpt>
      <trkpt lat="47.53639" lon="6.6402">
        <ele>423</ele>
        <time>2016-01-01T09:50:25.000Z</time>
      </trkpt>
      <trkpt lat="47.53643" lon="6.64023">
        <ele>423</ele>
        <time>2016-01-01T09:50:26.000Z</time>
      </trkpt>
      <trkpt lat="47.53646" lon="6.64026">
        <ele>423</ele>
        <time>2016-01-01T09:50:27.000Z</time>
      </trkpt>
      <trkpt lat="47.5365" lon="6.6403">
        <ele>423</ele>
        <time>2016-01-01T09:50:28.000Z</time>
      </trkpt>
      <trkpt lat="47.53652" lon="6.64033">
        <ele>423</ele>
        <time>2016-01-01T09:50:29.000Z</time>
      </trkpt>
      <trkpt lat="47.53655" lon="6.64034">
        <ele>423</ele>
        <time>2016-01-01T09:50:30.000Z</time>
      </trkpt>
      <trkpt lat="47.53657" lon="6.64035">
        <ele>423</ele>
        <time>2016-01-01T09:50:31.000Z</time>
      </trkpt>
      <trkpt lat="47.5366" lon="6.64036">
        <ele>423</ele>
        <time>2016-01-01T09:50:32.000Z</time>
      </trkpt>
      <trkpt lat="47.53663" lon="6.64037">
        <ele>423</ele>
        <time>2016-01-01T09:50:33.000Z</time>
      </trkpt>
      <trkpt lat="47.53666" lon="6.64039">
        <ele>423</ele>
        <time>2016-01-01T09:50:35.000Z</time>
      </trkpt>
      <trkpt lat="47.53668" lon="6.64041">
        <ele>423</ele>
        <time>2016-01-01T09:50:36.000Z</time>
      </trkpt>
      <trkpt lat="47.5367" lon="6.64043">
        <ele>424</ele>
        <time>2016-01-01T09:50:37.000Z</time>
      </trkpt>
      <trkpt lat="47.53672" lon="6.64045">
        <ele>424</ele>
        <time>2016-01-01T09:50:38.000Z</time>
      </trkpt>
      <trkpt lat="47.53674" lon="6.64048">
        <ele>424</ele>
        <time>2016-01-01T09:50:39.000Z</time>
      </trkpt>
      <trkpt lat="47.53677" lon="6.64051">
        <ele>424</ele>
        <time>2016-01-01T09:50:40.000Z</time>
      </trkpt>
      <trkpt lat="47.53681" lon="6.64054">
        <ele>424</ele>
        <time>2016-01-01T09:50:41.000Z</time>
      </trkpt>
      <trkpt lat="47.53684" lon="6.64056">
        <ele>424</ele>
        <time>2016-01-01T09:50:42.000Z</time>
      </trkpt>
      <trkpt lat="47.53687" lon="6.64058">
        <ele>424</ele>
        <time>2016-01-01T09:50:43.000Z</time>
      </trkpt>
      <trkpt lat="47.5369" lon="6.6406">
        <ele>424</ele>
        <time>2016-01-01T09:50:44.000Z</time>
      </trkpt>
      <trkpt lat="47.53693" lon="6.64062">
        <ele>424</ele>
        <time>2016-01-01T09:50:45.000Z</time>
      </trkpt>
      <trkpt lat="47.53696" lon="6.64065">
        <ele>424</ele>
        <time>2016-01-01T09:50:46.000Z</time>
      </trkpt>
      <trkpt lat="47.53698" lon="6.64069">
        <ele>424</ele>
        <time>2016-01-01T09:50:47.000Z</time>
      </trkpt>
      <trkpt lat="47.537" lon="6.64075">
        <ele>424</ele>
        <time>2016-01-01T09:50:48.000Z</time>
      </trkpt>
      <trkpt lat="47.53703" lon="6.6408">
        <ele>424</ele>
        <time>2016-01-01T09:50:49.000Z</time>
      </trkpt>
      <trkpt lat="47.53706" lon="6.64085">
        <ele>423</ele>
        <time>2016-01-01T09:50:50.000Z</time>
      </trkpt>
      <trkpt lat="47.53709" lon="6.6409">
        <ele>423</ele>
        <time>2016-01-01T09:50:51.000Z</time>
      </trkpt>
      <trkpt lat="47.53717" lon="6.64098">
        <ele>423</ele>
        <time>2016-01-01T09:50:52.000Z</time>
      </trkpt>
      <trkpt lat="47.53721" lon="6.641">
        <ele>423</ele>
        <time>2016-01-01T09:50:53.000Z</time>
      </trkpt>
      <trkpt lat="47.53725" lon="6.64102">
        <ele>423</ele>
        <time>2016-01-01T09:50:54.000Z</time>
      </trkpt>
      <trkpt lat="47.53729" lon="6.64105">
        <ele>423</ele>
        <time>2016-01-01T09:50:55.000Z</time>
      </trkpt>
      <trkpt lat="47.53733" lon="6.64108">
        <ele>423</ele>
        <time>2016-01-01T09:50:56.000Z</time>
      </trkpt>
      <trkpt lat="47.53736" lon="6.64113">
        <ele>422</ele>
        <time>2016-01-01T09:50:57.000Z</time>
      </trkpt>
      <trkpt lat="47.53739" lon="6.64117">
        <ele>422</ele>
        <time>2016-01-01T09:50:58.000Z</time>
      </trkpt>
      <trkpt lat="47.53742" lon="6.64119">
        <ele>422</ele>
        <time>2016-01-01T09:50:59.000Z</time>
      </trkpt>
      <trkpt lat="47.53744" lon="6.64119">
        <ele>422</ele>
        <time>2016-01-01T09:51:00.000Z</time>
      </trkpt>
      <trkpt lat="47.53747" lon="6.64122">
        <ele>422</ele>
        <time>2016-01-01T09:51:01.000Z</time>
      </trkpt>
      <trkpt lat="47.53749" lon="6.64125">
        <ele>421</ele>
        <time>2016-01-01T09:51:02.000Z</time>
      </trkpt>
      <trkpt lat="47.53752" lon="6.64129">
        <ele>420</ele>
        <time>2016-01-01T09:51:03.000Z</time>
      </trkpt>
      <trkpt lat="47.53753" lon="6.64133">
        <ele>419</ele>
        <time>2016-01-01T09:51:04.000Z</time>
      </trkpt>
      <trkpt lat="47.53755" lon="6.64137">
        <ele>419</ele>
        <time>2016-01-01T09:51:05.000Z</time>
      </trkpt>
      <trkpt lat="47.53757" lon="6.64142">
        <ele>418</ele>
        <time>2016-01-01T09:51:06.000Z</time>
      </trkpt>
      <trkpt lat="47.53758" lon="6.64148">
        <ele>418</ele>
        <time>2016-01-01T09:51:07.000Z</time>
      </trkpt>
      <trkpt lat="47.5376" lon="6.64153">
        <ele>418</ele>
        <time>2016-01-01T09:51:08.000Z</time>
      </trkpt>
      <trkpt lat="47.5376" lon="6.64157">
        <ele>417</ele>
        <time>2016-01-01T09:51:09.000Z</time>
      </trkpt>
      <trkpt lat="47.53761" lon="6.64161">
        <ele>417</ele>
        <time>2016-01-01T09:51:10.000Z</time>
      </trkpt>
      <trkpt lat="47.53762" lon="6.64164">
        <ele>417</ele>
        <time>2016-01-01T09:51:11.000Z</time>
      </trkpt>
      <trkpt lat="47.53764" lon="6.64167">
        <ele>416</ele>
        <time>2016-01-01T09:51:12.000Z</time>
      </trkpt>
      <trkpt lat="47.53766" lon="6.64171">
        <ele>416</ele>
        <time>2016-01-01T09:51:13.000Z</time>
      </trkpt>
      <trkpt lat="47.53768" lon="6.64176">
        <ele>415</ele>
        <time>2016-01-01T09:51:14.000Z</time>
      </trkpt>
      <trkpt lat="47.53769" lon="6.64181">
        <ele>415</ele>
        <time>2016-01-01T09:51:15.000Z</time>
      </trkpt>
      <trkpt lat="47.5377" lon="6.64186">
        <ele>415</ele>
        <time>2016-01-01T09:51:16.000Z</time>
      </trkpt>
      <trkpt lat="47.53771" lon="6.6419">
        <ele>415</ele>
        <time>2016-01-01T09:51:17.000Z</time>
      </trkpt>
      <trkpt lat="47.53772" lon="6.64194">
        <ele>415</ele>
        <time>2016-01-01T09:51:18.000Z</time>
      </trkpt>
      <trkpt lat="47.53774" lon="6.64199">
        <ele>415</ele>
        <time>2016-01-01T09:51:19.000Z</time>
      </trkpt>
      <trkpt lat="47.53775" lon="6.64205">
        <ele>415</ele>
        <time>2016-01-01T09:51:20.000Z</time>
      </trkpt>
      <trkpt lat="47.53778" lon="6.64211">
        <ele>415</ele>
        <time>2016-01-01T09:51:21.000Z</time>
      </trkpt>
      <trkpt lat="47.5378" lon="6.64218">
        <ele>415</ele>
        <time>2016-01-01T09:51:22.000Z</time>
      </trkpt>
      <trkpt lat="47.53782" lon="6.64226">
        <ele>415</ele>
        <time>2016-01-01T09:51:23.000Z</time>
      </trkpt>
      <trkpt lat="47.53784" lon="6.64233">
        <ele>415</ele>
        <time>2016-01-01T09:51:24.000Z</time>
      </trkpt>
      <trkpt lat="47.53785" lon="6.6424">
        <ele>415</ele>
        <time>2016-01-01T09:51:25.000Z</time>
      </trkpt>
      <trkpt lat="47.53785" lon="6.64245">
        <ele>415</ele>
        <time>2016-01-01T09:51:26.000Z</time>
      </trkpt>
      <trkpt lat="47.53785" lon="6.64249">
        <ele>415</ele>
        <time>2016-01-01T09:51:27.000Z</time>
      </trkpt>
      <trkpt lat="47.53785" lon="6.64252">
        <ele>413</ele>
        <time>2016-01-01T09:51:28.000Z</time>
      </trkpt>
      <trkpt lat="47.53785" lon="6.64257">
        <ele>413</ele>
        <time>2016-01-01T09:51:30.000Z</time>
      </trkpt>
      <trkpt lat="47.53786" lon="6.64259">
        <ele>413</ele>
        <time>2016-01-01T09:51:31.000Z</time>
      </trkpt>
      <trkpt lat="47.53787" lon="6.64264">
        <ele>413</ele>
        <time>2016-01-01T09:51:35.000Z</time>
      </trkpt>
      <trkpt lat="47.53787" lon="6.64265">
        <ele>413</ele>
        <time>2016-01-01T09:51:36.000Z</time>
      </trkpt>
      <trkpt lat="47.53786" lon="6.64269">
        <ele>413</ele>
        <time>2016-01-01T09:51:38.000Z</time>
      </trkpt>
      <trkpt lat="47.53785" lon="6.64272">
        <ele>413</ele>
        <time>2016-01-01T09:51:39.000Z</time>
      </trkpt>
      <trkpt lat="47.53784" lon="6.64275">
        <ele>413</ele>
        <time>2016-01-01T09:51:40.000Z</time>
      </trkpt>
      <trkpt lat="47.53784" lon="6.64279">
        <ele>413</ele>
        <time>2016-01-01T09:51:41.000Z</time>
      </trkpt>
      <trkpt lat="47.53783" lon="6.64283">
        <ele>413</ele>
        <time>2016-01-01T09:51:42.000Z</time>
      </trkpt>
      <trkpt lat="47.53782" lon="6.64287">
        <ele>413</ele>
        <time>2016-01-01T09:51:43.000Z</time>
      </trkpt>
      <trkpt lat="47.53782" lon="6.64291">
        <ele>413</ele>
        <time>2016-01-01T09:51:44.000Z</time>
      </trkpt>
      <trkpt lat="47.53781" lon="6.64296">
        <ele>413</ele>
        <time>2016-01-01T09:51:45.000Z</time>
      </trkpt>
      <trkpt lat="47.5378" lon="6.643">
        <ele>413</ele>
        <time>2016-01-01T09:51:46.000Z</time>
      </trkpt>
      <trkpt lat="47.5378" lon="6.64304">
        <ele>413</ele>
        <time>2016-01-01T09:51:47.000Z</time>
      </trkpt>
      <trkpt lat="47.5378" lon="6.64309">
        <ele>413</ele>
        <time>2016-01-01T09:51:48.000Z</time>
      </trkpt>
      <trkpt lat="47.53779" lon="6.64314">
        <ele>413</ele>
        <time>2016-01-01T09:51:49.000Z</time>
      </trkpt>
      <trkpt lat="47.53779" lon="6.6432">
        <ele>413</ele>
        <time>2016-01-01T09:51:50.000Z</time>
      </trkpt>
      <trkpt lat="47.53778" lon="6.64326">
        <ele>413</ele>
        <time>2016-01-01T09:51:51.000Z</time>
      </trkpt>
      <trkpt lat="47.53777" lon="6.64333">
        <ele>413</ele>
        <time>2016-01-01T09:51:52.000Z</time>
      </trkpt>
      <trkpt lat="47.53776" lon="6.6434">
        <ele>412</ele>
        <time>2016-01-01T09:51:53.000Z</time>
      </trkpt>
      <trkpt lat="47.53775" lon="6.64347">
        <ele>412</ele>
        <time>2016-01-01T09:51:54.000Z</time>
      </trkpt>
      <trkpt lat="47.53775" lon="6.64354">
        <ele>412</ele>
        <time>2016-01-01T09:51:55.000Z</time>
      </trkpt>
      <trkpt lat="47.53774" lon="6.6436">
        <ele>413</ele>
        <time>2016-01-01T09:51:56.000Z</time>
      </trkpt>
      <trkpt lat="47.53773" lon="6.64367">
        <ele>413</ele>
        <time>2016-01-01T09:51:57.000Z</time>
      </trkpt>
      <trkpt lat="47.53773" lon="6.64374">
        <ele>413</ele>
        <time>2016-01-01T09:51:58.000Z</time>
      </trkpt>
      <trkpt lat="47.53773" lon="6.64381">
        <ele>413</ele>
        <time>2016-01-01T09:51:59.000Z</time>
      </trkpt>
      <trkpt lat="47.53773" lon="6.64388">
        <ele>413</ele>
        <time>2016-01-01T09:52:00.000Z</time>
      </trkpt>
      <trkpt lat="47.53774" lon="6.64406">
        <ele>413</ele>
        <time>2016-01-01T09:52:01.000Z</time>
      </trkpt>
      <trkpt lat="47.53772" lon="6.64415">
        <ele>413</ele>
        <time>2016-01-01T09:52:02.000Z</time>
      </trkpt>
      <trkpt lat="47.53772" lon="6.64426">
        <ele>412</ele>
        <time>2016-01-01T09:52:03.000Z</time>
      </trkpt>
      <trkpt lat="47.53771" lon="6.64435">
        <ele>412</ele>
        <time>2016-01-01T09:52:04.000Z</time>
      </trkpt>
      <trkpt lat="47.53771" lon="6.64446">
        <ele>412</ele>
        <time>2016-01-01T09:52:05.000Z</time>
      </trkpt>
      <trkpt lat="47.53769" lon="6.64455">
        <ele>412</ele>
        <time>2016-01-01T09:52:06.000Z</time>
      </trkpt>
      <trkpt lat="47.53768" lon="6.64465">
        <ele>412</ele>
        <time>2016-01-01T09:52:07.000Z</time>
      </trkpt>
      <trkpt lat="47.53767" lon="6.64473">
        <ele>412</ele>
        <time>2016-01-01T09:52:08.000Z</time>
      </trkpt>
      <trkpt lat="47.53765" lon="6.64481">
        <ele>411</ele>
        <time>2016-01-01T09:52:09.000Z</time>
      </trkpt>
      <trkpt lat="47.53765" lon="6.64491">
        <ele>411</ele>
        <time>2016-01-01T09:52:10.000Z</time>
      </trkpt>
      <trkpt lat="47.53763" lon="6.64498">
        <ele>411</ele>
        <time>2016-01-01T09:52:11.000Z</time>
      </trkpt>
      <trkpt lat="47.53763" lon="6.64506">
        <ele>409</ele>
        <time>2016-01-01T09:52:12.000Z</time>
      </trkpt>
      <trkpt lat="47.53762" lon="6.64513">
        <ele>409</ele>
        <time>2016-01-01T09:52:13.000Z</time>
      </trkpt>
      <trkpt lat="47.53762" lon="6.64521">
        <ele>409</ele>
        <time>2016-01-01T09:52:14.000Z</time>
      </trkpt>
      <trkpt lat="47.53762" lon="6.64528">
        <ele>409</ele>
        <time>2016-01-01T09:52:15.000Z</time>
      </trkpt>
      <trkpt lat="47.53761" lon="6.64534">
        <ele>409</ele>
        <time>2016-01-01T09:52:16.000Z</time>
      </trkpt>
      <trkpt lat="47.53766" lon="6.64538">
        <ele>409</ele>
        <time>2016-01-01T09:52:17.000Z</time>
      </trkpt>
      <trkpt lat="47.53768" lon="6.64541">
        <ele>409</ele>
        <time>2016-01-01T09:52:18.000Z</time>
      </trkpt>
      <trkpt lat="47.53769" lon="6.64543">
        <ele>408</ele>
        <time>2016-01-01T09:52:19.000Z</time>
      </trkpt>
      <trkpt lat="47.53771" lon="6.64545">
        <ele>408</ele>
        <time>2016-01-01T09:52:20.000Z</time>
      </trkpt>
      <trkpt lat="47.53776" lon="6.64546">
        <ele>408</ele>
        <time>2016-01-01T09:52:21.000Z</time>
      </trkpt>
      <trkpt lat="47.53779" lon="6.64548">
        <ele>408</ele>
        <time>2016-01-01T09:52:22.000Z</time>
      </trkpt>
      <trkpt lat="47.53782" lon="6.64549">
        <ele>408</ele>
        <time>2016-01-01T09:52:23.000Z</time>
      </trkpt>
      <trkpt lat="47.53786" lon="6.64551">
        <ele>408</ele>
        <time>2016-01-01T09:52:24.000Z</time>
      </trkpt>
      <trkpt lat="47.53789" lon="6.64552">
        <ele>408</ele>
        <time>2016-01-01T09:52:25.000Z</time>
      </trkpt>
      <trkpt lat="47.53793" lon="6.64554">
        <ele>408</ele>
        <time>2016-01-01T09:52:26.000Z</time>
      </trkpt>
      <trkpt lat="47.53797" lon="6.64556">
        <ele>408</ele>
        <time>2016-01-01T09:52:27.000Z</time>
      </trkpt>
      <trkpt lat="47.53801" lon="6.64558">
        <ele>408</ele>
        <time>2016-01-01T09:52:28.000Z</time>
      </trkpt>
      <trkpt lat="47.53804" lon="6.6456">
        <ele>408</ele>
        <time>2016-01-01T09:52:29.000Z</time>
      </trkpt>
      <trkpt lat="47.53809" lon="6.64565">
        <ele>408</ele>
        <time>2016-01-01T09:52:30.000Z</time>
      </trkpt>
      <trkpt lat="47.53812" lon="6.64569">
        <ele>407</ele>
        <time>2016-01-01T09:52:31.000Z</time>
      </trkpt>
      <trkpt lat="47.53816" lon="6.64573">
        <ele>407</ele>
        <time>2016-01-01T09:52:32.000Z</time>
      </trkpt>
      <trkpt lat="47.53819" lon="6.64576">
        <ele>407</ele>
        <time>2016-01-01T09:52:33.000Z</time>
      </trkpt>
      <trkpt lat="47.53822" lon="6.64578">
        <ele>406</ele>
        <time>2016-01-01T09:52:34.000Z</time>
      </trkpt>
      <trkpt lat="47.53826" lon="6.64582">
        <ele>406</ele>
        <time>2016-01-01T09:52:35.000Z</time>
      </trkpt>
      <trkpt lat="47.53832" lon="6.64584">
        <ele>405</ele>
        <time>2016-01-01T09:52:36.000Z</time>
      </trkpt>
      <trkpt lat="47.53837" lon="6.64586">
        <ele>405</ele>
        <time>2016-01-01T09:52:37.000Z</time>
      </trkpt>
      <trkpt lat="47.53842" lon="6.64586">
        <ele>405</ele>
        <time>2016-01-01T09:52:38.000Z</time>
      </trkpt>
      <trkpt lat="47.53849" lon="6.64583">
        <ele>405</ele>
        <time>2016-01-01T09:52:39.000Z</time>
      </trkpt>
      <trkpt lat="47.53855" lon="6.6458">
        <ele>405</ele>
        <time>2016-01-01T09:52:40.000Z</time>
      </trkpt>
      <trkpt lat="47.53861" lon="6.64574">
        <ele>405</ele>
        <time>2016-01-01T09:52:41.000Z</time>
      </trkpt>
      <trkpt lat="47.53867" lon="6.64569">
        <ele>404</ele>
        <time>2016-01-01T09:52:42.000Z</time>
      </trkpt>
      <trkpt lat="47.53873" lon="6.64564">
        <ele>404</ele>
        <time>2016-01-01T09:52:43.000Z</time>
      </trkpt>
      <trkpt lat="47.53879" lon="6.6456">
        <ele>404</ele>
        <time>2016-01-01T09:52:44.000Z</time>
      </trkpt>
      <trkpt lat="47.53886" lon="6.64556">
        <ele>404</ele>
        <time>2016-01-01T09:52:45.000Z</time>
      </trkpt>
      <trkpt lat="47.53893" lon="6.64553">
        <ele>404</ele>
        <time>2016-01-01T09:52:46.000Z</time>
      </trkpt>
      <trkpt lat="47.539" lon="6.64549">
        <ele>404</ele>
        <time>2016-01-01T09:52:47.000Z</time>
      </trkpt>
      <trkpt lat="47.53908" lon="6.64552">
        <ele>403</ele>
        <time>2016-01-01T09:52:48.000Z</time>
      </trkpt>
      <trkpt lat="47.53914" lon="6.64554">
        <ele>403</ele>
        <time>2016-01-01T09:52:49.000Z</time>
      </trkpt>
      <trkpt lat="47.5392" lon="6.6456">
        <ele>397</ele>
        <time>2016-01-01T09:52:50.000Z</time>
      </trkpt>
      <trkpt lat="47.53927" lon="6.64565">
        <ele>396</ele>
        <time>2016-01-01T09:52:51.000Z</time>
      </trkpt>
      <trkpt lat="47.53934" lon="6.64569">
        <ele>396</ele>
        <time>2016-01-01T09:52:52.000Z</time>
      </trkpt>
      <trkpt lat="47.53939" lon="6.64573">
        <ele>396</ele>
        <time>2016-01-01T09:52:53.000Z</time>
      </trkpt>
      <trkpt lat="47.53944" lon="6.64577">
        <ele>395</ele>
        <time>2016-01-01T09:52:54.000Z</time>
      </trkpt>
      <trkpt lat="47.53949" lon="6.64584">
        <ele>396</ele>
        <time>2016-01-01T09:52:55.000Z</time>
      </trkpt>
      <trkpt lat="47.53955" lon="6.64591">
        <ele>396</ele>
        <time>2016-01-01T09:52:56.000Z</time>
      </trkpt>
      <trkpt lat="47.53959" lon="6.64596">
        <ele>395</ele>
        <time>2016-01-01T09:52:57.000Z</time>
      </trkpt>
      <trkpt lat="47.53965" lon="6.64599">
        <ele>395</ele>
        <time>2016-01-01T09:52:58.000Z</time>
      </trkpt>
      <trkpt lat="47.53971" lon="6.64599">
        <ele>395</ele>
        <time>2016-01-01T09:52:59.000Z</time>
      </trkpt>
      <trkpt lat="47.53978" lon="6.64598">
        <ele>394</ele>
        <time>2016-01-01T09:53:00.000Z</time>
      </trkpt>
      <trkpt lat="47.53985" lon="6.64598">
        <ele>394</ele>
        <time>2016-01-01T09:53:01.000Z</time>
      </trkpt>
      <trkpt lat="47.53991" lon="6.64596">
        <ele>393</ele>
        <time>2016-01-01T09:53:02.000Z</time>
      </trkpt>
      <trkpt lat="47.53998" lon="6.64591">
        <ele>392</ele>
        <time>2016-01-01T09:53:03.000Z</time>
      </trkpt>
      <trkpt lat="47.54005" lon="6.64586">
        <ele>390</ele>
        <time>2016-01-01T09:53:04.000Z</time>
      </trkpt>
      <trkpt lat="47.54012" lon="6.64582">
        <ele>387</ele>
        <time>2016-01-01T09:53:05.000Z</time>
      </trkpt>
      <trkpt lat="47.5402" lon="6.64581">
        <ele>385</ele>
        <time>2016-01-01T09:53:06.000Z</time>
      </trkpt>
      <trkpt lat="47.54027" lon="6.6458">
        <ele>384</ele>
        <time>2016-01-01T09:53:07.000Z</time>
      </trkpt>
      <trkpt lat="47.54035" lon="6.64579">
        <ele>383</ele>
        <time>2016-01-01T09:53:08.000Z</time>
      </trkpt>
      <trkpt lat="47.54045" lon="6.6458">
        <ele>381</ele>
        <time>2016-01-01T09:53:09.000Z</time>
      </trkpt>
      <trkpt lat="47.54054" lon="6.64581">
        <ele>380</ele>
        <time>2016-01-01T09:53:10.000Z</time>
      </trkpt>
      <trkpt lat="47.54065" lon="6.64582">
        <ele>380</ele>
        <time>2016-01-01T09:53:11.000Z</time>
      </trkpt>
      <trkpt lat="47.54074" lon="6.64584">
        <ele>381</ele>
        <time>2016-01-01T09:53:12.000Z</time>
      </trkpt>
      <trkpt lat="47.54085" lon="6.64589">
        <ele>378</ele>
        <time>2016-01-01T09:53:13.000Z</time>
      </trkpt>
      <trkpt lat="47.54094" lon="6.64592">
        <ele>378</ele>
        <time>2016-01-01T09:53:14.000Z</time>
      </trkpt>
      <trkpt lat="47.54104" lon="6.64595">
        <ele>377</ele>
        <time>2016-01-01T09:53:15.000Z</time>
      </trkpt>
      <trkpt lat="47.54113" lon="6.64599">
        <ele>377</ele>
        <time>2016-01-01T09:53:16.000Z</time>
      </trkpt>
      <trkpt lat="47.54122" lon="6.64602">
        <ele>377</ele>
        <time>2016-01-01T09:53:17.000Z</time>
      </trkpt>
      <trkpt lat="47.54131" lon="6.64604">
        <ele>376</ele>
        <time>2016-01-01T09:53:18.000Z</time>
      </trkpt>
      <trkpt lat="47.54141" lon="6.64608">
        <ele>376</ele>
        <time>2016-01-01T09:53:19.000Z</time>
      </trkpt>
      <trkpt lat="47.5415" lon="6.64611">
        <ele>376</ele>
        <time>2016-01-01T09:53:20.000Z</time>
      </trkpt>
      <trkpt lat="47.54158" lon="6.64614">
        <ele>375</ele>
        <time>2016-01-01T09:53:21.000Z</time>
      </trkpt>
      <trkpt lat="47.54165" lon="6.64617">
        <ele>376</ele>
        <time>2016-01-01T09:53:22.000Z</time>
      </trkpt>
      <trkpt lat="47.54172" lon="6.6462">
        <ele>373</ele>
        <time>2016-01-01T09:53:23.000Z</time>
      </trkpt>
      <trkpt lat="47.5418" lon="6.64622">
        <ele>373</ele>
        <time>2016-01-01T09:53:24.000Z</time>
      </trkpt>
      <trkpt lat="47.54187" lon="6.64626">
        <ele>373</ele>
        <time>2016-01-01T09:53:25.000Z</time>
      </trkpt>
      <trkpt lat="47.54194" lon="6.64629">
        <ele>374</ele>
        <time>2016-01-01T09:53:26.000Z</time>
      </trkpt>
      <trkpt lat="47.542" lon="6.64631">
        <ele>373</ele>
        <time>2016-01-01T09:53:27.000Z</time>
      </trkpt>
      <trkpt lat="47.54206" lon="6.64632">
        <ele>373</ele>
        <time>2016-01-01T09:53:28.000Z</time>
      </trkpt>
      <trkpt lat="47.54211" lon="6.64635">
        <ele>373</ele>
        <time>2016-01-01T09:53:29.000Z</time>
      </trkpt>
      <trkpt lat="47.54216" lon="6.64636">
        <ele>373</ele>
        <time>2016-01-01T09:53:30.000Z</time>
      </trkpt>
      <trkpt lat="47.54221" lon="6.64638">
        <ele>373</ele>
        <time>2016-01-01T09:53:31.000Z</time>
      </trkpt>
      <trkpt lat="47.54226" lon="6.6464">
        <ele>373</ele>
        <time>2016-01-01T09:53:32.000Z</time>
      </trkpt>
      <trkpt lat="47.5423" lon="6.64641">
        <ele>373</ele>
        <time>2016-01-01T09:53:33.000Z</time>
      </trkpt>
      <trkpt lat="47.54234" lon="6.64642">
        <ele>373</ele>
        <time>2016-01-01T09:53:34.000Z</time>
      </trkpt>
      <trkpt lat="47.54239" lon="6.64644">
        <ele>373</ele>
        <time>2016-01-01T09:53:35.000Z</time>
      </trkpt>
      <trkpt lat="47.54244" lon="6.64645">
        <ele>373</ele>
        <time>2016-01-01T09:53:36.000Z</time>
      </trkpt>
      <trkpt lat="47.54249" lon="6.64647">
        <ele>374</ele>
        <time>2016-01-01T09:53:37.000Z</time>
      </trkpt>
      <trkpt lat="47.54254" lon="6.64649">
        <ele>372</ele>
        <time>2016-01-01T09:53:38.000Z</time>
      </trkpt>
      <trkpt lat="47.5426" lon="6.64651">
        <ele>372</ele>
        <time>2016-01-01T09:53:39.000Z</time>
      </trkpt>
      <trkpt lat="47.54266" lon="6.64652">
        <ele>372</ele>
        <time>2016-01-01T09:53:40.000Z</time>
      </trkpt>
      <trkpt lat="47.54271" lon="6.64655">
        <ele>372</ele>
        <time>2016-01-01T09:53:41.000Z</time>
      </trkpt>
      <trkpt lat="47.54277" lon="6.64657">
        <ele>372</ele>
        <time>2016-01-01T09:53:42.000Z</time>
      </trkpt>
      <trkpt lat="47.54283" lon="6.6466">
        <ele>372</ele>
        <time>2016-01-01T09:53:43.000Z</time>
      </trkpt>
      <trkpt lat="47.54289" lon="6.64662">
        <ele>372</ele>
        <time>2016-01-01T09:53:44.000Z</time>
      </trkpt>
      <trkpt lat="47.54295" lon="6.64664">
        <ele>371</ele>
        <time>2016-01-01T09:53:45.000Z</time>
      </trkpt>
      <trkpt lat="47.54301" lon="6.64666">
        <ele>371</ele>
        <time>2016-01-01T09:53:46.000Z</time>
      </trkpt>
      <trkpt lat="47.54306" lon="6.64668">
        <ele>374</ele>
        <time>2016-01-01T09:53:47.000Z</time>
      </trkpt>
      <trkpt lat="47.54312" lon="6.6467">
        <ele>373</ele>
        <time>2016-01-01T09:53:48.000Z</time>
      </trkpt>
      <trkpt lat="47.54318" lon="6.64672">
        <ele>373</ele>
        <time>2016-01-01T09:53:49.000Z</time>
      </trkpt>
      <trkpt lat="47.54324" lon="6.64674">
        <ele>373</ele>
        <time>2016-01-01T09:53:50.000Z</time>
      </trkpt>
      <trkpt lat="47.5433" lon="6.64676">
        <ele>372</ele>
        <time>2016-01-01T09:53:51.000Z</time>
      </trkpt>
      <trkpt lat="47.54335" lon="6.64678">
        <ele>372</ele>
        <time>2016-01-01T09:53:52.000Z</time>
      </trkpt>
      <trkpt lat="47.54341" lon="6.6468">
        <ele>372</ele>
        <time>2016-01-01T09:53:53.000Z</time>
      </trkpt>
      <trkpt lat="47.54346" lon="6.64681">
        <ele>372</ele>
        <time>2016-01-01T09:53:54.000Z</time>
      </trkpt>
      <trkpt lat="47.54352" lon="6.64684">
        <ele>372</ele>
        <time>2016-01-01T09:53:55.000Z</time>
      </trkpt>
      <trkpt lat="47.54358" lon="6.64687">
        <ele>372</ele>
        <time>2016-01-01T09:53:56.000Z</time>
      </trkpt>
      <trkpt lat="47.54364" lon="6.64689">
        <ele>372</ele>
        <time>2016-01-01T09:53:57.000Z</time>
      </trkpt>
      <trkpt lat="47.5437" lon="6.64691">
        <ele>372</ele>
        <time>2016-01-01T09:53:58.000Z</time>
      </trkpt>
      <trkpt lat="47.54377" lon="6.64694">
        <ele>372</ele>
        <time>2016-01-01T09:53:59.000Z</time>
      </trkpt>
      <trkpt lat="47.54382" lon="6.64696">
        <ele>372</ele>
        <time>2016-01-01T09:54:00.000Z</time>
      </trkpt>
      <trkpt lat="47.54388" lon="6.64698">
        <ele>372</ele>
        <time>2016-01-01T09:54:01.000Z</time>
      </trkpt>
      <trkpt lat="47.54393" lon="6.647">
        <ele>372</ele>
        <time>2016-01-01T09:54:02.000Z</time>
      </trkpt>
      <trkpt lat="47.54399" lon="6.64702">
        <ele>372</ele>
        <time>2016-01-01T09:54:03.000Z</time>
      </trkpt>
      <trkpt lat="47.54403" lon="6.64704">
        <ele>372</ele>
        <time>2016-01-01T09:54:04.000Z</time>
      </trkpt>
      <trkpt lat="47.54408" lon="6.64705">
        <ele>372</ele>
        <time>2016-01-01T09:54:05.000Z</time>
      </trkpt>
      <trkpt lat="47.54413" lon="6.64706">
        <ele>372</ele>
        <time>2016-01-01T09:54:06.000Z</time>
      </trkpt>
      <trkpt lat="47.54417" lon="6.64708">
        <ele>372</ele>
        <time>2016-01-01T09:54:07.000Z</time>
      </trkpt>
      <trkpt lat="47.54422" lon="6.64708">
        <ele>372</ele>
        <time>2016-01-01T09:54:08.000Z</time>
      </trkpt>
      <trkpt lat="47.54427" lon="6.64709">
        <ele>372</ele>
        <time>2016-01-01T09:54:09.000Z</time>
      </trkpt>
      <trkpt lat="47.54431" lon="6.6471">
        <ele>372</ele>
        <time>2016-01-01T09:54:10.000Z</time>
      </trkpt>
      <trkpt lat="47.54437" lon="6.64711">
        <ele>372</ele>
        <time>2016-01-01T09:54:11.000Z</time>
      </trkpt>
      <trkpt lat="47.54442" lon="6.64711">
        <ele>372</ele>
        <time>2016-01-01T09:54:12.000Z</time>
      </trkpt>
      <trkpt lat="47.54447" lon="6.64712">
        <ele>372</ele>
        <time>2016-01-01T09:54:13.000Z</time>
      </trkpt>
      <trkpt lat="47.54451" lon="6.64713">
        <ele>372</ele>
        <time>2016-01-01T09:54:14.000Z</time>
      </trkpt>
      <trkpt lat="47.54456" lon="6.64714">
        <ele>372</ele>
        <time>2016-01-01T09:54:15.000Z</time>
      </trkpt>
      <trkpt lat="47.5446" lon="6.64715">
        <ele>372</ele>
        <time>2016-01-01T09:54:16.000Z</time>
      </trkpt>
      <trkpt lat="47.54465" lon="6.64716">
        <ele>372</ele>
        <time>2016-01-01T09:54:17.000Z</time>
      </trkpt>
      <trkpt lat="47.54469" lon="6.64718">
        <ele>372</ele>
        <time>2016-01-01T09:54:18.000Z</time>
      </trkpt>
      <trkpt lat="47.54474" lon="6.6472">
        <ele>372</ele>
        <time>2016-01-01T09:54:19.000Z</time>
      </trkpt>
      <trkpt lat="47.54478" lon="6.64719">
        <ele>372</ele>
        <time>2016-01-01T09:54:20.000Z</time>
      </trkpt>
      <trkpt lat="47.54482" lon="6.6472">
        <ele>373</ele>
        <time>2016-01-01T09:54:21.000Z</time>
      </trkpt>
      <trkpt lat="47.54487" lon="6.64721">
        <ele>373</ele>
        <time>2016-01-01T09:54:22.000Z</time>
      </trkpt>
      <trkpt lat="47.54491" lon="6.64722">
        <ele>373</ele>
        <time>2016-01-01T09:54:23.000Z</time>
      </trkpt>
      <trkpt lat="47.54496" lon="6.64724">
        <ele>373</ele>
        <time>2016-01-01T09:54:24.000Z</time>
      </trkpt>
      <trkpt lat="47.54499" lon="6.64725">
        <ele>373</ele>
        <time>2016-01-01T09:54:25.000Z</time>
      </trkpt>
      <trkpt lat="47.54503" lon="6.64726">
        <ele>373</ele>
        <time>2016-01-01T09:54:26.000Z</time>
      </trkpt>
      <trkpt lat="47.54508" lon="6.64726">
        <ele>373</ele>
        <time>2016-01-01T09:54:27.000Z</time>
      </trkpt>
      <trkpt lat="47.54511" lon="6.64726">
        <ele>373</ele>
        <time>2016-01-01T09:54:28.000Z</time>
      </trkpt>
      <trkpt lat="47.54516" lon="6.64726">
        <ele>373</ele>
        <time>2016-01-01T09:54:29.000Z</time>
      </trkpt>
      <trkpt lat="47.5452" lon="6.64726">
        <ele>373</ele>
        <time>2016-01-01T09:54:30.000Z</time>
      </trkpt>
      <trkpt lat="47.54526" lon="6.64728">
        <ele>373</ele>
        <time>2016-01-01T09:54:31.000Z</time>
      </trkpt>
      <trkpt lat="47.5453" lon="6.64729">
        <ele>373</ele>
        <time>2016-01-01T09:54:32.000Z</time>
      </trkpt>
      <trkpt lat="47.54534" lon="6.6473">
        <ele>373</ele>
        <time>2016-01-01T09:54:33.000Z</time>
      </trkpt>
      <trkpt lat="47.54537" lon="6.64732">
        <ele>373</ele>
        <time>2016-01-01T09:54:34.000Z</time>
      </trkpt>
      <trkpt lat="47.54541" lon="6.64733">
        <ele>373</ele>
        <time>2016-01-01T09:54:35.000Z</time>
      </trkpt>
      <trkpt lat="47.54545" lon="6.64733">
        <ele>373</ele>
        <time>2016-01-01T09:54:36.000Z</time>
      </trkpt>
      <trkpt lat="47.54549" lon="6.64735">
        <ele>373</ele>
        <time>2016-01-01T09:54:37.000Z</time>
      </trkpt>
      <trkpt lat="47.54552" lon="6.64736">
        <ele>373</ele>
        <time>2016-01-01T09:54:38.000Z</time>
      </trkpt>
      <trkpt lat="47.54556" lon="6.64738">
        <ele>373</ele>
        <time>2016-01-01T09:54:39.000Z</time>
      </trkpt>
      <trkpt lat="47.5456" lon="6.64737">
        <ele>373</ele>
        <time>2016-01-01T09:54:40.000Z</time>
      </trkpt>
      <trkpt lat="47.54565" lon="6.64738">
        <ele>373</ele>
        <time>2016-01-01T09:54:41.000Z</time>
      </trkpt>
      <trkpt lat="47.5457" lon="6.64739">
        <ele>373</ele>
        <time>2016-01-01T09:54:42.000Z</time>
      </trkpt>
      <trkpt lat="47.54574" lon="6.6474">
        <ele>373</ele>
        <time>2016-01-01T09:54:43.000Z</time>
      </trkpt>
      <trkpt lat="47.54579" lon="6.64741">
        <ele>373</ele>
        <time>2016-01-01T09:54:44.000Z</time>
      </trkpt>
      <trkpt lat="47.54583" lon="6.64741">
        <ele>373</ele>
        <time>2016-01-01T09:54:45.000Z</time>
      </trkpt>
      <trkpt lat="47.54587" lon="6.64742">
        <ele>374</ele>
        <time>2016-01-01T09:54:46.000Z</time>
      </trkpt>
      <trkpt lat="47.54592" lon="6.64743">
        <ele>374</ele>
        <time>2016-01-01T09:54:47.000Z</time>
      </trkpt>
      <trkpt lat="47.54596" lon="6.64744">
        <ele>373</ele>
        <time>2016-01-01T09:54:48.000Z</time>
      </trkpt>
      <trkpt lat="47.54601" lon="6.64744">
        <ele>373</ele>
        <time>2016-01-01T09:54:49.000Z</time>
      </trkpt>
      <trkpt lat="47.54606" lon="6.64745">
        <ele>373</ele>
        <time>2016-01-01T09:54:50.000Z</time>
      </trkpt>
      <trkpt lat="47.5461" lon="6.64746">
        <ele>373</ele>
        <time>2016-01-01T09:54:51.000Z</time>
      </trkpt>
      <trkpt lat="47.54615" lon="6.64747">
        <ele>373</ele>
        <time>2016-01-01T09:54:52.000Z</time>
      </trkpt>
      <trkpt lat="47.54619" lon="6.64748">
        <ele>373</ele>
        <time>2016-01-01T09:54:53.000Z</time>
      </trkpt>
      <trkpt lat="47.54624" lon="6.64748">
        <ele>373</ele>
        <time>2016-01-01T09:54:54.000Z</time>
      </trkpt>
      <trkpt lat="47.54629" lon="6.64749">
        <ele>373</ele>
        <time>2016-01-01T09:54:55.000Z</time>
      </trkpt>
      <trkpt lat="47.54634" lon="6.6475">
        <ele>376</ele>
        <time>2016-01-01T09:54:56.000Z</time>
      </trkpt>
      <trkpt lat="47.54639" lon="6.64751">
        <ele>376</ele>
        <time>2016-01-01T09:54:57.000Z</time>
      </trkpt>
      <trkpt lat="47.54643" lon="6.64752">
        <ele>375</ele>
        <time>2016-01-01T09:54:58.000Z</time>
      </trkpt>
      <trkpt lat="47.54648" lon="6.64753">
        <ele>375</ele>
        <time>2016-01-01T09:54:59.000Z</time>
      </trkpt>
      <trkpt lat="47.54652" lon="6.64753">
        <ele>375</ele>
        <time>2016-01-01T09:54:59.999Z</time>
      </trkpt>
      <trkpt lat="47.54656" lon="6.64753">
        <ele>375</ele>
        <time>2016-01-01T09:55:01.000Z</time>
      </trkpt>
      <trkpt lat="47.5466" lon="6.64752">
        <ele>375</ele>
        <time>2016-01-01T09:55:02.000Z</time>
      </trkpt>
      <trkpt lat="47.54665" lon="6.64752">
        <ele>374</ele>
        <time>2016-01-01T09:55:03.000Z</time>
      </trkpt>
      <trkpt lat="47.5467" lon="6.64752">
        <ele>374</ele>
        <time>2016-01-01T09:55:04.000Z</time>
      </trkpt>
      <trkpt lat="47.54675" lon="6.64752">
        <ele>375</ele>
        <time>2016-01-01T09:55:05.000Z</time>
      </trkpt>
      <trkpt lat="47.5468" lon="6.64753">
        <ele>375</ele>
        <time>2016-01-01T09:55:06.000Z</time>
      </trkpt>
      <trkpt lat="47.54685" lon="6.64753">
        <ele>375</ele>
        <time>2016-01-01T09:55:07.000Z</time>
      </trkpt>
      <trkpt lat="47.5469" lon="6.64753">
        <ele>376</ele>
        <time>2016-01-01T09:55:08.000Z</time>
      </trkpt>
      <trkpt lat="47.54695" lon="6.64752">
        <ele>376</ele>
        <time>2016-01-01T09:55:09.000Z</time>
      </trkpt>
      <trkpt lat="47.547" lon="6.64753">
        <ele>376</ele>
        <time>2016-01-01T09:55:10.000Z</time>
      </trkpt>
      <trkpt lat="47.54706" lon="6.64753">
        <ele>376</ele>
        <time>2016-01-01T09:55:11.000Z</time>
      </trkpt>
      <trkpt lat="47.54711" lon="6.64753">
        <ele>376</ele>
        <time>2016-01-01T09:55:12.000Z</time>
      </trkpt>
      <trkpt lat="47.54716" lon="6.64752">
        <ele>376</ele>
        <time>2016-01-01T09:55:13.000Z</time>
      </trkpt>
      <trkpt lat="47.54721" lon="6.64751">
        <ele>376</ele>
        <time>2016-01-01T09:55:14.000Z</time>
      </trkpt>
      <trkpt lat="47.54726" lon="6.64751">
        <ele>376</ele>
        <time>2016-01-01T09:55:15.000Z</time>
      </trkpt>
      <trkpt lat="47.54731" lon="6.64751">
        <ele>376</ele>
        <time>2016-01-01T09:55:16.000Z</time>
      </trkpt>
      <trkpt lat="47.54735" lon="6.6475">
        <ele>374</ele>
        <time>2016-01-01T09:55:17.000Z</time>
      </trkpt>
      <trkpt lat="47.5474" lon="6.64749">
        <ele>374</ele>
        <time>2016-01-01T09:55:18.000Z</time>
      </trkpt>
      <trkpt lat="47.54744" lon="6.64748">
        <ele>375</ele>
        <time>2016-01-01T09:55:19.000Z</time>
      </trkpt>
      <trkpt lat="47.5475" lon="6.64747">
        <ele>375</ele>
        <time>2016-01-01T09:55:20.000Z</time>
      </trkpt>
      <trkpt lat="47.54755" lon="6.64747">
        <ele>375</ele>
        <time>2016-01-01T09:55:21.000Z</time>
      </trkpt>
      <trkpt lat="47.5476" lon="6.64747">
        <ele>374</ele>
        <time>2016-01-01T09:55:22.001Z</time>
      </trkpt>
      <trkpt lat="47.54765" lon="6.64746">
        <ele>374</ele>
        <time>2016-01-01T09:55:23.000Z</time>
      </trkpt>
      <trkpt lat="47.5477" lon="6.64745">
        <ele>374</ele>
        <time>2016-01-01T09:55:24.000Z</time>
      </trkpt>
      <trkpt lat="47.54775" lon="6.64744">
        <ele>374</ele>
        <time>2016-01-01T09:55:25.000Z</time>
      </trkpt>
      <trkpt lat="47.5478" lon="6.64744">
        <ele>374</ele>
        <time>2016-01-01T09:55:26.000Z</time>
      </trkpt>
      <trkpt lat="47.54785" lon="6.64744">
        <ele>374</ele>
        <time>2016-01-01T09:55:27.000Z</time>
      </trkpt>
      <trkpt lat="47.5479" lon="6.64743">
        <ele>374</ele>
        <time>2016-01-01T09:55:28.000Z</time>
      </trkpt>
      <trkpt lat="47.54795" lon="6.64742">
        <ele>373</ele>
        <time>2016-01-01T09:55:29.000Z</time>
      </trkpt>
      <trkpt lat="47.548" lon="6.64741">
        <ele>373</ele>
        <time>2016-01-01T09:55:30.000Z</time>
      </trkpt>
      <trkpt lat="47.54805" lon="6.64741">
        <ele>373</ele>
        <time>2016-01-01T09:55:31.000Z</time>
      </trkpt>
      <trkpt lat="47.54809" lon="6.6474">
        <ele>373</ele>
        <time>2016-01-01T09:55:32.000Z</time>
      </trkpt>
      <trkpt lat="47.54813" lon="6.64739">
        <ele>373</ele>
        <time>2016-01-01T09:55:33.000Z</time>
      </trkpt>
      <trkpt lat="47.54817" lon="6.64738">
        <ele>374</ele>
        <time>2016-01-01T09:55:34.000Z</time>
      </trkpt>
      <trkpt lat="47.54822" lon="6.64737">
        <ele>374</ele>
        <time>2016-01-01T09:55:35.000Z</time>
      </trkpt>
      <trkpt lat="47.54827" lon="6.64736">
        <ele>374</ele>
        <time>2016-01-01T09:55:36.000Z</time>
      </trkpt>
      <trkpt lat="47.54831" lon="6.64733">
        <ele>373</ele>
        <time>2016-01-01T09:55:37.000Z</time>
      </trkpt>
      <trkpt lat="47.54836" lon="6.64731">
        <ele>374</ele>
        <time>2016-01-01T09:55:38.000Z</time>
      </trkpt>
      <trkpt lat="47.54841" lon="6.64729">
        <ele>374</ele>
        <time>2016-01-01T09:55:39.000Z</time>
      </trkpt>
      <trkpt lat="47.54846" lon="6.64727">
        <ele>373</ele>
        <time>2016-01-01T09:55:40.000Z</time>
      </trkpt>
      <trkpt lat="47.5485" lon="6.64727">
        <ele>373</ele>
        <time>2016-01-01T09:55:41.000Z</time>
      </trkpt>
      <trkpt lat="47.54855" lon="6.64727">
        <ele>373</ele>
        <time>2016-01-01T09:55:42.000Z</time>
      </trkpt>
      <trkpt lat="47.54859" lon="6.64729">
        <ele>373</ele>
        <time>2016-01-01T09:55:43.000Z</time>
      </trkpt>
      <trkpt lat="47.54863" lon="6.64731">
        <ele>374</ele>
        <time>2016-01-01T09:55:44.000Z</time>
      </trkpt>
      <trkpt lat="47.54867" lon="6.64733">
        <ele>374</ele>
        <time>2016-01-01T09:55:45.000Z</time>
      </trkpt>
      <trkpt lat="47.54871" lon="6.64736">
        <ele>374</ele>
        <time>2016-01-01T09:55:46.000Z</time>
      </trkpt>
      <trkpt lat="47.54876" lon="6.64741">
        <ele>374</ele>
        <time>2016-01-01T09:55:47.000Z</time>
      </trkpt>
      <trkpt lat="47.5488" lon="6.64745">
        <ele>374</ele>
        <time>2016-01-01T09:55:48.000Z</time>
      </trkpt>
      <trkpt lat="47.54883" lon="6.64749">
        <ele>374</ele>
        <time>2016-01-01T09:55:49.000Z</time>
      </trkpt>
      <trkpt lat="47.54887" lon="6.64753">
        <ele>376</ele>
        <time>2016-01-01T09:55:50.000Z</time>
      </trkpt>
      <trkpt lat="47.54891" lon="6.64756">
        <ele>376</ele>
        <time>2016-01-01T09:55:51.000Z</time>
      </trkpt>
      <trkpt lat="47.54895" lon="6.6476">
        <ele>376</ele>
        <time>2016-01-01T09:55:52.000Z</time>
      </trkpt>
      <trkpt lat="47.54899" lon="6.64762">
        <ele>376</ele>
        <time>2016-01-01T09:55:53.000Z</time>
      </trkpt>
      <trkpt lat="47.54903" lon="6.64765">
        <ele>376</ele>
        <time>2016-01-01T09:55:54.000Z</time>
      </trkpt>
      <trkpt lat="47.54908" lon="6.64767">
        <ele>376</ele>
        <time>2016-01-01T09:55:55.000Z</time>
      </trkpt>
      <trkpt lat="47.54912" lon="6.64769">
        <ele>376</ele>
        <time>2016-01-01T09:55:56.000Z</time>
      </trkpt>
      <trkpt lat="47.54916" lon="6.64771">
        <ele>376</ele>
        <time>2016-01-01T09:55:57.000Z</time>
      </trkpt>
      <trkpt lat="47.54919" lon="6.64772">
        <ele>376</ele>
        <time>2016-01-01T09:55:58.000Z</time>
      </trkpt>
      <trkpt lat="47.54924" lon="6.64774">
        <ele>376</ele>
        <time>2016-01-01T09:55:59.000Z</time>
      </trkpt>
      <trkpt lat="47.54927" lon="6.64775">
        <ele>376</ele>
        <time>2016-01-01T09:56:00.000Z</time>
      </trkpt>
      <trkpt lat="47.54931" lon="6.64777">
        <ele>376</ele>
        <time>2016-01-01T09:56:01.000Z</time>
      </trkpt>
      <trkpt lat="47.54935" lon="6.64777">
        <ele>376</ele>
        <time>2016-01-01T09:56:02.000Z</time>
      </trkpt>
      <trkpt lat="47.54939" lon="6.64778">
        <ele>376</ele>
        <time>2016-01-01T09:56:03.000Z</time>
      </trkpt>
      <trkpt lat="47.54942" lon="6.64777">
        <ele>376</ele>
        <time>2016-01-01T09:56:04.000Z</time>
      </trkpt>
      <trkpt lat="47.54946" lon="6.64777">
        <ele>376</ele>
        <time>2016-01-01T09:56:05.000Z</time>
      </trkpt>
      <trkpt lat="47.5495" lon="6.64773">
        <ele>376</ele>
        <time>2016-01-01T09:56:06.000Z</time>
      </trkpt>
      <trkpt lat="47.54955" lon="6.64774">
        <ele>376</ele>
        <time>2016-01-01T09:56:07.000Z</time>
      </trkpt>
      <trkpt lat="47.54961" lon="6.64777">
        <ele>376</ele>
        <time>2016-01-01T09:56:08.000Z</time>
      </trkpt>
      <trkpt lat="47.54965" lon="6.64779">
        <ele>376</ele>
        <time>2016-01-01T09:56:09.000Z</time>
      </trkpt>
      <trkpt lat="47.54971" lon="6.64781">
        <ele>376</ele>
        <time>2016-01-01T09:56:10.000Z</time>
      </trkpt>
      <trkpt lat="47.54976" lon="6.64783">
        <ele>376</ele>
        <time>2016-01-01T09:56:11.000Z</time>
      </trkpt>
      <trkpt lat="47.5498" lon="6.64785">
        <ele>376</ele>
        <time>2016-01-01T09:56:12.000Z</time>
      </trkpt>
      <trkpt lat="47.54984" lon="6.64787">
        <ele>376</ele>
        <time>2016-01-01T09:56:13.000Z</time>
      </trkpt>
      <trkpt lat="47.54989" lon="6.64791">
        <ele>376</ele>
        <time>2016-01-01T09:56:14.000Z</time>
      </trkpt>
      <trkpt lat="47.54993" lon="6.64795">
        <ele>376</ele>
        <time>2016-01-01T09:56:15.000Z</time>
      </trkpt>
      <trkpt lat="47.54997" lon="6.64798">
        <ele>376</ele>
        <time>2016-01-01T09:56:16.000Z</time>
      </trkpt>
      <trkpt lat="47.55001" lon="6.64802">
        <ele>375</ele>
        <time>2016-01-01T09:56:17.000Z</time>
      </trkpt>
      <trkpt lat="47.55004" lon="6.64805">
        <ele>376</ele>
        <time>2016-01-01T09:56:18.000Z</time>
      </trkpt>
      <trkpt lat="47.55008" lon="6.64809">
        <ele>376</ele>
        <time>2016-01-01T09:56:19.000Z</time>
      </trkpt>
      <trkpt lat="47.55012" lon="6.64812">
        <ele>376</ele>
        <time>2016-01-01T09:56:20.000Z</time>
      </trkpt>
      <trkpt lat="47.55016" lon="6.64814">
        <ele>376</ele>
        <time>2016-01-01T09:56:21.000Z</time>
      </trkpt>
      <trkpt lat="47.5502" lon="6.64818">
        <ele>376</ele>
        <time>2016-01-01T09:56:22.000Z</time>
      </trkpt>
      <trkpt lat="47.55023" lon="6.64822">
        <ele>376</ele>
        <time>2016-01-01T09:56:23.000Z</time>
      </trkpt>
      <trkpt lat="47.55028" lon="6.64826">
        <ele>376</ele>
        <time>2016-01-01T09:56:24.000Z</time>
      </trkpt>
      <trkpt lat="47.55031" lon="6.64831">
        <ele>376</ele>
        <time>2016-01-01T09:56:25.000Z</time>
      </trkpt>
      <trkpt lat="47.55034" lon="6.64834">
        <ele>378</ele>
        <time>2016-01-01T09:56:26.000Z</time>
      </trkpt>
      <trkpt lat="47.55039" lon="6.64838">
        <ele>378</ele>
        <time>2016-01-01T09:56:27.000Z</time>
      </trkpt>
      <trkpt lat="47.55043" lon="6.64841">
        <ele>378</ele>
        <time>2016-01-01T09:56:28.000Z</time>
      </trkpt>
      <trkpt lat="47.55046" lon="6.64843">
        <ele>378</ele>
        <time>2016-01-01T09:56:29.000Z</time>
      </trkpt>
      <trkpt lat="47.5505" lon="6.64846">
        <ele>378</ele>
        <time>2016-01-01T09:56:30.000Z</time>
      </trkpt>
      <trkpt lat="47.55053" lon="6.64847">
        <ele>378</ele>
        <time>2016-01-01T09:56:31.000Z</time>
      </trkpt>
      <trkpt lat="47.55057" lon="6.64851">
        <ele>378</ele>
        <time>2016-01-01T09:56:32.000Z</time>
      </trkpt>
      <trkpt lat="47.5506" lon="6.64854">
        <ele>378</ele>
        <time>2016-01-01T09:56:33.000Z</time>
      </trkpt>
      <trkpt lat="47.55064" lon="6.64857">
        <ele>378</ele>
        <time>2016-01-01T09:56:34.001Z</time>
      </trkpt>
      <trkpt lat="47.55068" lon="6.64858">
        <ele>378</ele>
        <time>2016-01-01T09:56:35.000Z</time>
      </trkpt>
      <trkpt lat="47.55072" lon="6.64861">
        <ele>378</ele>
        <time>2016-01-01T09:56:36.000Z</time>
      </trkpt>
      <trkpt lat="47.55075" lon="6.64862">
        <ele>378</ele>
        <time>2016-01-01T09:56:37.000Z</time>
      </trkpt>
      <trkpt lat="47.55079" lon="6.64864">
        <ele>378</ele>
        <time>2016-01-01T09:56:38.000Z</time>
      </trkpt>
      <trkpt lat="47.55084" lon="6.64865">
        <ele>378</ele>
        <time>2016-01-01T09:56:39.000Z</time>
      </trkpt>
      <trkpt lat="47.55088" lon="6.64868">
        <ele>378</ele>
        <time>2016-01-01T09:56:40.000Z</time>
      </trkpt>
      <trkpt lat="47.55091" lon="6.64869">
        <ele>378</ele>
        <time>2016-01-01T09:56:41.000Z</time>
      </trkpt>
      <trkpt lat="47.55094" lon="6.6487">
        <ele>378</ele>
        <time>2016-01-01T09:56:42.000Z</time>
      </trkpt>
      <trkpt lat="47.55098" lon="6.64871">
        <ele>378</ele>
        <time>2016-01-01T09:56:43.000Z</time>
      </trkpt>
      <trkpt lat="47.55101" lon="6.64873">
        <ele>378</ele>
        <time>2016-01-01T09:56:44.000Z</time>
      </trkpt>
      <trkpt lat="47.55103" lon="6.64874">
        <ele>378</ele>
        <time>2016-01-01T09:56:45.000Z</time>
      </trkpt>
      <trkpt lat="47.55106" lon="6.64875">
        <ele>378</ele>
        <time>2016-01-01T09:56:46.000Z</time>
      </trkpt>
      <trkpt lat="47.55108" lon="6.64876">
        <ele>378</ele>
        <time>2016-01-01T09:56:47.000Z</time>
      </trkpt>
      <trkpt lat="47.55111" lon="6.64875">
        <ele>378</ele>
        <time>2016-01-01T09:56:48.000Z</time>
      </trkpt>
      <trkpt lat="47.55113" lon="6.64873">
        <ele>378</ele>
        <time>2016-01-01T09:56:49.000Z</time>
      </trkpt>
      <trkpt lat="47.55115" lon="6.64871">
        <ele>378</ele>
        <time>2016-01-01T09:56:50.000Z</time>
      </trkpt>
      <trkpt lat="47.55118" lon="6.64868">
        <ele>378</ele>
        <time>2016-01-01T09:56:51.000Z</time>
      </trkpt>
      <trkpt lat="47.55121" lon="6.64864">
        <ele>378</ele>
        <time>2016-01-01T09:56:52.000Z</time>
      </trkpt>
      <trkpt lat="47.55125" lon="6.6486">
        <ele>378</ele>
        <time>2016-01-01T09:56:53.000Z</time>
      </trkpt>
      <trkpt lat="47.55128" lon="6.64857">
        <ele>378</ele>
        <time>2016-01-01T09:56:53.999Z</time>
      </trkpt>
      <trkpt lat="47.55131" lon="6.64852">
        <ele>377</ele>
        <time>2016-01-01T09:56:55.001Z</time>
      </trkpt>
      <trkpt lat="47.55133" lon="6.64845">
        <ele>377</ele>
        <time>2016-01-01T09:56:56.000Z</time>
      </trkpt>
      <trkpt lat="47.55135" lon="6.6484">
        <ele>377</ele>
        <time>2016-01-01T09:56:57.000Z</time>
      </trkpt>
      <trkpt lat="47.55138" lon="6.64835">
        <ele>377</ele>
        <time>2016-01-01T09:56:58.000Z</time>
      </trkpt>
      <trkpt lat="47.55141" lon="6.64827">
        <ele>375</ele>
        <time>2016-01-01T09:56:59.000Z</time>
      </trkpt>
      <trkpt lat="47.55143" lon="6.64821">
        <ele>375</ele>
        <time>2016-01-01T09:57:00.000Z</time>
      </trkpt>
      <trkpt lat="47.55147" lon="6.64813">
        <ele>375</ele>
        <time>2016-01-01T09:57:01.000Z</time>
      </trkpt>
      <trkpt lat="47.5515" lon="6.64807">
        <ele>375</ele>
        <time>2016-01-01T09:57:02.000Z</time>
      </trkpt>
      <trkpt lat="47.55153" lon="6.648">
        <ele>375</ele>
        <time>2016-01-01T09:57:03.000Z</time>
      </trkpt>
      <trkpt lat="47.55157" lon="6.64792">
        <ele>375</ele>
        <time>2016-01-01T09:57:04.000Z</time>
      </trkpt>
      <trkpt lat="47.55161" lon="6.64783">
        <ele>375</ele>
        <time>2016-01-01T09:57:05.000Z</time>
      </trkpt>
      <trkpt lat="47.55165" lon="6.64775">
        <ele>375</ele>
        <time>2016-01-01T09:57:06.000Z</time>
      </trkpt>
      <trkpt lat="47.55169" lon="6.64767">
        <ele>374</ele>
        <time>2016-01-01T09:57:07.000Z</time>
      </trkpt>
      <trkpt lat="47.55174" lon="6.64759">
        <ele>374</ele>
        <time>2016-01-01T09:57:08.000Z</time>
      </trkpt>
      <trkpt lat="47.55178" lon="6.64753">
        <ele>374</ele>
        <time>2016-01-01T09:57:09.000Z</time>
      </trkpt>
      <trkpt lat="47.55182" lon="6.64746">
        <ele>373</ele>
        <time>2016-01-01T09:57:10.000Z</time>
      </trkpt>
      <trkpt lat="47.55187" lon="6.64739">
        <ele>372</ele>
        <time>2016-01-01T09:57:11.000Z</time>
      </trkpt>
      <trkpt lat="47.55193" lon="6.64734">
        <ele>372</ele>
        <time>2016-01-01T09:57:12.000Z</time>
      </trkpt>
      <trkpt lat="47.55199" lon="6.6473">
        <ele>372</ele>
        <time>2016-01-01T09:57:13.000Z</time>
      </trkpt>
      <trkpt lat="47.55204" lon="6.64725">
        <ele>372</ele>
        <time>2016-01-01T09:57:14.000Z</time>
      </trkpt>
      <trkpt lat="47.5521" lon="6.64721">
        <ele>372</ele>
        <time>2016-01-01T09:57:15.000Z</time>
      </trkpt>
      <trkpt lat="47.55215" lon="6.64716">
        <ele>372</ele>
        <time>2016-01-01T09:57:16.000Z</time>
      </trkpt>
      <trkpt lat="47.5522" lon="6.64713">
        <ele>372</ele>
        <time>2016-01-01T09:57:17.000Z</time>
      </trkpt>
      <trkpt lat="47.55226" lon="6.64709">
        <ele>371</ele>
        <time>2016-01-01T09:57:18.000Z</time>
      </trkpt>
      <trkpt lat="47.55232" lon="6.64704">
        <ele>371</ele>
        <time>2016-01-01T09:57:19.000Z</time>
      </trkpt>
      <trkpt lat="47.55237" lon="6.647">
        <ele>371</ele>
        <time>2016-01-01T09:57:20.000Z</time>
      </trkpt>
      <trkpt lat="47.55242" lon="6.64696">
        <ele>371</ele>
        <time>2016-01-01T09:57:21.000Z</time>
      </trkpt>
      <trkpt lat="47.55248" lon="6.64693">
        <ele>371</ele>
        <time>2016-01-01T09:57:22.000Z</time>
      </trkpt>
      <trkpt lat="47.55253" lon="6.6469">
        <ele>371</ele>
        <time>2016-01-01T09:57:23.000Z</time>
      </trkpt>
      <trkpt lat="47.55258" lon="6.64687">
        <ele>371</ele>
        <time>2016-01-01T09:57:24.000Z</time>
      </trkpt>
      <trkpt lat="47.55263" lon="6.64685">
        <ele>371</ele>
        <time>2016-01-01T09:57:25.000Z</time>
      </trkpt>
      <trkpt lat="47.55267" lon="6.64685">
        <ele>371</ele>
        <time>2016-01-01T09:57:26.000Z</time>
      </trkpt>
      <trkpt lat="47.55272" lon="6.64687">
        <ele>371</ele>
        <time>2016-01-01T09:57:27.000Z</time>
      </trkpt>
      <trkpt lat="47.55277" lon="6.6469">
        <ele>371</ele>
        <time>2016-01-01T09:57:28.000Z</time>
      </trkpt>
      <trkpt lat="47.5528" lon="6.64698">
        <ele>371</ele>
        <time>2016-01-01T09:57:29.000Z</time>
      </trkpt>
      <trkpt lat="47.55282" lon="6.64705">
        <ele>371</ele>
        <time>2016-01-01T09:57:30.001Z</time>
      </trkpt>
      <trkpt lat="47.55283" lon="6.64713">
        <ele>371</ele>
        <time>2016-01-01T09:57:31.000Z</time>
      </trkpt>
      <trkpt lat="47.55284" lon="6.64721">
        <ele>371</ele>
        <time>2016-01-01T09:57:32.000Z</time>
      </trkpt>
      <trkpt lat="47.55284" lon="6.64728">
        <ele>371</ele>
        <time>2016-01-01T09:57:33.000Z</time>
      </trkpt>
      <trkpt lat="47.55285" lon="6.64735">
        <ele>371</ele>
        <time>2016-01-01T09:57:34.000Z</time>
      </trkpt>
      <trkpt lat="47.55285" lon="6.64743">
        <ele>371</ele>
        <time>2016-01-01T09:57:35.000Z</time>
      </trkpt>
      <trkpt lat="47.55286" lon="6.64748">
        <ele>371</ele>
        <time>2016-01-01T09:57:36.000Z</time>
      </trkpt>
      <trkpt lat="47.55285" lon="6.64754">
        <ele>372</ele>
        <time>2016-01-01T09:57:37.000Z</time>
      </trkpt>
      <trkpt lat="47.55285" lon="6.64761">
        <ele>372</ele>
        <time>2016-01-01T09:57:38.000Z</time>
      </trkpt>
      <trkpt lat="47.55286" lon="6.64768">
        <ele>372</ele>
        <time>2016-01-01T09:57:39.000Z</time>
      </trkpt>
      <trkpt lat="47.55287" lon="6.64772">
        <ele>372</ele>
        <time>2016-01-01T09:57:40.000Z</time>
      </trkpt>
      <trkpt lat="47.55287" lon="6.64778">
        <ele>372</ele>
        <time>2016-01-01T09:57:41.000Z</time>
      </trkpt>
      <trkpt lat="47.55288" lon="6.64784">
        <ele>372</ele>
        <time>2016-01-01T09:57:42.000Z</time>
      </trkpt>
      <trkpt lat="47.5529" lon="6.64789">
        <ele>372</ele>
        <time>2016-01-01T09:57:43.000Z</time>
      </trkpt>
      <trkpt lat="47.55292" lon="6.64794">
        <ele>372</ele>
        <time>2016-01-01T09:57:43.999Z</time>
      </trkpt>
      <trkpt lat="47.55291" lon="6.64799">
        <ele>372</ele>
        <time>2016-01-01T09:57:45.000Z</time>
      </trkpt>
      <trkpt lat="47.55292" lon="6.64804">
        <ele>372</ele>
        <time>2016-01-01T09:57:46.000Z</time>
      </trkpt>
      <trkpt lat="47.55292" lon="6.6481">
        <ele>372</ele>
        <time>2016-01-01T09:57:47.000Z</time>
      </trkpt>
      <trkpt lat="47.55292" lon="6.64815">
        <ele>372</ele>
        <time>2016-01-01T09:57:48.000Z</time>
      </trkpt>
      <trkpt lat="47.55292" lon="6.6482">
        <ele>372</ele>
        <time>2016-01-01T09:57:49.000Z</time>
      </trkpt>
      <trkpt lat="47.55292" lon="6.64825">
        <ele>373</ele>
        <time>2016-01-01T09:57:50.000Z</time>
      </trkpt>
      <trkpt lat="47.55292" lon="6.64831">
        <ele>373</ele>
        <time>2016-01-01T09:57:51.000Z</time>
      </trkpt>
      <trkpt lat="47.55291" lon="6.64835">
        <ele>374</ele>
        <time>2016-01-01T09:57:52.000Z</time>
      </trkpt>
      <trkpt lat="47.55291" lon="6.64841">
        <ele>374</ele>
        <time>2016-01-01T09:57:53.000Z</time>
      </trkpt>
      <trkpt lat="47.55291" lon="6.64845">
        <ele>374</ele>
        <time>2016-01-01T09:57:54.000Z</time>
      </trkpt>
      <trkpt lat="47.55291" lon="6.64851">
        <ele>374</ele>
        <time>2016-01-01T09:57:55.000Z</time>
      </trkpt>
      <trkpt lat="47.55291" lon="6.64855">
        <ele>374</ele>
        <time>2016-01-01T09:57:56.000Z</time>
      </trkpt>
      <trkpt lat="47.55292" lon="6.64861">
        <ele>374</ele>
        <time>2016-01-01T09:57:57.000Z</time>
      </trkpt>
      <trkpt lat="47.55292" lon="6.64866">
        <ele>374</ele>
        <time>2016-01-01T09:57:58.000Z</time>
      </trkpt>
      <trkpt lat="47.55292" lon="6.64871">
        <ele>374</ele>
        <time>2016-01-01T09:57:59.000Z</time>
      </trkpt>
      <trkpt lat="47.55292" lon="6.64876">
        <ele>375</ele>
        <time>2016-01-01T09:58:00.000Z</time>
      </trkpt>
      <trkpt lat="47.55292" lon="6.64882">
        <ele>375</ele>
        <time>2016-01-01T09:58:01.000Z</time>
      </trkpt>
      <trkpt lat="47.55292" lon="6.64887">
        <ele>375</ele>
        <time>2016-01-01T09:58:02.000Z</time>
      </trkpt>
      <trkpt lat="47.55292" lon="6.64892">
        <ele>375</ele>
        <time>2016-01-01T09:58:03.000Z</time>
      </trkpt>
      <trkpt lat="47.55291" lon="6.64897">
        <ele>375</ele>
        <time>2016-01-01T09:58:04.000Z</time>
      </trkpt>
      <trkpt lat="47.55291" lon="6.64901">
        <ele>375</ele>
        <time>2016-01-01T09:58:05.000Z</time>
      </trkpt>
      <trkpt lat="47.55291" lon="6.64906">
        <ele>375</ele>
        <time>2016-01-01T09:58:06.000Z</time>
      </trkpt>
      <trkpt lat="47.5529" lon="6.64912">
        <ele>375</ele>
        <time>2016-01-01T09:58:07.000Z</time>
      </trkpt>
      <trkpt lat="47.55289" lon="6.64916">
        <ele>375</ele>
        <time>2016-01-01T09:58:08.000Z</time>
      </trkpt>
      <trkpt lat="47.55288" lon="6.64921">
        <ele>377</ele>
        <time>2016-01-01T09:58:09.000Z</time>
      </trkpt>
      <trkpt lat="47.55286" lon="6.64926">
        <ele>377</ele>
        <time>2016-01-01T09:58:10.000Z</time>
      </trkpt>
      <trkpt lat="47.55285" lon="6.64931">
        <ele>377</ele>
        <time>2016-01-01T09:58:11.000Z</time>
      </trkpt>
      <trkpt lat="47.55284" lon="6.64936">
        <ele>377</ele>
        <time>2016-01-01T09:58:12.000Z</time>
      </trkpt>
      <trkpt lat="47.55283" lon="6.64941">
        <ele>377</ele>
        <time>2016-01-01T09:58:13.000Z</time>
      </trkpt>
      <trkpt lat="47.55282" lon="6.64945">
        <ele>377</ele>
        <time>2016-01-01T09:58:14.000Z</time>
      </trkpt>
      <trkpt lat="47.55282" lon="6.6495">
        <ele>377</ele>
        <time>2016-01-01T09:58:15.000Z</time>
      </trkpt>
      <trkpt lat="47.55281" lon="6.64955">
        <ele>377</ele>
        <time>2016-01-01T09:58:16.000Z</time>
      </trkpt>
      <trkpt lat="47.5528" lon="6.6496">
        <ele>377</ele>
        <time>2016-01-01T09:58:17.000Z</time>
      </trkpt>
      <trkpt lat="47.55279" lon="6.64965">
        <ele>377</ele>
        <time>2016-01-01T09:58:18.000Z</time>
      </trkpt>
      <trkpt lat="47.55279" lon="6.64969">
        <ele>377</ele>
        <time>2016-01-01T09:58:19.000Z</time>
      </trkpt>
      <trkpt lat="47.55277" lon="6.64974">
        <ele>377</ele>
        <time>2016-01-01T09:58:20.000Z</time>
      </trkpt>
      <trkpt lat="47.55276" lon="6.64978">
        <ele>378</ele>
        <time>2016-01-01T09:58:21.000Z</time>
      </trkpt>
      <trkpt lat="47.55275" lon="6.64983">
        <ele>378</ele>
        <time>2016-01-01T09:58:22.000Z</time>
      </trkpt>
      <trkpt lat="47.55275" lon="6.64987">
        <ele>378</ele>
        <time>2016-01-01T09:58:23.000Z</time>
      </trkpt>
      <trkpt lat="47.55274" lon="6.64992">
        <ele>378</ele>
        <time>2016-01-01T09:58:23.998Z</time>
      </trkpt>
      <trkpt lat="47.55273" lon="6.64996">
        <ele>378</ele>
        <time>2016-01-01T09:58:25.000Z</time>
      </trkpt>
      <trkpt lat="47.55272" lon="6.65001">
        <ele>379</ele>
        <time>2016-01-01T09:58:26.000Z</time>
      </trkpt>
      <trkpt lat="47.55271" lon="6.65006">
        <ele>379</ele>
        <time>2016-01-01T09:58:27.000Z</time>
      </trkpt>
      <trkpt lat="47.5527" lon="6.6501">
        <ele>379</ele>
        <time>2016-01-01T09:58:28.000Z</time>
      </trkpt>
      <trkpt lat="47.5527" lon="6.65015">
        <ele>379</ele>
        <time>2016-01-01T09:58:29.000Z</time>
      </trkpt>
      <trkpt lat="47.55269" lon="6.65019">
        <ele>379</ele>
        <time>2016-01-01T09:58:30.000Z</time>
      </trkpt>
      <trkpt lat="47.55269" lon="6.65024">
        <ele>379</ele>
        <time>2016-01-01T09:58:31.000Z</time>
      </trkpt>
      <trkpt lat="47.55268" lon="6.65029">
        <ele>379</ele>
        <time>2016-01-01T09:58:32.000Z</time>
      </trkpt>
      <trkpt lat="47.55268" lon="6.65033">
        <ele>380</ele>
        <time>2016-01-01T09:58:33.000Z</time>
      </trkpt>
      <trkpt lat="47.55267" lon="6.65038">
        <ele>380</ele>
        <time>2016-01-01T09:58:34.000Z</time>
      </trkpt>
      <trkpt lat="47.55267" lon="6.65043">
        <ele>380</ele>
        <time>2016-01-01T09:58:35.000Z</time>
      </trkpt>
      <trkpt lat="47.55267" lon="6.65047">
        <ele>380</ele>
        <time>2016-01-01T09:58:36.000Z</time>
      </trkpt>
      <trkpt lat="47.55267" lon="6.65052">
        <ele>380</ele>
        <time>2016-01-01T09:58:36.998Z</time>
      </trkpt>
      <trkpt lat="47.55268" lon="6.65057">
        <ele>380</ele>
        <time>2016-01-01T09:58:38.000Z</time>
      </trkpt>
      <trkpt lat="47.55269" lon="6.65061">
        <ele>380</ele>
        <time>2016-01-01T09:58:39.000Z</time>
      </trkpt>
      <trkpt lat="47.5527" lon="6.65066">
        <ele>380</ele>
        <time>2016-01-01T09:58:40.000Z</time>
      </trkpt>
      <trkpt lat="47.55271" lon="6.6507">
        <ele>380</ele>
        <time>2016-01-01T09:58:40.999Z</time>
      </trkpt>
      <trkpt lat="47.55273" lon="6.65075">
        <ele>380</ele>
        <time>2016-01-01T09:58:42.000Z</time>
      </trkpt>
      <trkpt lat="47.55274" lon="6.65079">
        <ele>380</ele>
        <time>2016-01-01T09:58:43.000Z</time>
      </trkpt>
      <trkpt lat="47.55275" lon="6.65084">
        <ele>382</ele>
        <time>2016-01-01T09:58:44.000Z</time>
      </trkpt>
      <trkpt lat="47.55277" lon="6.65089">
        <ele>382</ele>
        <time>2016-01-01T09:58:45.000Z</time>
      </trkpt>
      <trkpt lat="47.55278" lon="6.65093">
        <ele>382</ele>
        <time>2016-01-01T09:58:46.000Z</time>
      </trkpt>
      <trkpt lat="47.5528" lon="6.65099">
        <ele>382</ele>
        <time>2016-01-01T09:58:47.000Z</time>
      </trkpt>
      <trkpt lat="47.55282" lon="6.65104">
        <ele>383</ele>
        <time>2016-01-01T09:58:48.000Z</time>
      </trkpt>
      <trkpt lat="47.55284" lon="6.65109">
        <ele>383</ele>
        <time>2016-01-01T09:58:49.000Z</time>
      </trkpt>
      <trkpt lat="47.55287" lon="6.65114">
        <ele>383</ele>
        <time>2016-01-01T09:58:50.000Z</time>
      </trkpt>
      <trkpt lat="47.5529" lon="6.65119">
        <ele>383</ele>
        <time>2016-01-01T09:58:51.000Z</time>
      </trkpt>
      <trkpt lat="47.55293" lon="6.65123">
        <ele>383</ele>
        <time>2016-01-01T09:58:52.000Z</time>
      </trkpt>
      <trkpt lat="47.55296" lon="6.65127">
        <ele>383</ele>
        <time>2016-01-01T09:58:53.000Z</time>
      </trkpt>
      <trkpt lat="47.553" lon="6.65131">
        <ele>383</ele>
        <time>2016-01-01T09:58:54.000Z</time>
      </trkpt>
      <trkpt lat="47.55303" lon="6.65134">
        <ele>384</ele>
        <time>2016-01-01T09:58:55.000Z</time>
      </trkpt>
      <trkpt lat="47.55307" lon="6.65137">
        <ele>384</ele>
        <time>2016-01-01T09:58:56.000Z</time>
      </trkpt>
      <trkpt lat="47.55311" lon="6.6514">
        <ele>384</ele>
        <time>2016-01-01T09:58:57.000Z</time>
      </trkpt>
      <trkpt lat="47.55315" lon="6.65142">
        <ele>384</ele>
        <time>2016-01-01T09:58:58.000Z</time>
      </trkpt>
      <trkpt lat="47.55319" lon="6.65144">
        <ele>384</ele>
        <time>2016-01-01T09:58:59.000Z</time>
      </trkpt>
      <trkpt lat="47.55323" lon="6.65146">
        <ele>384</ele>
        <time>2016-01-01T09:59:00.000Z</time>
      </trkpt>
      <trkpt lat="47.55327" lon="6.65147">
        <ele>384</ele>
        <time>2016-01-01T09:59:01.000Z</time>
      </trkpt>
      <trkpt lat="47.55332" lon="6.65148">
        <ele>384</ele>
        <time>2016-01-01T09:59:02.000Z</time>
      </trkpt>
      <trkpt lat="47.55336" lon="6.65149">
        <ele>386</ele>
        <time>2016-01-01T09:59:03.000Z</time>
      </trkpt>
      <trkpt lat="47.5534" lon="6.65151">
        <ele>386</ele>
        <time>2016-01-01T09:59:04.000Z</time>
      </trkpt>
      <trkpt lat="47.55343" lon="6.65152">
        <ele>386</ele>
        <time>2016-01-01T09:59:05.000Z</time>
      </trkpt>
      <trkpt lat="47.55347" lon="6.65153">
        <ele>386</ele>
        <time>2016-01-01T09:59:06.000Z</time>
      </trkpt>
      <trkpt lat="47.55351" lon="6.65154">
        <ele>386</ele>
        <time>2016-01-01T09:59:07.000Z</time>
      </trkpt>
      <trkpt lat="47.55355" lon="6.65154">
        <ele>386</ele>
        <time>2016-01-01T09:59:08.000Z</time>
      </trkpt>
      <trkpt lat="47.55359" lon="6.65155">
        <ele>386</ele>
        <time>2016-01-01T09:59:09.000Z</time>
      </trkpt>
      <trkpt lat="47.55362" lon="6.65155">
        <ele>387</ele>
        <time>2016-01-01T09:59:10.000Z</time>
      </trkpt>
      <trkpt lat="47.55366" lon="6.65156">
        <ele>387</ele>
        <time>2016-01-01T09:59:11.000Z</time>
      </trkpt>
      <trkpt lat="47.55369" lon="6.65156">
        <ele>387</ele>
        <time>2016-01-01T09:59:12.000Z</time>
      </trkpt>
      <trkpt lat="47.55373" lon="6.65156">
        <ele>387</ele>
        <time>2016-01-01T09:59:13.000Z</time>
      </trkpt>
      <trkpt lat="47.55376" lon="6.65157">
        <ele>387</ele>
        <time>2016-01-01T09:59:14.000Z</time>
      </trkpt>
      <trkpt lat="47.55379" lon="6.65157">
        <ele>387</ele>
        <time>2016-01-01T09:59:15.000Z</time>
      </trkpt>
      <trkpt lat="47.55383" lon="6.65158">
        <ele>388</ele>
        <time>2016-01-01T09:59:16.000Z</time>
      </trkpt>
      <trkpt lat="47.55386" lon="6.65158">
        <ele>388</ele>
        <time>2016-01-01T09:59:17.000Z</time>
      </trkpt>
      <trkpt lat="47.5539" lon="6.65159">
        <ele>388</ele>
        <time>2016-01-01T09:59:18.000Z</time>
      </trkpt>
      <trkpt lat="47.55393" lon="6.6516">
        <ele>388</ele>
        <time>2016-01-01T09:59:19.000Z</time>
      </trkpt>
      <trkpt lat="47.55397" lon="6.65161">
        <ele>389</ele>
        <time>2016-01-01T09:59:20.000Z</time>
      </trkpt>
      <trkpt lat="47.55401" lon="6.65161">
        <ele>389</ele>
        <time>2016-01-01T09:59:21.000Z</time>
      </trkpt>
      <trkpt lat="47.55404" lon="6.65162">
        <ele>389</ele>
        <time>2016-01-01T09:59:22.000Z</time>
      </trkpt>
      <trkpt lat="47.55408" lon="6.65163">
        <ele>390</ele>
        <time>2016-01-01T09:59:23.000Z</time>
      </trkpt>
      <trkpt lat="47.55411" lon="6.65164">
        <ele>390</ele>
        <time>2016-01-01T09:59:24.000Z</time>
      </trkpt>
      <trkpt lat="47.55414" lon="6.65164">
        <ele>390</ele>
        <time>2016-01-01T09:59:25.000Z</time>
      </trkpt>
      <trkpt lat="47.55418" lon="6.65165">
        <ele>391</ele>
        <time>2016-01-01T09:59:26.000Z</time>
      </trkpt>
      <trkpt lat="47.55421" lon="6.65166">
        <ele>391</ele>
        <time>2016-01-01T09:59:27.000Z</time>
      </trkpt>
      <trkpt lat="47.55425" lon="6.65167">
        <ele>391</ele>
        <time>2016-01-01T09:59:28.000Z</time>
      </trkpt>
      <trkpt lat="47.55428" lon="6.65168">
        <ele>391</ele>
        <time>2016-01-01T09:59:29.000Z</time>
      </trkpt>
      <trkpt lat="47.55431" lon="6.65169">
        <ele>392</ele>
        <time>2016-01-01T09:59:30.000Z</time>
      </trkpt>
      <trkpt lat="47.55434" lon="6.6517">
        <ele>392</ele>
        <time>2016-01-01T09:59:31.000Z</time>
      </trkpt>
      <trkpt lat="47.55437" lon="6.65171">
        <ele>392</ele>
        <time>2016-01-01T09:59:32.000Z</time>
      </trkpt>
      <trkpt lat="47.5544" lon="6.65172">
        <ele>392</ele>
        <time>2016-01-01T09:59:33.000Z</time>
      </trkpt>
      <trkpt lat="47.55443" lon="6.65173">
        <ele>392</ele>
        <time>2016-01-01T09:59:33.999Z</time>
      </trkpt>
      <trkpt lat="47.55447" lon="6.65175">
        <ele>392</ele>
        <time>2016-01-01T09:59:35.000Z</time>
      </trkpt>
      <trkpt lat="47.5545" lon="6.65178">
        <ele>392</ele>
        <time>2016-01-01T09:59:36.000Z</time>
      </trkpt>
      <trkpt lat="47.55453" lon="6.6518">
        <ele>392</ele>
        <time>2016-01-01T09:59:37.000Z</time>
      </trkpt>
      <trkpt lat="47.55456" lon="6.65183">
        <ele>392</ele>
        <time>2016-01-01T09:59:38.000Z</time>
      </trkpt>
      <trkpt lat="47.55459" lon="6.65185">
        <ele>392</ele>
        <time>2016-01-01T09:59:39.000Z</time>
      </trkpt>
      <trkpt lat="47.55461" lon="6.65188">
        <ele>392</ele>
        <time>2016-01-01T09:59:40.000Z</time>
      </trkpt>
      <trkpt lat="47.55464" lon="6.65191">
        <ele>392</ele>
        <time>2016-01-01T09:59:41.000Z</time>
      </trkpt>
      <trkpt lat="47.55466" lon="6.65194">
        <ele>392</ele>
        <time>2016-01-01T09:59:42.000Z</time>
      </trkpt>
      <trkpt lat="47.55468" lon="6.65197">
        <ele>392</ele>
        <time>2016-01-01T09:59:43.000Z</time>
      </trkpt>
      <trkpt lat="47.5547" lon="6.65201">
        <ele>392</ele>
        <time>2016-01-01T09:59:44.000Z</time>
      </trkpt>
      <trkpt lat="47.55472" lon="6.65204">
        <ele>392</ele>
        <time>2016-01-01T09:59:45.000Z</time>
      </trkpt>
      <trkpt lat="47.55474" lon="6.65207">
        <ele>392</ele>
        <time>2016-01-01T09:59:46.000Z</time>
      </trkpt>
      <trkpt lat="47.55476" lon="6.65211">
        <ele>392</ele>
        <time>2016-01-01T09:59:47.000Z</time>
      </trkpt>
      <trkpt lat="47.55478" lon="6.65215">
        <ele>392</ele>
        <time>2016-01-01T09:59:48.000Z</time>
      </trkpt>
      <trkpt lat="47.5548" lon="6.6522">
        <ele>392</ele>
        <time>2016-01-01T09:59:49.000Z</time>
      </trkpt>
      <trkpt lat="47.55481" lon="6.65224">
        <ele>392</ele>
        <time>2016-01-01T09:59:50.000Z</time>
      </trkpt>
      <trkpt lat="47.55483" lon="6.65229">
        <ele>393</ele>
        <time>2016-01-01T09:59:51.000Z</time>
      </trkpt>
      <trkpt lat="47.55484" lon="6.65234">
        <ele>393</ele>
        <time>2016-01-01T09:59:52.000Z</time>
      </trkpt>
      <trkpt lat="47.55485" lon="6.65239">
        <ele>393</ele>
        <time>2016-01-01T09:59:53.000Z</time>
      </trkpt>
      <trkpt lat="47.55486" lon="6.65243">
        <ele>393</ele>
        <time>2016-01-01T09:59:54.000Z</time>
      </trkpt>
      <trkpt lat="47.55487" lon="6.65248">
        <ele>393</ele>
        <time>2016-01-01T09:59:55.000Z</time>
      </trkpt>
      <trkpt lat="47.55488" lon="6.65253">
        <ele>393</ele>
        <time>2016-01-01T09:59:56.000Z</time>
      </trkpt>
      <trkpt lat="47.55489" lon="6.65258">
        <ele>393</ele>
        <time>2016-01-01T09:59:57.000Z</time>
      </trkpt>
      <trkpt lat="47.5549" lon="6.65263">
        <ele>393</ele>
        <time>2016-01-01T09:59:58.000Z</time>
      </trkpt>
      <trkpt lat="47.55491" lon="6.65269">
        <ele>393</ele>
        <time>2016-01-01T09:59:59.000Z</time>
      </trkpt>
      <trkpt lat="47.55491" lon="6.65274">
        <ele>393</ele>
        <time>2016-01-01T10:00:00.000Z</time>
      </trkpt>
      <trkpt lat="47.55492" lon="6.6528">
        <ele>393</ele>
        <time>2016-01-01T10:00:01.000Z</time>
      </trkpt>
      <trkpt lat="47.55493" lon="6.65285">
        <ele>393</ele>
        <time>2016-01-01T10:00:02.000Z</time>
      </trkpt>
      <trkpt lat="47.55494" lon="6.65291">
        <ele>393</ele>
        <time>2016-01-01T10:00:03.000Z</time>
      </trkpt>
      <trkpt lat="47.55495" lon="6.65296">
        <ele>393</ele>
        <time>2016-01-01T10:00:04.000Z</time>
      </trkpt>
      <trkpt lat="47.55496" lon="6.65301">
        <ele>393</ele>
        <time>2016-01-01T10:00:05.000Z</time>
      </trkpt>
      <trkpt lat="47.55498" lon="6.65307">
        <ele>393</ele>
        <time>2016-01-01T10:00:06.000Z</time>
      </trkpt>
      <trkpt lat="47.55499" lon="6.65312">
        <ele>393</ele>
        <time>2016-01-01T10:00:07.000Z</time>
      </trkpt>
      <trkpt lat="47.555" lon="6.65317">
        <ele>393</ele>
        <time>2016-01-01T10:00:08.000Z</time>
      </trkpt>
      <trkpt lat="47.55502" lon="6.65322">
        <ele>393</ele>
        <time>2016-01-01T10:00:09.000Z</time>
      </trkpt>
      <trkpt lat="47.55503" lon="6.65327">
        <ele>394</ele>
        <time>2016-01-01T10:00:10.000Z</time>
      </trkpt>
      <trkpt lat="47.55505" lon="6.65332">
        <ele>394</ele>
        <time>2016-01-01T10:00:11.000Z</time>
      </trkpt>
      <trkpt lat="47.55508" lon="6.65337">
        <ele>393</ele>
        <time>2016-01-01T10:00:12.000Z</time>
      </trkpt>
      <trkpt lat="47.5551" lon="6.65342">
        <ele>393</ele>
        <time>2016-01-01T10:00:13.000Z</time>
      </trkpt>
      <trkpt lat="47.55512" lon="6.65347">
        <ele>393</ele>
        <time>2016-01-01T10:00:14.000Z</time>
      </trkpt>
      <trkpt lat="47.55513" lon="6.65352">
        <ele>393</ele>
        <time>2016-01-01T10:00:15.000Z</time>
      </trkpt>
      <trkpt lat="47.55515" lon="6.65358">
        <ele>393</ele>
        <time>2016-01-01T10:00:16.000Z</time>
      </trkpt>
      <trkpt lat="47.55517" lon="6.65363">
        <ele>393</ele>
        <time>2016-01-01T10:00:17.000Z</time>
      </trkpt>
      <trkpt lat="47.55518" lon="6.65369">
        <ele>393</ele>
        <time>2016-01-01T10:00:18.000Z</time>
      </trkpt>
      <trkpt lat="47.5552" lon="6.65376">
        <ele>393</ele>
        <time>2016-01-01T10:00:19.000Z</time>
      </trkpt>
      <trkpt lat="47.55522" lon="6.65382">
        <ele>393</ele>
        <time>2016-01-01T10:00:20.000Z</time>
      </trkpt>
      <trkpt lat="47.55523" lon="6.6539">
        <ele>393</ele>
        <time>2016-01-01T10:00:21.000Z</time>
      </trkpt>
      <trkpt lat="47.55524" lon="6.65396">
        <ele>393</ele>
        <time>2016-01-01T10:00:21.999Z</time>
      </trkpt>
      <trkpt lat="47.55525" lon="6.65403">
        <ele>393</ele>
        <time>2016-01-01T10:00:23.000Z</time>
      </trkpt>
      <trkpt lat="47.55526" lon="6.6541">
        <ele>393</ele>
        <time>2016-01-01T10:00:24.000Z</time>
      </trkpt>
      <trkpt lat="47.55526" lon="6.65417">
        <ele>393</ele>
        <time>2016-01-01T10:00:25.000Z</time>
      </trkpt>
      <trkpt lat="47.55525" lon="6.65423">
        <ele>393</ele>
        <time>2016-01-01T10:00:26.000Z</time>
      </trkpt>
      <trkpt lat="47.55524" lon="6.6543">
        <ele>393</ele>
        <time>2016-01-01T10:00:27.000Z</time>
      </trkpt>
      <trkpt lat="47.55526" lon="6.65437">
        <ele>393</ele>
        <time>2016-01-01T10:00:28.000Z</time>
      </trkpt>
      <trkpt lat="47.55527" lon="6.65443">
        <ele>393</ele>
        <time>2016-01-01T10:00:29.000Z</time>
      </trkpt>
      <trkpt lat="47.55529" lon="6.6545">
        <ele>393</ele>
        <time>2016-01-01T10:00:30.000Z</time>
      </trkpt>
      <trkpt lat="47.55531" lon="6.65455">
        <ele>393</ele>
        <time>2016-01-01T10:00:31.000Z</time>
      </trkpt>
      <trkpt lat="47.55534" lon="6.65461">
        <ele>393</ele>
        <time>2016-01-01T10:00:32.000Z</time>
      </trkpt>
      <trkpt lat="47.55537" lon="6.65466">
        <ele>393</ele>
        <time>2016-01-01T10:00:33.000Z</time>
      </trkpt>
      <trkpt lat="47.5554" lon="6.65472">
        <ele>393</ele>
        <time>2016-01-01T10:00:34.000Z</time>
      </trkpt>
      <trkpt lat="47.55543" lon="6.65477">
        <ele>393</ele>
        <time>2016-01-01T10:00:35.000Z</time>
      </trkpt>
      <trkpt lat="47.55546" lon="6.65483">
        <ele>393</ele>
        <time>2016-01-01T10:00:36.000Z</time>
      </trkpt>
      <trkpt lat="47.55551" lon="6.65487">
        <ele>392</ele>
        <time>2016-01-01T10:00:37.000Z</time>
      </trkpt>
      <trkpt lat="47.55555" lon="6.65492">
        <ele>392</ele>
        <time>2016-01-01T10:00:38.000Z</time>
      </trkpt>
      <trkpt lat="47.5556" lon="6.65496">
        <ele>392</ele>
        <time>2016-01-01T10:00:39.000Z</time>
      </trkpt>
      <trkpt lat="47.55564" lon="6.65501">
        <ele>393</ele>
        <time>2016-01-01T10:00:40.000Z</time>
      </trkpt>
      <trkpt lat="47.55569" lon="6.65506">
        <ele>392</ele>
        <time>2016-01-01T10:00:41.000Z</time>
      </trkpt>
      <trkpt lat="47.55573" lon="6.65511">
        <ele>392</ele>
        <time>2016-01-01T10:00:42.000Z</time>
      </trkpt>
      <trkpt lat="47.55578" lon="6.65516">
        <ele>392</ele>
        <time>2016-01-01T10:00:43.000Z</time>
      </trkpt>
      <trkpt lat="47.55582" lon="6.6552">
        <ele>392</ele>
        <time>2016-01-01T10:00:44.000Z</time>
      </trkpt>
      <trkpt lat="47.55587" lon="6.65525">
        <ele>389</ele>
        <time>2016-01-01T10:00:45.000Z</time>
      </trkpt>
      <trkpt lat="47.55591" lon="6.65529">
        <ele>389</ele>
        <time>2016-01-01T10:00:46.000Z</time>
      </trkpt>
      <trkpt lat="47.55594" lon="6.65534">
        <ele>389</ele>
        <time>2016-01-01T10:00:47.000Z</time>
      </trkpt>
      <trkpt lat="47.556" lon="6.65541">
        <ele>389</ele>
        <time>2016-01-01T10:00:48.000Z</time>
      </trkpt>
      <trkpt lat="47.55605" lon="6.65545">
        <ele>389</ele>
        <time>2016-01-01T10:00:49.000Z</time>
      </trkpt>
      <trkpt lat="47.55609" lon="6.6555">
        <ele>389</ele>
        <time>2016-01-01T10:00:50.000Z</time>
      </trkpt>
      <trkpt lat="47.55614" lon="6.65555">
        <ele>389</ele>
        <time>2016-01-01T10:00:51.001Z</time>
      </trkpt>
      <trkpt lat="47.55619" lon="6.65561">
        <ele>389</ele>
        <time>2016-01-01T10:00:52.000Z</time>
      </trkpt>
      <trkpt lat="47.55623" lon="6.65567">
        <ele>389</ele>
        <time>2016-01-01T10:00:53.000Z</time>
      </trkpt>
      <trkpt lat="47.55628" lon="6.65572">
        <ele>389</ele>
        <time>2016-01-01T10:00:54.000Z</time>
      </trkpt>
      <trkpt lat="47.55632" lon="6.65577">
        <ele>388</ele>
        <time>2016-01-01T10:00:55.000Z</time>
      </trkpt>
      <trkpt lat="47.55636" lon="6.65581">
        <ele>388</ele>
        <time>2016-01-01T10:00:56.000Z</time>
      </trkpt>
      <trkpt lat="47.5564" lon="6.65587">
        <ele>390</ele>
        <time>2016-01-01T10:00:57.000Z</time>
      </trkpt>
      <trkpt lat="47.55645" lon="6.65591">
        <ele>389</ele>
        <time>2016-01-01T10:00:58.000Z</time>
      </trkpt>
      <trkpt lat="47.55649" lon="6.65596">
        <ele>389</ele>
        <time>2016-01-01T10:00:59.000Z</time>
      </trkpt>
      <trkpt lat="47.55653" lon="6.65601">
        <ele>389</ele>
        <time>2016-01-01T10:00:59.999Z</time>
      </trkpt>
      <trkpt lat="47.55657" lon="6.65606">
        <ele>389</ele>
        <time>2016-01-01T10:01:01.000Z</time>
      </trkpt>
      <trkpt lat="47.55661" lon="6.65611">
        <ele>389</ele>
        <time>2016-01-01T10:01:02.000Z</time>
      </trkpt>
      <trkpt lat="47.55665" lon="6.65617">
        <ele>390</ele>
        <time>2016-01-01T10:01:03.000Z</time>
      </trkpt>
      <trkpt lat="47.55668" lon="6.65621">
        <ele>387</ele>
        <time>2016-01-01T10:01:04.000Z</time>
      </trkpt>
      <trkpt lat="47.55672" lon="6.65627">
        <ele>387</ele>
        <time>2016-01-01T10:01:05.000Z</time>
      </trkpt>
      <trkpt lat="47.55676" lon="6.65633">
        <ele>387</ele>
        <time>2016-01-01T10:01:06.000Z</time>
      </trkpt>
      <trkpt lat="47.55679" lon="6.65638">
        <ele>387</ele>
        <time>2016-01-01T10:01:07.000Z</time>
      </trkpt>
      <trkpt lat="47.55682" lon="6.65644">
        <ele>388</ele>
        <time>2016-01-01T10:01:08.000Z</time>
      </trkpt>
      <trkpt lat="47.55685" lon="6.65649">
        <ele>388</ele>
        <time>2016-01-01T10:01:09.000Z</time>
      </trkpt>
      <trkpt lat="47.55688" lon="6.65655">
        <ele>388</ele>
        <time>2016-01-01T10:01:10.000Z</time>
      </trkpt>
      <trkpt lat="47.5569" lon="6.6566">
        <ele>388</ele>
        <time>2016-01-01T10:01:11.000Z</time>
      </trkpt>
      <trkpt lat="47.55692" lon="6.65666">
        <ele>388</ele>
        <time>2016-01-01T10:01:12.000Z</time>
      </trkpt>
      <trkpt lat="47.55694" lon="6.65672">
        <ele>389</ele>
        <time>2016-01-01T10:01:12.999Z</time>
      </trkpt>
      <trkpt lat="47.55695" lon="6.65676">
        <ele>389</ele>
        <time>2016-01-01T10:01:14.000Z</time>
      </trkpt>
      <trkpt lat="47.55697" lon="6.65684">
        <ele>389</ele>
        <time>2016-01-01T10:01:15.000Z</time>
      </trkpt>
      <trkpt lat="47.55698" lon="6.6569">
        <ele>390</ele>
        <time>2016-01-01T10:01:16.000Z</time>
      </trkpt>
      <trkpt lat="47.557" lon="6.65696">
        <ele>390</ele>
        <time>2016-01-01T10:01:17.000Z</time>
      </trkpt>
      <trkpt lat="47.55702" lon="6.65703">
        <ele>390</ele>
        <time>2016-01-01T10:01:18.000Z</time>
      </trkpt>
      <trkpt lat="47.55703" lon="6.6571">
        <ele>390</ele>
        <time>2016-01-01T10:01:19.000Z</time>
      </trkpt>
      <trkpt lat="47.55705" lon="6.65716">
        <ele>390</ele>
        <time>2016-01-01T10:01:20.000Z</time>
      </trkpt>
      <trkpt lat="47.55707" lon="6.65722">
        <ele>390</ele>
        <time>2016-01-01T10:01:21.000Z</time>
      </trkpt>
      <trkpt lat="47.55709" lon="6.65728">
        <ele>390</ele>
        <time>2016-01-01T10:01:22.000Z</time>
      </trkpt>
      <trkpt lat="47.55711" lon="6.65733">
        <ele>390</ele>
        <time>2016-01-01T10:01:23.000Z</time>
      </trkpt>
      <trkpt lat="47.55713" lon="6.65739">
        <ele>390</ele>
        <time>2016-01-01T10:01:24.000Z</time>
      </trkpt>
      <trkpt lat="47.55716" lon="6.65745">
        <ele>390</ele>
        <time>2016-01-01T10:01:25.000Z</time>
      </trkpt>
      <trkpt lat="47.55718" lon="6.6575">
        <ele>390</ele>
        <time>2016-01-01T10:01:26.000Z</time>
      </trkpt>
      <trkpt lat="47.55721" lon="6.65754">
        <ele>392</ele>
        <time>2016-01-01T10:01:26.999Z</time>
      </trkpt>
      <trkpt lat="47.55723" lon="6.6576">
        <ele>392</ele>
        <time>2016-01-01T10:01:28.000Z</time>
      </trkpt>
      <trkpt lat="47.55725" lon="6.65764">
        <ele>392</ele>
        <time>2016-01-01T10:01:29.000Z</time>
      </trkpt>
      <trkpt lat="47.55728" lon="6.65769">
        <ele>392</ele>
        <time>2016-01-01T10:01:29.999Z</time>
      </trkpt>
      <trkpt lat="47.5573" lon="6.65776">
        <ele>392</ele>
        <time>2016-01-01T10:01:31.001Z</time>
      </trkpt>
      <trkpt lat="47.55733" lon="6.65781">
        <ele>392</ele>
        <time>2016-01-01T10:01:32.000Z</time>
      </trkpt>
      <trkpt lat="47.55735" lon="6.65785">
        <ele>393</ele>
        <time>2016-01-01T10:01:33.000Z</time>
      </trkpt>
      <trkpt lat="47.55737" lon="6.6579">
        <ele>393</ele>
        <time>2016-01-01T10:01:34.000Z</time>
      </trkpt>
      <trkpt lat="47.55739" lon="6.65795">
        <ele>393</ele>
        <time>2016-01-01T10:01:35.000Z</time>
      </trkpt>
      <trkpt lat="47.55741" lon="6.658">
        <ele>393</ele>
        <time>2016-01-01T10:01:36.000Z</time>
      </trkpt>
      <trkpt lat="47.55744" lon="6.65804">
        <ele>393</ele>
        <time>2016-01-01T10:01:37.000Z</time>
      </trkpt>
      <trkpt lat="47.55746" lon="6.65809">
        <ele>393</ele>
        <time>2016-01-01T10:01:38.000Z</time>
      </trkpt>
      <trkpt lat="47.55748" lon="6.65813">
        <ele>393</ele>
        <time>2016-01-01T10:01:39.000Z</time>
      </trkpt>
      <trkpt lat="47.5575" lon="6.65817">
        <ele>393</ele>
        <time>2016-01-01T10:01:40.000Z</time>
      </trkpt>
      <trkpt lat="47.55752" lon="6.6582">
        <ele>393</ele>
        <time>2016-01-01T10:01:41.000Z</time>
      </trkpt>
      <trkpt lat="47.55753" lon="6.65824">
        <ele>393</ele>
        <time>2016-01-01T10:01:42.000Z</time>
      </trkpt>
      <trkpt lat="47.55754" lon="6.65828">
        <ele>393</ele>
        <time>2016-01-01T10:01:43.000Z</time>
      </trkpt>
      <trkpt lat="47.55754" lon="6.65831">
        <ele>393</ele>
        <time>2016-01-01T10:01:44.000Z</time>
      </trkpt>
      <trkpt lat="47.55753" lon="6.65835">
        <ele>393</ele>
        <time>2016-01-01T10:01:45.001Z</time>
      </trkpt>
      <trkpt lat="47.5575" lon="6.65838">
        <ele>394</ele>
        <time>2016-01-01T10:01:46.000Z</time>
      </trkpt>
      <trkpt lat="47.55746" lon="6.65842">
        <ele>394</ele>
        <time>2016-01-01T10:01:47.000Z</time>
      </trkpt>
      <trkpt lat="47.55742" lon="6.65844">
        <ele>395</ele>
        <time>2016-01-01T10:01:48.000Z</time>
      </trkpt>
      <trkpt lat="47.55738" lon="6.65846">
        <ele>395</ele>
        <time>2016-01-01T10:01:49.000Z</time>
      </trkpt>
      <trkpt lat="47.55734" lon="6.65848">
        <ele>395</ele>
        <time>2016-01-01T10:01:50.000Z</time>
      </trkpt>
      <trkpt lat="47.5573" lon="6.65849">
        <ele>396</ele>
        <time>2016-01-01T10:01:51.000Z</time>
      </trkpt>
      <trkpt lat="47.55726" lon="6.65851">
        <ele>396</ele>
        <time>2016-01-01T10:01:52.000Z</time>
      </trkpt>
      <trkpt lat="47.55722" lon="6.65852">
        <ele>396</ele>
        <time>2016-01-01T10:01:53.000Z</time>
      </trkpt>
      <trkpt lat="47.55719" lon="6.65853">
        <ele>396</ele>
        <time>2016-01-01T10:01:54.000Z</time>
      </trkpt>
      <trkpt lat="47.55715" lon="6.65855">
        <ele>396</ele>
        <time>2016-01-01T10:01:55.000Z</time>
      </trkpt>
      <trkpt lat="47.55712" lon="6.65856">
        <ele>396</ele>
        <time>2016-01-01T10:01:56.000Z</time>
      </trkpt>
      <trkpt lat="47.55709" lon="6.65858">
        <ele>397</ele>
        <time>2016-01-01T10:01:57.000Z</time>
      </trkpt>
      <trkpt lat="47.55706" lon="6.65859">
        <ele>397</ele>
        <time>2016-01-01T10:01:58.000Z</time>
      </trkpt>
      <trkpt lat="47.55703" lon="6.6586">
        <ele>397</ele>
        <time>2016-01-01T10:01:59.000Z</time>
      </trkpt>
      <trkpt lat="47.55699" lon="6.65861">
        <ele>397</ele>
        <time>2016-01-01T10:02:00.000Z</time>
      </trkpt>
      <trkpt lat="47.55696" lon="6.65862">
        <ele>397</ele>
        <time>2016-01-01T10:02:01.000Z</time>
      </trkpt>
      <trkpt lat="47.55693" lon="6.65863">
        <ele>397</ele>
        <time>2016-01-01T10:02:02.000Z</time>
      </trkpt>
      <trkpt lat="47.55689" lon="6.65862">
        <ele>397</ele>
        <time>2016-01-01T10:02:03.000Z</time>
      </trkpt>
      <trkpt lat="47.55686" lon="6.65861">
        <ele>397</ele>
        <time>2016-01-01T10:02:04.000Z</time>
      </trkpt>
      <trkpt lat="47.55682" lon="6.6586">
        <ele>397</ele>
        <time>2016-01-01T10:02:05.000Z</time>
      </trkpt>
      <trkpt lat="47.55679" lon="6.65859">
        <ele>397</ele>
        <time>2016-01-01T10:02:06.000Z</time>
      </trkpt>
      <trkpt lat="47.55676" lon="6.65856">
        <ele>397</ele>
        <time>2016-01-01T10:02:07.000Z</time>
      </trkpt>
      <trkpt lat="47.55672" lon="6.65854">
        <ele>397</ele>
        <time>2016-01-01T10:02:07.999Z</time>
      </trkpt>
      <trkpt lat="47.5567" lon="6.65849">
        <ele>397</ele>
        <time>2016-01-01T10:02:09.000Z</time>
      </trkpt>
      <trkpt lat="47.55668" lon="6.65846">
        <ele>397</ele>
        <time>2016-01-01T10:02:10.000Z</time>
      </trkpt>
      <trkpt lat="47.55665" lon="6.65842">
        <ele>399</ele>
        <time>2016-01-01T10:02:11.000Z</time>
      </trkpt>
      <trkpt lat="47.55662" lon="6.65839">
        <ele>398</ele>
        <time>2016-01-01T10:02:12.000Z</time>
      </trkpt>
      <trkpt lat="47.5566" lon="6.65835">
        <ele>398</ele>
        <time>2016-01-01T10:02:13.000Z</time>
      </trkpt>
      <trkpt lat="47.55657" lon="6.65832">
        <ele>398</ele>
        <time>2016-01-01T10:02:14.000Z</time>
      </trkpt>
      <trkpt lat="47.55655" lon="6.65829">
        <ele>398</ele>
        <time>2016-01-01T10:02:15.000Z</time>
      </trkpt>
      <trkpt lat="47.55652" lon="6.65826">
        <ele>398</ele>
        <time>2016-01-01T10:02:16.000Z</time>
      </trkpt>
      <trkpt lat="47.55649" lon="6.65823">
        <ele>398</ele>
        <time>2016-01-01T10:02:17.000Z</time>
      </trkpt>
      <trkpt lat="47.55647" lon="6.6582">
        <ele>398</ele>
        <time>2016-01-01T10:02:18.000Z</time>
      </trkpt>
      <trkpt lat="47.55644" lon="6.65818">
        <ele>398</ele>
        <time>2016-01-01T10:02:19.000Z</time>
      </trkpt>
      <trkpt lat="47.55641" lon="6.65816">
        <ele>398</ele>
        <time>2016-01-01T10:02:20.000Z</time>
      </trkpt>
      <trkpt lat="47.55639" lon="6.65813">
        <ele>398</ele>
        <time>2016-01-01T10:02:21.000Z</time>
      </trkpt>
      <trkpt lat="47.55636" lon="6.65811">
        <ele>398</ele>
        <time>2016-01-01T10:02:21.998Z</time>
      </trkpt>
      <trkpt lat="47.55635" lon="6.65809">
        <ele>398</ele>
        <time>2016-01-01T10:02:23.000Z</time>
      </trkpt>
      <trkpt lat="47.55631" lon="6.65808">
        <ele>399</ele>
        <time>2016-01-01T10:02:25.000Z</time>
      </trkpt>
      <trkpt lat="47.55629" lon="6.65808">
        <ele>399</ele>
        <time>2016-01-01T10:02:26.000Z</time>
      </trkpt>
      <trkpt lat="47.55625" lon="6.65809">
        <ele>399</ele>
        <time>2016-01-01T10:02:28.000Z</time>
      </trkpt>
      <trkpt lat="47.55622" lon="6.6581">
        <ele>399</ele>
        <time>2016-01-01T10:02:29.000Z</time>
      </trkpt>
      <trkpt lat="47.55618" lon="6.65811">
        <ele>399</ele>
        <time>2016-01-01T10:02:31.000Z</time>
      </trkpt>
      <trkpt lat="47.55616" lon="6.65812">
        <ele>399</ele>
        <time>2016-01-01T10:02:32.000Z</time>
      </trkpt>
      <trkpt lat="47.55613" lon="6.65815">
        <ele>400</ele>
        <time>2016-01-01T10:02:34.000Z</time>
      </trkpt>
      <trkpt lat="47.55611" lon="6.65817">
        <ele>400</ele>
        <time>2016-01-01T10:02:35.000Z</time>
      </trkpt>
      <trkpt lat="47.55607" lon="6.65819">
        <ele>400</ele>
        <time>2016-01-01T10:02:37.000Z</time>
      </trkpt>
      <trkpt lat="47.55605" lon="6.6582">
        <ele>400</ele>
        <time>2016-01-01T10:02:38.000Z</time>
      </trkpt>
      <trkpt lat="47.55602" lon="6.65823">
        <ele>401</ele>
        <time>2016-01-01T10:02:40.000Z</time>
      </trkpt>
      <trkpt lat="47.556" lon="6.65825">
        <ele>401</ele>
        <time>2016-01-01T10:02:41.000Z</time>
      </trkpt>
      <trkpt lat="47.55598" lon="6.65826">
        <ele>401</ele>
        <time>2016-01-01T10:02:42.000Z</time>
      </trkpt>
      <trkpt lat="47.55595" lon="6.65828">
        <ele>402</ele>
        <time>2016-01-01T10:02:43.000Z</time>
      </trkpt>
      <trkpt lat="47.55593" lon="6.65829">
        <ele>402</ele>
        <time>2016-01-01T10:02:44.000Z</time>
      </trkpt>
      <trkpt lat="47.55591" lon="6.6583">
        <ele>402</ele>
        <time>2016-01-01T10:02:45.000Z</time>
      </trkpt>
      <trkpt lat="47.55589" lon="6.6583">
        <ele>403</ele>
        <time>2016-01-01T10:02:46.000Z</time>
      </trkpt>
      <trkpt lat="47.55586" lon="6.6583">
        <ele>403</ele>
        <time>2016-01-01T10:02:47.000Z</time>
      </trkpt>
      <trkpt lat="47.55582" lon="6.65829">
        <ele>404</ele>
        <time>2016-01-01T10:02:49.000Z</time>
      </trkpt>
      <trkpt lat="47.5558" lon="6.65828">
        <ele>404</ele>
        <time>2016-01-01T10:02:50.000Z</time>
      </trkpt>
      <trkpt lat="47.55576" lon="6.65827">
        <ele>405</ele>
        <time>2016-01-01T10:02:52.000Z</time>
      </trkpt>
      <trkpt lat="47.55574" lon="6.65826">
        <ele>405</ele>
        <time>2016-01-01T10:02:53.000Z</time>
      </trkpt>
      <trkpt lat="47.55569" lon="6.65827">
        <ele>405</ele>
        <time>2016-01-01T10:02:55.000Z</time>
      </trkpt>
      <trkpt lat="47.55567" lon="6.65827">
        <ele>405</ele>
        <time>2016-01-01T10:02:56.000Z</time>
      </trkpt>
      <trkpt lat="47.55563" lon="6.65827">
        <ele>405</ele>
        <time>2016-01-01T10:02:58.000Z</time>
      </trkpt>
      <trkpt lat="47.55561" lon="6.65826">
        <ele>405</ele>
        <time>2016-01-01T10:02:59.000Z</time>
      </trkpt>
      <trkpt lat="47.55557" lon="6.65826">
        <ele>406</ele>
        <time>2016-01-01T10:03:01.000Z</time>
      </trkpt>
      <trkpt lat="47.55555" lon="6.65825">
        <ele>406</ele>
        <time>2016-01-01T10:03:02.000Z</time>
      </trkpt>
      <trkpt lat="47.55551" lon="6.65824">
        <ele>406</ele>
        <time>2016-01-01T10:03:04.000Z</time>
      </trkpt>
      <trkpt lat="47.55549" lon="6.65824">
        <ele>406</ele>
        <time>2016-01-01T10:03:05.000Z</time>
      </trkpt>
      <trkpt lat="47.55544" lon="6.65825">
        <ele>406</ele>
        <time>2016-01-01T10:03:07.000Z</time>
      </trkpt>
      <trkpt lat="47.55542" lon="6.65825">
        <ele>406</ele>
        <time>2016-01-01T10:03:08.000Z</time>
      </trkpt>
      <trkpt lat="47.5554" lon="6.65826">
        <ele>407</ele>
        <time>2016-01-01T10:03:09.000Z</time>
      </trkpt>
      <trkpt lat="47.55538" lon="6.65826">
        <ele>407</ele>
        <time>2016-01-01T10:03:10.000Z</time>
      </trkpt>
      <trkpt lat="47.55535" lon="6.65827">
        <ele>407</ele>
        <time>2016-01-01T10:03:11.000Z</time>
      </trkpt>
      <trkpt lat="47.55533" lon="6.65827">
        <ele>407</ele>
        <time>2016-01-01T10:03:12.000Z</time>
      </trkpt>
      <trkpt lat="47.55531" lon="6.65828">
        <ele>407</ele>
        <time>2016-01-01T10:03:13.000Z</time>
      </trkpt>
      <trkpt lat="47.55529" lon="6.65828">
        <ele>408</ele>
        <time>2016-01-01T10:03:14.000Z</time>
      </trkpt>
      <trkpt lat="47.55524" lon="6.65829">
        <ele>408</ele>
        <time>2016-01-01T10:03:16.000Z</time>
      </trkpt>
      <trkpt lat="47.55522" lon="6.65829">
        <ele>408</ele>
        <time>2016-01-01T10:03:17.000Z</time>
      </trkpt>
      <trkpt lat="47.55518" lon="6.65828">
        <ele>409</ele>
        <time>2016-01-01T10:03:19.000Z</time>
      </trkpt>
      <trkpt lat="47.55517" lon="6.65828">
        <ele>409</ele>
        <time>2016-01-01T10:03:20.000Z</time>
      </trkpt>
      <trkpt lat="47.55512" lon="6.65828">
        <ele>409</ele>
        <time>2016-01-01T10:03:23.000Z</time>
      </trkpt>
      <trkpt lat="47.55511" lon="6.65828">
        <ele>410</ele>
        <time>2016-01-01T10:03:24.000Z</time>
      </trkpt>
      <trkpt lat="47.55507" lon="6.65831">
        <ele>410</ele>
        <time>2016-01-01T10:03:26.000Z</time>
      </trkpt>
      <trkpt lat="47.55505" lon="6.65832">
        <ele>411</ele>
        <time>2016-01-01T10:03:27.000Z</time>
      </trkpt>
      <trkpt lat="47.55501" lon="6.65835">
        <ele>412</ele>
        <time>2016-01-01T10:03:29.000Z</time>
      </trkpt>
      <trkpt lat="47.55499" lon="6.65837">
        <ele>413</ele>
        <time>2016-01-01T10:03:30.000Z</time>
      </trkpt>
      <trkpt lat="47.55495" lon="6.65839">
        <ele>413</ele>
        <time>2016-01-01T10:03:32.000Z</time>
      </trkpt>
      <trkpt lat="47.55494" lon="6.6584">
        <ele>414</ele>
        <time>2016-01-01T10:03:33.000Z</time>
      </trkpt>
      <trkpt lat="47.5549" lon="6.65843">
        <ele>414</ele>
        <time>2016-01-01T10:03:35.000Z</time>
      </trkpt>
      <trkpt lat="47.55489" lon="6.65844">
        <ele>414</ele>
        <time>2016-01-01T10:03:36.000Z</time>
      </trkpt>
      <trkpt lat="47.55485" lon="6.65846">
        <ele>415</ele>
        <time>2016-01-01T10:03:38.000Z</time>
      </trkpt>
      <trkpt lat="47.55483" lon="6.65847">
        <ele>415</ele>
        <time>2016-01-01T10:03:39.000Z</time>
      </trkpt>
      <trkpt lat="47.5548" lon="6.6585">
        <ele>415</ele>
        <time>2016-01-01T10:03:41.000Z</time>
      </trkpt>
      <trkpt lat="47.55479" lon="6.65851">
        <ele>415</ele>
        <time>2016-01-01T10:03:42.000Z</time>
      </trkpt>
      <trkpt lat="47.55476" lon="6.65854">
        <ele>416</ele>
        <time>2016-01-01T10:03:44.000Z</time>
      </trkpt>
      <trkpt lat="47.55474" lon="6.65855">
        <ele>416</ele>
        <time>2016-01-01T10:03:45.000Z</time>
      </trkpt>
      <trkpt lat="47.5547" lon="6.65858">
        <ele>416</ele>
        <time>2016-01-01T10:03:47.000Z</time>
      </trkpt>
      <trkpt lat="47.55469" lon="6.65858">
        <ele>416</ele>
        <time>2016-01-01T10:03:48.000Z</time>
      </trkpt>
      <trkpt lat="47.55465" lon="6.6586">
        <ele>417</ele>
        <time>2016-01-01T10:03:50.000Z</time>
      </trkpt>
      <trkpt lat="47.55463" lon="6.65861">
        <ele>417</ele>
        <time>2016-01-01T10:03:51.000Z</time>
      </trkpt>
      <trkpt lat="47.55459" lon="6.65864">
        <ele>417</ele>
        <time>2016-01-01T10:03:54.000Z</time>
      </trkpt>
      <trkpt lat="47.55458" lon="6.65865">
        <ele>417</ele>
        <time>2016-01-01T10:03:55.000Z</time>
      </trkpt>
      <trkpt lat="47.55455" lon="6.65867">
        <ele>417</ele>
        <time>2016-01-01T10:03:57.000Z</time>
      </trkpt>
      <trkpt lat="47.55453" lon="6.65867">
        <ele>417</ele>
        <time>2016-01-01T10:03:58.000Z</time>
      </trkpt>
      <trkpt lat="47.5545" lon="6.65868">
        <ele>417</ele>
        <time>2016-01-01T10:04:00.000Z</time>
      </trkpt>
      <trkpt lat="47.55449" lon="6.65869">
        <ele>418</ele>
        <time>2016-01-01T10:04:01.000Z</time>
      </trkpt>
      <trkpt lat="47.55445" lon="6.65871">
        <ele>418</ele>
        <time>2016-01-01T10:04:03.000Z</time>
      </trkpt>
      <trkpt lat="47.55443" lon="6.65871">
        <ele>418</ele>
        <time>2016-01-01T10:04:04.000Z</time>
      </trkpt>
      <trkpt lat="47.5544" lon="6.65872">
        <ele>418</ele>
        <time>2016-01-01T10:04:06.000Z</time>
      </trkpt>
      <trkpt lat="47.55438" lon="6.65873">
        <ele>418</ele>
        <time>2016-01-01T10:04:07.000Z</time>
      </trkpt>
      <trkpt lat="47.55435" lon="6.65876">
        <ele>418</ele>
        <time>2016-01-01T10:04:09.000Z</time>
      </trkpt>
      <trkpt lat="47.55435" lon="6.65878">
        <ele>418</ele>
        <time>2016-01-01T10:04:10.000Z</time>
      </trkpt>
      <trkpt lat="47.55432" lon="6.65883">
        <ele>419</ele>
        <time>2016-01-01T10:04:12.000Z</time>
      </trkpt>
      <trkpt lat="47.55431" lon="6.65884">
        <ele>419</ele>
        <time>2016-01-01T10:04:13.000Z</time>
      </trkpt>
      <trkpt lat="47.55428" lon="6.65886">
        <ele>419</ele>
        <time>2016-01-01T10:04:15.000Z</time>
      </trkpt>
      <trkpt lat="47.55427" lon="6.65887">
        <ele>419</ele>
        <time>2016-01-01T10:04:16.000Z</time>
      </trkpt>
      <trkpt lat="47.55424" lon="6.65891">
        <ele>420</ele>
        <time>2016-01-01T10:04:18.000Z</time>
      </trkpt>
      <trkpt lat="47.55422" lon="6.65893">
        <ele>420</ele>
        <time>2016-01-01T10:04:19.000Z</time>
      </trkpt>
      <trkpt lat="47.5542" lon="6.65896">
        <ele>420</ele>
        <time>2016-01-01T10:04:21.000Z</time>
      </trkpt>
      <trkpt lat="47.55419" lon="6.65897">
        <ele>420</ele>
        <time>2016-01-01T10:04:22.000Z</time>
      </trkpt>
      <trkpt lat="47.55415" lon="6.659">
        <ele>424</ele>
        <time>2016-01-01T10:04:25.000Z</time>
      </trkpt>
      <trkpt lat="47.55414" lon="6.65902">
        <ele>424</ele>
        <time>2016-01-01T10:04:26.000Z</time>
      </trkpt>
      <trkpt lat="47.55412" lon="6.65905">
        <ele>424</ele>
        <time>2016-01-01T10:04:28.000Z</time>
      </trkpt>
      <trkpt lat="47.55411" lon="6.65908">
        <ele>424</ele>
        <time>2016-01-01T10:04:29.000Z</time>
      </trkpt>
      <trkpt lat="47.55409" lon="6.65912">
        <ele>424</ele>
        <time>2016-01-01T10:04:31.000Z</time>
      </trkpt>
      <trkpt lat="47.55408" lon="6.65914">
        <ele>424</ele>
        <time>2016-01-01T10:04:32.000Z</time>
      </trkpt>
      <trkpt lat="47.55407" lon="6.65918">
        <ele>426</ele>
        <time>2016-01-01T10:04:34.000Z</time>
      </trkpt>
      <trkpt lat="47.55406" lon="6.65921">
        <ele>426</ele>
        <time>2016-01-01T10:04:35.000Z</time>
      </trkpt>
      <trkpt lat="47.55406" lon="6.65925">
        <ele>426</ele>
        <time>2016-01-01T10:04:37.000Z</time>
      </trkpt>
      <trkpt lat="47.55406" lon="6.65927">
        <ele>427</ele>
        <time>2016-01-01T10:04:38.000Z</time>
      </trkpt>
      <trkpt lat="47.55406" lon="6.65932">
        <ele>427</ele>
        <time>2016-01-01T10:04:40.000Z</time>
      </trkpt>
      <trkpt lat="47.55406" lon="6.65934">
        <ele>427</ele>
        <time>2016-01-01T10:04:41.000Z</time>
      </trkpt>
      <trkpt lat="47.55405" lon="6.65939">
        <ele>428</ele>
        <time>2016-01-01T10:04:43.000Z</time>
      </trkpt>
      <trkpt lat="47.55404" lon="6.65941">
        <ele>428</ele>
        <time>2016-01-01T10:04:44.000Z</time>
      </trkpt>
      <trkpt lat="47.55403" lon="6.65947">
        <ele>428</ele>
        <time>2016-01-01T10:04:46.000Z</time>
      </trkpt>
      <trkpt lat="47.55403" lon="6.65949">
        <ele>428</ele>
        <time>2016-01-01T10:04:47.000Z</time>
      </trkpt>
      <trkpt lat="47.55401" lon="6.65954">
        <ele>429</ele>
        <time>2016-01-01T10:04:49.000Z</time>
      </trkpt>
      <trkpt lat="47.55401" lon="6.65956">
        <ele>429</ele>
        <time>2016-01-01T10:04:50.000Z</time>
      </trkpt>
      <trkpt lat="47.55399" lon="6.65961">
        <ele>429</ele>
        <time>2016-01-01T10:04:52.000Z</time>
      </trkpt>
      <trkpt lat="47.55397" lon="6.65963">
        <ele>429</ele>
        <time>2016-01-01T10:04:53.000Z</time>
      </trkpt>
      <trkpt lat="47.55395" lon="6.65968">
        <ele>429</ele>
        <time>2016-01-01T10:04:55.000Z</time>
      </trkpt>
      <trkpt lat="47.55394" lon="6.6597">
        <ele>429</ele>
        <time>2016-01-01T10:04:56.000Z</time>
      </trkpt>
      <trkpt lat="47.55392" lon="6.65974">
        <ele>430</ele>
        <time>2016-01-01T10:04:58.000Z</time>
      </trkpt>
      <trkpt lat="47.55392" lon="6.65976">
        <ele>430</ele>
        <time>2016-01-01T10:04:59.000Z</time>
      </trkpt>
      <trkpt lat="47.55391" lon="6.65981">
        <ele>430</ele>
        <time>2016-01-01T10:05:01.000Z</time>
      </trkpt>
      <trkpt lat="47.5539" lon="6.65983">
        <ele>430</ele>
        <time>2016-01-01T10:05:02.000Z</time>
      </trkpt>
      <trkpt lat="47.55389" lon="6.65987">
        <ele>430</ele>
        <time>2016-01-01T10:05:04.000Z</time>
      </trkpt>
      <trkpt lat="47.55388" lon="6.6599">
        <ele>430</ele>
        <time>2016-01-01T10:05:05.000Z</time>
      </trkpt>
      <trkpt lat="47.55386" lon="6.65994">
        <ele>430</ele>
        <time>2016-01-01T10:05:07.000Z</time>
      </trkpt>
      <trkpt lat="47.55385" lon="6.65996">
        <ele>430</ele>
        <time>2016-01-01T10:05:08.000Z</time>
      </trkpt>
      <trkpt lat="47.55384" lon="6.65999">
        <ele>430</ele>
        <time>2016-01-01T10:05:10.000Z</time>
      </trkpt>
      <trkpt lat="47.55383" lon="6.66001">
        <ele>434</ele>
        <time>2016-01-01T10:05:11.000Z</time>
      </trkpt>
      <trkpt lat="47.5538" lon="6.66005">
        <ele>434</ele>
        <time>2016-01-01T10:05:13.000Z</time>
      </trkpt>
      <trkpt lat="47.55379" lon="6.66007">
        <ele>434</ele>
        <time>2016-01-01T10:05:14.000Z</time>
      </trkpt>
      <trkpt lat="47.55377" lon="6.66012">
        <ele>435</ele>
        <time>2016-01-01T10:05:17.000Z</time>
      </trkpt>
      <trkpt lat="47.55376" lon="6.66014">
        <ele>435</ele>
        <time>2016-01-01T10:05:18.000Z</time>
      </trkpt>
      <trkpt lat="47.55375" lon="6.66018">
        <ele>435</ele>
        <time>2016-01-01T10:05:20.000Z</time>
      </trkpt>
      <trkpt lat="47.55374" lon="6.6602">
        <ele>435</ele>
        <time>2016-01-01T10:05:21.000Z</time>
      </trkpt>
      <trkpt lat="47.55372" lon="6.66025">
        <ele>435</ele>
        <time>2016-01-01T10:05:23.000Z</time>
      </trkpt>
      <trkpt lat="47.55371" lon="6.66027">
        <ele>435</ele>
        <time>2016-01-01T10:05:24.000Z</time>
      </trkpt>
      <trkpt lat="47.5537" lon="6.66031">
        <ele>436</ele>
        <time>2016-01-01T10:05:26.000Z</time>
      </trkpt>
      <trkpt lat="47.55369" lon="6.66034">
        <ele>436</ele>
        <time>2016-01-01T10:05:27.000Z</time>
      </trkpt>
      <trkpt lat="47.55367" lon="6.66038">
        <ele>436</ele>
        <time>2016-01-01T10:05:29.000Z</time>
      </trkpt>
      <trkpt lat="47.55367" lon="6.6604">
        <ele>436</ele>
        <time>2016-01-01T10:05:30.000Z</time>
      </trkpt>
      <trkpt lat="47.55364" lon="6.66046">
        <ele>436</ele>
        <time>2016-01-01T10:05:33.000Z</time>
      </trkpt>
      <trkpt lat="47.55363" lon="6.66048">
        <ele>437</ele>
        <time>2016-01-01T10:05:34.000Z</time>
      </trkpt>
      <trkpt lat="47.55361" lon="6.66052">
        <ele>437</ele>
        <time>2016-01-01T10:05:36.000Z</time>
      </trkpt>
      <trkpt lat="47.55359" lon="6.66053">
        <ele>437</ele>
        <time>2016-01-01T10:05:37.000Z</time>
      </trkpt>
      <trkpt lat="47.55356" lon="6.66058">
        <ele>437</ele>
        <time>2016-01-01T10:05:40.000Z</time>
      </trkpt>
      <trkpt lat="47.55355" lon="6.66059">
        <ele>438</ele>
        <time>2016-01-01T10:05:41.000Z</time>
      </trkpt>
      <trkpt lat="47.55351" lon="6.66061">
        <ele>438</ele>
        <time>2016-01-01T10:05:46.000Z</time>
      </trkpt>
      <trkpt lat="47.5535" lon="6.66062">
        <ele>438</ele>
        <time>2016-01-01T10:05:47.000Z</time>
      </trkpt>
      <trkpt lat="47.55347" lon="6.66064">
        <ele>439</ele>
        <time>2016-01-01T10:05:50.000Z</time>
      </trkpt>
      <trkpt lat="47.55346" lon="6.66065">
        <ele>439</ele>
        <time>2016-01-01T10:05:51.000Z</time>
      </trkpt>
      <trkpt lat="47.55342" lon="6.66068">
        <ele>439</ele>
        <time>2016-01-01T10:05:54.000Z</time>
      </trkpt>
      <trkpt lat="47.55341" lon="6.6607">
        <ele>440</ele>
        <time>2016-01-01T10:05:55.000Z</time>
      </trkpt>
      <trkpt lat="47.55339" lon="6.66072">
        <ele>440</ele>
        <time>2016-01-01T10:05:57.000Z</time>
      </trkpt>
      <trkpt lat="47.55337" lon="6.66075">
        <ele>441</ele>
        <time>2016-01-01T10:05:58.000Z</time>
      </trkpt>
      <trkpt lat="47.55333" lon="6.66078">
        <ele>444</ele>
        <time>2016-01-01T10:06:00.000Z</time>
      </trkpt>
      <trkpt lat="47.55332" lon="6.6608">
        <ele>443</ele>
        <time>2016-01-01T10:06:01.000Z</time>
      </trkpt>
      <trkpt lat="47.55329" lon="6.66083">
        <ele>444</ele>
        <time>2016-01-01T10:06:03.000Z</time>
      </trkpt>
      <trkpt lat="47.55328" lon="6.66085">
        <ele>447</ele>
        <time>2016-01-01T10:06:04.000Z</time>
      </trkpt>
      <trkpt lat="47.55326" lon="6.66088">
        <ele>449</ele>
        <time>2016-01-01T10:06:06.000Z</time>
      </trkpt>
      <trkpt lat="47.55324" lon="6.66089">
        <ele>450</ele>
        <time>2016-01-01T10:06:07.000Z</time>
      </trkpt>
      <trkpt lat="47.55321" lon="6.6609">
        <ele>451</ele>
        <time>2016-01-01T10:06:09.000Z</time>
      </trkpt>
      <trkpt lat="47.55319" lon="6.6609">
        <ele>452</ele>
        <time>2016-01-01T10:06:10.000Z</time>
      </trkpt>
      <trkpt lat="47.55316" lon="6.66092">
        <ele>453</ele>
        <time>2016-01-01T10:06:12.000Z</time>
      </trkpt>
      <trkpt lat="47.55315" lon="6.66093">
        <ele>453</ele>
        <time>2016-01-01T10:06:13.000Z</time>
      </trkpt>
      <trkpt lat="47.55311" lon="6.66095">
        <ele>455</ele>
        <time>2016-01-01T10:06:17.000Z</time>
      </trkpt>
      <trkpt lat="47.55309" lon="6.66096">
        <ele>455</ele>
        <time>2016-01-01T10:06:18.000Z</time>
      </trkpt>
      <trkpt lat="47.55306" lon="6.66098">
        <ele>456</ele>
        <time>2016-01-01T10:06:20.000Z</time>
      </trkpt>
      <trkpt lat="47.55304" lon="6.66099">
        <ele>457</ele>
        <time>2016-01-01T10:06:21.000Z</time>
      </trkpt>
      <trkpt lat="47.553" lon="6.66102">
        <ele>458</ele>
        <time>2016-01-01T10:06:23.000Z</time>
      </trkpt>
      <trkpt lat="47.55298" lon="6.66102">
        <ele>458</ele>
        <time>2016-01-01T10:06:24.000Z</time>
      </trkpt>
      <trkpt lat="47.55295" lon="6.66102">
        <ele>459</ele>
        <time>2016-01-01T10:06:26.000Z</time>
      </trkpt>
      <trkpt lat="47.55293" lon="6.66103">
        <ele>459</ele>
        <time>2016-01-01T10:06:27.000Z</time>
      </trkpt>
      <trkpt lat="47.55289" lon="6.66104">
        <ele>460</ele>
        <time>2016-01-01T10:06:29.000Z</time>
      </trkpt>
      <trkpt lat="47.55288" lon="6.66104">
        <ele>460</ele>
        <time>2016-01-01T10:06:30.000Z</time>
      </trkpt>
      <trkpt lat="47.55284" lon="6.66104">
        <ele>461</ele>
        <time>2016-01-01T10:06:32.000Z</time>
      </trkpt>
      <trkpt lat="47.55282" lon="6.66105">
        <ele>461</ele>
        <time>2016-01-01T10:06:33.000Z</time>
      </trkpt>
      <trkpt lat="47.55278" lon="6.66104">
        <ele>461</ele>
        <time>2016-01-01T10:06:35.000Z</time>
      </trkpt>
      <trkpt lat="47.55276" lon="6.66104">
        <ele>461</ele>
        <time>2016-01-01T10:06:36.000Z</time>
      </trkpt>
      <trkpt lat="47.55272" lon="6.66103">
        <ele>461</ele>
        <time>2016-01-01T10:06:38.000Z</time>
      </trkpt>
      <trkpt lat="47.55271" lon="6.66103">
        <ele>461</ele>
        <time>2016-01-01T10:06:39.000Z</time>
      </trkpt>
      <trkpt lat="47.55267" lon="6.66102">
        <ele>462</ele>
        <time>2016-01-01T10:06:41.000Z</time>
      </trkpt>
      <trkpt lat="47.55266" lon="6.66102">
        <ele>462</ele>
        <time>2016-01-01T10:06:42.000Z</time>
      </trkpt>
      <trkpt lat="47.55263" lon="6.66101">
        <ele>462</ele>
        <time>2016-01-01T10:06:43.999Z</time>
      </trkpt>
      <trkpt lat="47.55261" lon="6.66101">
        <ele>462</ele>
        <time>2016-01-01T10:06:45.000Z</time>
      </trkpt>
      <trkpt lat="47.55257" lon="6.661">
        <ele>462</ele>
        <time>2016-01-01T10:06:47.000Z</time>
      </trkpt>
      <trkpt lat="47.55256" lon="6.66099">
        <ele>462</ele>
        <time>2016-01-01T10:06:48.000Z</time>
      </trkpt>
      <trkpt lat="47.55253" lon="6.66097">
        <ele>461</ele>
        <time>2016-01-01T10:06:50.000Z</time>
      </trkpt>
      <trkpt lat="47.55251" lon="6.66097">
        <ele>461</ele>
        <time>2016-01-01T10:06:51.000Z</time>
      </trkpt>
      <trkpt lat="47.55247" lon="6.66094">
        <ele>468</ele>
        <time>2016-01-01T10:06:54.000Z</time>
      </trkpt>
      <trkpt lat="47.55246" lon="6.66093">
        <ele>468</ele>
        <time>2016-01-01T10:06:55.000Z</time>
      </trkpt>
      <trkpt lat="47.55242" lon="6.66094">
        <ele>470</ele>
        <time>2016-01-01T10:06:58.000Z</time>
      </trkpt>
      <trkpt lat="47.55241" lon="6.66096">
        <ele>471</ele>
        <time>2016-01-01T10:06:59.000Z</time>
      </trkpt>
      <trkpt lat="47.5524" lon="6.66102">
        <ele>473</ele>
        <time>2016-01-01T10:07:02.000Z</time>
      </trkpt>
      <trkpt lat="47.5524" lon="6.66104">
        <ele>474</ele>
        <time>2016-01-01T10:07:02.999Z</time>
      </trkpt>
      <trkpt lat="47.55242" lon="6.66108">
        <ele>475</ele>
        <time>2016-01-01T10:07:05.000Z</time>
      </trkpt>
      <trkpt lat="47.55244" lon="6.66109">
        <ele>475</ele>
        <time>2016-01-01T10:07:06.000Z</time>
      </trkpt>
      <trkpt lat="47.55247" lon="6.66113">
        <ele>476</ele>
        <time>2016-01-01T10:07:08.000Z</time>
      </trkpt>
      <trkpt lat="47.55248" lon="6.66115">
        <ele>477</ele>
        <time>2016-01-01T10:07:09.000Z</time>
      </trkpt>
      <trkpt lat="47.55251" lon="6.66119">
        <ele>465</ele>
        <time>2016-01-01T10:07:11.000Z</time>
      </trkpt>
      <trkpt lat="47.55253" lon="6.6612">
        <ele>465</ele>
        <time>2016-01-01T10:07:12.000Z</time>
      </trkpt>
      <trkpt lat="47.55255" lon="6.66123">
        <ele>465</ele>
        <time>2016-01-01T10:07:14.000Z</time>
      </trkpt>
      <trkpt lat="47.55256" lon="6.66125">
        <ele>466</ele>
        <time>2016-01-01T10:07:15.000Z</time>
      </trkpt>
      <trkpt lat="47.55259" lon="6.66129">
        <ele>466</ele>
        <time>2016-01-01T10:07:17.000Z</time>
      </trkpt>
      <trkpt lat="47.5526" lon="6.66131">
        <ele>467</ele>
        <time>2016-01-01T10:07:18.000Z</time>
      </trkpt>
      <trkpt lat="47.55262" lon="6.66135">
        <ele>468</ele>
        <time>2016-01-01T10:07:20.000Z</time>
      </trkpt>
      <trkpt lat="47.55263" lon="6.66138">
        <ele>468</ele>
        <time>2016-01-01T10:07:21.000Z</time>
      </trkpt>
      <trkpt lat="47.55266" lon="6.66142">
        <ele>469</ele>
        <time>2016-01-01T10:07:23.000Z</time>
      </trkpt>
      <trkpt lat="47.55267" lon="6.66144">
        <ele>469</ele>
        <time>2016-01-01T10:07:24.000Z</time>
      </trkpt>
      <trkpt lat="47.55269" lon="6.66149">
        <ele>470</ele>
        <time>2016-01-01T10:07:26.000Z</time>
      </trkpt>
      <trkpt lat="47.5527" lon="6.66151">
        <ele>470</ele>
        <time>2016-01-01T10:07:27.000Z</time>
      </trkpt>
      <trkpt lat="47.55271" lon="6.66153">
        <ele>470</ele>
        <time>2016-01-01T10:07:28.001Z</time>
      </trkpt>
      <trkpt lat="47.55273" lon="6.66156">
        <ele>470</ele>
        <time>2016-01-01T10:07:30.000Z</time>
      </trkpt>
      <trkpt lat="47.55275" lon="6.66161">
        <ele>470</ele>
        <time>2016-01-01T10:07:33.000Z</time>
      </trkpt>
      <trkpt lat="47.55276" lon="6.66162">
        <ele>470</ele>
        <time>2016-01-01T10:07:34.000Z</time>
      </trkpt>
      <trkpt lat="47.55278" lon="6.66167">
        <ele>482</ele>
        <time>2016-01-01T10:07:37.000Z</time>
      </trkpt>
      <trkpt lat="47.55279" lon="6.66168">
        <ele>482</ele>
        <time>2016-01-01T10:07:38.000Z</time>
      </trkpt>
      <trkpt lat="47.55281" lon="6.66173">
        <ele>482</ele>
        <time>2016-01-01T10:07:41.001Z</time>
      </trkpt>
      <trkpt lat="47.55282" lon="6.66174">
        <ele>482</ele>
        <time>2016-01-01T10:07:42.000Z</time>
      </trkpt>
      <trkpt lat="47.55285" lon="6.66177">
        <ele>482</ele>
        <time>2016-01-01T10:07:44.000Z</time>
      </trkpt>
      <trkpt lat="47.55286" lon="6.66178">
        <ele>481</ele>
        <time>2016-01-01T10:07:45.000Z</time>
      </trkpt>
      <trkpt lat="47.55287" lon="6.6618">
        <ele>481</ele>
        <time>2016-01-01T10:07:45.999Z</time>
      </trkpt>
      <trkpt lat="47.5529" lon="6.66181">
        <ele>481</ele>
        <time>2016-01-01T10:07:47.000Z</time>
      </trkpt>
      <trkpt lat="47.55293" lon="6.66182">
        <ele>481</ele>
        <time>2016-01-01T10:07:48.000Z</time>
      </trkpt>
      <trkpt lat="47.55295" lon="6.66183">
        <ele>480</ele>
        <time>2016-01-01T10:07:49.000Z</time>
      </trkpt>
      <trkpt lat="47.55298" lon="6.66187">
        <ele>480</ele>
        <time>2016-01-01T10:07:51.000Z</time>
      </trkpt>
      <trkpt lat="47.55298" lon="6.6619">
        <ele>480</ele>
        <time>2016-01-01T10:07:52.000Z</time>
      </trkpt>
      <trkpt lat="47.55302" lon="6.66193">
        <ele>480</ele>
        <time>2016-01-01T10:07:54.000Z</time>
      </trkpt>
      <trkpt lat="47.55303" lon="6.66195">
        <ele>480</ele>
        <time>2016-01-01T10:07:55.000Z</time>
      </trkpt>
      <trkpt lat="47.55305" lon="6.66198">
        <ele>480</ele>
        <time>2016-01-01T10:07:57.000Z</time>
      </trkpt>
      <trkpt lat="47.55305" lon="6.66201">
        <ele>481</ele>
        <time>2016-01-01T10:07:58.000Z</time>
      </trkpt>
      <trkpt lat="47.55307" lon="6.66205">
        <ele>481</ele>
        <time>2016-01-01T10:08:00.000Z</time>
      </trkpt>
      <trkpt lat="47.55308" lon="6.66207">
        <ele>481</ele>
        <time>2016-01-01T10:08:00.999Z</time>
      </trkpt>
      <trkpt lat="47.5531" lon="6.6621">
        <ele>482</ele>
        <time>2016-01-01T10:08:03.000Z</time>
      </trkpt>
      <trkpt lat="47.55311" lon="6.66213">
        <ele>482</ele>
        <time>2016-01-01T10:08:04.000Z</time>
      </trkpt>
      <trkpt lat="47.55312" lon="6.66218">
        <ele>483</ele>
        <time>2016-01-01T10:08:07.000Z</time>
      </trkpt>
      <trkpt lat="47.55313" lon="6.6622">
        <ele>483</ele>
        <time>2016-01-01T10:08:08.001Z</time>
      </trkpt>
      <trkpt lat="47.55316" lon="6.66223">
        <ele>483</ele>
        <time>2016-01-01T10:08:10.000Z</time>
      </trkpt>
      <trkpt lat="47.55318" lon="6.66225">
        <ele>483</ele>
        <time>2016-01-01T10:08:11.000Z</time>
      </trkpt>
      <trkpt lat="47.55321" lon="6.66228">
        <ele>483</ele>
        <time>2016-01-01T10:08:13.000Z</time>
      </trkpt>
      <trkpt lat="47.55322" lon="6.6623">
        <ele>483</ele>
        <time>2016-01-01T10:08:14.000Z</time>
      </trkpt>
      <trkpt lat="47.55325" lon="6.66235">
        <ele>483</ele>
        <time>2016-01-01T10:08:17.000Z</time>
      </trkpt>
      <trkpt lat="47.55325" lon="6.66237">
        <ele>483</ele>
        <time>2016-01-01T10:08:18.000Z</time>
      </trkpt>
      <trkpt lat="47.55325" lon="6.66244">
        <ele>483</ele>
        <time>2016-01-01T10:08:21.000Z</time>
      </trkpt>
      <trkpt lat="47.55326" lon="6.66245">
        <ele>483</ele>
        <time>2016-01-01T10:08:22.000Z</time>
      </trkpt>
      <trkpt lat="47.55329" lon="6.6625">
        <ele>483</ele>
        <time>2016-01-01T10:08:25.000Z</time>
      </trkpt>
      <trkpt lat="47.55329" lon="6.66251">
        <ele>486</ele>
        <time>2016-01-01T10:08:26.000Z</time>
      </trkpt>
      <trkpt lat="47.55331" lon="6.66254">
        <ele>486</ele>
        <time>2016-01-01T10:08:28.000Z</time>
      </trkpt>
      <trkpt lat="47.55332" lon="6.66257">
        <ele>488</ele>
        <time>2016-01-01T10:08:30.000Z</time>
      </trkpt>
      <trkpt lat="47.55334" lon="6.66263">
        <ele>480</ele>
        <time>2016-01-01T10:08:33.000Z</time>
      </trkpt>
      <trkpt lat="47.55334" lon="6.66264">
        <ele>480</ele>
        <time>2016-01-01T10:08:34.000Z</time>
      </trkpt>
      <trkpt lat="47.55335" lon="6.66269">
        <ele>479</ele>
        <time>2016-01-01T10:08:37.000Z</time>
      </trkpt>
      <trkpt lat="47.55335" lon="6.66271">
        <ele>479</ele>
        <time>2016-01-01T10:08:38.000Z</time>
      </trkpt>
      <trkpt lat="47.55338" lon="6.66276">
        <ele>479</ele>
        <time>2016-01-01T10:08:40.000Z</time>
      </trkpt>
      <trkpt lat="47.55339" lon="6.66278">
        <ele>479</ele>
        <time>2016-01-01T10:08:41.000Z</time>
      </trkpt>
      <trkpt lat="47.55343" lon="6.66282">
        <ele>479</ele>
        <time>2016-01-01T10:08:43.000Z</time>
      </trkpt>
      <trkpt lat="47.55344" lon="6.66283">
        <ele>479</ele>
        <time>2016-01-01T10:08:44.000Z</time>
      </trkpt>
      <trkpt lat="47.55347" lon="6.66287">
        <ele>479</ele>
        <time>2016-01-01T10:08:46.000Z</time>
      </trkpt>
      <trkpt lat="47.55348" lon="6.66289">
        <ele>479</ele>
        <time>2016-01-01T10:08:47.000Z</time>
      </trkpt>
      <trkpt lat="47.55351" lon="6.66294">
        <ele>479</ele>
        <time>2016-01-01T10:08:49.000Z</time>
      </trkpt>
      <trkpt lat="47.55352" lon="6.66296">
        <ele>479</ele>
        <time>2016-01-01T10:08:50.000Z</time>
      </trkpt>
      <trkpt lat="47.55353" lon="6.663">
        <ele>479</ele>
        <time>2016-01-01T10:08:52.000Z</time>
      </trkpt>
      <trkpt lat="47.55354" lon="6.66302">
        <ele>479</ele>
        <time>2016-01-01T10:08:53.000Z</time>
      </trkpt>
      <trkpt lat="47.55355" lon="6.66307">
        <ele>480</ele>
        <time>2016-01-01T10:08:55.000Z</time>
      </trkpt>
      <trkpt lat="47.55356" lon="6.66309">
        <ele>480</ele>
        <time>2016-01-01T10:08:55.999Z</time>
      </trkpt>
      <trkpt lat="47.55357" lon="6.66314">
        <ele>481</ele>
        <time>2016-01-01T10:08:58.000Z</time>
      </trkpt>
      <trkpt lat="47.55358" lon="6.66317">
        <ele>481</ele>
        <time>2016-01-01T10:08:59.000Z</time>
      </trkpt>
      <trkpt lat="47.55359" lon="6.66322">
        <ele>481</ele>
        <time>2016-01-01T10:09:01.000Z</time>
      </trkpt>
      <trkpt lat="47.5536" lon="6.66325">
        <ele>481</ele>
        <time>2016-01-01T10:09:02.000Z</time>
      </trkpt>
      <trkpt lat="47.55362" lon="6.6633">
        <ele>481</ele>
        <time>2016-01-01T10:09:04.000Z</time>
      </trkpt>
      <trkpt lat="47.55363" lon="6.66333">
        <ele>481</ele>
        <time>2016-01-01T10:09:05.000Z</time>
      </trkpt>
      <trkpt lat="47.55364" lon="6.66335">
        <ele>488</ele>
        <time>2016-01-01T10:09:05.999Z</time>
      </trkpt>
      <trkpt lat="47.55365" lon="6.66339">
        <ele>488</ele>
        <time>2016-01-01T10:09:07.000Z</time>
      </trkpt>
      <trkpt lat="47.55366" lon="6.66342">
        <ele>488</ele>
        <time>2016-01-01T10:09:08.000Z</time>
      </trkpt>
      <trkpt lat="47.55367" lon="6.66345">
        <ele>488</ele>
        <time>2016-01-01T10:09:09.000Z</time>
      </trkpt>
      <trkpt lat="47.55368" lon="6.66348">
        <ele>488</ele>
        <time>2016-01-01T10:09:09.999Z</time>
      </trkpt>
      <trkpt lat="47.55369" lon="6.66353">
        <ele>488</ele>
        <time>2016-01-01T10:09:11.000Z</time>
      </trkpt>
      <trkpt lat="47.5537" lon="6.66356">
        <ele>487</ele>
        <time>2016-01-01T10:09:12.000Z</time>
      </trkpt>
      <trkpt lat="47.55371" lon="6.66359">
        <ele>487</ele>
        <time>2016-01-01T10:09:13.000Z</time>
      </trkpt>
      <trkpt lat="47.55372" lon="6.66363">
        <ele>487</ele>
        <time>2016-01-01T10:09:14.000Z</time>
      </trkpt>
      <trkpt lat="47.55374" lon="6.66366">
        <ele>487</ele>
        <time>2016-01-01T10:09:15.000Z</time>
      </trkpt>
      <trkpt lat="47.55375" lon="6.6637">
        <ele>487</ele>
        <time>2016-01-01T10:09:16.000Z</time>
      </trkpt>
      <trkpt lat="47.55377" lon="6.66374">
        <ele>487</ele>
        <time>2016-01-01T10:09:17.000Z</time>
      </trkpt>
      <trkpt lat="47.55379" lon="6.66379">
        <ele>487</ele>
        <time>2016-01-01T10:09:18.000Z</time>
      </trkpt>
      <trkpt lat="47.55381" lon="6.66384">
        <ele>487</ele>
        <time>2016-01-01T10:09:19.000Z</time>
      </trkpt>
      <trkpt lat="47.55383" lon="6.66389">
        <ele>487</ele>
        <time>2016-01-01T10:09:20.000Z</time>
      </trkpt>
      <trkpt lat="47.55384" lon="6.66393">
        <ele>487</ele>
        <time>2016-01-01T10:09:21.000Z</time>
      </trkpt>
      <trkpt lat="47.55386" lon="6.66399">
        <ele>487</ele>
        <time>2016-01-01T10:09:22.000Z</time>
      </trkpt>
      <trkpt lat="47.55387" lon="6.66403">
        <ele>487</ele>
        <time>2016-01-01T10:09:23.000Z</time>
      </trkpt>
      <trkpt lat="47.55389" lon="6.66408">
        <ele>487</ele>
        <time>2016-01-01T10:09:24.000Z</time>
      </trkpt>
      <trkpt lat="47.55391" lon="6.66412">
        <ele>487</ele>
        <time>2016-01-01T10:09:25.000Z</time>
      </trkpt>
      <trkpt lat="47.55393" lon="6.66416">
        <ele>486</ele>
        <time>2016-01-01T10:09:26.000Z</time>
      </trkpt>
      <trkpt lat="47.55395" lon="6.66419">
        <ele>491</ele>
        <time>2016-01-01T10:09:27.000Z</time>
      </trkpt>
      <trkpt lat="47.55397" lon="6.66423">
        <ele>491</ele>
        <time>2016-01-01T10:09:28.001Z</time>
      </trkpt>
      <trkpt lat="47.55398" lon="6.66427">
        <ele>491</ele>
        <time>2016-01-01T10:09:29.000Z</time>
      </trkpt>
      <trkpt lat="47.55399" lon="6.66431">
        <ele>491</ele>
        <time>2016-01-01T10:09:30.000Z</time>
      </trkpt>
      <trkpt lat="47.554" lon="6.66435">
        <ele>492</ele>
        <time>2016-01-01T10:09:31.000Z</time>
      </trkpt>
      <trkpt lat="47.55401" lon="6.66439">
        <ele>492</ele>
        <time>2016-01-01T10:09:32.000Z</time>
      </trkpt>
      <trkpt lat="47.55402" lon="6.66443">
        <ele>493</ele>
        <time>2016-01-01T10:09:33.001Z</time>
      </trkpt>
      <trkpt lat="47.55403" lon="6.66446">
        <ele>493</ele>
        <time>2016-01-01T10:09:34.000Z</time>
      </trkpt>
      <trkpt lat="47.55406" lon="6.6645">
        <ele>493</ele>
        <time>2016-01-01T10:09:35.000Z</time>
      </trkpt>
      <trkpt lat="47.55407" lon="6.66454">
        <ele>494</ele>
        <time>2016-01-01T10:09:36.000Z</time>
      </trkpt>
      <trkpt lat="47.5541" lon="6.66458">
        <ele>494</ele>
        <time>2016-01-01T10:09:37.000Z</time>
      </trkpt>
      <trkpt lat="47.55412" lon="6.66464">
        <ele>494</ele>
        <time>2016-01-01T10:09:38.001Z</time>
      </trkpt>
      <trkpt lat="47.55414" lon="6.66469">
        <ele>495</ele>
        <time>2016-01-01T10:09:39.000Z</time>
      </trkpt>
      <trkpt lat="47.55416" lon="6.66474">
        <ele>495</ele>
        <time>2016-01-01T10:09:40.000Z</time>
      </trkpt>
      <trkpt lat="47.55418" lon="6.66478">
        <ele>484</ele>
        <time>2016-01-01T10:09:41.000Z</time>
      </trkpt>
      <trkpt lat="47.55421" lon="6.66482">
        <ele>485</ele>
        <time>2016-01-01T10:09:42.000Z</time>
      </trkpt>
      <trkpt lat="47.55423" lon="6.66487">
        <ele>486</ele>
        <time>2016-01-01T10:09:43.000Z</time>
      </trkpt>
      <trkpt lat="47.55425" lon="6.66491">
        <ele>487</ele>
        <time>2016-01-01T10:09:44.000Z</time>
      </trkpt>
      <trkpt lat="47.55428" lon="6.66495">
        <ele>487</ele>
        <time>2016-01-01T10:09:45.000Z</time>
      </trkpt>
      <trkpt lat="47.5543" lon="6.665">
        <ele>486</ele>
        <time>2016-01-01T10:09:46.000Z</time>
      </trkpt>
      <trkpt lat="47.55432" lon="6.66504">
        <ele>490</ele>
        <time>2016-01-01T10:09:47.000Z</time>
      </trkpt>
      <trkpt lat="47.55433" lon="6.66508">
        <ele>490</ele>
        <time>2016-01-01T10:09:48.000Z</time>
      </trkpt>
      <trkpt lat="47.55435" lon="6.66512">
        <ele>490</ele>
        <time>2016-01-01T10:09:49.000Z</time>
      </trkpt>
      <trkpt lat="47.55436" lon="6.66516">
        <ele>489</ele>
        <time>2016-01-01T10:09:50.000Z</time>
      </trkpt>
      <trkpt lat="47.55437" lon="6.66521">
        <ele>489</ele>
        <time>2016-01-01T10:09:51.000Z</time>
      </trkpt>
      <trkpt lat="47.55438" lon="6.66525">
        <ele>489</ele>
        <time>2016-01-01T10:09:52.000Z</time>
      </trkpt>
      <trkpt lat="47.55439" lon="6.66528">
        <ele>489</ele>
        <time>2016-01-01T10:09:53.000Z</time>
      </trkpt>
      <trkpt lat="47.55439" lon="6.66531">
        <ele>489</ele>
        <time>2016-01-01T10:09:54.000Z</time>
      </trkpt>
      <trkpt lat="47.5544" lon="6.66536">
        <ele>489</ele>
        <time>2016-01-01T10:09:56.000Z</time>
      </trkpt>
      <trkpt lat="47.55441" lon="6.66538">
        <ele>489</ele>
        <time>2016-01-01T10:09:57.000Z</time>
      </trkpt>
      <trkpt lat="47.55442" lon="6.66545">
        <ele>490</ele>
        <time>2016-01-01T10:10:00.000Z</time>
      </trkpt>
      <trkpt lat="47.55442" lon="6.66546">
        <ele>490</ele>
        <time>2016-01-01T10:10:01.000Z</time>
      </trkpt>
      <trkpt lat="47.55443" lon="6.66551">
        <ele>490</ele>
        <time>2016-01-01T10:10:03.000Z</time>
      </trkpt>
      <trkpt lat="47.55443" lon="6.66554">
        <ele>490</ele>
        <time>2016-01-01T10:10:04.000Z</time>
      </trkpt>
      <trkpt lat="47.55444" lon="6.66559">
        <ele>491</ele>
        <time>2016-01-01T10:10:07.000Z</time>
      </trkpt>
      <trkpt lat="47.55444" lon="6.6656">
        <ele>491</ele>
        <time>2016-01-01T10:10:08.000Z</time>
      </trkpt>
      <trkpt lat="47.55445" lon="6.66566">
        <ele>491</ele>
        <time>2016-01-01T10:10:11.000Z</time>
      </trkpt>
      <trkpt lat="47.55444" lon="6.66568">
        <ele>491</ele>
        <time>2016-01-01T10:10:12.000Z</time>
      </trkpt>
      <trkpt lat="47.55445" lon="6.66573">
        <ele>492</ele>
        <time>2016-01-01T10:10:14.000Z</time>
      </trkpt>
      <trkpt lat="47.55445" lon="6.66575">
        <ele>492</ele>
        <time>2016-01-01T10:10:15.000Z</time>
      </trkpt>
      <trkpt lat="47.55445" lon="6.66581">
        <ele>492</ele>
        <time>2016-01-01T10:10:18.000Z</time>
      </trkpt>
      <trkpt lat="47.55445" lon="6.66584">
        <ele>497</ele>
        <time>2016-01-01T10:10:19.000Z</time>
      </trkpt>
      <trkpt lat="47.55447" lon="6.66589">
        <ele>497</ele>
        <time>2016-01-01T10:10:22.000Z</time>
      </trkpt>
      <trkpt lat="47.55448" lon="6.66591">
        <ele>497</ele>
        <time>2016-01-01T10:10:23.000Z</time>
      </trkpt>
      <trkpt lat="47.55448" lon="6.66596">
        <ele>497</ele>
        <time>2016-01-01T10:10:25.000Z</time>
      </trkpt>
      <trkpt lat="47.55448" lon="6.66598">
        <ele>497</ele>
        <time>2016-01-01T10:10:26.000Z</time>
      </trkpt>
      <trkpt lat="47.55448" lon="6.66603">
        <ele>497</ele>
        <time>2016-01-01T10:10:28.000Z</time>
      </trkpt>
      <trkpt lat="47.55448" lon="6.66606">
        <ele>497</ele>
        <time>2016-01-01T10:10:29.000Z</time>
      </trkpt>
      <trkpt lat="47.55447" lon="6.66611">
        <ele>497</ele>
        <time>2016-01-01T10:10:31.000Z</time>
      </trkpt>
      <trkpt lat="47.55446" lon="6.66614">
        <ele>497</ele>
        <time>2016-01-01T10:10:32.000Z</time>
      </trkpt>
      <trkpt lat="47.55447" lon="6.66619">
        <ele>497</ele>
        <time>2016-01-01T10:10:34.000Z</time>
      </trkpt>
      <trkpt lat="47.55448" lon="6.66621">
        <ele>497</ele>
        <time>2016-01-01T10:10:35.000Z</time>
      </trkpt>
      <trkpt lat="47.5545" lon="6.66627">
        <ele>497</ele>
        <time>2016-01-01T10:10:37.000Z</time>
      </trkpt>
      <trkpt lat="47.5545" lon="6.6663">
        <ele>497</ele>
        <time>2016-01-01T10:10:38.000Z</time>
      </trkpt>
      <trkpt lat="47.55452" lon="6.66636">
        <ele>497</ele>
        <time>2016-01-01T10:10:40.000Z</time>
      </trkpt>
      <trkpt lat="47.55452" lon="6.66639">
        <ele>497</ele>
        <time>2016-01-01T10:10:41.000Z</time>
      </trkpt>
      <trkpt lat="47.5545" lon="6.66645">
        <ele>497</ele>
        <time>2016-01-01T10:10:43.000Z</time>
      </trkpt>
      <trkpt lat="47.55449" lon="6.66647">
        <ele>498</ele>
        <time>2016-01-01T10:10:44.001Z</time>
      </trkpt>
      <trkpt lat="47.55446" lon="6.66651">
        <ele>498</ele>
        <time>2016-01-01T10:10:46.000Z</time>
      </trkpt>
      <trkpt lat="47.55444" lon="6.66653">
        <ele>498</ele>
        <time>2016-01-01T10:10:47.000Z</time>
      </trkpt>
      <trkpt lat="47.55442" lon="6.66655">
        <ele>498</ele>
        <time>2016-01-01T10:10:47.999Z</time>
      </trkpt>
      <trkpt lat="47.55439" lon="6.66657">
        <ele>499</ele>
        <time>2016-01-01T10:10:49.000Z</time>
      </trkpt>
      <trkpt lat="47.55435" lon="6.6666">
        <ele>499</ele>
        <time>2016-01-01T10:11:40.000Z</time>
      </trkpt>
      <trkpt lat="47.55435" lon="6.6666">
        <ele>499</ele>
        <time>2016-01-01T10:11:41.000Z</time>
      </trkpt>
      <trkpt lat="47.55431" lon="6.66659">
        <ele>500</ele>
        <time>2016-01-01T10:12:08.000Z</time>
      </trkpt>
      <trkpt lat="47.5543" lon="6.66658">
        <ele>500</ele>
        <time>2016-01-01T10:12:09.000Z</time>
      </trkpt>
      <trkpt lat="47.55427" lon="6.66654">
        <ele>500</ele>
        <time>2016-01-01T10:12:11.000Z</time>
      </trkpt>
      <trkpt lat="47.55425" lon="6.66652">
        <ele>500</ele>
        <time>2016-01-01T10:12:12.000Z</time>
      </trkpt>
      <trkpt lat="47.55423" lon="6.6665">
        <ele>499</ele>
        <time>2016-01-01T10:12:13.000Z</time>
      </trkpt>
      <trkpt lat="47.55421" lon="6.66648">
        <ele>499</ele>
        <time>2016-01-01T10:12:14.000Z</time>
      </trkpt>
      <trkpt lat="47.55419" lon="6.66646">
        <ele>499</ele>
        <time>2016-01-01T10:12:15.000Z</time>
      </trkpt>
      <trkpt lat="47.55417" lon="6.66644">
        <ele>499</ele>
        <time>2016-01-01T10:12:16.000Z</time>
      </trkpt>
      <trkpt lat="47.55415" lon="6.66642">
        <ele>501</ele>
        <time>2016-01-01T10:12:17.000Z</time>
      </trkpt>
      <trkpt lat="47.55413" lon="6.66639">
        <ele>501</ele>
        <time>2016-01-01T10:12:18.000Z</time>
      </trkpt>
      <trkpt lat="47.55411" lon="6.66637">
        <ele>501</ele>
        <time>2016-01-01T10:12:19.000Z</time>
      </trkpt>
      <trkpt lat="47.55409" lon="6.66634">
        <ele>501</ele>
        <time>2016-01-01T10:12:20.000Z</time>
      </trkpt>
      <trkpt lat="47.55407" lon="6.66631">
        <ele>501</ele>
        <time>2016-01-01T10:12:21.000Z</time>
      </trkpt>
      <trkpt lat="47.55405" lon="6.66629">
        <ele>501</ele>
        <time>2016-01-01T10:12:22.000Z</time>
      </trkpt>
      <trkpt lat="47.55403" lon="6.66626">
        <ele>501</ele>
        <time>2016-01-01T10:12:23.000Z</time>
      </trkpt>
      <trkpt lat="47.554" lon="6.66622">
        <ele>501</ele>
        <time>2016-01-01T10:12:24.000Z</time>
      </trkpt>
      <trkpt lat="47.55398" lon="6.66618">
        <ele>501</ele>
        <time>2016-01-01T10:12:25.000Z</time>
      </trkpt>
      <trkpt lat="47.55397" lon="6.66614">
        <ele>501</ele>
        <time>2016-01-01T10:12:26.000Z</time>
      </trkpt>
      <trkpt lat="47.55395" lon="6.66609">
        <ele>501</ele>
        <time>2016-01-01T10:12:27.000Z</time>
      </trkpt>
      <trkpt lat="47.55394" lon="6.66605">
        <ele>501</ele>
        <time>2016-01-01T10:12:28.000Z</time>
      </trkpt>
      <trkpt lat="47.55393" lon="6.66602">
        <ele>501</ele>
        <time>2016-01-01T10:12:29.000Z</time>
      </trkpt>
      <trkpt lat="47.55391" lon="6.66599">
        <ele>501</ele>
        <time>2016-01-01T10:12:30.000Z</time>
      </trkpt>
      <trkpt lat="47.5539" lon="6.66595">
        <ele>501</ele>
        <time>2016-01-01T10:12:31.000Z</time>
      </trkpt>
      <trkpt lat="47.55389" lon="6.66592">
        <ele>501</ele>
        <time>2016-01-01T10:12:32.000Z</time>
      </trkpt>
      <trkpt lat="47.55388" lon="6.66588">
        <ele>501</ele>
        <time>2016-01-01T10:12:33.000Z</time>
      </trkpt>
      <trkpt lat="47.55386" lon="6.66584">
        <ele>501</ele>
        <time>2016-01-01T10:12:34.000Z</time>
      </trkpt>
      <trkpt lat="47.55385" lon="6.66581">
        <ele>501</ele>
        <time>2016-01-01T10:12:35.000Z</time>
      </trkpt>
      <trkpt lat="47.55384" lon="6.66577">
        <ele>501</ele>
        <time>2016-01-01T10:12:36.000Z</time>
      </trkpt>
      <trkpt lat="47.55382" lon="6.66574">
        <ele>501</ele>
        <time>2016-01-01T10:12:37.000Z</time>
      </trkpt>
      <trkpt lat="47.5538" lon="6.6657">
        <ele>501</ele>
        <time>2016-01-01T10:12:38.000Z</time>
      </trkpt>
      <trkpt lat="47.55378" lon="6.66566">
        <ele>501</ele>
        <time>2016-01-01T10:12:39.000Z</time>
      </trkpt>
      <trkpt lat="47.55375" lon="6.66563">
        <ele>501</ele>
        <time>2016-01-01T10:12:40.000Z</time>
      </trkpt>
      <trkpt lat="47.55372" lon="6.6656">
        <ele>501</ele>
        <time>2016-01-01T10:12:41.000Z</time>
      </trkpt>
      <trkpt lat="47.55369" lon="6.66557">
        <ele>501</ele>
        <time>2016-01-01T10:12:42.000Z</time>
      </trkpt>
      <trkpt lat="47.55366" lon="6.66555">
        <ele>501</ele>
        <time>2016-01-01T10:12:43.000Z</time>
      </trkpt>
      <trkpt lat="47.55363" lon="6.66553">
        <ele>501</ele>
        <time>2016-01-01T10:12:44.000Z</time>
      </trkpt>
      <trkpt lat="47.55359" lon="6.66551">
        <ele>501</ele>
        <time>2016-01-01T10:12:45.000Z</time>
      </trkpt>
      <trkpt lat="47.55356" lon="6.66549">
        <ele>501</ele>
        <time>2016-01-01T10:12:46.000Z</time>
      </trkpt>
      <trkpt lat="47.55354" lon="6.66546">
        <ele>501</ele>
        <time>2016-01-01T10:12:47.000Z</time>
      </trkpt>
      <trkpt lat="47.55351" lon="6.66544">
        <ele>502</ele>
        <time>2016-01-01T10:12:48.000Z</time>
      </trkpt>
      <trkpt lat="47.55349" lon="6.66541">
        <ele>502</ele>
        <time>2016-01-01T10:12:49.000Z</time>
      </trkpt>
      <trkpt lat="47.55347" lon="6.66539">
        <ele>502</ele>
        <time>2016-01-01T10:12:50.000Z</time>
      </trkpt>
      <trkpt lat="47.55345" lon="6.66537">
        <ele>502</ele>
        <time>2016-01-01T10:12:51.000Z</time>
      </trkpt>
      <trkpt lat="47.55343" lon="6.66534">
        <ele>502</ele>
        <time>2016-01-01T10:12:52.000Z</time>
      </trkpt>
      <trkpt lat="47.55342" lon="6.66531">
        <ele>502</ele>
        <time>2016-01-01T10:12:53.000Z</time>
      </trkpt>
      <trkpt lat="47.5534" lon="6.66529">
        <ele>503</ele>
        <time>2016-01-01T10:12:54.000Z</time>
      </trkpt>
      <trkpt lat="47.55338" lon="6.66523">
        <ele>503</ele>
        <time>2016-01-01T10:12:56.000Z</time>
      </trkpt>
      <trkpt lat="47.55337" lon="6.6652">
        <ele>503</ele>
        <time>2016-01-01T10:12:57.000Z</time>
      </trkpt>
      <trkpt lat="47.55335" lon="6.66515">
        <ele>504</ele>
        <time>2016-01-01T10:12:59.000Z</time>
      </trkpt>
      <trkpt lat="47.55334" lon="6.66512">
        <ele>505</ele>
        <time>2016-01-01T10:13:00.000Z</time>
      </trkpt>
      <trkpt lat="47.55331" lon="6.66507">
        <ele>506</ele>
        <time>2016-01-01T10:13:02.000Z</time>
      </trkpt>
      <trkpt lat="47.5533" lon="6.66504">
        <ele>506</ele>
        <time>2016-01-01T10:13:03.000Z</time>
      </trkpt>
      <trkpt lat="47.55327" lon="6.66499">
        <ele>507</ele>
        <time>2016-01-01T10:13:05.000Z</time>
      </trkpt>
      <trkpt lat="47.55326" lon="6.66496">
        <ele>507</ele>
        <time>2016-01-01T10:13:06.000Z</time>
      </trkpt>
      <trkpt lat="47.55324" lon="6.6649">
        <ele>508</ele>
        <time>2016-01-01T10:13:08.000Z</time>
      </trkpt>
      <trkpt lat="47.55323" lon="6.66487">
        <ele>508</ele>
        <time>2016-01-01T10:13:09.000Z</time>
      </trkpt>
      <trkpt lat="47.55323" lon="6.66481">
        <ele>508</ele>
        <time>2016-01-01T10:13:11.000Z</time>
      </trkpt>
      <trkpt lat="47.55322" lon="6.66479">
        <ele>508</ele>
        <time>2016-01-01T10:13:12.000Z</time>
      </trkpt>
      <trkpt lat="47.5532" lon="6.66474">
        <ele>508</ele>
        <time>2016-01-01T10:13:14.000Z</time>
      </trkpt>
      <trkpt lat="47.55318" lon="6.66471">
        <ele>508</ele>
        <time>2016-01-01T10:13:15.000Z</time>
      </trkpt>
      <trkpt lat="47.55317" lon="6.66469">
        <ele>508</ele>
        <time>2016-01-01T10:13:16.000Z</time>
      </trkpt>
      <trkpt lat="47.55315" lon="6.66467">
        <ele>508</ele>
        <time>2016-01-01T10:13:17.000Z</time>
      </trkpt>
      <trkpt lat="47.55311" lon="6.66463">
        <ele>508</ele>
        <time>2016-01-01T10:13:19.000Z</time>
      </trkpt>
      <trkpt lat="47.5531" lon="6.66461">
        <ele>508</ele>
        <time>2016-01-01T10:13:20.000Z</time>
      </trkpt>
      <trkpt lat="47.55308" lon="6.66456">
        <ele>508</ele>
        <time>2016-01-01T10:13:22.000Z</time>
      </trkpt>
      <trkpt lat="47.55307" lon="6.66454">
        <ele>508</ele>
        <time>2016-01-01T10:13:23.000Z</time>
      </trkpt>
      <trkpt lat="47.55305" lon="6.66448">
        <ele>508</ele>
        <time>2016-01-01T10:13:25.000Z</time>
      </trkpt>
      <trkpt lat="47.55304" lon="6.66446">
        <ele>508</ele>
        <time>2016-01-01T10:13:26.000Z</time>
      </trkpt>
      <trkpt lat="47.55301" lon="6.66441">
        <ele>508</ele>
        <time>2016-01-01T10:13:28.000Z</time>
      </trkpt>
      <trkpt lat="47.55299" lon="6.66438">
        <ele>509</ele>
        <time>2016-01-01T10:13:30.000Z</time>
      </trkpt>
      <trkpt lat="47.55299" lon="6.66433">
        <ele>509</ele>
        <time>2016-01-01T10:13:33.000Z</time>
      </trkpt>
      <trkpt lat="47.553" lon="6.6643">
        <ele>509</ele>
        <time>2016-01-01T10:13:34.000Z</time>
      </trkpt>
      <trkpt lat="47.55301" lon="6.66425">
        <ele>508</ele>
        <time>2016-01-01T10:13:36.000Z</time>
      </trkpt>
      <trkpt lat="47.55301" lon="6.66422">
        <ele>508</ele>
        <time>2016-01-01T10:13:37.000Z</time>
      </trkpt>
      <trkpt lat="47.55299" lon="6.66416">
        <ele>508</ele>
        <time>2016-01-01T10:13:39.000Z</time>
      </trkpt>
      <trkpt lat="47.55298" lon="6.66413">
        <ele>508</ele>
        <time>2016-01-01T10:13:40.000Z</time>
      </trkpt>
      <trkpt lat="47.55295" lon="6.66409">
        <ele>508</ele>
        <time>2016-01-01T10:13:42.000Z</time>
      </trkpt>
      <trkpt lat="47.55294" lon="6.66407">
        <ele>508</ele>
        <time>2016-01-01T10:13:43.000Z</time>
      </trkpt>
      <trkpt lat="47.55291" lon="6.66403">
        <ele>508</ele>
        <time>2016-01-01T10:13:45.000Z</time>
      </trkpt>
      <trkpt lat="47.5529" lon="6.66401">
        <ele>508</ele>
        <time>2016-01-01T10:13:46.000Z</time>
      </trkpt>
      <trkpt lat="47.55289" lon="6.66395">
        <ele>508</ele>
        <time>2016-01-01T10:13:48.000Z</time>
      </trkpt>
      <trkpt lat="47.55289" lon="6.66392">
        <ele>508</ele>
        <time>2016-01-01T10:13:49.000Z</time>
      </trkpt>
      <trkpt lat="47.55287" lon="6.66389">
        <ele>508</ele>
        <time>2016-01-01T10:13:51.000Z</time>
      </trkpt>
      <trkpt lat="47.55285" lon="6.66388">
        <ele>508</ele>
        <time>2016-01-01T10:13:52.000Z</time>
      </trkpt>
      <trkpt lat="47.55281" lon="6.66384">
        <ele>508</ele>
        <time>2016-01-01T10:13:54.000Z</time>
      </trkpt>
      <trkpt lat="47.5528" lon="6.66381">
        <ele>508</ele>
        <time>2016-01-01T10:13:55.000Z</time>
      </trkpt>
      <trkpt lat="47.55279" lon="6.66378">
        <ele>508</ele>
        <time>2016-01-01T10:13:56.000Z</time>
      </trkpt>
      <trkpt lat="47.55279" lon="6.66374">
        <ele>508</ele>
        <time>2016-01-01T10:13:57.000Z</time>
      </trkpt>
      <trkpt lat="47.55279" lon="6.66371">
        <ele>508</ele>
        <time>2016-01-01T10:13:58.000Z</time>
      </trkpt>
      <trkpt lat="47.55279" lon="6.66368">
        <ele>508</ele>
        <time>2016-01-01T10:13:59.000Z</time>
      </trkpt>
      <trkpt lat="47.55279" lon="6.66362">
        <ele>508</ele>
        <time>2016-01-01T10:14:01.000Z</time>
      </trkpt>
      <trkpt lat="47.55278" lon="6.66359">
        <ele>508</ele>
        <time>2016-01-01T10:14:02.000Z</time>
      </trkpt>
      <trkpt lat="47.55275" lon="6.66354">
        <ele>509</ele>
        <time>2016-01-01T10:14:04.000Z</time>
      </trkpt>
      <trkpt lat="47.55274" lon="6.66352">
        <ele>509</ele>
        <time>2016-01-01T10:14:05.000Z</time>
      </trkpt>
      <trkpt lat="47.55272" lon="6.6635">
        <ele>509</ele>
        <time>2016-01-01T10:14:06.000Z</time>
      </trkpt>
      <trkpt lat="47.5527" lon="6.66348">
        <ele>509</ele>
        <time>2016-01-01T10:14:07.000Z</time>
      </trkpt>
      <trkpt lat="47.55268" lon="6.66345">
        <ele>510</ele>
        <time>2016-01-01T10:14:08.000Z</time>
      </trkpt>
      <trkpt lat="47.55266" lon="6.66341">
        <ele>510</ele>
        <time>2016-01-01T10:14:09.000Z</time>
      </trkpt>
      <trkpt lat="47.55264" lon="6.66338">
        <ele>511</ele>
        <time>2016-01-01T10:14:10.000Z</time>
      </trkpt>
      <trkpt lat="47.55262" lon="6.66334">
        <ele>511</ele>
        <time>2016-01-01T10:14:11.000Z</time>
      </trkpt>
      <trkpt lat="47.5526" lon="6.66331">
        <ele>510</ele>
        <time>2016-01-01T10:14:12.000Z</time>
      </trkpt>
      <trkpt lat="47.55258" lon="6.66329">
        <ele>510</ele>
        <time>2016-01-01T10:14:13.000Z</time>
      </trkpt>
      <trkpt lat="47.55254" lon="6.66325">
        <ele>510</ele>
        <time>2016-01-01T10:14:15.000Z</time>
      </trkpt>
      <trkpt lat="47.55252" lon="6.66323">
        <ele>510</ele>
        <time>2016-01-01T10:14:16.000Z</time>
      </trkpt>
      <trkpt lat="47.5525" lon="6.66322">
        <ele>509</ele>
        <time>2016-01-01T10:14:17.000Z</time>
      </trkpt>
      <trkpt lat="47.55248" lon="6.66321">
        <ele>513</ele>
        <time>2016-01-01T10:14:18.000Z</time>
      </trkpt>
      <trkpt lat="47.55246" lon="6.66319">
        <ele>513</ele>
        <time>2016-01-01T10:14:19.000Z</time>
      </trkpt>
      <trkpt lat="47.55243" lon="6.66317">
        <ele>513</ele>
        <time>2016-01-01T10:14:20.000Z</time>
      </trkpt>
      <trkpt lat="47.5524" lon="6.66315">
        <ele>513</ele>
        <time>2016-01-01T10:14:21.000Z</time>
      </trkpt>
      <trkpt lat="47.55239" lon="6.66314">
        <ele>513</ele>
        <time>2016-01-01T10:14:21.998Z</time>
      </trkpt>
      <trkpt lat="47.55235" lon="6.6631">
        <ele>512</ele>
        <time>2016-01-01T10:14:23.000Z</time>
      </trkpt>
      <trkpt lat="47.55232" lon="6.66307">
        <ele>512</ele>
        <time>2016-01-01T10:14:24.000Z</time>
      </trkpt>
      <trkpt lat="47.55229" lon="6.66304">
        <ele>512</ele>
        <time>2016-01-01T10:14:25.000Z</time>
      </trkpt>
      <trkpt lat="47.55227" lon="6.663">
        <ele>512</ele>
        <time>2016-01-01T10:14:26.000Z</time>
      </trkpt>
      <trkpt lat="47.55226" lon="6.66296">
        <ele>512</ele>
        <time>2016-01-01T10:14:27.000Z</time>
      </trkpt>
      <trkpt lat="47.55224" lon="6.66292">
        <ele>512</ele>
        <time>2016-01-01T10:14:28.000Z</time>
      </trkpt>
      <trkpt lat="47.55222" lon="6.66284">
        <ele>512</ele>
        <time>2016-01-01T10:14:30.000Z</time>
      </trkpt>
      <trkpt lat="47.55221" lon="6.66281">
        <ele>512</ele>
        <time>2016-01-01T10:14:31.000Z</time>
      </trkpt>
      <trkpt lat="47.55219" lon="6.66279">
        <ele>512</ele>
        <time>2016-01-01T10:14:32.000Z</time>
      </trkpt>
      <trkpt lat="47.55217" lon="6.66275">
        <ele>512</ele>
        <time>2016-01-01T10:14:33.000Z</time>
      </trkpt>
      <trkpt lat="47.55214" lon="6.66271">
        <ele>512</ele>
        <time>2016-01-01T10:14:34.000Z</time>
      </trkpt>
      <trkpt lat="47.55211" lon="6.66267">
        <ele>512</ele>
        <time>2016-01-01T10:14:35.000Z</time>
      </trkpt>
      <trkpt lat="47.55209" lon="6.66263">
        <ele>512</ele>
        <time>2016-01-01T10:14:36.000Z</time>
      </trkpt>
      <trkpt lat="47.55206" lon="6.66259">
        <ele>512</ele>
        <time>2016-01-01T10:14:37.000Z</time>
      </trkpt>
      <trkpt lat="47.55204" lon="6.66256">
        <ele>512</ele>
        <time>2016-01-01T10:14:38.000Z</time>
      </trkpt>
      <trkpt lat="47.55202" lon="6.66253">
        <ele>512</ele>
        <time>2016-01-01T10:14:39.000Z</time>
      </trkpt>
      <trkpt lat="47.55199" lon="6.6625">
        <ele>512</ele>
        <time>2016-01-01T10:14:40.000Z</time>
      </trkpt>
      <trkpt lat="47.55197" lon="6.66248">
        <ele>507</ele>
        <time>2016-01-01T10:14:41.000Z</time>
      </trkpt>
      <trkpt lat="47.55194" lon="6.66245">
        <ele>508</ele>
        <time>2016-01-01T10:14:42.000Z</time>
      </trkpt>
      <trkpt lat="47.55191" lon="6.66242">
        <ele>508</ele>
        <time>2016-01-01T10:14:43.000Z</time>
      </trkpt>
      <trkpt lat="47.55188" lon="6.66239">
        <ele>508</ele>
        <time>2016-01-01T10:14:44.000Z</time>
      </trkpt>
      <trkpt lat="47.55185" lon="6.66235">
        <ele>508</ele>
        <time>2016-01-01T10:14:45.000Z</time>
      </trkpt>
      <trkpt lat="47.55181" lon="6.66232">
        <ele>508</ele>
        <time>2016-01-01T10:14:46.000Z</time>
      </trkpt>
      <trkpt lat="47.55178" lon="6.66229">
        <ele>508</ele>
        <time>2016-01-01T10:14:47.000Z</time>
      </trkpt>
      <trkpt lat="47.55175" lon="6.66227">
        <ele>508</ele>
        <time>2016-01-01T10:14:48.000Z</time>
      </trkpt>
      <trkpt lat="47.55172" lon="6.66225">
        <ele>508</ele>
        <time>2016-01-01T10:14:49.000Z</time>
      </trkpt>
      <trkpt lat="47.55169" lon="6.66223">
        <ele>508</ele>
        <time>2016-01-01T10:14:50.000Z</time>
      </trkpt>
      <trkpt lat="47.55167" lon="6.66221">
        <ele>507</ele>
        <time>2016-01-01T10:14:51.000Z</time>
      </trkpt>
      <trkpt lat="47.55164" lon="6.6622">
        <ele>512</ele>
        <time>2016-01-01T10:14:52.000Z</time>
      </trkpt>
      <trkpt lat="47.55161" lon="6.66218">
        <ele>512</ele>
        <time>2016-01-01T10:14:53.000Z</time>
      </trkpt>
      <trkpt lat="47.55158" lon="6.66216">
        <ele>512</ele>
        <time>2016-01-01T10:14:54.000Z</time>
      </trkpt>
      <trkpt lat="47.55155" lon="6.66213">
        <ele>512</ele>
        <time>2016-01-01T10:14:55.000Z</time>
      </trkpt>
      <trkpt lat="47.55152" lon="6.6621">
        <ele>512</ele>
        <time>2016-01-01T10:14:56.000Z</time>
      </trkpt>
      <trkpt lat="47.55149" lon="6.66209">
        <ele>512</ele>
        <time>2016-01-01T10:14:57.000Z</time>
      </trkpt>
      <trkpt lat="47.55146" lon="6.6621">
        <ele>512</ele>
        <time>2016-01-01T10:14:58.000Z</time>
      </trkpt>
      <trkpt lat="47.55143" lon="6.6621">
        <ele>512</ele>
        <time>2016-01-01T10:14:59.000Z</time>
      </trkpt>
      <trkpt lat="47.5514" lon="6.66212">
        <ele>512</ele>
        <time>2016-01-01T10:15:00.000Z</time>
      </trkpt>
      <trkpt lat="47.55137" lon="6.66212">
        <ele>512</ele>
        <time>2016-01-01T10:15:01.000Z</time>
      </trkpt>
      <trkpt lat="47.55134" lon="6.66211">
        <ele>512</ele>
        <time>2016-01-01T10:15:02.000Z</time>
      </trkpt>
      <trkpt lat="47.5513" lon="6.66209">
        <ele>512</ele>
        <time>2016-01-01T10:15:04.000Z</time>
      </trkpt>
      <trkpt lat="47.55128" lon="6.66207">
        <ele>512</ele>
        <time>2016-01-01T10:15:05.000Z</time>
      </trkpt>
      <trkpt lat="47.55126" lon="6.66206">
        <ele>512</ele>
        <time>2016-01-01T10:15:06.000Z</time>
      </trkpt>
      <trkpt lat="47.55123" lon="6.66204">
        <ele>512</ele>
        <time>2016-01-01T10:15:07.000Z</time>
      </trkpt>
      <trkpt lat="47.5512" lon="6.66203">
        <ele>512</ele>
        <time>2016-01-01T10:15:08.000Z</time>
      </trkpt>
      <trkpt lat="47.55116" lon="6.66201">
        <ele>512</ele>
        <time>2016-01-01T10:15:09.000Z</time>
      </trkpt>
      <trkpt lat="47.55113" lon="6.66199">
        <ele>512</ele>
        <time>2016-01-01T10:15:10.000Z</time>
      </trkpt>
      <trkpt lat="47.5511" lon="6.66198">
        <ele>512</ele>
        <time>2016-01-01T10:15:11.000Z</time>
      </trkpt>
      <trkpt lat="47.55107" lon="6.66195">
        <ele>512</ele>
        <time>2016-01-01T10:15:12.000Z</time>
      </trkpt>
      <trkpt lat="47.55104" lon="6.66193">
        <ele>513</ele>
        <time>2016-01-01T10:15:13.000Z</time>
      </trkpt>
      <trkpt lat="47.551" lon="6.66191">
        <ele>513</ele>
        <time>2016-01-01T10:15:14.000Z</time>
      </trkpt>
      <trkpt lat="47.55096" lon="6.66189">
        <ele>513</ele>
        <time>2016-01-01T10:15:15.000Z</time>
      </trkpt>
      <trkpt lat="47.55092" lon="6.66187">
        <ele>513</ele>
        <time>2016-01-01T10:15:16.000Z</time>
      </trkpt>
      <trkpt lat="47.55089" lon="6.66185">
        <ele>513</ele>
        <time>2016-01-01T10:15:17.000Z</time>
      </trkpt>
      <trkpt lat="47.55085" lon="6.66184">
        <ele>513</ele>
        <time>2016-01-01T10:15:18.000Z</time>
      </trkpt>
      <trkpt lat="47.55081" lon="6.66183">
        <ele>515</ele>
        <time>2016-01-01T10:15:19.000Z</time>
      </trkpt>
      <trkpt lat="47.55077" lon="6.66181">
        <ele>515</ele>
        <time>2016-01-01T10:15:20.000Z</time>
      </trkpt>
      <trkpt lat="47.55073" lon="6.66179">
        <ele>515</ele>
        <time>2016-01-01T10:15:21.000Z</time>
      </trkpt>
      <trkpt lat="47.55069" lon="6.66177">
        <ele>515</ele>
        <time>2016-01-01T10:15:22.000Z</time>
      </trkpt>
      <trkpt lat="47.55064" lon="6.66174">
        <ele>515</ele>
        <time>2016-01-01T10:15:23.000Z</time>
      </trkpt>
      <trkpt lat="47.5506" lon="6.66171">
        <ele>515</ele>
        <time>2016-01-01T10:15:24.000Z</time>
      </trkpt>
      <trkpt lat="47.55055" lon="6.66168">
        <ele>515</ele>
        <time>2016-01-01T10:15:25.000Z</time>
      </trkpt>
      <trkpt lat="47.55051" lon="6.66165">
        <ele>511</ele>
        <time>2016-01-01T10:15:26.000Z</time>
      </trkpt>
      <trkpt lat="47.55047" lon="6.66163">
        <ele>511</ele>
        <time>2016-01-01T10:15:27.000Z</time>
      </trkpt>
      <trkpt lat="47.55043" lon="6.66162">
        <ele>511</ele>
        <time>2016-01-01T10:15:28.000Z</time>
      </trkpt>
      <trkpt lat="47.55039" lon="6.66163">
        <ele>511</ele>
        <time>2016-01-01T10:15:29.000Z</time>
      </trkpt>
      <trkpt lat="47.55034" lon="6.66165">
        <ele>511</ele>
        <time>2016-01-01T10:15:30.000Z</time>
      </trkpt>
      <trkpt lat="47.55029" lon="6.66168">
        <ele>515</ele>
        <time>2016-01-01T10:15:31.000Z</time>
      </trkpt>
      <trkpt lat="47.55025" lon="6.66169">
        <ele>515</ele>
        <time>2016-01-01T10:15:32.000Z</time>
      </trkpt>
      <trkpt lat="47.5502" lon="6.66169">
        <ele>515</ele>
        <time>2016-01-01T10:15:33.000Z</time>
      </trkpt>
      <trkpt lat="47.55016" lon="6.66168">
        <ele>515</ele>
        <time>2016-01-01T10:15:34.000Z</time>
      </trkpt>
      <trkpt lat="47.55012" lon="6.66165">
        <ele>513</ele>
        <time>2016-01-01T10:15:35.000Z</time>
      </trkpt>
      <trkpt lat="47.55008" lon="6.66161">
        <ele>513</ele>
        <time>2016-01-01T10:15:36.000Z</time>
      </trkpt>
      <trkpt lat="47.55005" lon="6.66157">
        <ele>513</ele>
        <time>2016-01-01T10:15:37.000Z</time>
      </trkpt>
      <trkpt lat="47.55001" lon="6.66154">
        <ele>513</ele>
        <time>2016-01-01T10:15:38.000Z</time>
      </trkpt>
      <trkpt lat="47.54998" lon="6.66149">
        <ele>514</ele>
        <time>2016-01-01T10:15:39.000Z</time>
      </trkpt>
      <trkpt lat="47.54994" lon="6.66145">
        <ele>514</ele>
        <time>2016-01-01T10:15:40.000Z</time>
      </trkpt>
      <trkpt lat="47.54978" lon="6.66132">
        <ele>513</ele>
        <time>2016-01-01T10:15:41.000Z</time>
      </trkpt>
      <trkpt lat="47.54973" lon="6.66128">
        <ele>513</ele>
        <time>2016-01-01T10:15:42.000Z</time>
      </trkpt>
      <trkpt lat="47.54969" lon="6.66123">
        <ele>513</ele>
        <time>2016-01-01T10:15:43.000Z</time>
      </trkpt>
      <trkpt lat="47.54966" lon="6.66118">
        <ele>513</ele>
        <time>2016-01-01T10:15:44.000Z</time>
      </trkpt>
      <trkpt lat="47.54962" lon="6.66114">
        <ele>513</ele>
        <time>2016-01-01T10:15:45.000Z</time>
      </trkpt>
      <trkpt lat="47.54959" lon="6.66109">
        <ele>513</ele>
        <time>2016-01-01T10:15:46.000Z</time>
      </trkpt>
      <trkpt lat="47.54955" lon="6.66104">
        <ele>513</ele>
        <time>2016-01-01T10:15:47.000Z</time>
      </trkpt>
      <trkpt lat="47.54953" lon="6.66103">
        <ele>513</ele>
        <time>2016-01-01T10:15:48.000Z</time>
      </trkpt>
      <trkpt lat="47.54951" lon="6.661">
        <ele>513</ele>
        <time>2016-01-01T10:15:49.000Z</time>
      </trkpt>
      <trkpt lat="47.54948" lon="6.66099">
        <ele>513</ele>
        <time>2016-01-01T10:15:50.000Z</time>
      </trkpt>
      <trkpt lat="47.54945" lon="6.66097">
        <ele>513</ele>
        <time>2016-01-01T10:15:51.000Z</time>
      </trkpt>
      <trkpt lat="47.54942" lon="6.66093">
        <ele>513</ele>
        <time>2016-01-01T10:15:54.000Z</time>
      </trkpt>
      <trkpt lat="47.54942" lon="6.66091">
        <ele>513</ele>
        <time>2016-01-01T10:15:55.000Z</time>
      </trkpt>
      <trkpt lat="47.5494" lon="6.66086">
        <ele>513</ele>
        <time>2016-01-01T10:15:57.000Z</time>
      </trkpt>
      <trkpt lat="47.54939" lon="6.66082">
        <ele>509</ele>
        <time>2016-01-01T10:15:58.000Z</time>
      </trkpt>
      <trkpt lat="47.54937" lon="6.66078">
        <ele>510</ele>
        <time>2016-01-01T10:15:59.000Z</time>
      </trkpt>
      <trkpt lat="47.54934" lon="6.66074">
        <ele>510</ele>
        <time>2016-01-01T10:16:00.000Z</time>
      </trkpt>
      <trkpt lat="47.54931" lon="6.66071">
        <ele>510</ele>
        <time>2016-01-01T10:16:01.000Z</time>
      </trkpt>
      <trkpt lat="47.54927" lon="6.66067">
        <ele>510</ele>
        <time>2016-01-01T10:16:02.000Z</time>
      </trkpt>
      <trkpt lat="47.54923" lon="6.66063">
        <ele>509</ele>
        <time>2016-01-01T10:16:03.000Z</time>
      </trkpt>
      <trkpt lat="47.54918" lon="6.6606">
        <ele>509</ele>
        <time>2016-01-01T10:16:04.000Z</time>
      </trkpt>
      <trkpt lat="47.54915" lon="6.66056">
        <ele>512</ele>
        <time>2016-01-01T10:16:05.000Z</time>
      </trkpt>
      <trkpt lat="47.54911" lon="6.66054">
        <ele>512</ele>
        <time>2016-01-01T10:16:06.000Z</time>
      </trkpt>
      <trkpt lat="47.54908" lon="6.66052">
        <ele>512</ele>
        <time>2016-01-01T10:16:07.000Z</time>
      </trkpt>
      <trkpt lat="47.54904" lon="6.6605">
        <ele>512</ele>
        <time>2016-01-01T10:16:08.000Z</time>
      </trkpt>
      <trkpt lat="47.54899" lon="6.66047">
        <ele>512</ele>
        <time>2016-01-01T10:16:09.000Z</time>
      </trkpt>
      <trkpt lat="47.54895" lon="6.66045">
        <ele>512</ele>
        <time>2016-01-01T10:16:10.000Z</time>
      </trkpt>
      <trkpt lat="47.5489" lon="6.66041">
        <ele>512</ele>
        <time>2016-01-01T10:16:11.000Z</time>
      </trkpt>
      <trkpt lat="47.54884" lon="6.66038">
        <ele>512</ele>
        <time>2016-01-01T10:16:12.000Z</time>
      </trkpt>
      <trkpt lat="47.54872" lon="6.66032">
        <ele>512</ele>
        <time>2016-01-01T10:16:13.000Z</time>
      </trkpt>
      <trkpt lat="47.54867" lon="6.66027">
        <ele>512</ele>
        <time>2016-01-01T10:16:14.000Z</time>
      </trkpt>
      <trkpt lat="47.54862" lon="6.66022">
        <ele>512</ele>
        <time>2016-01-01T10:16:15.000Z</time>
      </trkpt>
      <trkpt lat="47.54858" lon="6.6602">
        <ele>512</ele>
        <time>2016-01-01T10:16:16.000Z</time>
      </trkpt>
      <trkpt lat="47.54853" lon="6.66017">
        <ele>512</ele>
        <time>2016-01-01T10:16:17.000Z</time>
      </trkpt>
      <trkpt lat="47.54849" lon="6.66015">
        <ele>512</ele>
        <time>2016-01-01T10:16:18.000Z</time>
      </trkpt>
      <trkpt lat="47.54846" lon="6.66015">
        <ele>513</ele>
        <time>2016-01-01T10:16:19.000Z</time>
      </trkpt>
      <trkpt lat="47.54844" lon="6.66015">
        <ele>513</ele>
        <time>2016-01-01T10:16:20.000Z</time>
      </trkpt>
      <trkpt lat="47.54841" lon="6.66013">
        <ele>513</ele>
        <time>2016-01-01T10:16:21.000Z</time>
      </trkpt>
      <trkpt lat="47.54837" lon="6.6601">
        <ele>513</ele>
        <time>2016-01-01T10:16:22.000Z</time>
      </trkpt>
      <trkpt lat="47.54834" lon="6.66008">
        <ele>513</ele>
        <time>2016-01-01T10:16:23.000Z</time>
      </trkpt>
      <trkpt lat="47.54831" lon="6.66007">
        <ele>513</ele>
        <time>2016-01-01T10:16:24.000Z</time>
      </trkpt>
      <trkpt lat="47.54828" lon="6.66003">
        <ele>513</ele>
        <time>2016-01-01T10:16:25.000Z</time>
      </trkpt>
      <trkpt lat="47.54825" lon="6.66">
        <ele>513</ele>
        <time>2016-01-01T10:16:26.000Z</time>
      </trkpt>
      <trkpt lat="47.54821" lon="6.65996">
        <ele>512</ele>
        <time>2016-01-01T10:16:27.000Z</time>
      </trkpt>
      <trkpt lat="47.54817" lon="6.65993">
        <ele>512</ele>
        <time>2016-01-01T10:16:28.000Z</time>
      </trkpt>
      <trkpt lat="47.54812" lon="6.6599">
        <ele>511</ele>
        <time>2016-01-01T10:16:29.000Z</time>
      </trkpt>
      <trkpt lat="47.54807" lon="6.65988">
        <ele>511</ele>
        <time>2016-01-01T10:16:30.000Z</time>
      </trkpt>
      <trkpt lat="47.54802" lon="6.65986">
        <ele>511</ele>
        <time>2016-01-01T10:16:31.000Z</time>
      </trkpt>
      <trkpt lat="47.54792" lon="6.6598">
        <ele>511</ele>
        <time>2016-01-01T10:16:32.000Z</time>
      </trkpt>
      <trkpt lat="47.54786" lon="6.65978">
        <ele>511</ele>
        <time>2016-01-01T10:16:33.000Z</time>
      </trkpt>
      <trkpt lat="47.54782" lon="6.65976">
        <ele>511</ele>
        <time>2016-01-01T10:16:34.000Z</time>
      </trkpt>
      <trkpt lat="47.54777" lon="6.65973">
        <ele>511</ele>
        <time>2016-01-01T10:16:35.000Z</time>
      </trkpt>
      <trkpt lat="47.54772" lon="6.6597">
        <ele>511</ele>
        <time>2016-01-01T10:16:36.000Z</time>
      </trkpt>
      <trkpt lat="47.54768" lon="6.65967">
        <ele>511</ele>
        <time>2016-01-01T10:16:37.000Z</time>
      </trkpt>
      <trkpt lat="47.54763" lon="6.65964">
        <ele>511</ele>
        <time>2016-01-01T10:16:38.000Z</time>
      </trkpt>
      <trkpt lat="47.54758" lon="6.65962">
        <ele>511</ele>
        <time>2016-01-01T10:16:39.000Z</time>
      </trkpt>
      <trkpt lat="47.54754" lon="6.65959">
        <ele>511</ele>
        <time>2016-01-01T10:16:40.000Z</time>
      </trkpt>
      <trkpt lat="47.5475" lon="6.65958">
        <ele>512</ele>
        <time>2016-01-01T10:16:41.000Z</time>
      </trkpt>
      <trkpt lat="47.54745" lon="6.65958">
        <ele>512</ele>
        <time>2016-01-01T10:16:42.000Z</time>
      </trkpt>
      <trkpt lat="47.54741" lon="6.65958">
        <ele>512</ele>
        <time>2016-01-01T10:16:43.000Z</time>
      </trkpt>
      <trkpt lat="47.54736" lon="6.65958">
        <ele>512</ele>
        <time>2016-01-01T10:16:44.000Z</time>
      </trkpt>
      <trkpt lat="47.54732" lon="6.65958">
        <ele>512</ele>
        <time>2016-01-01T10:16:45.000Z</time>
      </trkpt>
      <trkpt lat="47.54728" lon="6.65957">
        <ele>513</ele>
        <time>2016-01-01T10:16:46.000Z</time>
      </trkpt>
      <trkpt lat="47.54726" lon="6.65955">
        <ele>513</ele>
        <time>2016-01-01T10:16:47.000Z</time>
      </trkpt>
      <trkpt lat="47.54723" lon="6.6595">
        <ele>512</ele>
        <time>2016-01-01T10:16:48.000Z</time>
      </trkpt>
      <trkpt lat="47.5472" lon="6.65945">
        <ele>512</ele>
        <time>2016-01-01T10:16:49.000Z</time>
      </trkpt>
      <trkpt lat="47.54716" lon="6.65943">
        <ele>513</ele>
        <time>2016-01-01T10:16:50.000Z</time>
      </trkpt>
      <trkpt lat="47.54713" lon="6.6594">
        <ele>513</ele>
        <time>2016-01-01T10:16:51.000Z</time>
      </trkpt>
      <trkpt lat="47.5471" lon="6.65935">
        <ele>513</ele>
        <time>2016-01-01T10:16:52.000Z</time>
      </trkpt>
      <trkpt lat="47.54707" lon="6.65932">
        <ele>513</ele>
        <time>2016-01-01T10:16:53.000Z</time>
      </trkpt>
      <trkpt lat="47.54703" lon="6.65929">
        <ele>513</ele>
        <time>2016-01-01T10:16:54.000Z</time>
      </trkpt>
      <trkpt lat="47.54699" lon="6.65927">
        <ele>513</ele>
        <time>2016-01-01T10:16:55.000Z</time>
      </trkpt>
      <trkpt lat="47.54696" lon="6.65924">
        <ele>513</ele>
        <time>2016-01-01T10:16:56.000Z</time>
      </trkpt>
      <trkpt lat="47.54692" lon="6.65923">
        <ele>513</ele>
        <time>2016-01-01T10:16:57.000Z</time>
      </trkpt>
      <trkpt lat="47.54689" lon="6.65922">
        <ele>513</ele>
        <time>2016-01-01T10:16:58.000Z</time>
      </trkpt>
      <trkpt lat="47.54686" lon="6.65921">
        <ele>513</ele>
        <time>2016-01-01T10:16:59.000Z</time>
      </trkpt>
      <trkpt lat="47.54683" lon="6.6592">
        <ele>513</ele>
        <time>2016-01-01T10:17:00.000Z</time>
      </trkpt>
      <trkpt lat="47.54679" lon="6.65918">
        <ele>514</ele>
        <time>2016-01-01T10:17:01.000Z</time>
      </trkpt>
      <trkpt lat="47.54676" lon="6.65917">
        <ele>514</ele>
        <time>2016-01-01T10:17:02.000Z</time>
      </trkpt>
      <trkpt lat="47.54672" lon="6.65916">
        <ele>513</ele>
        <time>2016-01-01T10:17:03.000Z</time>
      </trkpt>
      <trkpt lat="47.54668" lon="6.65915">
        <ele>513</ele>
        <time>2016-01-01T10:17:04.000Z</time>
      </trkpt>
      <trkpt lat="47.54664" lon="6.65914">
        <ele>514</ele>
        <time>2016-01-01T10:17:05.000Z</time>
      </trkpt>
      <trkpt lat="47.5466" lon="6.65913">
        <ele>513</ele>
        <time>2016-01-01T10:17:06.000Z</time>
      </trkpt>
      <trkpt lat="47.54656" lon="6.65912">
        <ele>513</ele>
        <time>2016-01-01T10:17:07.000Z</time>
      </trkpt>
      <trkpt lat="47.54652" lon="6.65911">
        <ele>513</ele>
        <time>2016-01-01T10:17:08.000Z</time>
      </trkpt>
      <trkpt lat="47.54648" lon="6.65909">
        <ele>512</ele>
        <time>2016-01-01T10:17:09.000Z</time>
      </trkpt>
      <trkpt lat="47.54644" lon="6.65908">
        <ele>512</ele>
        <time>2016-01-01T10:17:10.000Z</time>
      </trkpt>
      <trkpt lat="47.54639" lon="6.65905">
        <ele>512</ele>
        <time>2016-01-01T10:17:11.000Z</time>
      </trkpt>
      <trkpt lat="47.54634" lon="6.65903">
        <ele>512</ele>
        <time>2016-01-01T10:17:12.000Z</time>
      </trkpt>
      <trkpt lat="47.54629" lon="6.65901">
        <ele>512</ele>
        <time>2016-01-01T10:17:13.000Z</time>
      </trkpt>
      <trkpt lat="47.54624" lon="6.65899">
        <ele>512</ele>
        <time>2016-01-01T10:17:14.000Z</time>
      </trkpt>
      <trkpt lat="47.54619" lon="6.65896">
        <ele>512</ele>
        <time>2016-01-01T10:17:15.000Z</time>
      </trkpt>
      <trkpt lat="47.54614" lon="6.65894">
        <ele>512</ele>
        <time>2016-01-01T10:17:16.000Z</time>
      </trkpt>
      <trkpt lat="47.54609" lon="6.65893">
        <ele>512</ele>
        <time>2016-01-01T10:17:17.000Z</time>
      </trkpt>
      <trkpt lat="47.54604" lon="6.65891">
        <ele>512</ele>
        <time>2016-01-01T10:17:18.000Z</time>
      </trkpt>
      <trkpt lat="47.546" lon="6.65889">
        <ele>512</ele>
        <time>2016-01-01T10:17:19.000Z</time>
      </trkpt>
      <trkpt lat="47.54596" lon="6.65887">
        <ele>512</ele>
        <time>2016-01-01T10:17:20.000Z</time>
      </trkpt>
      <trkpt lat="47.54593" lon="6.65884">
        <ele>511</ele>
        <time>2016-01-01T10:17:21.000Z</time>
      </trkpt>
      <trkpt lat="47.5459" lon="6.6588">
        <ele>511</ele>
        <time>2016-01-01T10:17:22.000Z</time>
      </trkpt>
      <trkpt lat="47.54586" lon="6.65876">
        <ele>511</ele>
        <time>2016-01-01T10:17:23.000Z</time>
      </trkpt>
      <trkpt lat="47.54582" lon="6.65871">
        <ele>512</ele>
        <time>2016-01-01T10:17:24.000Z</time>
      </trkpt>
      <trkpt lat="47.54578" lon="6.65867">
        <ele>512</ele>
        <time>2016-01-01T10:17:25.000Z</time>
      </trkpt>
      <trkpt lat="47.54575" lon="6.65862">
        <ele>512</ele>
        <time>2016-01-01T10:17:26.000Z</time>
      </trkpt>
      <trkpt lat="47.54571" lon="6.65857">
        <ele>512</ele>
        <time>2016-01-01T10:17:27.000Z</time>
      </trkpt>
      <trkpt lat="47.54564" lon="6.65849">
        <ele>512</ele>
        <time>2016-01-01T10:17:28.000Z</time>
      </trkpt>
      <trkpt lat="47.54559" lon="6.65845">
        <ele>512</ele>
        <time>2016-01-01T10:17:29.000Z</time>
      </trkpt>
      <trkpt lat="47.54554" lon="6.6584">
        <ele>512</ele>
        <time>2016-01-01T10:17:30.000Z</time>
      </trkpt>
      <trkpt lat="47.54549" lon="6.65837">
        <ele>512</ele>
        <time>2016-01-01T10:17:31.000Z</time>
      </trkpt>
      <trkpt lat="47.54546" lon="6.65835">
        <ele>512</ele>
        <time>2016-01-01T10:17:32.000Z</time>
      </trkpt>
      <trkpt lat="47.54542" lon="6.65831">
        <ele>511</ele>
        <time>2016-01-01T10:17:33.000Z</time>
      </trkpt>
      <trkpt lat="47.54539" lon="6.65824">
        <ele>511</ele>
        <time>2016-01-01T10:17:34.000Z</time>
      </trkpt>
      <trkpt lat="47.54534" lon="6.65821">
        <ele>511</ele>
        <time>2016-01-01T10:17:35.000Z</time>
      </trkpt>
      <trkpt lat="47.54526" lon="6.65818">
        <ele>511</ele>
        <time>2016-01-01T10:17:36.000Z</time>
      </trkpt>
      <trkpt lat="47.54522" lon="6.65812">
        <ele>511</ele>
        <time>2016-01-01T10:17:37.000Z</time>
      </trkpt>
      <trkpt lat="47.54518" lon="6.65809">
        <ele>511</ele>
        <time>2016-01-01T10:17:38.000Z</time>
      </trkpt>
      <trkpt lat="47.54515" lon="6.65803">
        <ele>511</ele>
        <time>2016-01-01T10:17:39.000Z</time>
      </trkpt>
      <trkpt lat="47.54511" lon="6.65801">
        <ele>511</ele>
        <time>2016-01-01T10:17:40.000Z</time>
      </trkpt>
      <trkpt lat="47.54508" lon="6.65798">
        <ele>511</ele>
        <time>2016-01-01T10:17:41.000Z</time>
      </trkpt>
      <trkpt lat="47.54505" lon="6.65794">
        <ele>511</ele>
        <time>2016-01-01T10:17:42.000Z</time>
      </trkpt>
      <trkpt lat="47.54501" lon="6.65791">
        <ele>511</ele>
        <time>2016-01-01T10:17:43.000Z</time>
      </trkpt>
      <trkpt lat="47.54498" lon="6.65786">
        <ele>513</ele>
        <time>2016-01-01T10:17:44.000Z</time>
      </trkpt>
      <trkpt lat="47.54495" lon="6.65781">
        <ele>513</ele>
        <time>2016-01-01T10:17:45.000Z</time>
      </trkpt>
      <trkpt lat="47.54492" lon="6.65779">
        <ele>513</ele>
        <time>2016-01-01T10:17:46.000Z</time>
      </trkpt>
      <trkpt lat="47.54488" lon="6.65775">
        <ele>513</ele>
        <time>2016-01-01T10:17:47.000Z</time>
      </trkpt>
      <trkpt lat="47.54485" lon="6.65772">
        <ele>513</ele>
        <time>2016-01-01T10:17:48.000Z</time>
      </trkpt>
      <trkpt lat="47.54482" lon="6.65769">
        <ele>513</ele>
        <time>2016-01-01T10:17:49.000Z</time>
      </trkpt>
      <trkpt lat="47.54479" lon="6.65766">
        <ele>513</ele>
        <time>2016-01-01T10:17:50.000Z</time>
      </trkpt>
      <trkpt lat="47.54476" lon="6.65763">
        <ele>513</ele>
        <time>2016-01-01T10:17:51.000Z</time>
      </trkpt>
      <trkpt lat="47.54473" lon="6.6576">
        <ele>513</ele>
        <time>2016-01-01T10:17:52.000Z</time>
      </trkpt>
      <trkpt lat="47.5447" lon="6.65756">
        <ele>513</ele>
        <time>2016-01-01T10:17:53.000Z</time>
      </trkpt>
      <trkpt lat="47.54466" lon="6.65752">
        <ele>513</ele>
        <time>2016-01-01T10:17:54.000Z</time>
      </trkpt>
      <trkpt lat="47.54462" lon="6.65746">
        <ele>511</ele>
        <time>2016-01-01T10:17:55.000Z</time>
      </trkpt>
      <trkpt lat="47.54458" lon="6.65741">
        <ele>511</ele>
        <time>2016-01-01T10:17:56.000Z</time>
      </trkpt>
      <trkpt lat="47.54454" lon="6.65737">
        <ele>511</ele>
        <time>2016-01-01T10:17:57.000Z</time>
      </trkpt>
      <trkpt lat="47.54451" lon="6.65732">
        <ele>511</ele>
        <time>2016-01-01T10:17:58.000Z</time>
      </trkpt>
      <trkpt lat="47.54447" lon="6.65728">
        <ele>511</ele>
        <time>2016-01-01T10:17:59.000Z</time>
      </trkpt>
      <trkpt lat="47.54444" lon="6.65725">
        <ele>511</ele>
        <time>2016-01-01T10:18:00.000Z</time>
      </trkpt>
      <trkpt lat="47.5444" lon="6.65722">
        <ele>511</ele>
        <time>2016-01-01T10:18:01.000Z</time>
      </trkpt>
      <trkpt lat="47.54437" lon="6.65718">
        <ele>511</ele>
        <time>2016-01-01T10:18:02.000Z</time>
      </trkpt>
      <trkpt lat="47.54427" lon="6.65712">
        <ele>511</ele>
        <time>2016-01-01T10:18:03.000Z</time>
      </trkpt>
      <trkpt lat="47.54422" lon="6.65708">
        <ele>511</ele>
        <time>2016-01-01T10:18:04.000Z</time>
      </trkpt>
      <trkpt lat="47.54417" lon="6.65705">
        <ele>511</ele>
        <time>2016-01-01T10:18:05.000Z</time>
      </trkpt>
      <trkpt lat="47.54413" lon="6.65701">
        <ele>512</ele>
        <time>2016-01-01T10:18:06.000Z</time>
      </trkpt>
      <trkpt lat="47.54407" lon="6.65695">
        <ele>512</ele>
        <time>2016-01-01T10:18:07.000Z</time>
      </trkpt>
      <trkpt lat="47.54401" lon="6.65688">
        <ele>512</ele>
        <time>2016-01-01T10:18:08.000Z</time>
      </trkpt>
      <trkpt lat="47.54398" lon="6.65682">
        <ele>512</ele>
        <time>2016-01-01T10:18:09.000Z</time>
      </trkpt>
      <trkpt lat="47.54395" lon="6.65677">
        <ele>512</ele>
        <time>2016-01-01T10:18:10.000Z</time>
      </trkpt>
      <trkpt lat="47.5439" lon="6.65671">
        <ele>512</ele>
        <time>2016-01-01T10:18:11.000Z</time>
      </trkpt>
      <trkpt lat="47.54386" lon="6.65666">
        <ele>510</ele>
        <time>2016-01-01T10:18:12.000Z</time>
      </trkpt>
      <trkpt lat="47.54381" lon="6.65661">
        <ele>510</ele>
        <time>2016-01-01T10:18:13.000Z</time>
      </trkpt>
      <trkpt lat="47.54377" lon="6.65657">
        <ele>510</ele>
        <time>2016-01-01T10:18:14.000Z</time>
      </trkpt>
      <trkpt lat="47.54373" lon="6.65653">
        <ele>510</ele>
        <time>2016-01-01T10:18:15.000Z</time>
      </trkpt>
      <trkpt lat="47.54369" lon="6.65647">
        <ele>510</ele>
        <time>2016-01-01T10:18:16.000Z</time>
      </trkpt>
      <trkpt lat="47.54364" lon="6.65642">
        <ele>510</ele>
        <time>2016-01-01T10:18:17.000Z</time>
      </trkpt>
      <trkpt lat="47.5436" lon="6.65637">
        <ele>510</ele>
        <time>2016-01-01T10:18:18.000Z</time>
      </trkpt>
      <trkpt lat="47.54356" lon="6.65631">
        <ele>510</ele>
        <time>2016-01-01T10:18:19.000Z</time>
      </trkpt>
      <trkpt lat="47.54352" lon="6.65628">
        <ele>510</ele>
        <time>2016-01-01T10:18:20.000Z</time>
      </trkpt>
      <trkpt lat="47.54347" lon="6.65624">
        <ele>509</ele>
        <time>2016-01-01T10:18:21.000Z</time>
      </trkpt>
      <trkpt lat="47.54342" lon="6.65621">
        <ele>509</ele>
        <time>2016-01-01T10:18:22.000Z</time>
      </trkpt>
      <trkpt lat="47.54337" lon="6.65616">
        <ele>509</ele>
        <time>2016-01-01T10:18:23.000Z</time>
      </trkpt>
      <trkpt lat="47.54331" lon="6.65609">
        <ele>510</ele>
        <time>2016-01-01T10:18:24.000Z</time>
      </trkpt>
      <trkpt lat="47.54327" lon="6.65603">
        <ele>509</ele>
        <time>2016-01-01T10:18:25.000Z</time>
      </trkpt>
      <trkpt lat="47.54322" lon="6.65596">
        <ele>509</ele>
        <time>2016-01-01T10:18:26.000Z</time>
      </trkpt>
      <trkpt lat="47.54316" lon="6.65591">
        <ele>509</ele>
        <time>2016-01-01T10:18:27.000Z</time>
      </trkpt>
      <trkpt lat="47.54311" lon="6.65586">
        <ele>509</ele>
        <time>2016-01-01T10:18:28.000Z</time>
      </trkpt>
      <trkpt lat="47.54306" lon="6.65581">
        <ele>506</ele>
        <time>2016-01-01T10:18:29.000Z</time>
      </trkpt>
      <trkpt lat="47.54301" lon="6.65575">
        <ele>506</ele>
        <time>2016-01-01T10:18:30.000Z</time>
      </trkpt>
      <trkpt lat="47.54296" lon="6.65568">
        <ele>506</ele>
        <time>2016-01-01T10:18:31.000Z</time>
      </trkpt>
      <trkpt lat="47.54293" lon="6.65564">
        <ele>506</ele>
        <time>2016-01-01T10:18:32.000Z</time>
      </trkpt>
      <trkpt lat="47.54287" lon="6.65564">
        <ele>506</ele>
        <time>2016-01-01T10:18:33.000Z</time>
      </trkpt>
      <trkpt lat="47.54282" lon="6.6556">
        <ele>506</ele>
        <time>2016-01-01T10:18:34.000Z</time>
      </trkpt>
      <trkpt lat="47.5428" lon="6.65557">
        <ele>506</ele>
        <time>2016-01-01T10:18:35.000Z</time>
      </trkpt>
      <trkpt lat="47.54277" lon="6.65553">
        <ele>506</ele>
        <time>2016-01-01T10:18:36.000Z</time>
      </trkpt>
      <trkpt lat="47.54273" lon="6.65549">
        <ele>506</ele>
        <time>2016-01-01T10:18:37.000Z</time>
      </trkpt>
      <trkpt lat="47.54271" lon="6.65545">
        <ele>506</ele>
        <time>2016-01-01T10:18:38.000Z</time>
      </trkpt>
      <trkpt lat="47.54268" lon="6.65543">
        <ele>506</ele>
        <time>2016-01-01T10:18:39.000Z</time>
      </trkpt>
      <trkpt lat="47.54264" lon="6.65538">
        <ele>506</ele>
        <time>2016-01-01T10:18:40.000Z</time>
      </trkpt>
      <trkpt lat="47.54259" lon="6.65533">
        <ele>505</ele>
        <time>2016-01-01T10:18:41.000Z</time>
      </trkpt>
      <trkpt lat="47.54254" lon="6.6553">
        <ele>505</ele>
        <time>2016-01-01T10:18:42.000Z</time>
      </trkpt>
      <trkpt lat="47.54249" lon="6.65526">
        <ele>506</ele>
        <time>2016-01-01T10:18:43.000Z</time>
      </trkpt>
      <trkpt lat="47.54245" lon="6.65522">
        <ele>506</ele>
        <time>2016-01-01T10:18:44.000Z</time>
      </trkpt>
      <trkpt lat="47.54243" lon="6.65516">
        <ele>505</ele>
        <time>2016-01-01T10:18:45.000Z</time>
      </trkpt>
      <trkpt lat="47.5424" lon="6.65513">
        <ele>505</ele>
        <time>2016-01-01T10:18:46.000Z</time>
      </trkpt>
      <trkpt lat="47.54236" lon="6.6551">
        <ele>505</ele>
        <time>2016-01-01T10:18:47.000Z</time>
      </trkpt>
      <trkpt lat="47.54232" lon="6.65505">
        <ele>505</ele>
        <time>2016-01-01T10:18:48.000Z</time>
      </trkpt>
      <trkpt lat="47.54229" lon="6.65501">
        <ele>505</ele>
        <time>2016-01-01T10:18:49.000Z</time>
      </trkpt>
      <trkpt lat="47.54225" lon="6.65498">
        <ele>502</ele>
        <time>2016-01-01T10:18:50.000Z</time>
      </trkpt>
      <trkpt lat="47.54221" lon="6.65493">
        <ele>502</ele>
        <time>2016-01-01T10:18:51.000Z</time>
      </trkpt>
      <trkpt lat="47.54218" lon="6.6549">
        <ele>502</ele>
        <time>2016-01-01T10:18:52.000Z</time>
      </trkpt>
      <trkpt lat="47.54215" lon="6.65486">
        <ele>502</ele>
        <time>2016-01-01T10:18:53.000Z</time>
      </trkpt>
      <trkpt lat="47.54212" lon="6.65483">
        <ele>502</ele>
        <time>2016-01-01T10:18:54.000Z</time>
      </trkpt>
      <trkpt lat="47.54209" lon="6.6548">
        <ele>502</ele>
        <time>2016-01-01T10:18:55.000Z</time>
      </trkpt>
      <trkpt lat="47.54205" lon="6.65476">
        <ele>502</ele>
        <time>2016-01-01T10:18:56.000Z</time>
      </trkpt>
      <trkpt lat="47.54202" lon="6.65472">
        <ele>502</ele>
        <time>2016-01-01T10:18:57.000Z</time>
      </trkpt>
      <trkpt lat="47.54199" lon="6.65469">
        <ele>501</ele>
        <time>2016-01-01T10:18:58.000Z</time>
      </trkpt>
      <trkpt lat="47.54195" lon="6.65464">
        <ele>501</ele>
        <time>2016-01-01T10:18:59.000Z</time>
      </trkpt>
      <trkpt lat="47.54192" lon="6.6546">
        <ele>501</ele>
        <time>2016-01-01T10:19:00.000Z</time>
      </trkpt>
      <trkpt lat="47.54188" lon="6.65455">
        <ele>501</ele>
        <time>2016-01-01T10:19:01.000Z</time>
      </trkpt>
      <trkpt lat="47.54185" lon="6.6545">
        <ele>501</ele>
        <time>2016-01-01T10:19:02.000Z</time>
      </trkpt>
      <trkpt lat="47.54181" lon="6.65445">
        <ele>501</ele>
        <time>2016-01-01T10:19:03.000Z</time>
      </trkpt>
      <trkpt lat="47.54177" lon="6.6544">
        <ele>501</ele>
        <time>2016-01-01T10:19:04.000Z</time>
      </trkpt>
      <trkpt lat="47.54169" lon="6.65423">
        <ele>500</ele>
        <time>2016-01-01T10:19:05.000Z</time>
      </trkpt>
      <trkpt lat="47.54166" lon="6.65415">
        <ele>500</ele>
        <time>2016-01-01T10:19:06.000Z</time>
      </trkpt>
      <trkpt lat="47.54162" lon="6.6541">
        <ele>499</ele>
        <time>2016-01-01T10:19:07.000Z</time>
      </trkpt>
      <trkpt lat="47.54158" lon="6.65404">
        <ele>499</ele>
        <time>2016-01-01T10:19:08.000Z</time>
      </trkpt>
      <trkpt lat="47.54155" lon="6.65399">
        <ele>498</ele>
        <time>2016-01-01T10:19:09.000Z</time>
      </trkpt>
      <trkpt lat="47.54151" lon="6.65395">
        <ele>498</ele>
        <time>2016-01-01T10:19:10.000Z</time>
      </trkpt>
      <trkpt lat="47.54149" lon="6.6539">
        <ele>498</ele>
        <time>2016-01-01T10:19:11.000Z</time>
      </trkpt>
      <trkpt lat="47.54146" lon="6.65386">
        <ele>498</ele>
        <time>2016-01-01T10:19:12.000Z</time>
      </trkpt>
      <trkpt lat="47.54143" lon="6.65383">
        <ele>498</ele>
        <time>2016-01-01T10:19:13.000Z</time>
      </trkpt>
      <trkpt lat="47.54141" lon="6.65381">
        <ele>498</ele>
        <time>2016-01-01T10:19:14.000Z</time>
      </trkpt>
      <trkpt lat="47.54137" lon="6.65378">
        <ele>498</ele>
        <time>2016-01-01T10:19:15.000Z</time>
      </trkpt>
      <trkpt lat="47.54133" lon="6.65379">
        <ele>498</ele>
        <time>2016-01-01T10:19:19.000Z</time>
      </trkpt>
      <trkpt lat="47.54132" lon="6.6538">
        <ele>498</ele>
        <time>2016-01-01T10:19:20.000Z</time>
      </trkpt>
      <trkpt lat="47.54128" lon="6.65384">
        <ele>498</ele>
        <time>2016-01-01T10:19:24.000Z</time>
      </trkpt>
      <trkpt lat="47.54128" lon="6.65386">
        <ele>498</ele>
        <time>2016-01-01T10:19:25.000Z</time>
      </trkpt>
      <trkpt lat="47.54125" lon="6.6539">
        <ele>498</ele>
        <time>2016-01-01T10:19:27.000Z</time>
      </trkpt>
      <trkpt lat="47.54124" lon="6.65392">
        <ele>498</ele>
        <time>2016-01-01T10:19:28.000Z</time>
      </trkpt>
      <trkpt lat="47.54122" lon="6.65396">
        <ele>498</ele>
        <time>2016-01-01T10:19:30.000Z</time>
      </trkpt>
      <trkpt lat="47.54122" lon="6.65399">
        <ele>498</ele>
        <time>2016-01-01T10:19:31.000Z</time>
      </trkpt>
      <trkpt lat="47.54121" lon="6.65404">
        <ele>499</ele>
        <time>2016-01-01T10:19:33.000Z</time>
      </trkpt>
      <trkpt lat="47.5412" lon="6.65406">
        <ele>499</ele>
        <time>2016-01-01T10:19:34.000Z</time>
      </trkpt>
      <trkpt lat="47.54118" lon="6.65409">
        <ele>499</ele>
        <time>2016-01-01T10:19:35.000Z</time>
      </trkpt>
      <trkpt lat="47.54116" lon="6.65412">
        <ele>499</ele>
        <time>2016-01-01T10:19:36.000Z</time>
      </trkpt>
      <trkpt lat="47.54114" lon="6.65414">
        <ele>499</ele>
        <time>2016-01-01T10:19:37.000Z</time>
      </trkpt>
      <trkpt lat="47.54113" lon="6.65416">
        <ele>499</ele>
        <time>2016-01-01T10:19:38.000Z</time>
      </trkpt>
      <trkpt lat="47.54111" lon="6.65418">
        <ele>502</ele>
        <time>2016-01-01T10:19:39.000Z</time>
      </trkpt>
      <trkpt lat="47.54108" lon="6.6542">
        <ele>502</ele>
        <time>2016-01-01T10:19:40.000Z</time>
      </trkpt>
      <trkpt lat="47.54106" lon="6.65422">
        <ele>502</ele>
        <time>2016-01-01T10:19:41.000Z</time>
      </trkpt>
      <trkpt lat="47.54103" lon="6.65424">
        <ele>502</ele>
        <time>2016-01-01T10:19:42.000Z</time>
      </trkpt>
      <trkpt lat="47.541" lon="6.65427">
        <ele>502</ele>
        <time>2016-01-01T10:19:43.000Z</time>
      </trkpt>
      <trkpt lat="47.54098" lon="6.6543">
        <ele>502</ele>
        <time>2016-01-01T10:19:44.000Z</time>
      </trkpt>
      <trkpt lat="47.54095" lon="6.65432">
        <ele>502</ele>
        <time>2016-01-01T10:19:45.000Z</time>
      </trkpt>
      <trkpt lat="47.54093" lon="6.65435">
        <ele>502</ele>
        <time>2016-01-01T10:19:46.000Z</time>
      </trkpt>
      <trkpt lat="47.54091" lon="6.65437">
        <ele>502</ele>
        <time>2016-01-01T10:19:47.000Z</time>
      </trkpt>
      <trkpt lat="47.54088" lon="6.6544">
        <ele>502</ele>
        <time>2016-01-01T10:19:48.000Z</time>
      </trkpt>
      <trkpt lat="47.54086" lon="6.65443">
        <ele>502</ele>
        <time>2016-01-01T10:19:49.000Z</time>
      </trkpt>
      <trkpt lat="47.54084" lon="6.65445">
        <ele>502</ele>
        <time>2016-01-01T10:19:50.000Z</time>
      </trkpt>
      <trkpt lat="47.54081" lon="6.65447">
        <ele>503</ele>
        <time>2016-01-01T10:19:51.000Z</time>
      </trkpt>
      <trkpt lat="47.54079" lon="6.65448">
        <ele>503</ele>
        <time>2016-01-01T10:19:52.000Z</time>
      </trkpt>
      <trkpt lat="47.54076" lon="6.65448">
        <ele>503</ele>
        <time>2016-01-01T10:19:53.000Z</time>
      </trkpt>
      <trkpt lat="47.54073" lon="6.65449">
        <ele>503</ele>
        <time>2016-01-01T10:19:54.000Z</time>
      </trkpt>
      <trkpt lat="47.54069" lon="6.6545">
        <ele>503</ele>
        <time>2016-01-01T10:19:55.000Z</time>
      </trkpt>
      <trkpt lat="47.54065" lon="6.65452">
        <ele>503</ele>
        <time>2016-01-01T10:19:56.000Z</time>
      </trkpt>
      <trkpt lat="47.54062" lon="6.65453">
        <ele>503</ele>
        <time>2016-01-01T10:19:57.000Z</time>
      </trkpt>
      <trkpt lat="47.54059" lon="6.65454">
        <ele>503</ele>
        <time>2016-01-01T10:19:58.000Z</time>
      </trkpt>
      <trkpt lat="47.54056" lon="6.65455">
        <ele>503</ele>
        <time>2016-01-01T10:19:59.000Z</time>
      </trkpt>
      <trkpt lat="47.54053" lon="6.65456">
        <ele>503</ele>
        <time>2016-01-01T10:20:00.000Z</time>
      </trkpt>
      <trkpt lat="47.5405" lon="6.65457">
        <ele>503</ele>
        <time>2016-01-01T10:20:01.000Z</time>
      </trkpt>
      <trkpt lat="47.54047" lon="6.65458">
        <ele>503</ele>
        <time>2016-01-01T10:20:02.000Z</time>
      </trkpt>
      <trkpt lat="47.54043" lon="6.6546">
        <ele>504</ele>
        <time>2016-01-01T10:20:03.000Z</time>
      </trkpt>
      <trkpt lat="47.5404" lon="6.65462">
        <ele>504</ele>
        <time>2016-01-01T10:20:04.000Z</time>
      </trkpt>
      <trkpt lat="47.54036" lon="6.65464">
        <ele>504</ele>
        <time>2016-01-01T10:20:05.000Z</time>
      </trkpt>
      <trkpt lat="47.54033" lon="6.65466">
        <ele>504</ele>
        <time>2016-01-01T10:20:06.000Z</time>
      </trkpt>
      <trkpt lat="47.54029" lon="6.65467">
        <ele>504</ele>
        <time>2016-01-01T10:20:07.000Z</time>
      </trkpt>
      <trkpt lat="47.54026" lon="6.65468">
        <ele>504</ele>
        <time>2016-01-01T10:20:08.000Z</time>
      </trkpt>
      <trkpt lat="47.54023" lon="6.6547">
        <ele>504</ele>
        <time>2016-01-01T10:20:09.000Z</time>
      </trkpt>
      <trkpt lat="47.54019" lon="6.65471">
        <ele>504</ele>
        <time>2016-01-01T10:20:10.000Z</time>
      </trkpt>
      <trkpt lat="47.54015" lon="6.65473">
        <ele>504</ele>
        <time>2016-01-01T10:20:11.000Z</time>
      </trkpt>
      <trkpt lat="47.54011" lon="6.65474">
        <ele>504</ele>
        <time>2016-01-01T10:20:12.000Z</time>
      </trkpt>
      <trkpt lat="47.54006" lon="6.65475">
        <ele>504</ele>
        <time>2016-01-01T10:20:13.000Z</time>
      </trkpt>
      <trkpt lat="47.54002" lon="6.65476">
        <ele>504</ele>
        <time>2016-01-01T10:20:14.000Z</time>
      </trkpt>
      <trkpt lat="47.53997" lon="6.65477">
        <ele>504</ele>
        <time>2016-01-01T10:20:15.000Z</time>
      </trkpt>
      <trkpt lat="47.53992" lon="6.65477">
        <ele>504</ele>
        <time>2016-01-01T10:20:16.000Z</time>
      </trkpt>
      <trkpt lat="47.53989" lon="6.65476">
        <ele>504</ele>
        <time>2016-01-01T10:20:17.000Z</time>
      </trkpt>
      <trkpt lat="47.53986" lon="6.65475">
        <ele>504</ele>
        <time>2016-01-01T10:20:18.000Z</time>
      </trkpt>
      <trkpt lat="47.53983" lon="6.65474">
        <ele>504</ele>
        <time>2016-01-01T10:20:19.000Z</time>
      </trkpt>
      <trkpt lat="47.53981" lon="6.65473">
        <ele>504</ele>
        <time>2016-01-01T10:20:20.000Z</time>
      </trkpt>
      <trkpt lat="47.53978" lon="6.65473">
        <ele>503</ele>
        <time>2016-01-01T10:20:21.000Z</time>
      </trkpt>
      <trkpt lat="47.53974" lon="6.65473">
        <ele>503</ele>
        <time>2016-01-01T10:20:22.000Z</time>
      </trkpt>
      <trkpt lat="47.5397" lon="6.65473">
        <ele>503</ele>
        <time>2016-01-01T10:20:23.000Z</time>
      </trkpt>
      <trkpt lat="47.53966" lon="6.65473">
        <ele>503</ele>
        <time>2016-01-01T10:20:24.000Z</time>
      </trkpt>
      <trkpt lat="47.53961" lon="6.65474">
        <ele>503</ele>
        <time>2016-01-01T10:20:25.000Z</time>
      </trkpt>
      <trkpt lat="47.53956" lon="6.65475">
        <ele>503</ele>
        <time>2016-01-01T10:20:26.000Z</time>
      </trkpt>
      <trkpt lat="47.53951" lon="6.65476">
        <ele>503</ele>
        <time>2016-01-01T10:20:27.000Z</time>
      </trkpt>
      <trkpt lat="47.53945" lon="6.65478">
        <ele>503</ele>
        <time>2016-01-01T10:20:28.000Z</time>
      </trkpt>
      <trkpt lat="47.53934" lon="6.6548">
        <ele>503</ele>
        <time>2016-01-01T10:20:30.000Z</time>
      </trkpt>
      <trkpt lat="47.53929" lon="6.65481">
        <ele>503</ele>
        <time>2016-01-01T10:20:31.000Z</time>
      </trkpt>
      <trkpt lat="47.53925" lon="6.65482">
        <ele>503</ele>
        <time>2016-01-01T10:20:32.000Z</time>
      </trkpt>
      <trkpt lat="47.5392" lon="6.65483">
        <ele>503</ele>
        <time>2016-01-01T10:20:33.000Z</time>
      </trkpt>
      <trkpt lat="47.53916" lon="6.65484">
        <ele>501</ele>
        <time>2016-01-01T10:20:34.000Z</time>
      </trkpt>
      <trkpt lat="47.53911" lon="6.65484">
        <ele>501</ele>
        <time>2016-01-01T10:20:35.000Z</time>
      </trkpt>
      <trkpt lat="47.53905" lon="6.65486">
        <ele>501</ele>
        <time>2016-01-01T10:20:36.000Z</time>
      </trkpt>
      <trkpt lat="47.539" lon="6.65487">
        <ele>501</ele>
        <time>2016-01-01T10:20:37.000Z</time>
      </trkpt>
      <trkpt lat="47.53894" lon="6.65488">
        <ele>500</ele>
        <time>2016-01-01T10:20:38.000Z</time>
      </trkpt>
      <trkpt lat="47.53889" lon="6.65489">
        <ele>500</ele>
        <time>2016-01-01T10:20:39.000Z</time>
      </trkpt>
      <trkpt lat="47.53883" lon="6.6549">
        <ele>500</ele>
        <time>2016-01-01T10:20:40.000Z</time>
      </trkpt>
      <trkpt lat="47.53878" lon="6.65491">
        <ele>499</ele>
        <time>2016-01-01T10:20:41.000Z</time>
      </trkpt>
      <trkpt lat="47.53873" lon="6.65491">
        <ele>499</ele>
        <time>2016-01-01T10:20:42.000Z</time>
      </trkpt>
      <trkpt lat="47.53864" lon="6.65498">
        <ele>498</ele>
        <time>2016-01-01T10:20:43.000Z</time>
      </trkpt>
      <trkpt lat="47.53858" lon="6.655">
        <ele>498</ele>
        <time>2016-01-01T10:20:44.000Z</time>
      </trkpt>
      <trkpt lat="47.53853" lon="6.65501">
        <ele>498</ele>
        <time>2016-01-01T10:20:45.000Z</time>
      </trkpt>
      <trkpt lat="47.53849" lon="6.65502">
        <ele>498</ele>
        <time>2016-01-01T10:20:46.000Z</time>
      </trkpt>
      <trkpt lat="47.53844" lon="6.65501">
        <ele>497</ele>
        <time>2016-01-01T10:20:47.000Z</time>
      </trkpt>
      <trkpt lat="47.5384" lon="6.65502">
        <ele>497</ele>
        <time>2016-01-01T10:20:48.000Z</time>
      </trkpt>
      <trkpt lat="47.53834" lon="6.65504">
        <ele>496</ele>
        <time>2016-01-01T10:20:49.000Z</time>
      </trkpt>
      <trkpt lat="47.53828" lon="6.65505">
        <ele>495</ele>
        <time>2016-01-01T10:20:50.000Z</time>
      </trkpt>
      <trkpt lat="47.53821" lon="6.65509">
        <ele>494</ele>
        <time>2016-01-01T10:20:51.000Z</time>
      </trkpt>
      <trkpt lat="47.53815" lon="6.65511">
        <ele>494</ele>
        <time>2016-01-01T10:20:52.000Z</time>
      </trkpt>
      <trkpt lat="47.53807" lon="6.65515">
        <ele>493</ele>
        <time>2016-01-01T10:20:53.000Z</time>
      </trkpt>
      <trkpt lat="47.53799" lon="6.6552">
        <ele>493</ele>
        <time>2016-01-01T10:20:54.000Z</time>
      </trkpt>
      <trkpt lat="47.53791" lon="6.65523">
        <ele>492</ele>
        <time>2016-01-01T10:20:55.000Z</time>
      </trkpt>
      <trkpt lat="47.53782" lon="6.65526">
        <ele>492</ele>
        <time>2016-01-01T10:20:56.000Z</time>
      </trkpt>
      <trkpt lat="47.53774" lon="6.65529">
        <ele>491</ele>
        <time>2016-01-01T10:20:57.000Z</time>
      </trkpt>
      <trkpt lat="47.53768" lon="6.65532">
        <ele>491</ele>
        <time>2016-01-01T10:20:58.000Z</time>
      </trkpt>
      <trkpt lat="47.5376" lon="6.65536">
        <ele>491</ele>
        <time>2016-01-01T10:20:59.000Z</time>
      </trkpt>
      <trkpt lat="47.53753" lon="6.6554">
        <ele>491</ele>
        <time>2016-01-01T10:21:00.000Z</time>
      </trkpt>
      <trkpt lat="47.53747" lon="6.65543">
        <ele>484</ele>
        <time>2016-01-01T10:21:00.999Z</time>
      </trkpt>
      <trkpt lat="47.53743" lon="6.65545">
        <ele>484</ele>
        <time>2016-01-01T10:21:02.000Z</time>
      </trkpt>
      <trkpt lat="47.53738" lon="6.65549">
        <ele>483</ele>
        <time>2016-01-01T10:21:03.000Z</time>
      </trkpt>
      <trkpt lat="47.53732" lon="6.65552">
        <ele>483</ele>
        <time>2016-01-01T10:21:04.000Z</time>
      </trkpt>
      <trkpt lat="47.53726" lon="6.65554">
        <ele>483</ele>
        <time>2016-01-01T10:21:05.000Z</time>
      </trkpt>
      <trkpt lat="47.53719" lon="6.65555">
        <ele>482</ele>
        <time>2016-01-01T10:21:06.000Z</time>
      </trkpt>
      <trkpt lat="47.53712" lon="6.65555">
        <ele>482</ele>
        <time>2016-01-01T10:21:07.000Z</time>
      </trkpt>
      <trkpt lat="47.53705" lon="6.65556">
        <ele>481</ele>
        <time>2016-01-01T10:21:08.000Z</time>
      </trkpt>
      <trkpt lat="47.53698" lon="6.65556">
        <ele>480</ele>
        <time>2016-01-01T10:21:09.000Z</time>
      </trkpt>
      <trkpt lat="47.53695" lon="6.6555">
        <ele>480</ele>
        <time>2016-01-01T10:21:10.000Z</time>
      </trkpt>
      <trkpt lat="47.5369" lon="6.65545">
        <ele>480</ele>
        <time>2016-01-01T10:21:11.000Z</time>
      </trkpt>
      <trkpt lat="47.53685" lon="6.65538">
        <ele>480</ele>
        <time>2016-01-01T10:21:12.000Z</time>
      </trkpt>
      <trkpt lat="47.53681" lon="6.65534">
        <ele>480</ele>
        <time>2016-01-01T10:21:13.000Z</time>
      </trkpt>
      <trkpt lat="47.53677" lon="6.65529">
        <ele>480</ele>
        <time>2016-01-01T10:21:14.000Z</time>
      </trkpt>
      <trkpt lat="47.53673" lon="6.65524">
        <ele>479</ele>
        <time>2016-01-01T10:21:15.000Z</time>
      </trkpt>
      <trkpt lat="47.5367" lon="6.65519">
        <ele>479</ele>
        <time>2016-01-01T10:21:16.000Z</time>
      </trkpt>
      <trkpt lat="47.53668" lon="6.65516">
        <ele>479</ele>
        <time>2016-01-01T10:21:17.000Z</time>
      </trkpt>
      <trkpt lat="47.53664" lon="6.65512">
        <ele>474</ele>
        <time>2016-01-01T10:21:18.000Z</time>
      </trkpt>
      <trkpt lat="47.53659" lon="6.6551">
        <ele>474</ele>
        <time>2016-01-01T10:21:19.000Z</time>
      </trkpt>
      <trkpt lat="47.53655" lon="6.65505">
        <ele>474</ele>
        <time>2016-01-01T10:21:20.000Z</time>
      </trkpt>
      <trkpt lat="47.53651" lon="6.655">
        <ele>475</ele>
        <time>2016-01-01T10:21:21.000Z</time>
      </trkpt>
      <trkpt lat="47.53647" lon="6.65496">
        <ele>474</ele>
        <time>2016-01-01T10:21:22.000Z</time>
      </trkpt>
      <trkpt lat="47.53642" lon="6.6549">
        <ele>474</ele>
        <time>2016-01-01T10:21:23.000Z</time>
      </trkpt>
      <trkpt lat="47.53638" lon="6.65485">
        <ele>473</ele>
        <time>2016-01-01T10:21:24.000Z</time>
      </trkpt>
      <trkpt lat="47.53634" lon="6.65479">
        <ele>473</ele>
        <time>2016-01-01T10:21:25.000Z</time>
      </trkpt>
      <trkpt lat="47.5363" lon="6.65475">
        <ele>473</ele>
        <time>2016-01-01T10:21:26.000Z</time>
      </trkpt>
      <trkpt lat="47.53626" lon="6.6547">
        <ele>473</ele>
        <time>2016-01-01T10:21:27.000Z</time>
      </trkpt>
      <trkpt lat="47.53623" lon="6.65464">
        <ele>473</ele>
        <time>2016-01-01T10:21:28.000Z</time>
      </trkpt>
      <trkpt lat="47.5362" lon="6.6546">
        <ele>473</ele>
        <time>2016-01-01T10:21:29.000Z</time>
      </trkpt>
      <trkpt lat="47.53616" lon="6.65456">
        <ele>473</ele>
        <time>2016-01-01T10:21:30.000Z</time>
      </trkpt>
      <trkpt lat="47.53612" lon="6.65454">
        <ele>472</ele>
        <time>2016-01-01T10:21:31.000Z</time>
      </trkpt>
      <trkpt lat="47.53608" lon="6.6545">
        <ele>472</ele>
        <time>2016-01-01T10:21:32.000Z</time>
      </trkpt>
      <trkpt lat="47.53605" lon="6.65444">
        <ele>472</ele>
        <time>2016-01-01T10:21:33.000Z</time>
      </trkpt>
      <trkpt lat="47.53601" lon="6.6544">
        <ele>472</ele>
        <time>2016-01-01T10:21:34.000Z</time>
      </trkpt>
      <trkpt lat="47.53598" lon="6.65435">
        <ele>472</ele>
        <time>2016-01-01T10:21:35.000Z</time>
      </trkpt>
      <trkpt lat="47.53594" lon="6.6543">
        <ele>472</ele>
        <time>2016-01-01T10:21:36.000Z</time>
      </trkpt>
      <trkpt lat="47.5359" lon="6.65425">
        <ele>472</ele>
        <time>2016-01-01T10:21:37.000Z</time>
      </trkpt>
      <trkpt lat="47.53587" lon="6.6542">
        <ele>471</ele>
        <time>2016-01-01T10:21:38.000Z</time>
      </trkpt>
      <trkpt lat="47.53584" lon="6.65414">
        <ele>472</ele>
        <time>2016-01-01T10:21:39.000Z</time>
      </trkpt>
      <trkpt lat="47.53579" lon="6.65408">
        <ele>470</ele>
        <time>2016-01-01T10:21:40.000Z</time>
      </trkpt>
      <trkpt lat="47.53576" lon="6.65402">
        <ele>470</ele>
        <time>2016-01-01T10:21:41.000Z</time>
      </trkpt>
      <trkpt lat="47.53571" lon="6.65397">
        <ele>469</ele>
        <time>2016-01-01T10:21:42.000Z</time>
      </trkpt>
      <trkpt lat="47.53567" lon="6.65392">
        <ele>469</ele>
        <time>2016-01-01T10:21:43.000Z</time>
      </trkpt>
      <trkpt lat="47.53563" lon="6.65387">
        <ele>469</ele>
        <time>2016-01-01T10:21:44.000Z</time>
      </trkpt>
      <trkpt lat="47.53559" lon="6.65382">
        <ele>469</ele>
        <time>2016-01-01T10:21:45.000Z</time>
      </trkpt>
      <trkpt lat="47.53556" lon="6.65378">
        <ele>468</ele>
        <time>2016-01-01T10:21:46.000Z</time>
      </trkpt>
      <trkpt lat="47.53552" lon="6.65372">
        <ele>468</ele>
        <time>2016-01-01T10:21:47.000Z</time>
      </trkpt>
      <trkpt lat="47.53549" lon="6.65367">
        <ele>468</ele>
        <time>2016-01-01T10:21:48.000Z</time>
      </trkpt>
      <trkpt lat="47.53545" lon="6.65363">
        <ele>468</ele>
        <time>2016-01-01T10:21:49.000Z</time>
      </trkpt>
      <trkpt lat="47.53541" lon="6.65358">
        <ele>468</ele>
        <time>2016-01-01T10:21:50.000Z</time>
      </trkpt>
      <trkpt lat="47.53537" lon="6.65353">
        <ele>468</ele>
        <time>2016-01-01T10:21:51.000Z</time>
      </trkpt>
      <trkpt lat="47.53533" lon="6.65349">
        <ele>467</ele>
        <time>2016-01-01T10:21:52.000Z</time>
      </trkpt>
      <trkpt lat="47.5353" lon="6.65344">
        <ele>467</ele>
        <time>2016-01-01T10:21:53.000Z</time>
      </trkpt>
      <trkpt lat="47.53525" lon="6.65339">
        <ele>467</ele>
        <time>2016-01-01T10:21:54.000Z</time>
      </trkpt>
      <trkpt lat="47.53521" lon="6.65335">
        <ele>466</ele>
        <time>2016-01-01T10:21:55.000Z</time>
      </trkpt>
      <trkpt lat="47.53518" lon="6.65331">
        <ele>467</ele>
        <time>2016-01-01T10:21:56.000Z</time>
      </trkpt>
      <trkpt lat="47.53514" lon="6.65325">
        <ele>467</ele>
        <time>2016-01-01T10:21:57.000Z</time>
      </trkpt>
      <trkpt lat="47.53511" lon="6.65319">
        <ele>467</ele>
        <time>2016-01-01T10:21:58.000Z</time>
      </trkpt>
      <trkpt lat="47.53507" lon="6.65314">
        <ele>467</ele>
        <time>2016-01-01T10:21:59.000Z</time>
      </trkpt>
      <trkpt lat="47.53504" lon="6.65308">
        <ele>468</ele>
        <time>2016-01-01T10:22:00.001Z</time>
      </trkpt>
      <trkpt lat="47.53501" lon="6.65305">
        <ele>468</ele>
        <time>2016-01-01T10:22:01.000Z</time>
      </trkpt>
      <trkpt lat="47.53498" lon="6.653">
        <ele>463</ele>
        <time>2016-01-01T10:22:02.000Z</time>
      </trkpt>
      <trkpt lat="47.53496" lon="6.65304">
        <ele>463</ele>
        <time>2016-01-01T10:22:05.000Z</time>
      </trkpt>
      <trkpt lat="47.53496" lon="6.65307">
        <ele>463</ele>
        <time>2016-01-01T10:22:06.000Z</time>
      </trkpt>
      <trkpt lat="47.53496" lon="6.65313">
        <ele>463</ele>
        <time>2016-01-01T10:22:08.000Z</time>
      </trkpt>
      <trkpt lat="47.53494" lon="6.65316">
        <ele>463</ele>
        <time>2016-01-01T10:22:09.000Z</time>
      </trkpt>
      <trkpt lat="47.53492" lon="6.65319">
        <ele>463</ele>
        <time>2016-01-01T10:22:10.000Z</time>
      </trkpt>
      <trkpt lat="47.5349" lon="6.65323">
        <ele>463</ele>
        <time>2016-01-01T10:22:11.000Z</time>
      </trkpt>
      <trkpt lat="47.53489" lon="6.65327">
        <ele>463</ele>
        <time>2016-01-01T10:22:12.000Z</time>
      </trkpt>
      <trkpt lat="47.53486" lon="6.65331">
        <ele>463</ele>
        <time>2016-01-01T10:22:13.000Z</time>
      </trkpt>
      <trkpt lat="47.53483" lon="6.65335">
        <ele>462</ele>
        <time>2016-01-01T10:22:14.000Z</time>
      </trkpt>
      <trkpt lat="47.5348" lon="6.65339">
        <ele>462</ele>
        <time>2016-01-01T10:22:15.000Z</time>
      </trkpt>
      <trkpt lat="47.53478" lon="6.65343">
        <ele>461</ele>
        <time>2016-01-01T10:22:16.002Z</time>
      </trkpt>
      <trkpt lat="47.53474" lon="6.65348">
        <ele>461</ele>
        <time>2016-01-01T10:22:17.000Z</time>
      </trkpt>
      <trkpt lat="47.53467" lon="6.65359">
        <ele>460</ele>
        <time>2016-01-01T10:22:18.000Z</time>
      </trkpt>
      <trkpt lat="47.53462" lon="6.65363">
        <ele>460</ele>
        <time>2016-01-01T10:22:19.000Z</time>
      </trkpt>
      <trkpt lat="47.53458" lon="6.6537">
        <ele>460</ele>
        <time>2016-01-01T10:22:20.000Z</time>
      </trkpt>
      <trkpt lat="47.53453" lon="6.65376">
        <ele>460</ele>
        <time>2016-01-01T10:22:21.000Z</time>
      </trkpt>
      <trkpt lat="47.53448" lon="6.65381">
        <ele>459</ele>
        <time>2016-01-01T10:22:22.000Z</time>
      </trkpt>
      <trkpt lat="47.53445" lon="6.65388">
        <ele>459</ele>
        <time>2016-01-01T10:22:23.000Z</time>
      </trkpt>
      <trkpt lat="47.53441" lon="6.65395">
        <ele>459</ele>
        <time>2016-01-01T10:22:24.000Z</time>
      </trkpt>
      <trkpt lat="47.53437" lon="6.65398">
        <ele>458</ele>
        <time>2016-01-01T10:22:25.000Z</time>
      </trkpt>
      <trkpt lat="47.53433" lon="6.65399">
        <ele>458</ele>
        <time>2016-01-01T10:22:26.000Z</time>
      </trkpt>
      <trkpt lat="47.5343" lon="6.65399">
        <ele>458</ele>
        <time>2016-01-01T10:22:27.000Z</time>
      </trkpt>
      <trkpt lat="47.53426" lon="6.65397">
        <ele>458</ele>
        <time>2016-01-01T10:22:28.000Z</time>
      </trkpt>
      <trkpt lat="47.53423" lon="6.65399">
        <ele>457</ele>
        <time>2016-01-01T10:22:29.000Z</time>
      </trkpt>
      <trkpt lat="47.53416" lon="6.65406">
        <ele>455</ele>
        <time>2016-01-01T10:22:30.000Z</time>
      </trkpt>
      <trkpt lat="47.53412" lon="6.65409">
        <ele>455</ele>
        <time>2016-01-01T10:22:31.000Z</time>
      </trkpt>
      <trkpt lat="47.53408" lon="6.65412">
        <ele>455</ele>
        <time>2016-01-01T10:22:32.000Z</time>
      </trkpt>
      <trkpt lat="47.53404" lon="6.65415">
        <ele>455</ele>
        <time>2016-01-01T10:22:33.000Z</time>
      </trkpt>
      <trkpt lat="47.53397" lon="6.65419">
        <ele>452</ele>
        <time>2016-01-01T10:22:34.000Z</time>
      </trkpt>
      <trkpt lat="47.53391" lon="6.65422">
        <ele>452</ele>
        <time>2016-01-01T10:22:35.000Z</time>
      </trkpt>
      <trkpt lat="47.53385" lon="6.65424">
        <ele>452</ele>
        <time>2016-01-01T10:22:36.000Z</time>
      </trkpt>
      <trkpt lat="47.5338" lon="6.65427">
        <ele>451</ele>
        <time>2016-01-01T10:22:37.000Z</time>
      </trkpt>
      <trkpt lat="47.53374" lon="6.65432">
        <ele>451</ele>
        <time>2016-01-01T10:22:38.000Z</time>
      </trkpt>
      <trkpt lat="47.53369" lon="6.65435">
        <ele>451</ele>
        <time>2016-01-01T10:22:39.000Z</time>
      </trkpt>
      <trkpt lat="47.53364" lon="6.6544">
        <ele>451</ele>
        <time>2016-01-01T10:22:40.000Z</time>
      </trkpt>
      <trkpt lat="47.53362" lon="6.65444">
        <ele>450</ele>
        <time>2016-01-01T10:22:41.000Z</time>
      </trkpt>
      <trkpt lat="47.53358" lon="6.65448">
        <ele>450</ele>
        <time>2016-01-01T10:22:42.000Z</time>
      </trkpt>
      <trkpt lat="47.53353" lon="6.65453">
        <ele>450</ele>
        <time>2016-01-01T10:22:43.000Z</time>
      </trkpt>
      <trkpt lat="47.53346" lon="6.65457">
        <ele>450</ele>
        <time>2016-01-01T10:22:44.000Z</time>
      </trkpt>
      <trkpt lat="47.53339" lon="6.65457">
        <ele>450</ele>
        <time>2016-01-01T10:22:45.000Z</time>
      </trkpt>
      <trkpt lat="47.53334" lon="6.65455">
        <ele>450</ele>
        <time>2016-01-01T10:22:46.000Z</time>
      </trkpt>
      <trkpt lat="47.53329" lon="6.65452">
        <ele>447</ele>
        <time>2016-01-01T10:22:47.000Z</time>
      </trkpt>
      <trkpt lat="47.53324" lon="6.65452">
        <ele>447</ele>
        <time>2016-01-01T10:22:48.000Z</time>
      </trkpt>
      <trkpt lat="47.5332" lon="6.65451">
        <ele>447</ele>
        <time>2016-01-01T10:22:49.000Z</time>
      </trkpt>
      <trkpt lat="47.53316" lon="6.65449">
        <ele>447</ele>
        <time>2016-01-01T10:22:50.000Z</time>
      </trkpt>
      <trkpt lat="47.5331" lon="6.65447">
        <ele>447</ele>
        <time>2016-01-01T10:22:51.000Z</time>
      </trkpt>
      <trkpt lat="47.53305" lon="6.6544">
        <ele>447</ele>
        <time>2016-01-01T10:22:52.000Z</time>
      </trkpt>
      <trkpt lat="47.53299" lon="6.65437">
        <ele>447</ele>
        <time>2016-01-01T10:22:53.000Z</time>
      </trkpt>
      <trkpt lat="47.53295" lon="6.65432">
        <ele>447</ele>
        <time>2016-01-01T10:22:53.999Z</time>
      </trkpt>
      <trkpt lat="47.53291" lon="6.65426">
        <ele>447</ele>
        <time>2016-01-01T10:22:55.000Z</time>
      </trkpt>
      <trkpt lat="47.53287" lon="6.6542">
        <ele>447</ele>
        <time>2016-01-01T10:22:56.000Z</time>
      </trkpt>
      <trkpt lat="47.53283" lon="6.65414">
        <ele>449</ele>
        <time>2016-01-01T10:22:57.000Z</time>
      </trkpt>
      <trkpt lat="47.53278" lon="6.65406">
        <ele>449</ele>
        <time>2016-01-01T10:22:58.000Z</time>
      </trkpt>
      <trkpt lat="47.53274" lon="6.65397">
        <ele>449</ele>
        <time>2016-01-01T10:22:59.000Z</time>
      </trkpt>
      <trkpt lat="47.53269" lon="6.65389">
        <ele>449</ele>
        <time>2016-01-01T10:23:00.000Z</time>
      </trkpt>
      <trkpt lat="47.53266" lon="6.65382">
        <ele>449</ele>
        <time>2016-01-01T10:23:01.000Z</time>
      </trkpt>
      <trkpt lat="47.53261" lon="6.65377">
        <ele>449</ele>
        <time>2016-01-01T10:23:02.000Z</time>
      </trkpt>
      <trkpt lat="47.53257" lon="6.65369">
        <ele>449</ele>
        <time>2016-01-01T10:23:03.000Z</time>
      </trkpt>
      <trkpt lat="47.53253" lon="6.65362">
        <ele>449</ele>
        <time>2016-01-01T10:23:04.000Z</time>
      </trkpt>
      <trkpt lat="47.5325" lon="6.65356">
        <ele>446</ele>
        <time>2016-01-01T10:23:05.000Z</time>
      </trkpt>
      <trkpt lat="47.53246" lon="6.65345">
        <ele>447</ele>
        <time>2016-01-01T10:23:06.000Z</time>
      </trkpt>
      <trkpt lat="47.53242" lon="6.65335">
        <ele>448</ele>
        <time>2016-01-01T10:23:07.000Z</time>
      </trkpt>
      <trkpt lat="47.5324" lon="6.65326">
        <ele>448</ele>
        <time>2016-01-01T10:23:08.000Z</time>
      </trkpt>
      <trkpt lat="47.53239" lon="6.65315">
        <ele>447</ele>
        <time>2016-01-01T10:23:09.000Z</time>
      </trkpt>
      <trkpt lat="47.53238" lon="6.65307">
        <ele>447</ele>
        <time>2016-01-01T10:23:10.000Z</time>
      </trkpt>
      <trkpt lat="47.53239" lon="6.653">
        <ele>447</ele>
        <time>2016-01-01T10:23:11.000Z</time>
      </trkpt>
      <trkpt lat="47.53241" lon="6.65293">
        <ele>447</ele>
        <time>2016-01-01T10:23:12.000Z</time>
      </trkpt>
      <trkpt lat="47.53243" lon="6.65285">
        <ele>447</ele>
        <time>2016-01-01T10:23:13.000Z</time>
      </trkpt>
      <trkpt lat="47.53242" lon="6.65273">
        <ele>448</ele>
        <time>2016-01-01T10:23:14.000Z</time>
      </trkpt>
      <trkpt lat="47.53243" lon="6.65263">
        <ele>448</ele>
        <time>2016-01-01T10:23:15.000Z</time>
      </trkpt>
      <trkpt lat="47.53243" lon="6.65255">
        <ele>449</ele>
        <time>2016-01-01T10:23:16.000Z</time>
      </trkpt>
      <trkpt lat="47.53238" lon="6.65248">
        <ele>448</ele>
        <time>2016-01-01T10:23:17.000Z</time>
      </trkpt>
      <trkpt lat="47.53234" lon="6.65243">
        <ele>448</ele>
        <time>2016-01-01T10:23:18.000Z</time>
      </trkpt>
      <trkpt lat="47.53232" lon="6.65236">
        <ele>448</ele>
        <time>2016-01-01T10:23:19.000Z</time>
      </trkpt>
      <trkpt lat="47.53228" lon="6.65229">
        <ele>447</ele>
        <time>2016-01-01T10:23:20.000Z</time>
      </trkpt>
      <trkpt lat="47.53224" lon="6.65223">
        <ele>447</ele>
        <time>2016-01-01T10:23:21.000Z</time>
      </trkpt>
      <trkpt lat="47.53221" lon="6.65215">
        <ele>447</ele>
        <time>2016-01-01T10:23:22.000Z</time>
      </trkpt>
      <trkpt lat="47.53213" lon="6.65208">
        <ele>446</ele>
        <time>2016-01-01T10:23:23.000Z</time>
      </trkpt>
      <trkpt lat="47.53208" lon="6.65202">
        <ele>446</ele>
        <time>2016-01-01T10:23:24.000Z</time>
      </trkpt>
      <trkpt lat="47.53203" lon="6.65196">
        <ele>446</ele>
        <time>2016-01-01T10:23:25.000Z</time>
      </trkpt>
      <trkpt lat="47.53199" lon="6.65189">
        <ele>446</ele>
        <time>2016-01-01T10:23:26.000Z</time>
      </trkpt>
      <trkpt lat="47.53194" lon="6.65182">
        <ele>445</ele>
        <time>2016-01-01T10:23:27.000Z</time>
      </trkpt>
      <trkpt lat="47.5319" lon="6.65174">
        <ele>445</ele>
        <time>2016-01-01T10:23:28.000Z</time>
      </trkpt>
      <trkpt lat="47.53185" lon="6.65165">
        <ele>444</ele>
        <time>2016-01-01T10:23:29.000Z</time>
      </trkpt>
      <trkpt lat="47.53182" lon="6.65155">
        <ele>444</ele>
        <time>2016-01-01T10:23:30.000Z</time>
      </trkpt>
      <trkpt lat="47.53177" lon="6.65146">
        <ele>444</ele>
        <time>2016-01-01T10:23:31.000Z</time>
      </trkpt>
      <trkpt lat="47.53175" lon="6.65135">
        <ele>444</ele>
        <time>2016-01-01T10:23:32.000Z</time>
      </trkpt>
      <trkpt lat="47.53173" lon="6.65125">
        <ele>443</ele>
        <time>2016-01-01T10:23:33.000Z</time>
      </trkpt>
      <trkpt lat="47.53174" lon="6.65113">
        <ele>443</ele>
        <time>2016-01-01T10:23:34.000Z</time>
      </trkpt>
      <trkpt lat="47.53173" lon="6.65099">
        <ele>442</ele>
        <time>2016-01-01T10:23:35.000Z</time>
      </trkpt>
      <trkpt lat="47.53172" lon="6.65088">
        <ele>441</ele>
        <time>2016-01-01T10:23:36.000Z</time>
      </trkpt>
      <trkpt lat="47.53171" lon="6.6508">
        <ele>440</ele>
        <time>2016-01-01T10:23:37.000Z</time>
      </trkpt>
      <trkpt lat="47.53171" lon="6.65075">
        <ele>440</ele>
        <time>2016-01-01T10:23:38.000Z</time>
      </trkpt>
      <trkpt lat="47.5317" lon="6.6507">
        <ele>440</ele>
        <time>2016-01-01T10:23:39.000Z</time>
      </trkpt>
      <trkpt lat="47.53168" lon="6.65062">
        <ele>440</ele>
        <time>2016-01-01T10:23:40.000Z</time>
      </trkpt>
      <trkpt lat="47.53164" lon="6.65058">
        <ele>436</ele>
        <time>2016-01-01T10:23:41.000Z</time>
      </trkpt>
      <trkpt lat="47.53161" lon="6.65055">
        <ele>436</ele>
        <time>2016-01-01T10:23:42.000Z</time>
      </trkpt>
      <trkpt lat="47.53156" lon="6.65052">
        <ele>436</ele>
        <time>2016-01-01T10:23:43.000Z</time>
      </trkpt>
      <trkpt lat="47.53151" lon="6.6505">
        <ele>435</ele>
        <time>2016-01-01T10:23:44.000Z</time>
      </trkpt>
      <trkpt lat="47.53145" lon="6.65049">
        <ele>435</ele>
        <time>2016-01-01T10:23:45.000Z</time>
      </trkpt>
      <trkpt lat="47.5314" lon="6.65047">
        <ele>435</ele>
        <time>2016-01-01T10:23:46.000Z</time>
      </trkpt>
      <trkpt lat="47.53135" lon="6.65044">
        <ele>434</ele>
        <time>2016-01-01T10:23:47.000Z</time>
      </trkpt>
      <trkpt lat="47.5313" lon="6.65042">
        <ele>434</ele>
        <time>2016-01-01T10:23:48.000Z</time>
      </trkpt>
      <trkpt lat="47.53122" lon="6.65041">
        <ele>434</ele>
        <time>2016-01-01T10:23:49.000Z</time>
      </trkpt>
      <trkpt lat="47.53115" lon="6.65041">
        <ele>434</ele>
        <time>2016-01-01T10:23:50.000Z</time>
      </trkpt>
      <trkpt lat="47.53109" lon="6.6504">
        <ele>433</ele>
        <time>2016-01-01T10:23:51.000Z</time>
      </trkpt>
      <trkpt lat="47.53103" lon="6.6504">
        <ele>433</ele>
        <time>2016-01-01T10:23:52.000Z</time>
      </trkpt>
      <trkpt lat="47.53098" lon="6.65041">
        <ele>433</ele>
        <time>2016-01-01T10:23:53.000Z</time>
      </trkpt>
      <trkpt lat="47.53092" lon="6.65043">
        <ele>433</ele>
        <time>2016-01-01T10:23:54.000Z</time>
      </trkpt>
      <trkpt lat="47.53086" lon="6.65045">
        <ele>433</ele>
        <time>2016-01-01T10:23:55.000Z</time>
      </trkpt>
      <trkpt lat="47.5308" lon="6.65049">
        <ele>429</ele>
        <time>2016-01-01T10:23:56.000Z</time>
      </trkpt>
      <trkpt lat="47.53076" lon="6.65054">
        <ele>429</ele>
        <time>2016-01-01T10:23:57.000Z</time>
      </trkpt>
      <trkpt lat="47.5307" lon="6.6506">
        <ele>429</ele>
        <time>2016-01-01T10:23:58.000Z</time>
      </trkpt>
      <trkpt lat="47.53064" lon="6.65064">
        <ele>429</ele>
        <time>2016-01-01T10:23:59.000Z</time>
      </trkpt>
      <trkpt lat="47.53059" lon="6.65066">
        <ele>429</ele>
        <time>2016-01-01T10:24:00.000Z</time>
      </trkpt>
      <trkpt lat="47.53052" lon="6.65069">
        <ele>428</ele>
        <time>2016-01-01T10:24:01.000Z</time>
      </trkpt>
      <trkpt lat="47.53047" lon="6.65073">
        <ele>428</ele>
        <time>2016-01-01T10:24:02.000Z</time>
      </trkpt>
      <trkpt lat="47.53043" lon="6.65077">
        <ele>428</ele>
        <time>2016-01-01T10:24:03.000Z</time>
      </trkpt>
      <trkpt lat="47.53038" lon="6.65084">
        <ele>429</ele>
        <time>2016-01-01T10:24:04.000Z</time>
      </trkpt>
      <trkpt lat="47.53031" lon="6.6509">
        <ele>429</ele>
        <time>2016-01-01T10:24:05.000Z</time>
      </trkpt>
      <trkpt lat="47.53025" lon="6.65095">
        <ele>429</ele>
        <time>2016-01-01T10:24:06.000Z</time>
      </trkpt>
      <trkpt lat="47.53016" lon="6.65101">
        <ele>428</ele>
        <time>2016-01-01T10:24:07.000Z</time>
      </trkpt>
      <trkpt lat="47.53007" lon="6.65103">
        <ele>428</ele>
        <time>2016-01-01T10:24:08.000Z</time>
      </trkpt>
      <trkpt lat="47.52999" lon="6.65107">
        <ele>423</ele>
        <time>2016-01-01T10:24:09.000Z</time>
      </trkpt>
      <trkpt lat="47.52991" lon="6.6511">
        <ele>423</ele>
        <time>2016-01-01T10:24:10.000Z</time>
      </trkpt>
      <trkpt lat="47.5298" lon="6.65111">
        <ele>423</ele>
        <time>2016-01-01T10:24:11.000Z</time>
      </trkpt>
      <trkpt lat="47.52973" lon="6.65113">
        <ele>422</ele>
        <time>2016-01-01T10:24:12.000Z</time>
      </trkpt>
      <trkpt lat="47.52964" lon="6.65116">
        <ele>422</ele>
        <time>2016-01-01T10:24:13.000Z</time>
      </trkpt>
      <trkpt lat="47.52956" lon="6.65119">
        <ele>421</ele>
        <time>2016-01-01T10:24:14.000Z</time>
      </trkpt>
      <trkpt lat="47.52947" lon="6.65122">
        <ele>421</ele>
        <time>2016-01-01T10:24:15.000Z</time>
      </trkpt>
      <trkpt lat="47.52939" lon="6.65123">
        <ele>420</ele>
        <time>2016-01-01T10:24:16.000Z</time>
      </trkpt>
      <trkpt lat="47.52928" lon="6.65127">
        <ele>420</ele>
        <time>2016-01-01T10:24:17.000Z</time>
      </trkpt>
      <trkpt lat="47.52919" lon="6.65131">
        <ele>420</ele>
        <time>2016-01-01T10:24:18.000Z</time>
      </trkpt>
      <trkpt lat="47.5291" lon="6.65133">
        <ele>414</ele>
        <time>2016-01-01T10:24:19.000Z</time>
      </trkpt>
      <trkpt lat="47.52902" lon="6.65138">
        <ele>414</ele>
        <time>2016-01-01T10:24:20.000Z</time>
      </trkpt>
      <trkpt lat="47.52895" lon="6.65139">
        <ele>413</ele>
        <time>2016-01-01T10:24:21.000Z</time>
      </trkpt>
      <trkpt lat="47.52891" lon="6.65141">
        <ele>413</ele>
        <time>2016-01-01T10:24:22.000Z</time>
      </trkpt>
      <trkpt lat="47.52884" lon="6.65149">
        <ele>413</ele>
        <time>2016-01-01T10:24:23.000Z</time>
      </trkpt>
      <trkpt lat="47.52879" lon="6.65154">
        <ele>413</ele>
        <time>2016-01-01T10:24:24.000Z</time>
      </trkpt>
      <trkpt lat="47.52876" lon="6.65156">
        <ele>412</ele>
        <time>2016-01-01T10:24:25.000Z</time>
      </trkpt>
      <trkpt lat="47.52874" lon="6.65157">
        <ele>412</ele>
        <time>2016-01-01T10:24:26.000Z</time>
      </trkpt>
      <trkpt lat="47.52871" lon="6.6516">
        <ele>412</ele>
        <time>2016-01-01T10:24:28.000Z</time>
      </trkpt>
      <trkpt lat="47.52869" lon="6.65162">
        <ele>412</ele>
        <time>2016-01-01T10:24:30.000Z</time>
      </trkpt>
      <trkpt lat="47.52866" lon="6.65164">
        <ele>412</ele>
        <time>2016-01-01T10:24:38.000Z</time>
      </trkpt>
      <trkpt lat="47.52865" lon="6.65165">
        <ele>412</ele>
        <time>2016-01-01T10:24:39.000Z</time>
      </trkpt>
      <trkpt lat="47.52862" lon="6.65166">
        <ele>411</ele>
        <time>2016-01-01T10:24:42.000Z</time>
      </trkpt>
      <trkpt lat="47.52861" lon="6.65167">
        <ele>412</ele>
        <time>2016-01-01T10:24:43.000Z</time>
      </trkpt>
      <trkpt lat="47.52858" lon="6.6517">
        <ele>412</ele>
        <time>2016-01-01T10:24:45.000Z</time>
      </trkpt>
      <trkpt lat="47.52856" lon="6.65172">
        <ele>412</ele>
        <time>2016-01-01T10:24:46.000Z</time>
      </trkpt>
      <trkpt lat="47.52853" lon="6.65175">
        <ele>411</ele>
        <time>2016-01-01T10:24:50.000Z</time>
      </trkpt>
      <trkpt lat="47.52852" lon="6.65175">
        <ele>411</ele>
        <time>2016-01-01T10:24:51.000Z</time>
      </trkpt>
      <trkpt lat="47.5285" lon="6.65177">
        <ele>411</ele>
        <time>2016-01-01T10:24:53.000Z</time>
      </trkpt>
      <trkpt lat="47.52848" lon="6.65179">
        <ele>411</ele>
        <time>2016-01-01T10:24:54.000Z</time>
      </trkpt>
      <trkpt lat="47.52845" lon="6.65181">
        <ele>411</ele>
        <time>2016-01-01T10:24:55.000Z</time>
      </trkpt>
      <trkpt lat="47.52842" lon="6.65184">
        <ele>411</ele>
        <time>2016-01-01T10:24:56.000Z</time>
      </trkpt>
      <trkpt lat="47.52839" lon="6.65186">
        <ele>411</ele>
        <time>2016-01-01T10:24:57.000Z</time>
      </trkpt>
      <trkpt lat="47.52835" lon="6.65189">
        <ele>411</ele>
        <time>2016-01-01T10:24:58.000Z</time>
      </trkpt>
      <trkpt lat="47.52831" lon="6.65192">
        <ele>405</ele>
        <time>2016-01-01T10:24:59.000Z</time>
      </trkpt>
      <trkpt lat="47.5282" lon="6.65199">
        <ele>404</ele>
        <time>2016-01-01T10:25:00.000Z</time>
      </trkpt>
      <trkpt lat="47.52814" lon="6.65204">
        <ele>404</ele>
        <time>2016-01-01T10:25:01.000Z</time>
      </trkpt>
      <trkpt lat="47.52809" lon="6.6521">
        <ele>404</ele>
        <time>2016-01-01T10:25:02.000Z</time>
      </trkpt>
      <trkpt lat="47.52802" lon="6.65219">
        <ele>403</ele>
        <time>2016-01-01T10:25:03.000Z</time>
      </trkpt>
      <trkpt lat="47.52798" lon="6.65224">
        <ele>403</ele>
        <time>2016-01-01T10:25:04.000Z</time>
      </trkpt>
      <trkpt lat="47.52792" lon="6.65227">
        <ele>402</ele>
        <time>2016-01-01T10:25:05.000Z</time>
      </trkpt>
      <trkpt lat="47.52786" lon="6.65227">
        <ele>402</ele>
        <time>2016-01-01T10:25:06.000Z</time>
      </trkpt>
      <trkpt lat="47.52781" lon="6.65226">
        <ele>402</ele>
        <time>2016-01-01T10:25:07.000Z</time>
      </trkpt>
      <trkpt lat="47.52776" lon="6.65226">
        <ele>401</ele>
        <time>2016-01-01T10:25:08.000Z</time>
      </trkpt>
      <trkpt lat="47.52772" lon="6.65222">
        <ele>401</ele>
        <time>2016-01-01T10:25:09.000Z</time>
      </trkpt>
      <trkpt lat="47.52768" lon="6.65211">
        <ele>401</ele>
        <time>2016-01-01T10:25:10.000Z</time>
      </trkpt>
      <trkpt lat="47.52762" lon="6.65207">
        <ele>401</ele>
        <time>2016-01-01T10:25:11.000Z</time>
      </trkpt>
      <trkpt lat="47.52758" lon="6.65204">
        <ele>401</ele>
        <time>2016-01-01T10:25:12.000Z</time>
      </trkpt>
      <trkpt lat="47.52756" lon="6.65198">
        <ele>400</ele>
        <time>2016-01-01T10:25:13.000Z</time>
      </trkpt>
      <trkpt lat="47.52754" lon="6.65194">
        <ele>400</ele>
        <time>2016-01-01T10:25:14.000Z</time>
      </trkpt>
      <trkpt lat="47.52753" lon="6.65194">
        <ele>400</ele>
        <time>2016-01-01T10:25:15.000Z</time>
      </trkpt>
      <trkpt lat="47.5275" lon="6.65195">
        <ele>393</ele>
        <time>2016-01-01T10:25:17.000Z</time>
      </trkpt>
      <trkpt lat="47.52747" lon="6.65198">
        <ele>393</ele>
        <time>2016-01-01T10:25:18.000Z</time>
      </trkpt>
      <trkpt lat="47.52745" lon="6.652">
        <ele>393</ele>
        <time>2016-01-01T10:25:19.000Z</time>
      </trkpt>
      <trkpt lat="47.52743" lon="6.65202">
        <ele>393</ele>
        <time>2016-01-01T10:25:20.000Z</time>
      </trkpt>
      <trkpt lat="47.52741" lon="6.65204">
        <ele>393</ele>
        <time>2016-01-01T10:25:21.000Z</time>
      </trkpt>
      <trkpt lat="47.52739" lon="6.65206">
        <ele>392</ele>
        <time>2016-01-01T10:25:22.000Z</time>
      </trkpt>
      <trkpt lat="47.52737" lon="6.65209">
        <ele>392</ele>
        <time>2016-01-01T10:25:23.000Z</time>
      </trkpt>
      <trkpt lat="47.5273" lon="6.65216">
        <ele>392</ele>
        <time>2016-01-01T10:25:24.000Z</time>
      </trkpt>
      <trkpt lat="47.52726" lon="6.6522">
        <ele>392</ele>
        <time>2016-01-01T10:25:25.000Z</time>
      </trkpt>
      <trkpt lat="47.52721" lon="6.65226">
        <ele>391</ele>
        <time>2016-01-01T10:25:26.000Z</time>
      </trkpt>
      <trkpt lat="47.52716" lon="6.65232">
        <ele>391</ele>
        <time>2016-01-01T10:25:27.000Z</time>
      </trkpt>
      <trkpt lat="47.52711" lon="6.65237">
        <ele>391</ele>
        <time>2016-01-01T10:25:28.000Z</time>
      </trkpt>
      <trkpt lat="47.52707" lon="6.65243">
        <ele>390</ele>
        <time>2016-01-01T10:25:29.000Z</time>
      </trkpt>
      <trkpt lat="47.52704" lon="6.65249">
        <ele>390</ele>
        <time>2016-01-01T10:25:30.000Z</time>
      </trkpt>
      <trkpt lat="47.527" lon="6.65256">
        <ele>388</ele>
        <time>2016-01-01T10:25:31.000Z</time>
      </trkpt>
      <trkpt lat="47.52695" lon="6.65262">
        <ele>388</ele>
        <time>2016-01-01T10:25:32.000Z</time>
      </trkpt>
      <trkpt lat="47.52691" lon="6.65269">
        <ele>388</ele>
        <time>2016-01-01T10:25:33.000Z</time>
      </trkpt>
      <trkpt lat="47.52687" lon="6.65276">
        <ele>387</ele>
        <time>2016-01-01T10:25:34.000Z</time>
      </trkpt>
      <trkpt lat="47.52682" lon="6.65282">
        <ele>387</ele>
        <time>2016-01-01T10:25:35.000Z</time>
      </trkpt>
      <trkpt lat="47.52677" lon="6.65287">
        <ele>387</ele>
        <time>2016-01-01T10:25:36.000Z</time>
      </trkpt>
      <trkpt lat="47.52671" lon="6.65291">
        <ele>387</ele>
        <time>2016-01-01T10:25:37.000Z</time>
      </trkpt>
      <trkpt lat="47.52666" lon="6.65295">
        <ele>381</ele>
        <time>2016-01-01T10:25:38.000Z</time>
      </trkpt>
      <trkpt lat="47.52659" lon="6.653">
        <ele>381</ele>
        <time>2016-01-01T10:25:39.000Z</time>
      </trkpt>
      <trkpt lat="47.52653" lon="6.65304">
        <ele>380</ele>
        <time>2016-01-01T10:25:40.001Z</time>
      </trkpt>
      <trkpt lat="47.52647" lon="6.65309">
        <ele>380</ele>
        <time>2016-01-01T10:25:41.000Z</time>
      </trkpt>
      <trkpt lat="47.52641" lon="6.65315">
        <ele>380</ele>
        <time>2016-01-01T10:25:42.000Z</time>
      </trkpt>
      <trkpt lat="47.52636" lon="6.65323">
        <ele>380</ele>
        <time>2016-01-01T10:25:43.000Z</time>
      </trkpt>
      <trkpt lat="47.52631" lon="6.65329">
        <ele>380</ele>
        <time>2016-01-01T10:25:44.000Z</time>
      </trkpt>
      <trkpt lat="47.52626" lon="6.65335">
        <ele>379</ele>
        <time>2016-01-01T10:25:45.000Z</time>
      </trkpt>
      <trkpt lat="47.52621" lon="6.65342">
        <ele>378</ele>
        <time>2016-01-01T10:25:46.000Z</time>
      </trkpt>
      <trkpt lat="47.52616" lon="6.65347">
        <ele>378</ele>
        <time>2016-01-01T10:25:47.000Z</time>
      </trkpt>
      <trkpt lat="47.52611" lon="6.65354">
        <ele>378</ele>
        <time>2016-01-01T10:25:48.000Z</time>
      </trkpt>
      <trkpt lat="47.52607" lon="6.65361">
        <ele>378</ele>
        <time>2016-01-01T10:25:49.000Z</time>
      </trkpt>
      <trkpt lat="47.52602" lon="6.65367">
        <ele>378</ele>
        <time>2016-01-01T10:25:50.000Z</time>
      </trkpt>
      <trkpt lat="47.52598" lon="6.65376">
        <ele>377</ele>
        <time>2016-01-01T10:25:51.000Z</time>
      </trkpt>
      <trkpt lat="47.52594" lon="6.65384">
        <ele>377</ele>
        <time>2016-01-01T10:25:52.000Z</time>
      </trkpt>
      <trkpt lat="47.52591" lon="6.6539">
        <ele>377</ele>
        <time>2016-01-01T10:25:53.000Z</time>
      </trkpt>
      <trkpt lat="47.52587" lon="6.65397">
        <ele>376</ele>
        <time>2016-01-01T10:25:54.000Z</time>
      </trkpt>
      <trkpt lat="47.52584" lon="6.65406">
        <ele>375</ele>
        <time>2016-01-01T10:25:55.000Z</time>
      </trkpt>
      <trkpt lat="47.5258" lon="6.65414">
        <ele>374</ele>
        <time>2016-01-01T10:25:56.000Z</time>
      </trkpt>
      <trkpt lat="47.52577" lon="6.65423">
        <ele>373</ele>
        <time>2016-01-01T10:25:57.000Z</time>
      </trkpt>
      <trkpt lat="47.52573" lon="6.65431">
        <ele>373</ele>
        <time>2016-01-01T10:25:58.000Z</time>
      </trkpt>
      <trkpt lat="47.52569" lon="6.65442">
        <ele>372</ele>
        <time>2016-01-01T10:25:59.000Z</time>
      </trkpt>
      <trkpt lat="47.52566" lon="6.65451">
        <ele>372</ele>
        <time>2016-01-01T10:26:00.000Z</time>
      </trkpt>
      <trkpt lat="47.52562" lon="6.65462">
        <ele>371</ele>
        <time>2016-01-01T10:26:00.999Z</time>
      </trkpt>
      <trkpt lat="47.5256" lon="6.6547">
        <ele>371</ele>
        <time>2016-01-01T10:26:02.000Z</time>
      </trkpt>
      <trkpt lat="47.52557" lon="6.65481">
        <ele>371</ele>
        <time>2016-01-01T10:26:03.000Z</time>
      </trkpt>
      <trkpt lat="47.52554" lon="6.6549">
        <ele>371</ele>
        <time>2016-01-01T10:26:04.000Z</time>
      </trkpt>
      <trkpt lat="47.5255" lon="6.65498">
        <ele>371</ele>
        <time>2016-01-01T10:26:05.000Z</time>
      </trkpt>
      <trkpt lat="47.52547" lon="6.65507">
        <ele>369</ele>
        <time>2016-01-01T10:26:06.000Z</time>
      </trkpt>
      <trkpt lat="47.52543" lon="6.65515">
        <ele>369</ele>
        <time>2016-01-01T10:26:07.000Z</time>
      </trkpt>
      <trkpt lat="47.52539" lon="6.65524">
        <ele>369</ele>
        <time>2016-01-01T10:26:08.000Z</time>
      </trkpt>
      <trkpt lat="47.52537" lon="6.65532">
        <ele>369</ele>
        <time>2016-01-01T10:26:09.000Z</time>
      </trkpt>
      <trkpt lat="47.52534" lon="6.65541">
        <ele>369</ele>
        <time>2016-01-01T10:26:10.000Z</time>
      </trkpt>
      <trkpt lat="47.5253" lon="6.6555">
        <ele>369</ele>
        <time>2016-01-01T10:26:11.000Z</time>
      </trkpt>
      <trkpt lat="47.52526" lon="6.65556">
        <ele>369</ele>
        <time>2016-01-01T10:26:12.000Z</time>
      </trkpt>
      <trkpt lat="47.5252" lon="6.65564">
        <ele>369</ele>
        <time>2016-01-01T10:26:13.000Z</time>
      </trkpt>
      <trkpt lat="47.52517" lon="6.65573">
        <ele>368</ele>
        <time>2016-01-01T10:26:14.000Z</time>
      </trkpt>
      <trkpt lat="47.52513" lon="6.65583">
        <ele>368</ele>
        <time>2016-01-01T10:26:15.000Z</time>
      </trkpt>
      <trkpt lat="47.52509" lon="6.65591">
        <ele>368</ele>
        <time>2016-01-01T10:26:16.000Z</time>
      </trkpt>
      <trkpt lat="47.52505" lon="6.65599">
        <ele>368</ele>
        <time>2016-01-01T10:26:17.000Z</time>
      </trkpt>
      <trkpt lat="47.52501" lon="6.65607">
        <ele>367</ele>
        <time>2016-01-01T10:26:18.000Z</time>
      </trkpt>
      <trkpt lat="47.52498" lon="6.65616">
        <ele>366</ele>
        <time>2016-01-01T10:26:19.000Z</time>
      </trkpt>
      <trkpt lat="47.52494" lon="6.65623">
        <ele>366</ele>
        <time>2016-01-01T10:26:20.000Z</time>
      </trkpt>
      <trkpt lat="47.5249" lon="6.6563">
        <ele>366</ele>
        <time>2016-01-01T10:26:21.000Z</time>
      </trkpt>
      <trkpt lat="47.52487" lon="6.65637">
        <ele>366</ele>
        <time>2016-01-01T10:26:22.000Z</time>
      </trkpt>
      <trkpt lat="47.52484" lon="6.65644">
        <ele>366</ele>
        <time>2016-01-01T10:26:23.000Z</time>
      </trkpt>
      <trkpt lat="47.52481" lon="6.65652">
        <ele>366</ele>
        <time>2016-01-01T10:26:24.000Z</time>
      </trkpt>
      <trkpt lat="47.52478" lon="6.65659">
        <ele>366</ele>
        <time>2016-01-01T10:26:25.000Z</time>
      </trkpt>
      <trkpt lat="47.52474" lon="6.65667">
        <ele>366</ele>
        <time>2016-01-01T10:26:26.000Z</time>
      </trkpt>
      <trkpt lat="47.5247" lon="6.65675">
        <ele>365</ele>
        <time>2016-01-01T10:26:27.000Z</time>
      </trkpt>
      <trkpt lat="47.52466" lon="6.65683">
        <ele>365</ele>
        <time>2016-01-01T10:26:28.000Z</time>
      </trkpt>
      <trkpt lat="47.52463" lon="6.6569">
        <ele>365</ele>
        <time>2016-01-01T10:26:29.000Z</time>
      </trkpt>
      <trkpt lat="47.5246" lon="6.65697">
        <ele>365</ele>
        <time>2016-01-01T10:26:30.000Z</time>
      </trkpt>
      <trkpt lat="47.52457" lon="6.65704">
        <ele>365</ele>
        <time>2016-01-01T10:26:30.999Z</time>
      </trkpt>
      <trkpt lat="47.52454" lon="6.65712">
        <ele>365</ele>
        <time>2016-01-01T10:26:32.000Z</time>
      </trkpt>
      <trkpt lat="47.52451" lon="6.6572">
        <ele>365</ele>
        <time>2016-01-01T10:26:33.000Z</time>
      </trkpt>
      <trkpt lat="47.52449" lon="6.65726">
        <ele>365</ele>
        <time>2016-01-01T10:26:34.000Z</time>
      </trkpt>
      <trkpt lat="47.52445" lon="6.65733">
        <ele>365</ele>
        <time>2016-01-01T10:26:35.000Z</time>
      </trkpt>
      <trkpt lat="47.52441" lon="6.65739">
        <ele>365</ele>
        <time>2016-01-01T10:26:36.000Z</time>
      </trkpt>
      <trkpt lat="47.52438" lon="6.65746">
        <ele>365</ele>
        <time>2016-01-01T10:26:37.000Z</time>
      </trkpt>
      <trkpt lat="47.52434" lon="6.65754">
        <ele>365</ele>
        <time>2016-01-01T10:26:38.000Z</time>
      </trkpt>
      <trkpt lat="47.52431" lon="6.65761">
        <ele>365</ele>
        <time>2016-01-01T10:26:39.000Z</time>
      </trkpt>
      <trkpt lat="47.52428" lon="6.65769">
        <ele>365</ele>
        <time>2016-01-01T10:26:40.000Z</time>
      </trkpt>
      <trkpt lat="47.52424" lon="6.65773">
        <ele>365</ele>
        <time>2016-01-01T10:26:41.000Z</time>
      </trkpt>
      <trkpt lat="47.5242" lon="6.65777">
        <ele>365</ele>
        <time>2016-01-01T10:26:42.001Z</time>
      </trkpt>
      <trkpt lat="47.52414" lon="6.65773">
        <ele>365</ele>
        <time>2016-01-01T10:26:43.000Z</time>
      </trkpt>
      <trkpt lat="47.5241" lon="6.6577">
        <ele>365</ele>
        <time>2016-01-01T10:26:44.000Z</time>
      </trkpt>
      <trkpt lat="47.52405" lon="6.65764">
        <ele>365</ele>
        <time>2016-01-01T10:26:45.000Z</time>
      </trkpt>
      <trkpt lat="47.52401" lon="6.65757">
        <ele>365</ele>
        <time>2016-01-01T10:26:46.000Z</time>
      </trkpt>
      <trkpt lat="47.52397" lon="6.65749">
        <ele>365</ele>
        <time>2016-01-01T10:26:47.000Z</time>
      </trkpt>
      <trkpt lat="47.52392" lon="6.65742">
        <ele>365</ele>
        <time>2016-01-01T10:26:48.000Z</time>
      </trkpt>
      <trkpt lat="47.52387" lon="6.65735">
        <ele>365</ele>
        <time>2016-01-01T10:26:49.000Z</time>
      </trkpt>
      <trkpt lat="47.52382" lon="6.65728">
        <ele>365</ele>
        <time>2016-01-01T10:26:50.000Z</time>
      </trkpt>
      <trkpt lat="47.52378" lon="6.65721">
        <ele>365</ele>
        <time>2016-01-01T10:26:51.000Z</time>
      </trkpt>
      <trkpt lat="47.52373" lon="6.65715">
        <ele>365</ele>
        <time>2016-01-01T10:26:52.000Z</time>
      </trkpt>
      <trkpt lat="47.52368" lon="6.65709">
        <ele>365</ele>
        <time>2016-01-01T10:26:53.000Z</time>
      </trkpt>
      <trkpt lat="47.52364" lon="6.65701">
        <ele>365</ele>
        <time>2016-01-01T10:26:54.000Z</time>
      </trkpt>
      <trkpt lat="47.52359" lon="6.65694">
        <ele>365</ele>
        <time>2016-01-01T10:26:55.000Z</time>
      </trkpt>
      <trkpt lat="47.52355" lon="6.65687">
        <ele>365</ele>
        <time>2016-01-01T10:26:56.000Z</time>
      </trkpt>
      <trkpt lat="47.52351" lon="6.65681">
        <ele>365</ele>
        <time>2016-01-01T10:26:57.000Z</time>
      </trkpt>
      <trkpt lat="47.52347" lon="6.65675">
        <ele>365</ele>
        <time>2016-01-01T10:26:58.000Z</time>
      </trkpt>
      <trkpt lat="47.52342" lon="6.6567">
        <ele>365</ele>
        <time>2016-01-01T10:26:59.000Z</time>
      </trkpt>
      <trkpt lat="47.52338" lon="6.65663">
        <ele>365</ele>
        <time>2016-01-01T10:27:00.000Z</time>
      </trkpt>
      <trkpt lat="47.52333" lon="6.65657">
        <ele>365</ele>
        <time>2016-01-01T10:27:01.000Z</time>
      </trkpt>
      <trkpt lat="47.52329" lon="6.6565">
        <ele>365</ele>
        <time>2016-01-01T10:27:02.000Z</time>
      </trkpt>
      <trkpt lat="47.52325" lon="6.65644">
        <ele>365</ele>
        <time>2016-01-01T10:27:03.000Z</time>
      </trkpt>
      <trkpt lat="47.52322" lon="6.65639">
        <ele>365</ele>
        <time>2016-01-01T10:27:04.000Z</time>
      </trkpt>
      <trkpt lat="47.52318" lon="6.65634">
        <ele>365</ele>
        <time>2016-01-01T10:27:05.000Z</time>
      </trkpt>
      <trkpt lat="47.52314" lon="6.65628">
        <ele>365</ele>
        <time>2016-01-01T10:27:06.000Z</time>
      </trkpt>
      <trkpt lat="47.5231" lon="6.65622">
        <ele>365</ele>
        <time>2016-01-01T10:27:07.000Z</time>
      </trkpt>
      <trkpt lat="47.52307" lon="6.65618">
        <ele>365</ele>
        <time>2016-01-01T10:27:08.000Z</time>
      </trkpt>
      <trkpt lat="47.52303" lon="6.65612">
        <ele>365</ele>
        <time>2016-01-01T10:27:09.000Z</time>
      </trkpt>
      <trkpt lat="47.523" lon="6.65606">
        <ele>365</ele>
        <time>2016-01-01T10:27:09.999Z</time>
      </trkpt>
      <trkpt lat="47.52296" lon="6.656">
        <ele>365</ele>
        <time>2016-01-01T10:27:11.000Z</time>
      </trkpt>
      <trkpt lat="47.52292" lon="6.65595">
        <ele>365</ele>
        <time>2016-01-01T10:27:12.000Z</time>
      </trkpt>
      <trkpt lat="47.52289" lon="6.65588">
        <ele>365</ele>
        <time>2016-01-01T10:27:13.000Z</time>
      </trkpt>
      <trkpt lat="47.52285" lon="6.65582">
        <ele>365</ele>
        <time>2016-01-01T10:27:14.000Z</time>
      </trkpt>
      <trkpt lat="47.52282" lon="6.65575">
        <ele>365</ele>
        <time>2016-01-01T10:27:15.000Z</time>
      </trkpt>
      <trkpt lat="47.52278" lon="6.65569">
        <ele>365</ele>
        <time>2016-01-01T10:27:16.000Z</time>
      </trkpt>
      <trkpt lat="47.52275" lon="6.65563">
        <ele>365</ele>
        <time>2016-01-01T10:27:17.000Z</time>
      </trkpt>
      <trkpt lat="47.52272" lon="6.65557">
        <ele>365</ele>
        <time>2016-01-01T10:27:18.000Z</time>
      </trkpt>
      <trkpt lat="47.52268" lon="6.65551">
        <ele>365</ele>
        <time>2016-01-01T10:27:19.000Z</time>
      </trkpt>
      <trkpt lat="47.52266" lon="6.65545">
        <ele>365</ele>
        <time>2016-01-01T10:27:20.000Z</time>
      </trkpt>
      <trkpt lat="47.52263" lon="6.65539">
        <ele>365</ele>
        <time>2016-01-01T10:27:21.000Z</time>
      </trkpt>
      <trkpt lat="47.5226" lon="6.65534">
        <ele>365</ele>
        <time>2016-01-01T10:27:22.000Z</time>
      </trkpt>
      <trkpt lat="47.52257" lon="6.65528">
        <ele>365</ele>
        <time>2016-01-01T10:27:23.000Z</time>
      </trkpt>
      <trkpt lat="47.52254" lon="6.65522">
        <ele>366</ele>
        <time>2016-01-01T10:27:24.000Z</time>
      </trkpt>
      <trkpt lat="47.52252" lon="6.65516">
        <ele>366</ele>
        <time>2016-01-01T10:27:25.000Z</time>
      </trkpt>
      <trkpt lat="47.52249" lon="6.6551">
        <ele>366</ele>
        <time>2016-01-01T10:27:26.000Z</time>
      </trkpt>
      <trkpt lat="47.52247" lon="6.65505">
        <ele>366</ele>
        <time>2016-01-01T10:27:27.000Z</time>
      </trkpt>
      <trkpt lat="47.52245" lon="6.655">
        <ele>366</ele>
        <time>2016-01-01T10:27:28.000Z</time>
      </trkpt>
      <trkpt lat="47.52242" lon="6.65494">
        <ele>366</ele>
        <time>2016-01-01T10:27:29.000Z</time>
      </trkpt>
      <trkpt lat="47.5224" lon="6.65489">
        <ele>365</ele>
        <time>2016-01-01T10:27:30.000Z</time>
      </trkpt>
      <trkpt lat="47.52238" lon="6.65483">
        <ele>365</ele>
        <time>2016-01-01T10:27:31.000Z</time>
      </trkpt>
      <trkpt lat="47.52236" lon="6.65479">
        <ele>365</ele>
        <time>2016-01-01T10:27:32.000Z</time>
      </trkpt>
      <trkpt lat="47.52233" lon="6.65475">
        <ele>365</ele>
        <time>2016-01-01T10:27:33.000Z</time>
      </trkpt>
      <trkpt lat="47.5223" lon="6.65474">
        <ele>365</ele>
        <time>2016-01-01T10:27:34.000Z</time>
      </trkpt>
      <trkpt lat="47.52227" lon="6.65472">
        <ele>365</ele>
        <time>2016-01-01T10:27:35.000Z</time>
      </trkpt>
      <trkpt lat="47.52224" lon="6.6547">
        <ele>365</ele>
        <time>2016-01-01T10:27:36.000Z</time>
      </trkpt>
      <trkpt lat="47.52221" lon="6.6547">
        <ele>365</ele>
        <time>2016-01-01T10:27:37.000Z</time>
      </trkpt>
      <trkpt lat="47.52218" lon="6.65469">
        <ele>365</ele>
        <time>2016-01-01T10:27:38.000Z</time>
      </trkpt>
      <trkpt lat="47.52213" lon="6.65471">
        <ele>365</ele>
        <time>2016-01-01T10:27:39.000Z</time>
      </trkpt>
      <trkpt lat="47.52209" lon="6.65476">
        <ele>365</ele>
        <time>2016-01-01T10:27:40.000Z</time>
      </trkpt>
      <trkpt lat="47.52205" lon="6.65479">
        <ele>365</ele>
        <time>2016-01-01T10:27:41.000Z</time>
      </trkpt>
      <trkpt lat="47.522" lon="6.65483">
        <ele>365</ele>
        <time>2016-01-01T10:27:42.000Z</time>
      </trkpt>
      <trkpt lat="47.52197" lon="6.65484">
        <ele>365</ele>
        <time>2016-01-01T10:27:43.000Z</time>
      </trkpt>
      <trkpt lat="47.52193" lon="6.65486">
        <ele>365</ele>
        <time>2016-01-01T10:27:44.000Z</time>
      </trkpt>
      <trkpt lat="47.52189" lon="6.65488">
        <ele>365</ele>
        <time>2016-01-01T10:27:45.000Z</time>
      </trkpt>
      <trkpt lat="47.52185" lon="6.65489">
        <ele>365</ele>
        <time>2016-01-01T10:27:45.999Z</time>
      </trkpt>
      <trkpt lat="47.52183" lon="6.65489">
        <ele>365</ele>
        <time>2016-01-01T10:27:47.000Z</time>
      </trkpt>
      <trkpt lat="47.52179" lon="6.6549">
        <ele>365</ele>
        <time>2016-01-01T10:27:48.000Z</time>
      </trkpt>
      <trkpt lat="47.52176" lon="6.6549">
        <ele>365</ele>
        <time>2016-01-01T10:27:49.000Z</time>
      </trkpt>
      <trkpt lat="47.52172" lon="6.65491">
        <ele>365</ele>
        <time>2016-01-01T10:27:50.000Z</time>
      </trkpt>
      <trkpt lat="47.52169" lon="6.65491">
        <ele>365</ele>
        <time>2016-01-01T10:27:51.000Z</time>
      </trkpt>
      <trkpt lat="47.52166" lon="6.65492">
        <ele>365</ele>
        <time>2016-01-01T10:27:52.000Z</time>
      </trkpt>
      <trkpt lat="47.52163" lon="6.65493">
        <ele>365</ele>
        <time>2016-01-01T10:27:53.000Z</time>
      </trkpt>
      <trkpt lat="47.52161" lon="6.65494">
        <ele>365</ele>
        <time>2016-01-01T10:27:54.000Z</time>
      </trkpt>
      <trkpt lat="47.52158" lon="6.65494">
        <ele>365</ele>
        <time>2016-01-01T10:27:55.000Z</time>
      </trkpt>
      <trkpt lat="47.52155" lon="6.65494">
        <ele>365</ele>
        <time>2016-01-01T10:27:56.000Z</time>
      </trkpt>
      <trkpt lat="47.52153" lon="6.65494">
        <ele>365</ele>
        <time>2016-01-01T10:27:57.000Z</time>
      </trkpt>
      <trkpt lat="47.5215" lon="6.65494">
        <ele>365</ele>
        <time>2016-01-01T10:27:58.000Z</time>
      </trkpt>
      <trkpt lat="47.52147" lon="6.65496">
        <ele>365</ele>
        <time>2016-01-01T10:27:59.000Z</time>
      </trkpt>
      <trkpt lat="47.52144" lon="6.655">
        <ele>365</ele>
        <time>2016-01-01T10:28:00.000Z</time>
      </trkpt>
      <trkpt lat="47.52141" lon="6.65503">
        <ele>365</ele>
        <time>2016-01-01T10:28:01.000Z</time>
      </trkpt>
      <trkpt lat="47.52138" lon="6.65508">
        <ele>365</ele>
        <time>2016-01-01T10:28:02.000Z</time>
      </trkpt>
      <trkpt lat="47.52135" lon="6.65512">
        <ele>365</ele>
        <time>2016-01-01T10:28:03.000Z</time>
      </trkpt>
      <trkpt lat="47.52133" lon="6.65516">
        <ele>365</ele>
        <time>2016-01-01T10:28:04.000Z</time>
      </trkpt>
      <trkpt lat="47.5213" lon="6.65521">
        <ele>365</ele>
        <time>2016-01-01T10:28:05.000Z</time>
      </trkpt>
      <trkpt lat="47.52127" lon="6.65525">
        <ele>365</ele>
        <time>2016-01-01T10:28:06.000Z</time>
      </trkpt>
      <trkpt lat="47.52124" lon="6.6553">
        <ele>365</ele>
        <time>2016-01-01T10:28:07.000Z</time>
      </trkpt>
      <trkpt lat="47.52121" lon="6.65535">
        <ele>365</ele>
        <time>2016-01-01T10:28:08.000Z</time>
      </trkpt>
      <trkpt lat="47.52118" lon="6.65539">
        <ele>365</ele>
        <time>2016-01-01T10:28:09.000Z</time>
      </trkpt>
      <trkpt lat="47.52116" lon="6.65544">
        <ele>366</ele>
        <time>2016-01-01T10:28:10.000Z</time>
      </trkpt>
      <trkpt lat="47.52113" lon="6.65548">
        <ele>366</ele>
        <time>2016-01-01T10:28:11.000Z</time>
      </trkpt>
      <trkpt lat="47.5211" lon="6.65554">
        <ele>366</ele>
        <time>2016-01-01T10:28:12.000Z</time>
      </trkpt>
      <trkpt lat="47.52107" lon="6.65559">
        <ele>366</ele>
        <time>2016-01-01T10:28:13.000Z</time>
      </trkpt>
      <trkpt lat="47.52104" lon="6.65563">
        <ele>366</ele>
        <time>2016-01-01T10:28:14.000Z</time>
      </trkpt>
      <trkpt lat="47.52101" lon="6.65568">
        <ele>366</ele>
        <time>2016-01-01T10:28:15.000Z</time>
      </trkpt>
      <trkpt lat="47.52099" lon="6.65573">
        <ele>366</ele>
        <time>2016-01-01T10:28:16.000Z</time>
      </trkpt>
      <trkpt lat="47.52096" lon="6.65578">
        <ele>366</ele>
        <time>2016-01-01T10:28:17.000Z</time>
      </trkpt>
      <trkpt lat="47.52092" lon="6.65581">
        <ele>366</ele>
        <time>2016-01-01T10:28:18.000Z</time>
      </trkpt>
      <trkpt lat="47.5209" lon="6.65586">
        <ele>366</ele>
        <time>2016-01-01T10:28:19.000Z</time>
      </trkpt>
      <trkpt lat="47.52087" lon="6.65591">
        <ele>366</ele>
        <time>2016-01-01T10:28:20.000Z</time>
      </trkpt>
      <trkpt lat="47.52084" lon="6.65595">
        <ele>366</ele>
        <time>2016-01-01T10:28:21.000Z</time>
      </trkpt>
      <trkpt lat="47.52081" lon="6.65601">
        <ele>365</ele>
        <time>2016-01-01T10:28:22.000Z</time>
      </trkpt>
      <trkpt lat="47.52078" lon="6.65605">
        <ele>365</ele>
        <time>2016-01-01T10:28:23.000Z</time>
      </trkpt>
      <trkpt lat="47.52075" lon="6.65609">
        <ele>365</ele>
        <time>2016-01-01T10:28:24.000Z</time>
      </trkpt>
      <trkpt lat="47.52071" lon="6.65613">
        <ele>365</ele>
        <time>2016-01-01T10:28:24.999Z</time>
      </trkpt>
      <trkpt lat="47.52068" lon="6.65613">
        <ele>365</ele>
        <time>2016-01-01T10:28:26.000Z</time>
      </trkpt>
      <trkpt lat="47.52064" lon="6.65612">
        <ele>365</ele>
        <time>2016-01-01T10:28:27.000Z</time>
      </trkpt>
      <trkpt lat="47.52061" lon="6.6561">
        <ele>365</ele>
        <time>2016-01-01T10:28:28.000Z</time>
      </trkpt>
      <trkpt lat="47.52059" lon="6.65605">
        <ele>365</ele>
        <time>2016-01-01T10:28:29.000Z</time>
      </trkpt>
      <trkpt lat="47.52057" lon="6.656">
        <ele>365</ele>
        <time>2016-01-01T10:28:30.000Z</time>
      </trkpt>
      <trkpt lat="47.52054" lon="6.65596">
        <ele>365</ele>
        <time>2016-01-01T10:28:31.000Z</time>
      </trkpt>
      <trkpt lat="47.52052" lon="6.65591">
        <ele>364</ele>
        <time>2016-01-01T10:28:32.000Z</time>
      </trkpt>
      <trkpt lat="47.5205" lon="6.65587">
        <ele>364</ele>
        <time>2016-01-01T10:28:33.000Z</time>
      </trkpt>
      <trkpt lat="47.52048" lon="6.65583">
        <ele>364</ele>
        <time>2016-01-01T10:28:34.000Z</time>
      </trkpt>
      <trkpt lat="47.52047" lon="6.65578">
        <ele>364</ele>
        <time>2016-01-01T10:28:35.000Z</time>
      </trkpt>
      <trkpt lat="47.52046" lon="6.65575">
        <ele>364</ele>
        <time>2016-01-01T10:28:36.000Z</time>
      </trkpt>
      <trkpt lat="47.52044" lon="6.65569">
        <ele>364</ele>
        <time>2016-01-01T10:28:38.000Z</time>
      </trkpt>
      <trkpt lat="47.52043" lon="6.65566">
        <ele>364</ele>
        <time>2016-01-01T10:28:39.000Z</time>
      </trkpt>
      <trkpt lat="47.52041" lon="6.65561">
        <ele>364</ele>
        <time>2016-01-01T10:28:41.000Z</time>
      </trkpt>
      <trkpt lat="47.5204" lon="6.65558">
        <ele>364</ele>
        <time>2016-01-01T10:28:42.000Z</time>
      </trkpt>
      <trkpt lat="47.52037" lon="6.65554">
        <ele>364</ele>
        <time>2016-01-01T10:28:43.000Z</time>
      </trkpt>
      <trkpt lat="47.52032" lon="6.65552">
        <ele>364</ele>
        <time>2016-01-01T10:28:44.000Z</time>
      </trkpt>
      <trkpt lat="47.52028" lon="6.6555">
        <ele>364</ele>
        <time>2016-01-01T10:28:45.000Z</time>
      </trkpt>
      <trkpt lat="47.52025" lon="6.65547">
        <ele>364</ele>
        <time>2016-01-01T10:28:46.000Z</time>
      </trkpt>
      <trkpt lat="47.52023" lon="6.65539">
        <ele>364</ele>
        <time>2016-01-01T10:28:47.000Z</time>
      </trkpt>
      <trkpt lat="47.52021" lon="6.65535">
        <ele>364</ele>
        <time>2016-01-01T10:28:48.000Z</time>
      </trkpt>
      <trkpt lat="47.52018" lon="6.65529">
        <ele>364</ele>
        <time>2016-01-01T10:28:49.000Z</time>
      </trkpt>
      <trkpt lat="47.52015" lon="6.65524">
        <ele>364</ele>
        <time>2016-01-01T10:28:50.000Z</time>
      </trkpt>
      <trkpt lat="47.52012" lon="6.65519">
        <ele>364</ele>
        <time>2016-01-01T10:28:51.000Z</time>
      </trkpt>
      <trkpt lat="47.52009" lon="6.65517">
        <ele>364</ele>
        <time>2016-01-01T10:28:52.000Z</time>
      </trkpt>
      <trkpt lat="47.52006" lon="6.65514">
        <ele>364</ele>
        <time>2016-01-01T10:28:53.000Z</time>
      </trkpt>
      <trkpt lat="47.52001" lon="6.65517">
        <ele>364</ele>
        <time>2016-01-01T10:28:54.000Z</time>
      </trkpt>
      <trkpt lat="47.51997" lon="6.65522">
        <ele>363</ele>
        <time>2016-01-01T10:28:55.000Z</time>
      </trkpt>
      <trkpt lat="47.51992" lon="6.65526">
        <ele>362</ele>
        <time>2016-01-01T10:28:56.000Z</time>
      </trkpt>
      <trkpt lat="47.51988" lon="6.6553">
        <ele>362</ele>
        <time>2016-01-01T10:28:57.000Z</time>
      </trkpt>
      <trkpt lat="47.51984" lon="6.65533">
        <ele>362</ele>
        <time>2016-01-01T10:28:58.000Z</time>
      </trkpt>
      <trkpt lat="47.51978" lon="6.65538">
        <ele>362</ele>
        <time>2016-01-01T10:28:59.000Z</time>
      </trkpt>
      <trkpt lat="47.51973" lon="6.65539">
        <ele>362</ele>
        <time>2016-01-01T10:29:00.000Z</time>
      </trkpt>
      <trkpt lat="47.51968" lon="6.65542">
        <ele>362</ele>
        <time>2016-01-01T10:29:01.000Z</time>
      </trkpt>
      <trkpt lat="47.51964" lon="6.65549">
        <ele>362</ele>
        <time>2016-01-01T10:29:02.000Z</time>
      </trkpt>
      <trkpt lat="47.5196" lon="6.65555">
        <ele>361</ele>
        <time>2016-01-01T10:29:03.000Z</time>
      </trkpt>
      <trkpt lat="47.51956" lon="6.65559">
        <ele>361</ele>
        <time>2016-01-01T10:29:04.000Z</time>
      </trkpt>
      <trkpt lat="47.51951" lon="6.65564">
        <ele>361</ele>
        <time>2016-01-01T10:29:05.000Z</time>
      </trkpt>
      <trkpt lat="47.51947" lon="6.65568">
        <ele>361</ele>
        <time>2016-01-01T10:29:06.000Z</time>
      </trkpt>
      <trkpt lat="47.51943" lon="6.65572">
        <ele>361</ele>
        <time>2016-01-01T10:29:07.000Z</time>
      </trkpt>
      <trkpt lat="47.51939" lon="6.65576">
        <ele>361</ele>
        <time>2016-01-01T10:29:08.000Z</time>
      </trkpt>
      <trkpt lat="47.51935" lon="6.6558">
        <ele>361</ele>
        <time>2016-01-01T10:29:09.000Z</time>
      </trkpt>
      <trkpt lat="47.51931" lon="6.65585">
        <ele>361</ele>
        <time>2016-01-01T10:29:10.000Z</time>
      </trkpt>
      <trkpt lat="47.51927" lon="6.6559">
        <ele>361</ele>
        <time>2016-01-01T10:29:11.000Z</time>
      </trkpt>
      <trkpt lat="47.51923" lon="6.65594">
        <ele>361</ele>
        <time>2016-01-01T10:29:12.000Z</time>
      </trkpt>
      <trkpt lat="47.51919" lon="6.65599">
        <ele>361</ele>
        <time>2016-01-01T10:29:13.000Z</time>
      </trkpt>
      <trkpt lat="47.51914" lon="6.65602">
        <ele>361</ele>
        <time>2016-01-01T10:29:14.000Z</time>
      </trkpt>
      <trkpt lat="47.51911" lon="6.65607">
        <ele>361</ele>
        <time>2016-01-01T10:29:15.000Z</time>
      </trkpt>
      <trkpt lat="47.51906" lon="6.65611">
        <ele>361</ele>
        <time>2016-01-01T10:29:16.000Z</time>
      </trkpt>
      <trkpt lat="47.51902" lon="6.65613">
        <ele>361</ele>
        <time>2016-01-01T10:29:17.000Z</time>
      </trkpt>
      <trkpt lat="47.51897" lon="6.65614">
        <ele>361</ele>
        <time>2016-01-01T10:29:18.000Z</time>
      </trkpt>
      <trkpt lat="47.51893" lon="6.65611">
        <ele>361</ele>
        <time>2016-01-01T10:29:19.000Z</time>
      </trkpt>
      <trkpt lat="47.51889" lon="6.65606">
        <ele>361</ele>
        <time>2016-01-01T10:29:20.000Z</time>
      </trkpt>
      <trkpt lat="47.51885" lon="6.65601">
        <ele>361</ele>
        <time>2016-01-01T10:29:21.000Z</time>
      </trkpt>
      <trkpt lat="47.51881" lon="6.65596">
        <ele>361</ele>
        <time>2016-01-01T10:29:22.000Z</time>
      </trkpt>
      <trkpt lat="47.51877" lon="6.6559">
        <ele>361</ele>
        <time>2016-01-01T10:29:23.000Z</time>
      </trkpt>
      <trkpt lat="47.51873" lon="6.65586">
        <ele>361</ele>
        <time>2016-01-01T10:29:24.000Z</time>
      </trkpt>
      <trkpt lat="47.5187" lon="6.65581">
        <ele>360</ele>
        <time>2016-01-01T10:29:25.000Z</time>
      </trkpt>
      <trkpt lat="47.51865" lon="6.65577">
        <ele>360</ele>
        <time>2016-01-01T10:29:26.000Z</time>
      </trkpt>
      <trkpt lat="47.51861" lon="6.65573">
        <ele>360</ele>
        <time>2016-01-01T10:29:27.000Z</time>
      </trkpt>
      <trkpt lat="47.51856" lon="6.65567">
        <ele>360</ele>
        <time>2016-01-01T10:29:28.000Z</time>
      </trkpt>
      <trkpt lat="47.51852" lon="6.65563">
        <ele>360</ele>
        <time>2016-01-01T10:29:29.000Z</time>
      </trkpt>
      <trkpt lat="47.51847" lon="6.65559">
        <ele>360</ele>
        <time>2016-01-01T10:29:30.000Z</time>
      </trkpt>
      <trkpt lat="47.51841" lon="6.65555">
        <ele>360</ele>
        <time>2016-01-01T10:29:31.000Z</time>
      </trkpt>
      <trkpt lat="47.51837" lon="6.65551">
        <ele>360</ele>
        <time>2016-01-01T10:29:32.000Z</time>
      </trkpt>
      <trkpt lat="47.51832" lon="6.65548">
        <ele>360</ele>
        <time>2016-01-01T10:29:33.000Z</time>
      </trkpt>
      <trkpt lat="47.51827" lon="6.65545">
        <ele>360</ele>
        <time>2016-01-01T10:29:33.999Z</time>
      </trkpt>
      <trkpt lat="47.5182" lon="6.65542">
        <ele>360</ele>
        <time>2016-01-01T10:29:35.000Z</time>
      </trkpt>
      <trkpt lat="47.51815" lon="6.65539">
        <ele>360</ele>
        <time>2016-01-01T10:29:36.000Z</time>
      </trkpt>
      <trkpt lat="47.5181" lon="6.65536">
        <ele>360</ele>
        <time>2016-01-01T10:29:37.000Z</time>
      </trkpt>
      <trkpt lat="47.51805" lon="6.65534">
        <ele>360</ele>
        <time>2016-01-01T10:29:38.000Z</time>
      </trkpt>
      <trkpt lat="47.51799" lon="6.65531">
        <ele>360</ele>
        <time>2016-01-01T10:29:39.000Z</time>
      </trkpt>
      <trkpt lat="47.51794" lon="6.65528">
        <ele>360</ele>
        <time>2016-01-01T10:29:40.000Z</time>
      </trkpt>
      <trkpt lat="47.5179" lon="6.65525">
        <ele>360</ele>
        <time>2016-01-01T10:29:41.000Z</time>
      </trkpt>
      <trkpt lat="47.51786" lon="6.65522">
        <ele>360</ele>
        <time>2016-01-01T10:29:42.000Z</time>
      </trkpt>
      <trkpt lat="47.51782" lon="6.6552">
        <ele>360</ele>
        <time>2016-01-01T10:29:43.000Z</time>
      </trkpt>
      <trkpt lat="47.51777" lon="6.65518">
        <ele>360</ele>
        <time>2016-01-01T10:29:44.000Z</time>
      </trkpt>
      <trkpt lat="47.51773" lon="6.65515">
        <ele>360</ele>
        <time>2016-01-01T10:29:45.000Z</time>
      </trkpt>
      <trkpt lat="47.51769" lon="6.65512">
        <ele>360</ele>
        <time>2016-01-01T10:29:46.000Z</time>
      </trkpt>
      <trkpt lat="47.51765" lon="6.65509">
        <ele>360</ele>
        <time>2016-01-01T10:29:47.000Z</time>
      </trkpt>
      <trkpt lat="47.51761" lon="6.65506">
        <ele>360</ele>
        <time>2016-01-01T10:29:48.000Z</time>
      </trkpt>
      <trkpt lat="47.51757" lon="6.65503">
        <ele>360</ele>
        <time>2016-01-01T10:29:49.000Z</time>
      </trkpt>
      <trkpt lat="47.51752" lon="6.65499">
        <ele>360</ele>
        <time>2016-01-01T10:29:50.000Z</time>
      </trkpt>
      <trkpt lat="47.51748" lon="6.65495">
        <ele>360</ele>
        <time>2016-01-01T10:29:51.000Z</time>
      </trkpt>
      <trkpt lat="47.51743" lon="6.65491">
        <ele>361</ele>
        <time>2016-01-01T10:29:52.000Z</time>
      </trkpt>
      <trkpt lat="47.51739" lon="6.65486">
        <ele>361</ele>
        <time>2016-01-01T10:29:53.000Z</time>
      </trkpt>
      <trkpt lat="47.51735" lon="6.65483">
        <ele>361</ele>
        <time>2016-01-01T10:29:54.000Z</time>
      </trkpt>
      <trkpt lat="47.5173" lon="6.6548">
        <ele>362</ele>
        <time>2016-01-01T10:29:55.000Z</time>
      </trkpt>
      <trkpt lat="47.51727" lon="6.65477">
        <ele>362</ele>
        <time>2016-01-01T10:29:56.000Z</time>
      </trkpt>
      <trkpt lat="47.51723" lon="6.65473">
        <ele>362</ele>
        <time>2016-01-01T10:29:57.000Z</time>
      </trkpt>
      <trkpt lat="47.5172" lon="6.65469">
        <ele>362</ele>
        <time>2016-01-01T10:29:58.000Z</time>
      </trkpt>
      <trkpt lat="47.51716" lon="6.65465">
        <ele>362</ele>
        <time>2016-01-01T10:29:59.000Z</time>
      </trkpt>
      <trkpt lat="47.51713" lon="6.65461">
        <ele>362</ele>
        <time>2016-01-01T10:30:00.000Z</time>
      </trkpt>
      <trkpt lat="47.51709" lon="6.65456">
        <ele>362</ele>
        <time>2016-01-01T10:30:01.000Z</time>
      </trkpt>
      <trkpt lat="47.51704" lon="6.65452">
        <ele>362</ele>
        <time>2016-01-01T10:30:02.000Z</time>
      </trkpt>
      <trkpt lat="47.517" lon="6.65448">
        <ele>362</ele>
        <time>2016-01-01T10:30:03.000Z</time>
      </trkpt>
      <trkpt lat="47.51697" lon="6.65443">
        <ele>362</ele>
        <time>2016-01-01T10:30:04.000Z</time>
      </trkpt>
      <trkpt lat="47.51693" lon="6.65439">
        <ele>362</ele>
        <time>2016-01-01T10:30:05.000Z</time>
      </trkpt>
      <trkpt lat="47.51689" lon="6.65434">
        <ele>363</ele>
        <time>2016-01-01T10:30:06.000Z</time>
      </trkpt>
      <trkpt lat="47.51686" lon="6.6543">
        <ele>363</ele>
        <time>2016-01-01T10:30:07.000Z</time>
      </trkpt>
      <trkpt lat="47.51683" lon="6.65426">
        <ele>363</ele>
        <time>2016-01-01T10:30:08.000Z</time>
      </trkpt>
      <trkpt lat="47.5168" lon="6.65422">
        <ele>363</ele>
        <time>2016-01-01T10:30:09.000Z</time>
      </trkpt>
      <trkpt lat="47.51676" lon="6.65417">
        <ele>363</ele>
        <time>2016-01-01T10:30:09.998Z</time>
      </trkpt>
      <trkpt lat="47.51672" lon="6.65411">
        <ele>363</ele>
        <time>2016-01-01T10:30:11.000Z</time>
      </trkpt>
      <trkpt lat="47.51669" lon="6.65408">
        <ele>363</ele>
        <time>2016-01-01T10:30:12.000Z</time>
      </trkpt>
      <trkpt lat="47.51665" lon="6.65403">
        <ele>363</ele>
        <time>2016-01-01T10:30:13.000Z</time>
      </trkpt>
      <trkpt lat="47.51662" lon="6.65398">
        <ele>363</ele>
        <time>2016-01-01T10:30:14.000Z</time>
      </trkpt>
      <trkpt lat="47.51657" lon="6.65394">
        <ele>363</ele>
        <time>2016-01-01T10:30:15.000Z</time>
      </trkpt>
      <trkpt lat="47.51653" lon="6.65389">
        <ele>363</ele>
        <time>2016-01-01T10:30:16.000Z</time>
      </trkpt>
      <trkpt lat="47.51649" lon="6.65385">
        <ele>363</ele>
        <time>2016-01-01T10:30:17.000Z</time>
      </trkpt>
      <trkpt lat="47.51646" lon="6.65381">
        <ele>364</ele>
        <time>2016-01-01T10:30:18.000Z</time>
      </trkpt>
      <trkpt lat="47.51642" lon="6.65375">
        <ele>364</ele>
        <time>2016-01-01T10:30:19.000Z</time>
      </trkpt>
      <trkpt lat="47.51637" lon="6.65371">
        <ele>364</ele>
        <time>2016-01-01T10:30:20.000Z</time>
      </trkpt>
      <trkpt lat="47.51632" lon="6.65364">
        <ele>364</ele>
        <time>2016-01-01T10:30:21.000Z</time>
      </trkpt>
      <trkpt lat="47.51629" lon="6.6536">
        <ele>364</ele>
        <time>2016-01-01T10:30:22.000Z</time>
      </trkpt>
      <trkpt lat="47.51624" lon="6.65354">
        <ele>364</ele>
        <time>2016-01-01T10:30:23.000Z</time>
      </trkpt>
      <trkpt lat="47.5162" lon="6.65349">
        <ele>364</ele>
        <time>2016-01-01T10:30:24.000Z</time>
      </trkpt>
      <trkpt lat="47.51617" lon="6.65345">
        <ele>364</ele>
        <time>2016-01-01T10:30:25.000Z</time>
      </trkpt>
      <trkpt lat="47.51613" lon="6.65339">
        <ele>364</ele>
        <time>2016-01-01T10:30:26.000Z</time>
      </trkpt>
      <trkpt lat="47.51608" lon="6.65335">
        <ele>364</ele>
        <time>2016-01-01T10:30:27.000Z</time>
      </trkpt>
      <trkpt lat="47.51604" lon="6.65331">
        <ele>363</ele>
        <time>2016-01-01T10:30:28.000Z</time>
      </trkpt>
      <trkpt lat="47.51601" lon="6.65327">
        <ele>363</ele>
        <time>2016-01-01T10:30:29.000Z</time>
      </trkpt>
      <trkpt lat="47.51597" lon="6.65323">
        <ele>363</ele>
        <time>2016-01-01T10:30:30.000Z</time>
      </trkpt>
      <trkpt lat="47.51593" lon="6.6532">
        <ele>363</ele>
        <time>2016-01-01T10:30:31.000Z</time>
      </trkpt>
      <trkpt lat="47.5159" lon="6.65315">
        <ele>363</ele>
        <time>2016-01-01T10:30:32.000Z</time>
      </trkpt>
      <trkpt lat="47.51586" lon="6.65311">
        <ele>363</ele>
        <time>2016-01-01T10:30:33.000Z</time>
      </trkpt>
      <trkpt lat="47.51583" lon="6.65307">
        <ele>366</ele>
        <time>2016-01-01T10:30:34.002Z</time>
      </trkpt>
      <trkpt lat="47.5158" lon="6.65301">
        <ele>366</ele>
        <time>2016-01-01T10:30:35.000Z</time>
      </trkpt>
      <trkpt lat="47.51576" lon="6.65296">
        <ele>366</ele>
        <time>2016-01-01T10:30:36.000Z</time>
      </trkpt>
      <trkpt lat="47.51573" lon="6.65293">
        <ele>366</ele>
        <time>2016-01-01T10:30:37.001Z</time>
      </trkpt>
      <trkpt lat="47.51571" lon="6.65288">
        <ele>366</ele>
        <time>2016-01-01T10:30:38.000Z</time>
      </trkpt>
      <trkpt lat="47.51564" lon="6.65283">
        <ele>366</ele>
        <time>2016-01-01T10:30:39.000Z</time>
      </trkpt>
      <trkpt lat="47.5156" lon="6.65278">
        <ele>366</ele>
        <time>2016-01-01T10:30:40.000Z</time>
      </trkpt>
      <trkpt lat="47.51557" lon="6.65272">
        <ele>366</ele>
        <time>2016-01-01T10:30:41.000Z</time>
      </trkpt>
      <trkpt lat="47.51552" lon="6.65266">
        <ele>366</ele>
        <time>2016-01-01T10:30:42.000Z</time>
      </trkpt>
      <trkpt lat="47.51549" lon="6.65261">
        <ele>366</ele>
        <time>2016-01-01T10:30:43.000Z</time>
      </trkpt>
      <trkpt lat="47.51545" lon="6.65256">
        <ele>366</ele>
        <time>2016-01-01T10:30:44.000Z</time>
      </trkpt>
      <trkpt lat="47.51542" lon="6.65249">
        <ele>365</ele>
        <time>2016-01-01T10:30:45.000Z</time>
      </trkpt>
      <trkpt lat="47.51538" lon="6.65243">
        <ele>365</ele>
        <time>2016-01-01T10:30:46.000Z</time>
      </trkpt>
      <trkpt lat="47.51535" lon="6.65237">
        <ele>365</ele>
        <time>2016-01-01T10:30:47.000Z</time>
      </trkpt>
      <trkpt lat="47.51531" lon="6.65229">
        <ele>365</ele>
        <time>2016-01-01T10:30:48.000Z</time>
      </trkpt>
      <trkpt lat="47.51528" lon="6.65223">
        <ele>366</ele>
        <time>2016-01-01T10:30:49.000Z</time>
      </trkpt>
      <trkpt lat="47.51524" lon="6.65218">
        <ele>366</ele>
        <time>2016-01-01T10:30:50.000Z</time>
      </trkpt>
      <trkpt lat="47.51521" lon="6.65212">
        <ele>366</ele>
        <time>2016-01-01T10:30:51.000Z</time>
      </trkpt>
      <trkpt lat="47.51517" lon="6.65207">
        <ele>366</ele>
        <time>2016-01-01T10:30:52.000Z</time>
      </trkpt>
      <trkpt lat="47.51514" lon="6.65202">
        <ele>366</ele>
        <time>2016-01-01T10:30:53.000Z</time>
      </trkpt>
      <trkpt lat="47.5151" lon="6.65196">
        <ele>366</ele>
        <time>2016-01-01T10:30:54.000Z</time>
      </trkpt>
      <trkpt lat="47.51506" lon="6.65191">
        <ele>366</ele>
        <time>2016-01-01T10:30:55.000Z</time>
      </trkpt>
      <trkpt lat="47.51502" lon="6.65186">
        <ele>366</ele>
        <time>2016-01-01T10:30:56.000Z</time>
      </trkpt>
      <trkpt lat="47.51499" lon="6.6518">
        <ele>369</ele>
        <time>2016-01-01T10:30:57.000Z</time>
      </trkpt>
      <trkpt lat="47.51495" lon="6.65175">
        <ele>369</ele>
        <time>2016-01-01T10:30:58.000Z</time>
      </trkpt>
      <trkpt lat="47.51491" lon="6.6517">
        <ele>369</ele>
        <time>2016-01-01T10:30:59.000Z</time>
      </trkpt>
      <trkpt lat="47.51487" lon="6.65166">
        <ele>368</ele>
        <time>2016-01-01T10:31:00.000Z</time>
      </trkpt>
      <trkpt lat="47.51484" lon="6.65163">
        <ele>369</ele>
        <time>2016-01-01T10:31:01.000Z</time>
      </trkpt>
      <trkpt lat="47.5148" lon="6.6516">
        <ele>369</ele>
        <time>2016-01-01T10:31:02.000Z</time>
      </trkpt>
      <trkpt lat="47.51476" lon="6.65156">
        <ele>370</ele>
        <time>2016-01-01T10:31:03.000Z</time>
      </trkpt>
      <trkpt lat="47.51473" lon="6.65152">
        <ele>370</ele>
        <time>2016-01-01T10:31:04.000Z</time>
      </trkpt>
      <trkpt lat="47.51469" lon="6.65148">
        <ele>371</ele>
        <time>2016-01-01T10:31:05.000Z</time>
      </trkpt>
      <trkpt lat="47.51466" lon="6.65145">
        <ele>371</ele>
        <time>2016-01-01T10:31:06.000Z</time>
      </trkpt>
      <trkpt lat="47.51463" lon="6.65143">
        <ele>371</ele>
        <time>2016-01-01T10:31:07.000Z</time>
      </trkpt>
      <trkpt lat="47.51459" lon="6.6514">
        <ele>372</ele>
        <time>2016-01-01T10:31:08.000Z</time>
      </trkpt>
      <trkpt lat="47.51455" lon="6.65135">
        <ele>372</ele>
        <time>2016-01-01T10:31:09.000Z</time>
      </trkpt>
      <trkpt lat="47.51452" lon="6.65131">
        <ele>372</ele>
        <time>2016-01-01T10:31:10.000Z</time>
      </trkpt>
      <trkpt lat="47.51449" lon="6.65126">
        <ele>372</ele>
        <time>2016-01-01T10:31:11.000Z</time>
      </trkpt>
      <trkpt lat="47.51446" lon="6.65123">
        <ele>372</ele>
        <time>2016-01-01T10:31:12.000Z</time>
      </trkpt>
      <trkpt lat="47.51443" lon="6.65119">
        <ele>372</ele>
        <time>2016-01-01T10:31:13.000Z</time>
      </trkpt>
      <trkpt lat="47.51439" lon="6.65114">
        <ele>373</ele>
        <time>2016-01-01T10:31:14.000Z</time>
      </trkpt>
      <trkpt lat="47.51437" lon="6.65108">
        <ele>373</ele>
        <time>2016-01-01T10:31:15.000Z</time>
      </trkpt>
      <trkpt lat="47.51435" lon="6.65104">
        <ele>373</ele>
        <time>2016-01-01T10:31:16.000Z</time>
      </trkpt>
      <trkpt lat="47.5143" lon="6.651">
        <ele>373</ele>
        <time>2016-01-01T10:31:17.000Z</time>
      </trkpt>
      <trkpt lat="47.51426" lon="6.65097">
        <ele>373</ele>
        <time>2016-01-01T10:31:18.000Z</time>
      </trkpt>
      <trkpt lat="47.51422" lon="6.65093">
        <ele>374</ele>
        <time>2016-01-01T10:31:18.999Z</time>
      </trkpt>
      <trkpt lat="47.51419" lon="6.65088">
        <ele>374</ele>
        <time>2016-01-01T10:31:20.000Z</time>
      </trkpt>
      <trkpt lat="47.51416" lon="6.65084">
        <ele>375</ele>
        <time>2016-01-01T10:31:21.002Z</time>
      </trkpt>
      <trkpt lat="47.51412" lon="6.6508">
        <ele>375</ele>
        <time>2016-01-01T10:31:22.000Z</time>
      </trkpt>
      <trkpt lat="47.51408" lon="6.65076">
        <ele>376</ele>
        <time>2016-01-01T10:31:23.000Z</time>
      </trkpt>
      <trkpt lat="47.51403" lon="6.65071">
        <ele>376</ele>
        <time>2016-01-01T10:31:24.000Z</time>
      </trkpt>
      <trkpt lat="47.51398" lon="6.65066">
        <ele>376</ele>
        <time>2016-01-01T10:31:25.000Z</time>
      </trkpt>
      <trkpt lat="47.51393" lon="6.6506">
        <ele>376</ele>
        <time>2016-01-01T10:31:26.000Z</time>
      </trkpt>
      <trkpt lat="47.5139" lon="6.65054">
        <ele>376</ele>
        <time>2016-01-01T10:31:27.000Z</time>
      </trkpt>
      <trkpt lat="47.51385" lon="6.65048">
        <ele>377</ele>
        <time>2016-01-01T10:31:28.000Z</time>
      </trkpt>
      <trkpt lat="47.5138" lon="6.65041">
        <ele>377</ele>
        <time>2016-01-01T10:31:29.000Z</time>
      </trkpt>
      <trkpt lat="47.51377" lon="6.65035">
        <ele>377</ele>
        <time>2016-01-01T10:31:30.000Z</time>
      </trkpt>
      <trkpt lat="47.51374" lon="6.65027">
        <ele>376</ele>
        <time>2016-01-01T10:31:31.000Z</time>
      </trkpt>
      <trkpt lat="47.51369" lon="6.65021">
        <ele>377</ele>
        <time>2016-01-01T10:31:32.000Z</time>
      </trkpt>
      <trkpt lat="47.51366" lon="6.65016">
        <ele>377</ele>
        <time>2016-01-01T10:31:33.000Z</time>
      </trkpt>
      <trkpt lat="47.51363" lon="6.65009">
        <ele>377</ele>
        <time>2016-01-01T10:31:34.000Z</time>
      </trkpt>
      <trkpt lat="47.51358" lon="6.65003">
        <ele>377</ele>
        <time>2016-01-01T10:31:35.000Z</time>
      </trkpt>
      <trkpt lat="47.51354" lon="6.64998">
        <ele>374</ele>
        <time>2016-01-01T10:31:36.000Z</time>
      </trkpt>
      <trkpt lat="47.51351" lon="6.6499">
        <ele>373</ele>
        <time>2016-01-01T10:31:37.000Z</time>
      </trkpt>
      <trkpt lat="47.51347" lon="6.64985">
        <ele>373</ele>
        <time>2016-01-01T10:31:38.000Z</time>
      </trkpt>
      <trkpt lat="47.51343" lon="6.6498">
        <ele>373</ele>
        <time>2016-01-01T10:31:39.000Z</time>
      </trkpt>
      <trkpt lat="47.51339" lon="6.64975">
        <ele>373</ele>
        <time>2016-01-01T10:31:40.000Z</time>
      </trkpt>
      <trkpt lat="47.51335" lon="6.64969">
        <ele>372</ele>
        <time>2016-01-01T10:31:41.000Z</time>
      </trkpt>
      <trkpt lat="47.51331" lon="6.64964">
        <ele>375</ele>
        <time>2016-01-01T10:31:42.000Z</time>
      </trkpt>
      <trkpt lat="47.51326" lon="6.64958">
        <ele>375</ele>
        <time>2016-01-01T10:31:43.000Z</time>
      </trkpt>
      <trkpt lat="47.51322" lon="6.64951">
        <ele>374</ele>
        <time>2016-01-01T10:31:44.000Z</time>
      </trkpt>
      <trkpt lat="47.51316" lon="6.64945">
        <ele>374</ele>
        <time>2016-01-01T10:31:45.000Z</time>
      </trkpt>
      <trkpt lat="47.51311" lon="6.64937">
        <ele>373</ele>
        <time>2016-01-01T10:31:46.000Z</time>
      </trkpt>
      <trkpt lat="47.51306" lon="6.64928">
        <ele>373</ele>
        <time>2016-01-01T10:31:47.000Z</time>
      </trkpt>
      <trkpt lat="47.51302" lon="6.64921">
        <ele>373</ele>
        <time>2016-01-01T10:31:48.000Z</time>
      </trkpt>
      <trkpt lat="47.51298" lon="6.64913">
        <ele>366</ele>
        <time>2016-01-01T10:31:49.000Z</time>
      </trkpt>
      <trkpt lat="47.51293" lon="6.64905">
        <ele>366</ele>
        <time>2016-01-01T10:31:50.000Z</time>
      </trkpt>
      <trkpt lat="47.51289" lon="6.64897">
        <ele>366</ele>
        <time>2016-01-01T10:31:51.000Z</time>
      </trkpt>
      <trkpt lat="47.51282" lon="6.6489">
        <ele>366</ele>
        <time>2016-01-01T10:31:52.000Z</time>
      </trkpt>
      <trkpt lat="47.51277" lon="6.64884">
        <ele>366</ele>
        <time>2016-01-01T10:31:53.000Z</time>
      </trkpt>
      <trkpt lat="47.5127" lon="6.64879">
        <ele>365</ele>
        <time>2016-01-01T10:31:54.000Z</time>
      </trkpt>
      <trkpt lat="47.51261" lon="6.64879">
        <ele>366</ele>
        <time>2016-01-01T10:31:55.000Z</time>
      </trkpt>
      <trkpt lat="47.51254" lon="6.64879">
        <ele>366</ele>
        <time>2016-01-01T10:31:56.000Z</time>
      </trkpt>
      <trkpt lat="47.51248" lon="6.64881">
        <ele>366</ele>
        <time>2016-01-01T10:31:57.000Z</time>
      </trkpt>
      <trkpt lat="47.51241" lon="6.64882">
        <ele>366</ele>
        <time>2016-01-01T10:31:58.000Z</time>
      </trkpt>
      <trkpt lat="47.51233" lon="6.64884">
        <ele>366</ele>
        <time>2016-01-01T10:31:59.000Z</time>
      </trkpt>
      <trkpt lat="47.51225" lon="6.64884">
        <ele>366</ele>
        <time>2016-01-01T10:32:00.000Z</time>
      </trkpt>
      <trkpt lat="47.51218" lon="6.64884">
        <ele>366</ele>
        <time>2016-01-01T10:32:01.000Z</time>
      </trkpt>
      <trkpt lat="47.51212" lon="6.64882">
        <ele>365</ele>
        <time>2016-01-01T10:32:02.000Z</time>
      </trkpt>
      <trkpt lat="47.51205" lon="6.64881">
        <ele>365</ele>
        <time>2016-01-01T10:32:03.000Z</time>
      </trkpt>
      <trkpt lat="47.51199" lon="6.64879">
        <ele>365</ele>
        <time>2016-01-01T10:32:04.000Z</time>
      </trkpt>
      <trkpt lat="47.51192" lon="6.64876">
        <ele>365</ele>
        <time>2016-01-01T10:32:05.000Z</time>
      </trkpt>
      <trkpt lat="47.51186" lon="6.64873">
        <ele>365</ele>
        <time>2016-01-01T10:32:06.000Z</time>
      </trkpt>
      <trkpt lat="47.51179" lon="6.64875">
        <ele>365</ele>
        <time>2016-01-01T10:32:07.000Z</time>
      </trkpt>
      <trkpt lat="47.51174" lon="6.64876">
        <ele>365</ele>
        <time>2016-01-01T10:32:08.000Z</time>
      </trkpt>
      <trkpt lat="47.51168" lon="6.64884">
        <ele>365</ele>
        <time>2016-01-01T10:32:09.000Z</time>
      </trkpt>
      <trkpt lat="47.51163" lon="6.64891">
        <ele>365</ele>
        <time>2016-01-01T10:32:10.000Z</time>
      </trkpt>
      <trkpt lat="47.51158" lon="6.64897">
        <ele>365</ele>
        <time>2016-01-01T10:32:11.000Z</time>
      </trkpt>
      <trkpt lat="47.51153" lon="6.64903">
        <ele>365</ele>
        <time>2016-01-01T10:32:12.000Z</time>
      </trkpt>
      <trkpt lat="47.51149" lon="6.64908">
        <ele>365</ele>
        <time>2016-01-01T10:32:13.000Z</time>
      </trkpt>
      <trkpt lat="47.51144" lon="6.64916">
        <ele>365</ele>
        <time>2016-01-01T10:32:14.000Z</time>
      </trkpt>
      <trkpt lat="47.51139" lon="6.64922">
        <ele>366</ele>
        <time>2016-01-01T10:32:15.000Z</time>
      </trkpt>
      <trkpt lat="47.51135" lon="6.64928">
        <ele>366</ele>
        <time>2016-01-01T10:32:16.000Z</time>
      </trkpt>
      <trkpt lat="47.51131" lon="6.64934">
        <ele>366</ele>
        <time>2016-01-01T10:32:17.000Z</time>
      </trkpt>
      <trkpt lat="47.51125" lon="6.64942">
        <ele>366</ele>
        <time>2016-01-01T10:32:18.000Z</time>
      </trkpt>
      <trkpt lat="47.51121" lon="6.6495">
        <ele>366</ele>
        <time>2016-01-01T10:32:19.000Z</time>
      </trkpt>
      <trkpt lat="47.51117" lon="6.64957">
        <ele>366</ele>
        <time>2016-01-01T10:32:20.000Z</time>
      </trkpt>
      <trkpt lat="47.51113" lon="6.64963">
        <ele>366</ele>
        <time>2016-01-01T10:32:21.000Z</time>
      </trkpt>
      <trkpt lat="47.51108" lon="6.64969">
        <ele>366</ele>
        <time>2016-01-01T10:32:22.000Z</time>
      </trkpt>
      <trkpt lat="47.51103" lon="6.64975">
        <ele>366</ele>
        <time>2016-01-01T10:32:23.000Z</time>
      </trkpt>
      <trkpt lat="47.51099" lon="6.64982">
        <ele>366</ele>
        <time>2016-01-01T10:32:24.000Z</time>
      </trkpt>
      <trkpt lat="47.51095" lon="6.64987">
        <ele>365</ele>
        <time>2016-01-01T10:32:25.000Z</time>
      </trkpt>
      <trkpt lat="47.51092" lon="6.64994">
        <ele>365</ele>
        <time>2016-01-01T10:32:26.000Z</time>
      </trkpt>
      <trkpt lat="47.51086" lon="6.64998">
        <ele>364</ele>
        <time>2016-01-01T10:32:27.000Z</time>
      </trkpt>
      <trkpt lat="47.51081" lon="6.65002">
        <ele>365</ele>
        <time>2016-01-01T10:32:28.000Z</time>
      </trkpt>
      <trkpt lat="47.51077" lon="6.65006">
        <ele>365</ele>
        <time>2016-01-01T10:32:29.000Z</time>
      </trkpt>
      <trkpt lat="47.51072" lon="6.65008">
        <ele>366</ele>
        <time>2016-01-01T10:32:30.000Z</time>
      </trkpt>
      <trkpt lat="47.51067" lon="6.65012">
        <ele>367</ele>
        <time>2016-01-01T10:32:31.000Z</time>
      </trkpt>
      <trkpt lat="47.51063" lon="6.65015">
        <ele>367</ele>
        <time>2016-01-01T10:32:32.000Z</time>
      </trkpt>
      <trkpt lat="47.51058" lon="6.65018">
        <ele>367</ele>
        <time>2016-01-01T10:32:33.000Z</time>
      </trkpt>
      <trkpt lat="47.51053" lon="6.65021">
        <ele>367</ele>
        <time>2016-01-01T10:32:34.000Z</time>
      </trkpt>
      <trkpt lat="47.51047" lon="6.65024">
        <ele>368</ele>
        <time>2016-01-01T10:32:35.000Z</time>
      </trkpt>
      <trkpt lat="47.51042" lon="6.65027">
        <ele>368</ele>
        <time>2016-01-01T10:32:36.000Z</time>
      </trkpt>
      <trkpt lat="47.51037" lon="6.65032">
        <ele>368</ele>
        <time>2016-01-01T10:32:37.000Z</time>
      </trkpt>
      <trkpt lat="47.51033" lon="6.65036">
        <ele>368</ele>
        <time>2016-01-01T10:32:38.000Z</time>
      </trkpt>
      <trkpt lat="47.51029" lon="6.65038">
        <ele>368</ele>
        <time>2016-01-01T10:32:39.000Z</time>
      </trkpt>
      <trkpt lat="47.51024" lon="6.65042">
        <ele>368</ele>
        <time>2016-01-01T10:32:40.000Z</time>
      </trkpt>
      <trkpt lat="47.5102" lon="6.65047">
        <ele>368</ele>
        <time>2016-01-01T10:32:41.000Z</time>
      </trkpt>
      <trkpt lat="47.51015" lon="6.65051">
        <ele>368</ele>
        <time>2016-01-01T10:32:42.000Z</time>
      </trkpt>
      <trkpt lat="47.51008" lon="6.65056">
        <ele>368</ele>
        <time>2016-01-01T10:32:43.000Z</time>
      </trkpt>
      <trkpt lat="47.51003" lon="6.6506">
        <ele>368</ele>
        <time>2016-01-01T10:32:44.000Z</time>
      </trkpt>
      <trkpt lat="47.50997" lon="6.65065">
        <ele>369</ele>
        <time>2016-01-01T10:32:45.000Z</time>
      </trkpt>
      <trkpt lat="47.50992" lon="6.6507">
        <ele>369</ele>
        <time>2016-01-01T10:32:46.000Z</time>
      </trkpt>
      <trkpt lat="47.50987" lon="6.65073">
        <ele>369</ele>
        <time>2016-01-01T10:32:47.000Z</time>
      </trkpt>
      <trkpt lat="47.50981" lon="6.65076">
        <ele>369</ele>
        <time>2016-01-01T10:32:48.000Z</time>
      </trkpt>
      <trkpt lat="47.50975" lon="6.65081">
        <ele>369</ele>
        <time>2016-01-01T10:32:49.000Z</time>
      </trkpt>
      <trkpt lat="47.50968" lon="6.65084">
        <ele>370</ele>
        <time>2016-01-01T10:32:50.000Z</time>
      </trkpt>
      <trkpt lat="47.50963" lon="6.65088">
        <ele>370</ele>
        <time>2016-01-01T10:32:51.000Z</time>
      </trkpt>
      <trkpt lat="47.50958" lon="6.6509">
        <ele>370</ele>
        <time>2016-01-01T10:32:52.000Z</time>
      </trkpt>
      <trkpt lat="47.50949" lon="6.65096">
        <ele>370</ele>
        <time>2016-01-01T10:32:53.000Z</time>
      </trkpt>
      <trkpt lat="47.50941" lon="6.651">
        <ele>370</ele>
        <time>2016-01-01T10:32:54.000Z</time>
      </trkpt>
      <trkpt lat="47.50937" lon="6.65103">
        <ele>369</ele>
        <time>2016-01-01T10:32:55.000Z</time>
      </trkpt>
      <trkpt lat="47.5093" lon="6.65104">
        <ele>369</ele>
        <time>2016-01-01T10:32:56.000Z</time>
      </trkpt>
      <trkpt lat="47.50925" lon="6.65106">
        <ele>369</ele>
        <time>2016-01-01T10:32:57.000Z</time>
      </trkpt>
      <trkpt lat="47.50921" lon="6.6511">
        <ele>369</ele>
        <time>2016-01-01T10:32:58.000Z</time>
      </trkpt>
      <trkpt lat="47.50914" lon="6.65114">
        <ele>368</ele>
        <time>2016-01-01T10:32:59.000Z</time>
      </trkpt>
      <trkpt lat="47.50909" lon="6.65118">
        <ele>368</ele>
        <time>2016-01-01T10:33:00.000Z</time>
      </trkpt>
      <trkpt lat="47.50904" lon="6.65121">
        <ele>368</ele>
        <time>2016-01-01T10:33:01.000Z</time>
      </trkpt>
      <trkpt lat="47.50897" lon="6.65126">
        <ele>368</ele>
        <time>2016-01-01T10:33:02.000Z</time>
      </trkpt>
      <trkpt lat="47.50894" lon="6.6513">
        <ele>368</ele>
        <time>2016-01-01T10:33:03.000Z</time>
      </trkpt>
      <trkpt lat="47.50891" lon="6.65135">
        <ele>368</ele>
        <time>2016-01-01T10:33:04.000Z</time>
      </trkpt>
      <trkpt lat="47.50886" lon="6.6514">
        <ele>368</ele>
        <time>2016-01-01T10:33:05.000Z</time>
      </trkpt>
      <trkpt lat="47.50882" lon="6.65148">
        <ele>368</ele>
        <time>2016-01-01T10:33:06.000Z</time>
      </trkpt>
      <trkpt lat="47.50876" lon="6.65156">
        <ele>368</ele>
        <time>2016-01-01T10:33:07.000Z</time>
      </trkpt>
      <trkpt lat="47.50871" lon="6.65163">
        <ele>368</ele>
        <time>2016-01-01T10:33:08.000Z</time>
      </trkpt>
      <trkpt lat="47.50865" lon="6.65169">
        <ele>370</ele>
        <time>2016-01-01T10:33:09.000Z</time>
      </trkpt>
      <trkpt lat="47.50861" lon="6.65173">
        <ele>369</ele>
        <time>2016-01-01T10:33:10.000Z</time>
      </trkpt>
      <trkpt lat="47.50856" lon="6.6518">
        <ele>369</ele>
        <time>2016-01-01T10:33:11.000Z</time>
      </trkpt>
      <trkpt lat="47.50851" lon="6.65184">
        <ele>369</ele>
        <time>2016-01-01T10:33:12.000Z</time>
      </trkpt>
      <trkpt lat="47.50847" lon="6.65187">
        <ele>369</ele>
        <time>2016-01-01T10:33:13.000Z</time>
      </trkpt>
      <trkpt lat="47.50841" lon="6.6519">
        <ele>369</ele>
        <time>2016-01-01T10:33:14.000Z</time>
      </trkpt>
      <trkpt lat="47.50837" lon="6.65193">
        <ele>369</ele>
        <time>2016-01-01T10:33:15.000Z</time>
      </trkpt>
      <trkpt lat="47.50834" lon="6.65199">
        <ele>370</ele>
        <time>2016-01-01T10:33:16.000Z</time>
      </trkpt>
      <trkpt lat="47.50827" lon="6.65204">
        <ele>367</ele>
        <time>2016-01-01T10:33:17.000Z</time>
      </trkpt>
      <trkpt lat="47.50822" lon="6.65209">
        <ele>367</ele>
        <time>2016-01-01T10:33:18.000Z</time>
      </trkpt>
      <trkpt lat="47.50819" lon="6.65213">
        <ele>367</ele>
        <time>2016-01-01T10:33:19.000Z</time>
      </trkpt>
      <trkpt lat="47.50814" lon="6.65217">
        <ele>367</ele>
        <time>2016-01-01T10:33:20.000Z</time>
      </trkpt>
      <trkpt lat="47.50809" lon="6.65222">
        <ele>367</ele>
        <time>2016-01-01T10:33:21.000Z</time>
      </trkpt>
      <trkpt lat="47.50803" lon="6.65228">
        <ele>367</ele>
        <time>2016-01-01T10:33:22.000Z</time>
      </trkpt>
      <trkpt lat="47.50798" lon="6.65234">
        <ele>367</ele>
        <time>2016-01-01T10:33:23.000Z</time>
      </trkpt>
      <trkpt lat="47.50793" lon="6.6524">
        <ele>367</ele>
        <time>2016-01-01T10:33:24.000Z</time>
      </trkpt>
      <trkpt lat="47.50788" lon="6.65244">
        <ele>367</ele>
        <time>2016-01-01T10:33:25.000Z</time>
      </trkpt>
      <trkpt lat="47.50784" lon="6.65248">
        <ele>367</ele>
        <time>2016-01-01T10:33:26.000Z</time>
      </trkpt>
      <trkpt lat="47.5078" lon="6.65251">
        <ele>368</ele>
        <time>2016-01-01T10:33:27.000Z</time>
      </trkpt>
      <trkpt lat="47.50775" lon="6.65255">
        <ele>368</ele>
        <time>2016-01-01T10:33:28.000Z</time>
      </trkpt>
      <trkpt lat="47.50769" lon="6.65258">
        <ele>368</ele>
        <time>2016-01-01T10:33:29.000Z</time>
      </trkpt>
      <trkpt lat="47.50764" lon="6.65262">
        <ele>368</ele>
        <time>2016-01-01T10:33:30.000Z</time>
      </trkpt>
      <trkpt lat="47.50759" lon="6.65267">
        <ele>368</ele>
        <time>2016-01-01T10:33:31.000Z</time>
      </trkpt>
      <trkpt lat="47.50755" lon="6.6527">
        <ele>368</ele>
        <time>2016-01-01T10:33:32.000Z</time>
      </trkpt>
      <trkpt lat="47.50751" lon="6.65275">
        <ele>368</ele>
        <time>2016-01-01T10:33:33.000Z</time>
      </trkpt>
      <trkpt lat="47.50748" lon="6.65281">
        <ele>367</ele>
        <time>2016-01-01T10:33:34.000Z</time>
      </trkpt>
      <trkpt lat="47.50745" lon="6.65285">
        <ele>367</ele>
        <time>2016-01-01T10:33:35.000Z</time>
      </trkpt>
      <trkpt lat="47.50743" lon="6.65291">
        <ele>367</ele>
        <time>2016-01-01T10:33:36.000Z</time>
      </trkpt>
      <trkpt lat="47.50739" lon="6.653">
        <ele>367</ele>
        <time>2016-01-01T10:33:37.000Z</time>
      </trkpt>
      <trkpt lat="47.50736" lon="6.65306">
        <ele>367</ele>
        <time>2016-01-01T10:33:38.000Z</time>
      </trkpt>
      <trkpt lat="47.50735" lon="6.65313">
        <ele>367</ele>
        <time>2016-01-01T10:33:39.000Z</time>
      </trkpt>
      <trkpt lat="47.50733" lon="6.65318">
        <ele>367</ele>
        <time>2016-01-01T10:33:40.000Z</time>
      </trkpt>
      <trkpt lat="47.5073" lon="6.65322">
        <ele>367</ele>
        <time>2016-01-01T10:33:41.000Z</time>
      </trkpt>
      <trkpt lat="47.50727" lon="6.65327">
        <ele>367</ele>
        <time>2016-01-01T10:33:42.000Z</time>
      </trkpt>
      <trkpt lat="47.50724" lon="6.65334">
        <ele>369</ele>
        <time>2016-01-01T10:33:43.000Z</time>
      </trkpt>
      <trkpt lat="47.50721" lon="6.65341">
        <ele>369</ele>
        <time>2016-01-01T10:33:44.000Z</time>
      </trkpt>
      <trkpt lat="47.5072" lon="6.65347">
        <ele>369</ele>
        <time>2016-01-01T10:33:45.000Z</time>
      </trkpt>
      <trkpt lat="47.50718" lon="6.65355">
        <ele>369</ele>
        <time>2016-01-01T10:33:46.000Z</time>
      </trkpt>
      <trkpt lat="47.50715" lon="6.65361">
        <ele>369</ele>
        <time>2016-01-01T10:33:47.000Z</time>
      </trkpt>
      <trkpt lat="47.50713" lon="6.65367">
        <ele>369</ele>
        <time>2016-01-01T10:33:48.000Z</time>
      </trkpt>
      <trkpt lat="47.5071" lon="6.65373">
        <ele>369</ele>
        <time>2016-01-01T10:33:49.000Z</time>
      </trkpt>
      <trkpt lat="47.50706" lon="6.6538">
        <ele>369</ele>
        <time>2016-01-01T10:33:50.000Z</time>
      </trkpt>
      <trkpt lat="47.50702" lon="6.65389">
        <ele>369</ele>
        <time>2016-01-01T10:33:51.000Z</time>
      </trkpt>
      <trkpt lat="47.50699" lon="6.65394">
        <ele>369</ele>
        <time>2016-01-01T10:33:52.000Z</time>
      </trkpt>
      <trkpt lat="47.50696" lon="6.65401">
        <ele>369</ele>
        <time>2016-01-01T10:33:53.000Z</time>
      </trkpt>
      <trkpt lat="47.50694" lon="6.65407">
        <ele>369</ele>
        <time>2016-01-01T10:33:54.000Z</time>
      </trkpt>
      <trkpt lat="47.50689" lon="6.65417">
        <ele>369</ele>
        <time>2016-01-01T10:33:55.000Z</time>
      </trkpt>
      <trkpt lat="47.50686" lon="6.65424">
        <ele>371</ele>
        <time>2016-01-01T10:33:56.000Z</time>
      </trkpt>
      <trkpt lat="47.50683" lon="6.65431">
        <ele>371</ele>
        <time>2016-01-01T10:33:57.000Z</time>
      </trkpt>
      <trkpt lat="47.50679" lon="6.65438">
        <ele>371</ele>
        <time>2016-01-01T10:33:58.000Z</time>
      </trkpt>
      <trkpt lat="47.50676" lon="6.65443">
        <ele>371</ele>
        <time>2016-01-01T10:33:59.000Z</time>
      </trkpt>
      <trkpt lat="47.50673" lon="6.65449">
        <ele>371</ele>
        <time>2016-01-01T10:34:00.000Z</time>
      </trkpt>
      <trkpt lat="47.50671" lon="6.65456">
        <ele>372</ele>
        <time>2016-01-01T10:34:01.000Z</time>
      </trkpt>
      <trkpt lat="47.50668" lon="6.65463">
        <ele>372</ele>
        <time>2016-01-01T10:34:02.000Z</time>
      </trkpt>
      <trkpt lat="47.50664" lon="6.65471">
        <ele>368</ele>
        <time>2016-01-01T10:34:03.000Z</time>
      </trkpt>
      <trkpt lat="47.50659" lon="6.65477">
        <ele>368</ele>
        <time>2016-01-01T10:34:04.000Z</time>
      </trkpt>
      <trkpt lat="47.50656" lon="6.65484">
        <ele>368</ele>
        <time>2016-01-01T10:34:05.000Z</time>
      </trkpt>
      <trkpt lat="47.50652" lon="6.65492">
        <ele>368</ele>
        <time>2016-01-01T10:34:06.000Z</time>
      </trkpt>
      <trkpt lat="47.50648" lon="6.65499">
        <ele>368</ele>
        <time>2016-01-01T10:34:07.000Z</time>
      </trkpt>
      <trkpt lat="47.50646" lon="6.65505">
        <ele>368</ele>
        <time>2016-01-01T10:34:08.000Z</time>
      </trkpt>
      <trkpt lat="47.50644" lon="6.65511">
        <ele>368</ele>
        <time>2016-01-01T10:34:09.000Z</time>
      </trkpt>
      <trkpt lat="47.50642" lon="6.65517">
        <ele>367</ele>
        <time>2016-01-01T10:34:10.000Z</time>
      </trkpt>
      <trkpt lat="47.5064" lon="6.65522">
        <ele>367</ele>
        <time>2016-01-01T10:34:11.000Z</time>
      </trkpt>
      <trkpt lat="47.50637" lon="6.6553">
        <ele>367</ele>
        <time>2016-01-01T10:34:12.000Z</time>
      </trkpt>
      <trkpt lat="47.50634" lon="6.65541">
        <ele>367</ele>
        <time>2016-01-01T10:34:13.000Z</time>
      </trkpt>
      <trkpt lat="47.50632" lon="6.65546">
        <ele>367</ele>
        <time>2016-01-01T10:34:14.000Z</time>
      </trkpt>
      <trkpt lat="47.50629" lon="6.65553">
        <ele>367</ele>
        <time>2016-01-01T10:34:15.000Z</time>
      </trkpt>
      <trkpt lat="47.50627" lon="6.65562">
        <ele>367</ele>
        <time>2016-01-01T10:34:16.000Z</time>
      </trkpt>
      <trkpt lat="47.50625" lon="6.65566">
        <ele>367</ele>
        <time>2016-01-01T10:34:17.000Z</time>
      </trkpt>
      <trkpt lat="47.50622" lon="6.65571">
        <ele>367</ele>
        <time>2016-01-01T10:34:18.000Z</time>
      </trkpt>
      <trkpt lat="47.50619" lon="6.65576">
        <ele>366</ele>
        <time>2016-01-01T10:34:19.000Z</time>
      </trkpt>
      <trkpt lat="47.50618" lon="6.6558">
        <ele>366</ele>
        <time>2016-01-01T10:34:20.000Z</time>
      </trkpt>
      <trkpt lat="47.50614" lon="6.65584">
        <ele>368</ele>
        <time>2016-01-01T10:34:21.000Z</time>
      </trkpt>
      <trkpt lat="47.50609" lon="6.6559">
        <ele>367</ele>
        <time>2016-01-01T10:34:22.000Z</time>
      </trkpt>
      <trkpt lat="47.50606" lon="6.65595">
        <ele>367</ele>
        <time>2016-01-01T10:34:23.000Z</time>
      </trkpt>
      <trkpt lat="47.50603" lon="6.65599">
        <ele>367</ele>
        <time>2016-01-01T10:34:24.000Z</time>
      </trkpt>
      <trkpt lat="47.506" lon="6.65603">
        <ele>367</ele>
        <time>2016-01-01T10:34:25.000Z</time>
      </trkpt>
      <trkpt lat="47.50596" lon="6.65607">
        <ele>367</ele>
        <time>2016-01-01T10:34:26.000Z</time>
      </trkpt>
      <trkpt lat="47.50593" lon="6.65611">
        <ele>367</ele>
        <time>2016-01-01T10:34:27.000Z</time>
      </trkpt>
      <trkpt lat="47.5059" lon="6.65616">
        <ele>367</ele>
        <time>2016-01-01T10:34:28.000Z</time>
      </trkpt>
      <trkpt lat="47.50588" lon="6.65621">
        <ele>367</ele>
        <time>2016-01-01T10:34:29.000Z</time>
      </trkpt>
      <trkpt lat="47.50587" lon="6.65626">
        <ele>367</ele>
        <time>2016-01-01T10:34:30.000Z</time>
      </trkpt>
      <trkpt lat="47.50587" lon="6.65632">
        <ele>367</ele>
        <time>2016-01-01T10:34:31.000Z</time>
      </trkpt>
      <trkpt lat="47.50587" lon="6.65637">
        <ele>367</ele>
        <time>2016-01-01T10:34:32.000Z</time>
      </trkpt>
      <trkpt lat="47.50586" lon="6.65641">
        <ele>367</ele>
        <time>2016-01-01T10:34:33.000Z</time>
      </trkpt>
      <trkpt lat="47.50586" lon="6.65645">
        <ele>367</ele>
        <time>2016-01-01T10:34:34.000Z</time>
      </trkpt>
      <trkpt lat="47.50584" lon="6.65649">
        <ele>366</ele>
        <time>2016-01-01T10:34:35.000Z</time>
      </trkpt>
      <trkpt lat="47.50583" lon="6.65653">
        <ele>362</ele>
        <time>2016-01-01T10:34:36.000Z</time>
      </trkpt>
      <trkpt lat="47.50581" lon="6.65657">
        <ele>362</ele>
        <time>2016-01-01T10:34:37.000Z</time>
      </trkpt>
      <trkpt lat="47.50578" lon="6.65662">
        <ele>362</ele>
        <time>2016-01-01T10:34:38.000Z</time>
      </trkpt>
      <trkpt lat="47.50575" lon="6.65667">
        <ele>363</ele>
        <time>2016-01-01T10:34:39.000Z</time>
      </trkpt>
      <trkpt lat="47.50572" lon="6.65673">
        <ele>362</ele>
        <time>2016-01-01T10:34:40.000Z</time>
      </trkpt>
      <trkpt lat="47.50569" lon="6.65678">
        <ele>362</ele>
        <time>2016-01-01T10:34:41.000Z</time>
      </trkpt>
      <trkpt lat="47.50566" lon="6.65683">
        <ele>362</ele>
        <time>2016-01-01T10:34:42.000Z</time>
      </trkpt>
      <trkpt lat="47.50563" lon="6.65689">
        <ele>362</ele>
        <time>2016-01-01T10:34:43.000Z</time>
      </trkpt>
      <trkpt lat="47.5056" lon="6.65695">
        <ele>362</ele>
        <time>2016-01-01T10:34:44.000Z</time>
      </trkpt>
      <trkpt lat="47.50557" lon="6.657">
        <ele>362</ele>
        <time>2016-01-01T10:34:45.000Z</time>
      </trkpt>
      <trkpt lat="47.50548" lon="6.65708">
        <ele>362</ele>
        <time>2016-01-01T10:34:46.000Z</time>
      </trkpt>
      <trkpt lat="47.50543" lon="6.65715">
        <ele>362</ele>
        <time>2016-01-01T10:34:47.000Z</time>
      </trkpt>
      <trkpt lat="47.5054" lon="6.65721">
        <ele>361</ele>
        <time>2016-01-01T10:34:48.000Z</time>
      </trkpt>
      <trkpt lat="47.50537" lon="6.65728">
        <ele>361</ele>
        <time>2016-01-01T10:34:49.000Z</time>
      </trkpt>
      <trkpt lat="47.50535" lon="6.65733">
        <ele>361</ele>
        <time>2016-01-01T10:34:50.000Z</time>
      </trkpt>
      <trkpt lat="47.50534" lon="6.65738">
        <ele>361</ele>
        <time>2016-01-01T10:34:51.000Z</time>
      </trkpt>
      <trkpt lat="47.50533" lon="6.6574">
        <ele>361</ele>
        <time>2016-01-01T10:34:52.000Z</time>
      </trkpt>
      <trkpt lat="47.50531" lon="6.65744">
        <ele>361</ele>
        <time>2016-01-01T10:34:53.000Z</time>
      </trkpt>
      <trkpt lat="47.50528" lon="6.65746">
        <ele>361</ele>
        <time>2016-01-01T10:34:54.000Z</time>
      </trkpt>
      <trkpt lat="47.50524" lon="6.65748">
        <ele>360</ele>
        <time>2016-01-01T10:34:55.000Z</time>
      </trkpt>
      <trkpt lat="47.50515" lon="6.65752">
        <ele>360</ele>
        <time>2016-01-01T10:34:56.000Z</time>
      </trkpt>
      <trkpt lat="47.5051" lon="6.65755">
        <ele>359</ele>
        <time>2016-01-01T10:34:57.000Z</time>
      </trkpt>
      <trkpt lat="47.50506" lon="6.65759">
        <ele>359</ele>
        <time>2016-01-01T10:34:58.000Z</time>
      </trkpt>
      <trkpt lat="47.50503" lon="6.65766">
        <ele>360</ele>
        <time>2016-01-01T10:34:59.000Z</time>
      </trkpt>
      <trkpt lat="47.505" lon="6.6577">
        <ele>360</ele>
        <time>2016-01-01T10:35:00.000Z</time>
      </trkpt>
      <trkpt lat="47.50499" lon="6.65775">
        <ele>358</ele>
        <time>2016-01-01T10:35:01.000Z</time>
      </trkpt>
      <trkpt lat="47.50497" lon="6.6578">
        <ele>358</ele>
        <time>2016-01-01T10:35:02.000Z</time>
      </trkpt>
      <trkpt lat="47.50496" lon="6.65784">
        <ele>358</ele>
        <time>2016-01-01T10:35:03.000Z</time>
      </trkpt>
      <trkpt lat="47.50494" lon="6.6579">
        <ele>358</ele>
        <time>2016-01-01T10:35:04.000Z</time>
      </trkpt>
      <trkpt lat="47.50492" lon="6.65794">
        <ele>357</ele>
        <time>2016-01-01T10:35:05.000Z</time>
      </trkpt>
      <trkpt lat="47.50491" lon="6.65799">
        <ele>357</ele>
        <time>2016-01-01T10:35:06.000Z</time>
      </trkpt>
      <trkpt lat="47.50489" lon="6.65804">
        <ele>357</ele>
        <time>2016-01-01T10:35:07.000Z</time>
      </trkpt>
      <trkpt lat="47.50487" lon="6.65808">
        <ele>357</ele>
        <time>2016-01-01T10:35:08.000Z</time>
      </trkpt>
      <trkpt lat="47.50486" lon="6.65812">
        <ele>357</ele>
        <time>2016-01-01T10:35:09.000Z</time>
      </trkpt>
      <trkpt lat="47.50484" lon="6.65816">
        <ele>357</ele>
        <time>2016-01-01T10:35:10.000Z</time>
      </trkpt>
      <trkpt lat="47.50482" lon="6.65819">
        <ele>357</ele>
        <time>2016-01-01T10:35:11.000Z</time>
      </trkpt>
      <trkpt lat="47.5048" lon="6.65822">
        <ele>357</ele>
        <time>2016-01-01T10:35:12.000Z</time>
      </trkpt>
      <trkpt lat="47.50478" lon="6.65825">
        <ele>357</ele>
        <time>2016-01-01T10:35:13.000Z</time>
      </trkpt>
      <trkpt lat="47.50475" lon="6.65828">
        <ele>357</ele>
        <time>2016-01-01T10:35:14.000Z</time>
      </trkpt>
      <trkpt lat="47.50473" lon="6.6583">
        <ele>357</ele>
        <time>2016-01-01T10:35:15.000Z</time>
      </trkpt>
      <trkpt lat="47.50471" lon="6.65833">
        <ele>357</ele>
        <time>2016-01-01T10:35:16.000Z</time>
      </trkpt>
      <trkpt lat="47.50469" lon="6.65834">
        <ele>357</ele>
        <time>2016-01-01T10:35:17.000Z</time>
      </trkpt>
      <trkpt lat="47.50466" lon="6.65836">
        <ele>357</ele>
        <time>2016-01-01T10:35:18.000Z</time>
      </trkpt>
      <trkpt lat="47.50464" lon="6.65837">
        <ele>357</ele>
        <time>2016-01-01T10:35:19.000Z</time>
      </trkpt>
      <trkpt lat="47.50461" lon="6.65838">
        <ele>357</ele>
        <time>2016-01-01T10:35:20.000Z</time>
      </trkpt>
      <trkpt lat="47.50458" lon="6.65839">
        <ele>357</ele>
        <time>2016-01-01T10:35:21.000Z</time>
      </trkpt>
      <trkpt lat="47.50455" lon="6.65838">
        <ele>357</ele>
        <time>2016-01-01T10:35:22.000Z</time>
      </trkpt>
      <trkpt lat="47.50452" lon="6.65838">
        <ele>357</ele>
        <time>2016-01-01T10:35:23.000Z</time>
      </trkpt>
      <trkpt lat="47.5045" lon="6.65837">
        <ele>357</ele>
        <time>2016-01-01T10:35:24.000Z</time>
      </trkpt>
      <trkpt lat="47.50448" lon="6.65834">
        <ele>357</ele>
        <time>2016-01-01T10:35:25.000Z</time>
      </trkpt>
      <trkpt lat="47.50444" lon="6.6583">
        <ele>357</ele>
        <time>2016-01-01T10:35:27.000Z</time>
      </trkpt>
      <trkpt lat="47.50443" lon="6.65828">
        <ele>357</ele>
        <time>2016-01-01T10:35:28.000Z</time>
      </trkpt>
      <trkpt lat="47.50441" lon="6.65826">
        <ele>357</ele>
        <time>2016-01-01T10:35:29.000Z</time>
      </trkpt>
      <trkpt lat="47.50439" lon="6.65824">
        <ele>357</ele>
        <time>2016-01-01T10:35:30.000Z</time>
      </trkpt>
      <trkpt lat="47.50437" lon="6.65821">
        <ele>357</ele>
        <time>2016-01-01T10:35:31.000Z</time>
      </trkpt>
      <trkpt lat="47.50436" lon="6.65819">
        <ele>357</ele>
        <time>2016-01-01T10:35:32.000Z</time>
      </trkpt>
      <trkpt lat="47.50434" lon="6.65816">
        <ele>357</ele>
        <time>2016-01-01T10:35:33.000Z</time>
      </trkpt>
      <trkpt lat="47.50433" lon="6.65814">
        <ele>358</ele>
        <time>2016-01-01T10:35:34.000Z</time>
      </trkpt>
      <trkpt lat="47.5043" lon="6.65809">
        <ele>358</ele>
        <time>2016-01-01T10:35:36.000Z</time>
      </trkpt>
      <trkpt lat="47.50429" lon="6.65806">
        <ele>358</ele>
        <time>2016-01-01T10:35:37.000Z</time>
      </trkpt>
      <trkpt lat="47.50428" lon="6.65801">
        <ele>358</ele>
        <time>2016-01-01T10:35:39.000Z</time>
      </trkpt>
      <trkpt lat="47.50426" lon="6.658">
        <ele>358</ele>
        <time>2016-01-01T10:35:40.000Z</time>
      </trkpt>
      <trkpt lat="47.50424" lon="6.65797">
        <ele>358</ele>
        <time>2016-01-01T10:35:42.000Z</time>
      </trkpt>
      <trkpt lat="47.50423" lon="6.65796">
        <ele>358</ele>
        <time>2016-01-01T10:35:43.000Z</time>
      </trkpt>
      <trkpt lat="47.5042" lon="6.65793">
        <ele>358</ele>
        <time>2016-01-01T10:35:46.000Z</time>
      </trkpt>
      <trkpt lat="47.50418" lon="6.65792">
        <ele>358</ele>
        <time>2016-01-01T10:35:47.000Z</time>
      </trkpt>
      <trkpt lat="47.50415" lon="6.65793">
        <ele>361</ele>
        <time>2016-01-01T10:35:51.000Z</time>
      </trkpt>
      <trkpt lat="47.50414" lon="6.65794">
        <ele>361</ele>
        <time>2016-01-01T10:35:52.000Z</time>
      </trkpt>
      <trkpt lat="47.50411" lon="6.65799">
        <ele>361</ele>
        <time>2016-01-01T10:35:55.000Z</time>
      </trkpt>
      <trkpt lat="47.5041" lon="6.658">
        <ele>360</ele>
        <time>2016-01-01T10:35:56.000Z</time>
      </trkpt>
      <trkpt lat="47.50406" lon="6.65801">
        <ele>361</ele>
        <time>2016-01-01T10:36:00.000Z</time>
      </trkpt>
      <trkpt lat="47.50405" lon="6.658">
        <ele>361</ele>
        <time>2016-01-01T10:36:01.000Z</time>
      </trkpt>
      <trkpt lat="47.50402" lon="6.65795">
        <ele>361</ele>
        <time>2016-01-01T10:36:03.000Z</time>
      </trkpt>
      <trkpt lat="47.50401" lon="6.65792">
        <ele>361</ele>
        <time>2016-01-01T10:36:04.000Z</time>
      </trkpt>
      <trkpt lat="47.50401" lon="6.65788">
        <ele>361</ele>
        <time>2016-01-01T10:36:05.000Z</time>
      </trkpt>
      <trkpt lat="47.504" lon="6.65785">
        <ele>361</ele>
        <time>2016-01-01T10:36:06.000Z</time>
      </trkpt>
      <trkpt lat="47.504" lon="6.6578">
        <ele>361</ele>
        <time>2016-01-01T10:36:08.000Z</time>
      </trkpt>
      <trkpt lat="47.50399" lon="6.65778">
        <ele>361</ele>
        <time>2016-01-01T10:36:09.000Z</time>
      </trkpt>
      <trkpt lat="47.50395" lon="6.6578">
        <ele>361</ele>
        <time>2016-01-01T10:36:14.000Z</time>
      </trkpt>
      <trkpt lat="47.50394" lon="6.65783">
        <ele>361</ele>
        <time>2016-01-01T10:36:15.000Z</time>
      </trkpt>
      <trkpt lat="47.50393" lon="6.65786">
        <ele>361</ele>
        <time>2016-01-01T10:36:16.000Z</time>
      </trkpt>
      <trkpt lat="47.50391" lon="6.65789">
        <ele>361</ele>
        <time>2016-01-01T10:36:17.000Z</time>
      </trkpt>
      <trkpt lat="47.50388" lon="6.65794">
        <ele>361</ele>
        <time>2016-01-01T10:36:19.000Z</time>
      </trkpt>
      <trkpt lat="47.50387" lon="6.65796">
        <ele>361</ele>
        <time>2016-01-01T10:36:20.000Z</time>
      </trkpt>
      <trkpt lat="47.50384" lon="6.65798">
        <ele>362</ele>
        <time>2016-01-01T10:36:22.000Z</time>
      </trkpt>
      <trkpt lat="47.50382" lon="6.65799">
        <ele>362</ele>
        <time>2016-01-01T10:36:23.000Z</time>
      </trkpt>
      <trkpt lat="47.50378" lon="6.65801">
        <ele>362</ele>
        <time>2016-01-01T10:36:26.000Z</time>
      </trkpt>
      <trkpt lat="47.50376" lon="6.65801">
        <ele>362</ele>
        <time>2016-01-01T10:36:27.000Z</time>
      </trkpt>
      <trkpt lat="47.50373" lon="6.65801">
        <ele>362</ele>
        <time>2016-01-01T10:36:29.000Z</time>
      </trkpt>
      <trkpt lat="47.50371" lon="6.65802">
        <ele>362</ele>
        <time>2016-01-01T10:36:30.000Z</time>
      </trkpt>
      <trkpt lat="47.50367" lon="6.65803">
        <ele>362</ele>
        <time>2016-01-01T10:36:32.000Z</time>
      </trkpt>
      <trkpt lat="47.50366" lon="6.65803">
        <ele>362</ele>
        <time>2016-01-01T10:36:33.000Z</time>
      </trkpt>
      <trkpt lat="47.50362" lon="6.65805">
        <ele>362</ele>
        <time>2016-01-01T10:36:35.000Z</time>
      </trkpt>
      <trkpt lat="47.50361" lon="6.65805">
        <ele>362</ele>
        <time>2016-01-01T10:36:36.000Z</time>
      </trkpt>
      <trkpt lat="47.50357" lon="6.65807">
        <ele>362</ele>
        <time>2016-01-01T10:36:38.000Z</time>
      </trkpt>
      <trkpt lat="47.50356" lon="6.65807">
        <ele>363</ele>
        <time>2016-01-01T10:36:39.000Z</time>
      </trkpt>
      <trkpt lat="47.50352" lon="6.65808">
        <ele>363</ele>
        <time>2016-01-01T10:36:41.000Z</time>
      </trkpt>
      <trkpt lat="47.50349" lon="6.65808">
        <ele>363</ele>
        <time>2016-01-01T10:36:42.000Z</time>
      </trkpt>
      <trkpt lat="47.50347" lon="6.65809">
        <ele>363</ele>
        <time>2016-01-01T10:36:43.000Z</time>
      </trkpt>
      <trkpt lat="47.50344" lon="6.65809">
        <ele>363</ele>
        <time>2016-01-01T10:36:44.000Z</time>
      </trkpt>
      <trkpt lat="47.50342" lon="6.6581">
        <ele>363</ele>
        <time>2016-01-01T10:36:45.000Z</time>
      </trkpt>
      <trkpt lat="47.5034" lon="6.65811">
        <ele>363</ele>
        <time>2016-01-01T10:36:46.000Z</time>
      </trkpt>
      <trkpt lat="47.50337" lon="6.65812">
        <ele>363</ele>
        <time>2016-01-01T10:36:47.000Z</time>
      </trkpt>
      <trkpt lat="47.50335" lon="6.65813">
        <ele>363</ele>
        <time>2016-01-01T10:36:48.000Z</time>
      </trkpt>
      <trkpt lat="47.50332" lon="6.65814">
        <ele>369</ele>
        <time>2016-01-01T10:36:49.000Z</time>
      </trkpt>
      <trkpt lat="47.5033" lon="6.65815">
        <ele>369</ele>
        <time>2016-01-01T10:36:50.000Z</time>
      </trkpt>
      <trkpt lat="47.50327" lon="6.65816">
        <ele>369</ele>
        <time>2016-01-01T10:36:51.000Z</time>
      </trkpt>
      <trkpt lat="47.50324" lon="6.65816">
        <ele>369</ele>
        <time>2016-01-01T10:36:52.000Z</time>
      </trkpt>
      <trkpt lat="47.50321" lon="6.65818">
        <ele>369</ele>
        <time>2016-01-01T10:36:53.000Z</time>
      </trkpt>
      <trkpt lat="47.50318" lon="6.65819">
        <ele>369</ele>
        <time>2016-01-01T10:36:54.000Z</time>
      </trkpt>
      <trkpt lat="47.50316" lon="6.6582">
        <ele>370</ele>
        <time>2016-01-01T10:36:55.000Z</time>
      </trkpt>
      <trkpt lat="47.50313" lon="6.65821">
        <ele>370</ele>
        <time>2016-01-01T10:36:56.000Z</time>
      </trkpt>
      <trkpt lat="47.5031" lon="6.65824">
        <ele>370</ele>
        <time>2016-01-01T10:36:58.000Z</time>
      </trkpt>
      <trkpt lat="47.50309" lon="6.65825">
        <ele>370</ele>
        <time>2016-01-01T10:36:59.000Z</time>
      </trkpt>
      <trkpt lat="47.50306" lon="6.6583">
        <ele>371</ele>
        <time>2016-01-01T10:37:01.000Z</time>
      </trkpt>
      <trkpt lat="47.50305" lon="6.65832">
        <ele>371</ele>
        <time>2016-01-01T10:37:02.000Z</time>
      </trkpt>
      <trkpt lat="47.50302" lon="6.65836">
        <ele>369</ele>
        <time>2016-01-01T10:37:04.000Z</time>
      </trkpt>
      <trkpt lat="47.50301" lon="6.65838">
        <ele>369</ele>
        <time>2016-01-01T10:37:05.000Z</time>
      </trkpt>
      <trkpt lat="47.50299" lon="6.65842">
        <ele>369</ele>
        <time>2016-01-01T10:37:07.000Z</time>
      </trkpt>
      <trkpt lat="47.50297" lon="6.65844">
        <ele>369</ele>
        <time>2016-01-01T10:37:08.000Z</time>
      </trkpt>
      <trkpt lat="47.50296" lon="6.65846">
        <ele>369</ele>
        <time>2016-01-01T10:37:09.000Z</time>
      </trkpt>
      <trkpt lat="47.50294" lon="6.65848">
        <ele>370</ele>
        <time>2016-01-01T10:37:10.000Z</time>
      </trkpt>
      <trkpt lat="47.50292" lon="6.65851">
        <ele>370</ele>
        <time>2016-01-01T10:37:11.000Z</time>
      </trkpt>
      <trkpt lat="47.50291" lon="6.65853">
        <ele>370</ele>
        <time>2016-01-01T10:37:12.000Z</time>
      </trkpt>
      <trkpt lat="47.50289" lon="6.65855">
        <ele>370</ele>
        <time>2016-01-01T10:37:13.000Z</time>
      </trkpt>
      <trkpt lat="47.50287" lon="6.65857">
        <ele>370</ele>
        <time>2016-01-01T10:37:14.000Z</time>
      </trkpt>
      <trkpt lat="47.50285" lon="6.65859">
        <ele>370</ele>
        <time>2016-01-01T10:37:15.000Z</time>
      </trkpt>
      <trkpt lat="47.50283" lon="6.65861">
        <ele>370</ele>
        <time>2016-01-01T10:37:16.000Z</time>
      </trkpt>
      <trkpt lat="47.50281" lon="6.65863">
        <ele>370</ele>
        <time>2016-01-01T10:37:17.000Z</time>
      </trkpt>
      <trkpt lat="47.50279" lon="6.65866">
        <ele>371</ele>
        <time>2016-01-01T10:37:18.000Z</time>
      </trkpt>
      <trkpt lat="47.50276" lon="6.65867">
        <ele>371</ele>
        <time>2016-01-01T10:37:19.000Z</time>
      </trkpt>
      <trkpt lat="47.50275" lon="6.65869">
        <ele>371</ele>
        <time>2016-01-01T10:37:20.000Z</time>
      </trkpt>
      <trkpt lat="47.50273" lon="6.65871">
        <ele>371</ele>
        <time>2016-01-01T10:37:21.000Z</time>
      </trkpt>
      <trkpt lat="47.50271" lon="6.65873">
        <ele>371</ele>
        <time>2016-01-01T10:37:22.000Z</time>
      </trkpt>
      <trkpt lat="47.50269" lon="6.65875">
        <ele>371</ele>
        <time>2016-01-01T10:37:23.000Z</time>
      </trkpt>
      <trkpt lat="47.50267" lon="6.65877">
        <ele>371</ele>
        <time>2016-01-01T10:37:24.000Z</time>
      </trkpt>
      <trkpt lat="47.50265" lon="6.6588">
        <ele>371</ele>
        <time>2016-01-01T10:37:25.000Z</time>
      </trkpt>
      <trkpt lat="47.50263" lon="6.65882">
        <ele>371</ele>
        <time>2016-01-01T10:37:25.998Z</time>
      </trkpt>
      <trkpt lat="47.5026" lon="6.65884">
        <ele>371</ele>
        <time>2016-01-01T10:37:27.000Z</time>
      </trkpt>
      <trkpt lat="47.50258" lon="6.65887">
        <ele>371</ele>
        <time>2016-01-01T10:37:28.000Z</time>
      </trkpt>
      <trkpt lat="47.50255" lon="6.65889">
        <ele>371</ele>
        <time>2016-01-01T10:37:29.000Z</time>
      </trkpt>
      <trkpt lat="47.50253" lon="6.65892">
        <ele>371</ele>
        <time>2016-01-01T10:37:30.000Z</time>
      </trkpt>
      <trkpt lat="47.5025" lon="6.65893">
        <ele>378</ele>
        <time>2016-01-01T10:37:31.000Z</time>
      </trkpt>
      <trkpt lat="47.50247" lon="6.65895">
        <ele>377</ele>
        <time>2016-01-01T10:37:32.000Z</time>
      </trkpt>
      <trkpt lat="47.50243" lon="6.65895">
        <ele>378</ele>
        <time>2016-01-01T10:37:33.000Z</time>
      </trkpt>
      <trkpt lat="47.5024" lon="6.65896">
        <ele>378</ele>
        <time>2016-01-01T10:37:34.000Z</time>
      </trkpt>
      <trkpt lat="47.50236" lon="6.65898">
        <ele>378</ele>
        <time>2016-01-01T10:37:35.000Z</time>
      </trkpt>
      <trkpt lat="47.50233" lon="6.659">
        <ele>378</ele>
        <time>2016-01-01T10:37:36.000Z</time>
      </trkpt>
      <trkpt lat="47.50231" lon="6.65901">
        <ele>378</ele>
        <time>2016-01-01T10:37:37.000Z</time>
      </trkpt>
      <trkpt lat="47.50228" lon="6.65903">
        <ele>378</ele>
        <time>2016-01-01T10:37:38.001Z</time>
      </trkpt>
      <trkpt lat="47.50226" lon="6.65906">
        <ele>378</ele>
        <time>2016-01-01T10:37:39.000Z</time>
      </trkpt>
      <trkpt lat="47.50224" lon="6.65909">
        <ele>379</ele>
        <time>2016-01-01T10:37:40.000Z</time>
      </trkpt>
      <trkpt lat="47.50222" lon="6.65912">
        <ele>379</ele>
        <time>2016-01-01T10:37:41.000Z</time>
      </trkpt>
      <trkpt lat="47.5022" lon="6.65916">
        <ele>379</ele>
        <time>2016-01-01T10:37:42.000Z</time>
      </trkpt>
      <trkpt lat="47.50218" lon="6.65919">
        <ele>374</ele>
        <time>2016-01-01T10:37:43.000Z</time>
      </trkpt>
      <trkpt lat="47.50215" lon="6.65922">
        <ele>374</ele>
        <time>2016-01-01T10:37:44.000Z</time>
      </trkpt>
      <trkpt lat="47.50213" lon="6.65926">
        <ele>374</ele>
        <time>2016-01-01T10:37:45.000Z</time>
      </trkpt>
      <trkpt lat="47.50211" lon="6.65929">
        <ele>375</ele>
        <time>2016-01-01T10:37:46.000Z</time>
      </trkpt>
      <trkpt lat="47.5021" lon="6.65932">
        <ele>375</ele>
        <time>2016-01-01T10:37:47.000Z</time>
      </trkpt>
      <trkpt lat="47.50208" lon="6.65935">
        <ele>375</ele>
        <time>2016-01-01T10:37:48.000Z</time>
      </trkpt>
      <trkpt lat="47.50206" lon="6.65938">
        <ele>375</ele>
        <time>2016-01-01T10:37:49.000Z</time>
      </trkpt>
      <trkpt lat="47.50204" lon="6.65942">
        <ele>375</ele>
        <time>2016-01-01T10:37:50.000Z</time>
      </trkpt>
      <trkpt lat="47.50202" lon="6.65946">
        <ele>375</ele>
        <time>2016-01-01T10:37:51.000Z</time>
      </trkpt>
      <trkpt lat="47.502" lon="6.6595">
        <ele>375</ele>
        <time>2016-01-01T10:37:52.000Z</time>
      </trkpt>
      <trkpt lat="47.50198" lon="6.65954">
        <ele>374</ele>
        <time>2016-01-01T10:37:53.000Z</time>
      </trkpt>
      <trkpt lat="47.50196" lon="6.65957">
        <ele>374</ele>
        <time>2016-01-01T10:37:54.000Z</time>
      </trkpt>
      <trkpt lat="47.50194" lon="6.65961">
        <ele>374</ele>
        <time>2016-01-01T10:37:55.000Z</time>
      </trkpt>
      <trkpt lat="47.50192" lon="6.65964">
        <ele>374</ele>
        <time>2016-01-01T10:37:56.000Z</time>
      </trkpt>
      <trkpt lat="47.5019" lon="6.65968">
        <ele>374</ele>
        <time>2016-01-01T10:37:57.000Z</time>
      </trkpt>
      <trkpt lat="47.50188" lon="6.65972">
        <ele>374</ele>
        <time>2016-01-01T10:37:58.000Z</time>
      </trkpt>
      <trkpt lat="47.50186" lon="6.65975">
        <ele>374</ele>
        <time>2016-01-01T10:37:59.000Z</time>
      </trkpt>
      <trkpt lat="47.50184" lon="6.65979">
        <ele>374</ele>
        <time>2016-01-01T10:38:00.000Z</time>
      </trkpt>
      <trkpt lat="47.50182" lon="6.65982">
        <ele>374</ele>
        <time>2016-01-01T10:38:01.000Z</time>
      </trkpt>
      <trkpt lat="47.50179" lon="6.65985">
        <ele>374</ele>
        <time>2016-01-01T10:38:02.000Z</time>
      </trkpt>
      <trkpt lat="47.50177" lon="6.65989">
        <ele>374</ele>
        <time>2016-01-01T10:38:03.000Z</time>
      </trkpt>
      <trkpt lat="47.50175" lon="6.65992">
        <ele>374</ele>
        <time>2016-01-01T10:38:04.000Z</time>
      </trkpt>
      <trkpt lat="47.50173" lon="6.65996">
        <ele>375</ele>
        <time>2016-01-01T10:38:05.000Z</time>
      </trkpt>
      <trkpt lat="47.50171" lon="6.65999">
        <ele>375</ele>
        <time>2016-01-01T10:38:06.000Z</time>
      </trkpt>
      <trkpt lat="47.50169" lon="6.66002">
        <ele>374</ele>
        <time>2016-01-01T10:38:07.000Z</time>
      </trkpt>
      <trkpt lat="47.50168" lon="6.66005">
        <ele>373</ele>
        <time>2016-01-01T10:38:08.000Z</time>
      </trkpt>
      <trkpt lat="47.50166" lon="6.66008">
        <ele>375</ele>
        <time>2016-01-01T10:38:09.000Z</time>
      </trkpt>
      <trkpt lat="47.50164" lon="6.66012">
        <ele>375</ele>
        <time>2016-01-01T10:38:10.000Z</time>
      </trkpt>
      <trkpt lat="47.50161" lon="6.66016">
        <ele>375</ele>
        <time>2016-01-01T10:38:11.000Z</time>
      </trkpt>
      <trkpt lat="47.50159" lon="6.66021">
        <ele>375</ele>
        <time>2016-01-01T10:38:12.000Z</time>
      </trkpt>
      <trkpt lat="47.50157" lon="6.66026">
        <ele>375</ele>
        <time>2016-01-01T10:38:13.000Z</time>
      </trkpt>
      <trkpt lat="47.50154" lon="6.66031">
        <ele>375</ele>
        <time>2016-01-01T10:38:14.000Z</time>
      </trkpt>
      <trkpt lat="47.50152" lon="6.66037">
        <ele>375</ele>
        <time>2016-01-01T10:38:15.000Z</time>
      </trkpt>
      <trkpt lat="47.5015" lon="6.66042">
        <ele>375</ele>
        <time>2016-01-01T10:38:16.000Z</time>
      </trkpt>
      <trkpt lat="47.50148" lon="6.66047">
        <ele>375</ele>
        <time>2016-01-01T10:38:16.999Z</time>
      </trkpt>
      <trkpt lat="47.50144" lon="6.66051">
        <ele>375</ele>
        <time>2016-01-01T10:38:18.000Z</time>
      </trkpt>
      <trkpt lat="47.50141" lon="6.66054">
        <ele>375</ele>
        <time>2016-01-01T10:38:19.000Z</time>
      </trkpt>
      <trkpt lat="47.50138" lon="6.66056">
        <ele>375</ele>
        <time>2016-01-01T10:38:20.000Z</time>
      </trkpt>
      <trkpt lat="47.50134" lon="6.66058">
        <ele>375</ele>
        <time>2016-01-01T10:38:21.001Z</time>
      </trkpt>
      <trkpt lat="47.50131" lon="6.66059">
        <ele>375</ele>
        <time>2016-01-01T10:38:22.000Z</time>
      </trkpt>
      <trkpt lat="47.50128" lon="6.66061">
        <ele>375</ele>
        <time>2016-01-01T10:38:23.000Z</time>
      </trkpt>
      <trkpt lat="47.50125" lon="6.66064">
        <ele>375</ele>
        <time>2016-01-01T10:38:24.000Z</time>
      </trkpt>
      <trkpt lat="47.50123" lon="6.66066">
        <ele>375</ele>
        <time>2016-01-01T10:38:25.000Z</time>
      </trkpt>
      <trkpt lat="47.5012" lon="6.6607">
        <ele>375</ele>
        <time>2016-01-01T10:38:26.000Z</time>
      </trkpt>
      <trkpt lat="47.50118" lon="6.66073">
        <ele>375</ele>
        <time>2016-01-01T10:38:27.000Z</time>
      </trkpt>
      <trkpt lat="47.50115" lon="6.66077">
        <ele>376</ele>
        <time>2016-01-01T10:38:28.000Z</time>
      </trkpt>
      <trkpt lat="47.50113" lon="6.66081">
        <ele>376</ele>
        <time>2016-01-01T10:38:29.000Z</time>
      </trkpt>
      <trkpt lat="47.50111" lon="6.66084">
        <ele>372</ele>
        <time>2016-01-01T10:38:30.000Z</time>
      </trkpt>
      <trkpt lat="47.50109" lon="6.66088">
        <ele>372</ele>
        <time>2016-01-01T10:38:31.000Z</time>
      </trkpt>
      <trkpt lat="47.50107" lon="6.66092">
        <ele>372</ele>
        <time>2016-01-01T10:38:32.000Z</time>
      </trkpt>
      <trkpt lat="47.50104" lon="6.66096">
        <ele>372</ele>
        <time>2016-01-01T10:38:33.000Z</time>
      </trkpt>
      <trkpt lat="47.50102" lon="6.66099">
        <ele>372</ele>
        <time>2016-01-01T10:38:34.000Z</time>
      </trkpt>
      <trkpt lat="47.501" lon="6.66103">
        <ele>372</ele>
        <time>2016-01-01T10:38:35.000Z</time>
      </trkpt>
      <trkpt lat="47.50098" lon="6.66107">
        <ele>372</ele>
        <time>2016-01-01T10:38:36.000Z</time>
      </trkpt>
      <trkpt lat="47.50096" lon="6.66111">
        <ele>372</ele>
        <time>2016-01-01T10:38:37.000Z</time>
      </trkpt>
      <trkpt lat="47.50094" lon="6.66115">
        <ele>372</ele>
        <time>2016-01-01T10:38:38.000Z</time>
      </trkpt>
      <trkpt lat="47.50092" lon="6.66119">
        <ele>372</ele>
        <time>2016-01-01T10:38:39.000Z</time>
      </trkpt>
      <trkpt lat="47.5009" lon="6.66123">
        <ele>372</ele>
        <time>2016-01-01T10:38:40.000Z</time>
      </trkpt>
      <trkpt lat="47.50089" lon="6.66127">
        <ele>372</ele>
        <time>2016-01-01T10:38:41.000Z</time>
      </trkpt>
      <trkpt lat="47.50087" lon="6.6613">
        <ele>372</ele>
        <time>2016-01-01T10:38:42.000Z</time>
      </trkpt>
      <trkpt lat="47.50085" lon="6.66134">
        <ele>372</ele>
        <time>2016-01-01T10:38:43.000Z</time>
      </trkpt>
      <trkpt lat="47.50083" lon="6.66137">
        <ele>379</ele>
        <time>2016-01-01T10:38:44.000Z</time>
      </trkpt>
      <trkpt lat="47.50081" lon="6.6614">
        <ele>379</ele>
        <time>2016-01-01T10:38:45.000Z</time>
      </trkpt>
      <trkpt lat="47.50079" lon="6.66144">
        <ele>378</ele>
        <time>2016-01-01T10:38:46.000Z</time>
      </trkpt>
      <trkpt lat="47.50077" lon="6.66148">
        <ele>378</ele>
        <time>2016-01-01T10:38:47.000Z</time>
      </trkpt>
      <trkpt lat="47.50074" lon="6.66151">
        <ele>378</ele>
        <time>2016-01-01T10:38:48.000Z</time>
      </trkpt>
      <trkpt lat="47.50072" lon="6.66155">
        <ele>378</ele>
        <time>2016-01-01T10:38:49.000Z</time>
      </trkpt>
      <trkpt lat="47.50071" lon="6.66159">
        <ele>378</ele>
        <time>2016-01-01T10:38:50.000Z</time>
      </trkpt>
      <trkpt lat="47.50069" lon="6.66163">
        <ele>378</ele>
        <time>2016-01-01T10:38:51.000Z</time>
      </trkpt>
      <trkpt lat="47.50067" lon="6.66167">
        <ele>378</ele>
        <time>2016-01-01T10:38:52.000Z</time>
      </trkpt>
      <trkpt lat="47.50065" lon="6.6617">
        <ele>376</ele>
        <time>2016-01-01T10:38:53.000Z</time>
      </trkpt>
      <trkpt lat="47.50064" lon="6.66174">
        <ele>376</ele>
        <time>2016-01-01T10:38:54.000Z</time>
      </trkpt>
      <trkpt lat="47.50061" lon="6.66178">
        <ele>377</ele>
        <time>2016-01-01T10:38:55.000Z</time>
      </trkpt>
      <trkpt lat="47.50058" lon="6.66181">
        <ele>377</ele>
        <time>2016-01-01T10:38:56.000Z</time>
      </trkpt>
      <trkpt lat="47.50056" lon="6.66185">
        <ele>377</ele>
        <time>2016-01-01T10:38:56.999Z</time>
      </trkpt>
      <trkpt lat="47.50054" lon="6.66188">
        <ele>377</ele>
        <time>2016-01-01T10:38:58.000Z</time>
      </trkpt>
      <trkpt lat="47.50051" lon="6.66192">
        <ele>377</ele>
        <time>2016-01-01T10:38:59.000Z</time>
      </trkpt>
      <trkpt lat="47.5005" lon="6.66196">
        <ele>377</ele>
        <time>2016-01-01T10:39:00.000Z</time>
      </trkpt>
      <trkpt lat="47.50048" lon="6.662">
        <ele>378</ele>
        <time>2016-01-01T10:39:01.000Z</time>
      </trkpt>
      <trkpt lat="47.50046" lon="6.66203">
        <ele>378</ele>
        <time>2016-01-01T10:39:02.001Z</time>
      </trkpt>
      <trkpt lat="47.50044" lon="6.66207">
        <ele>378</ele>
        <time>2016-01-01T10:39:03.000Z</time>
      </trkpt>
      <trkpt lat="47.50042" lon="6.66211">
        <ele>378</ele>
        <time>2016-01-01T10:39:04.000Z</time>
      </trkpt>
      <trkpt lat="47.5004" lon="6.66215">
        <ele>378</ele>
        <time>2016-01-01T10:39:05.000Z</time>
      </trkpt>
      <trkpt lat="47.50038" lon="6.66219">
        <ele>378</ele>
        <time>2016-01-01T10:39:05.999Z</time>
      </trkpt>
      <trkpt lat="47.50036" lon="6.66223">
        <ele>378</ele>
        <time>2016-01-01T10:39:07.000Z</time>
      </trkpt>
      <trkpt lat="47.50033" lon="6.66227">
        <ele>378</ele>
        <time>2016-01-01T10:39:08.000Z</time>
      </trkpt>
      <trkpt lat="47.50031" lon="6.6623">
        <ele>378</ele>
        <time>2016-01-01T10:39:09.000Z</time>
      </trkpt>
      <trkpt lat="47.50028" lon="6.66234">
        <ele>378</ele>
        <time>2016-01-01T10:39:10.000Z</time>
      </trkpt>
      <trkpt lat="47.50026" lon="6.66238">
        <ele>379</ele>
        <time>2016-01-01T10:39:11.001Z</time>
      </trkpt>
      <trkpt lat="47.50024" lon="6.66241">
        <ele>379</ele>
        <time>2016-01-01T10:39:12.000Z</time>
      </trkpt>
      <trkpt lat="47.50022" lon="6.66245">
        <ele>379</ele>
        <time>2016-01-01T10:39:13.000Z</time>
      </trkpt>
      <trkpt lat="47.5002" lon="6.66249">
        <ele>379</ele>
        <time>2016-01-01T10:39:14.000Z</time>
      </trkpt>
      <trkpt lat="47.50018" lon="6.66252">
        <ele>376</ele>
        <time>2016-01-01T10:39:15.000Z</time>
      </trkpt>
      <trkpt lat="47.50017" lon="6.66256">
        <ele>376</ele>
        <time>2016-01-01T10:39:16.000Z</time>
      </trkpt>
      <trkpt lat="47.50015" lon="6.66259">
        <ele>376</ele>
        <time>2016-01-01T10:39:17.000Z</time>
      </trkpt>
      <trkpt lat="47.50014" lon="6.66263">
        <ele>376</ele>
        <time>2016-01-01T10:39:18.000Z</time>
      </trkpt>
      <trkpt lat="47.50013" lon="6.66267">
        <ele>376</ele>
        <time>2016-01-01T10:39:19.000Z</time>
      </trkpt>
      <trkpt lat="47.50011" lon="6.6627">
        <ele>376</ele>
        <time>2016-01-01T10:39:20.000Z</time>
      </trkpt>
      <trkpt lat="47.50009" lon="6.66274">
        <ele>375</ele>
        <time>2016-01-01T10:39:21.000Z</time>
      </trkpt>
      <trkpt lat="47.50008" lon="6.66278">
        <ele>375</ele>
        <time>2016-01-01T10:39:21.999Z</time>
      </trkpt>
      <trkpt lat="47.50006" lon="6.66282">
        <ele>375</ele>
        <time>2016-01-01T10:39:23.000Z</time>
      </trkpt>
      <trkpt lat="47.50004" lon="6.66285">
        <ele>374</ele>
        <time>2016-01-01T10:39:24.000Z</time>
      </trkpt>
      <trkpt lat="47.50001" lon="6.66289">
        <ele>374</ele>
        <time>2016-01-01T10:39:25.000Z</time>
      </trkpt>
      <trkpt lat="47.49999" lon="6.66292">
        <ele>381</ele>
        <time>2016-01-01T10:39:26.000Z</time>
      </trkpt>
      <trkpt lat="47.49997" lon="6.66296">
        <ele>380</ele>
        <time>2016-01-01T10:39:26.999Z</time>
      </trkpt>
      <trkpt lat="47.49994" lon="6.66299">
        <ele>380</ele>
        <time>2016-01-01T10:39:28.000Z</time>
      </trkpt>
      <trkpt lat="47.49991" lon="6.66303">
        <ele>380</ele>
        <time>2016-01-01T10:39:29.000Z</time>
      </trkpt>
      <trkpt lat="47.49989" lon="6.66307">
        <ele>380</ele>
        <time>2016-01-01T10:39:30.000Z</time>
      </trkpt>
      <trkpt lat="47.49987" lon="6.66311">
        <ele>379</ele>
        <time>2016-01-01T10:39:31.000Z</time>
      </trkpt>
      <trkpt lat="47.49985" lon="6.66315">
        <ele>379</ele>
        <time>2016-01-01T10:39:32.000Z</time>
      </trkpt>
      <trkpt lat="47.49983" lon="6.66319">
        <ele>379</ele>
        <time>2016-01-01T10:39:33.000Z</time>
      </trkpt>
      <trkpt lat="47.4998" lon="6.66323">
        <ele>379</ele>
        <time>2016-01-01T10:39:34.000Z</time>
      </trkpt>
      <trkpt lat="47.49978" lon="6.66327">
        <ele>379</ele>
        <time>2016-01-01T10:39:35.000Z</time>
      </trkpt>
      <trkpt lat="47.49977" lon="6.6633">
        <ele>379</ele>
        <time>2016-01-01T10:39:36.000Z</time>
      </trkpt>
      <trkpt lat="47.49974" lon="6.66333">
        <ele>379</ele>
        <time>2016-01-01T10:39:37.000Z</time>
      </trkpt>
      <trkpt lat="47.49973" lon="6.66336">
        <ele>377</ele>
        <time>2016-01-01T10:39:38.000Z</time>
      </trkpt>
      <trkpt lat="47.4997" lon="6.6634">
        <ele>377</ele>
        <time>2016-01-01T10:39:39.000Z</time>
      </trkpt>
      <trkpt lat="47.49969" lon="6.66343">
        <ele>378</ele>
        <time>2016-01-01T10:39:40.000Z</time>
      </trkpt>
      <trkpt lat="47.49967" lon="6.66347">
        <ele>378</ele>
        <time>2016-01-01T10:39:41.000Z</time>
      </trkpt>
      <trkpt lat="47.49965" lon="6.66351">
        <ele>378</ele>
        <time>2016-01-01T10:39:42.000Z</time>
      </trkpt>
      <trkpt lat="47.49963" lon="6.66354">
        <ele>378</ele>
        <time>2016-01-01T10:39:43.001Z</time>
      </trkpt>
      <trkpt lat="47.49961" lon="6.66358">
        <ele>378</ele>
        <time>2016-01-01T10:39:44.000Z</time>
      </trkpt>
      <trkpt lat="47.49958" lon="6.66361">
        <ele>378</ele>
        <time>2016-01-01T10:39:45.000Z</time>
      </trkpt>
      <trkpt lat="47.49956" lon="6.66364">
        <ele>379</ele>
        <time>2016-01-01T10:39:46.000Z</time>
      </trkpt>
      <trkpt lat="47.49954" lon="6.66368">
        <ele>379</ele>
        <time>2016-01-01T10:39:47.001Z</time>
      </trkpt>
      <trkpt lat="47.49951" lon="6.66371">
        <ele>379</ele>
        <time>2016-01-01T10:39:48.000Z</time>
      </trkpt>
      <trkpt lat="47.49949" lon="6.66375">
        <ele>379</ele>
        <time>2016-01-01T10:39:49.000Z</time>
      </trkpt>
      <trkpt lat="47.49947" lon="6.66378">
        <ele>379</ele>
        <time>2016-01-01T10:39:50.000Z</time>
      </trkpt>
      <trkpt lat="47.49945" lon="6.66382">
        <ele>379</ele>
        <time>2016-01-01T10:39:51.000Z</time>
      </trkpt>
      <trkpt lat="47.49943" lon="6.66385">
        <ele>379</ele>
        <time>2016-01-01T10:39:52.000Z</time>
      </trkpt>
      <trkpt lat="47.49941" lon="6.66388">
        <ele>379</ele>
        <time>2016-01-01T10:39:53.000Z</time>
      </trkpt>
      <trkpt lat="47.49939" lon="6.66391">
        <ele>379</ele>
        <time>2016-01-01T10:39:54.000Z</time>
      </trkpt>
      <trkpt lat="47.49936" lon="6.66395">
        <ele>380</ele>
        <time>2016-01-01T10:39:55.000Z</time>
      </trkpt>
      <trkpt lat="47.49934" lon="6.66398">
        <ele>380</ele>
        <time>2016-01-01T10:39:56.000Z</time>
      </trkpt>
      <trkpt lat="47.49932" lon="6.66401">
        <ele>380</ele>
        <time>2016-01-01T10:39:57.000Z</time>
      </trkpt>
      <trkpt lat="47.4993" lon="6.66405">
        <ele>381</ele>
        <time>2016-01-01T10:39:58.000Z</time>
      </trkpt>
      <trkpt lat="47.49928" lon="6.66408">
        <ele>381</ele>
        <time>2016-01-01T10:39:59.000Z</time>
      </trkpt>
      <trkpt lat="47.49926" lon="6.66412">
        <ele>381</ele>
        <time>2016-01-01T10:40:00.000Z</time>
      </trkpt>
      <trkpt lat="47.49924" lon="6.66416">
        <ele>382</ele>
        <time>2016-01-01T10:40:01.000Z</time>
      </trkpt>
      <trkpt lat="47.49922" lon="6.6642">
        <ele>382</ele>
        <time>2016-01-01T10:40:02.000Z</time>
      </trkpt>
      <trkpt lat="47.49919" lon="6.66424">
        <ele>381</ele>
        <time>2016-01-01T10:40:03.000Z</time>
      </trkpt>
      <trkpt lat="47.49917" lon="6.66427">
        <ele>381</ele>
        <time>2016-01-01T10:40:04.000Z</time>
      </trkpt>
      <trkpt lat="47.49915" lon="6.66431">
        <ele>385</ele>
        <time>2016-01-01T10:40:05.000Z</time>
      </trkpt>
      <trkpt lat="47.49913" lon="6.66434">
        <ele>385</ele>
        <time>2016-01-01T10:40:06.000Z</time>
      </trkpt>
      <trkpt lat="47.4991" lon="6.66437">
        <ele>385</ele>
        <time>2016-01-01T10:40:07.000Z</time>
      </trkpt>
      <trkpt lat="47.49908" lon="6.6644">
        <ele>386</ele>
        <time>2016-01-01T10:40:08.000Z</time>
      </trkpt>
      <trkpt lat="47.49906" lon="6.66444">
        <ele>386</ele>
        <time>2016-01-01T10:40:09.002Z</time>
      </trkpt>
      <trkpt lat="47.49904" lon="6.66447">
        <ele>386</ele>
        <time>2016-01-01T10:40:10.000Z</time>
      </trkpt>
      <trkpt lat="47.49902" lon="6.6645">
        <ele>386</ele>
        <time>2016-01-01T10:40:11.000Z</time>
      </trkpt>
      <trkpt lat="47.49899" lon="6.66453">
        <ele>386</ele>
        <time>2016-01-01T10:40:12.000Z</time>
      </trkpt>
      <trkpt lat="47.49897" lon="6.66455">
        <ele>386</ele>
        <time>2016-01-01T10:40:13.000Z</time>
      </trkpt>
      <trkpt lat="47.49894" lon="6.66458">
        <ele>386</ele>
        <time>2016-01-01T10:40:13.999Z</time>
      </trkpt>
      <trkpt lat="47.49892" lon="6.6646">
        <ele>386</ele>
        <time>2016-01-01T10:40:15.000Z</time>
      </trkpt>
      <trkpt lat="47.4989" lon="6.66463">
        <ele>386</ele>
        <time>2016-01-01T10:40:16.000Z</time>
      </trkpt>
      <trkpt lat="47.49887" lon="6.66465">
        <ele>387</ele>
        <time>2016-01-01T10:40:17.000Z</time>
      </trkpt>
      <trkpt lat="47.49885" lon="6.66468">
        <ele>387</ele>
        <time>2016-01-01T10:40:18.000Z</time>
      </trkpt>
      <trkpt lat="47.49883" lon="6.6647">
        <ele>387</ele>
        <time>2016-01-01T10:40:18.999Z</time>
      </trkpt>
      <trkpt lat="47.49881" lon="6.66472">
        <ele>387</ele>
        <time>2016-01-01T10:40:20.000Z</time>
      </trkpt>
      <trkpt lat="47.49879" lon="6.66474">
        <ele>387</ele>
        <time>2016-01-01T10:40:21.000Z</time>
      </trkpt>
      <trkpt lat="47.49877" lon="6.66476">
        <ele>387</ele>
        <time>2016-01-01T10:40:22.000Z</time>
      </trkpt>
      <trkpt lat="47.49875" lon="6.66478">
        <ele>387</ele>
        <time>2016-01-01T10:40:22.999Z</time>
      </trkpt>
      <trkpt lat="47.49873" lon="6.66481">
        <ele>387</ele>
        <time>2016-01-01T10:40:24.000Z</time>
      </trkpt>
      <trkpt lat="47.49871" lon="6.66486">
        <ele>387</ele>
        <time>2016-01-01T10:40:26.000Z</time>
      </trkpt>
      <trkpt lat="47.49871" lon="6.66488">
        <ele>387</ele>
        <time>2016-01-01T10:40:27.000Z</time>
      </trkpt>
      <trkpt lat="47.4987" lon="6.66494">
        <ele>387</ele>
        <time>2016-01-01T10:40:30.000Z</time>
      </trkpt>
      <trkpt lat="47.49869" lon="6.66495">
        <ele>387</ele>
        <time>2016-01-01T10:40:31.000Z</time>
      </trkpt>
      <trkpt lat="47.49873" lon="6.66492">
        <ele>387</ele>
        <time>2016-01-01T10:49:12.000Z</time>
      </trkpt>
      <trkpt lat="47.49873" lon="6.66492">
        <ele>387</ele>
        <time>2016-01-01T10:49:13.000Z</time>
      </trkpt>
      <trkpt lat="47.49872" lon="6.66498">
        <ele>387</ele>
        <time>2016-01-01T10:50:23.000Z</time>
      </trkpt>
      <trkpt lat="47.49872" lon="6.66499">
        <ele>387</ele>
        <time>2016-01-01T10:50:24.000Z</time>
      </trkpt>
      <trkpt lat="47.49871" lon="6.66505">
        <ele>384</ele>
        <time>2016-01-01T10:50:34.000Z</time>
      </trkpt>
      <trkpt lat="47.49871" lon="6.66505">
        <ele>384</ele>
        <time>2016-01-01T10:50:35.000Z</time>
      </trkpt>
      <trkpt lat="47.49872" lon="6.665">
        <ele>387</ele>
        <time>2016-01-01T10:50:48.000Z</time>
      </trkpt>
      <trkpt lat="47.49872" lon="6.66499">
        <ele>387</ele>
        <time>2016-01-01T10:50:49.000Z</time>
      </trkpt>
      <trkpt lat="47.49873" lon="6.66492">
        <ele>387</ele>
        <time>2016-01-01T10:50:59.000Z</time>
      </trkpt>
      <trkpt lat="47.49873" lon="6.66492">
        <ele>387</ele>
        <time>2016-01-01T10:51:00.000Z</time>
      </trkpt>
      <trkpt lat="47.49873" lon="6.66487">
        <ele>387</ele>
        <time>2016-01-01T10:51:06.000Z</time>
      </trkpt>
      <trkpt lat="47.49874" lon="6.66484">
        <ele>387</ele>
        <time>2016-01-01T10:51:07.000Z</time>
      </trkpt>
      <trkpt lat="47.49875" lon="6.66477">
        <ele>387</ele>
        <time>2016-01-01T10:51:16.000Z</time>
      </trkpt>
      <trkpt lat="47.49875" lon="6.66477">
        <ele>387</ele>
        <time>2016-01-01T10:51:17.000Z</time>
      </trkpt>
      <trkpt lat="47.49873" lon="6.66481">
        <ele>387</ele>
        <time>2016-01-01T11:01:50.000Z</time>
      </trkpt>
      <trkpt lat="47.49873" lon="6.66484">
        <ele>387</ele>
        <time>2016-01-01T11:01:51.000Z</time>
      </trkpt>
      <trkpt lat="47.49872" lon="6.66488">
        <ele>387</ele>
        <time>2016-01-01T11:01:53.000Z</time>
      </trkpt>
      <trkpt lat="47.49872" lon="6.66491">
        <ele>387</ele>
        <time>2016-01-01T11:01:54.000Z</time>
      </trkpt>
      <trkpt lat="47.49872" lon="6.66495">
        <ele>387</ele>
        <time>2016-01-01T11:02:09.000Z</time>
      </trkpt>
    </trkseg>
  </trk>
</gpx>